<?xml version='1.0' encoding='UTF-8'?><gpx version="1.1" creator="JPX - https://github.com/jenetics/jpx" xmlns="http://www.topografix.com/GPX/1/1"><trk><trkseg><trkpt lat="45.57685490693346" lon="10.755310179284388"><ele>204.99999999999997</ele><time>2026-04-26T06:53:35Z</time></trkpt><trkpt lat="45.576916443677995" lon="10.755330099724128"><ele>205.0</ele><time>2026-04-26T06:53:40Z</time></trkpt><trkpt lat="45.577012542191476" lon="10.755320090359833"><ele>205.0</ele><time>2026-04-26T06:53:42Z</time></trkpt><trkpt lat="45.57709268424843" lon="10.75527064816602"><ele>205.0</ele><time>2026-04-26T06:53:44Z</time></trkpt><trkpt lat="45.577171648237716" lon="10.755307528822183"><ele>204.99999999999997</ele><time>2026-04-26T06:55:40Z</time></trkpt><trkpt lat="45.577196664890614" lon="10.755405429039921"><ele>205.0</ele><time>2026-04-26T06:55:42Z</time></trkpt><trkpt lat="45.577215592887995" lon="10.755555607062506"><ele>205.16666666666666</ele><time>2026-04-26T06:55:44Z</time></trkpt><trkpt lat="45.57722111321197" lon="10.755665097259023"><ele>205.33333333333331</ele><time>2026-04-26T06:55:45Z</time></trkpt><trkpt lat="45.57722099329536" lon="10.755756570175071"><ele>205.5</ele><time>2026-04-26T06:55:46Z</time></trkpt><trkpt lat="45.577217444379535" lon="10.755846919389631"><ele>205.66666666666669</ele><time>2026-04-26T06:55:47Z</time></trkpt><trkpt lat="45.577195890084326" lon="10.755982504853538"><ele>205.83333333333334</ele><time>2026-04-26T06:55:49Z</time></trkpt><trkpt lat="45.57717720630168" lon="10.756108850633709"><ele>206.0</ele><time>2026-04-26T06:55:51Z</time></trkpt><trkpt lat="45.57715207318103" lon="10.756209736920312"><ele>206.0</ele><time>2026-04-26T06:55:53Z</time></trkpt><trkpt lat="45.57712040699907" lon="10.75630646036251"><ele>206.0</ele><time>2026-04-26T06:55:57Z</time></trkpt><trkpt lat="45.57707973325346" lon="10.756396882857764"><ele>206.0</ele><time>2026-04-26T06:56:20Z</time></trkpt><trkpt lat="45.577019618631674" lon="10.756509860326815"><ele>206.0</ele><time>2026-04-26T06:56:33Z</time></trkpt><trkpt lat="45.576955668759894" lon="10.75663164921658"><ele>206.0</ele><time>2026-04-26T06:56:35Z</time></trkpt><trkpt lat="45.576863001626634" lon="10.756741955566518"><ele>206.0</ele><time>2026-04-26T06:56:37Z</time></trkpt><trkpt lat="45.57675024267127" lon="10.756822193370176"><ele>206.0</ele><time>2026-04-26T06:56:39Z</time></trkpt><trkpt lat="45.57666882370382" lon="10.756839215857912"><ele>206.0</ele><time>2026-04-26T06:56:40Z</time></trkpt><trkpt lat="45.57658248418635" lon="10.756863633157286"><ele>206.0</ele><time>2026-04-26T06:56:41Z</time></trkpt><trkpt lat="45.57649983167641" lon="10.756890125751498"><ele>206.0</ele><time>2026-04-26T06:56:42Z</time></trkpt><trkpt lat="45.576404295340296" lon="10.756926439757615"><ele>206.0</ele><time>2026-04-26T06:56:43Z</time></trkpt><trkpt lat="45.57630232543503" lon="10.756962815975847"><ele>206.0</ele><time>2026-04-26T06:56:44Z</time></trkpt><trkpt lat="45.57619015683881" lon="10.75700029290962"><ele>206.0</ele><time>2026-04-26T06:56:45Z</time></trkpt><trkpt lat="45.576084454139" lon="10.757029314227152"><ele>206.0</ele><time>2026-04-26T06:56:46Z</time></trkpt><trkpt lat="45.575953073654915" lon="10.757070452945703"><ele>206.5</ele><time>2026-04-26T06:56:47Z</time></trkpt><trkpt lat="45.57582659148242" lon="10.757112566502853"><ele>207.0</ele><time>2026-04-26T06:56:48Z</time></trkpt><trkpt lat="45.57572125941044" lon="10.7571456024546"><ele>207.5</ele><time>2026-04-26T06:56:49Z</time></trkpt><trkpt lat="45.575614255394385" lon="10.757182330902607"><ele>208.0</ele><time>2026-04-26T06:56:50Z</time></trkpt><trkpt lat="45.57550192482684" lon="10.757221441770549"><ele>208.0</ele><time>2026-04-26T06:56:51Z</time></trkpt><trkpt lat="45.57538151515415" lon="10.757256892236658"><ele>208.0</ele><time>2026-04-26T06:56:52Z</time></trkpt><trkpt lat="45.575279582716036" lon="10.757284753427408"><ele>208.0</ele><time>2026-04-26T06:56:53Z</time></trkpt><trkpt lat="45.57516886509256" lon="10.757316758152935"><ele>208.0</ele><time>2026-04-26T06:56:54Z</time></trkpt><trkpt lat="45.57506441598813" lon="10.757350344505289"><ele>208.0</ele><time>2026-04-26T06:56:55Z</time></trkpt><trkpt lat="45.57494795345513" lon="10.757387618591945"><ele>207.75</ele><time>2026-04-26T06:56:56Z</time></trkpt><trkpt lat="45.57482394289912" lon="10.757425652971325"><ele>207.5</ele><time>2026-04-26T06:56:57Z</time></trkpt><trkpt lat="45.57470751682072" lon="10.757463054535453"><ele>207.25</ele><time>2026-04-26T06:56:58Z</time></trkpt><trkpt lat="45.57460184458081" lon="10.75750145989396"><ele>207.0</ele><time>2026-04-26T06:56:59Z</time></trkpt><trkpt lat="45.57449932809497" lon="10.75753611450773"><ele>206.5</ele><time>2026-04-26T06:57:00Z</time></trkpt><trkpt lat="45.574386213100766" lon="10.757577001456653"><ele>206.0</ele><time>2026-04-26T06:57:01Z</time></trkpt><trkpt lat="45.57426158555164" lon="10.757615568361407"><ele>205.5</ele><time>2026-04-26T06:57:02Z</time></trkpt><trkpt lat="45.57414525751346" lon="10.757659178721834"><ele>205.0</ele><time>2026-04-26T06:57:03Z</time></trkpt><trkpt lat="45.574037906494766" lon="10.757693103648304"><ele>204.8</ele><time>2026-04-26T06:57:04Z</time></trkpt><trkpt lat="45.57394036330145" lon="10.75772334850758"><ele>204.6</ele><time>2026-04-26T06:57:05Z</time></trkpt><trkpt lat="45.5738317949524" lon="10.75776015695672"><ele>204.39999999999998</ele><time>2026-04-26T06:57:06Z</time></trkpt><trkpt lat="45.57372294420454" lon="10.757795837093637"><ele>204.2</ele><time>2026-04-26T06:57:07Z</time></trkpt><trkpt lat="45.57360665258368" lon="10.7578335143268"><ele>204.0</ele><time>2026-04-26T06:57:08Z</time></trkpt><trkpt lat="45.57348991798934" lon="10.757870856331202"><ele>204.5</ele><time>2026-04-26T06:57:09Z</time></trkpt><trkpt lat="45.5733712101509" lon="10.757901772629225"><ele>205.0</ele><time>2026-04-26T06:57:10Z</time></trkpt><trkpt lat="45.57326428093008" lon="10.757925510437163"><ele>205.5</ele><time>2026-04-26T06:57:11Z</time></trkpt><trkpt lat="45.57315656155354" lon="10.757953157853441"><ele>206.0</ele><time>2026-04-26T06:57:12Z</time></trkpt><trkpt lat="45.57304174398123" lon="10.75798326908223"><ele>206.0</ele><time>2026-04-26T06:57:13Z</time></trkpt><trkpt lat="45.572924572180334" lon="10.758012694906787"><ele>206.0</ele><time>2026-04-26T06:57:14Z</time></trkpt><trkpt lat="45.57282659920794" lon="10.7580391856693"><ele>206.0</ele><time>2026-04-26T06:57:15Z</time></trkpt><trkpt lat="45.5727396246717" lon="10.758065263472673"><ele>206.0</ele><time>2026-04-26T06:57:16Z</time></trkpt><trkpt lat="45.572646169260906" lon="10.758088177754722"><ele>206.0</ele><time>2026-04-26T06:57:17Z</time></trkpt><trkpt lat="45.57255880063003" lon="10.758120069284171"><ele>206.16666666666669</ele><time>2026-04-26T06:57:18Z</time></trkpt><trkpt lat="45.57248591066353" lon="10.758144936066692"><ele>206.33333333333334</ele><time>2026-04-26T06:57:19Z</time></trkpt><trkpt lat="45.57241297327307" lon="10.758178091495182"><ele>206.5</ele><time>2026-04-26T06:57:20Z</time></trkpt><trkpt lat="45.57232552733712" lon="10.758210628642958"><ele>206.66666666666669</ele><time>2026-04-26T06:57:21Z</time></trkpt><trkpt lat="45.57225723038301" lon="10.758235458963183"><ele>206.83333333333334</ele><time>2026-04-26T06:57:22Z</time></trkpt><trkpt lat="45.572172166521916" lon="10.758267874697152"><ele>207.0</ele><time>2026-04-26T06:57:23Z</time></trkpt><trkpt lat="45.57209081359058" lon="10.75828644046217"><ele>207.2</ele><time>2026-04-26T06:57:24Z</time></trkpt><trkpt lat="45.57199910759016" lon="10.758320787447202"><ele>207.39999999999998</ele><time>2026-04-26T06:57:25Z</time></trkpt><trkpt lat="45.571910969850656" lon="10.758394037985981"><ele>207.60000000000002</ele><time>2026-04-26T06:57:26Z</time></trkpt><trkpt lat="45.57182364498399" lon="10.758506077844247"><ele>207.8</ele><time>2026-04-26T06:57:27Z</time></trkpt><trkpt lat="45.57172941221702" lon="10.758612663396955"><ele>208.0</ele><time>2026-04-26T06:57:28Z</time></trkpt><trkpt lat="45.57161780597007" lon="10.758700318827248"><ele>207.75</ele><time>2026-04-26T06:57:29Z</time></trkpt><trkpt lat="45.57150720020428" lon="10.758789591521245"><ele>207.5</ele><time>2026-04-26T06:57:30Z</time></trkpt><trkpt lat="45.57139427331415" lon="10.758873763926847"><ele>207.25</ele><time>2026-04-26T06:57:31Z</time></trkpt><trkpt lat="45.5712910615566" lon="10.758955555033145"><ele>207.0</ele><time>2026-04-26T06:57:32Z</time></trkpt><trkpt lat="45.571173163879585" lon="10.759047957477584"><ele>207.0</ele><time>2026-04-26T06:57:33Z</time></trkpt><trkpt lat="45.5710570920035" lon="10.759140201372109"><ele>207.0</ele><time>2026-04-26T06:57:34Z</time></trkpt><trkpt lat="45.57094356610997" lon="10.7592297664539"><ele>207.0</ele><time>2026-04-26T06:57:35Z</time></trkpt><trkpt lat="45.57083921639703" lon="10.759312779384475"><ele>207.0</ele><time>2026-04-26T06:57:36Z</time></trkpt><trkpt lat="45.57073002521032" lon="10.75939487245322"><ele>206.2</ele><time>2026-04-26T06:57:37Z</time></trkpt><trkpt lat="45.57062968280449" lon="10.759473062480001"><ele>205.39999999999998</ele><time>2026-04-26T06:57:38Z</time></trkpt><trkpt lat="45.57052924912825" lon="10.759555642741786"><ele>204.60000000000002</ele><time>2026-04-26T06:57:39Z</time></trkpt><trkpt lat="45.570436565059126" lon="10.759634829365137"><ele>203.8</ele><time>2026-04-26T06:57:40Z</time></trkpt><trkpt lat="45.570340348287914" lon="10.759710975934974"><ele>203.0</ele><time>2026-04-26T06:57:41Z</time></trkpt><trkpt lat="45.570245047041226" lon="10.759781654876234"><ele>202.8</ele><time>2026-04-26T06:57:42Z</time></trkpt><trkpt lat="45.57015485535348" lon="10.759853860039849"><ele>202.60000000000002</ele><time>2026-04-26T06:57:43Z</time></trkpt><trkpt lat="45.57007770088739" lon="10.7599067100297"><ele>202.39999999999998</ele><time>2026-04-26T06:57:44Z</time></trkpt><trkpt lat="45.56998816886998" lon="10.759953262090429"><ele>202.2</ele><time>2026-04-26T06:57:46Z</time></trkpt><trkpt lat="45.56993602661233" lon="10.760006735025517"><ele>202.0</ele><time>2026-04-26T06:58:06Z</time></trkpt><trkpt lat="45.56983909600889" lon="10.760114715375375"><ele>202.0</ele><time>2026-04-26T06:58:08Z</time></trkpt><trkpt lat="45.56976464039423" lon="10.760165596120588"><ele>202.0</ele><time>2026-04-26T06:58:09Z</time></trkpt><trkpt lat="45.56968111211443" lon="10.760230003784894"><ele>202.0</ele><time>2026-04-26T06:58:10Z</time></trkpt><trkpt lat="45.56958847912856" lon="10.760303421059568"><ele>202.0</ele><time>2026-04-26T06:58:11Z</time></trkpt><trkpt lat="45.56948649530295" lon="10.760376337838027"><ele>202.0</ele><time>2026-04-26T06:58:12Z</time></trkpt><trkpt lat="45.56939601124465" lon="10.760447464480759"><ele>202.0</ele><time>2026-04-26T06:58:13Z</time></trkpt><trkpt lat="45.569294619288875" lon="10.760528052618787"><ele>202.0</ele><time>2026-04-26T06:58:14Z</time></trkpt><trkpt lat="45.569183547985425" lon="10.760622630847529"><ele>202.0</ele><time>2026-04-26T06:58:15Z</time></trkpt><trkpt lat="45.56906945930931" lon="10.760713261033473"><ele>202.0</ele><time>2026-04-26T06:58:16Z</time></trkpt><trkpt lat="45.56896180867216" lon="10.76079951577744"><ele>202.0</ele><time>2026-04-26T06:58:17Z</time></trkpt><trkpt lat="45.56885376505155" lon="10.760880400359692"><ele>202.0</ele><time>2026-04-26T06:58:18Z</time></trkpt><trkpt lat="45.56873701454797" lon="10.76097507108281"><ele>202.0</ele><time>2026-04-26T06:58:19Z</time></trkpt><trkpt lat="45.56861766627849" lon="10.761072631588883"><ele>202.0</ele><time>2026-04-26T06:58:20Z</time></trkpt><trkpt lat="45.56850184490316" lon="10.761162481572615"><ele>201.5</ele><time>2026-04-26T06:58:21Z</time></trkpt><trkpt lat="45.56837630253595" lon="10.761261598062076"><ele>201.0</ele><time>2026-04-26T06:58:22Z</time></trkpt><trkpt lat="45.56825791867965" lon="10.76135718076688"><ele>200.5</ele><time>2026-04-26T06:58:23Z</time></trkpt><trkpt lat="45.568135268495595" lon="10.761456108662596"><ele>200.0</ele><time>2026-04-26T06:58:24Z</time></trkpt><trkpt lat="45.56802467983339" lon="10.761549513498794"><ele>200.0</ele><time>2026-04-26T06:58:25Z</time></trkpt><trkpt lat="45.56790998291077" lon="10.761638593378489"><ele>200.0</ele><time>2026-04-26T06:58:26Z</time></trkpt><trkpt lat="45.56779705579384" lon="10.761727864536118"><ele>200.0</ele><time>2026-04-26T06:58:27Z</time></trkpt><trkpt lat="45.56768376793501" lon="10.761818341412143"><ele>200.0</ele><time>2026-04-26T06:58:28Z</time></trkpt><trkpt lat="45.56756552575312" lon="10.761908568453453"><ele>199.5</ele><time>2026-04-26T06:58:29Z</time></trkpt><trkpt lat="45.56744420299971" lon="10.76200177986412"><ele>199.0</ele><time>2026-04-26T06:58:30Z</time></trkpt><trkpt lat="45.56732697943674" lon="10.76209622550379"><ele>198.5</ele><time>2026-04-26T06:58:31Z</time></trkpt><trkpt lat="45.56720514953184" lon="10.762191530225152"><ele>198.0</ele><time>2026-04-26T06:58:32Z</time></trkpt><trkpt lat="45.56708549620995" lon="10.762285064970163"><ele>198.75</ele><time>2026-04-26T06:58:33Z</time></trkpt><trkpt lat="45.56696315797251" lon="10.762380866121028"><ele>199.5</ele><time>2026-04-26T06:58:34Z</time></trkpt><trkpt lat="45.56685255754709" lon="10.762461978864996"><ele>200.25</ele><time>2026-04-26T06:58:35Z</time></trkpt><trkpt lat="45.5667354485592" lon="10.76254638149438"><ele>201.0</ele><time>2026-04-26T06:58:36Z</time></trkpt><trkpt lat="45.56661530209683" lon="10.762637548455093"><ele>200.75</ele><time>2026-04-26T06:58:37Z</time></trkpt><trkpt lat="45.56649159815123" lon="10.762719215028236"><ele>200.5</ele><time>2026-04-26T06:58:38Z</time></trkpt><trkpt lat="45.566360786278125" lon="10.762799910788777"><ele>200.25</ele><time>2026-04-26T06:58:39Z</time></trkpt><trkpt lat="45.5662397971878" lon="10.762863448589016"><ele>200.0</ele><time>2026-04-26T06:58:40Z</time></trkpt><trkpt lat="45.56610765105447" lon="10.762922509385396"><ele>200.0</ele><time>2026-04-26T06:58:41Z</time></trkpt><trkpt lat="45.5659815324658" lon="10.762967056934077"><ele>200.0</ele><time>2026-04-26T06:58:42Z</time></trkpt><trkpt lat="45.56584480025421" lon="10.763005834959014"><ele>200.0</ele><time>2026-04-26T06:58:43Z</time></trkpt><trkpt lat="45.56570594560086" lon="10.763033958142584"><ele>200.0</ele><time>2026-04-26T06:58:44Z</time></trkpt><trkpt lat="45.565566594426656" lon="10.76306291135623"><ele>200.0</ele><time>2026-04-26T06:58:45Z</time></trkpt><trkpt lat="45.5654284244323" lon="10.763088031731547"><ele>200.0</ele><time>2026-04-26T06:58:46Z</time></trkpt><trkpt lat="45.56530241225745" lon="10.763108411587844"><ele>200.0</ele><time>2026-04-26T06:58:47Z</time></trkpt><trkpt lat="45.56518489865694" lon="10.763131863671275"><ele>200.0</ele><time>2026-04-26T06:58:48Z</time></trkpt><trkpt lat="45.565070398704236" lon="10.76315616318323"><ele>200.5</ele><time>2026-04-26T06:58:49Z</time></trkpt><trkpt lat="45.564956329458894" lon="10.76317984981804"><ele>201.0</ele><time>2026-04-26T06:58:50Z</time></trkpt><trkpt lat="45.56484332624436" lon="10.763204876013452"><ele>201.5</ele><time>2026-04-26T06:58:51Z</time></trkpt><trkpt lat="45.56472833557167" lon="10.763229975112592"><ele>202.0</ele><time>2026-04-26T06:58:52Z</time></trkpt><trkpt lat="45.56461380547437" lon="10.763257780478853"><ele>202.0</ele><time>2026-04-26T06:58:53Z</time></trkpt><trkpt lat="45.56451291297176" lon="10.763294547637996"><ele>202.0</ele><time>2026-04-26T06:58:54Z</time></trkpt><trkpt lat="45.56441080552681" lon="10.763342933893048"><ele>202.0</ele><time>2026-04-26T06:58:55Z</time></trkpt><trkpt lat="45.564294746070786" lon="10.763402271879842"><ele>202.0</ele><time>2026-04-26T06:58:56Z</time></trkpt><trkpt lat="45.56418303809743" lon="10.76346378313804"><ele>202.0</ele><time>2026-04-26T06:58:57Z</time></trkpt><trkpt lat="45.564066456852096" lon="10.763524291104831"><ele>202.0</ele><time>2026-04-26T06:58:58Z</time></trkpt><trkpt lat="45.56394827367048" lon="10.763587215251619"><ele>202.0</ele><time>2026-04-26T06:58:59Z</time></trkpt><trkpt lat="45.5638312786404" lon="10.763645292657626"><ele>202.0</ele><time>2026-04-26T06:59:00Z</time></trkpt><trkpt lat="45.563746148169386" lon="10.763687712007341"><ele>201.25</ele><time>2026-04-26T06:59:01Z</time></trkpt><trkpt lat="45.56365645227198" lon="10.763732912525706"><ele>200.5</ele><time>2026-04-26T06:59:02Z</time></trkpt><trkpt lat="45.56353677069991" lon="10.763789392565503"><ele>199.75</ele><time>2026-04-26T06:59:03Z</time></trkpt><trkpt lat="45.56341022229493" lon="10.763857163713887"><ele>199.0</ele><time>2026-04-26T06:59:04Z</time></trkpt><trkpt lat="45.56328558583328" lon="10.763921221228506"><ele>199.0</ele><time>2026-04-26T06:59:05Z</time></trkpt><trkpt lat="45.563160547380726" lon="10.763982874272537"><ele>199.0</ele><time>2026-04-26T06:59:06Z</time></trkpt><trkpt lat="45.56303815467329" lon="10.764043152616196"><ele>199.0</ele><time>2026-04-26T06:59:07Z</time></trkpt><trkpt lat="45.56290786213104" lon="10.76410918560799"><ele>199.0</ele><time>2026-04-26T06:59:08Z</time></trkpt><trkpt lat="45.56278967990939" lon="10.764176242981984"><ele>198.75</ele><time>2026-04-26T06:59:09Z</time></trkpt><trkpt lat="45.562664752488075" lon="10.764244492654976"><ele>198.5</ele><time>2026-04-26T06:59:10Z</time></trkpt><trkpt lat="45.56254119982456" lon="10.764308748209633"><ele>198.25</ele><time>2026-04-26T06:59:11Z</time></trkpt><trkpt lat="45.562421008726396" lon="10.76437210287908"><ele>198.0</ele><time>2026-04-26T06:59:12Z</time></trkpt><trkpt lat="45.562298135876354" lon="10.764439827472376"><ele>198.0</ele><time>2026-04-26T06:59:13Z</time></trkpt><trkpt lat="45.562183432392494" lon="10.764502370275421"><ele>198.0</ele><time>2026-04-26T06:59:14Z</time></trkpt><trkpt lat="45.562073573640966" lon="10.764559392213629"><ele>198.0</ele><time>2026-04-26T06:59:15Z</time></trkpt><trkpt lat="45.561979791075444" lon="10.764622728841207"><ele>198.0</ele><time>2026-04-26T06:59:16Z</time></trkpt><trkpt lat="45.56188544129457" lon="10.764707006798213"><ele>198.60000000000002</ele><time>2026-04-26T06:59:17Z</time></trkpt><trkpt lat="45.56178620588317" lon="10.76479233823721"><ele>199.20000000000002</ele><time>2026-04-26T06:59:18Z</time></trkpt><trkpt lat="45.56169667535711" lon="10.76486835302477"><ele>199.8</ele><time>2026-04-26T06:59:19Z</time></trkpt><trkpt lat="45.56162333580904" lon="10.764940574310323"><ele>200.4</ele><time>2026-04-26T06:59:20Z</time></trkpt><trkpt lat="45.561567764103664" lon="10.76499900327608"><ele>201.0</ele><time>2026-04-26T06:59:21Z</time></trkpt><trkpt lat="45.56147837273608" lon="10.765027883728118"><ele>201.0</ele><time>2026-04-26T06:59:23Z</time></trkpt><trkpt lat="45.56148420057702" lon="10.76491921106637"><ele>201.0</ele><time>2026-04-26T06:59:25Z</time></trkpt><trkpt lat="45.56147539766047" lon="10.764735947333778"><ele>201.0</ele><time>2026-04-26T06:59:27Z</time></trkpt><trkpt lat="45.56147963889755" lon="10.764607824519187"><ele>201.0</ele><time>2026-04-26T06:59:28Z</time></trkpt><trkpt lat="45.561476890431514" lon="10.764479204864209"><ele>201.0</ele><time>2026-04-26T06:59:29Z</time></trkpt><trkpt lat="45.56148592231712" lon="10.764331985354456"><ele>201.20000000000002</ele><time>2026-04-26T06:59:30Z</time></trkpt><trkpt lat="45.561492079062056" lon="10.764185214353704"><ele>201.4</ele><time>2026-04-26T06:59:31Z</time></trkpt><trkpt lat="45.56150125910461" lon="10.764034432444788"><ele>201.6</ele><time>2026-04-26T06:59:32Z</time></trkpt><trkpt lat="45.56150448676533" lon="10.763883306116501"><ele>201.8</ele><time>2026-04-26T06:59:33Z</time></trkpt><trkpt lat="45.56149770008782" lon="10.763736268502305"><ele>202.0</ele><time>2026-04-26T06:59:34Z</time></trkpt><trkpt lat="45.56149586097609" lon="10.763600400972164"><ele>202.2</ele><time>2026-04-26T06:59:35Z</time></trkpt><trkpt lat="45.56149353417462" lon="10.763453273701819"><ele>202.39999999999998</ele><time>2026-04-26T06:59:36Z</time></trkpt><trkpt lat="45.561486105105956" lon="10.763314205791609"><ele>202.60000000000002</ele><time>2026-04-26T06:59:37Z</time></trkpt><trkpt lat="45.56147490394213" lon="10.76316248707782"><ele>202.8</ele><time>2026-04-26T06:59:38Z</time></trkpt><trkpt lat="45.56147157436823" lon="10.763013840906677"><ele>203.0</ele><time>2026-04-26T06:59:39Z</time></trkpt><trkpt lat="45.56144972262844" lon="10.762861828955531"><ele>203.0</ele><time>2026-04-26T06:59:40Z</time></trkpt><trkpt lat="45.56142842312509" lon="10.762706597165375"><ele>203.0</ele><time>2026-04-26T06:59:41Z</time></trkpt><trkpt lat="45.561392608858476" lon="10.762552865672635"><ele>203.0</ele><time>2026-04-26T06:59:42Z</time></trkpt><trkpt lat="45.561359191678925" lon="10.76240672313286"><ele>203.0</ele><time>2026-04-26T06:59:43Z</time></trkpt><trkpt lat="45.56132379242548" lon="10.762269019735482"><ele>203.0</ele><time>2026-04-26T06:59:44Z</time></trkpt><trkpt lat="45.56130229854017" lon="10.762123356611907"><ele>203.5</ele><time>2026-04-26T06:59:45Z</time></trkpt><trkpt lat="45.561259577550764" lon="10.761968626461167"><ele>204.0</ele><time>2026-04-26T06:59:46Z</time></trkpt><trkpt lat="45.56122624899183" lon="10.761803170748802"><ele>204.5</ele><time>2026-04-26T06:59:47Z</time></trkpt><trkpt lat="45.56118851916715" lon="10.761635703059978"><ele>205.0</ele><time>2026-04-26T06:59:48Z</time></trkpt><trkpt lat="45.5611454248897" lon="10.761459204482472"><ele>210.25</ele><time>2026-04-26T06:59:49Z</time></trkpt><trkpt lat="45.561100648805805" lon="10.761280373270537"><ele>215.5</ele><time>2026-04-26T06:59:50Z</time></trkpt><trkpt lat="45.561058685007325" lon="10.761102114111683"><ele>220.75</ele><time>2026-04-26T06:59:51Z</time></trkpt><trkpt lat="45.561023010442824" lon="10.76095452493746"><ele>226.0</ele><time>2026-04-26T06:59:52Z</time></trkpt><trkpt lat="45.560989892088394" lon="10.76081546659294"><ele>226.0</ele><time>2026-04-26T06:59:53Z</time></trkpt><trkpt lat="45.56096318309298" lon="10.760657709311044"><ele>226.00000000000003</ele><time>2026-04-26T06:59:54Z</time></trkpt><trkpt lat="45.56095700630966" lon="10.760484814438845"><ele>226.00000000000003</ele><time>2026-04-26T06:59:55Z</time></trkpt><trkpt lat="45.56093075848122" lon="10.760326225384112"><ele>226.0</ele><time>2026-04-26T06:59:56Z</time></trkpt><trkpt lat="45.560902311943195" lon="10.760199043716996"><ele>226.0</ele><time>2026-04-26T06:59:57Z</time></trkpt><trkpt lat="45.560879795839334" lon="10.760076782882647"><ele>224.4</ele><time>2026-04-26T06:59:58Z</time></trkpt><trkpt lat="45.560810109274314" lon="10.759982882461738"><ele>222.8</ele><time>2026-04-26T06:59:59Z</time></trkpt><trkpt lat="45.560742555387094" lon="10.759863726288577"><ele>221.20000000000002</ele><time>2026-04-26T07:00:00Z</time></trkpt><trkpt lat="45.560667900666935" lon="10.759738498764104"><ele>219.60000000000002</ele><time>2026-04-26T07:00:01Z</time></trkpt><trkpt lat="45.56059204904454" lon="10.759612600498366"><ele>218.0</ele><time>2026-04-26T07:00:02Z</time></trkpt><trkpt lat="45.56051118528736" lon="10.759488954489456"><ele>216.75</ele><time>2026-04-26T07:00:03Z</time></trkpt><trkpt lat="45.56043874317259" lon="10.759355368316148"><ele>215.5</ele><time>2026-04-26T07:00:04Z</time></trkpt><trkpt lat="45.560351463792486" lon="10.759223144869551"><ele>214.25</ele><time>2026-04-26T07:00:05Z</time></trkpt><trkpt lat="45.56026425098976" lon="10.759081911776645"><ele>213.0</ele><time>2026-04-26T07:00:06Z</time></trkpt><trkpt lat="45.56019200817856" lon="10.758949730230148"><ele>213.4</ele><time>2026-04-26T07:00:07Z</time></trkpt><trkpt lat="45.560118756182405" lon="10.758834613669489"><ele>213.8</ele><time>2026-04-26T07:00:08Z</time></trkpt><trkpt lat="45.5600496790354" lon="10.7587232363202"><ele>214.2</ele><time>2026-04-26T07:00:09Z</time></trkpt><trkpt lat="45.55996993750045" lon="10.75860909796536"><ele>214.6</ele><time>2026-04-26T07:00:10Z</time></trkpt><trkpt lat="45.5598918598968" lon="10.758483450760068"><ele>215.0</ele><time>2026-04-26T07:00:11Z</time></trkpt><trkpt lat="45.55979641274268" lon="10.758355949936247"><ele>215.0</ele><time>2026-04-26T07:00:12Z</time></trkpt><trkpt lat="45.55970754265084" lon="10.758222730939414"><ele>215.0</ele><time>2026-04-26T07:00:13Z</time></trkpt><trkpt lat="45.55962158511434" lon="10.75809432070259"><ele>215.0</ele><time>2026-04-26T07:00:14Z</time></trkpt><trkpt lat="45.55953738567624" lon="10.75797046276562"><ele>215.0</ele><time>2026-04-26T07:00:15Z</time></trkpt><trkpt lat="45.5594526838766" lon="10.757850620992926"><ele>217.2</ele><time>2026-04-26T07:00:16Z</time></trkpt><trkpt lat="45.55937126312905" lon="10.757734533725959"><ele>219.4</ele><time>2026-04-26T07:00:17Z</time></trkpt><trkpt lat="45.55930169487943" lon="10.75762843271576"><ele>221.60000000000002</ele><time>2026-04-26T07:00:18Z</time></trkpt><trkpt lat="45.559233535542525" lon="10.757520276705169"><ele>223.8</ele><time>2026-04-26T07:00:19Z</time></trkpt><trkpt lat="45.55917267577456" lon="10.757381492431586"><ele>226.0</ele><time>2026-04-26T07:00:20Z</time></trkpt><trkpt lat="45.55909219454809" lon="10.757258377578463"><ele>226.0</ele><time>2026-04-26T07:00:21Z</time></trkpt><trkpt lat="45.55902902588519" lon="10.757114909998936"><ele>226.0</ele><time>2026-04-26T07:00:22Z</time></trkpt><trkpt lat="45.558968863996135" lon="10.75697444832127"><ele>226.0</ele><time>2026-04-26T07:00:23Z</time></trkpt><trkpt lat="45.55891392088195" lon="10.756832608180002"><ele>226.0</ele><time>2026-04-26T07:00:24Z</time></trkpt><trkpt lat="45.55885870824658" lon="10.756664162464427"><ele>224.5</ele><time>2026-04-26T07:00:25Z</time></trkpt><trkpt lat="45.55879498124586" lon="10.756487618630302"><ele>223.0</ele><time>2026-04-26T07:00:26Z</time></trkpt><trkpt lat="45.55875538711659" lon="10.756306801062028"><ele>221.5</ele><time>2026-04-26T07:00:27Z</time></trkpt><trkpt lat="45.55868922251508" lon="10.756176191943213"><ele>220.0</ele><time>2026-04-26T07:00:28Z</time></trkpt><trkpt lat="45.5586324945117" lon="10.756048675191867"><ele>221.75</ele><time>2026-04-26T07:00:29Z</time></trkpt><trkpt lat="45.55857263724029" lon="10.755926341548697"><ele>223.5</ele><time>2026-04-26T07:00:30Z</time></trkpt><trkpt lat="45.55850978485651" lon="10.755800420091909"><ele>225.25</ele><time>2026-04-26T07:00:31Z</time></trkpt><trkpt lat="45.55844286912303" lon="10.755650180041927"><ele>227.0</ele><time>2026-04-26T07:00:32Z</time></trkpt><trkpt lat="45.55838099978803" lon="10.75548416554546"><ele>227.0</ele><time>2026-04-26T07:00:33Z</time></trkpt><trkpt lat="45.55832115284912" lon="10.755307283807102"><ele>227.0</ele><time>2026-04-26T07:00:34Z</time></trkpt><trkpt lat="45.55825346147811" lon="10.75512292173162"><ele>227.0</ele><time>2026-04-26T07:00:35Z</time></trkpt><trkpt lat="45.55818075074634" lon="10.754946957410963"><ele>227.0</ele><time>2026-04-26T07:00:36Z</time></trkpt><trkpt lat="45.55811700874793" lon="10.75480426947958"><ele>227.0</ele><time>2026-04-26T07:00:37Z</time></trkpt><trkpt lat="45.55806417655472" lon="10.754683340332168"><ele>227.0</ele><time>2026-04-26T07:00:38Z</time></trkpt><trkpt lat="45.55801394428487" lon="10.754546557100337"><ele>227.0</ele><time>2026-04-26T07:00:39Z</time></trkpt><trkpt lat="45.55798037376305" lon="10.75442715096977"><ele>227.0</ele><time>2026-04-26T07:00:40Z</time></trkpt><trkpt lat="45.55796532733648" lon="10.754311766843562"><ele>227.0</ele><time>2026-04-26T07:00:41Z</time></trkpt><trkpt lat="45.5579859335231" lon="10.754174837951634"><ele>227.0</ele><time>2026-04-26T07:00:42Z</time></trkpt><trkpt lat="45.55796769068419" lon="10.754010754373068"><ele>227.0</ele><time>2026-04-26T07:00:43Z</time></trkpt><trkpt lat="45.557950464036836" lon="10.753877987068092"><ele>227.0</ele><time>2026-04-26T07:00:44Z</time></trkpt><trkpt lat="45.55791728023179" lon="10.753763586222618"><ele>227.0</ele><time>2026-04-26T07:00:45Z</time></trkpt><trkpt lat="45.55787457687194" lon="10.753661921822777"><ele>227.0</ele><time>2026-04-26T07:00:46Z</time></trkpt><trkpt lat="45.55782703506656" lon="10.75358087530616"><ele>227.0</ele><time>2026-04-26T07:00:47Z</time></trkpt><trkpt lat="45.55776291151049" lon="10.753478639004822"><ele>227.0</ele><time>2026-04-26T07:00:48Z</time></trkpt><trkpt lat="45.55769396586921" lon="10.753395483527823"><ele>227.0</ele><time>2026-04-26T07:00:49Z</time></trkpt><trkpt lat="45.55759662984848" lon="10.75328809499144"><ele>227.0</ele><time>2026-04-26T07:00:50Z</time></trkpt><trkpt lat="45.557499822865964" lon="10.7531710897318"><ele>227.0</ele><time>2026-04-26T07:00:51Z</time></trkpt><trkpt lat="45.5574054570591" lon="10.753048041506963"><ele>227.0</ele><time>2026-04-26T07:00:52Z</time></trkpt><trkpt lat="45.55731782268884" lon="10.752942828592996"><ele>227.0</ele><time>2026-04-26T07:00:53Z</time></trkpt><trkpt lat="45.55723839242557" lon="10.752858356482975"><ele>227.0</ele><time>2026-04-26T07:00:54Z</time></trkpt><trkpt lat="45.55715162317255" lon="10.752776252478702"><ele>227.0</ele><time>2026-04-26T07:00:55Z</time></trkpt><trkpt lat="45.55706202193059" lon="10.75270533579291"><ele>227.0</ele><time>2026-04-26T07:00:56Z</time></trkpt><trkpt lat="45.556974246853116" lon="10.752629585185003"><ele>227.5</ele><time>2026-04-26T07:00:57Z</time></trkpt><trkpt lat="45.55688624630972" lon="10.752551639977048"><ele>228.0</ele><time>2026-04-26T07:00:58Z</time></trkpt><trkpt lat="45.55678976750258" lon="10.752463806300241"><ele>228.5</ele><time>2026-04-26T07:00:59Z</time></trkpt><trkpt lat="45.556688601591375" lon="10.752378297645901"><ele>229.0</ele><time>2026-04-26T07:01:00Z</time></trkpt><trkpt lat="45.556579100346404" lon="10.752324576216031"><ele>229.0</ele><time>2026-04-26T07:01:01Z</time></trkpt><trkpt lat="45.55645765149687" lon="10.752281414780013"><ele>229.0</ele><time>2026-04-26T07:01:02Z</time></trkpt><trkpt lat="45.556328621023454" lon="10.752245529451635"><ele>229.0</ele><time>2026-04-26T07:01:03Z</time></trkpt><trkpt lat="45.55620501457569" lon="10.752212186619289"><ele>229.0</ele><time>2026-04-26T07:01:04Z</time></trkpt><trkpt lat="45.55609714454037" lon="10.752178738707832"><ele>229.79999999999998</ele><time>2026-04-26T07:01:05Z</time></trkpt><trkpt lat="45.55599113545556" lon="10.75213661892745"><ele>230.59999999999997</ele><time>2026-04-26T07:01:06Z</time></trkpt><trkpt lat="45.55588884892429" lon="10.752074985339377"><ele>231.4</ele><time>2026-04-26T07:01:07Z</time></trkpt><trkpt lat="45.555778003082665" lon="10.75199965119225"><ele>232.2</ele><time>2026-04-26T07:01:08Z</time></trkpt><trkpt lat="45.55568952466814" lon="10.75192637809836"><ele>233.0</ele><time>2026-04-26T07:01:09Z</time></trkpt><trkpt lat="45.55562779471165" lon="10.751865231937915"><ele>233.8</ele><time>2026-04-26T07:01:10Z</time></trkpt><trkpt lat="45.55557765995187" lon="10.751810075251687"><ele>234.60000000000002</ele><time>2026-04-26T07:01:11Z</time></trkpt><trkpt lat="45.55554634885196" lon="10.751680518116151"><ele>235.39999999999998</ele><time>2026-04-26T07:01:13Z</time></trkpt><trkpt lat="45.555682869719334" lon="10.751676458808102"><ele>236.2</ele><time>2026-04-26T07:01:18Z</time></trkpt><trkpt lat="45.55582034049107" lon="10.751702387897154"><ele>237.0</ele><time>2026-04-26T07:01:20Z</time></trkpt><trkpt lat="45.55589238642303" lon="10.751678922312994"><ele>237.0</ele><time>2026-04-26T07:01:21Z</time></trkpt><trkpt lat="45.555979300934304" lon="10.751652527504374"><ele>237.0</ele><time>2026-04-26T07:01:22Z</time></trkpt><trkpt lat="45.55607189148786" lon="10.751625854528012"><ele>237.0</ele><time>2026-04-26T07:01:23Z</time></trkpt><trkpt lat="45.55614778234927" lon="10.751588762733924"><ele>237.0</ele><time>2026-04-26T07:01:24Z</time></trkpt><trkpt lat="45.556210610199464" lon="10.751520428396534"><ele>237.0</ele><time>2026-04-26T07:01:26Z</time></trkpt><trkpt lat="45.556272887252604" lon="10.751456605844316"><ele>237.0</ele><time>2026-04-26T07:01:28Z</time></trkpt><trkpt lat="45.55637487788525" lon="10.751469318306818"><ele>236.6</ele><time>2026-04-26T07:01:29Z</time></trkpt><trkpt lat="45.55648001399803" lon="10.751452491678984"><ele>236.2</ele><time>2026-04-26T07:01:30Z</time></trkpt><trkpt lat="45.55658235599663" lon="10.751434202826095"><ele>235.8</ele><time>2026-04-26T07:01:31Z</time></trkpt><trkpt lat="45.55668797305345" lon="10.751415328714724"><ele>235.4</ele><time>2026-04-26T07:01:32Z</time></trkpt><trkpt lat="45.55678748322957" lon="10.751397545921321"><ele>235.0</ele><time>2026-04-26T07:01:33Z</time></trkpt><trkpt lat="45.55688794326277" lon="10.751378255492103"><ele>235.0</ele><time>2026-04-26T07:01:34Z</time></trkpt><trkpt lat="45.5570056313002" lon="10.751353985354294"><ele>235.0</ele><time>2026-04-26T07:01:35Z</time></trkpt><trkpt lat="45.55711223299145" lon="10.751332173260373"><ele>235.0</ele><time>2026-04-26T07:01:36Z</time></trkpt><trkpt lat="45.557206346411725" lon="10.751315369906651"><ele>235.0</ele><time>2026-04-26T07:01:37Z</time></trkpt><trkpt lat="45.55730443524326" lon="10.751299901781202"><ele>235.0</ele><time>2026-04-26T07:01:38Z</time></trkpt><trkpt lat="45.55740705252656" lon="10.751275134768715"><ele>234.49999999999997</ele><time>2026-04-26T07:01:39Z</time></trkpt><trkpt lat="45.55750035661834" lon="10.751284552600383"><ele>234.0</ele><time>2026-04-26T07:01:40Z</time></trkpt><trkpt lat="45.55758900117541" lon="10.751287542491403"><ele>233.5</ele><time>2026-04-26T07:01:41Z</time></trkpt><trkpt lat="45.55766982817625" lon="10.751295439622579"><ele>233.0</ele><time>2026-04-26T07:01:42Z</time></trkpt><trkpt lat="45.55774567694743" lon="10.751319247714518"><ele>232.49999999999997</ele><time>2026-04-26T07:01:43Z</time></trkpt><trkpt lat="45.55784441033388" lon="10.751349329668223"><ele>232.0</ele><time>2026-04-26T07:01:44Z</time></trkpt><trkpt lat="45.557950865091854" lon="10.751381631910295"><ele>233.2</ele><time>2026-04-26T07:01:45Z</time></trkpt><trkpt lat="45.558038057227954" lon="10.751409863727844"><ele>234.39999999999998</ele><time>2026-04-26T07:01:46Z</time></trkpt><trkpt lat="45.55811711368989" lon="10.751440822474228"><ele>235.60000000000002</ele><time>2026-04-26T07:01:47Z</time></trkpt><trkpt lat="45.558214946672564" lon="10.751469914564804"><ele>236.8</ele><time>2026-04-26T07:01:48Z</time></trkpt><trkpt lat="45.55831820651106" lon="10.751534268665592"><ele>238.0</ele><time>2026-04-26T07:01:49Z</time></trkpt><trkpt lat="45.55841571190798" lon="10.751607586692062"><ele>238.0</ele><time>2026-04-26T07:01:50Z</time></trkpt><trkpt lat="45.5584844817209" lon="10.751662949043418"><ele>238.0</ele><time>2026-04-26T07:01:51Z</time></trkpt><trkpt lat="45.5585484784407" lon="10.751730161056562"><ele>238.0</ele><time>2026-04-26T07:01:52Z</time></trkpt><trkpt lat="45.55862276165854" lon="10.75180539787717"><ele>238.0</ele><time>2026-04-26T07:01:53Z</time></trkpt><trkpt lat="45.55871260775228" lon="10.751907227649529"><ele>238.0</ele><time>2026-04-26T07:01:54Z</time></trkpt><trkpt lat="45.5588264002522" lon="10.752007106825832"><ele>237.4</ele><time>2026-04-26T07:01:55Z</time></trkpt><trkpt lat="45.55896056445677" lon="10.752100163248196"><ele>236.8</ele><time>2026-04-26T07:01:56Z</time></trkpt><trkpt lat="45.559058322984235" lon="10.752194590121164"><ele>236.2</ele><time>2026-04-26T07:01:57Z</time></trkpt><trkpt lat="45.559141654513894" lon="10.752265256259484"><ele>235.6</ele><time>2026-04-26T07:01:58Z</time></trkpt><trkpt lat="45.55920445549242" lon="10.752332447155533"><ele>235.0</ele><time>2026-04-26T07:01:59Z</time></trkpt><trkpt lat="45.55927088712457" lon="10.752402693159608"><ele>235.0</ele><time>2026-04-26T07:02:00Z</time></trkpt><trkpt lat="45.55936146139965" lon="10.752522548834245"><ele>235.0</ele><time>2026-04-26T07:02:01Z</time></trkpt><trkpt lat="45.559457480232616" lon="10.75261514987483"><ele>235.0</ele><time>2026-04-26T07:02:02Z</time></trkpt><trkpt lat="45.559543155089095" lon="10.752686067130277"><ele>235.0</ele><time>2026-04-26T07:02:03Z</time></trkpt><trkpt lat="45.55962619509195" lon="10.752750900063365"><ele>235.0</ele><time>2026-04-26T07:02:04Z</time></trkpt><trkpt lat="45.559719753631825" lon="10.752820301558492"><ele>234.2</ele><time>2026-04-26T07:02:05Z</time></trkpt><trkpt lat="45.55983571046264" lon="10.752874926225862"><ele>233.4</ele><time>2026-04-26T07:02:06Z</time></trkpt><trkpt lat="45.559921059805056" lon="10.752956527599517"><ele>232.60000000000002</ele><time>2026-04-26T07:02:07Z</time></trkpt><trkpt lat="45.56002603214578" lon="10.753018387749698"><ele>231.8</ele><time>2026-04-26T07:02:08Z</time></trkpt><trkpt lat="45.560130662660455" lon="10.753066351981127"><ele>231.0</ele><time>2026-04-26T07:02:09Z</time></trkpt><trkpt lat="45.56023656352385" lon="10.753093089565187"><ele>231.0</ele><time>2026-04-26T07:02:10Z</time></trkpt><trkpt lat="45.560343994319716" lon="10.753102523807687"><ele>231.0</ele><time>2026-04-26T07:02:11Z</time></trkpt><trkpt lat="45.5604554340613" lon="10.753097108690532"><ele>231.0</ele><time>2026-04-26T07:02:12Z</time></trkpt><trkpt lat="45.56058215827226" lon="10.753111510950903"><ele>231.0</ele><time>2026-04-26T07:02:13Z</time></trkpt><trkpt lat="45.5606896637851" lon="10.753112743229103"><ele>231.83333333333334</ele><time>2026-04-26T07:02:14Z</time></trkpt><trkpt lat="45.56077162628006" lon="10.75310798853918"><ele>232.66666666666669</ele><time>2026-04-26T07:02:15Z</time></trkpt><trkpt lat="45.56085614832306" lon="10.75311410178284"><ele>233.5</ele><time>2026-04-26T07:02:16Z</time></trkpt><trkpt lat="45.56093933286277" lon="10.75315555632586"><ele>234.33333333333334</ele><time>2026-04-26T07:02:17Z</time></trkpt><trkpt lat="45.561027111878154" lon="10.753226082610698"><ele>235.16666666666669</ele><time>2026-04-26T07:02:18Z</time></trkpt><trkpt lat="45.56110945017703" lon="10.753274326746709"><ele>236.0</ele><time>2026-04-26T07:02:19Z</time></trkpt><trkpt lat="45.5612112170625" lon="10.75330698760683"><ele>234.83333333333334</ele><time>2026-04-26T07:02:20Z</time></trkpt><trkpt lat="45.56129699627695" lon="10.753364143912544"><ele>233.66666666666669</ele><time>2026-04-26T07:02:21Z</time></trkpt><trkpt lat="45.56135378178964" lon="10.753405904881959"><ele>232.5</ele><time>2026-04-26T07:02:22Z</time></trkpt><trkpt lat="45.56142927363505" lon="10.753476363961898"><ele>231.33333333333331</ele><time>2026-04-26T07:02:23Z</time></trkpt><trkpt lat="45.56151225119461" lon="10.753567142940197"><ele>230.16666666666666</ele><time>2026-04-26T07:02:24Z</time></trkpt><trkpt lat="45.56159707997163" lon="10.753621450014837"><ele>229.0</ele><time>2026-04-26T07:02:25Z</time></trkpt><trkpt lat="45.561668730295146" lon="10.753652551830841"><ele>229.0</ele><time>2026-04-26T07:02:26Z</time></trkpt><trkpt lat="45.56175975372627" lon="10.753645553833616"><ele>228.99999999999997</ele><time>2026-04-26T07:02:27Z</time></trkpt><trkpt lat="45.561843585552445" lon="10.753646526457056"><ele>228.99999999999997</ele><time>2026-04-26T07:02:28Z</time></trkpt><trkpt lat="45.56193627778494" lon="10.753642598317075"><ele>229.0</ele><time>2026-04-26T07:02:29Z</time></trkpt><trkpt lat="45.56203783457735" lon="10.753657397796209"><ele>229.0</ele><time>2026-04-26T07:02:30Z</time></trkpt><trkpt lat="45.562137106554395" lon="10.753651188118384"><ele>229.79999999999998</ele><time>2026-04-26T07:02:31Z</time></trkpt><trkpt lat="45.56223186402058" lon="10.753647878004488"><ele>230.59999999999997</ele><time>2026-04-26T07:02:32Z</time></trkpt><trkpt lat="45.56233022424228" lon="10.753647195301133"><ele>231.4</ele><time>2026-04-26T07:02:33Z</time></trkpt><trkpt lat="45.56242498056356" lon="10.753654889286494"><ele>232.2</ele><time>2026-04-26T07:02:34Z</time></trkpt><trkpt lat="45.56251070843444" lon="10.75367604471996"><ele>233.0</ele><time>2026-04-26T07:02:35Z</time></trkpt><trkpt lat="45.56259030203676" lon="10.753703019642074"><ele>233.00000000000003</ele><time>2026-04-26T07:02:36Z</time></trkpt><trkpt lat="45.56269112341571" lon="10.753712786113901"><ele>233.0</ele><time>2026-04-26T07:02:37Z</time></trkpt><trkpt lat="45.562785280245926" lon="10.753743405798147"><ele>233.0</ele><time>2026-04-26T07:02:38Z</time></trkpt><trkpt lat="45.562856339558955" lon="10.753767388107313"><ele>233.0</ele><time>2026-04-26T07:02:39Z</time></trkpt><trkpt lat="45.562936247675886" lon="10.753757814715478"><ele>233.00000000000003</ele><time>2026-04-26T07:02:40Z</time></trkpt><trkpt lat="45.56300645739993" lon="10.753756230881585"><ele>233.0</ele><time>2026-04-26T07:02:41Z</time></trkpt><trkpt lat="45.56308374986755" lon="10.753727859932884"><ele>233.66666666666669</ele><time>2026-04-26T07:02:42Z</time></trkpt><trkpt lat="45.563170977607975" lon="10.75368036633045"><ele>234.33333333333334</ele><time>2026-04-26T07:02:43Z</time></trkpt><trkpt lat="45.563262416672394" lon="10.75360415887184"><ele>235.0</ele><time>2026-04-26T07:02:44Z</time></trkpt><trkpt lat="45.563330558674494" lon="10.753522464525409"><ele>235.66666666666669</ele><time>2026-04-26T07:02:45Z</time></trkpt><trkpt lat="45.563385391530154" lon="10.753439812607873"><ele>236.33333333333334</ele><time>2026-04-26T07:02:46Z</time></trkpt><trkpt lat="45.563428194310916" lon="10.75336831761314"><ele>237.0</ele><time>2026-04-26T07:02:47Z</time></trkpt><trkpt lat="45.56347195663578" lon="10.753269606025507"><ele>239.16666666666666</ele><time>2026-04-26T07:02:49Z</time></trkpt><trkpt lat="45.56350712036179" lon="10.753194674471796"><ele>241.33333333333331</ele><time>2026-04-26T07:02:57Z</time></trkpt><trkpt lat="45.56360205449237" lon="10.753187600709154"><ele>243.5</ele><time>2026-04-26T07:03:07Z</time></trkpt><trkpt lat="45.563644664351195" lon="10.75308954566905"><ele>245.66666666666666</ele><time>2026-04-26T07:03:08Z</time></trkpt><trkpt lat="45.56366141080986" lon="10.752968178355271"><ele>247.83333333333331</ele><time>2026-04-26T07:03:09Z</time></trkpt><trkpt lat="45.56365580191243" lon="10.75283112111382"><ele>250.0</ele><time>2026-04-26T07:03:10Z</time></trkpt><trkpt lat="45.563629114097935" lon="10.752732193334722"><ele>251.2</ele><time>2026-04-26T07:03:11Z</time></trkpt><trkpt lat="45.563659584641854" lon="10.752647201558988"><ele>252.4</ele><time>2026-04-26T07:03:13Z</time></trkpt><trkpt lat="45.56374539142017" lon="10.752634735243493"><ele>253.60000000000002</ele><time>2026-04-26T07:03:14Z</time></trkpt><trkpt lat="45.56377928852603" lon="10.752722363129143"><ele>254.8</ele><time>2026-04-26T07:03:15Z</time></trkpt><trkpt lat="45.56379290602116" lon="10.752909092962005"><ele>256.0</ele><time>2026-04-26T07:03:17Z</time></trkpt><trkpt lat="45.56382275164356" lon="10.75304432788951"><ele>256.0</ele><time>2026-04-26T07:03:18Z</time></trkpt><trkpt lat="45.563835359358144" lon="10.75316837244051"><ele>256.0</ele><time>2026-04-26T07:03:19Z</time></trkpt><trkpt lat="45.56388919714183" lon="10.753274513530455"><ele>256.0</ele><time>2026-04-26T07:03:21Z</time></trkpt><trkpt lat="45.563987593837595" lon="10.753136374444658"><ele>256.0</ele><time>2026-04-26T07:03:23Z</time></trkpt><trkpt lat="45.56393588488084" lon="10.752919631632718"><ele>256.0</ele><time>2026-04-26T07:03:25Z</time></trkpt><trkpt lat="45.56393198909536" lon="10.75278121781027"><ele>256.0</ele><time>2026-04-26T07:03:26Z</time></trkpt><trkpt lat="45.56391250799482" lon="10.752657318835963"><ele>256.0</ele><time>2026-04-26T07:03:27Z</time></trkpt><trkpt lat="45.563891661158635" lon="10.75252608635605"><ele>256.0</ele><time>2026-04-26T07:03:28Z</time></trkpt><trkpt lat="45.56387144306824" lon="10.752389902574649"><ele>256.0</ele><time>2026-04-26T07:03:29Z</time></trkpt><trkpt lat="45.56384753508667" lon="10.752275743829577"><ele>256.8333333333333</ele><time>2026-04-26T07:03:30Z</time></trkpt><trkpt lat="45.56387027751183" lon="10.752180669864131"><ele>257.66666666666663</ele><time>2026-04-26T07:03:31Z</time></trkpt><trkpt lat="45.56391167787764" lon="10.752084817158556"><ele>258.5</ele><time>2026-04-26T07:03:32Z</time></trkpt><trkpt lat="45.56395954584638" lon="10.751993713746147"><ele>259.3333333333333</ele><time>2026-04-26T07:03:33Z</time></trkpt><trkpt lat="45.56402390330818" lon="10.75191346557956"><ele>260.1666666666667</ele><time>2026-04-26T07:03:34Z</time></trkpt><trkpt lat="45.564124196476435" lon="10.751846896713522"><ele>261.0</ele><time>2026-04-26T07:03:35Z</time></trkpt><trkpt lat="45.56422479724445" lon="10.751785812658163"><ele>263.0</ele><time>2026-04-26T07:03:36Z</time></trkpt><trkpt lat="45.564332576979986" lon="10.751710999772836"><ele>265.0</ele><time>2026-04-26T07:03:37Z</time></trkpt><trkpt lat="45.564440642758306" lon="10.751647100333216"><ele>267.0</ele><time>2026-04-26T07:03:38Z</time></trkpt><trkpt lat="45.56454680134797" lon="10.75157293720117"><ele>269.0</ele><time>2026-04-26T07:03:39Z</time></trkpt><trkpt lat="45.564655472810216" lon="10.751471048355683"><ele>270.2</ele><time>2026-04-26T07:03:40Z</time></trkpt><trkpt lat="45.56475629018351" lon="10.751349928617445"><ele>271.4</ele><time>2026-04-26T07:03:41Z</time></trkpt><trkpt lat="45.56481837340933" lon="10.75123110205421"><ele>272.6</ele><time>2026-04-26T07:03:42Z</time></trkpt><trkpt lat="45.56486762403211" lon="10.751107715169772"><ele>273.8</ele><time>2026-04-26T07:03:43Z</time></trkpt><trkpt lat="45.56493994732645" lon="10.751014788249563"><ele>275.0</ele><time>2026-04-26T07:03:44Z</time></trkpt><trkpt lat="45.56500398035224" lon="10.750942071660955"><ele>275.0</ele><time>2026-04-26T07:03:45Z</time></trkpt><trkpt lat="45.56508206135556" lon="10.750895474923844"><ele>275.0</ele><time>2026-04-26T07:03:46Z</time></trkpt><trkpt lat="45.56517596202044" lon="10.750829336044836"><ele>275.0</ele><time>2026-04-26T07:03:47Z</time></trkpt><trkpt lat="45.56527817888831" lon="10.750793299558737"><ele>275.0</ele><time>2026-04-26T07:03:48Z</time></trkpt><trkpt lat="45.56535235207358" lon="10.750760333358636"><ele>275.0</ele><time>2026-04-26T07:03:49Z</time></trkpt><trkpt lat="45.56543267690843" lon="10.750705165170858"><ele>274.6666666666667</ele><time>2026-04-26T07:03:50Z</time></trkpt><trkpt lat="45.56551035177336" lon="10.750641761383262"><ele>274.33333333333337</ele><time>2026-04-26T07:03:51Z</time></trkpt><trkpt lat="45.56557344960619" lon="10.75055955981117"><ele>274.0</ele><time>2026-04-26T07:03:52Z</time></trkpt><trkpt lat="45.56565147815283" lon="10.750504324329102"><ele>273.6666666666667</ele><time>2026-04-26T07:03:53Z</time></trkpt><trkpt lat="45.56572117761611" lon="10.750430633630913"><ele>273.3333333333333</ele><time>2026-04-26T07:03:54Z</time></trkpt><trkpt lat="45.565795335728474" lon="10.750354219736748"><ele>273.0</ele><time>2026-04-26T07:03:55Z</time></trkpt><trkpt lat="45.5658709561385" lon="10.75025911059976"><ele>272.75</ele><time>2026-04-26T07:03:56Z</time></trkpt><trkpt lat="45.56597076609709" lon="10.750176066483553"><ele>272.5</ele><time>2026-04-26T07:03:57Z</time></trkpt><trkpt lat="45.566054991286954" lon="10.7500728419481"><ele>272.25</ele><time>2026-04-26T07:03:58Z</time></trkpt><trkpt lat="45.56614876560339" lon="10.749984471879094"><ele>272.0</ele><time>2026-04-26T07:03:59Z</time></trkpt><trkpt lat="45.56624990201767" lon="10.749883774517032"><ele>272.0</ele><time>2026-04-26T07:04:00Z</time></trkpt><trkpt lat="45.56635997665603" lon="10.749793680259522"><ele>272.0</ele><time>2026-04-26T07:04:01Z</time></trkpt><trkpt lat="45.566441323654864" lon="10.749701604095968"><ele>272.0</ele><time>2026-04-26T07:04:02Z</time></trkpt><trkpt lat="45.566528881036774" lon="10.749623797429363"><ele>272.0</ele><time>2026-04-26T07:04:03Z</time></trkpt><trkpt lat="45.56660027755355" lon="10.749545908294317"><ele>272.0</ele><time>2026-04-26T07:04:04Z</time></trkpt><trkpt lat="45.56666711647048" lon="10.749465369818637"><ele>272.0</ele><time>2026-04-26T07:04:05Z</time></trkpt><trkpt lat="45.56671292059747" lon="10.749388206229806"><ele>272.0</ele><time>2026-04-26T07:04:06Z</time></trkpt><trkpt lat="45.56675260323932" lon="10.749285449356934"><ele>272.0</ele><time>2026-04-26T07:04:08Z</time></trkpt><trkpt lat="45.56673971544646" lon="10.74914541113739"><ele>272.0</ele><time>2026-04-26T07:04:10Z</time></trkpt><trkpt lat="45.56669459926022" lon="10.748977659100454"><ele>272.0</ele><time>2026-04-26T07:04:12Z</time></trkpt><trkpt lat="45.56665804557471" lon="10.748893296453083"><ele>272.0</ele><time>2026-04-26T07:04:13Z</time></trkpt><trkpt lat="45.56662572857668" lon="10.748796471449355"><ele>271.1666666666667</ele><time>2026-04-26T07:04:14Z</time></trkpt><trkpt lat="45.56658556143956" lon="10.748720937759654"><ele>270.33333333333337</ele><time>2026-04-26T07:04:15Z</time></trkpt><trkpt lat="45.56653392058445" lon="10.748642116945858"><ele>269.5</ele><time>2026-04-26T07:04:16Z</time></trkpt><trkpt lat="45.56649217307833" lon="10.748554353477836"><ele>268.6666666666667</ele><time>2026-04-26T07:04:17Z</time></trkpt><trkpt lat="45.56646294834143" lon="10.748455132640478"><ele>267.8333333333333</ele><time>2026-04-26T07:04:18Z</time></trkpt><trkpt lat="45.56642926017082" lon="10.74833225482377"><ele>267.0</ele><time>2026-04-26T07:04:19Z</time></trkpt><trkpt lat="45.56639088230341" lon="10.748211011852321"><ele>264.4</ele><time>2026-04-26T07:04:20Z</time></trkpt><trkpt lat="45.56635870807331" lon="10.74807055070537"><ele>261.79999999999995</ele><time>2026-04-26T07:04:21Z</time></trkpt><trkpt lat="45.566341744480034" lon="10.747975597101371"><ele>259.2</ele><time>2026-04-26T07:04:22Z</time></trkpt><trkpt lat="45.566353358881955" lon="10.74786654585942"><ele>256.59999999999997</ele><time>2026-04-26T07:04:23Z</time></trkpt><trkpt lat="45.56641642009269" lon="10.747703452021222"><ele>254.0</ele><time>2026-04-26T07:04:25Z</time></trkpt><trkpt lat="45.5664634535041" lon="10.747628257483234"><ele>253.00000000000003</ele><time>2026-04-26T07:04:26Z</time></trkpt><trkpt lat="45.566537237759675" lon="10.747570103310528"><ele>252.0</ele><time>2026-04-26T07:04:27Z</time></trkpt><trkpt lat="45.56659607432991" lon="10.747518975449555"><ele>251.0</ele><time>2026-04-26T07:04:28Z</time></trkpt><trkpt lat="45.56668659505204" lon="10.747473517875035"><ele>250.0</ele><time>2026-04-26T07:04:30Z</time></trkpt><trkpt lat="45.56677614129055" lon="10.747425420253961"><ele>249.00000000000003</ele><time>2026-04-26T07:04:34Z</time></trkpt><trkpt lat="45.56686207832315" lon="10.747365977601145"><ele>248.0</ele><time>2026-04-26T07:04:36Z</time></trkpt><trkpt lat="45.566978388239725" lon="10.747399734703045"><ele>245.60000000000002</ele><time>2026-04-26T07:04:38Z</time></trkpt><trkpt lat="45.56709507656039" lon="10.747411799609099"><ele>243.20000000000002</ele><time>2026-04-26T07:04:40Z</time></trkpt><trkpt lat="45.56715976858753" lon="10.747423449078928"><ele>240.8</ele><time>2026-04-26T07:04:41Z</time></trkpt><trkpt lat="45.56724019439826" lon="10.747400798520749"><ele>238.4</ele><time>2026-04-26T07:04:43Z</time></trkpt><trkpt lat="45.5673147277585" lon="10.747424287733297"><ele>236.0</ele><time>2026-04-26T07:04:53Z</time></trkpt><trkpt lat="45.56720539279387" lon="10.747423100212433"><ele>236.00000000000003</ele><time>2026-04-26T07:05:01Z</time></trkpt><trkpt lat="45.567130282907044" lon="10.747428140111358"><ele>236.0</ele><time>2026-04-26T07:05:02Z</time></trkpt><trkpt lat="45.56705794843396" lon="10.747407411397772"><ele>236.0</ele><time>2026-04-26T07:05:03Z</time></trkpt><trkpt lat="45.566990101830235" lon="10.747382774388031"><ele>236.0</ele><time>2026-04-26T07:05:04Z</time></trkpt><trkpt lat="45.56689191390377" lon="10.747382237248024"><ele>236.00000000000003</ele><time>2026-04-26T07:05:06Z</time></trkpt><trkpt lat="45.56679868773145" lon="10.747408777373483"><ele>236.0</ele><time>2026-04-26T07:05:09Z</time></trkpt><trkpt lat="45.56673178823387" lon="10.74744761725346"><ele>238.4</ele><time>2026-04-26T07:05:11Z</time></trkpt><trkpt lat="45.56665853393987" lon="10.747475368051255"><ele>240.8</ele><time>2026-04-26T07:05:14Z</time></trkpt><trkpt lat="45.5667248198194" lon="10.747339485608556"><ele>243.20000000000002</ele><time>2026-04-26T07:05:28Z</time></trkpt><trkpt lat="45.56682016998241" lon="10.74724529190091"><ele>245.60000000000002</ele><time>2026-04-26T07:05:30Z</time></trkpt><trkpt lat="45.566889292220715" lon="10.747133678948227"><ele>248.0</ele><time>2026-04-26T07:05:32Z</time></trkpt><trkpt lat="45.5669259454943" lon="10.747054259143647"><ele>248.00000000000003</ele><time>2026-04-26T07:05:33Z</time></trkpt><trkpt lat="45.567005239510095" lon="10.746940508433719"><ele>248.0</ele><time>2026-04-26T07:05:35Z</time></trkpt><trkpt lat="45.56704610311005" lon="10.74686499380469"><ele>248.0</ele><time>2026-04-26T07:05:36Z</time></trkpt><trkpt lat="45.56711404539716" lon="10.746758537018527"><ele>248.0</ele><time>2026-04-26T07:05:37Z</time></trkpt><trkpt lat="45.56717172888988" lon="10.746662101949088"><ele>248.00000000000003</ele><time>2026-04-26T07:05:38Z</time></trkpt><trkpt lat="45.567218702706775" lon="10.746575205577704"><ele>248.0</ele><time>2026-04-26T07:05:39Z</time></trkpt><trkpt lat="45.5672702136766" lon="10.746470962672271"><ele>248.60000000000002</ele><time>2026-04-26T07:05:41Z</time></trkpt><trkpt lat="45.56736561696646" lon="10.7463631517892"><ele>249.20000000000002</ele><time>2026-04-26T07:05:43Z</time></trkpt><trkpt lat="45.56747094617488" lon="10.746259704896708"><ele>249.8</ele><time>2026-04-26T07:05:45Z</time></trkpt><trkpt lat="45.56751977714588" lon="10.746194359982853"><ele>250.4</ele><time>2026-04-26T07:05:46Z</time></trkpt><trkpt lat="45.567567707824445" lon="10.74612265026456"><ele>251.0</ele><time>2026-04-26T07:05:47Z</time></trkpt><trkpt lat="45.56762251065898" lon="10.745992401568769"><ele>251.00000000000003</ele><time>2026-04-26T07:05:49Z</time></trkpt><trkpt lat="45.56764040328311" lon="10.74590304032388"><ele>251.0</ele><time>2026-04-26T07:05:50Z</time></trkpt><trkpt lat="45.5676850165626" lon="10.745740387908002"><ele>251.0</ele><time>2026-04-26T07:05:52Z</time></trkpt><trkpt lat="45.56770339544252" lon="10.7456502114993"><ele>251.0</ele><time>2026-04-26T07:05:53Z</time></trkpt><trkpt lat="45.56774244088813" lon="10.74553794116077"><ele>251.00000000000003</ele><time>2026-04-26T07:05:55Z</time></trkpt><trkpt lat="45.56775378921096" lon="10.745440843827677"><ele>251.0</ele><time>2026-04-26T07:05:57Z</time></trkpt><trkpt lat="45.56775314537187" lon="10.745307796815693"><ele>250.83333333333334</ele><time>2026-04-26T07:05:59Z</time></trkpt><trkpt lat="45.56774828855279" lon="10.745202312878394"><ele>250.66666666666669</ele><time>2026-04-26T07:06:00Z</time></trkpt><trkpt lat="45.567748691447434" lon="10.745041813585612"><ele>250.5</ele><time>2026-04-26T07:06:02Z</time></trkpt><trkpt lat="45.567709548405254" lon="10.744955757508393"><ele>250.33333333333331</ele><time>2026-04-26T07:06:03Z</time></trkpt><trkpt lat="45.56771348697592" lon="10.74486332033232"><ele>250.16666666666666</ele><time>2026-04-26T07:06:04Z</time></trkpt><trkpt lat="45.5677209485735" lon="10.74468819888604"><ele>250.0</ele><time>2026-04-26T07:06:06Z</time></trkpt><trkpt lat="45.5677259362361" lon="10.744585199654836"><ele>250.0</ele><time>2026-04-26T07:06:07Z</time></trkpt><trkpt lat="45.567733541155036" lon="10.744448949612474"><ele>250.0</ele><time>2026-04-26T07:06:10Z</time></trkpt><trkpt lat="45.56774077349181" lon="10.744347908004208"><ele>250.0</ele><time>2026-04-26T07:06:14Z</time></trkpt><trkpt lat="45.56775288621581" lon="10.744233256783975"><ele>250.0</ele><time>2026-04-26T07:06:16Z</time></trkpt><trkpt lat="45.56776875307356" lon="10.744096052841591"><ele>250.0</ele><time>2026-04-26T07:06:18Z</time></trkpt><trkpt lat="45.56778562800945" lon="10.74393063121446"><ele>249.83333333333331</ele><time>2026-04-26T07:06:20Z</time></trkpt><trkpt lat="45.56774947425216" lon="10.743847079090136"><ele>249.66666666666666</ele><time>2026-04-26T07:06:21Z</time></trkpt><trkpt lat="45.56772864401328" lon="10.743759213017109"><ele>249.5</ele><time>2026-04-26T07:06:22Z</time></trkpt><trkpt lat="45.56771551301766" lon="10.74364654223306"><ele>249.33333333333331</ele><time>2026-04-26T07:06:23Z</time></trkpt><trkpt lat="45.567698050745044" lon="10.743546483551016"><ele>249.16666666666666</ele><time>2026-04-26T07:06:24Z</time></trkpt><trkpt lat="45.567677930248216" lon="10.74340903562902"><ele>249.0</ele><time>2026-04-26T07:06:25Z</time></trkpt><trkpt lat="45.567676841545655" lon="10.743310093378305"><ele>248.85714285714283</ele><time>2026-04-26T07:06:26Z</time></trkpt><trkpt lat="45.56766022764444" lon="10.743220732119449"><ele>248.7142857142857</ele><time>2026-04-26T07:06:27Z</time></trkpt><trkpt lat="45.56764401745508" lon="10.74312960923391"><ele>248.57142857142856</ele><time>2026-04-26T07:06:28Z</time></trkpt><trkpt lat="45.56762484369629" lon="10.743041021977325"><ele>248.42857142857144</ele><time>2026-04-26T07:06:29Z</time></trkpt><trkpt lat="45.567600941151596" lon="10.74295493782046"><ele>248.2857142857143</ele><time>2026-04-26T07:06:30Z</time></trkpt><trkpt lat="45.56758640404971" lon="10.742805324572693"><ele>248.14285714285717</ele><time>2026-04-26T07:06:32Z</time></trkpt><trkpt lat="45.56760894552561" lon="10.7426987738205"><ele>248.0</ele><time>2026-04-26T07:06:33Z</time></trkpt><trkpt lat="45.56763310134353" lon="10.742587320095685"><ele>247.33333333333334</ele><time>2026-04-26T07:06:34Z</time></trkpt><trkpt lat="45.56765072578945" lon="10.742476258699188"><ele>246.66666666666669</ele><time>2026-04-26T07:06:35Z</time></trkpt><trkpt lat="45.567661337773266" lon="10.742383024873085"><ele>246.0</ele><time>2026-04-26T07:06:36Z</time></trkpt><trkpt lat="45.567680584493935" lon="10.742287500116777"><ele>245.33333333333331</ele><time>2026-04-26T07:06:37Z</time></trkpt><trkpt lat="45.56771038168815" lon="10.742184267780804"><ele>244.66666666666666</ele><time>2026-04-26T07:06:38Z</time></trkpt><trkpt lat="45.567782534517214" lon="10.74204216161926"><ele>244.0</ele><time>2026-04-26T07:06:40Z</time></trkpt><trkpt lat="45.567831054521" lon="10.741956261873941"><ele>243.39999999999998</ele><time>2026-04-26T07:06:41Z</time></trkpt><trkpt lat="45.56787771370761" lon="10.741880448076301"><ele>242.79999999999998</ele><time>2026-04-26T07:06:42Z</time></trkpt><trkpt lat="45.56793792939018" lon="10.741765352782517"><ele>242.20000000000002</ele><time>2026-04-26T07:06:43Z</time></trkpt><trkpt lat="45.567997676741456" lon="10.741659762198775"><ele>241.60000000000002</ele><time>2026-04-26T07:06:44Z</time></trkpt><trkpt lat="45.56805448761807" lon="10.741505236423372"><ele>241.0</ele><time>2026-04-26T07:06:46Z</time></trkpt><trkpt lat="45.56805558548603" lon="10.741414953416253"><ele>241.0</ele><time>2026-04-26T07:06:47Z</time></trkpt><trkpt lat="45.56803989666296" lon="10.741312352686382"><ele>241.00000000000003</ele><time>2026-04-26T07:06:48Z</time></trkpt><trkpt lat="45.568031335193666" lon="10.741191884166996"><ele>241.00000000000003</ele><time>2026-04-26T07:06:49Z</time></trkpt><trkpt lat="45.568005666904924" lon="10.741087155395926"><ele>241.0</ele><time>2026-04-26T07:06:50Z</time></trkpt><trkpt lat="45.567988129840096" lon="10.740857619030287"><ele>241.0</ele><time>2026-04-26T07:06:52Z</time></trkpt><trkpt lat="45.56794021306683" lon="10.740760079762271"><ele>237.5</ele><time>2026-04-26T07:06:53Z</time></trkpt><trkpt lat="45.567857330425795" lon="10.740626469053774"><ele>234.0</ele><time>2026-04-26T07:06:54Z</time></trkpt><trkpt lat="45.56778488423459" lon="10.740557451599942"><ele>230.5</ele><time>2026-04-26T07:06:55Z</time></trkpt><trkpt lat="45.567626074087286" lon="10.740670979474686"><ele>227.0</ele><time>2026-04-26T07:06:56Z</time></trkpt><trkpt lat="45.567520749194195" lon="10.740631034446546"><ele>227.0</ele><time>2026-04-26T07:06:57Z</time></trkpt><trkpt lat="45.56742038784658" lon="10.740586167020805"><ele>227.0</ele><time>2026-04-26T07:06:58Z</time></trkpt><trkpt lat="45.567312434817566" lon="10.740548410972982"><ele>227.0</ele><time>2026-04-26T07:06:59Z</time></trkpt><trkpt lat="45.5671945154491" lon="10.740529214898011"><ele>227.0</ele><time>2026-04-26T07:07:00Z</time></trkpt><trkpt lat="45.56707067617274" lon="10.740490239618419"><ele>227.2</ele><time>2026-04-26T07:07:01Z</time></trkpt><trkpt lat="45.56697484490685" lon="10.740462643504337"><ele>227.39999999999998</ele><time>2026-04-26T07:07:02Z</time></trkpt><trkpt lat="45.56687964523945" lon="10.740420150332893"><ele>227.60000000000002</ele><time>2026-04-26T07:07:03Z</time></trkpt><trkpt lat="45.566818504743516" lon="10.740351067735084"><ele>227.8</ele><time>2026-04-26T07:07:04Z</time></trkpt><trkpt lat="45.56675450567209" lon="10.740276008753959"><ele>228.0</ele><time>2026-04-26T07:07:05Z</time></trkpt><trkpt lat="45.56668420608952" lon="10.740170347914487"><ele>229.25</ele><time>2026-04-26T07:07:06Z</time></trkpt><trkpt lat="45.5666135160459" lon="10.740031698371094"><ele>230.5</ele><time>2026-04-26T07:07:07Z</time></trkpt><trkpt lat="45.56652664093321" lon="10.739855432775213"><ele>231.75</ele><time>2026-04-26T07:07:08Z</time></trkpt><trkpt lat="45.566443183841336" lon="10.739648074122226"><ele>233.0</ele><time>2026-04-26T07:07:09Z</time></trkpt><trkpt lat="45.56641030193996" lon="10.739486003822208"><ele>233.66666666666669</ele><time>2026-04-26T07:07:10Z</time></trkpt><trkpt lat="45.56639673366934" lon="10.739377338128055"><ele>234.33333333333334</ele><time>2026-04-26T07:07:11Z</time></trkpt><trkpt lat="45.56638295122452" lon="10.73926810584839"><ele>235.0</ele><time>2026-04-26T07:07:12Z</time></trkpt><trkpt lat="45.5663534238243" lon="10.739158016821973"><ele>235.66666666666669</ele><time>2026-04-26T07:07:13Z</time></trkpt><trkpt lat="45.56634861170467" lon="10.739047658949586"><ele>236.33333333333334</ele><time>2026-04-26T07:07:14Z</time></trkpt><trkpt lat="45.56633816763639" lon="10.738934293169967"><ele>237.0</ele><time>2026-04-26T07:07:16Z</time></trkpt><trkpt lat="45.56638028607646" lon="10.738856959087425"><ele>237.0</ele><time>2026-04-26T07:07:18Z</time></trkpt><trkpt lat="45.56644874748406" lon="10.738783763212856"><ele>237.0</ele><time>2026-04-26T07:07:20Z</time></trkpt><trkpt lat="45.56651988976965" lon="10.738687968317127"><ele>237.0</ele><time>2026-04-26T07:07:21Z</time></trkpt><trkpt lat="45.56661354051168" lon="10.738590975018619"><ele>237.0</ele><time>2026-04-26T07:07:22Z</time></trkpt><trkpt lat="45.56668361534278" lon="10.738456416463496"><ele>237.0</ele><time>2026-04-26T07:07:23Z</time></trkpt><trkpt lat="45.566769892958014" lon="10.738341311485843"><ele>237.0</ele><time>2026-04-26T07:07:24Z</time></trkpt><trkpt lat="45.56685903836902" lon="10.738229752893819"><ele>237.0</ele><time>2026-04-26T07:07:25Z</time></trkpt><trkpt lat="45.566945079830724" lon="10.738126965328716"><ele>237.0</ele><time>2026-04-26T07:07:26Z</time></trkpt><trkpt lat="45.56702235877796" lon="10.738000842664503"><ele>237.0</ele><time>2026-04-26T07:07:27Z</time></trkpt><trkpt lat="45.56708301822807" lon="10.737870457484929"><ele>236.2</ele><time>2026-04-26T07:07:28Z</time></trkpt><trkpt lat="45.567145653910615" lon="10.737752963871404"><ele>235.39999999999998</ele><time>2026-04-26T07:07:29Z</time></trkpt><trkpt lat="45.567214242834325" lon="10.737639886655256"><ele>234.60000000000002</ele><time>2026-04-26T07:07:30Z</time></trkpt><trkpt lat="45.567287384231584" lon="10.737515380026613"><ele>233.8</ele><time>2026-04-26T07:07:31Z</time></trkpt><trkpt lat="45.56735177750094" lon="10.737396396566389"><ele>233.0</ele><time>2026-04-26T07:07:32Z</time></trkpt><trkpt lat="45.56740686907499" lon="10.737285754862532"><ele>232.4</ele><time>2026-04-26T07:07:33Z</time></trkpt><trkpt lat="45.56746994257727" lon="10.737184714849192"><ele>231.8</ele><time>2026-04-26T07:07:34Z</time></trkpt><trkpt lat="45.56752190227423" lon="10.737079261101776"><ele>231.2</ele><time>2026-04-26T07:07:35Z</time></trkpt><trkpt lat="45.56755011103319" lon="10.736967104602694"><ele>230.6</ele><time>2026-04-26T07:07:36Z</time></trkpt><trkpt lat="45.56756659969291" lon="10.736835399043967"><ele>230.0</ele><time>2026-04-26T07:07:37Z</time></trkpt><trkpt lat="45.56759783916493" lon="10.736708804808895"><ele>229.83333333333334</ele><time>2026-04-26T07:07:38Z</time></trkpt><trkpt lat="45.56760822096822" lon="10.736565699971594"><ele>229.66666666666669</ele><time>2026-04-26T07:07:39Z</time></trkpt><trkpt lat="45.567617524878315" lon="10.73645480746651"><ele>229.5</ele><time>2026-04-26T07:07:40Z</time></trkpt><trkpt lat="45.56762613597404" lon="10.73636063510569"><ele>229.33333333333331</ele><time>2026-04-26T07:07:41Z</time></trkpt><trkpt lat="45.56764579824051" lon="10.736237952672772"><ele>229.16666666666666</ele><time>2026-04-26T07:07:43Z</time></trkpt><trkpt lat="45.56771731019576" lon="10.736266763523675"><ele>229.0</ele><time>2026-04-26T07:07:45Z</time></trkpt><trkpt lat="45.567764721513925" lon="10.736360887804807"><ele>229.0</ele><time>2026-04-26T07:07:46Z</time></trkpt><trkpt lat="45.567805821702756" lon="10.736453767292275"><ele>228.99999999999997</ele><time>2026-04-26T07:07:47Z</time></trkpt><trkpt lat="45.56790417709427" lon="10.736501104465397"><ele>228.99999999999997</ele><time>2026-04-26T07:07:49Z</time></trkpt><trkpt lat="45.56788146307198" lon="10.736253568138606"><ele>229.0</ele><time>2026-04-26T07:08:03Z</time></trkpt><trkpt lat="45.56783894968158" lon="10.736178629385872"><ele>229.0</ele><time>2026-04-26T07:08:04Z</time></trkpt><trkpt lat="45.56779375707547" lon="10.73608891304411"><ele>228.2</ele><time>2026-04-26T07:08:05Z</time></trkpt><trkpt lat="45.56774368528304" lon="10.735972055533734"><ele>227.39999999999998</ele><time>2026-04-26T07:08:07Z</time></trkpt><trkpt lat="45.567728593416966" lon="10.735872568722991"><ele>226.6</ele><time>2026-04-26T07:08:10Z</time></trkpt><trkpt lat="45.56780333413835" lon="10.735804079509487"><ele>225.8</ele><time>2026-04-26T07:08:47Z</time></trkpt><trkpt lat="45.56792526738599" lon="10.735803728890517"><ele>225.0</ele><time>2026-04-26T07:08:49Z</time></trkpt><trkpt lat="45.56800537610788" lon="10.735830192550806"><ele>224.16666666666666</ele><time>2026-04-26T07:08:50Z</time></trkpt><trkpt lat="45.568085161753636" lon="10.73589518817407"><ele>223.33333333333331</ele><time>2026-04-26T07:08:51Z</time></trkpt><trkpt lat="45.568175535717636" lon="10.735931931680652"><ele>222.5</ele><time>2026-04-26T07:08:52Z</time></trkpt><trkpt lat="45.56825968218492" lon="10.735966278967993"><ele>221.66666666666666</ele><time>2026-04-26T07:08:53Z</time></trkpt><trkpt lat="45.56834504615133" lon="10.735999776869551"><ele>220.83333333333331</ele><time>2026-04-26T07:08:54Z</time></trkpt><trkpt lat="45.568412723452724" lon="10.736021425379846"><ele>220.0</ele><time>2026-04-26T07:08:55Z</time></trkpt><trkpt lat="45.56850448448416" lon="10.736039116242178"><ele>219.99999999999997</ele><time>2026-04-26T07:08:56Z</time></trkpt><trkpt lat="45.56857319451566" lon="10.736041932329977"><ele>220.0</ele><time>2026-04-26T07:08:57Z</time></trkpt><trkpt lat="45.568664318631185" lon="10.736023624687329"><ele>220.0</ele><time>2026-04-26T07:08:58Z</time></trkpt><trkpt lat="45.5687506783615" lon="10.73602357357695"><ele>220.0</ele><time>2026-04-26T07:08:59Z</time></trkpt><trkpt lat="45.56883366985021" lon="10.736014594462842"><ele>219.99999999999997</ele><time>2026-04-26T07:09:00Z</time></trkpt><trkpt lat="45.568926084456265" lon="10.73601450784081"><ele>220.0</ele><time>2026-04-26T07:09:01Z</time></trkpt><trkpt lat="45.56903227483343" lon="10.736026255771202"><ele>219.83333333333331</ele><time>2026-04-26T07:09:02Z</time></trkpt><trkpt lat="45.569123755609695" lon="10.736045542633203"><ele>219.66666666666666</ele><time>2026-04-26T07:09:03Z</time></trkpt><trkpt lat="45.56920122370962" lon="10.736089676498619"><ele>219.5</ele><time>2026-04-26T07:09:04Z</time></trkpt><trkpt lat="45.56926787611311" lon="10.736123536797532"><ele>219.33333333333331</ele><time>2026-04-26T07:09:05Z</time></trkpt><trkpt lat="45.569346229337775" lon="10.736138316553857"><ele>219.16666666666666</ele><time>2026-04-26T07:09:06Z</time></trkpt><trkpt lat="45.56942279298883" lon="10.736173611612791"><ele>219.0</ele><time>2026-04-26T07:09:07Z</time></trkpt><trkpt lat="45.56952115557587" lon="10.736215482735693"><ele>219.0</ele><time>2026-04-26T07:09:08Z</time></trkpt><trkpt lat="45.56960335884636" lon="10.73622818734772"><ele>219.0</ele><time>2026-04-26T07:09:09Z</time></trkpt><trkpt lat="45.569693089096425" lon="10.73625030119688"><ele>219.0</ele><time>2026-04-26T07:09:10Z</time></trkpt><trkpt lat="45.569774373208084" lon="10.736267908076277"><ele>219.0</ele><time>2026-04-26T07:09:11Z</time></trkpt><trkpt lat="45.56985906064598" lon="10.736275924305405"><ele>219.0</ele><time>2026-04-26T07:09:12Z</time></trkpt><trkpt lat="45.56995319141761" lon="10.736283734085553"><ele>219.0</ele><time>2026-04-26T07:09:13Z</time></trkpt><trkpt lat="45.57004783356401" lon="10.736300041994536"><ele>219.0</ele><time>2026-04-26T07:09:14Z</time></trkpt><trkpt lat="45.57015713434726" lon="10.736306535035279"><ele>218.99999999999997</ele><time>2026-04-26T07:09:15Z</time></trkpt><trkpt lat="45.57026941456045" lon="10.736313896500066"><ele>218.99999999999997</ele><time>2026-04-26T07:09:16Z</time></trkpt><trkpt lat="45.57034845319812" lon="10.736323509641077"><ele>219.0</ele><time>2026-04-26T07:09:17Z</time></trkpt><trkpt lat="45.570439440255015" lon="10.736341828592177"><ele>219.0</ele><time>2026-04-26T07:09:18Z</time></trkpt><trkpt lat="45.57052208046684" lon="10.736318983952621"><ele>219.5</ele><time>2026-04-26T07:09:19Z</time></trkpt><trkpt lat="45.57059112150422" lon="10.736319990964232"><ele>220.0</ele><time>2026-04-26T07:09:20Z</time></trkpt><trkpt lat="45.57065106878197" lon="10.736420489435725"><ele>220.5</ele><time>2026-04-26T07:09:23Z</time></trkpt><trkpt lat="45.570672615008746" lon="10.736510349292235"><ele>221.0</ele><time>2026-04-26T07:09:24Z</time></trkpt><trkpt lat="45.570703579362466" lon="10.736645425037254"><ele>221.5</ele><time>2026-04-26T07:09:25Z</time></trkpt><trkpt lat="45.57073841877702" lon="10.736771959800217"><ele>222.0</ele><time>2026-04-26T07:09:26Z</time></trkpt><trkpt lat="45.570782143745916" lon="10.736890682519538"><ele>222.0</ele><time>2026-04-26T07:09:27Z</time></trkpt><trkpt lat="45.570799718499245" lon="10.73698570912261"><ele>222.0</ele><time>2026-04-26T07:09:28Z</time></trkpt><trkpt lat="45.57079053045448" lon="10.737076570499566"><ele>222.0</ele><time>2026-04-26T07:09:29Z</time></trkpt><trkpt lat="45.5707994485075" lon="10.737205534482722"><ele>222.0</ele><time>2026-04-26T07:09:30Z</time></trkpt><trkpt lat="45.57082453683093" lon="10.737329919300173"><ele>222.0</ele><time>2026-04-26T07:09:31Z</time></trkpt><trkpt lat="45.57082970246187" lon="10.737509568086189"><ele>222.0</ele><time>2026-04-26T07:09:33Z</time></trkpt><trkpt lat="45.570834429612745" lon="10.7376133367533"><ele>222.33333333333334</ele><time>2026-04-26T07:09:34Z</time></trkpt><trkpt lat="45.570843805803264" lon="10.737766997919401"><ele>222.66666666666669</ele><time>2026-04-26T07:09:36Z</time></trkpt><trkpt lat="45.57085019104709" lon="10.737858103841155"><ele>223.0</ele><time>2026-04-26T07:09:37Z</time></trkpt><trkpt lat="45.57084302099854" lon="10.737956315900163"><ele>223.33333333333334</ele><time>2026-04-26T07:09:38Z</time></trkpt><trkpt lat="45.57086619830996" lon="10.738133289373648"><ele>223.66666666666669</ele><time>2026-04-26T07:09:40Z</time></trkpt><trkpt lat="45.570874658821225" lon="10.738239941020243"><ele>224.0</ele><time>2026-04-26T07:09:41Z</time></trkpt><trkpt lat="45.57088366487395" lon="10.738432812473603"><ele>223.50000000000003</ele><time>2026-04-26T07:09:43Z</time></trkpt><trkpt lat="45.570893217782185" lon="10.738559198388694"><ele>223.0</ele><time>2026-04-26T07:09:44Z</time></trkpt><trkpt lat="45.57091155254474" lon="10.738704766774704"><ele>222.5</ele><time>2026-04-26T07:09:45Z</time></trkpt><trkpt lat="45.5709010900414" lon="10.738810197239514"><ele>222.0</ele><time>2026-04-26T07:09:46Z</time></trkpt><trkpt lat="45.570916117728125" lon="10.738931940407655"><ele>221.50000000000003</ele><time>2026-04-26T07:09:47Z</time></trkpt><trkpt lat="45.570909147599586" lon="10.739047366949826"><ele>221.0</ele><time>2026-04-26T07:09:48Z</time></trkpt><trkpt lat="45.57088728982785" lon="10.739189564106882"><ele>221.00000000000003</ele><time>2026-04-26T07:09:49Z</time></trkpt><trkpt lat="45.57090059607277" lon="10.739324868407166"><ele>221.0</ele><time>2026-04-26T07:09:50Z</time></trkpt><trkpt lat="45.57088100347507" lon="10.739449998992376"><ele>221.0</ele><time>2026-04-26T07:09:51Z</time></trkpt><trkpt lat="45.57086845533866" lon="10.739572254553677"><ele>221.0</ele><time>2026-04-26T07:09:52Z</time></trkpt><trkpt lat="45.57089280153374" lon="10.739699518712998"><ele>221.00000000000003</ele><time>2026-04-26T07:09:54Z</time></trkpt><trkpt lat="45.57094874328398" lon="10.739788626867435"><ele>221.0</ele><time>2026-04-26T07:09:58Z</time></trkpt><trkpt lat="45.57106528919489" lon="10.739698140443242"><ele>221.0</ele><time>2026-04-26T07:09:59Z</time></trkpt><trkpt lat="45.571171273360974" lon="10.739678203383951"><ele>221.00000000000003</ele><time>2026-04-26T07:10:01Z</time></trkpt><trkpt lat="45.571244621775854" lon="10.739802872025116"><ele>221.00000000000003</ele><time>2026-04-26T07:10:04Z</time></trkpt><trkpt lat="45.57122433005088" lon="10.739931513079704"><ele>221.0</ele><time>2026-04-26T07:10:05Z</time></trkpt><trkpt lat="45.57121975444264" lon="10.74006082754762"><ele>221.0</ele><time>2026-04-26T07:10:06Z</time></trkpt><trkpt lat="45.57121263706099" lon="10.740195837415529"><ele>217.4</ele><time>2026-04-26T07:10:07Z</time></trkpt><trkpt lat="45.571204164783914" lon="10.740327120492658"><ele>213.8</ele><time>2026-04-26T07:10:08Z</time></trkpt><trkpt lat="45.571209962792956" lon="10.74045976443667"><ele>210.20000000000002</ele><time>2026-04-26T07:10:09Z</time></trkpt><trkpt lat="45.57120570938154" lon="10.740559730437242"><ele>206.60000000000002</ele><time>2026-04-26T07:10:10Z</time></trkpt><trkpt lat="45.57121587587124" lon="10.740721977369097"><ele>203.0</ele><time>2026-04-26T07:10:12Z</time></trkpt><trkpt lat="45.57123266653257" lon="10.740881839008882"><ele>203.0</ele><time>2026-04-26T07:10:14Z</time></trkpt><trkpt lat="45.57119965649995" lon="10.741002905219046"><ele>203.0</ele><time>2026-04-26T07:10:16Z</time></trkpt><trkpt lat="45.57107952334815" lon="10.741105140366525"><ele>203.0</ele><time>2026-04-26T07:10:18Z</time></trkpt><trkpt lat="45.57102107285475" lon="10.741160620181486"><ele>203.0</ele><time>2026-04-26T07:10:19Z</time></trkpt><trkpt lat="45.57098768270565" lon="10.741331002283488"><ele>203.0</ele><time>2026-04-26T07:10:21Z</time></trkpt><trkpt lat="45.57100676416251" lon="10.741430882117507"><ele>204.16666666666669</ele><time>2026-04-26T07:10:22Z</time></trkpt><trkpt lat="45.571039586042446" lon="10.741538250198817"><ele>205.33333333333334</ele><time>2026-04-26T07:10:23Z</time></trkpt><trkpt lat="45.57105739599172" lon="10.741657765581328"><ele>206.5</ele><time>2026-04-26T07:10:24Z</time></trkpt><trkpt lat="45.571098169560365" lon="10.741801750778274"><ele>207.66666666666669</ele><time>2026-04-26T07:10:25Z</time></trkpt><trkpt lat="45.57113312097764" lon="10.74191535398707"><ele>208.83333333333334</ele><time>2026-04-26T07:10:26Z</time></trkpt><trkpt lat="45.57117866042218" lon="10.742008250864185"><ele>210.0</ele><time>2026-04-26T07:10:27Z</time></trkpt><trkpt lat="45.57119475718978" lon="10.742099647063018"><ele>210.0</ele><time>2026-04-26T07:10:28Z</time></trkpt><trkpt lat="45.57124301482573" lon="10.742271457626856"><ele>210.0</ele><time>2026-04-26T07:10:30Z</time></trkpt><trkpt lat="45.571289247578534" lon="10.742431958717406"><ele>210.0</ele><time>2026-04-26T07:10:32Z</time></trkpt><trkpt lat="45.57130005616924" lon="10.742596529035815"><ele>210.0</ele><time>2026-04-26T07:10:34Z</time></trkpt><trkpt lat="45.571318159688204" lon="10.742698510912318"><ele>210.0</ele><time>2026-04-26T07:10:35Z</time></trkpt><trkpt lat="45.57133468192849" lon="10.742791585033897"><ele>210.33333333333334</ele><time>2026-04-26T07:10:36Z</time></trkpt><trkpt lat="45.57137509817818" lon="10.74291351132952"><ele>210.66666666666669</ele><time>2026-04-26T07:10:37Z</time></trkpt><trkpt lat="45.571396868751265" lon="10.743008689340504"><ele>211.0</ele><time>2026-04-26T07:10:38Z</time></trkpt><trkpt lat="45.57143230535232" lon="10.743104613240869"><ele>211.33333333333334</ele><time>2026-04-26T07:10:39Z</time></trkpt><trkpt lat="45.571475881418216" lon="10.743268987894595"><ele>211.66666666666669</ele><time>2026-04-26T07:10:41Z</time></trkpt><trkpt lat="45.57151019625485" lon="10.743363345464365"><ele>212.0</ele><time>2026-04-26T07:10:42Z</time></trkpt><trkpt lat="45.57154795114528" lon="10.743481125565626"><ele>212.0</ele><time>2026-04-26T07:10:43Z</time></trkpt><trkpt lat="45.571587005158065" lon="10.74361688201368"><ele>212.0</ele><time>2026-04-26T07:10:44Z</time></trkpt><trkpt lat="45.57164167362577" lon="10.743744430851004"><ele>212.0</ele><time>2026-04-26T07:10:45Z</time></trkpt><trkpt lat="45.57167071012269" lon="10.743871084553925"><ele>212.0</ele><time>2026-04-26T07:10:46Z</time></trkpt><trkpt lat="45.57170255818611" lon="10.743984434707007"><ele>212.0</ele><time>2026-04-26T07:10:47Z</time></trkpt><trkpt lat="45.5717377910371" lon="10.744111776507989"><ele>212.0</ele><time>2026-04-26T07:10:49Z</time></trkpt><trkpt lat="45.57183083405764" lon="10.743960413841235"><ele>212.0</ele><time>2026-04-26T07:10:54Z</time></trkpt><trkpt lat="45.57184100077008" lon="10.743851654343958"><ele>212.0</ele><time>2026-04-26T07:10:55Z</time></trkpt><trkpt lat="45.57185243816186" lon="10.743728900791277"><ele>212.0</ele><time>2026-04-26T07:10:56Z</time></trkpt><trkpt lat="45.57186989130199" lon="10.743609170417"><ele>212.0</ele><time>2026-04-26T07:10:57Z</time></trkpt><trkpt lat="45.571885946738234" lon="10.743498873365153"><ele>212.00000000000003</ele><time>2026-04-26T07:10:58Z</time></trkpt><trkpt lat="45.57190608976301" lon="10.743396543476116"><ele>212.0</ele><time>2026-04-26T07:10:59Z</time></trkpt><trkpt lat="45.5719241610214" lon="10.743261441787084"><ele>212.0</ele><time>2026-04-26T07:11:01Z</time></trkpt><trkpt lat="45.571944805324584" lon="10.743152997702376"><ele>212.0</ele><time>2026-04-26T07:11:03Z</time></trkpt><trkpt lat="45.571968675505275" lon="10.743066290797307"><ele>212.00000000000003</ele><time>2026-04-26T07:11:04Z</time></trkpt><trkpt lat="45.57199132364166" lon="10.742965867274505"><ele>212.0</ele><time>2026-04-26T07:11:05Z</time></trkpt><trkpt lat="45.572014558201985" lon="10.742870917274669"><ele>213.00000000000003</ele><time>2026-04-26T07:11:06Z</time></trkpt><trkpt lat="45.57204564009576" lon="10.742778209102948"><ele>214.0</ele><time>2026-04-26T07:11:07Z</time></trkpt><trkpt lat="45.57209013001337" lon="10.742662136637053"><ele>215.0</ele><time>2026-04-26T07:11:08Z</time></trkpt><trkpt lat="45.572116992561085" lon="10.742579559388556"><ele>216.0</ele><time>2026-04-26T07:11:09Z</time></trkpt><trkpt lat="45.572156738603276" lon="10.742487304166211"><ele>217.00000000000003</ele><time>2026-04-26T07:11:11Z</time></trkpt><trkpt lat="45.572259100144656" lon="10.742501387149902"><ele>218.0</ele><time>2026-04-26T07:11:14Z</time></trkpt><trkpt lat="45.572331907783344" lon="10.742564904191214"><ele>218.00000000000003</ele><time>2026-04-26T07:11:15Z</time></trkpt><trkpt lat="45.57241671217408" lon="10.742653542272137"><ele>218.0</ele><time>2026-04-26T07:11:16Z</time></trkpt><trkpt lat="45.57246941468156" lon="10.74273291939174"><ele>218.0</ele><time>2026-04-26T07:11:17Z</time></trkpt><trkpt lat="45.57254131173725" lon="10.742813469667803"><ele>218.0</ele><time>2026-04-26T07:11:18Z</time></trkpt><trkpt lat="45.57259581639177" lon="10.742885101606145"><ele>218.00000000000003</ele><time>2026-04-26T07:11:19Z</time></trkpt><trkpt lat="45.572657865607624" lon="10.74294115962203"><ele>218.0</ele><time>2026-04-26T07:11:20Z</time></trkpt><trkpt lat="45.572761535366254" lon="10.743000501621411"><ele>215.4</ele><time>2026-04-26T07:11:21Z</time></trkpt><trkpt lat="45.57285646791682" lon="10.743109697349096"><ele>212.8</ele><time>2026-04-26T07:11:22Z</time></trkpt><trkpt lat="45.57294855434461" lon="10.743183119384947"><ele>210.2</ele><time>2026-04-26T07:11:23Z</time></trkpt><trkpt lat="45.5730220698247" lon="10.743243017802731"><ele>207.6</ele><time>2026-04-26T07:11:24Z</time></trkpt><trkpt lat="45.57310158858876" lon="10.743327284261854"><ele>205.0</ele><time>2026-04-26T07:11:25Z</time></trkpt><trkpt lat="45.5731862056783" lon="10.743419218606515"><ele>204.99999999999997</ele><time>2026-04-26T07:11:26Z</time></trkpt><trkpt lat="45.57324490718496" lon="10.743491252490859"><ele>205.0</ele><time>2026-04-26T07:11:27Z</time></trkpt><trkpt lat="45.57331076750551" lon="10.743546346498189"><ele>205.0</ele><time>2026-04-26T07:11:28Z</time></trkpt><trkpt lat="45.57337553537607" lon="10.743617442615989"><ele>205.0</ele><time>2026-04-26T07:11:29Z</time></trkpt><trkpt lat="45.57343753144388" lon="10.743682033636363"><ele>204.99999999999997</ele><time>2026-04-26T07:11:30Z</time></trkpt><trkpt lat="45.57351172148836" lon="10.743774589789826"><ele>205.0</ele><time>2026-04-26T07:11:31Z</time></trkpt><trkpt lat="45.57357012933463" lon="10.743879760272781"><ele>204.66666666666666</ele><time>2026-04-26T07:11:32Z</time></trkpt><trkpt lat="45.57362112211207" lon="10.743965291585036"><ele>204.33333333333331</ele><time>2026-04-26T07:11:33Z</time></trkpt><trkpt lat="45.573688745777325" lon="10.744042867827735"><ele>204.0</ele><time>2026-04-26T07:11:34Z</time></trkpt><trkpt lat="45.573750296205304" lon="10.744091610696398"><ele>203.66666666666669</ele><time>2026-04-26T07:11:35Z</time></trkpt><trkpt lat="45.5738415120626" lon="10.744146221154608"><ele>203.33333333333334</ele><time>2026-04-26T07:11:37Z</time></trkpt><trkpt lat="45.573901387811695" lon="10.744219144590437"><ele>203.0</ele><time>2026-04-26T07:11:39Z</time></trkpt><trkpt lat="45.57395954900221" lon="10.74435931433112"><ele>207.0</ele><time>2026-04-26T07:11:41Z</time></trkpt><trkpt lat="45.574025429050394" lon="10.744418202264896"><ele>211.0</ele><time>2026-04-26T07:11:42Z</time></trkpt><trkpt lat="45.574101341546374" lon="10.744491666888026"><ele>215.0</ele><time>2026-04-26T07:11:43Z</time></trkpt><trkpt lat="45.57417956197554" lon="10.744579297393086"><ele>219.0</ele><time>2026-04-26T07:11:44Z</time></trkpt><trkpt lat="45.57425514483716" lon="10.744682701028964"><ele>223.0</ele><time>2026-04-26T07:11:45Z</time></trkpt><trkpt lat="45.574342899608105" lon="10.744793715669156"><ele>223.0</ele><time>2026-04-26T07:11:46Z</time></trkpt><trkpt lat="45.57442562972301" lon="10.744898766527893"><ele>223.0</ele><time>2026-04-26T07:11:47Z</time></trkpt><trkpt lat="45.57450949503372" lon="10.745008615023139"><ele>223.0</ele><time>2026-04-26T07:11:48Z</time></trkpt><trkpt lat="45.57458619434915" lon="10.745099083090816"><ele>223.0</ele><time>2026-04-26T07:11:49Z</time></trkpt><trkpt lat="45.57464360520663" lon="10.745171963914053"><ele>223.0</ele><time>2026-04-26T07:11:50Z</time></trkpt><trkpt lat="45.57470762270208" lon="10.745247428653185"><ele>223.16666666666666</ele><time>2026-04-26T07:11:51Z</time></trkpt><trkpt lat="45.574768182947366" lon="10.7453183933588"><ele>223.33333333333331</ele><time>2026-04-26T07:11:52Z</time></trkpt><trkpt lat="45.574827860453844" lon="10.745392693974532"><ele>223.5</ele><time>2026-04-26T07:11:53Z</time></trkpt><trkpt lat="45.5748958750763" lon="10.745529867555847"><ele>223.66666666666669</ele><time>2026-04-26T07:11:55Z</time></trkpt><trkpt lat="45.5749106205805" lon="10.74562422723026"><ele>223.83333333333334</ele><time>2026-04-26T07:11:56Z</time></trkpt><trkpt lat="45.574939937961375" lon="10.745710169310241"><ele>224.0</ele><time>2026-04-26T07:11:57Z</time></trkpt><trkpt lat="45.574994256241624" lon="10.745799442936054"><ele>224.00000000000003</ele><time>2026-04-26T07:11:58Z</time></trkpt><trkpt lat="45.575074846709455" lon="10.745869696739252"><ele>224.0</ele><time>2026-04-26T07:11:59Z</time></trkpt><trkpt lat="45.575158658629405" lon="10.745935958640343"><ele>224.0</ele><time>2026-04-26T07:12:00Z</time></trkpt><trkpt lat="45.57521849936208" lon="10.745976347969666"><ele>224.0</ele><time>2026-04-26T07:12:01Z</time></trkpt><trkpt lat="45.575278420330505" lon="10.746032749941499"><ele>224.00000000000003</ele><time>2026-04-26T07:12:02Z</time></trkpt><trkpt lat="45.57534909674479" lon="10.746078216280361"><ele>224.0</ele><time>2026-04-26T07:12:03Z</time></trkpt><trkpt lat="45.57542444872191" lon="10.746127708882447"><ele>225.79999999999998</ele><time>2026-04-26T07:12:04Z</time></trkpt><trkpt lat="45.575507983784476" lon="10.746177576762193"><ele>227.59999999999997</ele><time>2026-04-26T07:12:05Z</time></trkpt><trkpt lat="45.57559838426311" lon="10.74621980491785"><ele>229.4</ele><time>2026-04-26T07:12:06Z</time></trkpt><trkpt lat="45.57569111763904" lon="10.746252609546982"><ele>231.2</ele><time>2026-04-26T07:12:07Z</time></trkpt><trkpt lat="45.575794068489294" lon="10.746278660191708"><ele>233.0</ele><time>2026-04-26T07:12:08Z</time></trkpt><trkpt lat="45.57589259240158" lon="10.746297564757278"><ele>233.0</ele><time>2026-04-26T07:12:09Z</time></trkpt><trkpt lat="45.5759907760717" lon="10.74629537002211"><ele>233.0</ele><time>2026-04-26T07:12:10Z</time></trkpt><trkpt lat="45.57608643017846" lon="10.74628747079231"><ele>233.0</ele><time>2026-04-26T07:12:11Z</time></trkpt><trkpt lat="45.5762168196417" lon="10.746432982567537"><ele>233.0</ele><time>2026-04-26T07:12:12Z</time></trkpt><trkpt lat="45.57631043781317" lon="10.746428401235073"><ele>233.33333333333334</ele><time>2026-04-26T07:12:13Z</time></trkpt><trkpt lat="45.576373937476156" lon="10.746440541093019"><ele>233.66666666666669</ele><time>2026-04-26T07:12:14Z</time></trkpt><trkpt lat="45.57650174068986" lon="10.746476770919331"><ele>234.0</ele><time>2026-04-26T07:12:16Z</time></trkpt><trkpt lat="45.576571680033226" lon="10.746493160204434"><ele>234.33333333333331</ele><time>2026-04-26T07:12:17Z</time></trkpt><trkpt lat="45.57665038827634" lon="10.746521846259398"><ele>234.66666666666666</ele><time>2026-04-26T07:12:20Z</time></trkpt><trkpt lat="45.576688898461775" lon="10.746599945669555"><ele>235.0</ele><time>2026-04-26T07:12:21Z</time></trkpt><trkpt lat="45.5767180138698" lon="10.746715063092806"><ele>234.99999999999997</ele><time>2026-04-26T07:12:22Z</time></trkpt><trkpt lat="45.57675752819958" lon="10.74682088156647"><ele>235.0</ele><time>2026-04-26T07:12:23Z</time></trkpt><trkpt lat="45.57681514473507" lon="10.746869964967825"><ele>235.0</ele><time>2026-04-26T07:12:24Z</time></trkpt><trkpt lat="45.57689356224141" lon="10.746880628450828"><ele>235.0</ele><time>2026-04-26T07:12:25Z</time></trkpt><trkpt lat="45.57698968949231" lon="10.746889433694113"><ele>234.99999999999997</ele><time>2026-04-26T07:12:26Z</time></trkpt><trkpt lat="45.5770838789528" lon="10.746866380364194"><ele>235.0</ele><time>2026-04-26T07:12:27Z</time></trkpt><trkpt lat="45.577174727574295" lon="10.74682083161404"><ele>234.8</ele><time>2026-04-26T07:12:28Z</time></trkpt><trkpt lat="45.57726340630133" lon="10.746785853409607"><ele>234.6</ele><time>2026-04-26T07:12:29Z</time></trkpt><trkpt lat="45.57733832186061" lon="10.746740638106724"><ele>234.39999999999998</ele><time>2026-04-26T07:12:30Z</time></trkpt><trkpt lat="45.577415493533415" lon="10.746684602432724"><ele>234.2</ele><time>2026-04-26T07:12:31Z</time></trkpt><trkpt lat="45.577498805340554" lon="10.74661934506127"><ele>234.0</ele><time>2026-04-26T07:12:32Z</time></trkpt><trkpt lat="45.57757591328492" lon="10.746533239564155"><ele>234.0</ele><time>2026-04-26T07:12:33Z</time></trkpt><trkpt lat="45.5776631056912" lon="10.746437372644982"><ele>233.99999999999997</ele><time>2026-04-26T07:12:34Z</time></trkpt><trkpt lat="45.577747945721086" lon="10.746350414074039"><ele>233.99999999999997</ele><time>2026-04-26T07:12:35Z</time></trkpt><trkpt lat="45.577824640291496" lon="10.746269299040941"><ele>234.0</ele><time>2026-04-26T07:12:36Z</time></trkpt><trkpt lat="45.57789385132654" lon="10.746191256820788"><ele>234.0</ele><time>2026-04-26T07:12:37Z</time></trkpt><trkpt lat="45.57797040425327" lon="10.746118062397855"><ele>232.6</ele><time>2026-04-26T07:12:38Z</time></trkpt><trkpt lat="45.578052909591975" lon="10.746044882704172"><ele>231.2</ele><time>2026-04-26T07:12:39Z</time></trkpt><trkpt lat="45.57812842201273" lon="10.745974219502626"><ele>229.79999999999998</ele><time>2026-04-26T07:12:40Z</time></trkpt><trkpt lat="45.57821484067492" lon="10.745914342077773"><ele>228.39999999999998</ele><time>2026-04-26T07:12:41Z</time></trkpt><trkpt lat="45.578308059222785" lon="10.745830997484369"><ele>227.0</ele><time>2026-04-26T07:12:42Z</time></trkpt><trkpt lat="45.57841242610739" lon="10.745747667190662"><ele>227.0</ele><time>2026-04-26T07:12:43Z</time></trkpt><trkpt lat="45.5784989625869" lon="10.745678350466251"><ele>227.0</ele><time>2026-04-26T07:12:44Z</time></trkpt><trkpt lat="45.578588574233656" lon="10.745602328005807"><ele>227.0</ele><time>2026-04-26T07:12:45Z</time></trkpt><trkpt lat="45.57866846292827" lon="10.745528849291782"><ele>227.0</ele><time>2026-04-26T07:12:46Z</time></trkpt><trkpt lat="45.578733331905234" lon="10.745459586453881"><ele>227.0</ele><time>2026-04-26T07:12:47Z</time></trkpt><trkpt lat="45.578807462037055" lon="10.74537430074758"><ele>226.6</ele><time>2026-04-26T07:12:48Z</time></trkpt><trkpt lat="45.578873938587115" lon="10.745287732668801"><ele>226.2</ele><time>2026-04-26T07:12:49Z</time></trkpt><trkpt lat="45.57894077046753" lon="10.745188594723949"><ele>225.8</ele><time>2026-04-26T07:12:50Z</time></trkpt><trkpt lat="45.578992750595184" lon="10.745095974929413"><ele>225.4</ele><time>2026-04-26T07:12:51Z</time></trkpt><trkpt lat="45.57905550115033" lon="10.74498437049067"><ele>225.0</ele><time>2026-04-26T07:12:52Z</time></trkpt><trkpt lat="45.579121647143445" lon="10.74490819922442"><ele>224.0</ele><time>2026-04-26T07:12:53Z</time></trkpt><trkpt lat="45.579186572556246" lon="10.744794709239073"><ele>223.0</ele><time>2026-04-26T07:12:54Z</time></trkpt><trkpt lat="45.57924753048224" lon="10.744708011505317"><ele>222.0</ele><time>2026-04-26T07:12:55Z</time></trkpt><trkpt lat="45.5793057084161" lon="10.74464905418078"><ele>221.0</ele><time>2026-04-26T07:12:56Z</time></trkpt><trkpt lat="45.579366688382876" lon="10.744614195104642"><ele>220.0</ele><time>2026-04-26T07:12:57Z</time></trkpt><trkpt lat="45.57949383474428" lon="10.744671516251199"><ele>219.49999999999997</ele><time>2026-04-26T07:12:59Z</time></trkpt><trkpt lat="45.57957438272978" lon="10.744738656188408"><ele>219.0</ele><time>2026-04-26T07:13:00Z</time></trkpt><trkpt lat="45.57964887386604" lon="10.74479709548245"><ele>218.5</ele><time>2026-04-26T07:13:01Z</time></trkpt><trkpt lat="45.57972700401734" lon="10.744853642885497"><ele>218.0</ele><time>2026-04-26T07:13:02Z</time></trkpt><trkpt lat="45.57979222065198" lon="10.744902850372196"><ele>217.49999999999997</ele><time>2026-04-26T07:13:03Z</time></trkpt><trkpt lat="45.57987346971046" lon="10.744969453019806"><ele>217.0</ele><time>2026-04-26T07:13:04Z</time></trkpt><trkpt lat="45.57993201150923" lon="10.745026776849665"><ele>217.0</ele><time>2026-04-26T07:13:05Z</time></trkpt><trkpt lat="45.58003762765805" lon="10.745140992072127"><ele>217.0</ele><time>2026-04-26T07:13:07Z</time></trkpt><trkpt lat="45.580129133991136" lon="10.745222817872538"><ele>217.0</ele><time>2026-04-26T07:13:08Z</time></trkpt><trkpt lat="45.58019935572872" lon="10.745293524468462"><ele>217.0</ele><time>2026-04-26T07:13:09Z</time></trkpt><trkpt lat="45.58030501831223" lon="10.745356519923437"><ele>217.0</ele><time>2026-04-26T07:13:10Z</time></trkpt><trkpt lat="45.58041528606079" lon="10.745406675896447"><ele>220.2</ele><time>2026-04-26T07:13:11Z</time></trkpt><trkpt lat="45.580518740404834" lon="10.745442133979116"><ele>223.39999999999998</ele><time>2026-04-26T07:13:12Z</time></trkpt><trkpt lat="45.58061466874787" lon="10.745454699337795"><ele>226.60000000000002</ele><time>2026-04-26T07:13:13Z</time></trkpt><trkpt lat="45.58070666847923" lon="10.745469830440397"><ele>229.8</ele><time>2026-04-26T07:13:14Z</time></trkpt><trkpt lat="45.580809348548506" lon="10.745504467796838"><ele>233.0</ele><time>2026-04-26T07:13:15Z</time></trkpt><trkpt lat="45.58091434803135" lon="10.745541062084708"><ele>233.00000000000003</ele><time>2026-04-26T07:13:16Z</time></trkpt><trkpt lat="45.58099755036221" lon="10.745575298112065"><ele>233.0</ele><time>2026-04-26T07:13:17Z</time></trkpt><trkpt lat="45.58107312656792" lon="10.745599433557821"><ele>233.0</ele><time>2026-04-26T07:13:18Z</time></trkpt><trkpt lat="45.58113987608642" lon="10.745614677240324"><ele>233.0</ele><time>2026-04-26T07:13:19Z</time></trkpt><trkpt lat="45.58126417936212" lon="10.745573510590948"><ele>233.00000000000003</ele><time>2026-04-26T07:13:21Z</time></trkpt><trkpt lat="45.58132135077371" lon="10.74549373328565"><ele>233.0</ele><time>2026-04-26T07:13:22Z</time></trkpt><trkpt lat="45.581363166393054" lon="10.745374536086508"><ele>231.2</ele><time>2026-04-26T07:13:23Z</time></trkpt><trkpt lat="45.5813865314862" lon="10.745249366165849"><ele>229.4</ele><time>2026-04-26T07:13:24Z</time></trkpt><trkpt lat="45.58141798416265" lon="10.745089998234963"><ele>227.59999999999997</ele><time>2026-04-26T07:13:25Z</time></trkpt><trkpt lat="45.5814460074266" lon="10.74496746326602"><ele>225.79999999999998</ele><time>2026-04-26T07:13:26Z</time></trkpt><trkpt lat="45.5814799754013" lon="10.744862685399138"><ele>224.0</ele><time>2026-04-26T07:13:27Z</time></trkpt><trkpt lat="45.581525550410916" lon="10.744779053374758"><ele>223.6</ele><time>2026-04-26T07:13:28Z</time></trkpt><trkpt lat="45.58159878014078" lon="10.744732563696708"><ele>223.2</ele><time>2026-04-26T07:13:29Z</time></trkpt><trkpt lat="45.58168470171559" lon="10.744721638067396"><ele>222.79999999999998</ele><time>2026-04-26T07:13:30Z</time></trkpt><trkpt lat="45.58178457887625" lon="10.74474452495846"><ele>222.39999999999998</ele><time>2026-04-26T07:13:31Z</time></trkpt><trkpt lat="45.58188474056819" lon="10.744783442534118"><ele>222.0</ele><time>2026-04-26T07:13:32Z</time></trkpt><trkpt lat="45.58199394949877" lon="10.744808558264168"><ele>222.8</ele><time>2026-04-26T07:13:33Z</time></trkpt><trkpt lat="45.582100028071636" lon="10.744821335063087"><ele>223.6</ele><time>2026-04-26T07:13:34Z</time></trkpt><trkpt lat="45.582191069868706" lon="10.744822662213972"><ele>224.40000000000003</ele><time>2026-04-26T07:13:35Z</time></trkpt><trkpt lat="45.58228411563981" lon="10.74481717212111"><ele>225.20000000000002</ele><time>2026-04-26T07:13:36Z</time></trkpt><trkpt lat="45.58236655899" lon="10.744807908917158"><ele>226.0</ele><time>2026-04-26T07:13:37Z</time></trkpt><trkpt lat="45.58246108106264" lon="10.744786848500238"><ele>226.0</ele><time>2026-04-26T07:13:38Z</time></trkpt><trkpt lat="45.58256861796838" lon="10.744748516102055"><ele>226.00000000000003</ele><time>2026-04-26T07:13:39Z</time></trkpt><trkpt lat="45.58267629074783" lon="10.744706232180247"><ele>226.00000000000003</ele><time>2026-04-26T07:13:40Z</time></trkpt><trkpt lat="45.5827760812384" lon="10.744658851173698"><ele>226.0</ele><time>2026-04-26T07:13:41Z</time></trkpt><trkpt lat="45.58285892274354" lon="10.744633216170369"><ele>226.0</ele><time>2026-04-26T07:13:42Z</time></trkpt><trkpt lat="45.58294818593465" lon="10.744610562716609"><ele>226.4</ele><time>2026-04-26T07:13:43Z</time></trkpt><trkpt lat="45.58303584848457" lon="10.744576302249708"><ele>226.8</ele><time>2026-04-26T07:13:44Z</time></trkpt><trkpt lat="45.58314027818282" lon="10.74455900917256"><ele>227.20000000000002</ele><time>2026-04-26T07:13:45Z</time></trkpt><trkpt lat="45.58323334794013" lon="10.744596330938288"><ele>227.60000000000002</ele><time>2026-04-26T07:13:46Z</time></trkpt><trkpt lat="45.58333619162353" lon="10.744670130732318"><ele>228.0</ele><time>2026-04-26T07:13:47Z</time></trkpt><trkpt lat="45.58344706339753" lon="10.744760654280881"><ele>228.0</ele><time>2026-04-26T07:13:48Z</time></trkpt><trkpt lat="45.58356244339748" lon="10.744817820876593"><ele>228.0</ele><time>2026-04-26T07:13:49Z</time></trkpt><trkpt lat="45.58367934619056" lon="10.744837073225874"><ele>228.0</ele><time>2026-04-26T07:13:50Z</time></trkpt><trkpt lat="45.58379481326539" lon="10.744809823919473"><ele>228.0</ele><time>2026-04-26T07:13:51Z</time></trkpt><trkpt lat="45.58392132956264" lon="10.74477804597731"><ele>229.0</ele><time>2026-04-26T07:13:52Z</time></trkpt><trkpt lat="45.58405890038087" lon="10.744744928318271"><ele>230.0</ele><time>2026-04-26T07:13:53Z</time></trkpt><trkpt lat="45.58417887206237" lon="10.74470934230256"><ele>231.0</ele><time>2026-04-26T07:13:54Z</time></trkpt><trkpt lat="45.58428768632813" lon="10.744658853941354"><ele>232.0</ele><time>2026-04-26T07:13:55Z</time></trkpt><trkpt lat="45.58438939838815" lon="10.744597075853823"><ele>232.0</ele><time>2026-04-26T07:13:56Z</time></trkpt><trkpt lat="45.58449981216625" lon="10.744516950971821"><ele>232.0</ele><time>2026-04-26T07:13:57Z</time></trkpt><trkpt lat="45.58461676596384" lon="10.74443455407242"><ele>232.0</ele><time>2026-04-26T07:13:58Z</time></trkpt><trkpt lat="45.58474316022616" lon="10.744353070762482"><ele>232.0</ele><time>2026-04-26T07:13:59Z</time></trkpt><trkpt lat="45.58487132591892" lon="10.744273023428866"><ele>232.75</ele><time>2026-04-26T07:14:00Z</time></trkpt><trkpt lat="45.58498351568685" lon="10.74418646324991"><ele>233.5</ele><time>2026-04-26T07:14:01Z</time></trkpt><trkpt lat="45.585076323356745" lon="10.744106545590816"><ele>234.25</ele><time>2026-04-26T07:14:02Z</time></trkpt><trkpt lat="45.58516427993481" lon="10.74401272371577"><ele>235.0</ele><time>2026-04-26T07:14:03Z</time></trkpt><trkpt lat="45.58524487287126" lon="10.743913904297754"><ele>235.0</ele><time>2026-04-26T07:14:04Z</time></trkpt><trkpt lat="45.58531886472316" lon="10.743807325439379"><ele>235.0</ele><time>2026-04-26T07:14:05Z</time></trkpt><trkpt lat="45.585393134498666" lon="10.743706174816754"><ele>235.0</ele><time>2026-04-26T07:14:06Z</time></trkpt><trkpt lat="45.585462258632575" lon="10.743620213697447"><ele>235.0</ele><time>2026-04-26T07:14:07Z</time></trkpt><trkpt lat="45.585510783709125" lon="10.743556725934543"><ele>235.0</ele><time>2026-04-26T07:14:08Z</time></trkpt><trkpt lat="45.58558099326776" lon="10.743463495923868"><ele>235.66666666666666</ele><time>2026-04-26T07:14:10Z</time></trkpt><trkpt lat="45.58564154465642" lon="10.743409843134987"><ele>236.33333333333331</ele><time>2026-04-26T07:14:12Z</time></trkpt><trkpt lat="45.58571139576969" lon="10.743369626847036"><ele>237.0</ele><time>2026-04-26T07:14:15Z</time></trkpt><trkpt lat="45.585774200741405" lon="10.743345888245322"><ele>237.66666666666669</ele><time>2026-04-26T07:14:20Z</time></trkpt><trkpt lat="45.58585048811627" lon="10.7433116871054"><ele>238.33333333333334</ele><time>2026-04-26T07:14:23Z</time></trkpt><trkpt lat="45.5858421481378" lon="10.743099559325051"><ele>239.0</ele><time>2026-04-26T07:14:25Z</time></trkpt><trkpt lat="45.58584754330647" lon="10.74298372053498"><ele>239.00000000000003</ele><time>2026-04-26T07:14:26Z</time></trkpt><trkpt lat="45.585853410338295" lon="10.742880289985989"><ele>239.0</ele><time>2026-04-26T07:14:27Z</time></trkpt><trkpt lat="45.585858844549556" lon="10.742767098549805"><ele>239.0</ele><time>2026-04-26T07:14:28Z</time></trkpt><trkpt lat="45.58586738676653" lon="10.742664652885592"><ele>239.0</ele><time>2026-04-26T07:14:29Z</time></trkpt><trkpt lat="45.58587630330788" lon="10.742561675417784"><ele>239.00000000000003</ele><time>2026-04-26T07:14:30Z</time></trkpt><trkpt lat="45.58588094234017" lon="10.742464037995397"><ele>239.0</ele><time>2026-04-26T07:14:31Z</time></trkpt><trkpt lat="45.58588641623543" lon="10.74230514655556"><ele>238.16666666666669</ele><time>2026-04-26T07:14:33Z</time></trkpt><trkpt lat="45.585879785824694" lon="10.74216403684217"><ele>237.33333333333334</ele><time>2026-04-26T07:14:35Z</time></trkpt><trkpt lat="45.58588053693999" lon="10.74199970824238"><ele>236.5</ele><time>2026-04-26T07:14:37Z</time></trkpt><trkpt lat="45.58588793318452" lon="10.741894971970519"><ele>235.66666666666669</ele><time>2026-04-26T07:14:38Z</time></trkpt><trkpt lat="45.58588340108033" lon="10.741797478097588"><ele>234.83333333333334</ele><time>2026-04-26T07:14:39Z</time></trkpt><trkpt lat="45.58586112485073" lon="10.741688935129526"><ele>234.0</ele><time>2026-04-26T07:14:41Z</time></trkpt><trkpt lat="45.58585768685285" lon="10.741541927822437"><ele>233.0</ele><time>2026-04-26T07:14:43Z</time></trkpt><trkpt lat="45.58586577800261" lon="10.741440410895366"><ele>232.0</ele><time>2026-04-26T07:14:44Z</time></trkpt><trkpt lat="45.58586802823739" lon="10.741346910505388"><ele>231.0</ele><time>2026-04-26T07:14:45Z</time></trkpt><trkpt lat="45.58585860420619" lon="10.74117077826749"><ele>230.0</ele><time>2026-04-26T07:14:47Z</time></trkpt><trkpt lat="45.58584670062945" lon="10.741078446203735"><ele>229.0</ele><time>2026-04-26T07:14:48Z</time></trkpt><trkpt lat="45.585837574379916" lon="10.740976221137977"><ele>228.0</ele><time>2026-04-26T07:14:49Z</time></trkpt><trkpt lat="45.58582561425519" lon="10.740869634581133"><ele>227.8</ele><time>2026-04-26T07:14:50Z</time></trkpt><trkpt lat="45.58581317852905" lon="10.74077032913344"><ele>227.60000000000002</ele><time>2026-04-26T07:14:51Z</time></trkpt><trkpt lat="45.58580169034946" lon="10.740644068341238"><ele>227.39999999999998</ele><time>2026-04-26T07:14:52Z</time></trkpt><trkpt lat="45.58579016819031" lon="10.740542894912835"><ele>227.2</ele><time>2026-04-26T07:14:53Z</time></trkpt><trkpt lat="45.58577626943787" lon="10.740368755286886"><ele>227.0</ele><time>2026-04-26T07:14:55Z</time></trkpt><trkpt lat="45.58577193924814" lon="10.740210678637096"><ele>227.0</ele><time>2026-04-26T07:14:57Z</time></trkpt><trkpt lat="45.58580499690015" lon="10.740051614250854"><ele>227.0</ele><time>2026-04-26T07:14:59Z</time></trkpt><trkpt lat="45.58582196496578" lon="10.739860911474306"><ele>227.0</ele><time>2026-04-26T07:15:01Z</time></trkpt><trkpt lat="45.58581749884246" lon="10.739735278423744"><ele>227.0</ele><time>2026-04-26T07:15:02Z</time></trkpt><trkpt lat="45.58579564654791" lon="10.739632366183201"><ele>227.0</ele><time>2026-04-26T07:15:03Z</time></trkpt><trkpt lat="45.58577222850687" lon="10.739522078395872"><ele>227.0</ele><time>2026-04-26T07:15:04Z</time></trkpt><trkpt lat="45.585762889775935" lon="10.739420977278707"><ele>227.0</ele><time>2026-04-26T07:15:05Z</time></trkpt><trkpt lat="45.58575643063366" lon="10.739319740599997"><ele>227.0</ele><time>2026-04-26T07:15:06Z</time></trkpt><trkpt lat="45.5856656140624" lon="10.739200242330334"><ele>227.0</ele><time>2026-04-26T07:15:07Z</time></trkpt><trkpt lat="45.585630075230085" lon="10.73907474116295"><ele>227.0</ele><time>2026-04-26T07:15:08Z</time></trkpt><trkpt lat="45.585591939778034" lon="10.738956082852543"><ele>227.0</ele><time>2026-04-26T07:15:09Z</time></trkpt><trkpt lat="45.585546307030484" lon="10.738813672216176"><ele>227.0</ele><time>2026-04-26T07:15:10Z</time></trkpt><trkpt lat="45.58550503163505" lon="10.738668387478658"><ele>227.0</ele><time>2026-04-26T07:15:11Z</time></trkpt><trkpt lat="45.585468294966844" lon="10.738533272515213"><ele>227.0</ele><time>2026-04-26T07:15:12Z</time></trkpt><trkpt lat="45.58543663644401" lon="10.738405888461982"><ele>227.0</ele><time>2026-04-26T07:15:13Z</time></trkpt><trkpt lat="45.58540261289277" lon="10.738269932760012"><ele>226.5</ele><time>2026-04-26T07:15:14Z</time></trkpt><trkpt lat="45.58536837649304" lon="10.73813964408283"><ele>226.0</ele><time>2026-04-26T07:15:15Z</time></trkpt><trkpt lat="45.58532857556192" lon="10.737994954369885"><ele>225.5</ele><time>2026-04-26T07:15:16Z</time></trkpt><trkpt lat="45.5852860781682" lon="10.737835711674427"><ele>225.0</ele><time>2026-04-26T07:15:17Z</time></trkpt><trkpt lat="45.58525631919053" lon="10.737662959937476"><ele>222.0</ele><time>2026-04-26T07:15:18Z</time></trkpt><trkpt lat="45.585235770911574" lon="10.737512662444896"><ele>219.0</ele><time>2026-04-26T07:15:19Z</time></trkpt><trkpt lat="45.58522245864638" lon="10.737362835128323"><ele>216.0</ele><time>2026-04-26T07:15:20Z</time></trkpt><trkpt lat="45.58521413913371" lon="10.737207431945915"><ele>213.0</ele><time>2026-04-26T07:15:21Z</time></trkpt><trkpt lat="45.58521982876101" lon="10.737058760107356"><ele>210.0</ele><time>2026-04-26T07:15:22Z</time></trkpt><trkpt lat="45.58523180058736" lon="10.736905134869525"><ele>209.0</ele><time>2026-04-26T07:15:23Z</time></trkpt><trkpt lat="45.585255177044544" lon="10.736749977158183"><ele>208.0</ele><time>2026-04-26T07:15:24Z</time></trkpt><trkpt lat="45.5852858335954" lon="10.736610284649625"><ele>207.0</ele><time>2026-04-26T07:15:25Z</time></trkpt><trkpt lat="45.585319548112594" lon="10.73647503720801"><ele>206.0</ele><time>2026-04-26T07:15:26Z</time></trkpt><trkpt lat="45.58535968822176" lon="10.7363285236677"><ele>205.0</ele><time>2026-04-26T07:15:27Z</time></trkpt><trkpt lat="45.585412223028605" lon="10.736150420729063"><ele>207.0</ele><time>2026-04-26T07:15:28Z</time></trkpt><trkpt lat="45.58547170656586" lon="10.735963396905156"><ele>209.0</ele><time>2026-04-26T07:15:29Z</time></trkpt><trkpt lat="45.58552611352967" lon="10.735794345910854"><ele>211.0</ele><time>2026-04-26T07:15:30Z</time></trkpt><trkpt lat="45.585571295638296" lon="10.735638814580115"><ele>213.0</ele><time>2026-04-26T07:15:31Z</time></trkpt><trkpt lat="45.585603659166985" lon="10.735497623393476"><ele>213.0</ele><time>2026-04-26T07:15:32Z</time></trkpt><trkpt lat="45.585632219537345" lon="10.735357258708529"><ele>213.0</ele><time>2026-04-26T07:15:33Z</time></trkpt><trkpt lat="45.585656360675294" lon="10.735226464772543"><ele>213.0</ele><time>2026-04-26T07:15:34Z</time></trkpt><trkpt lat="45.58568104791464" lon="10.735076447615663"><ele>213.0</ele><time>2026-04-26T07:15:35Z</time></trkpt><trkpt lat="45.585701015780394" lon="10.734923706942633"><ele>213.0</ele><time>2026-04-26T07:15:36Z</time></trkpt><trkpt lat="45.58571612534589" lon="10.73474681674699"><ele>211.5</ele><time>2026-04-26T07:15:37Z</time></trkpt><trkpt lat="45.585726155834664" lon="10.734551588241068"><ele>210.0</ele><time>2026-04-26T07:15:38Z</time></trkpt><trkpt lat="45.58573737499088" lon="10.734356765384115"><ele>208.5</ele><time>2026-04-26T07:15:39Z</time></trkpt><trkpt lat="45.58574541881821" lon="10.734181168164902"><ele>207.0</ele><time>2026-04-26T07:15:40Z</time></trkpt><trkpt lat="45.58575072657547" lon="10.7340223431534"><ele>205.6</ele><time>2026-04-26T07:15:41Z</time></trkpt><trkpt lat="45.58575583303622" lon="10.733865694930978"><ele>204.2</ele><time>2026-04-26T07:15:42Z</time></trkpt><trkpt lat="45.5857612632033" lon="10.73371439866574"><ele>202.8</ele><time>2026-04-26T07:15:43Z</time></trkpt><trkpt lat="45.58575835632241" lon="10.733571878206634"><ele>201.4</ele><time>2026-04-26T07:15:44Z</time></trkpt><trkpt lat="45.58573726694135" lon="10.733425403542256"><ele>200.0</ele><time>2026-04-26T07:15:45Z</time></trkpt><trkpt lat="45.585681964944584" lon="10.733294338153701"><ele>199.75</ele><time>2026-04-26T07:15:46Z</time></trkpt><trkpt lat="45.58559712905879" lon="10.733183225213503"><ele>199.5</ele><time>2026-04-26T07:15:47Z</time></trkpt><trkpt lat="45.585486617346284" lon="10.733092865402933"><ele>199.25</ele><time>2026-04-26T07:15:48Z</time></trkpt><trkpt lat="45.585361945693634" lon="10.733003869437265"><ele>199.0</ele><time>2026-04-26T07:15:49Z</time></trkpt><trkpt lat="45.58525249911013" lon="10.732929383501808"><ele>195.5</ele><time>2026-04-26T07:15:50Z</time></trkpt><trkpt lat="45.58515840601556" lon="10.73282430559373"><ele>192.0</ele><time>2026-04-26T07:15:51Z</time></trkpt><trkpt lat="45.58507694720993" lon="10.732704644979743"><ele>188.5</ele><time>2026-04-26T07:15:52Z</time></trkpt><trkpt lat="45.58500745251545" lon="10.732567115930365"><ele>185.0</ele><time>2026-04-26T07:15:53Z</time></trkpt><trkpt lat="45.584959186617105" lon="10.73240898147054"><ele>185.0</ele><time>2026-04-26T07:15:54Z</time></trkpt><trkpt lat="45.58492777056662" lon="10.732237661489355"><ele>185.0</ele><time>2026-04-26T07:15:55Z</time></trkpt><trkpt lat="45.584914378278626" lon="10.732092689047638"><ele>185.0</ele><time>2026-04-26T07:15:56Z</time></trkpt><trkpt lat="45.58490418421335" lon="10.731967155401097"><ele>185.0</ele><time>2026-04-26T07:15:57Z</time></trkpt><trkpt lat="45.58488646272782" lon="10.73187230134666"><ele>185.0</ele><time>2026-04-26T07:15:58Z</time></trkpt><trkpt lat="45.58477911799976" lon="10.731804806233058"><ele>185.0</ele><time>2026-04-26T07:16:00Z</time></trkpt><trkpt lat="45.584682395148945" lon="10.73190289373159"><ele>185.0</ele><time>2026-04-26T07:16:02Z</time></trkpt><trkpt lat="45.58464298167067" lon="10.732039042568113"><ele>185.0</ele><time>2026-04-26T07:16:03Z</time></trkpt><trkpt lat="45.5846299702237" lon="10.732167333997904"><ele>185.0</ele><time>2026-04-26T07:16:04Z</time></trkpt><trkpt lat="45.584632071542615" lon="10.732310336981007"><ele>185.0</ele><time>2026-04-26T07:16:05Z</time></trkpt><trkpt lat="45.58462471933435" lon="10.732417679558706"><ele>185.0</ele><time>2026-04-26T07:16:06Z</time></trkpt><trkpt lat="45.584620776686755" lon="10.732575524219746"><ele>185.0</ele><time>2026-04-26T07:16:08Z</time></trkpt><trkpt lat="45.58460554985057" lon="10.732701260499663"><ele>185.0</ele><time>2026-04-26T07:16:10Z</time></trkpt><trkpt lat="45.5845075218494" lon="10.732719520854118"><ele>185.0</ele><time>2026-04-26T07:16:12Z</time></trkpt><trkpt lat="45.58447003611086" lon="10.732640970367243"><ele>185.0</ele><time>2026-04-26T07:16:13Z</time></trkpt><trkpt lat="45.58446603066047" lon="10.732514807383202"><ele>185.0</ele><time>2026-04-26T07:16:14Z</time></trkpt><trkpt lat="45.58448781309748" lon="10.732383291330311"><ele>185.0</ele><time>2026-04-26T07:16:15Z</time></trkpt><trkpt lat="45.58450524475935" lon="10.732228256877969"><ele>185.0</ele><time>2026-04-26T07:16:16Z</time></trkpt><trkpt lat="45.584511125571495" lon="10.7320612527555"><ele>185.0</ele><time>2026-04-26T07:16:17Z</time></trkpt><trkpt lat="45.58451536261522" lon="10.731880454454151"><ele>185.0</ele><time>2026-04-26T07:16:18Z</time></trkpt><trkpt lat="45.58451740859202" lon="10.731691325719387"><ele>178.0</ele><time>2026-04-26T07:16:19Z</time></trkpt><trkpt lat="45.58451262237073" lon="10.731510158724713"><ele>171.0</ele><time>2026-04-26T07:16:20Z</time></trkpt><trkpt lat="45.58449450225247" lon="10.731327594477737"><ele>164.0</ele><time>2026-04-26T07:16:21Z</time></trkpt><trkpt lat="45.584469534206846" lon="10.731154847578663"><ele>157.0</ele><time>2026-04-26T07:16:22Z</time></trkpt><trkpt lat="45.5844448279708" lon="10.730994506789786"><ele>157.0</ele><time>2026-04-26T07:16:23Z</time></trkpt><trkpt lat="45.58442082901612" lon="10.730846026735994"><ele>157.0</ele><time>2026-04-26T07:16:24Z</time></trkpt><trkpt lat="45.58440010620066" lon="10.730712007737145"><ele>157.0</ele><time>2026-04-26T07:16:25Z</time></trkpt><trkpt lat="45.58438677747782" lon="10.730582277313987"><ele>157.0</ele><time>2026-04-26T07:16:26Z</time></trkpt><trkpt lat="45.58437437162196" lon="10.730450076276323"><ele>157.0</ele><time>2026-04-26T07:16:27Z</time></trkpt><trkpt lat="45.58435852362382" lon="10.730318930693269"><ele>156.6</ele><time>2026-04-26T07:16:28Z</time></trkpt><trkpt lat="45.5843441209535" lon="10.73018907872045"><ele>156.2</ele><time>2026-04-26T07:16:29Z</time></trkpt><trkpt lat="45.58432952180061" lon="10.730067677858804"><ele>155.8</ele><time>2026-04-26T07:16:30Z</time></trkpt><trkpt lat="45.584321901558056" lon="10.729960795403516"><ele>155.4</ele><time>2026-04-26T07:16:31Z</time></trkpt><trkpt lat="45.5843055634569" lon="10.729832299848713"><ele>155.0</ele><time>2026-04-26T07:16:32Z</time></trkpt><trkpt lat="45.58427906984847" lon="10.729664362428437"><ele>155.0</ele><time>2026-04-26T07:16:33Z</time></trkpt><trkpt lat="45.58426184999806" lon="10.729505913823164"><ele>155.0</ele><time>2026-04-26T07:16:34Z</time></trkpt><trkpt lat="45.58423997156523" lon="10.729357534449774"><ele>155.0</ele><time>2026-04-26T07:16:35Z</time></trkpt><trkpt lat="45.58421636107662" lon="10.72921877904012"><ele>155.0</ele><time>2026-04-26T07:16:36Z</time></trkpt><trkpt lat="45.584194915930716" lon="10.729079860734181"><ele>155.0</ele><time>2026-04-26T07:16:37Z</time></trkpt><trkpt lat="45.584163873914726" lon="10.728951027988286"><ele>154.4</ele><time>2026-04-26T07:16:38Z</time></trkpt><trkpt lat="45.584122614746136" lon="10.728833793748331"><ele>153.8</ele><time>2026-04-26T07:16:39Z</time></trkpt><trkpt lat="45.5840649830544" lon="10.728714861304564"><ele>153.2</ele><time>2026-04-26T07:16:40Z</time></trkpt><trkpt lat="45.58398904881279" lon="10.728611978543011"><ele>152.6</ele><time>2026-04-26T07:16:41Z</time></trkpt><trkpt lat="45.583905430882524" lon="10.728510041998737"><ele>152.0</ele><time>2026-04-26T07:16:42Z</time></trkpt><trkpt lat="45.58382156875911" lon="10.728413089469145"><ele>151.4</ele><time>2026-04-26T07:16:43Z</time></trkpt><trkpt lat="45.58374639155881" lon="10.728319603394528"><ele>150.79999999999998</ele><time>2026-04-26T07:16:44Z</time></trkpt><trkpt lat="45.58368465530552" lon="10.728221085054363"><ele>150.2</ele><time>2026-04-26T07:16:45Z</time></trkpt><trkpt lat="45.58363390707945" lon="10.72809772882042"><ele>149.6</ele><time>2026-04-26T07:16:46Z</time></trkpt><trkpt lat="45.583610234521124" lon="10.727968276988209"><ele>149.0</ele><time>2026-04-26T07:16:47Z</time></trkpt><trkpt lat="45.5835910913893" lon="10.727810252195258"><ele>144.5</ele><time>2026-04-26T07:16:48Z</time></trkpt><trkpt lat="45.58357400986372" lon="10.7276316297883"><ele>140.0</ele><time>2026-04-26T07:16:49Z</time></trkpt><trkpt lat="45.58355187812806" lon="10.727440093565136"><ele>135.5</ele><time>2026-04-26T07:16:50Z</time></trkpt><trkpt lat="45.58352649268349" lon="10.72725570953305"><ele>131.0</ele><time>2026-04-26T07:16:51Z</time></trkpt><trkpt lat="45.58350512982088" lon="10.7270884819181"><ele>131.0</ele><time>2026-04-26T07:16:52Z</time></trkpt><trkpt lat="45.58348473027929" lon="10.726928458672852"><ele>131.0</ele><time>2026-04-26T07:16:53Z</time></trkpt><trkpt lat="45.58346496601483" lon="10.726776985528726"><ele>131.0</ele><time>2026-04-26T07:16:54Z</time></trkpt><trkpt lat="45.583447981434134" lon="10.726637629936834"><ele>131.0</ele><time>2026-04-26T07:16:55Z</time></trkpt><trkpt lat="45.583432142025785" lon="10.726504365381162"><ele>131.0</ele><time>2026-04-26T07:16:56Z</time></trkpt><trkpt lat="45.58341073027098" lon="10.726353651121283"><ele>130.66666666666666</ele><time>2026-04-26T07:16:57Z</time></trkpt><trkpt lat="45.58338359339436" lon="10.726213672109823"><ele>130.33333333333331</ele><time>2026-04-26T07:16:58Z</time></trkpt><trkpt lat="45.58336479312153" lon="10.726095431886575"><ele>130.0</ele><time>2026-04-26T07:16:59Z</time></trkpt><trkpt lat="45.583342103767826" lon="10.72599783095617"><ele>129.66666666666666</ele><time>2026-04-26T07:17:00Z</time></trkpt><trkpt lat="45.583309844272684" lon="10.72590386362214"><ele>129.33333333333334</ele><time>2026-04-26T07:17:01Z</time></trkpt><trkpt lat="45.5832616513377" lon="10.725807684857061"><ele>129.0</ele><time>2026-04-26T07:17:02Z</time></trkpt><trkpt lat="45.58320712953418" lon="10.725720298273282"><ele>128.8</ele><time>2026-04-26T07:17:03Z</time></trkpt><trkpt lat="45.58316492565297" lon="10.72565300725361"><ele>128.60000000000002</ele><time>2026-04-26T07:17:04Z</time></trkpt><trkpt lat="45.58311656069065" lon="10.725559703813706"><ele>128.4</ele><time>2026-04-26T07:17:06Z</time></trkpt><trkpt lat="45.58320112345864" lon="10.72547084778997"><ele>128.20000000000002</ele><time>2026-04-26T07:17:09Z</time></trkpt><trkpt lat="45.583323080358134" lon="10.725459541763666"><ele>128.0</ele><time>2026-04-26T07:17:11Z</time></trkpt><trkpt lat="45.58343665232516" lon="10.72542355342577"><ele>128.0</ele><time>2026-04-26T07:17:13Z</time></trkpt><trkpt lat="45.583529470423485" lon="10.725412822692158"><ele>128.0</ele><time>2026-04-26T07:17:15Z</time></trkpt><trkpt lat="45.583593252895966" lon="10.7251901375997"><ele>128.0</ele><time>2026-04-26T07:17:17Z</time></trkpt><trkpt lat="45.58362378007979" lon="10.72506209247944"><ele>128.0</ele><time>2026-04-26T07:17:18Z</time></trkpt><trkpt lat="45.583647822427515" lon="10.724951856320436"><ele>128.0</ele><time>2026-04-26T07:17:19Z</time></trkpt><trkpt lat="45.583675263755566" lon="10.724818993268192"><ele>128.33333333333331</ele><time>2026-04-26T07:17:20Z</time></trkpt><trkpt lat="45.58369620139938" lon="10.7247176568037"><ele>128.66666666666666</ele><time>2026-04-26T07:17:21Z</time></trkpt><trkpt lat="45.583715192993004" lon="10.724629644253906"><ele>129.0</ele><time>2026-04-26T07:17:22Z</time></trkpt><trkpt lat="45.58378316424933" lon="10.72447297098876"><ele>129.33333333333334</ele><time>2026-04-26T07:17:24Z</time></trkpt><trkpt lat="45.58382704172584" lon="10.724403645112414"><ele>129.66666666666669</ele><time>2026-04-26T07:17:25Z</time></trkpt><trkpt lat="45.5838848022399" lon="10.724318515914156"><ele>130.0</ele><time>2026-04-26T07:17:26Z</time></trkpt><trkpt lat="45.58395420376333" lon="10.724224851523742"><ele>130.2</ele><time>2026-04-26T07:17:27Z</time></trkpt><trkpt lat="45.5840226765891" lon="10.724129065817666"><ele>130.4</ele><time>2026-04-26T07:17:28Z</time></trkpt><trkpt lat="45.584095270750915" lon="10.724011439814982"><ele>130.6</ele><time>2026-04-26T07:17:29Z</time></trkpt><trkpt lat="45.58415842281617" lon="10.723916720907852"><ele>130.8</ele><time>2026-04-26T07:17:30Z</time></trkpt><trkpt lat="45.584252385264946" lon="10.723777543887703"><ele>131.0</ele><time>2026-04-26T07:17:32Z</time></trkpt><trkpt lat="45.58430945824875" lon="10.723711451232449"><ele>131.0</ele><time>2026-04-26T07:17:33Z</time></trkpt><trkpt lat="45.584378832257016" lon="10.723630217509182"><ele>131.0</ele><time>2026-04-26T07:17:34Z</time></trkpt><trkpt lat="45.58444058976595" lon="10.72357622014305"><ele>131.0</ele><time>2026-04-26T07:17:35Z</time></trkpt><trkpt lat="45.584511544211" lon="10.723555880642849"><ele>131.0</ele><time>2026-04-26T07:17:36Z</time></trkpt><trkpt lat="45.58457736856232" lon="10.72351364919416"><ele>131.0</ele><time>2026-04-26T07:17:37Z</time></trkpt><trkpt lat="45.58464349919537" lon="10.723535466897017"><ele>131.0</ele><time>2026-04-26T07:17:38Z</time></trkpt><trkpt lat="45.584699029602845" lon="10.723590314095679"><ele>131.0</ele><time>2026-04-26T07:17:39Z</time></trkpt><trkpt lat="45.584740032528" lon="10.723690745798017"><ele>134.0</ele><time>2026-04-26T07:17:40Z</time></trkpt><trkpt lat="45.58478345083914" lon="10.723798817145394"><ele>137.0</ele><time>2026-04-26T07:17:41Z</time></trkpt><trkpt lat="45.58482251259705" lon="10.723889103787437"><ele>140.0</ele><time>2026-04-26T07:17:42Z</time></trkpt><trkpt lat="45.58487550015296" lon="10.723946943230997"><ele>143.0</ele><time>2026-04-26T07:17:43Z</time></trkpt><trkpt lat="45.584934073657244" lon="10.724009411631425"><ele>146.0</ele><time>2026-04-26T07:17:44Z</time></trkpt><trkpt lat="45.58506077087118" lon="10.724071145096598"><ele>149.0</ele><time>2026-04-26T07:17:46Z</time></trkpt><trkpt lat="45.58514458787037" lon="10.724074547934242"><ele>149.0</ele><time>2026-04-26T07:17:47Z</time></trkpt><trkpt lat="45.58522651889858" lon="10.724050149563457"><ele>149.0</ele><time>2026-04-26T07:17:48Z</time></trkpt><trkpt lat="45.58529607237499" lon="10.724049870728763"><ele>149.0</ele><time>2026-04-26T07:17:49Z</time></trkpt><trkpt lat="45.58535656645384" lon="10.724084825730793"><ele>149.0</ele><time>2026-04-26T07:17:50Z</time></trkpt><trkpt lat="45.585490769617685" lon="10.724167893983788"><ele>149.0</ele><time>2026-04-26T07:17:52Z</time></trkpt><trkpt lat="45.58556248562002" lon="10.724227730910977"><ele>149.0</ele><time>2026-04-26T07:17:53Z</time></trkpt><trkpt lat="45.58564329406128" lon="10.724313428512888"><ele>150.2</ele><time>2026-04-26T07:17:55Z</time></trkpt><trkpt lat="45.585732883408554" lon="10.724374431518552"><ele>151.4</ele><time>2026-04-26T07:17:57Z</time></trkpt><trkpt lat="45.58583467369185" lon="10.724418428504912"><ele>152.6</ele><time>2026-04-26T07:17:59Z</time></trkpt><trkpt lat="45.5859138429983" lon="10.72442045968397"><ele>153.8</ele><time>2026-04-26T07:18:00Z</time></trkpt><trkpt lat="45.58599091918985" lon="10.724541766273058"><ele>155.0</ele><time>2026-04-26T07:18:02Z</time></trkpt><trkpt lat="45.58604949383548" lon="10.724601379839322"><ele>155.0</ele><time>2026-04-26T07:18:03Z</time></trkpt><trkpt lat="45.58611466711729" lon="10.72464980995983"><ele>155.0</ele><time>2026-04-26T07:18:04Z</time></trkpt><trkpt lat="45.58616801251479" lon="10.724701608359451"><ele>155.0</ele><time>2026-04-26T07:18:05Z</time></trkpt><trkpt lat="45.58623095759706" lon="10.724745726856202"><ele>155.0</ele><time>2026-04-26T07:18:06Z</time></trkpt><trkpt lat="45.586308397760234" lon="10.724789531046424"><ele>155.0</ele><time>2026-04-26T07:18:07Z</time></trkpt><trkpt lat="45.586381633890845" lon="10.724823124047173"><ele>155.0</ele><time>2026-04-26T07:18:08Z</time></trkpt><trkpt lat="45.58645122100749" lon="10.724844016813018"><ele>155.0</ele><time>2026-04-26T07:18:09Z</time></trkpt><trkpt lat="45.586541153867074" lon="10.724886428762622"><ele>160.0</ele><time>2026-04-26T07:18:11Z</time></trkpt><trkpt lat="45.58664364774166" lon="10.724939256950012"><ele>165.0</ele><time>2026-04-26T07:18:15Z</time></trkpt><trkpt lat="45.58672298327906" lon="10.72497332572177"><ele>170.0</ele><time>2026-04-26T07:18:17Z</time></trkpt><trkpt lat="45.58682182291118" lon="10.725019219686633"><ele>175.0</ele><time>2026-04-26T07:18:19Z</time></trkpt><trkpt lat="45.58692324114395" lon="10.725072961553755"><ele>180.0</ele><time>2026-04-26T07:18:21Z</time></trkpt><trkpt lat="45.58702090977162" lon="10.725112596545095"><ele>186.0</ele><time>2026-04-26T07:18:23Z</time></trkpt><trkpt lat="45.5870925928095" lon="10.724950246072094"><ele>192.0</ele><time>2026-04-26T07:18:26Z</time></trkpt><trkpt lat="45.58712049287963" lon="10.724765810511695"><ele>198.0</ele><time>2026-04-26T07:18:28Z</time></trkpt><trkpt lat="45.587133445922774" lon="10.724673495452775"><ele>204.0</ele><time>2026-04-26T07:18:29Z</time></trkpt><trkpt lat="45.587151933791496" lon="10.724499303758266"><ele>203.5</ele><time>2026-04-26T07:18:31Z</time></trkpt><trkpt lat="45.58716056704539" lon="10.72439466139711"><ele>203.0</ele><time>2026-04-26T07:18:32Z</time></trkpt><trkpt lat="45.58717773394032" lon="10.724270605913382"><ele>202.5</ele><time>2026-04-26T07:18:33Z</time></trkpt><trkpt lat="45.587201900816915" lon="10.724087949779348"><ele>202.0</ele><time>2026-04-26T07:18:35Z</time></trkpt><trkpt lat="45.587210361942645" lon="10.723988023355203"><ele>201.5</ele><time>2026-04-26T07:18:36Z</time></trkpt><trkpt lat="45.58721466788187" lon="10.723876407417173"><ele>201.0</ele><time>2026-04-26T07:18:37Z</time></trkpt><trkpt lat="45.58722356491806" lon="10.723778836884108"><ele>201.0</ele><time>2026-04-26T07:18:38Z</time></trkpt><trkpt lat="45.58723016234811" lon="10.723678696559066"><ele>201.0</ele><time>2026-04-26T07:18:39Z</time></trkpt><trkpt lat="45.58723447685447" lon="10.723556833519082"><ele>201.0</ele><time>2026-04-26T07:18:40Z</time></trkpt><trkpt lat="45.5872377623092" lon="10.723429376175318"><ele>201.0</ele><time>2026-04-26T07:18:41Z</time></trkpt><trkpt lat="45.58724417545384" lon="10.723334593216638"><ele>201.0</ele><time>2026-04-26T07:18:42Z</time></trkpt><trkpt lat="45.58723843178271" lon="10.723244902957463"><ele>201.0</ele><time>2026-04-26T07:18:43Z</time></trkpt><trkpt lat="45.587220153458894" lon="10.723049516963139"><ele>200.83333333333334</ele><time>2026-04-26T07:18:45Z</time></trkpt><trkpt lat="45.58721140771582" lon="10.722928284547322"><ele>200.66666666666669</ele><time>2026-04-26T07:18:46Z</time></trkpt><trkpt lat="45.587204416013726" lon="10.72279539657962"><ele>200.5</ele><time>2026-04-26T07:18:48Z</time></trkpt><trkpt lat="45.587198868541776" lon="10.72264707735957"><ele>200.33333333333334</ele><time>2026-04-26T07:18:50Z</time></trkpt><trkpt lat="45.58718520045933" lon="10.722556772525493"><ele>200.16666666666669</ele><time>2026-04-26T07:18:51Z</time></trkpt><trkpt lat="45.58716310060601" lon="10.722430666369597"><ele>200.0</ele><time>2026-04-26T07:18:53Z</time></trkpt><trkpt lat="45.587129319302925" lon="10.722335036745067"><ele>200.00000000000003</ele><time>2026-04-26T07:18:56Z</time></trkpt><trkpt lat="45.587078106325556" lon="10.72225061905157"><ele>200.0</ele><time>2026-04-26T07:19:00Z</time></trkpt><trkpt lat="45.586992495735075" lon="10.7222207558847"><ele>200.0</ele><time>2026-04-26T07:19:03Z</time></trkpt><trkpt lat="45.58690551270704" lon="10.722239388045015"><ele>200.0</ele><time>2026-04-26T07:19:06Z</time></trkpt><trkpt lat="45.58683402856262" lon="10.722249341303502"><ele>200.00000000000003</ele><time>2026-04-26T07:19:09Z</time></trkpt><trkpt lat="45.58673230557646" lon="10.722271786239833"><ele>200.0</ele><time>2026-04-26T07:19:12Z</time></trkpt><trkpt lat="45.58665549159484" lon="10.722252581997838"><ele>196.50000000000003</ele><time>2026-04-26T07:19:14Z</time></trkpt><trkpt lat="45.58657805879092" lon="10.722252348899875"><ele>193.0</ele><time>2026-04-26T07:19:16Z</time></trkpt><trkpt lat="45.58654287814192" lon="10.722129327605689"><ele>189.5</ele><time>2026-04-26T07:19:18Z</time></trkpt><trkpt lat="45.586519748784646" lon="10.722019985746744"><ele>186.0</ele><time>2026-04-26T07:19:19Z</time></trkpt><trkpt lat="45.58649125028148" lon="10.721905969307882"><ele>182.5</ele><time>2026-04-26T07:19:20Z</time></trkpt><trkpt lat="45.58646529093713" lon="10.721799337067269"><ele>179.0</ele><time>2026-04-26T07:19:21Z</time></trkpt><trkpt lat="45.58644639933872" lon="10.721647441486667"><ele>179.0</ele><time>2026-04-26T07:19:22Z</time></trkpt><trkpt lat="45.586434984035066" lon="10.72148807673735"><ele>179.0</ele><time>2026-04-26T07:19:23Z</time></trkpt><trkpt lat="45.586434234079235" lon="10.72133505681993"><ele>179.0</ele><time>2026-04-26T07:19:24Z</time></trkpt><trkpt lat="45.586422435280305" lon="10.721212426226531"><ele>179.0</ele><time>2026-04-26T07:19:25Z</time></trkpt><trkpt lat="45.586428397370135" lon="10.721108066917678"><ele>179.0</ele><time>2026-04-26T07:19:26Z</time></trkpt><trkpt lat="45.58640675155204" lon="10.720968922333409"><ele>179.5</ele><time>2026-04-26T07:19:28Z</time></trkpt><trkpt lat="45.586415322421615" lon="10.720820137751902"><ele>180.0</ele><time>2026-04-26T07:19:30Z</time></trkpt><trkpt lat="45.58641175506832" lon="10.720715222790306"><ele>180.5</ele><time>2026-04-26T07:19:31Z</time></trkpt><trkpt lat="45.58640895983185" lon="10.720624804267977"><ele>181.0</ele><time>2026-04-26T07:19:32Z</time></trkpt><trkpt lat="45.586389325471224" lon="10.720496619229593"><ele>181.5</ele><time>2026-04-26T07:19:33Z</time></trkpt><trkpt lat="45.58638733966439" lon="10.720378465160453"><ele>182.0</ele><time>2026-04-26T07:19:34Z</time></trkpt><trkpt lat="45.58638196568241" lon="10.720233508568258"><ele>182.33333333333331</ele><time>2026-04-26T07:19:35Z</time></trkpt><trkpt lat="45.586383273338214" lon="10.720106100083475"><ele>182.66666666666666</ele><time>2026-04-26T07:19:36Z</time></trkpt><trkpt lat="45.58637696273834" lon="10.71999152654046"><ele>183.0</ele><time>2026-04-26T07:19:37Z</time></trkpt><trkpt lat="45.58636998223" lon="10.719873553331789"><ele>183.33333333333334</ele><time>2026-04-26T07:19:38Z</time></trkpt><trkpt lat="45.58636709916254" lon="10.719755987569602"><ele>183.66666666666669</ele><time>2026-04-26T07:19:39Z</time></trkpt><trkpt lat="45.586362746237725" lon="10.719655933136789"><ele>184.0</ele><time>2026-04-26T07:19:40Z</time></trkpt><trkpt lat="45.58635914687523" lon="10.719547151913213"><ele>184.5</ele><time>2026-04-26T07:19:41Z</time></trkpt><trkpt lat="45.58635936955101" lon="10.719396948834854"><ele>185.0</ele><time>2026-04-26T07:19:43Z</time></trkpt><trkpt lat="45.5863402981104" lon="10.719290182305542"><ele>185.5</ele><time>2026-04-26T07:19:45Z</time></trkpt><trkpt lat="45.5862605498058" lon="10.719123689622272"><ele>186.0</ele><time>2026-04-26T07:19:47Z</time></trkpt><trkpt lat="45.58615552079893" lon="10.719238310640513"><ele>183.83333333333334</ele><time>2026-04-26T07:19:48Z</time></trkpt><trkpt lat="45.58605921994044" lon="10.719250693268787"><ele>181.66666666666666</ele><time>2026-04-26T07:19:49Z</time></trkpt><trkpt lat="45.58596293055426" lon="10.719262288556251"><ele>179.5</ele><time>2026-04-26T07:19:50Z</time></trkpt><trkpt lat="45.58588292841435" lon="10.719268591292142"><ele>177.33333333333331</ele><time>2026-04-26T07:19:51Z</time></trkpt><trkpt lat="45.58581205828319" lon="10.719261712414216"><ele>175.16666666666666</ele><time>2026-04-26T07:19:52Z</time></trkpt><trkpt lat="45.585729136343936" lon="10.719239802398711"><ele>173.0</ele><time>2026-04-26T07:19:53Z</time></trkpt><trkpt lat="45.585649913741165" lon="10.71919324960599"><ele>173.0</ele><time>2026-04-26T07:19:54Z</time></trkpt><trkpt lat="45.58558306778942" lon="10.719135215908036"><ele>173.0</ele><time>2026-04-26T07:19:55Z</time></trkpt><trkpt lat="45.58553204270938" lon="10.71906997113381"><ele>173.0</ele><time>2026-04-26T07:19:56Z</time></trkpt><trkpt lat="45.585496673575214" lon="10.718978915683598"><ele>173.0</ele><time>2026-04-26T07:19:57Z</time></trkpt><trkpt lat="45.58550334852188" lon="10.718876083343815"><ele>173.0</ele><time>2026-04-26T07:19:58Z</time></trkpt><trkpt lat="45.58546390059449" lon="10.71878813500287"><ele>173.0</ele><time>2026-04-26T07:19:59Z</time></trkpt><trkpt lat="45.58539840973837" lon="10.718738350933227"><ele>173.0</ele><time>2026-04-26T07:20:00Z</time></trkpt><trkpt lat="45.58532213233121" lon="10.71868422772224"><ele>170.16666666666666</ele><time>2026-04-26T07:20:01Z</time></trkpt><trkpt lat="45.58524557766342" lon="10.718688080939526"><ele>167.33333333333331</ele><time>2026-04-26T07:20:02Z</time></trkpt><trkpt lat="45.58518199979459" lon="10.718727054409051"><ele>164.5</ele><time>2026-04-26T07:20:03Z</time></trkpt><trkpt lat="45.58511116559853" lon="10.718764256376154"><ele>161.66666666666666</ele><time>2026-04-26T07:20:04Z</time></trkpt><trkpt lat="45.5850264166075" lon="10.718774053047184"><ele>158.83333333333334</ele><time>2026-04-26T07:20:05Z</time></trkpt><trkpt lat="45.584958634456015" lon="10.718803529238478"><ele>156.0</ele><time>2026-04-26T07:20:06Z</time></trkpt><trkpt lat="45.584891217883474" lon="10.718747089867156"><ele>156.0</ele><time>2026-04-26T07:20:07Z</time></trkpt><trkpt lat="45.584809432130115" lon="10.718686504828614"><ele>156.0</ele><time>2026-04-26T07:20:08Z</time></trkpt><trkpt lat="45.58472102678601" lon="10.718621743021101"><ele>156.0</ele><time>2026-04-26T07:20:09Z</time></trkpt><trkpt lat="45.58465347169218" lon="10.718527621639263"><ele>156.0</ele><time>2026-04-26T07:20:10Z</time></trkpt><trkpt lat="45.58460000616482" lon="10.718421495710443"><ele>156.0</ele><time>2026-04-26T07:20:11Z</time></trkpt><trkpt lat="45.584572956647634" lon="10.718301268158779"><ele>152.4</ele><time>2026-04-26T07:20:12Z</time></trkpt><trkpt lat="45.58450650305857" lon="10.718188087077204"><ele>148.8</ele><time>2026-04-26T07:20:13Z</time></trkpt><trkpt lat="45.58444609138382" lon="10.71804647587645"><ele>145.20000000000002</ele><time>2026-04-26T07:20:14Z</time></trkpt><trkpt lat="45.58437602612594" lon="10.717906417301467"><ele>141.6</ele><time>2026-04-26T07:20:15Z</time></trkpt><trkpt lat="45.58432674701557" lon="10.717794613009644"><ele>138.0</ele><time>2026-04-26T07:20:16Z</time></trkpt><trkpt lat="45.58427574969781" lon="10.717684146517222"><ele>138.0</ele><time>2026-04-26T07:20:17Z</time></trkpt><trkpt lat="45.584230101033434" lon="10.717575149699694"><ele>138.0</ele><time>2026-04-26T07:20:18Z</time></trkpt><trkpt lat="45.584179680618945" lon="10.71746260645124"><ele>138.0</ele><time>2026-04-26T07:20:19Z</time></trkpt><trkpt lat="45.584133200050104" lon="10.717361354458829"><ele>138.0</ele><time>2026-04-26T07:20:20Z</time></trkpt><trkpt lat="45.584089842253235" lon="10.717262360072494"><ele>138.0</ele><time>2026-04-26T07:20:21Z</time></trkpt><trkpt lat="45.584047103585306" lon="10.717157179291451"><ele>138.0</ele><time>2026-04-26T07:20:22Z</time></trkpt><trkpt lat="45.584013981374824" lon="10.71704494082932"><ele>138.0</ele><time>2026-04-26T07:20:23Z</time></trkpt><trkpt lat="45.583981296542284" lon="10.716925075912734"><ele>138.0</ele><time>2026-04-26T07:20:24Z</time></trkpt><trkpt lat="45.58394020953091" lon="10.716823643738909"><ele>138.0</ele><time>2026-04-26T07:20:25Z</time></trkpt><trkpt lat="45.583898944884254" lon="10.716728115358508"><ele>138.0</ele><time>2026-04-26T07:20:26Z</time></trkpt><trkpt lat="45.58384942505945" lon="10.716638343910397"><ele>138.0</ele><time>2026-04-26T07:20:27Z</time></trkpt><trkpt lat="45.583799107537" lon="10.716577164605322"><ele>138.0</ele><time>2026-04-26T07:20:28Z</time></trkpt><trkpt lat="45.58373347858408" lon="10.716543042723583"><ele>133.4</ele><time>2026-04-26T07:20:29Z</time></trkpt><trkpt lat="45.58365748522569" lon="10.716536602548521"><ele>128.8</ele><time>2026-04-26T07:20:30Z</time></trkpt><trkpt lat="45.583553846922776" lon="10.71655130133885"><ele>124.2</ele><time>2026-04-26T07:20:31Z</time></trkpt><trkpt lat="45.58344355907878" lon="10.716574972380146"><ele>119.6</ele><time>2026-04-26T07:20:32Z</time></trkpt><trkpt lat="45.5833356507797" lon="10.716602491872912"><ele>115.0</ele><time>2026-04-26T07:20:33Z</time></trkpt><trkpt lat="45.58322947963337" lon="10.71661562219864"><ele>115.0</ele><time>2026-04-26T07:20:34Z</time></trkpt><trkpt lat="45.5831224019017" lon="10.716624237022357"><ele>115.0</ele><time>2026-04-26T07:20:35Z</time></trkpt><trkpt lat="45.58301721331336" lon="10.716635163487815"><ele>115.0</ele><time>2026-04-26T07:20:36Z</time></trkpt><trkpt lat="45.582896893990714" lon="10.71661346093995"><ele>115.0</ele><time>2026-04-26T07:20:37Z</time></trkpt><trkpt lat="45.582761512618525" lon="10.716628828267586"><ele>113.2</ele><time>2026-04-26T07:20:38Z</time></trkpt><trkpt lat="45.58263764842317" lon="10.716602905709424"><ele>111.4</ele><time>2026-04-26T07:20:39Z</time></trkpt><trkpt lat="45.58252520015289" lon="10.716611551479078"><ele>109.6</ele><time>2026-04-26T07:20:40Z</time></trkpt><trkpt lat="45.58242795049789" lon="10.71659433326889"><ele>107.8</ele><time>2026-04-26T07:20:41Z</time></trkpt><trkpt lat="45.58234099258947" lon="10.716572876188511"><ele>106.0</ele><time>2026-04-26T07:20:42Z</time></trkpt><trkpt lat="45.58225771218772" lon="10.716548432949315"><ele>106.00000000000001</ele><time>2026-04-26T07:20:43Z</time></trkpt><trkpt lat="45.58219454986395" lon="10.716530551174658"><ele>106.0</ele><time>2026-04-26T07:20:44Z</time></trkpt><trkpt lat="45.58209259218081" lon="10.71651328928428"><ele>106.0</ele><time>2026-04-26T07:20:46Z</time></trkpt><trkpt lat="45.5820374965773" lon="10.716465768038622"><ele>106.0</ele><time>2026-04-26T07:20:49Z</time></trkpt><trkpt lat="45.58208722058034" lon="10.716344469793007"><ele>106.00000000000001</ele><time>2026-04-26T07:20:51Z</time></trkpt><trkpt lat="45.582155360463744" lon="10.716258491748894"><ele>106.0</ele><time>2026-04-26T07:20:53Z</time></trkpt><trkpt lat="45.58224538353088" lon="10.716142981800495"><ele>106.50000000000001</ele><time>2026-04-26T07:20:55Z</time></trkpt><trkpt lat="45.582262202708655" lon="10.71598411422793"><ele>107.0</ele><time>2026-04-26T07:20:57Z</time></trkpt><trkpt lat="45.58224362341098" lon="10.715881878872885"><ele>107.5</ele><time>2026-04-26T07:20:58Z</time></trkpt><trkpt lat="45.58222542708084" lon="10.715774042133082"><ele>108.0</ele><time>2026-04-26T07:20:59Z</time></trkpt><trkpt lat="45.582212064294374" lon="10.715656806064095"><ele>108.50000000000001</ele><time>2026-04-26T07:21:00Z</time></trkpt><trkpt lat="45.582198762938056" lon="10.715528397894714"><ele>109.0</ele><time>2026-04-26T07:21:01Z</time></trkpt><trkpt lat="45.582191095351874" lon="10.715422416992974"><ele>109.00000000000001</ele><time>2026-04-26T07:21:02Z</time></trkpt><trkpt lat="45.58218534219548" lon="10.71533270757569"><ele>109.0</ele><time>2026-04-26T07:21:03Z</time></trkpt><trkpt lat="45.582178680737826" lon="10.715186542436319"><ele>109.0</ele><time>2026-04-26T07:21:05Z</time></trkpt><trkpt lat="45.58220973592137" lon="10.715096453797633"><ele>109.0</ele><time>2026-04-26T07:21:06Z</time></trkpt><trkpt lat="45.58228759727552" lon="10.71505311840984"><ele>109.00000000000001</ele><time>2026-04-26T07:21:07Z</time></trkpt><trkpt lat="45.582355384564345" lon="10.714955845076286"><ele>109.0</ele><time>2026-04-26T07:21:08Z</time></trkpt><trkpt lat="45.58242366215164" lon="10.714847726568468"><ele>109.6</ele><time>2026-04-26T07:21:09Z</time></trkpt><trkpt lat="45.58249748609582" lon="10.714803181807651"><ele>110.2</ele><time>2026-04-26T07:21:10Z</time></trkpt><trkpt lat="45.582579656890154" lon="10.714752155502028"><ele>110.79999999999998</ele><time>2026-04-26T07:21:12Z</time></trkpt><trkpt lat="45.58258424628316" lon="10.714512966903785"><ele>111.39999999999999</ele><time>2026-04-26T07:21:16Z</time></trkpt><trkpt lat="45.58255727199908" lon="10.714392200035535"><ele>112.0</ele><time>2026-04-26T07:21:17Z</time></trkpt><trkpt lat="45.58251712903608" lon="10.714281263524823"><ele>112.0</ele><time>2026-04-26T07:21:18Z</time></trkpt><trkpt lat="45.58248613315132" lon="10.714136081099568"><ele>111.99999999999999</ele><time>2026-04-26T07:21:19Z</time></trkpt><trkpt lat="45.582470980191495" lon="10.713976231563477"><ele>111.99999999999999</ele><time>2026-04-26T07:21:20Z</time></trkpt><trkpt lat="45.58243008660377" lon="10.713858258323928"><ele>112.0</ele><time>2026-04-26T07:21:21Z</time></trkpt><trkpt lat="45.5824050842976" lon="10.71375002007434"><ele>112.0</ele><time>2026-04-26T07:21:22Z</time></trkpt><trkpt lat="45.58238205722354" lon="10.71365396663177"><ele>112.66666666666667</ele><time>2026-04-26T07:21:23Z</time></trkpt><trkpt lat="45.58234269836182" lon="10.713558512376492"><ele>113.33333333333334</ele><time>2026-04-26T07:21:24Z</time></trkpt><trkpt lat="45.58231258663739" lon="10.713460130359778"><ele>114.0</ele><time>2026-04-26T07:21:25Z</time></trkpt><trkpt lat="45.58228307214555" lon="10.71336742526473"><ele>114.66666666666666</ele><time>2026-04-26T07:21:26Z</time></trkpt><trkpt lat="45.58222461941032" lon="10.713224741453217"><ele>115.33333333333333</ele><time>2026-04-26T07:21:28Z</time></trkpt><trkpt lat="45.58217473780493" lon="10.7130973133125"><ele>116.0</ele><time>2026-04-26T07:21:30Z</time></trkpt><trkpt lat="45.5821610958759" lon="10.712994800437501"><ele>115.99999999999999</ele><time>2026-04-26T07:21:31Z</time></trkpt><trkpt lat="45.58211642940907" lon="10.712875516988253"><ele>116.0</ele><time>2026-04-26T07:21:32Z</time></trkpt><trkpt lat="45.58209761141" lon="10.712751122521386"><ele>116.0</ele><time>2026-04-26T07:21:33Z</time></trkpt><trkpt lat="45.582079402443384" lon="10.712659076997753"><ele>116.0</ele><time>2026-04-26T07:21:34Z</time></trkpt><trkpt lat="45.58202873215429" lon="10.712512134504147"><ele>115.99999999999999</ele><time>2026-04-26T07:21:36Z</time></trkpt><trkpt lat="45.582006088055955" lon="10.712417545723477"><ele>116.0</ele><time>2026-04-26T07:21:37Z</time></trkpt><trkpt lat="45.58196129231105" lon="10.712281578885028"><ele>116.0</ele><time>2026-04-26T07:21:39Z</time></trkpt><trkpt lat="45.58190755806068" lon="10.712124662751645"><ele>116.0</ele><time>2026-04-26T07:21:41Z</time></trkpt><trkpt lat="45.58186866722305" lon="10.71201109272709"><ele>116.0</ele><time>2026-04-26T07:21:43Z</time></trkpt><trkpt lat="45.58186459905643" lon="10.711859293786462"><ele>116.0</ele><time>2026-04-26T07:21:45Z</time></trkpt><trkpt lat="45.581806091878654" lon="10.711765734068086"><ele>116.0</ele><time>2026-04-26T07:21:47Z</time></trkpt><trkpt lat="45.581782835291484" lon="10.7116106114015"><ele>115.99999999999999</ele><time>2026-04-26T07:21:49Z</time></trkpt><trkpt lat="45.58178205266058" lon="10.711515824861891"><ele>116.0</ele><time>2026-04-26T07:21:50Z</time></trkpt><trkpt lat="45.581763381451616" lon="10.711361442500294"><ele>116.0</ele><time>2026-04-26T07:21:52Z</time></trkpt><trkpt lat="45.58176436616084" lon="10.711261260815323"><ele>116.0</ele><time>2026-04-26T07:21:53Z</time></trkpt><trkpt lat="45.58174930792832" lon="10.711126489602059"><ele>115.99999999999999</ele><time>2026-04-26T07:21:55Z</time></trkpt><trkpt lat="45.58173863781992" lon="10.711036021735998"><ele>116.0</ele><time>2026-04-26T07:21:56Z</time></trkpt><trkpt lat="45.58172575050679" lon="10.710932509161355"><ele>116.49999999999999</ele><time>2026-04-26T07:21:57Z</time></trkpt><trkpt lat="45.581715571473325" lon="10.710770289675692"><ele>117.0</ele><time>2026-04-26T07:21:59Z</time></trkpt><trkpt lat="45.58171267049095" lon="10.710666063069436"><ele>117.5</ele><time>2026-04-26T07:22:01Z</time></trkpt><trkpt lat="45.581706886008824" lon="10.710524056348307"><ele>118.0</ele><time>2026-04-26T07:22:03Z</time></trkpt><trkpt lat="45.58170514331837" lon="10.710418085403925"><ele>118.49999999999999</ele><time>2026-04-26T07:22:07Z</time></trkpt><trkpt lat="45.58174020871761" lon="10.710320130294603"><ele>119.0</ele><time>2026-04-26T07:22:11Z</time></trkpt><trkpt lat="45.58188547135057" lon="10.71035926828878"><ele>119.0</ele><time>2026-04-26T07:22:13Z</time></trkpt><trkpt lat="45.58196776963029" lon="10.71040288634517"><ele>119.0</ele><time>2026-04-26T07:22:14Z</time></trkpt><trkpt lat="45.58204094098384" lon="10.710426685081657"><ele>119.0</ele><time>2026-04-26T07:22:15Z</time></trkpt><trkpt lat="45.582126151791115" lon="10.710439456934854"><ele>119.0</ele><time>2026-04-26T07:22:16Z</time></trkpt><trkpt lat="45.58221642074081" lon="10.710443476136986"><ele>119.0</ele><time>2026-04-26T07:22:17Z</time></trkpt><trkpt lat="45.582327892047296" lon="10.710454279199348"><ele>121.5</ele><time>2026-04-26T07:22:18Z</time></trkpt><trkpt lat="45.58245311102471" lon="10.710464874492429"><ele>124.0</ele><time>2026-04-26T07:22:19Z</time></trkpt><trkpt lat="45.58259349888623" lon="10.710477159785814"><ele>126.5</ele><time>2026-04-26T07:22:20Z</time></trkpt><trkpt lat="45.582748332461925" lon="10.710468983553195"><ele>129.0</ele><time>2026-04-26T07:22:21Z</time></trkpt><trkpt lat="45.58292892850037" lon="10.710452049370435"><ele>132.66666666666666</ele><time>2026-04-26T07:22:22Z</time></trkpt><trkpt lat="45.58314335275007" lon="10.710411218507161"><ele>136.33333333333331</ele><time>2026-04-26T07:22:23Z</time></trkpt><trkpt lat="45.58333270093437" lon="10.71035795504149"><ele>140.0</ele><time>2026-04-26T07:22:24Z</time></trkpt><trkpt lat="45.58347549126635" lon="10.710320897273887"><ele>140.0</ele><time>2026-04-26T07:22:25Z</time></trkpt><trkpt lat="45.58360649129515" lon="10.710308633103493"><ele>140.0</ele><time>2026-04-26T07:22:26Z</time></trkpt><trkpt lat="45.5837272167146" lon="10.710310946843554"><ele>140.0</ele><time>2026-04-26T07:22:27Z</time></trkpt><trkpt lat="45.58386132149235" lon="10.710313289590427"><ele>140.0</ele><time>2026-04-26T07:22:28Z</time></trkpt><trkpt lat="45.58399304119834" lon="10.710329930549928"><ele>142.0</ele><time>2026-04-26T07:22:29Z</time></trkpt><trkpt lat="45.58410691452309" lon="10.710364444536232"><ele>144.0</ele><time>2026-04-26T07:22:30Z</time></trkpt><trkpt lat="45.584204912653654" lon="10.710401665060823"><ele>146.0</ele><time>2026-04-26T07:22:31Z</time></trkpt><trkpt lat="45.58430677504092" lon="10.710445837177405"><ele>148.0</ele><time>2026-04-26T07:22:32Z</time></trkpt><trkpt lat="45.58442063607323" lon="10.710484076823292"><ele>150.0</ele><time>2026-04-26T07:22:33Z</time></trkpt><trkpt lat="45.58453122632881" lon="10.710519468353827"><ele>153.5</ele><time>2026-04-26T07:22:34Z</time></trkpt><trkpt lat="45.58464575779306" lon="10.710555541094072"><ele>157.0</ele><time>2026-04-26T07:22:35Z</time></trkpt><trkpt lat="45.584753393979966" lon="10.710594690550087"><ele>160.5</ele><time>2026-04-26T07:22:36Z</time></trkpt><trkpt lat="45.58486155737825" lon="10.710615748643178"><ele>164.0</ele><time>2026-04-26T07:22:37Z</time></trkpt><trkpt lat="45.584977093106225" lon="10.710625954593304"><ele>164.0</ele><time>2026-04-26T07:22:38Z</time></trkpt><trkpt lat="45.58511221045994" lon="10.71062885009271"><ele>164.0</ele><time>2026-04-26T07:22:39Z</time></trkpt><trkpt lat="45.585258956182216" lon="10.710629294300688"><ele>164.0</ele><time>2026-04-26T07:22:40Z</time></trkpt><trkpt lat="45.58537436502844" lon="10.710610772445325"><ele>164.0</ele><time>2026-04-26T07:22:41Z</time></trkpt><trkpt lat="45.58547964770104" lon="10.710574538286965"><ele>168.5</ele><time>2026-04-26T07:22:42Z</time></trkpt><trkpt lat="45.585585862903734" lon="10.710519558522108"><ele>173.0</ele><time>2026-04-26T07:22:43Z</time></trkpt><trkpt lat="45.5856979437244" lon="10.710451959712858"><ele>177.5</ele><time>2026-04-26T07:22:44Z</time></trkpt><trkpt lat="45.58581379808711" lon="10.710395063833207"><ele>182.0</ele><time>2026-04-26T07:22:45Z</time></trkpt><trkpt lat="45.58592433909629" lon="10.710387657109894"><ele>182.0</ele><time>2026-04-26T07:22:46Z</time></trkpt><trkpt lat="45.586023106579574" lon="10.710376877808208"><ele>182.0</ele><time>2026-04-26T07:22:47Z</time></trkpt><trkpt lat="45.5861283429181" lon="10.710375541000696"><ele>182.0</ele><time>2026-04-26T07:22:48Z</time></trkpt><trkpt lat="45.586246537350085" lon="10.710388736435775"><ele>182.0</ele><time>2026-04-26T07:22:49Z</time></trkpt><trkpt lat="45.5863689943417" lon="10.710415297265671"><ele>182.0</ele><time>2026-04-26T07:22:50Z</time></trkpt><trkpt lat="45.58648855188472" lon="10.71041396698594"><ele>187.25</ele><time>2026-04-26T07:22:51Z</time></trkpt><trkpt lat="45.58660136048606" lon="10.71041250434681"><ele>192.5</ele><time>2026-04-26T07:22:52Z</time></trkpt><trkpt lat="45.586714817879184" lon="10.710381442016844"><ele>197.75</ele><time>2026-04-26T07:22:53Z</time></trkpt><trkpt lat="45.58684702594316" lon="10.71032156365073"><ele>203.0</ele><time>2026-04-26T07:22:54Z</time></trkpt><trkpt lat="45.58697116799144" lon="10.710262379591567"><ele>203.4</ele><time>2026-04-26T07:22:55Z</time></trkpt><trkpt lat="45.58706216110425" lon="10.710215196801796"><ele>203.8</ele><time>2026-04-26T07:22:56Z</time></trkpt><trkpt lat="45.58713767361597" lon="10.710163151329674"><ele>204.2</ele><time>2026-04-26T07:22:57Z</time></trkpt><trkpt lat="45.58723718151999" lon="10.710186714525692"><ele>204.6</ele><time>2026-04-26T07:22:59Z</time></trkpt><trkpt lat="45.587241659352784" lon="10.71034059808902"><ele>205.0</ele><time>2026-04-26T07:23:01Z</time></trkpt><trkpt lat="45.587192355579326" lon="10.710421488566734"><ele>204.6</ele><time>2026-04-26T07:23:02Z</time></trkpt><trkpt lat="45.58711317087748" lon="10.710485413393606"><ele>204.2</ele><time>2026-04-26T07:23:03Z</time></trkpt><trkpt lat="45.58707056371495" lon="10.710569647198763"><ele>203.8</ele><time>2026-04-26T07:23:04Z</time></trkpt><trkpt lat="45.58700086272596" lon="10.710668852532189"><ele>203.4</ele><time>2026-04-26T07:23:06Z</time></trkpt><trkpt lat="45.587043636486385" lon="10.710749692736746"><ele>203.0</ele><time>2026-04-26T07:23:07Z</time></trkpt><trkpt lat="45.587155135219135" lon="10.710808597520455"><ele>206.4</ele><time>2026-04-26T07:23:09Z</time></trkpt><trkpt lat="45.58722774518254" lon="10.71077024724866"><ele>209.8</ele><time>2026-04-26T07:23:10Z</time></trkpt><trkpt lat="45.58730611335333" lon="10.71071386386037"><ele>213.2</ele><time>2026-04-26T07:23:11Z</time></trkpt><trkpt lat="45.58738549420603" lon="10.710627325140623"><ele>216.6</ele><time>2026-04-26T07:23:12Z</time></trkpt><trkpt lat="45.58746852921475" lon="10.710535138273519"><ele>220.0</ele><time>2026-04-26T07:23:13Z</time></trkpt><trkpt lat="45.58755572361902" lon="10.71044614578517"><ele>220.0</ele><time>2026-04-26T07:23:14Z</time></trkpt><trkpt lat="45.58763920926267" lon="10.710367747272022"><ele>220.0</ele><time>2026-04-26T07:23:15Z</time></trkpt><trkpt lat="45.58773762377731" lon="10.71029951369272"><ele>220.0</ele><time>2026-04-26T07:23:16Z</time></trkpt><trkpt lat="45.58783855077119" lon="10.710263700521947"><ele>220.0</ele><time>2026-04-26T07:23:17Z</time></trkpt><trkpt lat="45.58794327641122" lon="10.710264380283467"><ele>220.0</ele><time>2026-04-26T07:23:18Z</time></trkpt><trkpt lat="45.58803940935579" lon="10.710289515882765"><ele>222.49999999999997</ele><time>2026-04-26T07:23:19Z</time></trkpt><trkpt lat="45.5880981966936" lon="10.710355212991265"><ele>225.0</ele><time>2026-04-26T07:23:20Z</time></trkpt><trkpt lat="45.58817461159854" lon="10.710395162296537"><ele>227.5</ele><time>2026-04-26T07:23:22Z</time></trkpt><trkpt lat="45.58824083241368" lon="10.710442487013783"><ele>230.0</ele><time>2026-04-26T07:23:26Z</time></trkpt><trkpt lat="45.58832377434216" lon="10.710472034165225"><ele>232.49999999999997</ele><time>2026-04-26T07:23:30Z</time></trkpt><trkpt lat="45.58840004223456" lon="10.710472253692988"><ele>235.0</ele><time>2026-04-26T07:23:33Z</time></trkpt><trkpt lat="45.58833568040827" lon="10.710635344040487"><ele>234.99999999999997</ele><time>2026-04-26T07:23:41Z</time></trkpt><trkpt lat="45.58826364150313" lon="10.710631748502443"><ele>235.0</ele><time>2026-04-26T07:23:45Z</time></trkpt><trkpt lat="45.588270900423105" lon="10.710736323534299"><ele>235.0</ele><time>2026-04-26T07:23:48Z</time></trkpt><trkpt lat="45.5883258777083" lon="10.7108254495321"><ele>235.0</ele><time>2026-04-26T07:23:50Z</time></trkpt><trkpt lat="45.58842957039519" lon="10.710860336528468"><ele>234.99999999999997</ele><time>2026-04-26T07:23:53Z</time></trkpt><trkpt lat="45.58849254491054" lon="10.710892684074713"><ele>235.0</ele><time>2026-04-26T07:23:55Z</time></trkpt><trkpt lat="45.58855571942719" lon="10.710952838343994"><ele>235.0</ele><time>2026-04-26T07:23:57Z</time></trkpt><trkpt lat="45.58861947344625" lon="10.711017478137181"><ele>235.0</ele><time>2026-04-26T07:23:59Z</time></trkpt><trkpt lat="45.58866956297251" lon="10.711134032120407"><ele>235.0</ele><time>2026-04-26T07:24:03Z</time></trkpt><trkpt lat="45.58870778752946" lon="10.711247491595701"><ele>235.0</ele><time>2026-04-26T07:24:05Z</time></trkpt><trkpt lat="45.58875521578043" lon="10.711359153634154"><ele>235.0</ele><time>2026-04-26T07:24:07Z</time></trkpt><trkpt lat="45.58883228497942" lon="10.71144281158198"><ele>238.0</ele><time>2026-04-26T07:24:09Z</time></trkpt><trkpt lat="45.58894023076581" lon="10.711452203671818"><ele>241.0</ele><time>2026-04-26T07:24:11Z</time></trkpt><trkpt lat="45.58902331555773" lon="10.71146097709803"><ele>244.0</ele><time>2026-04-26T07:24:13Z</time></trkpt><trkpt lat="45.58912601307135" lon="10.711485217844368"><ele>247.0</ele><time>2026-04-26T07:24:15Z</time></trkpt><trkpt lat="45.58921778792785" lon="10.711521692757232"><ele>250.0</ele><time>2026-04-26T07:24:17Z</time></trkpt><trkpt lat="45.589357493922385" lon="10.711657382903093"><ele>250.0</ele><time>2026-04-26T07:24:20Z</time></trkpt><trkpt lat="45.589373970213884" lon="10.71150670394155"><ele>250.0</ele><time>2026-04-26T07:24:22Z</time></trkpt><trkpt lat="45.58931736239977" lon="10.711643839725753"><ele>250.0</ele><time>2026-04-26T07:24:30Z</time></trkpt><trkpt lat="45.58927228645313" lon="10.711716326481117"><ele>250.0</ele><time>2026-04-26T07:24:31Z</time></trkpt><trkpt lat="45.58921487961683" lon="10.711823506536172"><ele>250.0</ele><time>2026-04-26T07:24:32Z</time></trkpt><trkpt lat="45.58905816239614" lon="10.711792115225604"><ele>250.0</ele><time>2026-04-26T07:24:33Z</time></trkpt><trkpt lat="45.58896811343434" lon="10.711811200757815"><ele>250.0</ele><time>2026-04-26T07:24:34Z</time></trkpt><trkpt lat="45.58886657564989" lon="10.711838589121577"><ele>250.0</ele><time>2026-04-26T07:24:35Z</time></trkpt><trkpt lat="45.58878462829994" lon="10.711861940897114"><ele>250.0</ele><time>2026-04-26T07:24:36Z</time></trkpt><trkpt lat="45.58873306361961" lon="10.711973174196073"><ele>250.0</ele><time>2026-04-26T07:24:38Z</time></trkpt><trkpt lat="45.58882256046643" lon="10.712114669040055"><ele>253.2</ele><time>2026-04-26T07:24:40Z</time></trkpt><trkpt lat="45.58890958779522" lon="10.712142385852122"><ele>256.4</ele><time>2026-04-26T07:24:41Z</time></trkpt><trkpt lat="45.58898765284651" lon="10.712168491660519"><ele>259.6</ele><time>2026-04-26T07:24:42Z</time></trkpt><trkpt lat="45.58906633794164" lon="10.712211089150822"><ele>262.8</ele><time>2026-04-26T07:24:43Z</time></trkpt><trkpt lat="45.58915814204459" lon="10.712266210335606"><ele>266.0</ele><time>2026-04-26T07:24:44Z</time></trkpt><trkpt lat="45.58926708543572" lon="10.71228274162702"><ele>266.0</ele><time>2026-04-26T07:24:45Z</time></trkpt><trkpt lat="45.589397439669014" lon="10.712273218705224"><ele>266.0</ele><time>2026-04-26T07:24:46Z</time></trkpt><trkpt lat="45.589524796621035" lon="10.712238585510542"><ele>266.0</ele><time>2026-04-26T07:24:47Z</time></trkpt><trkpt lat="45.58966316770449" lon="10.712180399088625"><ele>266.0</ele><time>2026-04-26T07:24:48Z</time></trkpt><trkpt lat="45.58978407617269" lon="10.71211211582692"><ele>266.75</ele><time>2026-04-26T07:24:49Z</time></trkpt><trkpt lat="45.589880519418415" lon="10.712047825214754"><ele>267.5</ele><time>2026-04-26T07:24:50Z</time></trkpt><trkpt lat="45.589978307209094" lon="10.711981635000695"><ele>268.25</ele><time>2026-04-26T07:24:51Z</time></trkpt><trkpt lat="45.590085320111605" lon="10.711901574424127"><ele>269.0</ele><time>2026-04-26T07:24:52Z</time></trkpt><trkpt lat="45.5902008148359" lon="10.711798832654852"><ele>269.0</ele><time>2026-04-26T07:24:53Z</time></trkpt><trkpt lat="45.5902985488195" lon="10.71170133480277"><ele>269.0</ele><time>2026-04-26T07:24:54Z</time></trkpt><trkpt lat="45.59038089442518" lon="10.711632573961179"><ele>269.0</ele><time>2026-04-26T07:24:55Z</time></trkpt><trkpt lat="45.590452883344945" lon="10.711584700701575"><ele>269.0</ele><time>2026-04-26T07:24:56Z</time></trkpt><trkpt lat="45.59051605110705" lon="10.711557158731729"><ele>269.0</ele><time>2026-04-26T07:24:57Z</time></trkpt><trkpt lat="45.59059001692325" lon="10.711550077097819"><ele>269.0</ele><time>2026-04-26T07:24:58Z</time></trkpt><trkpt lat="45.590703184887005" lon="10.711599001160083"><ele>272.0</ele><time>2026-04-26T07:24:59Z</time></trkpt><trkpt lat="45.59081456836429" lon="10.711664707573151"><ele>275.0</ele><time>2026-04-26T07:25:00Z</time></trkpt><trkpt lat="45.590917427556484" lon="10.711730648206048"><ele>278.0</ele><time>2026-04-26T07:25:01Z</time></trkpt><trkpt lat="45.59102725508711" lon="10.71179234547203"><ele>281.0</ele><time>2026-04-26T07:25:02Z</time></trkpt><trkpt lat="45.5911432369398" lon="10.711859187768535"><ele>281.5</ele><time>2026-04-26T07:25:03Z</time></trkpt><trkpt lat="45.59127567088681" lon="10.711933557668765"><ele>282.0</ele><time>2026-04-26T07:25:04Z</time></trkpt><trkpt lat="45.59140653783299" lon="10.711999524942831"><ele>282.5</ele><time>2026-04-26T07:25:05Z</time></trkpt><trkpt lat="45.59153609668831" lon="10.712062420668309"><ele>283.0</ele><time>2026-04-26T07:25:06Z</time></trkpt><trkpt lat="45.591645685410235" lon="10.712106160462993"><ele>283.0</ele><time>2026-04-26T07:25:07Z</time></trkpt><trkpt lat="45.59174493407914" lon="10.712134526103432"><ele>283.0</ele><time>2026-04-26T07:25:08Z</time></trkpt><trkpt lat="45.59185133986373" lon="10.71215790259831"><ele>283.0</ele><time>2026-04-26T07:25:09Z</time></trkpt><trkpt lat="45.59196838492403" lon="10.712179353983617"><ele>283.0</ele><time>2026-04-26T07:25:10Z</time></trkpt><trkpt lat="45.592081147609164" lon="10.71220621036572"><ele>283.0</ele><time>2026-04-26T07:25:11Z</time></trkpt><trkpt lat="45.5921924850965" lon="10.712223808592464"><ele>283.4</ele><time>2026-04-26T07:25:12Z</time></trkpt><trkpt lat="45.592292365734124" lon="10.712241167206214"><ele>283.8</ele><time>2026-04-26T07:25:13Z</time></trkpt><trkpt lat="45.59239282491096" lon="10.712257861473528"><ele>284.2</ele><time>2026-04-26T07:25:14Z</time></trkpt><trkpt lat="45.592485323782114" lon="10.712272291635669"><ele>284.6</ele><time>2026-04-26T07:25:15Z</time></trkpt><trkpt lat="45.592568702977935" lon="10.71228960202642"><ele>285.0</ele><time>2026-04-26T07:25:16Z</time></trkpt><trkpt lat="45.59265497237877" lon="10.712308083841647"><ele>285.0</ele><time>2026-04-26T07:25:17Z</time></trkpt><trkpt lat="45.59274911759956" lon="10.71232745449234"><ele>285.0</ele><time>2026-04-26T07:25:18Z</time></trkpt><trkpt lat="45.5928484863158" lon="10.71235114100899"><ele>285.0</ele><time>2026-04-26T07:25:19Z</time></trkpt><trkpt lat="45.59296170928888" lon="10.712378006100778"><ele>285.0</ele><time>2026-04-26T07:25:20Z</time></trkpt><trkpt lat="45.59308519723714" lon="10.71239991111648"><ele>285.0</ele><time>2026-04-26T07:25:21Z</time></trkpt><trkpt lat="45.59320789424141" lon="10.712418351272191"><ele>285.25</ele><time>2026-04-26T07:25:22Z</time></trkpt><trkpt lat="45.59333724982014" lon="10.712437694647017"><ele>285.5</ele><time>2026-04-26T07:25:23Z</time></trkpt><trkpt lat="45.593456844595856" lon="10.712460821828918"><ele>285.75</ele><time>2026-04-26T07:25:24Z</time></trkpt><trkpt lat="45.593583934686066" lon="10.712489706082147"><ele>286.0</ele><time>2026-04-26T07:25:25Z</time></trkpt><trkpt lat="45.59369914179164" lon="10.712524883638505"><ele>288.6</ele><time>2026-04-26T07:25:26Z</time></trkpt><trkpt lat="45.59380027383279" lon="10.71257272408649"><ele>291.20000000000005</ele><time>2026-04-26T07:25:27Z</time></trkpt><trkpt lat="45.59387898433398" lon="10.712634683772475"><ele>293.79999999999995</ele><time>2026-04-26T07:25:28Z</time></trkpt><trkpt lat="45.59393982813405" lon="10.712734572293689"><ele>296.4</ele><time>2026-04-26T07:25:29Z</time></trkpt><trkpt lat="45.59399068656326" lon="10.712864347436492"><ele>299.0</ele><time>2026-04-26T07:25:30Z</time></trkpt><trkpt lat="45.594026861362295" lon="10.713008425688237"><ele>299.2</ele><time>2026-04-26T07:25:31Z</time></trkpt><trkpt lat="45.5940581679734" lon="10.713161379655885"><ele>299.4</ele><time>2026-04-26T07:25:32Z</time></trkpt><trkpt lat="45.594096290004046" lon="10.713289057322681"><ele>299.6</ele><time>2026-04-26T07:25:33Z</time></trkpt><trkpt lat="45.59415596477101" lon="10.713401429514267"><ele>299.8</ele><time>2026-04-26T07:25:35Z</time></trkpt><trkpt lat="45.59421811835006" lon="10.713492324809003"><ele>300.0</ele><time>2026-04-26T07:25:37Z</time></trkpt><trkpt lat="45.59427509794808" lon="10.713566588062202"><ele>299.99999999999994</ele><time>2026-04-26T07:25:39Z</time></trkpt><trkpt lat="45.59432242321834" lon="10.713629857345403"><ele>300.0</ele><time>2026-04-26T07:25:41Z</time></trkpt><trkpt lat="45.59437010736707" lon="10.713688689040435"><ele>300.0</ele><time>2026-04-26T07:25:45Z</time></trkpt><trkpt lat="45.59442568547466" lon="10.713739374526217"><ele>300.0</ele><time>2026-04-26T07:25:55Z</time></trkpt><trkpt lat="45.59448693117016" lon="10.713784722515593"><ele>300.0</ele><time>2026-04-26T07:25:57Z</time></trkpt><trkpt lat="45.59443163107147" lon="10.713723382287148"><ele>299.99999999999994</ele><time>2026-04-26T07:26:24Z</time></trkpt><trkpt lat="45.59436822776274" lon="10.713677797795377"><ele>300.0</ele><time>2026-04-26T07:26:27Z</time></trkpt><trkpt lat="45.59430809811011" lon="10.71370564956319"><ele>300.0</ele><time>2026-04-26T07:26:33Z</time></trkpt><trkpt lat="45.594158020086276" lon="10.71382395057569"><ele>300.0</ele><time>2026-04-26T07:26:37Z</time></trkpt><trkpt lat="45.594118107586525" lon="10.713894711154355"><ele>300.0</ele><time>2026-04-26T07:26:38Z</time></trkpt><trkpt lat="45.5940497966285" lon="10.713979837942661"><ele>300.0</ele><time>2026-04-26T07:26:40Z</time></trkpt><trkpt lat="45.59396894573209" lon="10.714105772224428"><ele>300.0</ele><time>2026-04-26T07:26:42Z</time></trkpt><trkpt lat="45.593959956923534" lon="10.714287430470465"><ele>299.4</ele><time>2026-04-26T07:26:44Z</time></trkpt><trkpt lat="45.593947940862364" lon="10.714494234719492"><ele>298.8</ele><time>2026-04-26T07:26:46Z</time></trkpt><trkpt lat="45.593952960024865" lon="10.71460825411646"><ele>298.2</ele><time>2026-04-26T07:26:47Z</time></trkpt><trkpt lat="45.59392781781443" lon="10.714697440285617"><ele>297.6</ele><time>2026-04-26T07:26:48Z</time></trkpt><trkpt lat="45.593928126535374" lon="10.714802048255994"><ele>297.0</ele><time>2026-04-26T07:26:49Z</time></trkpt><trkpt lat="45.59389327202161" lon="10.714914305023909"><ele>297.0</ele><time>2026-04-26T07:26:50Z</time></trkpt><trkpt lat="45.593888667157465" lon="10.71502458424103"><ele>297.0</ele><time>2026-04-26T07:26:51Z</time></trkpt><trkpt lat="45.593874449105144" lon="10.715121178088612"><ele>297.0</ele><time>2026-04-26T07:26:52Z</time></trkpt><trkpt lat="45.59381925075743" lon="10.715297598087222"><ele>297.0</ele><time>2026-04-26T07:26:54Z</time></trkpt><trkpt lat="45.59380249827677" lon="10.715390462240865"><ele>297.0</ele><time>2026-04-26T07:26:55Z</time></trkpt><trkpt lat="45.593758724468614" lon="10.715462710888028"><ele>297.0</ele><time>2026-04-26T07:26:56Z</time></trkpt><trkpt lat="45.59371910681451" lon="10.715561790194638"><ele>296.5</ele><time>2026-04-26T07:26:57Z</time></trkpt><trkpt lat="45.59369650517925" lon="10.7156511554086"><ele>296.0</ele><time>2026-04-26T07:26:58Z</time></trkpt><trkpt lat="45.5936738652105" lon="10.71573599667239"><ele>295.5</ele><time>2026-04-26T07:26:59Z</time></trkpt><trkpt lat="45.593626914565974" lon="10.715869666933095"><ele>295.0</ele><time>2026-04-26T07:27:01Z</time></trkpt><trkpt lat="45.59358213512706" lon="10.715977049082426"><ele>294.5</ele><time>2026-04-26T07:27:03Z</time></trkpt><trkpt lat="45.593569044830325" lon="10.716082652448288"><ele>294.0</ele><time>2026-04-26T07:27:05Z</time></trkpt><trkpt lat="45.59348394682879" lon="10.716055010605798"><ele>292.0</ele><time>2026-04-26T07:27:07Z</time></trkpt><trkpt lat="45.593398440778216" lon="10.71606617407216"><ele>290.0</ele><time>2026-04-26T07:27:09Z</time></trkpt><trkpt lat="45.59336637001854" lon="10.716296676606989"><ele>288.0</ele><time>2026-04-26T07:27:11Z</time></trkpt><trkpt lat="45.59333623428425" lon="10.716419819142656"><ele>286.0</ele><time>2026-04-26T07:27:12Z</time></trkpt><trkpt lat="45.593312262785034" lon="10.716525321718983"><ele>284.0</ele><time>2026-04-26T07:27:13Z</time></trkpt><trkpt lat="45.5932886723305" lon="10.716612612705394"><ele>283.83333333333337</ele><time>2026-04-26T07:27:14Z</time></trkpt><trkpt lat="45.59323005958251" lon="10.71674079582071"><ele>283.6666666666667</ele><time>2026-04-26T07:27:16Z</time></trkpt><trkpt lat="45.59317991296262" lon="10.716798102049623"><ele>283.5</ele><time>2026-04-26T07:27:17Z</time></trkpt><trkpt lat="45.59311383373216" lon="10.716876798136024"><ele>283.3333333333333</ele><time>2026-04-26T07:27:18Z</time></trkpt><trkpt lat="45.593036111640046" lon="10.71693884566535"><ele>283.16666666666663</ele><time>2026-04-26T07:27:19Z</time></trkpt><trkpt lat="45.59295975750188" lon="10.7169922358223"><ele>283.0</ele><time>2026-04-26T07:27:20Z</time></trkpt><trkpt lat="45.592858257246135" lon="10.717011012726054"><ele>280.66666666666663</ele><time>2026-04-26T07:27:21Z</time></trkpt><trkpt lat="45.59278534439392" lon="10.717066370226826"><ele>278.3333333333333</ele><time>2026-04-26T07:27:22Z</time></trkpt><trkpt lat="45.59269846111019" lon="10.717091394315991"><ele>276.0</ele><time>2026-04-26T07:27:23Z</time></trkpt><trkpt lat="45.592617472554714" lon="10.717079293114873"><ele>273.6666666666667</ele><time>2026-04-26T07:27:24Z</time></trkpt><trkpt lat="45.59255008001128" lon="10.71705730078482"><ele>271.33333333333337</ele><time>2026-04-26T07:27:25Z</time></trkpt><trkpt lat="45.59244396242195" lon="10.717047628071775"><ele>269.0</ele><time>2026-04-26T07:27:27Z</time></trkpt><trkpt lat="45.59237277602342" lon="10.71700050450606"><ele>269.0</ele><time>2026-04-26T07:27:29Z</time></trkpt><trkpt lat="45.592374173905874" lon="10.717190796087815"><ele>269.0</ele><time>2026-04-26T07:27:32Z</time></trkpt><trkpt lat="45.59234083213218" lon="10.717280757461555"><ele>269.0</ele><time>2026-04-26T07:27:33Z</time></trkpt><trkpt lat="45.592303610569594" lon="10.717367672856419"><ele>269.0</ele><time>2026-04-26T07:27:34Z</time></trkpt><trkpt lat="45.592266894350985" lon="10.717452652793163"><ele>269.0</ele><time>2026-04-26T07:27:35Z</time></trkpt><trkpt lat="45.59216159648053" lon="10.71749276418936"><ele>269.0</ele><time>2026-04-26T07:27:36Z</time></trkpt><trkpt lat="45.5920841658241" lon="10.717599531812988"><ele>269.0</ele><time>2026-04-26T07:27:37Z</time></trkpt><trkpt lat="45.591999141786445" lon="10.717694080517253"><ele>269.0</ele><time>2026-04-26T07:27:38Z</time></trkpt><trkpt lat="45.5919183827361" lon="10.717772586131279"><ele>269.0</ele><time>2026-04-26T07:27:39Z</time></trkpt><trkpt lat="45.59184674244089" lon="10.717843376024037"><ele>269.0</ele><time>2026-04-26T07:27:40Z</time></trkpt><trkpt lat="45.59178417138967" lon="10.717903490336479"><ele>267.83333333333337</ele><time>2026-04-26T07:27:41Z</time></trkpt><trkpt lat="45.59170976406639" lon="10.71791839243102"><ele>266.6666666666667</ele><time>2026-04-26T07:27:42Z</time></trkpt><trkpt lat="45.59163757626589" lon="10.7179690192194"><ele>265.5</ele><time>2026-04-26T07:27:43Z</time></trkpt><trkpt lat="45.591567194453404" lon="10.717987494688355"><ele>264.3333333333333</ele><time>2026-04-26T07:27:44Z</time></trkpt><trkpt lat="45.591481902120634" lon="10.718099001263829"><ele>263.16666666666663</ele><time>2026-04-26T07:27:46Z</time></trkpt><trkpt lat="45.59144956930283" lon="10.718188793630079"><ele>262.0</ele><time>2026-04-26T07:27:47Z</time></trkpt><trkpt lat="45.591400054044946" lon="10.718289657650306"><ele>262.0</ele><time>2026-04-26T07:27:48Z</time></trkpt><trkpt lat="45.59133185155017" lon="10.718389835797439"><ele>262.0</ele><time>2026-04-26T07:27:49Z</time></trkpt><trkpt lat="45.59126151174389" lon="10.718423650804839"><ele>262.0</ele><time>2026-04-26T07:27:50Z</time></trkpt><trkpt lat="45.591176263582675" lon="10.71852811402506"><ele>262.0</ele><time>2026-04-26T07:27:52Z</time></trkpt><trkpt lat="45.59104343588071" lon="10.718574156882623"><ele>262.0</ele><time>2026-04-26T07:27:54Z</time></trkpt><trkpt lat="45.59095284562203" lon="10.718601908516948"><ele>261.8</ele><time>2026-04-26T07:27:55Z</time></trkpt><trkpt lat="45.59086230804247" lon="10.71863043177838"><ele>261.6</ele><time>2026-04-26T07:27:56Z</time></trkpt><trkpt lat="45.59079739119477" lon="10.718676049245854"><ele>261.40000000000003</ele><time>2026-04-26T07:27:57Z</time></trkpt><trkpt lat="45.590718310347974" lon="10.718723652435187"><ele>261.2</ele><time>2026-04-26T07:27:59Z</time></trkpt><trkpt lat="45.59073204321098" lon="10.718887964844427"><ele>261.0</ele><time>2026-04-26T07:28:03Z</time></trkpt><trkpt lat="45.590822227324026" lon="10.71898353013301"><ele>261.0</ele><time>2026-04-26T07:28:05Z</time></trkpt><trkpt lat="45.59092823338327" lon="10.719065963882402"><ele>261.0</ele><time>2026-04-26T07:28:07Z</time></trkpt><trkpt lat="45.59099429385342" lon="10.719113081191079"><ele>261.0</ele><time>2026-04-26T07:28:08Z</time></trkpt><trkpt lat="45.59106823665241" lon="10.719174287949008"><ele>261.0</ele><time>2026-04-26T07:28:09Z</time></trkpt><trkpt lat="45.59112504737617" lon="10.719239561558293"><ele>261.0</ele><time>2026-04-26T07:28:10Z</time></trkpt><trkpt lat="45.5911927361185" lon="10.71933329586961"><ele>261.0</ele><time>2026-04-26T07:28:11Z</time></trkpt><trkpt lat="45.59127006514384" lon="10.719436441927403"><ele>261.0</ele><time>2026-04-26T07:28:12Z</time></trkpt><trkpt lat="45.591358053340834" lon="10.71954101679017"><ele>261.0</ele><time>2026-04-26T07:28:13Z</time></trkpt><trkpt lat="45.59144634763278" lon="10.719610852683266"><ele>261.0</ele><time>2026-04-26T07:28:14Z</time></trkpt><trkpt lat="45.591497843135244" lon="10.719688441630094"><ele>261.0</ele><time>2026-04-26T07:28:15Z</time></trkpt><trkpt lat="45.591557205452794" lon="10.719762453827006"><ele>261.0</ele><time>2026-04-26T07:28:16Z</time></trkpt><trkpt lat="45.59160958056367" lon="10.71983589705043"><ele>261.0</ele><time>2026-04-26T07:28:17Z</time></trkpt><trkpt lat="45.59167048829402" lon="10.719921644579347"><ele>261.0</ele><time>2026-04-26T07:28:18Z</time></trkpt><trkpt lat="45.59172088302216" lon="10.719988796050604"><ele>261.0</ele><time>2026-04-26T07:28:19Z</time></trkpt><trkpt lat="45.591769647225775" lon="10.720050518118773"><ele>261.0</ele><time>2026-04-26T07:28:20Z</time></trkpt><trkpt lat="45.59187176289833" lon="10.720161865636243"><ele>261.0</ele><time>2026-04-26T07:28:22Z</time></trkpt><trkpt lat="45.59192662617774" lon="10.720235539666572"><ele>261.0</ele><time>2026-04-26T07:28:23Z</time></trkpt><trkpt lat="45.59201157273848" lon="10.720332688643255"><ele>261.0</ele><time>2026-04-26T07:28:24Z</time></trkpt><trkpt lat="45.592100088047545" lon="10.720438742426065"><ele>261.40000000000003</ele><time>2026-04-26T07:28:25Z</time></trkpt><trkpt lat="45.59219569465233" lon="10.720557692180257"><ele>261.8</ele><time>2026-04-26T07:28:26Z</time></trkpt><trkpt lat="45.59228090283845" lon="10.72065092235841"><ele>262.20000000000005</ele><time>2026-04-26T07:28:27Z</time></trkpt><trkpt lat="45.59236904584283" lon="10.720741678345615"><ele>262.6</ele><time>2026-04-26T07:28:28Z</time></trkpt><trkpt lat="45.59245913451755" lon="10.720812884530165"><ele>263.0</ele><time>2026-04-26T07:28:29Z</time></trkpt><trkpt lat="45.592542936737644" lon="10.720851230778411"><ele>263.0</ele><time>2026-04-26T07:28:30Z</time></trkpt><trkpt lat="45.59262721265356" lon="10.720888634143275"><ele>263.0</ele><time>2026-04-26T07:28:31Z</time></trkpt><trkpt lat="45.592731094144696" lon="10.72096739309655"><ele>263.0</ele><time>2026-04-26T07:28:32Z</time></trkpt><trkpt lat="45.59280222477405" lon="10.721047825896687"><ele>263.0</ele><time>2026-04-26T07:28:33Z</time></trkpt><trkpt lat="45.592878065762534" lon="10.72115997914448"><ele>263.0</ele><time>2026-04-26T07:28:34Z</time></trkpt><trkpt lat="45.59296560448126" lon="10.721323371169838"><ele>262.75</ele><time>2026-04-26T07:28:35Z</time></trkpt><trkpt lat="45.59304914403481" lon="10.721504699939995"><ele>262.5</ele><time>2026-04-26T07:28:36Z</time></trkpt><trkpt lat="45.59313314988393" lon="10.721682394146379"><ele>262.25</ele><time>2026-04-26T07:28:37Z</time></trkpt><trkpt lat="45.59320768182491" lon="10.721832512301415"><ele>262.0</ele><time>2026-04-26T07:28:38Z</time></trkpt><trkpt lat="45.59328638534051" lon="10.721966532115221"><ele>262.0</ele><time>2026-04-26T07:28:39Z</time></trkpt><trkpt lat="45.593349125912624" lon="10.722126604700415"><ele>262.0</ele><time>2026-04-26T07:28:40Z</time></trkpt><trkpt lat="45.59342795657055" lon="10.722296014269878"><ele>262.0</ele><time>2026-04-26T07:28:41Z</time></trkpt><trkpt lat="45.59350417002057" lon="10.722453831770277"><ele>262.0</ele><time>2026-04-26T07:28:42Z</time></trkpt><trkpt lat="45.593589153174776" lon="10.722576058012313"><ele>262.0</ele><time>2026-04-26T07:28:43Z</time></trkpt><trkpt lat="45.593663034843026" lon="10.72271114410323"><ele>262.0</ele><time>2026-04-26T07:28:44Z</time></trkpt><trkpt lat="45.59374088919345" lon="10.722860139427535"><ele>262.0</ele><time>2026-04-26T07:28:45Z</time></trkpt><trkpt lat="45.59381492828879" lon="10.723020092552616"><ele>262.0</ele><time>2026-04-26T07:28:46Z</time></trkpt><trkpt lat="45.593873780701166" lon="10.723161570616954"><ele>261.2</ele><time>2026-04-26T07:28:47Z</time></trkpt><trkpt lat="45.59394136717857" lon="10.723295245766412"><ele>260.4</ele><time>2026-04-26T07:28:48Z</time></trkpt><trkpt lat="45.59402460309226" lon="10.723417877229744"><ele>259.6</ele><time>2026-04-26T07:28:49Z</time></trkpt><trkpt lat="45.594102918047334" lon="10.723530543070048"><ele>258.8</ele><time>2026-04-26T07:28:50Z</time></trkpt><trkpt lat="45.59417242002169" lon="10.723599555955131"><ele>258.0</ele><time>2026-04-26T07:28:51Z</time></trkpt><trkpt lat="45.59423851505393" lon="10.723679323689035"><ele>258.0</ele><time>2026-04-26T07:28:52Z</time></trkpt><trkpt lat="45.59430262856101" lon="10.723737150604638"><ele>258.0</ele><time>2026-04-26T07:28:53Z</time></trkpt><trkpt lat="45.5943821537565" lon="10.723771864920966"><ele>258.0</ele><time>2026-04-26T07:28:54Z</time></trkpt><trkpt lat="45.59445149822917" lon="10.723790912996918"><ele>258.0</ele><time>2026-04-26T07:28:55Z</time></trkpt><trkpt lat="45.594515147335635" lon="10.723804495079202"><ele>258.0</ele><time>2026-04-26T07:28:56Z</time></trkpt><trkpt lat="45.59459695075343" lon="10.72386467042855"><ele>258.0</ele><time>2026-04-26T07:28:58Z</time></trkpt><trkpt lat="45.594588422824785" lon="10.724001894252215"><ele>258.25</ele><time>2026-04-26T07:29:02Z</time></trkpt><trkpt lat="45.59460912016593" lon="10.72419052170036"><ele>258.5</ele><time>2026-04-26T07:29:04Z</time></trkpt><trkpt lat="45.594622717671605" lon="10.724331297470451"><ele>258.75</ele><time>2026-04-26T07:29:05Z</time></trkpt><trkpt lat="45.59464015436103" lon="10.724491796839127"><ele>259.0</ele><time>2026-04-26T07:29:06Z</time></trkpt><trkpt lat="45.594657494075356" lon="10.724638562251759"><ele>258.2</ele><time>2026-04-26T07:29:07Z</time></trkpt><trkpt lat="45.594678394801626" lon="10.724784475283222"><ele>257.4</ele><time>2026-04-26T07:29:08Z</time></trkpt><trkpt lat="45.59469981329731" lon="10.72493886591562"><ele>256.6</ele><time>2026-04-26T07:29:09Z</time></trkpt><trkpt lat="45.59472707284546" lon="10.725087411639706"><ele>255.8</ele><time>2026-04-26T07:29:10Z</time></trkpt><trkpt lat="45.59475935447563" lon="10.725221824520307"><ele>255.0</ele><time>2026-04-26T07:29:11Z</time></trkpt><trkpt lat="45.59478743177171" lon="10.725348586112416"><ele>254.5</ele><time>2026-04-26T07:29:12Z</time></trkpt><trkpt lat="45.59480726787258" lon="10.725467888676905"><ele>254.0</ele><time>2026-04-26T07:29:13Z</time></trkpt><trkpt lat="45.59482414623364" lon="10.725573181700755"><ele>253.5</ele><time>2026-04-26T07:29:14Z</time></trkpt><trkpt lat="45.59484220613982" lon="10.725703699375895"><ele>253.0</ele><time>2026-04-26T07:29:15Z</time></trkpt><trkpt lat="45.594861888997485" lon="10.725824695680716"><ele>252.5</ele><time>2026-04-26T07:29:16Z</time></trkpt><trkpt lat="45.59488012229898" lon="10.72594129565505"><ele>252.0</ele><time>2026-04-26T07:29:17Z</time></trkpt><trkpt lat="45.59490336864851" lon="10.726088695834324"><ele>251.83333333333334</ele><time>2026-04-26T07:29:18Z</time></trkpt><trkpt lat="45.59493282325926" lon="10.726222320126942"><ele>251.66666666666669</ele><time>2026-04-26T07:29:19Z</time></trkpt><trkpt lat="45.59496088805306" lon="10.72633204132242"><ele>251.5</ele><time>2026-04-26T07:29:20Z</time></trkpt><trkpt lat="45.594983248426736" lon="10.726429518827548"><ele>251.33333333333334</ele><time>2026-04-26T07:29:21Z</time></trkpt><trkpt lat="45.59501738760449" lon="10.726528515932795"><ele>251.16666666666669</ele><time>2026-04-26T07:29:22Z</time></trkpt><trkpt lat="45.59504551126872" lon="10.726628708592647"><ele>251.0</ele><time>2026-04-26T07:29:23Z</time></trkpt><trkpt lat="45.59506564658035" lon="10.726734055007228"><ele>251.00000000000003</ele><time>2026-04-26T07:29:24Z</time></trkpt><trkpt lat="45.595085565125395" lon="10.726844480184763"><ele>251.0</ele><time>2026-04-26T07:29:25Z</time></trkpt><trkpt lat="45.59510610840437" lon="10.726958008572387"><ele>251.0</ele><time>2026-04-26T07:29:26Z</time></trkpt><trkpt lat="45.59512026286251" lon="10.727086982293075"><ele>251.0</ele><time>2026-04-26T07:29:27Z</time></trkpt><trkpt lat="45.59514597382831" lon="10.727206729550588"><ele>251.00000000000003</ele><time>2026-04-26T07:29:28Z</time></trkpt><trkpt lat="45.59518552686982" lon="10.727328062396147"><ele>251.0</ele><time>2026-04-26T07:29:29Z</time></trkpt><trkpt lat="45.59524201783418" lon="10.727439681855572"><ele>251.0</ele><time>2026-04-26T07:29:30Z</time></trkpt><trkpt lat="45.59529269939282" lon="10.727529612367471"><ele>251.00000000000003</ele><time>2026-04-26T07:29:31Z</time></trkpt><trkpt lat="45.59537486988522" lon="10.72767128720907"><ele>251.00000000000003</ele><time>2026-04-26T07:29:33Z</time></trkpt><trkpt lat="45.595428299279256" lon="10.727768433311246"><ele>251.0</ele><time>2026-04-26T07:29:34Z</time></trkpt><trkpt lat="45.59547467498373" lon="10.727872806704505"><ele>251.0</ele><time>2026-04-26T07:29:35Z</time></trkpt><trkpt lat="45.595513627800834" lon="10.727990983391843"><ele>251.33333333333334</ele><time>2026-04-26T07:29:36Z</time></trkpt><trkpt lat="45.59552727623322" lon="10.7281127736706"><ele>251.66666666666669</ele><time>2026-04-26T07:29:37Z</time></trkpt><trkpt lat="45.59547960679459" lon="10.728233567271738"><ele>252.0</ele><time>2026-04-26T07:29:38Z</time></trkpt><trkpt lat="45.59545776399605" lon="10.72835472035836"><ele>252.33333333333331</ele><time>2026-04-26T07:29:39Z</time></trkpt><trkpt lat="45.595439494653554" lon="10.72845605293543"><ele>252.66666666666666</ele><time>2026-04-26T07:29:40Z</time></trkpt><trkpt lat="45.59542303628112" lon="10.72854734080781"><ele>253.0</ele><time>2026-04-26T07:29:41Z</time></trkpt><trkpt lat="45.595400066338605" lon="10.728674745698635"><ele>253.5</ele><time>2026-04-26T07:29:42Z</time></trkpt><trkpt lat="45.595503520710096" lon="10.728881179436181"><ele>254.0</ele><time>2026-04-26T07:29:43Z</time></trkpt><trkpt lat="45.59550976043429" lon="10.729054745544172"><ele>254.5</ele><time>2026-04-26T07:29:44Z</time></trkpt><trkpt lat="45.595507020139515" lon="10.729228504661211"><ele>255.0</ele><time>2026-04-26T07:29:45Z</time></trkpt><trkpt lat="45.59548853125198" lon="10.729361692314358"><ele>254.4</ele><time>2026-04-26T07:29:46Z</time></trkpt><trkpt lat="45.59546646194219" lon="10.729497098755587"><ele>253.8</ele><time>2026-04-26T07:29:47Z</time></trkpt><trkpt lat="45.595455983319475" lon="10.729630737205188"><ele>253.2</ele><time>2026-04-26T07:29:48Z</time></trkpt><trkpt lat="45.5954472705813" lon="10.729775076753993"><ele>252.6</ele><time>2026-04-26T07:29:49Z</time></trkpt><trkpt lat="45.5954502335399" lon="10.729906846486243"><ele>252.0</ele><time>2026-04-26T07:29:50Z</time></trkpt><trkpt lat="45.59545529549692" lon="10.730012450023349"><ele>252.0</ele><time>2026-04-26T07:29:51Z</time></trkpt><trkpt lat="45.5954704490568" lon="10.730104366167655"><ele>252.0</ele><time>2026-04-26T07:29:52Z</time></trkpt><trkpt lat="45.59547598986701" lon="10.730227554763802"><ele>252.0</ele><time>2026-04-26T07:29:54Z</time></trkpt><trkpt lat="45.59549629611727" lon="10.730322091838735"><ele>252.0</ele><time>2026-04-26T07:29:56Z</time></trkpt><trkpt lat="45.59553589648295" lon="10.730470101578007"><ele>252.0</ele><time>2026-04-26T07:29:58Z</time></trkpt><trkpt lat="45.59557816375695" lon="10.730570047132781"><ele>252.0</ele><time>2026-04-26T07:30:01Z</time></trkpt><trkpt lat="45.59572095689811" lon="10.730478203873796"><ele>252.39999999999998</ele><time>2026-04-26T07:30:04Z</time></trkpt><trkpt lat="45.59579268463193" lon="10.730421846042299"><ele>252.79999999999998</ele><time>2026-04-26T07:30:05Z</time></trkpt><trkpt lat="45.595853331343925" lon="10.73038361737486"><ele>253.2</ele><time>2026-04-26T07:30:06Z</time></trkpt><trkpt lat="45.595979569014894" lon="10.73033102079933"><ele>253.6</ele><time>2026-04-26T07:30:08Z</time></trkpt><trkpt lat="45.59609276820826" lon="10.730336410895468"><ele>254.0</ele><time>2026-04-26T07:30:10Z</time></trkpt><trkpt lat="45.59620619277068" lon="10.730295329453172"><ele>255.6</ele><time>2026-04-26T07:30:12Z</time></trkpt><trkpt lat="45.596292782175766" lon="10.730261403770106"><ele>257.2</ele><time>2026-04-26T07:30:13Z</time></trkpt><trkpt lat="45.59643592146309" lon="10.730211496284019"><ele>258.79999999999995</ele><time>2026-04-26T07:30:15Z</time></trkpt><trkpt lat="45.59651432827729" lon="10.730167948424384"><ele>260.4</ele><time>2026-04-26T07:30:16Z</time></trkpt><trkpt lat="45.596599589358995" lon="10.730131332521069"><ele>262.0</ele><time>2026-04-26T07:30:17Z</time></trkpt><trkpt lat="45.59667639003269" lon="10.730098456463288"><ele>262.0</ele><time>2026-04-26T07:30:18Z</time></trkpt><trkpt lat="45.59675073492647" lon="10.73005986573926"><ele>262.0</ele><time>2026-04-26T07:30:19Z</time></trkpt><trkpt lat="45.596833817706404" lon="10.730031590975818"><ele>262.0</ele><time>2026-04-26T07:30:20Z</time></trkpt><trkpt lat="45.596939559876766" lon="10.730049550588081"><ele>262.0</ele><time>2026-04-26T07:30:22Z</time></trkpt><trkpt lat="45.59703162424794" lon="10.730064219769035"><ele>262.0</ele><time>2026-04-26T07:30:23Z</time></trkpt><trkpt lat="45.59714745721588" lon="10.730039503655822"><ele>263.6</ele><time>2026-04-26T07:30:25Z</time></trkpt><trkpt lat="45.597227673849524" lon="10.729998116285525"><ele>265.2</ele><time>2026-04-26T07:30:26Z</time></trkpt><trkpt lat="45.597312466577726" lon="10.729970037584662"><ele>266.8</ele><time>2026-04-26T07:30:27Z</time></trkpt><trkpt lat="45.59742523666454" lon="10.729906751603883"><ele>268.4</ele><time>2026-04-26T07:30:29Z</time></trkpt><trkpt lat="45.597485641583525" lon="10.72987465712949"><ele>270.0</ele><time>2026-04-26T07:30:30Z</time></trkpt><trkpt lat="45.597562376095965" lon="10.729740499929367"><ele>270.0</ele><time>2026-04-26T07:30:32Z</time></trkpt><trkpt lat="45.59764817277958" lon="10.729711699287753"><ele>270.0</ele><time>2026-04-26T07:30:34Z</time></trkpt><trkpt lat="45.597801032148446" lon="10.729700671814419"><ele>270.0</ele><time>2026-04-26T07:30:36Z</time></trkpt><trkpt lat="45.59789183125109" lon="10.72967959371289"><ele>270.0</ele><time>2026-04-26T07:30:37Z</time></trkpt><trkpt lat="45.59798099053542" lon="10.729673676032345"><ele>270.0</ele><time>2026-04-26T07:30:38Z</time></trkpt><trkpt lat="45.59809027534892" lon="10.729612180380226"><ele>270.6</ele><time>2026-04-26T07:30:40Z</time></trkpt><trkpt lat="45.59816243155206" lon="10.729549933247394"><ele>271.2</ele><time>2026-04-26T07:30:41Z</time></trkpt><trkpt lat="45.59824244969899" lon="10.729473976747967"><ele>271.8</ele><time>2026-04-26T07:30:42Z</time></trkpt><trkpt lat="45.59833113737092" lon="10.729388925045741"><ele>272.4</ele><time>2026-04-26T07:30:43Z</time></trkpt><trkpt lat="45.598415369739435" lon="10.72933789059939"><ele>273.0</ele><time>2026-04-26T07:30:44Z</time></trkpt><trkpt lat="45.598478716526465" lon="10.729285914415291"><ele>273.4</ele><time>2026-04-26T07:30:45Z</time></trkpt><trkpt lat="45.598550627563625" lon="10.729173173900758"><ele>273.8</ele><time>2026-04-26T07:30:47Z</time></trkpt><trkpt lat="45.59862112037892" lon="10.729042479408022"><ele>274.2</ele><time>2026-04-26T07:30:49Z</time></trkpt><trkpt lat="45.59861210800296" lon="10.72891993201531"><ele>274.6</ele><time>2026-04-26T07:30:50Z</time></trkpt><trkpt lat="45.59861753078442" lon="10.728818692173368"><ele>275.0</ele><time>2026-04-26T07:30:51Z</time></trkpt><trkpt lat="45.59863467120389" lon="10.728678044864331"><ele>275.2</ele><time>2026-04-26T07:30:52Z</time></trkpt><trkpt lat="45.5986431189898" lon="10.728531353325911"><ele>275.4</ele><time>2026-04-26T07:30:53Z</time></trkpt><trkpt lat="45.59865793820645" lon="10.728434448671154"><ele>275.6</ele><time>2026-04-26T07:30:54Z</time></trkpt><trkpt lat="45.59866990356298" lon="10.728297870496473"><ele>275.8</ele><time>2026-04-26T07:30:56Z</time></trkpt><trkpt lat="45.59875028869393" lon="10.728225114870241"><ele>276.0</ele><time>2026-04-26T07:30:58Z</time></trkpt><trkpt lat="45.598825904068796" lon="10.728165992358418"><ele>276.8333333333333</ele><time>2026-04-26T07:30:59Z</time></trkpt><trkpt lat="45.59889655182264" lon="10.728094965573705"><ele>277.6666666666667</ele><time>2026-04-26T07:31:00Z</time></trkpt><trkpt lat="45.598967847571586" lon="10.728058999709857"><ele>278.5</ele><time>2026-04-26T07:31:01Z</time></trkpt><trkpt lat="45.59905208336261" lon="10.727976677652277"><ele>279.33333333333337</ele><time>2026-04-26T07:31:03Z</time></trkpt><trkpt lat="45.59912368967531" lon="10.727938732790435"><ele>280.1666666666667</ele><time>2026-04-26T07:31:05Z</time></trkpt><trkpt lat="45.59919508026701" lon="10.727899439599625"><ele>281.0</ele><time>2026-04-26T07:31:07Z</time></trkpt><trkpt lat="45.599111205321655" lon="10.727494990433462"><ele>281.0</ele><time>2026-04-26T07:31:28Z</time></trkpt><trkpt lat="45.59907079561596" lon="10.727385838534897"><ele>281.0</ele><time>2026-04-26T07:31:30Z</time></trkpt><trkpt lat="45.59903260922153" lon="10.727309017630335"><ele>281.0</ele><time>2026-04-26T07:31:32Z</time></trkpt><trkpt lat="45.59899725604603" lon="10.72723447208735"><ele>281.0</ele><time>2026-04-26T07:31:34Z</time></trkpt><trkpt lat="45.59895250965719" lon="10.72712824397589"><ele>281.0</ele><time>2026-04-26T07:31:36Z</time></trkpt><trkpt lat="45.598918173253765" lon="10.727025410659628"><ele>281.0</ele><time>2026-04-26T07:31:39Z</time></trkpt><trkpt lat="45.59888671658193" lon="10.72693109276532"><ele>280.1666666666667</ele><time>2026-04-26T07:31:41Z</time></trkpt><trkpt lat="45.59882372604687" lon="10.726830684149299"><ele>279.33333333333337</ele><time>2026-04-26T07:31:43Z</time></trkpt><trkpt lat="45.598744177978155" lon="10.726761833436294"><ele>278.5</ele><time>2026-04-26T07:31:45Z</time></trkpt><trkpt lat="45.59865461925314" lon="10.726747620055939"><ele>277.6666666666667</ele><time>2026-04-26T07:31:48Z</time></trkpt><trkpt lat="45.59858200080424" lon="10.726712906504272"><ele>276.8333333333333</ele><time>2026-04-26T07:31:51Z</time></trkpt><trkpt lat="45.598543815181415" lon="10.726640680269977"><ele>276.0</ele><time>2026-04-26T07:31:55Z</time></trkpt><trkpt lat="45.59859746967138" lon="10.726711837404077"><ele>276.0</ele><time>2026-04-26T07:32:52Z</time></trkpt><trkpt lat="45.598645508870234" lon="10.726785219980203"><ele>276.0</ele><time>2026-04-26T07:32:54Z</time></trkpt><trkpt lat="45.598727939626215" lon="10.726877579256675"><ele>276.0</ele><time>2026-04-26T07:32:57Z</time></trkpt><trkpt lat="45.59877335385361" lon="10.726964122403079"><ele>276.0</ele><time>2026-04-26T07:32:59Z</time></trkpt><trkpt lat="45.59883025856135" lon="10.72700951944829"><ele>276.0</ele><time>2026-04-26T07:33:01Z</time></trkpt><trkpt lat="45.59887880086059" lon="10.727074312470112"><ele>276.0</ele><time>2026-04-26T07:33:05Z</time></trkpt><trkpt lat="45.59895463782202" lon="10.727151754507593"><ele>276.8333333333333</ele><time>2026-04-26T07:33:07Z</time></trkpt><trkpt lat="45.59900458742327" lon="10.727249026888893"><ele>277.6666666666667</ele><time>2026-04-26T07:33:09Z</time></trkpt><trkpt lat="45.59903657966775" lon="10.727332773867026"><ele>278.5</ele><time>2026-04-26T07:33:10Z</time></trkpt><trkpt lat="45.599095166637845" lon="10.727453074870796"><ele>279.33333333333337</ele><time>2026-04-26T07:33:12Z</time></trkpt><trkpt lat="45.5991328224996" lon="10.727534440322774"><ele>280.1666666666667</ele><time>2026-04-26T07:33:13Z</time></trkpt><trkpt lat="45.599166353463644" lon="10.727646840714161"><ele>281.0</ele><time>2026-04-26T07:33:15Z</time></trkpt><trkpt lat="45.59924161948107" lon="10.727599774164318"><ele>281.0</ele><time>2026-04-26T07:33:47Z</time></trkpt><trkpt lat="45.59931919574371" lon="10.7275289535813"><ele>281.0</ele><time>2026-04-26T07:33:49Z</time></trkpt><trkpt lat="45.59937916119955" lon="10.727492094359889"><ele>281.0</ele><time>2026-04-26T07:33:51Z</time></trkpt><trkpt lat="45.59944817053098" lon="10.727379133713129"><ele>281.0</ele><time>2026-04-26T07:33:53Z</time></trkpt><trkpt lat="45.59946507677268" lon="10.72727431673667"><ele>281.0</ele><time>2026-04-26T07:33:56Z</time></trkpt><trkpt lat="45.59953911431033" lon="10.727288476188992"><ele>281.0</ele><time>2026-04-26T07:34:05Z</time></trkpt><trkpt lat="45.59960224661485" lon="10.727274138342128"><ele>282.0</ele><time>2026-04-26T07:34:08Z</time></trkpt><trkpt lat="45.59965946748426" lon="10.727168755429442"><ele>283.0</ele><time>2026-04-26T07:34:13Z</time></trkpt><trkpt lat="45.59975877930488" lon="10.727093737968666"><ele>284.0</ele><time>2026-04-26T07:34:15Z</time></trkpt><trkpt lat="45.59989126303699" lon="10.727044320293803"><ele>285.0</ele><time>2026-04-26T07:34:17Z</time></trkpt><trkpt lat="45.599970640627" lon="10.727021206771562"><ele>286.0</ele><time>2026-04-26T07:34:18Z</time></trkpt><trkpt lat="45.60004481370557" lon="10.727000908846295"><ele>286.0</ele><time>2026-04-26T07:34:19Z</time></trkpt><trkpt lat="45.60014260937849" lon="10.727000746312653"><ele>286.0</ele><time>2026-04-26T07:34:21Z</time></trkpt><trkpt lat="45.600190509662" lon="10.72692966843918"><ele>286.0</ele><time>2026-04-26T07:34:24Z</time></trkpt><trkpt lat="45.60013051685325" lon="10.726811092643512"><ele>286.0</ele><time>2026-04-26T07:34:33Z</time></trkpt><trkpt lat="45.600037329628336" lon="10.726753917089624"><ele>286.0</ele><time>2026-04-26T07:34:35Z</time></trkpt><trkpt lat="45.59994134753437" lon="10.72673909103408"><ele>286.0</ele><time>2026-04-26T07:34:37Z</time></trkpt><trkpt lat="45.59985930055275" lon="10.726743944049971"><ele>286.0</ele><time>2026-04-26T07:34:39Z</time></trkpt><trkpt lat="45.59993486131496" lon="10.726788538184485"><ele>286.0</ele><time>2026-04-26T07:34:46Z</time></trkpt><trkpt lat="45.60001215432698" lon="10.726754866848925"><ele>286.0</ele><time>2026-04-26T07:34:47Z</time></trkpt><trkpt lat="45.60012908932505" lon="10.72680932982493"><ele>286.0</ele><time>2026-04-26T07:34:49Z</time></trkpt><trkpt lat="45.60017933666636" lon="10.72688492367808"><ele>286.0</ele><time>2026-04-26T07:34:50Z</time></trkpt><trkpt lat="45.60020860150298" lon="10.726979049352044"><ele>284.66666666666663</ele><time>2026-04-26T07:34:52Z</time></trkpt><trkpt lat="45.60028010412685" lon="10.726878254682344"><ele>283.3333333333333</ele><time>2026-04-26T07:34:55Z</time></trkpt><trkpt lat="45.600264794873624" lon="10.726739618045082"><ele>282.0</ele><time>2026-04-26T07:34:57Z</time></trkpt><trkpt lat="45.60020038125856" lon="10.72666738496577"><ele>280.6666666666667</ele><time>2026-04-26T07:34:59Z</time></trkpt><trkpt lat="45.600137180542646" lon="10.726603889129338"><ele>279.33333333333337</ele><time>2026-04-26T07:35:02Z</time></trkpt><trkpt lat="45.600066557333555" lon="10.726579162709658"><ele>278.0</ele><time>2026-04-26T07:35:04Z</time></trkpt><trkpt lat="45.59994607860186" lon="10.726561971146335"><ele>278.0</ele><time>2026-04-26T07:35:06Z</time></trkpt><trkpt lat="45.59988180349792" lon="10.72654863055459"><ele>278.0</ele><time>2026-04-26T07:35:07Z</time></trkpt><trkpt lat="45.59978284682827" lon="10.72653127624097"><ele>278.0</ele><time>2026-04-26T07:35:09Z</time></trkpt><trkpt lat="45.59970949349353" lon="10.726493561453006"><ele>278.0</ele><time>2026-04-26T07:35:11Z</time></trkpt><trkpt lat="45.599643899581906" lon="10.726408805005224"><ele>278.0</ele><time>2026-04-26T07:35:13Z</time></trkpt><trkpt lat="45.599569116232885" lon="10.726345368484456"><ele>278.0</ele><time>2026-04-26T07:35:16Z</time></trkpt><trkpt lat="45.59947843669837" lon="10.72631590696924"><ele>277.6666666666667</ele><time>2026-04-26T07:35:19Z</time></trkpt><trkpt lat="45.599412771219335" lon="10.726310513820554"><ele>277.33333333333337</ele><time>2026-04-26T07:35:49Z</time></trkpt><trkpt lat="45.59933815780367" lon="10.726317369417206"><ele>277.0</ele><time>2026-04-26T07:35:51Z</time></trkpt><trkpt lat="45.5992327799244" lon="10.726309128916355"><ele>276.6666666666667</ele><time>2026-04-26T07:35:53Z</time></trkpt><trkpt lat="45.59912815722611" lon="10.726299871214955"><ele>276.3333333333333</ele><time>2026-04-26T07:35:55Z</time></trkpt><trkpt lat="45.59906441775866" lon="10.726282833516835"><ele>276.0</ele><time>2026-04-26T07:35:56Z</time></trkpt><trkpt lat="45.598958928252074" lon="10.726281566840306"><ele>276.0</ele><time>2026-04-26T07:35:58Z</time></trkpt><trkpt lat="45.59885490735389" lon="10.726271466587756"><ele>276.0</ele><time>2026-04-26T07:36:00Z</time></trkpt><trkpt lat="45.59873892470982" lon="10.726255556302243"><ele>276.0</ele><time>2026-04-26T07:36:02Z</time></trkpt><trkpt lat="45.59867455688856" lon="10.72624344035863"><ele>276.0</ele><time>2026-04-26T07:36:03Z</time></trkpt><trkpt lat="45.598586086052286" lon="10.726232809245651"><ele>276.0</ele><time>2026-04-26T07:36:05Z</time></trkpt><trkpt lat="45.59851699726677" lon="10.72620860769487"><ele>276.0</ele><time>2026-04-26T07:36:07Z</time></trkpt><trkpt lat="45.598399441660185" lon="10.72624115442481"><ele>274.8</ele><time>2026-04-26T07:36:09Z</time></trkpt><trkpt lat="45.59830732219873" lon="10.726275295920782"><ele>273.6</ele><time>2026-04-26T07:36:11Z</time></trkpt><trkpt lat="45.59820500252578" lon="10.726325710427192"><ele>272.4</ele><time>2026-04-26T07:36:13Z</time></trkpt><trkpt lat="45.59810859305672" lon="10.72637462392828"><ele>271.2</ele><time>2026-04-26T07:36:15Z</time></trkpt><trkpt lat="45.59803883636399" lon="10.726371799467849"><ele>270.0</ele><time>2026-04-26T07:36:17Z</time></trkpt><trkpt lat="45.5979661616288" lon="10.72639600278866"><ele>270.0</ele><time>2026-04-26T07:36:21Z</time></trkpt><trkpt lat="45.59790368520165" lon="10.726448052615547"><ele>270.0</ele><time>2026-04-26T07:36:25Z</time></trkpt><trkpt lat="45.597859789882094" lon="10.72637825620573"><ele>270.0</ele><time>2026-04-26T07:36:28Z</time></trkpt><trkpt lat="45.59781419403996" lon="10.726306952832646"><ele>270.0</ele><time>2026-04-26T07:36:30Z</time></trkpt><trkpt lat="45.59776264125882" lon="10.726191591657043"><ele>270.0</ele><time>2026-04-26T07:36:32Z</time></trkpt><trkpt lat="45.59771439195813" lon="10.7260477877434"><ele>270.0</ele><time>2026-04-26T07:36:34Z</time></trkpt><trkpt lat="45.59768500027688" lon="10.72595735615756"><ele>268.0</ele><time>2026-04-26T07:36:35Z</time></trkpt><trkpt lat="45.59765663945643" lon="10.725873920564737"><ele>266.0</ele><time>2026-04-26T07:36:36Z</time></trkpt><trkpt lat="45.597601878713924" lon="10.725719640921705"><ele>264.0</ele><time>2026-04-26T07:36:38Z</time></trkpt><trkpt lat="45.59757264879291" lon="10.725616567347029"><ele>262.0</ele><time>2026-04-26T07:36:39Z</time></trkpt><trkpt lat="45.597518270369825" lon="10.725461002229073"><ele>260.0</ele><time>2026-04-26T07:36:41Z</time></trkpt><trkpt lat="45.597462780608566" lon="10.725313021471253"><ele>260.1666666666667</ele><time>2026-04-26T07:36:43Z</time></trkpt><trkpt lat="45.597396597218726" lon="10.725169317050725"><ele>260.33333333333337</ele><time>2026-04-26T07:36:45Z</time></trkpt><trkpt lat="45.59732324446977" lon="10.72504936317876"><ele>260.5</ele><time>2026-04-26T07:36:47Z</time></trkpt><trkpt lat="45.597273510746184" lon="10.724984486464429"><ele>260.6666666666667</ele><time>2026-04-26T07:36:48Z</time></trkpt><trkpt lat="45.59722081003137" lon="10.724923279054265"><ele>260.8333333333333</ele><time>2026-04-26T07:36:49Z</time></trkpt><trkpt lat="45.597214588968804" lon="10.724821689666225"><ele>261.0</ele><time>2026-04-26T07:37:09Z</time></trkpt><trkpt lat="45.59725738707475" lon="10.724747925890282"><ele>261.0</ele><time>2026-04-26T07:37:11Z</time></trkpt><trkpt lat="45.59730521022891" lon="10.724640213963312"><ele>261.0</ele><time>2026-04-26T07:37:13Z</time></trkpt><trkpt lat="45.59735916473387" lon="10.724516464446557"><ele>261.0</ele><time>2026-04-26T07:37:15Z</time></trkpt><trkpt lat="45.597432389509684" lon="10.72446294886935"><ele>261.0</ele><time>2026-04-26T07:37:17Z</time></trkpt><trkpt lat="45.5975056749101" lon="10.724457868870788"><ele>261.0</ele><time>2026-04-26T07:37:36Z</time></trkpt><trkpt lat="45.597574138577976" lon="10.72449477909778"><ele>261.0</ele><time>2026-04-26T07:37:39Z</time></trkpt><trkpt lat="45.59765038712727" lon="10.724566872530705"><ele>261.0</ele><time>2026-04-26T07:37:41Z</time></trkpt><trkpt lat="45.597742457125825" lon="10.724679511656355"><ele>261.0</ele><time>2026-04-26T07:37:43Z</time></trkpt><trkpt lat="45.59786442833276" lon="10.724701206264408"><ele>261.0</ele><time>2026-04-26T07:37:45Z</time></trkpt><trkpt lat="45.597940202903324" lon="10.724715238552417"><ele>261.0</ele><time>2026-04-26T07:37:46Z</time></trkpt><trkpt lat="45.598028510927364" lon="10.724719052827837"><ele>261.0</ele><time>2026-04-26T07:37:47Z</time></trkpt><trkpt lat="45.59814404813067" lon="10.724719247401582"><ele>261.2</ele><time>2026-04-26T07:37:48Z</time></trkpt><trkpt lat="45.59824899155465" lon="10.724716167675576"><ele>261.40000000000003</ele><time>2026-04-26T07:37:49Z</time></trkpt><trkpt lat="45.5983431922164" lon="10.724697931323792"><ele>261.6</ele><time>2026-04-26T07:37:50Z</time></trkpt><trkpt lat="45.59843462483553" lon="10.724668553261889"><ele>261.8</ele><time>2026-04-26T07:37:51Z</time></trkpt><trkpt lat="45.598520251432404" lon="10.724644609798627"><ele>262.0</ele><time>2026-04-26T07:37:52Z</time></trkpt><trkpt lat="45.59860462314846" lon="10.724620646382556"><ele>263.0</ele><time>2026-04-26T07:37:53Z</time></trkpt><trkpt lat="45.59869701734053" lon="10.724590209274375"><ele>264.0</ele><time>2026-04-26T07:37:54Z</time></trkpt><trkpt lat="45.59878689717795" lon="10.724540265209763"><ele>265.0</ele><time>2026-04-26T07:37:55Z</time></trkpt><trkpt lat="45.598874266767915" lon="10.724477961452797"><ele>266.0</ele><time>2026-04-26T07:37:56Z</time></trkpt><trkpt lat="45.59898091573334" lon="10.724402352483036"><ele>267.0</ele><time>2026-04-26T07:37:57Z</time></trkpt><trkpt lat="45.59907913284278" lon="10.724349466264446"><ele>267.0</ele><time>2026-04-26T07:37:58Z</time></trkpt><trkpt lat="45.59918477152441" lon="10.724308127206756"><ele>267.0</ele><time>2026-04-26T07:37:59Z</time></trkpt><trkpt lat="45.59930288893587" lon="10.724262349242329"><ele>267.0</ele><time>2026-04-26T07:38:00Z</time></trkpt><trkpt lat="45.59939790892445" lon="10.724213964277801"><ele>267.0</ele><time>2026-04-26T07:38:01Z</time></trkpt><trkpt lat="45.59948043644118" lon="10.724163381786624"><ele>267.0</ele><time>2026-04-26T07:38:02Z</time></trkpt><trkpt lat="45.59959842075352" lon="10.724101307815465"><ele>267.2</ele><time>2026-04-26T07:38:03Z</time></trkpt><trkpt lat="45.599710761975444" lon="10.724044964483301"><ele>267.4</ele><time>2026-04-26T07:38:04Z</time></trkpt><trkpt lat="45.5998083475384" lon="10.724010139871908"><ele>267.6</ele><time>2026-04-26T07:38:05Z</time></trkpt><trkpt lat="45.599904851110274" lon="10.723970064784483"><ele>267.8</ele><time>2026-04-26T07:38:06Z</time></trkpt><trkpt lat="45.59999170800344" lon="10.723909450153494"><ele>268.0</ele><time>2026-04-26T07:38:07Z</time></trkpt><trkpt lat="45.60008373637105" lon="10.723827679864176"><ele>268.0</ele><time>2026-04-26T07:38:08Z</time></trkpt><trkpt lat="45.60018788268989" lon="10.72373485109098"><ele>268.0</ele><time>2026-04-26T07:38:09Z</time></trkpt><trkpt lat="45.60027574423576" lon="10.723660254993876"><ele>268.0</ele><time>2026-04-26T07:38:10Z</time></trkpt><trkpt lat="45.600340664231126" lon="10.72362432918455"><ele>268.0</ele><time>2026-04-26T07:38:11Z</time></trkpt><trkpt lat="45.60043062388503" lon="10.723598054281174"><ele>268.0</ele><time>2026-04-26T07:38:12Z</time></trkpt><trkpt lat="45.600530501838605" lon="10.723604482283864"><ele>269.25</ele><time>2026-04-26T07:38:13Z</time></trkpt><trkpt lat="45.60062632767144" lon="10.723631548471124"><ele>270.5</ele><time>2026-04-26T07:38:14Z</time></trkpt><trkpt lat="45.60074077712327" lon="10.723641864316596"><ele>271.75</ele><time>2026-04-26T07:38:15Z</time></trkpt><trkpt lat="45.6008567050622" lon="10.723592689858101"><ele>273.0</ele><time>2026-04-26T07:38:16Z</time></trkpt><trkpt lat="45.6009666025987" lon="10.723521401578365"><ele>273.0</ele><time>2026-04-26T07:38:17Z</time></trkpt><trkpt lat="45.60105777724745" lon="10.723430158570626"><ele>273.0</ele><time>2026-04-26T07:38:18Z</time></trkpt><trkpt lat="45.601163810388215" lon="10.723298399518606"><ele>273.0</ele><time>2026-04-26T07:38:19Z</time></trkpt><trkpt lat="45.601267722481765" lon="10.72317491221577"><ele>273.0</ele><time>2026-04-26T07:38:20Z</time></trkpt><trkpt lat="45.6013555048507" lon="10.723074168789404"><ele>274.0</ele><time>2026-04-26T07:38:21Z</time></trkpt><trkpt lat="45.60143580354323" lon="10.722984297941993"><ele>275.0</ele><time>2026-04-26T07:38:22Z</time></trkpt><trkpt lat="45.60150933588885" lon="10.722906677238274"><ele>276.0</ele><time>2026-04-26T07:38:23Z</time></trkpt><trkpt lat="45.601668667101414" lon="10.722982689960968"><ele>277.0</ele><time>2026-04-26T07:38:24Z</time></trkpt><trkpt lat="45.60172207089908" lon="10.72291911287436"><ele>278.0</ele><time>2026-04-26T07:38:25Z</time></trkpt><trkpt lat="45.601802988509476" lon="10.722841164237634"><ele>278.0</ele><time>2026-04-26T07:38:27Z</time></trkpt><trkpt lat="45.60186434964242" lon="10.722792020972243"><ele>278.0</ele><time>2026-04-26T07:38:30Z</time></trkpt><trkpt lat="45.60195780430039" lon="10.722736690843213"><ele>278.0</ele><time>2026-04-26T07:38:32Z</time></trkpt><trkpt lat="45.6020363958685" lon="10.722679981420379"><ele>278.0</ele><time>2026-04-26T07:38:33Z</time></trkpt><trkpt lat="45.60211363966826" lon="10.72267296630263"><ele>278.0</ele><time>2026-04-26T07:38:34Z</time></trkpt><trkpt lat="45.6021885270085" lon="10.722664101514749"><ele>278.0</ele><time>2026-04-26T07:38:35Z</time></trkpt><trkpt lat="45.60226928167043" lon="10.722652991803505"><ele>280.1666666666667</ele><time>2026-04-26T07:38:36Z</time></trkpt><trkpt lat="45.60232851660969" lon="10.722611959382217"><ele>282.33333333333337</ele><time>2026-04-26T07:38:37Z</time></trkpt><trkpt lat="45.60234646025713" lon="10.72245728501073"><ele>284.5</ele><time>2026-04-26T07:38:39Z</time></trkpt><trkpt lat="45.60234612496611" lon="10.722347777434676"><ele>286.6666666666667</ele><time>2026-04-26T07:38:40Z</time></trkpt><trkpt lat="45.60224914065825" lon="10.722294177980352"><ele>288.8333333333333</ele><time>2026-04-26T07:38:41Z</time></trkpt><trkpt lat="45.60217065273108" lon="10.722274513273224"><ele>291.0</ele><time>2026-04-26T07:38:42Z</time></trkpt><trkpt lat="45.60207110109492" lon="10.722283265986027"><ele>290.40000000000003</ele><time>2026-04-26T07:38:43Z</time></trkpt><trkpt lat="45.60197522106828" lon="10.722274280339798"><ele>289.8</ele><time>2026-04-26T07:38:44Z</time></trkpt><trkpt lat="45.6018769837301" lon="10.72227842055383"><ele>289.20000000000005</ele><time>2026-04-26T07:38:45Z</time></trkpt><trkpt lat="45.60178541659267" lon="10.722140579332443"><ele>288.6</ele><time>2026-04-26T07:38:46Z</time></trkpt><trkpt lat="45.60171768918487" lon="10.722009555092008"><ele>288.0</ele><time>2026-04-26T07:38:47Z</time></trkpt><trkpt lat="45.6016535269497" lon="10.721872334877988"><ele>288.0</ele><time>2026-04-26T07:38:48Z</time></trkpt><trkpt lat="45.60158204884227" lon="10.721715824804518"><ele>288.0</ele><time>2026-04-26T07:38:49Z</time></trkpt><trkpt lat="45.60150800686352" lon="10.721546996498212"><ele>288.0</ele><time>2026-04-26T07:38:50Z</time></trkpt><trkpt lat="45.60143027048344" lon="10.72138989381426"><ele>288.0</ele><time>2026-04-26T07:38:51Z</time></trkpt><trkpt lat="45.60133573326295" lon="10.721245665780039"><ele>288.0</ele><time>2026-04-26T07:38:52Z</time></trkpt><trkpt lat="45.60124501355003" lon="10.721094421355497"><ele>288.0</ele><time>2026-04-26T07:38:53Z</time></trkpt><trkpt lat="45.60113726798578" lon="10.720946601241785"><ele>288.0</ele><time>2026-04-26T07:38:54Z</time></trkpt><trkpt lat="45.60102875331072" lon="10.720840776751151"><ele>288.0</ele><time>2026-04-26T07:38:55Z</time></trkpt><trkpt lat="45.60091192203132" lon="10.720755355423652"><ele>287.0</ele><time>2026-04-26T07:38:56Z</time></trkpt><trkpt lat="45.600784394206684" lon="10.72069319975888"><ele>286.0</ele><time>2026-04-26T07:38:57Z</time></trkpt><trkpt lat="45.60065693433906" lon="10.720611916419132"><ele>285.0</ele><time>2026-04-26T07:38:58Z</time></trkpt><trkpt lat="45.60054772814792" lon="10.72053376528134"><ele>284.0</ele><time>2026-04-26T07:38:59Z</time></trkpt><trkpt lat="45.600449860002755" lon="10.720462981233712"><ele>284.0</ele><time>2026-04-26T07:39:00Z</time></trkpt><trkpt lat="45.60035365654152" lon="10.720380184903636"><ele>284.0</ele><time>2026-04-26T07:39:01Z</time></trkpt><trkpt lat="45.600263353411094" lon="10.720287849552463"><ele>284.0</ele><time>2026-04-26T07:39:02Z</time></trkpt><trkpt lat="45.60016505674486" lon="10.720184139503427"><ele>284.0</ele><time>2026-04-26T07:39:03Z</time></trkpt><trkpt lat="45.60006502936402" lon="10.720068010604727"><ele>284.0</ele><time>2026-04-26T07:39:04Z</time></trkpt><trkpt lat="45.5999681507084" lon="10.719931751088518"><ele>284.0</ele><time>2026-04-26T07:39:05Z</time></trkpt><trkpt lat="45.59987053074211" lon="10.719807471384192"><ele>284.0</ele><time>2026-04-26T07:39:06Z</time></trkpt><trkpt lat="45.59978237311574" lon="10.71965973727211"><ele>284.0</ele><time>2026-04-26T07:39:07Z</time></trkpt><trkpt lat="45.59970604391554" lon="10.719501886741103"><ele>284.75</ele><time>2026-04-26T07:39:08Z</time></trkpt><trkpt lat="45.599632897189544" lon="10.71933572539688"><ele>285.5</ele><time>2026-04-26T07:39:09Z</time></trkpt><trkpt lat="45.59956482878663" lon="10.719174592543341"><ele>286.25</ele><time>2026-04-26T07:39:10Z</time></trkpt><trkpt lat="45.59950067340776" lon="10.719023075204028"><ele>287.0</ele><time>2026-04-26T07:39:11Z</time></trkpt><trkpt lat="45.59943317565372" lon="10.718880577332927"><ele>285.2</ele><time>2026-04-26T07:39:12Z</time></trkpt><trkpt lat="45.599376764912854" lon="10.71875246651134"><ele>283.4</ele><time>2026-04-26T07:39:13Z</time></trkpt><trkpt lat="45.59931550445747" lon="10.718626182743392"><ele>281.6</ele><time>2026-04-26T07:39:14Z</time></trkpt><trkpt lat="45.59925134543406" lon="10.718518644637001"><ele>279.8</ele><time>2026-04-26T07:39:15Z</time></trkpt><trkpt lat="45.599188288667754" lon="10.718431756772853"><ele>278.0</ele><time>2026-04-26T07:39:16Z</time></trkpt><trkpt lat="45.599129825680244" lon="10.718369725675394"><ele>277.83333333333337</ele><time>2026-04-26T07:39:17Z</time></trkpt><trkpt lat="45.599076408179705" lon="10.718302925212235"><ele>277.6666666666667</ele><time>2026-04-26T07:39:18Z</time></trkpt><trkpt lat="45.59903052580728" lon="10.71823950754288"><ele>277.5</ele><time>2026-04-26T07:39:19Z</time></trkpt><trkpt lat="45.598954910437385" lon="10.718154425759394"><ele>277.3333333333333</ele><time>2026-04-26T07:39:21Z</time></trkpt><trkpt lat="45.59889900528182" lon="10.718093098976333"><ele>277.16666666666663</ele><time>2026-04-26T07:39:23Z</time></trkpt><trkpt lat="45.598958985870304" lon="10.718170796470769"><ele>277.0</ele><time>2026-04-26T07:39:29Z</time></trkpt><trkpt lat="45.59848564386884" lon="10.718020407012535"><ele>277.0</ele><time>2026-04-26T07:39:30Z</time></trkpt><trkpt lat="45.5990684117957" lon="10.718358604498537"><ele>277.0</ele><time>2026-04-26T07:39:31Z</time></trkpt><trkpt lat="45.59913296123635" lon="10.718433642659143"><ele>277.0</ele><time>2026-04-26T07:39:32Z</time></trkpt><trkpt lat="45.59919916345442" lon="10.718516722525253"><ele>277.0</ele><time>2026-04-26T07:39:33Z</time></trkpt><trkpt lat="45.59925538598626" lon="10.718605261971167"><ele>277.0</ele><time>2026-04-26T07:39:34Z</time></trkpt><trkpt lat="45.5993025484061" lon="10.718685018004669"><ele>277.0</ele><time>2026-04-26T07:39:35Z</time></trkpt><trkpt lat="45.599348691269356" lon="10.718759608942449"><ele>277.0</ele><time>2026-04-26T07:39:36Z</time></trkpt><trkpt lat="45.59939538935114" lon="10.718822293905115"><ele>277.2</ele><time>2026-04-26T07:39:37Z</time></trkpt><trkpt lat="45.59946899740554" lon="10.718859523661385"><ele>277.4</ele><time>2026-04-26T07:39:39Z</time></trkpt><trkpt lat="45.59955587046664" lon="10.718736554699"><ele>277.6</ele><time>2026-04-26T07:39:41Z</time></trkpt><trkpt lat="45.59959694858393" lon="10.71864173941445"><ele>277.8</ele><time>2026-04-26T07:39:42Z</time></trkpt><trkpt lat="45.59965853850641" lon="10.718545488154756"><ele>278.0</ele><time>2026-04-26T07:39:43Z</time></trkpt><trkpt lat="45.59970913200249" lon="10.718423518057982"><ele>279.4</ele><time>2026-04-26T07:39:44Z</time></trkpt><trkpt lat="45.59975260987095" lon="10.718314185914418"><ele>280.8</ele><time>2026-04-26T07:39:45Z</time></trkpt><trkpt lat="45.59979930648059" lon="10.718196759721293"><ele>282.2</ele><time>2026-04-26T07:39:46Z</time></trkpt><trkpt lat="45.5998472115778" lon="10.718049856430458"><ele>283.6</ele><time>2026-04-26T07:39:47Z</time></trkpt><trkpt lat="45.59990580485019" lon="10.717918711450809"><ele>285.0</ele><time>2026-04-26T07:39:48Z</time></trkpt><trkpt lat="45.59996516357687" lon="10.71779427502918"><ele>284.8</ele><time>2026-04-26T07:39:49Z</time></trkpt><trkpt lat="45.60002312849647" lon="10.717662011720451"><ele>284.6</ele><time>2026-04-26T07:39:50Z</time></trkpt><trkpt lat="45.60007702894344" lon="10.717546023429502"><ele>284.4</ele><time>2026-04-26T07:39:51Z</time></trkpt><trkpt lat="45.60013357959429" lon="10.717464240765642"><ele>284.2</ele><time>2026-04-26T07:39:52Z</time></trkpt><trkpt lat="45.600211891130506" lon="10.717378100280516"><ele>284.0</ele><time>2026-04-26T07:39:53Z</time></trkpt><trkpt lat="45.60031553359068" lon="10.717313617666688"><ele>285.75</ele><time>2026-04-26T07:39:54Z</time></trkpt><trkpt lat="45.60042332028373" lon="10.717241986363696"><ele>287.5</ele><time>2026-04-26T07:39:55Z</time></trkpt><trkpt lat="45.60051821275042" lon="10.717155660810652"><ele>289.25</ele><time>2026-04-26T07:39:56Z</time></trkpt><trkpt lat="45.600633156942706" lon="10.717093895028716"><ele>291.0</ele><time>2026-04-26T07:39:57Z</time></trkpt><trkpt lat="45.60076751711802" lon="10.717020813163806"><ele>291.0</ele><time>2026-04-26T07:39:58Z</time></trkpt><trkpt lat="45.60087133087802" lon="10.716950558927532"><ele>291.0</ele><time>2026-04-26T07:39:59Z</time></trkpt><trkpt lat="45.60095154077614" lon="10.716874164602466"><ele>291.0</ele><time>2026-04-26T07:40:00Z</time></trkpt><trkpt lat="45.601011890902356" lon="10.716796497359876"><ele>291.0</ele><time>2026-04-26T07:40:01Z</time></trkpt><trkpt lat="45.601086313295745" lon="10.716750818507402"><ele>291.0</ele><time>2026-04-26T07:40:02Z</time></trkpt><trkpt lat="45.60117929705857" lon="10.716737854279133"><ele>292.5</ele><time>2026-04-26T07:40:04Z</time></trkpt><trkpt lat="45.60121679736502" lon="10.71686613163521"><ele>294.0</ele><time>2026-04-26T07:40:06Z</time></trkpt><trkpt lat="45.60128889112517" lon="10.716935568721013"><ele>295.5</ele><time>2026-04-26T07:40:09Z</time></trkpt><trkpt lat="45.60142122184329" lon="10.71689323324544"><ele>297.0</ele><time>2026-04-26T07:40:10Z</time></trkpt><trkpt lat="45.60152141382784" lon="10.716746159727391"><ele>297.0</ele><time>2026-04-26T07:40:11Z</time></trkpt><trkpt lat="45.60155627584968" lon="10.716842676527575"><ele>297.0</ele><time>2026-04-26T07:40:12Z</time></trkpt><trkpt lat="45.601686626846046" lon="10.716741273483512"><ele>297.0</ele><time>2026-04-26T07:40:14Z</time></trkpt><trkpt lat="45.60173269807326" lon="10.716467221143972"><ele>297.0</ele><time>2026-04-26T07:40:15Z</time></trkpt><trkpt lat="45.60176246196366" lon="10.71631992851808"><ele>297.0</ele><time>2026-04-26T07:40:17Z</time></trkpt><trkpt lat="45.6017756467642" lon="10.71619435882743"><ele>297.0</ele><time>2026-04-26T07:40:19Z</time></trkpt><trkpt lat="45.601804087187816" lon="10.71609405109023"><ele>297.0</ele><time>2026-04-26T07:40:22Z</time></trkpt><trkpt lat="45.6018335122174" lon="10.71600012543038"><ele>297.0</ele><time>2026-04-26T07:40:25Z</time></trkpt><trkpt lat="45.60190747049459" lon="10.715963414940228"><ele>297.0</ele><time>2026-04-26T07:40:30Z</time></trkpt><trkpt lat="45.6020073805901" lon="10.715978472632258"><ele>297.0</ele><time>2026-04-26T07:40:32Z</time></trkpt><trkpt lat="45.602081003894064" lon="10.715983843988907"><ele>297.3333333333333</ele><time>2026-04-26T07:40:37Z</time></trkpt><trkpt lat="45.60215387381177" lon="10.715990038951652"><ele>297.6666666666667</ele><time>2026-04-26T07:40:40Z</time></trkpt><trkpt lat="45.60226412484486" lon="10.715997719204989"><ele>298.0</ele><time>2026-04-26T07:40:42Z</time></trkpt><trkpt lat="45.60234087838087" lon="10.716004796279547"><ele>298.33333333333337</ele><time>2026-04-26T07:40:43Z</time></trkpt><trkpt lat="45.602412887604835" lon="10.71601601411079"><ele>298.6666666666667</ele><time>2026-04-26T07:40:44Z</time></trkpt><trkpt lat="45.602499377757056" lon="10.716019040656683"><ele>299.0</ele><time>2026-04-26T07:40:45Z</time></trkpt><trkpt lat="45.602597760233984" lon="10.716013396374464"><ele>299.0</ele><time>2026-04-26T07:40:46Z</time></trkpt><trkpt lat="45.60269040872168" lon="10.716010947446094"><ele>299.0</ele><time>2026-04-26T07:40:47Z</time></trkpt><trkpt lat="45.60279111537139" lon="10.716000801461623"><ele>299.0</ele><time>2026-04-26T07:40:48Z</time></trkpt><trkpt lat="45.60287602752275" lon="10.715980437197388"><ele>299.0</ele><time>2026-04-26T07:40:49Z</time></trkpt><trkpt lat="45.60294947682295" lon="10.715939717301199"><ele>299.0</ele><time>2026-04-26T07:40:50Z</time></trkpt><trkpt lat="45.603034421163024" lon="10.71584724348066"><ele>301.2</ele><time>2026-04-26T07:40:51Z</time></trkpt><trkpt lat="45.60311009218749" lon="10.715759309704126"><ele>303.4</ele><time>2026-04-26T07:40:52Z</time></trkpt><trkpt lat="45.60319438874322" lon="10.715671213552246"><ele>305.6</ele><time>2026-04-26T07:40:53Z</time></trkpt><trkpt lat="45.60330389387269" lon="10.715601084775786"><ele>307.8</ele><time>2026-04-26T07:40:54Z</time></trkpt><trkpt lat="45.60340869664358" lon="10.715557994446796"><ele>310.0</ele><time>2026-04-26T07:40:55Z</time></trkpt><trkpt lat="45.60350311114731" lon="10.715522425825323"><ele>310.0</ele><time>2026-04-26T07:40:56Z</time></trkpt><trkpt lat="45.603595202252336" lon="10.715507999718538"><ele>310.0</ele><time>2026-04-26T07:40:57Z</time></trkpt><trkpt lat="45.60367039292107" lon="10.715496559266166"><ele>310.0</ele><time>2026-04-26T07:40:58Z</time></trkpt><trkpt lat="45.603745838193184" lon="10.715501953381697"><ele>310.0</ele><time>2026-04-26T07:40:59Z</time></trkpt><trkpt lat="45.60382458608227" lon="10.71552024187725"><ele>310.0</ele><time>2026-04-26T07:41:00Z</time></trkpt><trkpt lat="45.603924531677485" lon="10.715516425469982"><ele>310.0</ele><time>2026-04-26T07:41:01Z</time></trkpt><trkpt lat="45.60401331777934" lon="10.715527191418436"><ele>311.0</ele><time>2026-04-26T07:41:02Z</time></trkpt><trkpt lat="45.604114904896534" lon="10.715538226897312"><ele>312.0</ele><time>2026-04-26T07:41:03Z</time></trkpt><trkpt lat="45.6042242771467" lon="10.715545094536065"><ele>313.0</ele><time>2026-04-26T07:41:04Z</time></trkpt><trkpt lat="45.60433531846986" lon="10.715553120641223"><ele>314.0</ele><time>2026-04-26T07:41:05Z</time></trkpt><trkpt lat="45.60443866110937" lon="10.715551529260233"><ele>315.0</ele><time>2026-04-26T07:41:06Z</time></trkpt><trkpt lat="45.604537509902435" lon="10.715537891649983"><ele>316.0</ele><time>2026-04-26T07:41:07Z</time></trkpt><trkpt lat="45.604630737222955" lon="10.715526232023661"><ele>317.0</ele><time>2026-04-26T07:41:08Z</time></trkpt><trkpt lat="45.6047444507598" lon="10.715513462293616"><ele>318.0</ele><time>2026-04-26T07:41:09Z</time></trkpt><trkpt lat="45.60486688171974" lon="10.715498101098026"><ele>319.0</ele><time>2026-04-26T07:41:10Z</time></trkpt><trkpt lat="45.60496786344541" lon="10.715483579317496"><ele>320.0</ele><time>2026-04-26T07:41:11Z</time></trkpt><trkpt lat="45.60504593022598" lon="10.715483443146539"><ele>320.0</ele><time>2026-04-26T07:41:12Z</time></trkpt><trkpt lat="45.605148280053925" lon="10.715493071244026"><ele>320.0</ele><time>2026-04-26T07:41:13Z</time></trkpt><trkpt lat="45.60525035132786" lon="10.71549501358299"><ele>320.0</ele><time>2026-04-26T07:41:14Z</time></trkpt><trkpt lat="45.60533003592722" lon="10.715496564098675"><ele>320.0</ele><time>2026-04-26T07:41:15Z</time></trkpt><trkpt lat="45.605403453725636" lon="10.715506524221594"><ele>320.0</ele><time>2026-04-26T07:41:16Z</time></trkpt><trkpt lat="45.60549687417559" lon="10.715467210323265"><ele>320.83333333333337</ele><time>2026-04-26T07:41:18Z</time></trkpt><trkpt lat="45.60556279299764" lon="10.715443367026337"><ele>321.6666666666667</ele><time>2026-04-26T07:41:19Z</time></trkpt><trkpt lat="45.60564114394786" lon="10.715434968386724"><ele>322.5</ele><time>2026-04-26T07:41:20Z</time></trkpt><trkpt lat="45.60571127261909" lon="10.715434689094693"><ele>323.3333333333333</ele><time>2026-04-26T07:41:21Z</time></trkpt><trkpt lat="45.605812693641084" lon="10.715371845265103"><ele>324.16666666666663</ele><time>2026-04-26T07:41:23Z</time></trkpt><trkpt lat="45.60590971758386" lon="10.715338337142926"><ele>325.0</ele><time>2026-04-26T07:41:25Z</time></trkpt><trkpt lat="45.60599728469056" lon="10.715275317409443"><ele>325.0</ele><time>2026-04-26T07:41:27Z</time></trkpt><trkpt lat="45.60606372850872" lon="10.71525452812185"><ele>325.0</ele><time>2026-04-26T07:41:30Z</time></trkpt><trkpt lat="45.60615388472192" lon="10.715173130309978"><ele>325.0</ele><time>2026-04-26T07:41:32Z</time></trkpt><trkpt lat="45.606214186728" lon="10.715137295049177"><ele>325.0</ele><time>2026-04-26T07:41:34Z</time></trkpt><trkpt lat="45.60627720126432" lon="10.715102254411907"><ele>325.0</ele><time>2026-04-26T07:42:37Z</time></trkpt><trkpt lat="45.606348083770634" lon="10.715109204515151"><ele>325.0</ele><time>2026-04-26T07:42:41Z</time></trkpt><trkpt lat="45.60643608943744" lon="10.715059368882157"><ele>324.8333333333333</ele><time>2026-04-26T07:43:07Z</time></trkpt><trkpt lat="45.606496436045546" lon="10.715000685175204"><ele>324.66666666666663</ele><time>2026-04-26T07:43:09Z</time></trkpt><trkpt lat="45.60655565675903" lon="10.715064868126477"><ele>324.5</ele><time>2026-04-26T07:43:13Z</time></trkpt><trkpt lat="45.60656218037895" lon="10.715226599680472"><ele>324.3333333333333</ele><time>2026-04-26T07:43:17Z</time></trkpt><trkpt lat="45.60654495359914" lon="10.715334533762377"><ele>324.1666666666667</ele><time>2026-04-26T07:43:18Z</time></trkpt><trkpt lat="45.60653237447342" lon="10.715446858252943"><ele>324.0</ele><time>2026-04-26T07:43:19Z</time></trkpt><trkpt lat="45.60651169299088" lon="10.715538556418243"><ele>324.2</ele><time>2026-04-26T07:43:20Z</time></trkpt><trkpt lat="45.60644468419195" lon="10.715630154608709"><ele>324.4</ele><time>2026-04-26T07:43:22Z</time></trkpt><trkpt lat="45.60630481003986" lon="10.715685059686976"><ele>324.6</ele><time>2026-04-26T07:43:24Z</time></trkpt><trkpt lat="45.606241404398155" lon="10.715681712444228"><ele>324.8</ele><time>2026-04-26T07:43:25Z</time></trkpt><trkpt lat="45.606178124142076" lon="10.715697110946449"><ele>325.0</ele><time>2026-04-26T07:43:26Z</time></trkpt><trkpt lat="45.606079868440794" lon="10.715758674845057"><ele>325.0</ele><time>2026-04-26T07:43:28Z</time></trkpt><trkpt lat="45.605998988187125" lon="10.715784201282911"><ele>325.0</ele><time>2026-04-26T07:43:30Z</time></trkpt><trkpt lat="45.605907709471154" lon="10.715796762171486"><ele>325.0</ele><time>2026-04-26T07:43:32Z</time></trkpt><trkpt lat="45.60579091523557" lon="10.715825053394097"><ele>325.0</ele><time>2026-04-26T07:43:34Z</time></trkpt><trkpt lat="45.60569953408041" lon="10.715868929899893"><ele>325.0</ele><time>2026-04-26T07:43:36Z</time></trkpt><trkpt lat="45.60563080383759" lon="10.715874891216915"><ele>325.0</ele><time>2026-04-26T07:43:37Z</time></trkpt><trkpt lat="45.605565396582826" lon="10.715894814495448"><ele>325.0</ele><time>2026-04-26T07:43:38Z</time></trkpt><trkpt lat="45.60549613837626" lon="10.715898807521846"><ele>325.0</ele><time>2026-04-26T07:43:39Z</time></trkpt><trkpt lat="45.60539690805862" lon="10.715910238987147"><ele>325.0</ele><time>2026-04-26T07:43:41Z</time></trkpt><trkpt lat="45.60528699930133" lon="10.715922207953469"><ele>325.0</ele><time>2026-04-26T07:43:43Z</time></trkpt><trkpt lat="45.605185785236316" lon="10.715929529264365"><ele>325.0</ele><time>2026-04-26T07:43:45Z</time></trkpt><trkpt lat="45.605064610088405" lon="10.715946904852741"><ele>324.16666666666663</ele><time>2026-04-26T07:43:47Z</time></trkpt><trkpt lat="45.60499455951069" lon="10.715950839479433"><ele>323.3333333333333</ele><time>2026-04-26T07:43:48Z</time></trkpt><trkpt lat="45.60489388909763" lon="10.715984121033614"><ele>322.5</ele><time>2026-04-26T07:43:49Z</time></trkpt><trkpt lat="45.60481343462159" lon="10.716012888592754"><ele>321.6666666666667</ele><time>2026-04-26T07:43:50Z</time></trkpt><trkpt lat="45.60472770501807" lon="10.716020750386985"><ele>320.83333333333337</ele><time>2026-04-26T07:43:51Z</time></trkpt><trkpt lat="45.60463100187885" lon="10.716043892317867"><ele>320.0</ele><time>2026-04-26T07:43:52Z</time></trkpt><trkpt lat="45.60455105313106" lon="10.716053755145804"><ele>319.1666666666667</ele><time>2026-04-26T07:43:53Z</time></trkpt><trkpt lat="45.60447646545519" lon="10.716060496209918"><ele>318.33333333333337</ele><time>2026-04-26T07:43:54Z</time></trkpt><trkpt lat="45.604400828340715" lon="10.716064922140289"><ele>317.5</ele><time>2026-04-26T07:43:55Z</time></trkpt><trkpt lat="45.604325246504175" lon="10.71608439907754"><ele>316.6666666666667</ele><time>2026-04-26T07:43:56Z</time></trkpt><trkpt lat="45.60424612335668" lon="10.716085461341736"><ele>315.8333333333333</ele><time>2026-04-26T07:43:57Z</time></trkpt><trkpt lat="45.60417992958389" lon="10.716087601863974"><ele>315.0</ele><time>2026-04-26T07:43:58Z</time></trkpt><trkpt lat="45.604057750546545" lon="10.716114193870444"><ele>315.4</ele><time>2026-04-26T07:44:00Z</time></trkpt><trkpt lat="45.603952724844895" lon="10.716134572021803"><ele>315.8</ele><time>2026-04-26T07:44:01Z</time></trkpt><trkpt lat="45.60386478405392" lon="10.716146531820545"><ele>316.2</ele><time>2026-04-26T07:44:02Z</time></trkpt><trkpt lat="45.603792828025966" lon="10.716168569669387"><ele>316.6</ele><time>2026-04-26T07:44:03Z</time></trkpt><trkpt lat="45.60369775764005" lon="10.716250093598545"><ele>317.0</ele><time>2026-04-26T07:44:05Z</time></trkpt><trkpt lat="45.603595989909834" lon="10.716356435898636"><ele>317.0</ele><time>2026-04-26T07:44:07Z</time></trkpt><trkpt lat="45.60355818543979" lon="10.716445166564775"><ele>317.0</ele><time>2026-04-26T07:44:08Z</time></trkpt><trkpt lat="45.603542891089624" lon="10.71653305833751"><ele>317.0</ele><time>2026-04-26T07:44:09Z</time></trkpt><trkpt lat="45.60354136480814" lon="10.71670855288785"><ele>317.0</ele><time>2026-04-26T07:44:11Z</time></trkpt><trkpt lat="45.60354635671612" lon="10.716812559462044"><ele>317.0</ele><time>2026-04-26T07:44:12Z</time></trkpt><trkpt lat="45.603545111598464" lon="10.716969258523239"><ele>317.0</ele><time>2026-04-26T07:44:14Z</time></trkpt><trkpt lat="45.603535458993306" lon="10.717058335672972"><ele>317.0</ele><time>2026-04-26T07:44:15Z</time></trkpt><trkpt lat="45.60352028736086" lon="10.717253862418984"><ele>317.0</ele><time>2026-04-26T07:44:17Z</time></trkpt><trkpt lat="45.603523103999635" lon="10.717409195786844"><ele>317.0</ele><time>2026-04-26T07:44:19Z</time></trkpt><trkpt lat="45.60355938460962" lon="10.7175991821469"><ele>317.0</ele><time>2026-04-26T07:44:21Z</time></trkpt><trkpt lat="45.60358600015765" lon="10.717685923258466"><ele>316.83333333333337</ele><time>2026-04-26T07:44:22Z</time></trkpt><trkpt lat="45.60362084706847" lon="10.717813379305657"><ele>316.6666666666667</ele><time>2026-04-26T07:44:24Z</time></trkpt><trkpt lat="45.60362825570372" lon="10.71794586324217"><ele>316.5</ele><time>2026-04-26T07:44:26Z</time></trkpt><trkpt lat="45.603580358482795" lon="10.718103805927212"><ele>316.3333333333333</ele><time>2026-04-26T07:44:28Z</time></trkpt><trkpt lat="45.603531843140374" lon="10.718176674893963"><ele>316.16666666666663</ele><time>2026-04-26T07:44:29Z</time></trkpt><trkpt lat="45.60349014624562" lon="10.718251949363358"><ele>316.0</ele><time>2026-04-26T07:44:30Z</time></trkpt><trkpt lat="45.60345273501572" lon="10.718351667016842"><ele>316.0</ele><time>2026-04-26T07:44:31Z</time></trkpt><trkpt lat="45.603382536288926" lon="10.718438225862151"><ele>316.0</ele><time>2026-04-26T07:44:32Z</time></trkpt><trkpt lat="45.603330434415994" lon="10.718520335093606"><ele>316.0</ele><time>2026-04-26T07:44:33Z</time></trkpt><trkpt lat="45.60328846935435" lon="10.718590847432992"><ele>316.0</ele><time>2026-04-26T07:44:34Z</time></trkpt><trkpt lat="45.603245015978864" lon="10.71873217778567"><ele>316.0</ele><time>2026-04-26T07:44:36Z</time></trkpt><trkpt lat="45.60324773989694" lon="10.71889478245703"><ele>316.0</ele><time>2026-04-26T07:44:38Z</time></trkpt><trkpt lat="45.60329419735971" lon="10.719017634120904"><ele>316.0</ele><time>2026-04-26T07:44:40Z</time></trkpt><trkpt lat="45.60331576482962" lon="10.719114994343384"><ele>316.0</ele><time>2026-04-26T07:44:41Z</time></trkpt><trkpt lat="45.60333196050035" lon="10.719208522931295"><ele>316.0</ele><time>2026-04-26T07:44:42Z</time></trkpt><trkpt lat="45.60334891812642" lon="10.719312892707862"><ele>316.0</ele><time>2026-04-26T07:44:44Z</time></trkpt><trkpt lat="45.60351255634307" lon="10.719405739849337"><ele>316.0</ele><time>2026-04-26T07:44:48Z</time></trkpt><trkpt lat="45.60358861658593" lon="10.719460065538877"><ele>316.0</ele><time>2026-04-26T07:44:49Z</time></trkpt><trkpt lat="45.60365051429188" lon="10.719519860237938"><ele>316.0</ele><time>2026-04-26T07:44:50Z</time></trkpt><trkpt lat="45.60372079454558" lon="10.719599654737564"><ele>316.0</ele><time>2026-04-26T07:44:51Z</time></trkpt><trkpt lat="45.603810075080226" lon="10.719638918487085"><ele>316.0</ele><time>2026-04-26T07:44:52Z</time></trkpt><trkpt lat="45.60389707884836" lon="10.719657499183526"><ele>316.0</ele><time>2026-04-26T07:44:53Z</time></trkpt><trkpt lat="45.603972364651476" lon="10.719650802658462"><ele>316.0</ele><time>2026-04-26T07:44:54Z</time></trkpt><trkpt lat="45.604044748822815" lon="10.719647846807577"><ele>316.0</ele><time>2026-04-26T07:44:55Z</time></trkpt><trkpt lat="45.60412514607994" lon="10.719698602186098"><ele>316.0</ele><time>2026-04-26T07:44:56Z</time></trkpt><trkpt lat="45.6041930299429" lon="10.719741524571633"><ele>316.0</ele><time>2026-04-26T07:44:57Z</time></trkpt><trkpt lat="45.60427519207418" lon="10.719786265758627"><ele>316.0</ele><time>2026-04-26T07:44:58Z</time></trkpt><trkpt lat="45.604329357441586" lon="10.719857175189949"><ele>316.0</ele><time>2026-04-26T07:44:59Z</time></trkpt><trkpt lat="45.60439583554992" lon="10.719951089227738"><ele>316.0</ele><time>2026-04-26T07:45:00Z</time></trkpt><trkpt lat="45.604465913534064" lon="10.720037187106593"><ele>316.0</ele><time>2026-04-26T07:45:01Z</time></trkpt><trkpt lat="45.60453354756029" lon="10.72012044057589"><ele>316.0</ele><time>2026-04-26T07:45:02Z</time></trkpt><trkpt lat="45.60460075435766" lon="10.720221777445724"><ele>316.0</ele><time>2026-04-26T07:45:03Z</time></trkpt><trkpt lat="45.604639080567836" lon="10.720301200273427"><ele>316.0</ele><time>2026-04-26T07:45:04Z</time></trkpt><trkpt lat="45.604694633582106" lon="10.720384302637116"><ele>316.0</ele><time>2026-04-26T07:45:05Z</time></trkpt><trkpt lat="45.604760794476135" lon="10.7204916783373"><ele>317.0</ele><time>2026-04-26T07:45:06Z</time></trkpt><trkpt lat="45.60481935079727" lon="10.720582989446736"><ele>318.0</ele><time>2026-04-26T07:45:07Z</time></trkpt><trkpt lat="45.60484199351599" lon="10.720712567367041"><ele>319.0</ele><time>2026-04-26T07:45:08Z</time></trkpt><trkpt lat="45.604889643158664" lon="10.720838737385373"><ele>320.0</ele><time>2026-04-26T07:45:09Z</time></trkpt><trkpt lat="45.60492457091534" lon="10.720972675806019"><ele>321.0</ele><time>2026-04-26T07:45:10Z</time></trkpt><trkpt lat="45.60496565594792" lon="10.721111728449635"><ele>321.0</ele><time>2026-04-26T07:45:11Z</time></trkpt><trkpt lat="45.605008162491536" lon="10.72124977483111"><ele>321.0</ele><time>2026-04-26T07:45:12Z</time></trkpt><trkpt lat="45.60504552792335" lon="10.721381316995515"><ele>321.0</ele><time>2026-04-26T07:45:13Z</time></trkpt><trkpt lat="45.605077042878975" lon="10.72148945510285"><ele>321.0</ele><time>2026-04-26T07:45:14Z</time></trkpt><trkpt lat="45.605109592704785" lon="10.721583946389378"><ele>321.0</ele><time>2026-04-26T07:45:15Z</time></trkpt><trkpt lat="45.60516043979541" lon="10.721731162565032"><ele>321.0</ele><time>2026-04-26T07:45:17Z</time></trkpt><trkpt lat="45.605214445685135" lon="10.72180635607082"><ele>321.0</ele><time>2026-04-26T07:45:19Z</time></trkpt><trkpt lat="45.605315469729824" lon="10.721740430523631"><ele>321.0</ele><time>2026-04-26T07:45:23Z</time></trkpt><trkpt lat="45.60535629941602" lon="10.721651948654694"><ele>321.0</ele><time>2026-04-26T07:45:24Z</time></trkpt><trkpt lat="45.60539737741177" lon="10.721579050841804"><ele>321.0</ele><time>2026-04-26T07:45:25Z</time></trkpt><trkpt lat="45.605466726690366" lon="10.721505722954939"><ele>321.0</ele><time>2026-04-26T07:45:26Z</time></trkpt><trkpt lat="45.60552480764954" lon="10.721384659906244"><ele>322.1666666666667</ele><time>2026-04-26T07:45:27Z</time></trkpt><trkpt lat="45.60557993931842" lon="10.72132904282438"><ele>323.3333333333333</ele><time>2026-04-26T07:45:28Z</time></trkpt><trkpt lat="45.60566111483746" lon="10.721333656133542"><ele>324.5</ele><time>2026-04-26T07:45:29Z</time></trkpt><trkpt lat="45.60574191561836" lon="10.721294710771977"><ele>325.66666666666663</ele><time>2026-04-26T07:45:30Z</time></trkpt><trkpt lat="45.60583489472538" lon="10.721270584321028"><ele>326.8333333333333</ele><time>2026-04-26T07:45:31Z</time></trkpt><trkpt lat="45.60589885985225" lon="10.721240565016679"><ele>328.0</ele><time>2026-04-26T07:45:32Z</time></trkpt><trkpt lat="45.60597192533614" lon="10.721180407539071"><ele>328.0</ele><time>2026-04-26T07:45:33Z</time></trkpt><trkpt lat="45.60604064508697" lon="10.721100082494381"><ele>328.0</ele><time>2026-04-26T07:45:34Z</time></trkpt><trkpt lat="45.60607986352361" lon="10.720996389203227"><ele>328.0</ele><time>2026-04-26T07:45:35Z</time></trkpt><trkpt lat="45.60609968363649" lon="10.720884740949328"><ele>328.0</ele><time>2026-04-26T07:45:36Z</time></trkpt><trkpt lat="45.60612301722751" lon="10.720759884588801"><ele>328.0</ele><time>2026-04-26T07:45:37Z</time></trkpt><trkpt lat="45.60615496506643" lon="10.720639023028612"><ele>328.0</ele><time>2026-04-26T07:45:38Z</time></trkpt><trkpt lat="45.60618279389449" lon="10.720536869220242"><ele>329.3333333333333</ele><time>2026-04-26T07:45:39Z</time></trkpt><trkpt lat="45.60624676258949" lon="10.720415531118295"><ele>330.66666666666663</ele><time>2026-04-26T07:45:40Z</time></trkpt><trkpt lat="45.606308173354776" lon="10.72032484527147"><ele>332.0</ele><time>2026-04-26T07:45:41Z</time></trkpt><trkpt lat="45.606362041995126" lon="10.720263643941417"><ele>333.3333333333333</ele><time>2026-04-26T07:45:42Z</time></trkpt><trkpt lat="45.60642431444274" lon="10.720201524817004"><ele>334.6666666666667</ele><time>2026-04-26T07:45:43Z</time></trkpt><trkpt lat="45.60649373400129" lon="10.720115294668618"><ele>336.0</ele><time>2026-04-26T07:45:44Z</time></trkpt><trkpt lat="45.606573541654946" lon="10.72004411537094"><ele>337.0</ele><time>2026-04-26T07:45:45Z</time></trkpt><trkpt lat="45.60665334252984" lon="10.719969431288423"><ele>338.0</ele><time>2026-04-26T07:45:46Z</time></trkpt><trkpt lat="45.606704739195" lon="10.719916074920016"><ele>339.0</ele><time>2026-04-26T07:45:47Z</time></trkpt><trkpt lat="45.60674819661355" lon="10.719842478802642"><ele>340.0</ele><time>2026-04-26T07:45:49Z</time></trkpt><trkpt lat="45.60678471987794" lon="10.719674212002259"><ele>341.0</ele><time>2026-04-26T07:45:51Z</time></trkpt><trkpt lat="45.60674077096324" lon="10.71956089565"><ele>342.0</ele><time>2026-04-26T07:45:52Z</time></trkpt><trkpt lat="45.6067085737436" lon="10.719438492499613"><ele>343.0</ele><time>2026-04-26T07:45:53Z</time></trkpt><trkpt lat="45.606663094559934" lon="10.7193098323636"><ele>344.0</ele><time>2026-04-26T07:45:55Z</time></trkpt><trkpt lat="45.60662410221984" lon="10.71919068722057"><ele>345.0</ele><time>2026-04-26T07:45:57Z</time></trkpt><trkpt lat="45.60662930750396" lon="10.719064189980479"><ele>346.0</ele><time>2026-04-26T07:45:59Z</time></trkpt><trkpt lat="45.60690178737524" lon="10.718922145272678"><ele>349.20000000000005</ele><time>2026-04-26T07:46:01Z</time></trkpt><trkpt lat="45.606994793304835" lon="10.718828634348325"><ele>352.40000000000003</ele><time>2026-04-26T07:46:03Z</time></trkpt><trkpt lat="45.6070873440603" lon="10.718752022868104"><ele>355.6</ele><time>2026-04-26T07:46:05Z</time></trkpt><trkpt lat="45.607162781409706" lon="10.718682075507344"><ele>358.8</ele><time>2026-04-26T07:46:07Z</time></trkpt><trkpt lat="45.60725565461643" lon="10.718593530307972"><ele>362.0</ele><time>2026-04-26T07:46:09Z</time></trkpt><trkpt lat="45.60732180847397" lon="10.718518640065406"><ele>362.1666666666667</ele><time>2026-04-26T07:46:11Z</time></trkpt><trkpt lat="45.60738471339745" lon="10.718417771325777"><ele>362.33333333333337</ele><time>2026-04-26T07:46:13Z</time></trkpt><trkpt lat="45.60739426732734" lon="10.718289526879353"><ele>362.5</ele><time>2026-04-26T07:46:15Z</time></trkpt><trkpt lat="45.60738807811684" lon="10.718182241137347"><ele>362.6666666666667</ele><time>2026-04-26T07:46:16Z</time></trkpt><trkpt lat="45.60738086957194" lon="10.718068812916378"><ele>362.8333333333333</ele><time>2026-04-26T07:46:17Z</time></trkpt><trkpt lat="45.60736268798955" lon="10.717958205817588"><ele>363.0</ele><time>2026-04-26T07:46:19Z</time></trkpt><trkpt lat="45.607347473206964" lon="10.717857297806306"><ele>363.0</ele><time>2026-04-26T07:46:21Z</time></trkpt><trkpt lat="45.607321551096724" lon="10.717751425220042"><ele>363.0</ele><time>2026-04-26T07:46:24Z</time></trkpt><trkpt lat="45.607294121177596" lon="10.717644797665567"><ele>363.0</ele><time>2026-04-26T07:46:26Z</time></trkpt><trkpt lat="45.60727147985858" lon="10.717535918800241"><ele>363.0</ele><time>2026-04-26T07:46:28Z</time></trkpt><trkpt lat="45.60724724900657" lon="10.717402132005018"><ele>363.0</ele><time>2026-04-26T07:46:30Z</time></trkpt><trkpt lat="45.60723466405262" lon="10.71730356994138"><ele>363.0</ele><time>2026-04-26T07:46:32Z</time></trkpt><trkpt lat="45.6072484692867" lon="10.71715031527123"><ele>362.6666666666667</ele><time>2026-04-26T07:46:34Z</time></trkpt><trkpt lat="45.60729918256982" lon="10.717087640099601"><ele>362.3333333333333</ele><time>2026-04-26T07:46:36Z</time></trkpt><trkpt lat="45.60738209382703" lon="10.71707985849876"><ele>362.0</ele><time>2026-04-26T07:46:38Z</time></trkpt><trkpt lat="45.60746730973791" lon="10.717111903126083"><ele>361.66666666666663</ele><time>2026-04-26T07:46:40Z</time></trkpt><trkpt lat="45.607586540927784" lon="10.717119567257367"><ele>361.3333333333333</ele><time>2026-04-26T07:46:42Z</time></trkpt><trkpt lat="45.607659088275824" lon="10.717120395666411"><ele>361.0</ele><time>2026-04-26T07:46:43Z</time></trkpt><trkpt lat="45.6077605435519" lon="10.71712837736567"><ele>363.3333333333333</ele><time>2026-04-26T07:46:45Z</time></trkpt><trkpt lat="45.607834277889616" lon="10.717126792971785"><ele>365.66666666666663</ele><time>2026-04-26T07:46:46Z</time></trkpt><trkpt lat="45.60790384392722" lon="10.71712944554425"><ele>368.0</ele><time>2026-04-26T07:46:47Z</time></trkpt><trkpt lat="45.60796812555325" lon="10.717127760810138"><ele>370.3333333333333</ele><time>2026-04-26T07:46:48Z</time></trkpt><trkpt lat="45.608069539530334" lon="10.717110142758811"><ele>372.6666666666667</ele><time>2026-04-26T07:46:50Z</time></trkpt><trkpt lat="45.60816508712422" lon="10.717127154072918"><ele>375.0</ele><time>2026-04-26T07:46:52Z</time></trkpt><trkpt lat="45.60825388079584" lon="10.71715368498289"><ele>375.0</ele><time>2026-04-26T07:46:54Z</time></trkpt><trkpt lat="45.60837456798686" lon="10.71716720635476"><ele>375.0</ele><time>2026-04-26T07:46:56Z</time></trkpt><trkpt lat="45.60847565616854" lon="10.717180080948498"><ele>375.0</ele><time>2026-04-26T07:46:58Z</time></trkpt><trkpt lat="45.6085431321913" lon="10.717186607232653"><ele>375.0</ele><time>2026-04-26T07:46:59Z</time></trkpt><trkpt lat="45.608615556841386" lon="10.717145431972796"><ele>375.0</ele><time>2026-04-26T07:47:01Z</time></trkpt><trkpt lat="45.60867965277673" lon="10.717110600030953"><ele>375.0</ele><time>2026-04-26T07:47:03Z</time></trkpt><trkpt lat="45.60878954200969" lon="10.717038820949403"><ele>376.0</ele><time>2026-04-26T07:47:05Z</time></trkpt><trkpt lat="45.608872090065795" lon="10.716988805055378"><ele>377.0</ele><time>2026-04-26T07:47:07Z</time></trkpt><trkpt lat="45.60895476649476" lon="10.716940443896528"><ele>378.0</ele><time>2026-04-26T07:47:09Z</time></trkpt><trkpt lat="45.60904388758534" lon="10.716869955472717"><ele>379.0</ele><time>2026-04-26T07:47:11Z</time></trkpt><trkpt lat="45.60914043882107" lon="10.71683830433548"><ele>380.0</ele><time>2026-04-26T07:47:13Z</time></trkpt><trkpt lat="45.60924880501294" lon="10.716802620860564"><ele>380.0</ele><time>2026-04-26T07:47:15Z</time></trkpt><trkpt lat="45.60937458303401" lon="10.716765181675397"><ele>380.0</ele><time>2026-04-26T07:47:17Z</time></trkpt><trkpt lat="45.60943678507611" lon="10.716739894017469"><ele>380.0</ele><time>2026-04-26T07:47:18Z</time></trkpt><trkpt lat="45.6095113051589" lon="10.716715279098551"><ele>380.0</ele><time>2026-04-26T07:47:19Z</time></trkpt><trkpt lat="45.6095970007825" lon="10.716681523565141"><ele>380.0</ele><time>2026-04-26T07:47:20Z</time></trkpt><trkpt lat="45.60967138913211" lon="10.716669789344966"><ele>380.0</ele><time>2026-04-26T07:47:21Z</time></trkpt><trkpt lat="45.60974708653202" lon="10.716654872121051"><ele>382.83333333333337</ele><time>2026-04-26T07:47:22Z</time></trkpt><trkpt lat="45.60981884040399" lon="10.716639480452969"><ele>385.6666666666667</ele><time>2026-04-26T07:47:23Z</time></trkpt><trkpt lat="45.60989743618057" lon="10.716617509788982"><ele>388.5</ele><time>2026-04-26T07:47:24Z</time></trkpt><trkpt lat="45.60997901719454" lon="10.716590805261596"><ele>391.33333333333337</ele><time>2026-04-26T07:47:25Z</time></trkpt><trkpt lat="45.61004677341644" lon="10.716565007723654"><ele>394.1666666666667</ele><time>2026-04-26T07:47:26Z</time></trkpt><trkpt lat="45.61012378966004" lon="10.7165301875168"><ele>397.0</ele><time>2026-04-26T07:47:27Z</time></trkpt><trkpt lat="45.61020465409579" lon="10.716493665250747"><ele>397.00000000000006</ele><time>2026-04-26T07:47:28Z</time></trkpt><trkpt lat="45.610280152559994" lon="10.716462894705598"><ele>397.0</ele><time>2026-04-26T07:47:29Z</time></trkpt><trkpt lat="45.61036498305839" lon="10.716426518742779"><ele>397.0</ele><time>2026-04-26T07:47:30Z</time></trkpt><trkpt lat="45.61043869375208" lon="10.716391595187089"><ele>397.0</ele><time>2026-04-26T07:47:31Z</time></trkpt><trkpt lat="45.61050397461281" lon="10.716358325601423"><ele>397.00000000000006</ele><time>2026-04-26T07:47:32Z</time></trkpt><trkpt lat="45.610580956400625" lon="10.71633272650391"><ele>397.0</ele><time>2026-04-26T07:47:33Z</time></trkpt><trkpt lat="45.61068004957304" lon="10.71630770525246"><ele>399.0</ele><time>2026-04-26T07:47:34Z</time></trkpt><trkpt lat="45.61079945897281" lon="10.71627770696851"><ele>401.0</ele><time>2026-04-26T07:47:35Z</time></trkpt><trkpt lat="45.61087752131421" lon="10.716246484943193"><ele>403.0</ele><time>2026-04-26T07:47:36Z</time></trkpt><trkpt lat="45.61097406485451" lon="10.716214547123041"><ele>405.0</ele><time>2026-04-26T07:47:37Z</time></trkpt><trkpt lat="45.61107597790024" lon="10.716200489369102"><ele>407.0</ele><time>2026-04-26T07:47:38Z</time></trkpt><trkpt lat="45.61117985213206" lon="10.716167129109406"><ele>408.49999999999994</ele><time>2026-04-26T07:47:39Z</time></trkpt><trkpt lat="45.61127130712433" lon="10.716131266690233"><ele>410.0</ele><time>2026-04-26T07:47:40Z</time></trkpt><trkpt lat="45.61136041434787" lon="10.71609710229611"><ele>411.5</ele><time>2026-04-26T07:47:41Z</time></trkpt><trkpt lat="45.611440598286684" lon="10.716068492306116"><ele>413.0</ele><time>2026-04-26T07:47:42Z</time></trkpt><trkpt lat="45.611511152149895" lon="10.716026944587208"><ele>414.49999999999994</ele><time>2026-04-26T07:47:43Z</time></trkpt><trkpt lat="45.611588556247916" lon="10.7159845481005"><ele>416.0</ele><time>2026-04-26T07:47:44Z</time></trkpt><trkpt lat="45.61166315689269" lon="10.715951587920415"><ele>412.66666666666663</ele><time>2026-04-26T07:47:45Z</time></trkpt><trkpt lat="45.61173682850543" lon="10.715923239058071"><ele>409.3333333333333</ele><time>2026-04-26T07:47:46Z</time></trkpt><trkpt lat="45.611817403951505" lon="10.715892622158535"><ele>406.0</ele><time>2026-04-26T07:47:47Z</time></trkpt><trkpt lat="45.611887329705525" lon="10.715864221763383"><ele>402.66666666666663</ele><time>2026-04-26T07:47:48Z</time></trkpt><trkpt lat="45.61195602610551" lon="10.715835476465045"><ele>399.3333333333333</ele><time>2026-04-26T07:47:49Z</time></trkpt><trkpt lat="45.61201699150826" lon="10.715810476357865"><ele>396.0</ele><time>2026-04-26T07:47:50Z</time></trkpt><trkpt lat="45.612137542346154" lon="10.715813483091258"><ele>395.6666666666667</ele><time>2026-04-26T07:47:52Z</time></trkpt><trkpt lat="45.61222208157746" lon="10.715844737205416"><ele>395.33333333333337</ele><time>2026-04-26T07:47:53Z</time></trkpt><trkpt lat="45.612296666385404" lon="10.715901454627778"><ele>395.0</ele><time>2026-04-26T07:47:54Z</time></trkpt><trkpt lat="45.612399557550845" lon="10.715959003224421"><ele>394.6666666666667</ele><time>2026-04-26T07:47:55Z</time></trkpt><trkpt lat="45.61246630323711" lon="10.715991677718298"><ele>394.33333333333337</ele><time>2026-04-26T07:47:56Z</time></trkpt><trkpt lat="45.61253613242062" lon="10.716001408583004"><ele>394.0</ele><time>2026-04-26T07:47:57Z</time></trkpt><trkpt lat="45.61266302543643" lon="10.715962422047538"><ele>394.0</ele><time>2026-04-26T07:47:59Z</time></trkpt><trkpt lat="45.61273756121189" lon="10.71592426985636"><ele>394.0</ele><time>2026-04-26T07:48:00Z</time></trkpt><trkpt lat="45.6128122110284" lon="10.715907314974045"><ele>394.0</ele><time>2026-04-26T07:48:01Z</time></trkpt><trkpt lat="45.612922244286054" lon="10.71596019736168"><ele>394.0</ele><time>2026-04-26T07:48:03Z</time></trkpt><trkpt lat="45.612995733106175" lon="10.71608213326577"><ele>394.0</ele><time>2026-04-26T07:48:05Z</time></trkpt><trkpt lat="45.61308346029835" lon="10.716185680407277"><ele>393.42857142857144</ele><time>2026-04-26T07:48:07Z</time></trkpt><trkpt lat="45.61315530705462" lon="10.716188249138272"><ele>392.8571428571429</ele><time>2026-04-26T07:48:08Z</time></trkpt><trkpt lat="45.61322872216447" lon="10.716161196156083"><ele>392.2857142857143</ele><time>2026-04-26T07:48:09Z</time></trkpt><trkpt lat="45.61332078071671" lon="10.716110239695766"><ele>391.7142857142857</ele><time>2026-04-26T07:48:10Z</time></trkpt><trkpt lat="45.61338785461195" lon="10.716070074719639"><ele>391.1428571428571</ele><time>2026-04-26T07:48:11Z</time></trkpt><trkpt lat="45.61344696894283" lon="10.716035657859843"><ele>390.57142857142856</ele><time>2026-04-26T07:48:12Z</time></trkpt><trkpt lat="45.6135086415583" lon="10.716010995132308"><ele>390.0</ele><time>2026-04-26T07:48:13Z</time></trkpt><trkpt lat="45.613572741926596" lon="10.715996934294337"><ele>390.4</ele><time>2026-04-26T07:48:14Z</time></trkpt><trkpt lat="45.613719549156215" lon="10.71603254634538"><ele>390.8</ele><time>2026-04-26T07:48:16Z</time></trkpt><trkpt lat="45.61378667522196" lon="10.716048922031813"><ele>391.20000000000005</ele><time>2026-04-26T07:48:17Z</time></trkpt><trkpt lat="45.61389770278545" lon="10.716074583926703"><ele>391.6</ele><time>2026-04-26T07:48:19Z</time></trkpt><trkpt lat="45.61396605098658" lon="10.716100636110008"><ele>392.0</ele><time>2026-04-26T07:48:20Z</time></trkpt><trkpt lat="45.61407710745841" lon="10.716143435558532"><ele>391.20000000000005</ele><time>2026-04-26T07:48:22Z</time></trkpt><trkpt lat="45.61416742714721" lon="10.716199430479808"><ele>390.4</ele><time>2026-04-26T07:48:24Z</time></trkpt><trkpt lat="45.614244777024886" lon="10.71619440492812"><ele>389.6</ele><time>2026-04-26T07:48:26Z</time></trkpt><trkpt lat="45.61434675640175" lon="10.716146582815258"><ele>388.79999999999995</ele><time>2026-04-26T07:48:28Z</time></trkpt><trkpt lat="45.61441338747162" lon="10.716127314681549"><ele>388.0</ele><time>2026-04-26T07:48:29Z</time></trkpt><trkpt lat="45.61451758874028" lon="10.716080409322343"><ele>388.59999999999997</ele><time>2026-04-26T07:48:31Z</time></trkpt><trkpt lat="45.61458974898444" lon="10.71605815187206"><ele>389.2</ele><time>2026-04-26T07:48:32Z</time></trkpt><trkpt lat="45.61469235594271" lon="10.71600931231056"><ele>389.8</ele><time>2026-04-26T07:48:34Z</time></trkpt><trkpt lat="45.614788278530035" lon="10.715931520238248"><ele>390.4</ele><time>2026-04-26T07:48:36Z</time></trkpt><trkpt lat="45.614881235635444" lon="10.715832448276469"><ele>391.0</ele><time>2026-04-26T07:48:38Z</time></trkpt><trkpt lat="45.614939961774205" lon="10.715781953074117"><ele>391.00000000000006</ele><time>2026-04-26T07:48:39Z</time></trkpt><trkpt lat="45.615026363208266" lon="10.715685760149029"><ele>391.0</ele><time>2026-04-26T07:48:41Z</time></trkpt><trkpt lat="45.61511080341462" lon="10.715610854103312"><ele>391.0</ele><time>2026-04-26T07:48:43Z</time></trkpt><trkpt lat="45.615167704251014" lon="10.715568578866554"><ele>391.0</ele><time>2026-04-26T07:48:44Z</time></trkpt><trkpt lat="45.61523185958878" lon="10.715536062476227"><ele>391.00000000000006</ele><time>2026-04-26T07:48:45Z</time></trkpt><trkpt lat="45.61533596992497" lon="10.715499210998566"><ele>391.0</ele><time>2026-04-26T07:48:47Z</time></trkpt><trkpt lat="45.61541018692133" lon="10.715443159452867"><ele>392.00000000000006</ele><time>2026-04-26T07:48:49Z</time></trkpt><trkpt lat="45.6154868805997" lon="10.715376809084097"><ele>393.0</ele><time>2026-04-26T07:48:51Z</time></trkpt><trkpt lat="45.61554528311284" lon="10.71531806404588"><ele>394.0</ele><time>2026-04-26T07:48:53Z</time></trkpt><trkpt lat="45.61560314370645" lon="10.715260128558272"><ele>395.0</ele><time>2026-04-26T07:48:55Z</time></trkpt><trkpt lat="45.615665463169805" lon="10.71532540813773"><ele>396.00000000000006</ele><time>2026-04-26T07:48:59Z</time></trkpt><trkpt lat="45.61566126086319" lon="10.715426030228656"><ele>397.0</ele><time>2026-04-26T07:49:01Z</time></trkpt><trkpt lat="45.61560888141753" lon="10.715557008760912"><ele>397.00000000000006</ele><time>2026-04-26T07:49:04Z</time></trkpt><trkpt lat="45.61554633983108" lon="10.715652246477493"><ele>397.0</ele><time>2026-04-26T07:49:06Z</time></trkpt><trkpt lat="45.61550352376581" lon="10.715732215271677"><ele>397.0</ele><time>2026-04-26T07:49:08Z</time></trkpt><trkpt lat="45.6154494253537" lon="10.715827466756304"><ele>397.0</ele><time>2026-04-26T07:49:10Z</time></trkpt><trkpt lat="45.61538476375814" lon="10.715924646341275"><ele>397.00000000000006</ele><time>2026-04-26T07:49:13Z</time></trkpt><trkpt lat="45.61534574298411" lon="10.716053747310566"><ele>397.0</ele><time>2026-04-26T07:49:15Z</time></trkpt><trkpt lat="45.615333638792244" lon="10.716142433456858"><ele>395.7142857142857</ele><time>2026-04-26T07:49:18Z</time></trkpt><trkpt lat="45.61532007815108" lon="10.71626183965675"><ele>394.42857142857144</ele><time>2026-04-26T07:49:22Z</time></trkpt><trkpt lat="45.6152880145327" lon="10.716339421323996"><ele>393.1428571428571</ele><time>2026-04-26T07:49:25Z</time></trkpt><trkpt lat="45.615250046050804" lon="10.716418644743761"><ele>391.8571428571429</ele><time>2026-04-26T07:49:27Z</time></trkpt><trkpt lat="45.61522911879087" lon="10.716521198205387"><ele>390.5714285714286</ele><time>2026-04-26T07:49:29Z</time></trkpt><trkpt lat="45.61515945032124" lon="10.71659439091399"><ele>389.2857142857143</ele><time>2026-04-26T07:49:32Z</time></trkpt><trkpt lat="45.61509660658007" lon="10.716630387231676"><ele>388.0</ele><time>2026-04-26T07:49:34Z</time></trkpt><trkpt lat="45.61503756723173" lon="10.716712915188904"><ele>388.00000000000006</ele><time>2026-04-26T07:49:37Z</time></trkpt><trkpt lat="45.61499159045998" lon="10.716787992196922"><ele>388.0</ele><time>2026-04-26T07:49:39Z</time></trkpt><trkpt lat="45.614940092829585" lon="10.716901030772803"><ele>388.0</ele><time>2026-04-26T07:49:42Z</time></trkpt><trkpt lat="45.614898460917" lon="10.716983116033509"><ele>388.0</ele><time>2026-04-26T07:49:45Z</time></trkpt><trkpt lat="45.61485128932386" lon="10.717067467678753"><ele>388.00000000000006</ele><time>2026-04-26T07:49:48Z</time></trkpt><trkpt lat="45.614798069437036" lon="10.717129620276344"><ele>388.0</ele><time>2026-04-26T07:49:56Z</time></trkpt><trkpt lat="45.614737481940374" lon="10.71718137399171"><ele>386.00000000000006</ele><time>2026-04-26T07:50:41Z</time></trkpt><trkpt lat="45.61468834997177" lon="10.717248357392512"><ele>384.0</ele><time>2026-04-26T07:51:12Z</time></trkpt><trkpt lat="45.614638663545016" lon="10.717339393098783"><ele>382.0</ele><time>2026-04-26T07:51:16Z</time></trkpt><trkpt lat="45.614623161005746" lon="10.717469888475916"><ele>380.0</ele><time>2026-04-26T07:51:18Z</time></trkpt><trkpt lat="45.61462282339309" lon="10.71762323373817"><ele>378.0</ele><time>2026-04-26T07:51:20Z</time></trkpt><trkpt lat="45.6146396569564" lon="10.717758305151285"><ele>376.0</ele><time>2026-04-26T07:51:22Z</time></trkpt><trkpt lat="45.61464814487049" lon="10.71784981440963"><ele>373.6</ele><time>2026-04-26T07:51:23Z</time></trkpt><trkpt lat="45.614643586644675" lon="10.718031769474447"><ele>371.20000000000005</ele><time>2026-04-26T07:51:25Z</time></trkpt><trkpt lat="45.61461376740922" lon="10.718222295232064"><ele>368.79999999999995</ele><time>2026-04-26T07:51:27Z</time></trkpt><trkpt lat="45.614595524937144" lon="10.718347376917029"><ele>366.4</ele><time>2026-04-26T07:51:28Z</time></trkpt><trkpt lat="45.614583795143524" lon="10.718447232798491"><ele>364.0</ele><time>2026-04-26T07:51:29Z</time></trkpt><trkpt lat="45.61456597689277" lon="10.71854692108921"><ele>364.5</ele><time>2026-04-26T07:51:30Z</time></trkpt><trkpt lat="45.614540173610635" lon="10.718665344952123"><ele>365.0</ele><time>2026-04-26T07:51:32Z</time></trkpt><trkpt lat="45.61450967494349" lon="10.718762378808279"><ele>365.5</ele><time>2026-04-26T07:51:34Z</time></trkpt><trkpt lat="45.61445867332822" lon="10.718845760865639"><ele>366.0</ele><time>2026-04-26T07:51:37Z</time></trkpt><trkpt lat="45.614369748978234" lon="10.718916338939108"><ele>366.5</ele><time>2026-04-26T07:51:40Z</time></trkpt><trkpt lat="45.61429785606618" lon="10.718924524047711"><ele>367.0</ele><time>2026-04-26T07:51:42Z</time></trkpt><trkpt lat="45.614230019169796" lon="10.718912641132"><ele>365.40000000000003</ele><time>2026-04-26T07:51:43Z</time></trkpt><trkpt lat="45.614130479803535" lon="10.718907953719983"><ele>363.8</ele><time>2026-04-26T07:51:45Z</time></trkpt><trkpt lat="45.614002995105245" lon="10.718959943781087"><ele>362.2</ele><time>2026-04-26T07:51:47Z</time></trkpt><trkpt lat="45.61392733746011" lon="10.718994774795256"><ele>360.6</ele><time>2026-04-26T07:51:48Z</time></trkpt><trkpt lat="45.61386570153778" lon="10.719016876386942"><ele>359.0</ele><time>2026-04-26T07:51:49Z</time></trkpt><trkpt lat="45.613781752016514" lon="10.719057550229822"><ele>359.0</ele><time>2026-04-26T07:51:51Z</time></trkpt><trkpt lat="45.61369693062246" lon="10.719152769291087"><ele>359.0</ele><time>2026-04-26T07:51:53Z</time></trkpt><trkpt lat="45.613617626367706" lon="10.719236181719493"><ele>359.0</ele><time>2026-04-26T07:51:55Z</time></trkpt><trkpt lat="45.61355065381152" lon="10.719314002108721"><ele>359.0</ele><time>2026-04-26T07:51:56Z</time></trkpt><trkpt lat="45.613491475825256" lon="10.719361053830676"><ele>359.0</ele><time>2026-04-26T07:51:57Z</time></trkpt><trkpt lat="45.613438560201224" lon="10.719418421537917"><ele>359.0</ele><time>2026-04-26T07:51:58Z</time></trkpt><trkpt lat="45.61336670225902" lon="10.719513353601407"><ele>356.4</ele><time>2026-04-26T07:52:00Z</time></trkpt><trkpt lat="45.61325300150289" lon="10.7195587730108"><ele>353.79999999999995</ele><time>2026-04-26T07:52:02Z</time></trkpt><trkpt lat="45.61313588793807" lon="10.719632623710154"><ele>351.20000000000005</ele><time>2026-04-26T07:52:04Z</time></trkpt><trkpt lat="45.61304479848707" lon="10.71973202206022"><ele>348.6</ele><time>2026-04-26T07:52:06Z</time></trkpt><trkpt lat="45.61299221531826" lon="10.719799518593293"><ele>346.0</ele><time>2026-04-26T07:52:08Z</time></trkpt><trkpt lat="45.61292956119083" lon="10.719884833275492"><ele>346.0</ele><time>2026-04-26T07:52:10Z</time></trkpt><trkpt lat="45.61285766194914" lon="10.71998844327264"><ele>346.0</ele><time>2026-04-26T07:52:12Z</time></trkpt><trkpt lat="45.612817309611366" lon="10.720066034196918"><ele>346.0</ele><time>2026-04-26T07:52:13Z</time></trkpt><trkpt lat="45.61277404148231" lon="10.72013243091702"><ele>346.0</ele><time>2026-04-26T07:52:14Z</time></trkpt><trkpt lat="45.612729487186904" lon="10.720196939142166"><ele>346.0</ele><time>2026-04-26T07:52:15Z</time></trkpt><trkpt lat="45.612671913843556" lon="10.720279770787323"><ele>346.0</ele><time>2026-04-26T07:52:17Z</time></trkpt><trkpt lat="45.61261104976566" lon="10.720368221048052"><ele>345.3333333333333</ele><time>2026-04-26T07:52:19Z</time></trkpt><trkpt lat="45.61255740547014" lon="10.720534567897145"><ele>344.66666666666663</ele><time>2026-04-26T07:52:21Z</time></trkpt><trkpt lat="45.61252200207486" lon="10.720616096810188"><ele>344.0</ele><time>2026-04-26T07:52:22Z</time></trkpt><trkpt lat="45.6124787379683" lon="10.720693155868009"><ele>343.3333333333333</ele><time>2026-04-26T07:52:23Z</time></trkpt><trkpt lat="45.61243448451922" lon="10.720763049576057"><ele>342.6666666666667</ele><time>2026-04-26T07:52:24Z</time></trkpt><trkpt lat="45.612380485712" lon="10.720887362965184"><ele>342.0</ele><time>2026-04-26T07:52:26Z</time></trkpt><trkpt lat="45.61239110342574" lon="10.721006084909808"><ele>340.8</ele><time>2026-04-26T07:52:28Z</time></trkpt><trkpt lat="45.61240229978391" lon="10.721183010371933"><ele>339.6</ele><time>2026-04-26T07:52:30Z</time></trkpt><trkpt lat="45.6124381524084" lon="10.721289462212903"><ele>338.40000000000003</ele><time>2026-04-26T07:52:32Z</time></trkpt><trkpt lat="45.61242655630047" lon="10.721442970248996"><ele>337.20000000000005</ele><time>2026-04-26T07:52:34Z</time></trkpt><trkpt lat="45.61236652351966" lon="10.721495110291693"><ele>336.0</ele><time>2026-04-26T07:52:41Z</time></trkpt><trkpt lat="45.61226119808721" lon="10.72157575459221"><ele>336.0</ele><time>2026-04-26T07:52:43Z</time></trkpt><trkpt lat="45.6121749191287" lon="10.721624310846643"><ele>336.0</ele><time>2026-04-26T07:52:45Z</time></trkpt><trkpt lat="45.61211509193749" lon="10.72165393275326"><ele>336.0</ele><time>2026-04-26T07:52:47Z</time></trkpt><trkpt lat="45.61201704855987" lon="10.721704624593485"><ele>336.0</ele><time>2026-04-26T07:52:49Z</time></trkpt><trkpt lat="45.611953062162534" lon="10.72175518231678"><ele>336.0</ele><time>2026-04-26T07:52:51Z</time></trkpt><trkpt lat="45.61188562832097" lon="10.721806427574846"><ele>336.0</ele><time>2026-04-26T07:52:53Z</time></trkpt><trkpt lat="45.61181924994692" lon="10.721822043880138"><ele>336.1666666666667</ele><time>2026-04-26T07:52:55Z</time></trkpt><trkpt lat="45.61175892847124" lon="10.721886236213914"><ele>336.3333333333333</ele><time>2026-04-26T07:52:57Z</time></trkpt><trkpt lat="45.61171260484967" lon="10.72194986446723"><ele>336.5</ele><time>2026-04-26T07:52:58Z</time></trkpt><trkpt lat="45.611659931963395" lon="10.722007271909554"><ele>336.66666666666663</ele><time>2026-04-26T07:52:59Z</time></trkpt><trkpt lat="45.61155431377236" lon="10.722117102404363"><ele>336.8333333333333</ele><time>2026-04-26T07:53:01Z</time></trkpt><trkpt lat="45.61149121666521" lon="10.722173652645377"><ele>337.0</ele><time>2026-04-26T07:53:02Z</time></trkpt><trkpt lat="45.61138880895356" lon="10.722250253223363"><ele>336.16666666666663</ele><time>2026-04-26T07:53:04Z</time></trkpt><trkpt lat="45.61132334923673" lon="10.722291562676354"><ele>335.3333333333333</ele><time>2026-04-26T07:53:05Z</time></trkpt><trkpt lat="45.61125889711751" lon="10.72233297838623"><ele>334.5</ele><time>2026-04-26T07:53:06Z</time></trkpt><trkpt lat="45.611172386044196" lon="10.72235764697969"><ele>333.6666666666667</ele><time>2026-04-26T07:53:07Z</time></trkpt><trkpt lat="45.6110884313965" lon="10.722379206172588"><ele>332.83333333333337</ele><time>2026-04-26T07:53:08Z</time></trkpt><trkpt lat="45.61100176071036" lon="10.722389051964143"><ele>332.0</ele><time>2026-04-26T07:53:09Z</time></trkpt><trkpt lat="45.610937898710326" lon="10.722391593677289"><ele>330.8</ele><time>2026-04-26T07:53:10Z</time></trkpt><trkpt lat="45.61081174309038" lon="10.722398353812506"><ele>329.6</ele><time>2026-04-26T07:53:12Z</time></trkpt><trkpt lat="45.610743488577846" lon="10.72240554741839"><ele>328.40000000000003</ele><time>2026-04-26T07:53:13Z</time></trkpt><trkpt lat="45.61062312722992" lon="10.722429792188079"><ele>327.20000000000005</ele><time>2026-04-26T07:53:15Z</time></trkpt><trkpt lat="45.61056248155264" lon="10.722465501525686"><ele>326.0</ele><time>2026-04-26T07:53:16Z</time></trkpt><trkpt lat="45.61049248186668" lon="10.72249615055647"><ele>326.0</ele><time>2026-04-26T07:53:17Z</time></trkpt><trkpt lat="45.61040907264004" lon="10.722537418542421"><ele>326.0</ele><time>2026-04-26T07:53:18Z</time></trkpt><trkpt lat="45.610332185299846" lon="10.722575059406312"><ele>326.0</ele><time>2026-04-26T07:53:19Z</time></trkpt><trkpt lat="45.610248518286994" lon="10.722614359896486"><ele>326.0</ele><time>2026-04-26T07:53:20Z</time></trkpt><trkpt lat="45.610172932846595" lon="10.722636473903897"><ele>326.0</ele><time>2026-04-26T07:53:21Z</time></trkpt><trkpt lat="45.610071881489304" lon="10.722690527469"><ele>326.0</ele><time>2026-04-26T07:53:22Z</time></trkpt><trkpt lat="45.6099808155642" lon="10.722726837675934"><ele>326.20000000000005</ele><time>2026-04-26T07:53:23Z</time></trkpt><trkpt lat="45.609907304924484" lon="10.722751950243346"><ele>326.40000000000003</ele><time>2026-04-26T07:53:24Z</time></trkpt><trkpt lat="45.60984076837657" lon="10.722787268054109"><ele>326.6</ele><time>2026-04-26T07:53:25Z</time></trkpt><trkpt lat="45.6097611628857" lon="10.72282732255546"><ele>326.8</ele><time>2026-04-26T07:53:26Z</time></trkpt><trkpt lat="45.60967170867459" lon="10.722893326833494"><ele>327.0</ele><time>2026-04-26T07:53:27Z</time></trkpt><trkpt lat="45.60953489800037" lon="10.722985351978675"><ele>325.6666666666667</ele><time>2026-04-26T07:53:29Z</time></trkpt><trkpt lat="45.60945892625756" lon="10.723020626381839"><ele>324.3333333333333</ele><time>2026-04-26T07:53:30Z</time></trkpt><trkpt lat="45.60936674339873" lon="10.723058965287983"><ele>323.0</ele><time>2026-04-26T07:53:31Z</time></trkpt><trkpt lat="45.60927367398432" lon="10.723121923389174"><ele>321.66666666666663</ele><time>2026-04-26T07:53:32Z</time></trkpt><trkpt lat="45.609193008340235" lon="10.723167868045909"><ele>320.3333333333333</ele><time>2026-04-26T07:53:33Z</time></trkpt><trkpt lat="45.60912054569488" lon="10.723216228637948"><ele>319.0</ele><time>2026-04-26T07:53:34Z</time></trkpt><trkpt lat="45.609040920189514" lon="10.7232867420741"><ele>319.0</ele><time>2026-04-26T07:53:35Z</time></trkpt><trkpt lat="45.60893322708378" lon="10.723381632507204"><ele>319.0</ele><time>2026-04-26T07:53:37Z</time></trkpt><trkpt lat="45.608835554206934" lon="10.72343685038019"><ele>319.0</ele><time>2026-04-26T07:53:39Z</time></trkpt><trkpt lat="45.60873769064022" lon="10.723450136782175"><ele>319.0</ele><time>2026-04-26T07:53:41Z</time></trkpt><trkpt lat="45.608663071060604" lon="10.723454103185356"><ele>319.0</ele><time>2026-04-26T07:53:42Z</time></trkpt><trkpt lat="45.608585604167594" lon="10.7234549685884"><ele>317.8333333333333</ele><time>2026-04-26T07:53:43Z</time></trkpt><trkpt lat="45.60850534116529" lon="10.723452104478428"><ele>316.66666666666663</ele><time>2026-04-26T07:53:44Z</time></trkpt><trkpt lat="45.60843227292373" lon="10.723420329776758"><ele>315.5</ele><time>2026-04-26T07:53:45Z</time></trkpt><trkpt lat="45.60835394096185" lon="10.723429068748748"><ele>314.3333333333333</ele><time>2026-04-26T07:53:46Z</time></trkpt><trkpt lat="45.60825968982227" lon="10.723403557885261"><ele>313.1666666666667</ele><time>2026-04-26T07:53:47Z</time></trkpt><trkpt lat="45.60816479056842" lon="10.723384542877287"><ele>312.0</ele><time>2026-04-26T07:53:48Z</time></trkpt><trkpt lat="45.60808665873597" lon="10.723391351372465"><ele>312.0</ele><time>2026-04-26T07:53:49Z</time></trkpt><trkpt lat="45.60800981327953" lon="10.72342280240322"><ele>312.0</ele><time>2026-04-26T07:53:50Z</time></trkpt><trkpt lat="45.60794441676589" lon="10.723481938867344"><ele>312.0</ele><time>2026-04-26T07:53:51Z</time></trkpt><trkpt lat="45.607874230714145" lon="10.72352926798396"><ele>312.0</ele><time>2026-04-26T07:53:52Z</time></trkpt><trkpt lat="45.60780106399047" lon="10.72360247047978"><ele>312.0</ele><time>2026-04-26T07:53:53Z</time></trkpt><trkpt lat="45.607746682940196" lon="10.7236820586216"><ele>312.0</ele><time>2026-04-26T07:53:54Z</time></trkpt><trkpt lat="45.60766487456796" lon="10.723723331827287"><ele>311.6666666666667</ele><time>2026-04-26T07:53:55Z</time></trkpt><trkpt lat="45.60759561625984" lon="10.723740938771515"><ele>311.3333333333333</ele><time>2026-04-26T07:53:56Z</time></trkpt><trkpt lat="45.607516762579685" lon="10.723754733973873"><ele>311.0</ele><time>2026-04-26T07:53:57Z</time></trkpt><trkpt lat="45.607413537135756" lon="10.7237628006481"><ele>310.66666666666663</ele><time>2026-04-26T07:53:58Z</time></trkpt><trkpt lat="45.607319126174104" lon="10.72376415575709"><ele>310.3333333333333</ele><time>2026-04-26T07:53:59Z</time></trkpt><trkpt lat="45.60723401203781" lon="10.723774455781841"><ele>310.0</ele><time>2026-04-26T07:54:00Z</time></trkpt><trkpt lat="45.607158702300374" lon="10.723792583146132"><ele>310.0</ele><time>2026-04-26T07:54:01Z</time></trkpt><trkpt lat="45.60707654413974" lon="10.72382627761961"><ele>310.0</ele><time>2026-04-26T07:54:02Z</time></trkpt><trkpt lat="45.607014649857106" lon="10.723847376513536"><ele>310.0</ele><time>2026-04-26T07:54:03Z</time></trkpt><trkpt lat="45.60695309581676" lon="10.723869965837661"><ele>310.0</ele><time>2026-04-26T07:54:06Z</time></trkpt><trkpt lat="45.60687114461872" lon="10.723876819492913"><ele>310.0</ele><time>2026-04-26T07:54:21Z</time></trkpt><trkpt lat="45.60689359315179" lon="10.724014791976524"><ele>310.0</ele><time>2026-04-26T08:04:34Z</time></trkpt><trkpt lat="45.60686999846785" lon="10.724113092299213"><ele>310.0</ele><time>2026-04-26T08:04:35Z</time></trkpt><trkpt lat="45.606819961322145" lon="10.72424155359722"><ele>310.0</ele><time>2026-04-26T08:04:36Z</time></trkpt><trkpt lat="45.606772843382856" lon="10.724355283207963"><ele>310.0</ele><time>2026-04-26T08:04:37Z</time></trkpt><trkpt lat="45.60671191184828" lon="10.724474392792068"><ele>310.0</ele><time>2026-04-26T08:04:38Z</time></trkpt><trkpt lat="45.606644428714446" lon="10.72461878115226"><ele>310.0</ele><time>2026-04-26T08:04:39Z</time></trkpt><trkpt lat="45.606583819564264" lon="10.724777401894452"><ele>310.0</ele><time>2026-04-26T08:04:40Z</time></trkpt><trkpt lat="45.606526339627486" lon="10.724935817974309"><ele>310.0</ele><time>2026-04-26T08:04:41Z</time></trkpt><trkpt lat="45.606474830768164" lon="10.725101866187098"><ele>310.0</ele><time>2026-04-26T08:04:42Z</time></trkpt><trkpt lat="45.60644835785869" lon="10.725243976822451"><ele>310.0</ele><time>2026-04-26T08:04:43Z</time></trkpt><trkpt lat="45.60643142526002" lon="10.72537504925437"><ele>310.0</ele><time>2026-04-26T08:04:44Z</time></trkpt><trkpt lat="45.60641930667087" lon="10.725525657427765"><ele>310.8333333333333</ele><time>2026-04-26T08:04:45Z</time></trkpt><trkpt lat="45.60641566857759" lon="10.725657871504156"><ele>311.66666666666663</ele><time>2026-04-26T08:04:46Z</time></trkpt><trkpt lat="45.60641926915281" lon="10.725785410977663"><ele>312.5</ele><time>2026-04-26T08:04:47Z</time></trkpt><trkpt lat="45.60643054019305" lon="10.725906555500256"><ele>313.3333333333333</ele><time>2026-04-26T08:04:48Z</time></trkpt><trkpt lat="45.6064488378711" lon="10.725998878326173"><ele>314.1666666666667</ele><time>2026-04-26T08:04:49Z</time></trkpt><trkpt lat="45.60646220408951" lon="10.726152899305399"><ele>315.0</ele><time>2026-04-26T08:04:51Z</time></trkpt><trkpt lat="45.60647879704157" lon="10.726248663038389"><ele>315.3333333333333</ele><time>2026-04-26T08:04:53Z</time></trkpt><trkpt lat="45.60649063188125" lon="10.726343551002126"><ele>315.6666666666667</ele><time>2026-04-26T08:04:59Z</time></trkpt><trkpt lat="45.60650214214057" lon="10.72647379980053"><ele>316.0</ele><time>2026-04-26T08:05:01Z</time></trkpt><trkpt lat="45.60652023680823" lon="10.726615717437083"><ele>316.33333333333337</ele><time>2026-04-26T08:05:03Z</time></trkpt><trkpt lat="45.60654388677811" lon="10.726706506512523"><ele>316.6666666666667</ele><time>2026-04-26T08:05:07Z</time></trkpt><trkpt lat="45.60656659376837" lon="10.726818463269339"><ele>317.0</ele><time>2026-04-26T08:05:13Z</time></trkpt><trkpt lat="45.606490176000015" lon="10.726870675694405"><ele>316.83333333333337</ele><time>2026-04-26T08:05:15Z</time></trkpt><trkpt lat="45.606382640049155" lon="10.726949127449583"><ele>316.6666666666667</ele><time>2026-04-26T08:05:17Z</time></trkpt><trkpt lat="45.60632613782114" lon="10.726999702197453"><ele>316.5</ele><time>2026-04-26T08:05:18Z</time></trkpt><trkpt lat="45.606259630540876" lon="10.72704922760182"><ele>316.3333333333333</ele><time>2026-04-26T08:05:19Z</time></trkpt><trkpt lat="45.6062058178729" lon="10.72710267048603"><ele>316.16666666666663</ele><time>2026-04-26T08:05:20Z</time></trkpt><trkpt lat="45.60612565816532" lon="10.727170090875529"><ele>316.0</ele><time>2026-04-26T08:05:22Z</time></trkpt><trkpt lat="45.60600563039792" lon="10.727212012093492"><ele>315.40000000000003</ele><time>2026-04-26T08:05:24Z</time></trkpt><trkpt lat="45.60592662585666" lon="10.727241660549284"><ele>314.8</ele><time>2026-04-26T08:05:25Z</time></trkpt><trkpt lat="45.60584476833371" lon="10.727266942753552"><ele>314.20000000000005</ele><time>2026-04-26T08:05:26Z</time></trkpt><trkpt lat="45.60573496814312" lon="10.727286891537059"><ele>313.6</ele><time>2026-04-26T08:05:27Z</time></trkpt><trkpt lat="45.60563788640413" lon="10.727290786895495"><ele>313.0</ele><time>2026-04-26T08:05:28Z</time></trkpt><trkpt lat="45.60554334849296" lon="10.727290786895555"><ele>313.0</ele><time>2026-04-26T08:05:29Z</time></trkpt><trkpt lat="45.60545449300957" lon="10.727299214900693"><ele>313.0</ele><time>2026-04-26T08:05:30Z</time></trkpt><trkpt lat="45.605360882947025" lon="10.727285904029737"><ele>313.0</ele><time>2026-04-26T08:05:31Z</time></trkpt><trkpt lat="45.60524298966653" lon="10.727274018152096"><ele>313.0</ele><time>2026-04-26T08:05:32Z</time></trkpt><trkpt lat="45.60511563179217" lon="10.727237798163715"><ele>313.0</ele><time>2026-04-26T08:05:33Z</time></trkpt><trkpt lat="45.60498489505266" lon="10.727238549138724"><ele>313.2</ele><time>2026-04-26T08:05:34Z</time></trkpt><trkpt lat="45.604876684804616" lon="10.727232157138168"><ele>313.4</ele><time>2026-04-26T08:05:35Z</time></trkpt><trkpt lat="45.604796633310656" lon="10.727220566956802"><ele>313.59999999999997</ele><time>2026-04-26T08:05:36Z</time></trkpt><trkpt lat="45.604725669374275" lon="10.72721180943391"><ele>313.8</ele><time>2026-04-26T08:05:37Z</time></trkpt><trkpt lat="45.6046310744606" lon="10.727208492116917"><ele>314.0</ele><time>2026-04-26T08:05:38Z</time></trkpt><trkpt lat="45.60453064771173" lon="10.727216359449336"><ele>314.0</ele><time>2026-04-26T08:05:39Z</time></trkpt><trkpt lat="45.604430542292114" lon="10.727239533544914"><ele>314.0</ele><time>2026-04-26T08:05:40Z</time></trkpt><trkpt lat="45.60435707185905" lon="10.727271824990247"><ele>314.0</ele><time>2026-04-26T08:05:41Z</time></trkpt><trkpt lat="45.604287473312816" lon="10.727307377654304"><ele>314.0</ele><time>2026-04-26T08:05:42Z</time></trkpt><trkpt lat="45.60419819247574" lon="10.727341080440068"><ele>314.0</ele><time>2026-04-26T08:05:43Z</time></trkpt><trkpt lat="45.604120061853536" lon="10.72735098271265"><ele>314.0</ele><time>2026-04-26T08:05:44Z</time></trkpt><trkpt lat="45.60405348035086" lon="10.727372668573132"><ele>314.0</ele><time>2026-04-26T08:05:45Z</time></trkpt><trkpt lat="45.603970925856565" lon="10.727410873551863"><ele>314.0</ele><time>2026-04-26T08:05:47Z</time></trkpt><trkpt lat="45.603839489618" lon="10.727443026851322"><ele>314.0</ele><time>2026-04-26T08:05:49Z</time></trkpt><trkpt lat="45.60374830322819" lon="10.72747173736121"><ele>314.0</ele><time>2026-04-26T08:05:50Z</time></trkpt><trkpt lat="45.60365439175958" lon="10.727493784586082"><ele>314.0</ele><time>2026-04-26T08:05:51Z</time></trkpt><trkpt lat="45.603554182922835" lon="10.727528236815278"><ele>314.2</ele><time>2026-04-26T08:05:52Z</time></trkpt><trkpt lat="45.60347664338955" lon="10.727563316599817"><ele>314.4</ele><time>2026-04-26T08:05:53Z</time></trkpt><trkpt lat="45.60339006616989" lon="10.72760342014523"><ele>314.6</ele><time>2026-04-26T08:05:54Z</time></trkpt><trkpt lat="45.60329278488511" lon="10.727647274742806"><ele>314.8</ele><time>2026-04-26T08:05:55Z</time></trkpt><trkpt lat="45.60318198157835" lon="10.727714825550379"><ele>315.0</ele><time>2026-04-26T08:05:56Z</time></trkpt><trkpt lat="45.603071427937785" lon="10.72777024422421"><ele>315.0</ele><time>2026-04-26T08:05:57Z</time></trkpt><trkpt lat="45.60295192661927" lon="10.727831538305779"><ele>315.0</ele><time>2026-04-26T08:05:58Z</time></trkpt><trkpt lat="45.602828982448564" lon="10.72789749944523"><ele>315.0</ele><time>2026-04-26T08:05:59Z</time></trkpt><trkpt lat="45.6027197142273" lon="10.727964014141524"><ele>315.0</ele><time>2026-04-26T08:06:00Z</time></trkpt><trkpt lat="45.60261640705666" lon="10.728023702321364"><ele>313.75</ele><time>2026-04-26T08:06:01Z</time></trkpt><trkpt lat="45.60250761489388" lon="10.728087789068875"><ele>312.5</ele><time>2026-04-26T08:06:02Z</time></trkpt><trkpt lat="45.60239062707823" lon="10.728152827263624"><ele>311.25</ele><time>2026-04-26T08:06:03Z</time></trkpt><trkpt lat="45.602287144546146" lon="10.728202140300164"><ele>310.0</ele><time>2026-04-26T08:06:04Z</time></trkpt><trkpt lat="45.60218884748061" lon="10.728240948407588"><ele>310.0</ele><time>2026-04-26T08:06:05Z</time></trkpt><trkpt lat="45.60210154926694" lon="10.728275012275782"><ele>310.0</ele><time>2026-04-26T08:06:06Z</time></trkpt><trkpt lat="45.60199966785806" lon="10.728314463655952"><ele>310.0</ele><time>2026-04-26T08:06:08Z</time></trkpt><trkpt lat="45.6019368612121" lon="10.728338365358864"><ele>310.0</ele><time>2026-04-26T08:06:10Z</time></trkpt><trkpt lat="45.60206732564726" lon="10.7283454679546"><ele>310.0</ele><time>2026-04-26T08:06:16Z</time></trkpt><trkpt lat="45.60215633108729" lon="10.728274368472565"><ele>310.0</ele><time>2026-04-26T08:06:17Z</time></trkpt><trkpt lat="45.60223121972521" lon="10.728240837953688"><ele>310.0</ele><time>2026-04-26T08:06:18Z</time></trkpt><trkpt lat="45.60229135902697" lon="10.7282118255383"><ele>310.0</ele><time>2026-04-26T08:06:19Z</time></trkpt><trkpt lat="45.60227153866499" lon="10.7284210909606"><ele>310.0</ele><time>2026-04-26T08:06:23Z</time></trkpt><trkpt lat="45.602250396459624" lon="10.72852778893862"><ele>310.0</ele><time>2026-04-26T08:06:24Z</time></trkpt><trkpt lat="45.60221995295298" lon="10.728634502917163"><ele>310.0</ele><time>2026-04-26T08:06:25Z</time></trkpt><trkpt lat="45.60219520307649" lon="10.728767451142307"><ele>310.2</ele><time>2026-04-26T08:06:26Z</time></trkpt><trkpt lat="45.60217266779423" lon="10.72890170252624"><ele>310.4</ele><time>2026-04-26T08:06:27Z</time></trkpt><trkpt lat="45.60216057718277" lon="10.728996892613058"><ele>310.6</ele><time>2026-04-26T08:06:28Z</time></trkpt><trkpt lat="45.602155424502925" lon="10.729119806812388"><ele>310.8</ele><time>2026-04-26T08:06:31Z</time></trkpt><trkpt lat="45.60216828132275" lon="10.729278860369403"><ele>311.0</ele><time>2026-04-26T08:06:33Z</time></trkpt><trkpt lat="45.6021863526384" lon="10.729418862577448"><ele>311.0</ele><time>2026-04-26T08:06:35Z</time></trkpt><trkpt lat="45.60218010384993" lon="10.729606297473804"><ele>311.0</ele><time>2026-04-26T08:06:37Z</time></trkpt><trkpt lat="45.60217174250244" lon="10.729818937214626"><ele>311.0</ele><time>2026-04-26T08:06:39Z</time></trkpt><trkpt lat="45.60217604580415" lon="10.729930221629314"><ele>311.0</ele><time>2026-04-26T08:06:40Z</time></trkpt><trkpt lat="45.60217269533153" lon="10.730082847853243"><ele>311.0</ele><time>2026-04-26T08:06:42Z</time></trkpt><trkpt lat="45.60213076753954" lon="10.730154259387325"><ele>311.0</ele><time>2026-04-26T08:06:43Z</time></trkpt><trkpt lat="45.602022264556936" lon="10.730244188478117"><ele>311.0</ele><time>2026-04-26T08:06:45Z</time></trkpt><trkpt lat="45.60195391109852" lon="10.730295816248676"><ele>311.0</ele><time>2026-04-26T08:06:46Z</time></trkpt><trkpt lat="45.60187365727415" lon="10.730351444961975"><ele>311.0</ele><time>2026-04-26T08:06:47Z</time></trkpt><trkpt lat="45.60179635563544" lon="10.730414483597377"><ele>311.0</ele><time>2026-04-26T08:06:48Z</time></trkpt><trkpt lat="45.601722349783984" lon="10.730479811680013"><ele>311.0</ele><time>2026-04-26T08:06:49Z</time></trkpt><trkpt lat="45.60165395824523" lon="10.730531083876125"><ele>311.0</ele><time>2026-04-26T08:06:50Z</time></trkpt><trkpt lat="45.60159104297175" lon="10.73057344355376"><ele>311.0</ele><time>2026-04-26T08:06:51Z</time></trkpt><trkpt lat="45.601452107722956" lon="10.730675966187379"><ele>311.0</ele><time>2026-04-26T08:06:53Z</time></trkpt><trkpt lat="45.60138683423678" lon="10.730732576174582"><ele>311.0</ele><time>2026-04-26T08:06:54Z</time></trkpt><trkpt lat="45.60133182806117" lon="10.7307891219363"><ele>311.0</ele><time>2026-04-26T08:06:55Z</time></trkpt><trkpt lat="45.60125876759127" lon="10.730872444276404"><ele>311.0</ele><time>2026-04-26T08:06:56Z</time></trkpt><trkpt lat="45.6012016491853" lon="10.730944348732145"><ele>311.0</ele><time>2026-04-26T08:06:57Z</time></trkpt><trkpt lat="45.60115026685928" lon="10.731009928788058"><ele>311.0</ele><time>2026-04-26T08:06:58Z</time></trkpt><trkpt lat="45.6010941176333" lon="10.731062904523904"><ele>311.0</ele><time>2026-04-26T08:06:59Z</time></trkpt><trkpt lat="45.60097952013621" lon="10.73113988412009"><ele>311.0</ele><time>2026-04-26T08:07:01Z</time></trkpt><trkpt lat="45.60085295036431" lon="10.731202028850818"><ele>310.1666666666667</ele><time>2026-04-26T08:07:03Z</time></trkpt><trkpt lat="45.600780531740526" lon="10.731233641701177"><ele>309.33333333333337</ele><time>2026-04-26T08:07:04Z</time></trkpt><trkpt lat="45.60070764241619" lon="10.731276406615336"><ele>308.5</ele><time>2026-04-26T08:07:05Z</time></trkpt><trkpt lat="45.60060096569999" lon="10.731330942595266"><ele>307.6666666666667</ele><time>2026-04-26T08:07:07Z</time></trkpt><trkpt lat="45.60053058338387" lon="10.731367792694494"><ele>306.8333333333333</ele><time>2026-04-26T08:07:08Z</time></trkpt><trkpt lat="45.60044421659117" lon="10.731417325425413"><ele>306.0</ele><time>2026-04-26T08:07:09Z</time></trkpt><trkpt lat="45.60037188681114" lon="10.7314442037828"><ele>306.0</ele><time>2026-04-26T08:07:10Z</time></trkpt><trkpt lat="45.60029733200131" lon="10.731490971903204"><ele>306.0</ele><time>2026-04-26T08:07:11Z</time></trkpt><trkpt lat="45.60021097200645" lon="10.731542389496438"><ele>306.0</ele><time>2026-04-26T08:07:12Z</time></trkpt><trkpt lat="45.60014756507413" lon="10.7315685217113"><ele>306.0</ele><time>2026-04-26T08:07:13Z</time></trkpt><trkpt lat="45.60008209514068" lon="10.73160622286275"><ele>306.0</ele><time>2026-04-26T08:07:14Z</time></trkpt><trkpt lat="45.599970580955265" lon="10.731663352798437"><ele>306.0</ele><time>2026-04-26T08:07:16Z</time></trkpt><trkpt lat="45.599875147626726" lon="10.731714944012301"><ele>306.0</ele><time>2026-04-26T08:07:18Z</time></trkpt><trkpt lat="45.59979129532011" lon="10.731770021321035"><ele>306.0</ele><time>2026-04-26T08:07:20Z</time></trkpt><trkpt lat="45.59966542170283" lon="10.731834694696271"><ele>306.0</ele><time>2026-04-26T08:07:22Z</time></trkpt><trkpt lat="45.599589039659946" lon="10.731892414361651"><ele>306.0</ele><time>2026-04-26T08:07:23Z</time></trkpt><trkpt lat="45.59952451777827" lon="10.731950639968785"><ele>306.0</ele><time>2026-04-26T08:07:24Z</time></trkpt><trkpt lat="45.59945076841733" lon="10.73200943484699"><ele>305.2</ele><time>2026-04-26T08:07:25Z</time></trkpt><trkpt lat="45.599364260119344" lon="10.732094445429126"><ele>304.40000000000003</ele><time>2026-04-26T08:07:26Z</time></trkpt><trkpt lat="45.59927637510243" lon="10.732168082518598"><ele>303.6</ele><time>2026-04-26T08:07:27Z</time></trkpt><trkpt lat="45.59920468529568" lon="10.732229784334198"><ele>302.8</ele><time>2026-04-26T08:07:28Z</time></trkpt><trkpt lat="45.59912085005113" lon="10.732298058152468"><ele>302.0</ele><time>2026-04-26T08:07:29Z</time></trkpt><trkpt lat="45.599052463668905" lon="10.732366404437423"><ele>302.0</ele><time>2026-04-26T08:07:30Z</time></trkpt><trkpt lat="45.59899992950282" lon="10.732430549968628"><ele>302.0</ele><time>2026-04-26T08:07:31Z</time></trkpt><trkpt lat="45.598952385025704" lon="10.732490055660246"><ele>302.0</ele><time>2026-04-26T08:07:32Z</time></trkpt><trkpt lat="45.598870979969696" lon="10.732597307242965"><ele>302.0</ele><time>2026-04-26T08:07:34Z</time></trkpt><trkpt lat="45.59877137093963" lon="10.732717998437243"><ele>302.0</ele><time>2026-04-26T08:07:36Z</time></trkpt><trkpt lat="45.59869761625069" lon="10.73277479611654"><ele>301.33333333333337</ele><time>2026-04-26T08:07:37Z</time></trkpt><trkpt lat="45.598619740152294" lon="10.732825202024275"><ele>300.6666666666667</ele><time>2026-04-26T08:07:38Z</time></trkpt><trkpt lat="45.59854949746482" lon="10.732887469962865"><ele>300.0</ele><time>2026-04-26T08:07:39Z</time></trkpt><trkpt lat="45.5984958768484" lon="10.732941246086956"><ele>299.3333333333333</ele><time>2026-04-26T08:07:40Z</time></trkpt><trkpt lat="45.59842939886484" lon="10.733004106013999"><ele>298.66666666666663</ele><time>2026-04-26T08:07:41Z</time></trkpt><trkpt lat="45.59836838578622" lon="10.733069192478865"><ele>298.0</ele><time>2026-04-26T08:07:42Z</time></trkpt><trkpt lat="45.5982688939466" lon="10.733167572210363"><ele>298.0</ele><time>2026-04-26T08:07:44Z</time></trkpt><trkpt lat="45.59816039377592" lon="10.733250071703015"><ele>298.0</ele><time>2026-04-26T08:07:46Z</time></trkpt><trkpt lat="45.598094939045524" lon="10.733305769564364"><ele>298.0</ele><time>2026-04-26T08:07:47Z</time></trkpt><trkpt lat="45.59801341479058" lon="10.733345232075772"><ele>298.0</ele><time>2026-04-26T08:07:48Z</time></trkpt><trkpt lat="45.59793813701966" lon="10.733372826941457"><ele>298.0</ele><time>2026-04-26T08:07:49Z</time></trkpt><trkpt lat="45.59786556646285" lon="10.733388680187659"><ele>298.0</ele><time>2026-04-26T08:07:50Z</time></trkpt><trkpt lat="45.59779788683074" lon="10.733391377192705"><ele>297.5</ele><time>2026-04-26T08:07:51Z</time></trkpt><trkpt lat="45.59772686106966" lon="10.733406416872466"><ele>297.0</ele><time>2026-04-26T08:07:52Z</time></trkpt><trkpt lat="45.59766267270945" lon="10.733413053530224"><ele>296.5</ele><time>2026-04-26T08:07:53Z</time></trkpt><trkpt lat="45.59759214715326" lon="10.73342336094356"><ele>296.0</ele><time>2026-04-26T08:07:55Z</time></trkpt><trkpt lat="45.597517510168814" lon="10.733473395354252"><ele>295.5</ele><time>2026-04-26T08:08:05Z</time></trkpt><trkpt lat="45.597441575025" lon="10.73342776012372"><ele>295.0</ele><time>2026-04-26T08:08:06Z</time></trkpt><trkpt lat="45.59735075454529" lon="10.733458645897718"><ele>295.0</ele><time>2026-04-26T08:08:07Z</time></trkpt><trkpt lat="45.59725966565365" lon="10.733501054053486"><ele>295.0</ele><time>2026-04-26T08:08:08Z</time></trkpt><trkpt lat="45.59715687506596" lon="10.733568813032539"><ele>295.0</ele><time>2026-04-26T08:08:09Z</time></trkpt><trkpt lat="45.59706621546539" lon="10.733614381074595"><ele>295.0</ele><time>2026-04-26T08:08:10Z</time></trkpt><trkpt lat="45.59699111564234" lon="10.73366632110393"><ele>295.0</ele><time>2026-04-26T08:08:11Z</time></trkpt><trkpt lat="45.59693411133963" lon="10.733728440877512"><ele>291.2</ele><time>2026-04-26T08:08:12Z</time></trkpt><trkpt lat="45.59684072722176" lon="10.733799451085943"><ele>287.4</ele><time>2026-04-26T08:08:14Z</time></trkpt><trkpt lat="45.596780038934604" lon="10.733843089911069"><ele>283.6</ele><time>2026-04-26T08:08:15Z</time></trkpt><trkpt lat="45.59666725330326" lon="10.733916662411689"><ele>279.8</ele><time>2026-04-26T08:08:22Z</time></trkpt><trkpt lat="45.596540806140055" lon="10.733953035672084"><ele>276.0</ele><time>2026-04-26T08:08:24Z</time></trkpt><trkpt lat="45.596474577771325" lon="10.734037571117655"><ele>276.0</ele><time>2026-04-26T08:08:26Z</time></trkpt><trkpt lat="45.59637729932908" lon="10.734165406035823"><ele>276.0</ele><time>2026-04-26T08:08:28Z</time></trkpt><trkpt lat="45.596304965126706" lon="10.734273652212263"><ele>276.0</ele><time>2026-04-26T08:08:30Z</time></trkpt><trkpt lat="45.59624922157283" lon="10.734391626726868"><ele>276.0</ele><time>2026-04-26T08:08:32Z</time></trkpt><trkpt lat="45.59619030450368" lon="10.734454187811098"><ele>276.0</ele><time>2026-04-26T08:08:33Z</time></trkpt><trkpt lat="45.59612034453542" lon="10.734563033537727"><ele>273.0</ele><time>2026-04-26T08:08:35Z</time></trkpt><trkpt lat="45.5960426091924" lon="10.73468386292398"><ele>270.0</ele><time>2026-04-26T08:08:37Z</time></trkpt><trkpt lat="45.59600189201527" lon="10.734777128682003"><ele>267.0</ele><time>2026-04-26T08:08:38Z</time></trkpt><trkpt lat="45.5959297959316" lon="10.73483338401856"><ele>264.0</ele><time>2026-04-26T08:08:40Z</time></trkpt><trkpt lat="45.595866013885605" lon="10.734851978905663"><ele>261.0</ele><time>2026-04-26T08:08:42Z</time></trkpt><trkpt lat="45.59579526487365" lon="10.734898146837985"><ele>258.0</ele><time>2026-04-26T08:08:44Z</time></trkpt><trkpt lat="45.59572829607004" lon="10.735012390213148"><ele>258.0</ele><time>2026-04-26T08:08:46Z</time></trkpt><trkpt lat="45.5956476718505" lon="10.735139967971413"><ele>258.0</ele><time>2026-04-26T08:08:48Z</time></trkpt><trkpt lat="45.59560192986667" lon="10.735217322517414"><ele>258.0</ele><time>2026-04-26T08:08:49Z</time></trkpt><trkpt lat="45.59554396300956" lon="10.735322871813047"><ele>258.0</ele><time>2026-04-26T08:08:51Z</time></trkpt><trkpt lat="45.5955548696444" lon="10.735474529519475"><ele>258.0</ele><time>2026-04-26T08:08:53Z</time></trkpt><trkpt lat="45.59558365955837" lon="10.735568833915242"><ele>256.1666666666667</ele><time>2026-04-26T08:08:54Z</time></trkpt><trkpt lat="45.59563814560836" lon="10.735623716131034"><ele>254.33333333333331</ele><time>2026-04-26T08:08:55Z</time></trkpt><trkpt lat="45.595709197648596" lon="10.735667659762283"><ele>252.5</ele><time>2026-04-26T08:08:56Z</time></trkpt><trkpt lat="45.59579993346811" lon="10.735729630744842"><ele>250.66666666666666</ele><time>2026-04-26T08:08:58Z</time></trkpt><trkpt lat="45.595879252833065" lon="10.735791944823477"><ele>248.83333333333331</ele><time>2026-04-26T08:09:00Z</time></trkpt><trkpt lat="45.595857219736835" lon="10.735923991556726"><ele>247.0</ele><time>2026-04-26T08:09:03Z</time></trkpt><trkpt lat="45.59574484700214" lon="10.735944617211048"><ele>247.0</ele><time>2026-04-26T08:09:05Z</time></trkpt><trkpt lat="45.595636753046534" lon="10.735866490179589"><ele>247.0</ele><time>2026-04-26T08:09:07Z</time></trkpt><trkpt lat="45.595556985964464" lon="10.735836774294505"><ele>247.0</ele><time>2026-04-26T08:09:08Z</time></trkpt><trkpt lat="45.59550212062142" lon="10.73578697165546"><ele>247.0</ele><time>2026-04-26T08:09:09Z</time></trkpt><trkpt lat="45.595387607111874" lon="10.735704149867265"><ele>247.0</ele><time>2026-04-26T08:09:11Z</time></trkpt><trkpt lat="45.59532078181267" lon="10.735670995173159"><ele>246.99999999999997</ele><time>2026-04-26T08:09:12Z</time></trkpt><trkpt lat="45.5952630145012" lon="10.735624783518812"><ele>247.0</ele><time>2026-04-26T08:09:13Z</time></trkpt><trkpt lat="45.595206951515195" lon="10.735555386672011"><ele>247.0</ele><time>2026-04-26T08:09:15Z</time></trkpt><trkpt lat="45.59518836604201" lon="10.735698559194754"><ele>247.0</ele><time>2026-04-26T08:09:18Z</time></trkpt><trkpt lat="45.595249179887205" lon="10.735797694665356"><ele>246.99999999999997</ele><time>2026-04-26T08:09:19Z</time></trkpt><trkpt lat="45.595306404943095" lon="10.735875013583435"><ele>247.0</ele><time>2026-04-26T08:09:20Z</time></trkpt><trkpt lat="45.59534631933636" lon="10.73595216072867"><ele>245.66666666666666</ele><time>2026-04-26T08:09:21Z</time></trkpt><trkpt lat="45.595389368826886" lon="10.73611722089644"><ele>244.33333333333331</ele><time>2026-04-26T08:09:23Z</time></trkpt><trkpt lat="45.5954105300833" lon="10.736205293035447"><ele>243.0</ele><time>2026-04-26T08:09:24Z</time></trkpt><trkpt lat="45.59541800797705" lon="10.73632841462837"><ele>241.66666666666669</ele><time>2026-04-26T08:09:26Z</time></trkpt><trkpt lat="45.595376561146296" lon="10.736431577149672"><ele>240.33333333333334</ele><time>2026-04-26T08:09:28Z</time></trkpt><trkpt lat="45.59531764286789" lon="10.736501012045748"><ele>239.0</ele><time>2026-04-26T08:09:29Z</time></trkpt><trkpt lat="45.5952615838267" lon="10.736589299426042"><ele>239.0</ele><time>2026-04-26T08:09:30Z</time></trkpt><trkpt lat="45.59521247708705" lon="10.736672329109714"><ele>238.99999999999997</ele><time>2026-04-26T08:09:31Z</time></trkpt><trkpt lat="45.595126159526714" lon="10.73672962967721"><ele>238.99999999999997</ele><time>2026-04-26T08:09:33Z</time></trkpt><trkpt lat="45.595057894379785" lon="10.736685018222936"><ele>239.0</ele><time>2026-04-26T08:09:34Z</time></trkpt><trkpt lat="45.594954277791494" lon="10.736624504245608"><ele>239.0</ele><time>2026-04-26T08:09:35Z</time></trkpt><trkpt lat="45.59485487545705" lon="10.73655412653342"><ele>239.00000000000003</ele><time>2026-04-26T08:09:36Z</time></trkpt><trkpt lat="45.59477848623658" lon="10.73649095443744"><ele>239.0</ele><time>2026-04-26T08:09:37Z</time></trkpt><trkpt lat="45.594694185078254" lon="10.736423915409388"><ele>239.0</ele><time>2026-04-26T08:09:38Z</time></trkpt><trkpt lat="45.59463152688846" lon="10.736400395181398"><ele>239.0</ele><time>2026-04-26T08:09:39Z</time></trkpt><trkpt lat="45.59457445751053" lon="10.736359507827352"><ele>239.00000000000003</ele><time>2026-04-26T08:09:40Z</time></trkpt><trkpt lat="45.594461336287175" lon="10.73628147419798"><ele>239.0</ele><time>2026-04-26T08:09:42Z</time></trkpt><trkpt lat="45.59438249389686" lon="10.736255668179245"><ele>240.0</ele><time>2026-04-26T08:09:43Z</time></trkpt><trkpt lat="45.59430093881412" lon="10.736229752990539"><ele>240.99999999999997</ele><time>2026-04-26T08:09:45Z</time></trkpt><trkpt lat="45.59423354263494" lon="10.736238156396272"><ele>241.99999999999997</ele><time>2026-04-26T08:09:46Z</time></trkpt><trkpt lat="45.594133524885784" lon="10.73615549382181"><ele>243.0</ele><time>2026-04-26T08:09:48Z</time></trkpt><trkpt lat="45.594077045033416" lon="10.73605451318"><ele>244.0</ele><time>2026-04-26T08:09:50Z</time></trkpt><trkpt lat="45.59415890732252" lon="10.736313067169773"><ele>244.0</ele><time>2026-04-26T08:09:56Z</time></trkpt><trkpt lat="45.59422948140499" lon="10.73643028486095"><ele>243.99999999999997</ele><time>2026-04-26T08:09:57Z</time></trkpt><trkpt lat="45.59430974472942" lon="10.736518918537348"><ele>243.99999999999997</ele><time>2026-04-26T08:09:58Z</time></trkpt><trkpt lat="45.59437857493883" lon="10.736647689947842"><ele>244.0</ele><time>2026-04-26T08:09:59Z</time></trkpt><trkpt lat="45.59445267978979" lon="10.736765160696423"><ele>244.0</ele><time>2026-04-26T08:10:00Z</time></trkpt><trkpt lat="45.59453761036231" lon="10.736882567480178"><ele>244.5</ele><time>2026-04-26T08:10:01Z</time></trkpt><trkpt lat="45.59462650744121" lon="10.736999476908434"><ele>245.0</ele><time>2026-04-26T08:10:02Z</time></trkpt><trkpt lat="45.59472120343199" lon="10.737117451201215"><ele>245.5</ele><time>2026-04-26T08:10:03Z</time></trkpt><trkpt lat="45.594812023726895" lon="10.737233632474009"><ele>246.0</ele><time>2026-04-26T08:10:04Z</time></trkpt><trkpt lat="45.59490030440273" lon="10.7373432004118"><ele>246.0</ele><time>2026-04-26T08:10:05Z</time></trkpt><trkpt lat="45.594980588311294" lon="10.737453870560378"><ele>246.00000000000003</ele><time>2026-04-26T08:10:06Z</time></trkpt><trkpt lat="45.59504768787857" lon="10.73756322970287"><ele>246.00000000000003</ele><time>2026-04-26T08:10:07Z</time></trkpt><trkpt lat="45.59511705081761" lon="10.737689912311016"><ele>246.0</ele><time>2026-04-26T08:10:08Z</time></trkpt><trkpt lat="45.595179629828095" lon="10.737839850612069"><ele>246.0</ele><time>2026-04-26T08:10:09Z</time></trkpt><trkpt lat="45.59523032010759" lon="10.73798982849519"><ele>246.0</ele><time>2026-04-26T08:10:10Z</time></trkpt><trkpt lat="45.595279127578536" lon="10.738156510720986"><ele>246.00000000000003</ele><time>2026-04-26T08:10:11Z</time></trkpt><trkpt lat="45.59532299074049" lon="10.738305400058097"><ele>246.00000000000003</ele><time>2026-04-26T08:10:12Z</time></trkpt><trkpt lat="45.595363018441226" lon="10.738421712601369"><ele>246.0</ele><time>2026-04-26T08:10:13Z</time></trkpt><trkpt lat="45.59539771957853" lon="10.738530569181842"><ele>246.0</ele><time>2026-04-26T08:10:14Z</time></trkpt><trkpt lat="45.59543030631332" lon="10.738639266573282"><ele>246.0</ele><time>2026-04-26T08:10:15Z</time></trkpt><trkpt lat="45.595455301501076" lon="10.738723931612416"><ele>246.0</ele><time>2026-04-26T08:10:16Z</time></trkpt><trkpt lat="45.59548716445275" lon="10.738862802453294"><ele>246.0</ele><time>2026-04-26T08:10:28Z</time></trkpt><trkpt lat="45.59551926187376" lon="10.738940965920655"><ele>246.0</ele><time>2026-04-26T08:10:29Z</time></trkpt><trkpt lat="45.59555680651377" lon="10.739034102477827"><ele>246.0</ele><time>2026-04-26T08:10:30Z</time></trkpt><trkpt lat="45.59559482775839" lon="10.739146688253832"><ele>246.0</ele><time>2026-04-26T08:10:31Z</time></trkpt><trkpt lat="45.59563629129062" lon="10.73926020955926"><ele>245.5</ele><time>2026-04-26T08:10:32Z</time></trkpt><trkpt lat="45.59568993367027" lon="10.739410899965154"><ele>245.0</ele><time>2026-04-26T08:10:33Z</time></trkpt><trkpt lat="45.59574099645682" lon="10.739552601141533"><ele>244.5</ele><time>2026-04-26T08:10:34Z</time></trkpt><trkpt lat="45.59579405593337" lon="10.73970047239655"><ele>244.0</ele><time>2026-04-26T08:10:35Z</time></trkpt><trkpt lat="45.59585189701314" lon="10.739862008773192"><ele>244.0</ele><time>2026-04-26T08:10:36Z</time></trkpt><trkpt lat="45.595900662098025" lon="10.739998711379094"><ele>243.99999999999997</ele><time>2026-04-26T08:10:37Z</time></trkpt><trkpt lat="45.595948307520985" lon="10.740133356016372"><ele>243.99999999999997</ele><time>2026-04-26T08:10:38Z</time></trkpt><trkpt lat="45.595993314356896" lon="10.740264389173028"><ele>244.0</ele><time>2026-04-26T08:10:39Z</time></trkpt><trkpt lat="45.596045078491144" lon="10.740396410235947"><ele>244.0</ele><time>2026-04-26T08:10:40Z</time></trkpt><trkpt lat="45.5960923555496" lon="10.740514940841802"><ele>243.83333333333331</ele><time>2026-04-26T08:10:41Z</time></trkpt><trkpt lat="45.596121455949245" lon="10.740634045936199"><ele>243.66666666666666</ele><time>2026-04-26T08:10:42Z</time></trkpt><trkpt lat="45.596176246545056" lon="10.740734090787925"><ele>243.5</ele><time>2026-04-26T08:10:43Z</time></trkpt><trkpt lat="45.59621443977374" lon="10.740847336781314"><ele>243.33333333333331</ele><time>2026-04-26T08:10:44Z</time></trkpt><trkpt lat="45.59625909104828" lon="10.740956471028406"><ele>243.16666666666666</ele><time>2026-04-26T08:10:45Z</time></trkpt><trkpt lat="45.59630219941494" lon="10.741065069425414"><ele>243.0</ele><time>2026-04-26T08:10:46Z</time></trkpt><trkpt lat="45.5963470544426" lon="10.741189050291382"><ele>243.5</ele><time>2026-04-26T08:10:47Z</time></trkpt><trkpt lat="45.596391059249385" lon="10.741316343992144"><ele>244.0</ele><time>2026-04-26T08:10:48Z</time></trkpt><trkpt lat="45.59642655227436" lon="10.741427395500164"><ele>244.5</ele><time>2026-04-26T08:10:49Z</time></trkpt><trkpt lat="45.596461621844256" lon="10.741522927243839"><ele>245.0</ele><time>2026-04-26T08:10:50Z</time></trkpt><trkpt lat="45.59649688205269" lon="10.741600774018966"><ele>245.5</ele><time>2026-04-26T08:10:51Z</time></trkpt><trkpt lat="45.59654475335882" lon="10.741661448935682"><ele>246.0</ele><time>2026-04-26T08:10:53Z</time></trkpt><trkpt lat="45.59665384676473" lon="10.741659334593658"><ele>246.0</ele><time>2026-04-26T08:10:55Z</time></trkpt><trkpt lat="45.59673078049081" lon="10.741662834354901"><ele>246.0</ele><time>2026-04-26T08:10:56Z</time></trkpt><trkpt lat="45.596771221846126" lon="10.741789353207855"><ele>246.0</ele><time>2026-04-26T08:10:58Z</time></trkpt><trkpt lat="45.596798309647255" lon="10.741881214514951"><ele>246.0</ele><time>2026-04-26T08:11:00Z</time></trkpt><trkpt lat="45.59685432830437" lon="10.742026671270139"><ele>246.0</ele><time>2026-04-26T08:11:02Z</time></trkpt><trkpt lat="45.5968802698126" lon="10.742128380004466"><ele>246.0</ele><time>2026-04-26T08:11:03Z</time></trkpt><trkpt lat="45.596912360929764" lon="10.74221210552817"><ele>246.0</ele><time>2026-04-26T08:11:04Z</time></trkpt><trkpt lat="45.59695460770212" lon="10.742298487999687"><ele>246.0</ele><time>2026-04-26T08:11:05Z</time></trkpt><trkpt lat="45.596999378810544" lon="10.742386525079796"><ele>246.0</ele><time>2026-04-26T08:11:06Z</time></trkpt><trkpt lat="45.597050290585685" lon="10.742475628202982"><ele>246.0</ele><time>2026-04-26T08:11:07Z</time></trkpt><trkpt lat="45.59711037075951" lon="10.742537286837273"><ele>246.0</ele><time>2026-04-26T08:11:08Z</time></trkpt><trkpt lat="45.597168537942125" lon="10.74261105646596"><ele>246.0</ele><time>2026-04-26T08:11:09Z</time></trkpt><trkpt lat="45.59723133967385" lon="10.742695372092399"><ele>247.0</ele><time>2026-04-26T08:11:10Z</time></trkpt><trkpt lat="45.59728612312679" lon="10.742767439360602"><ele>248.0</ele><time>2026-04-26T08:11:11Z</time></trkpt><trkpt lat="45.597346624244864" lon="10.742846784909991"><ele>249.0</ele><time>2026-04-26T08:11:12Z</time></trkpt><trkpt lat="45.59739741018172" lon="10.74291515199702"><ele>250.0</ele><time>2026-04-26T08:11:13Z</time></trkpt><trkpt lat="45.59746093716385" lon="10.743004830043676"><ele>251.0</ele><time>2026-04-26T08:11:15Z</time></trkpt><trkpt lat="45.59751726346946" lon="10.743083072603286"><ele>252.0</ele><time>2026-04-26T08:11:18Z</time></trkpt><trkpt lat="45.59756675018588" lon="10.743177469315043"><ele>250.5</ele><time>2026-04-26T08:11:20Z</time></trkpt><trkpt lat="45.597814913335206" lon="10.74358490744194"><ele>249.0</ele><time>2026-04-26T08:11:21Z</time></trkpt><trkpt lat="45.59781360543113" lon="10.743722053750204"><ele>249.0</ele><time>2026-04-26T08:11:22Z</time></trkpt><trkpt lat="45.597858565372285" lon="10.74386803759962"><ele>249.0</ele><time>2026-04-26T08:11:24Z</time></trkpt><trkpt lat="45.59789047129155" lon="10.74401784216908"><ele>249.0</ele><time>2026-04-26T08:11:26Z</time></trkpt><trkpt lat="45.59735590584273" lon="10.744157141205417"><ele>249.0</ele><time>2026-04-26T08:11:53Z</time></trkpt><trkpt lat="45.59735945066902" lon="10.743965161468905"><ele>248.99999999999997</ele><time>2026-04-26T08:12:22Z</time></trkpt><trkpt lat="45.597360309899514" lon="10.743872730859698"><ele>248.99999999999997</ele><time>2026-04-26T08:12:23Z</time></trkpt><trkpt lat="45.5973757768331" lon="10.743739089670703"><ele>249.0</ele><time>2026-04-26T08:12:25Z</time></trkpt><trkpt lat="45.59739037302034" lon="10.743623648685052"><ele>249.0</ele><time>2026-04-26T08:12:27Z</time></trkpt><trkpt lat="45.597407600577554" lon="10.74348971494281"><ele>249.0</ele><time>2026-04-26T08:12:29Z</time></trkpt><trkpt lat="45.597422865255474" lon="10.743394124908583"><ele>248.99999999999997</ele><time>2026-04-26T08:12:31Z</time></trkpt><trkpt lat="45.59745305586061" lon="10.743294049138422"><ele>248.99999999999997</ele><time>2026-04-26T08:12:33Z</time></trkpt><trkpt lat="45.597419134023944" lon="10.743435536781933"><ele>249.0</ele><time>2026-04-26T08:12:44Z</time></trkpt><trkpt lat="45.59739937321598" lon="10.74360023028942"><ele>249.0</ele><time>2026-04-26T08:12:46Z</time></trkpt><trkpt lat="45.59737776392296" lon="10.743775050438646"><ele>249.0</ele><time>2026-04-26T08:12:48Z</time></trkpt><trkpt lat="45.597366772291856" lon="10.743868857923161"><ele>248.99999999999997</ele><time>2026-04-26T08:12:49Z</time></trkpt><trkpt lat="45.59735572607681" lon="10.744029421852474"><ele>248.99999999999997</ele><time>2026-04-26T08:12:51Z</time></trkpt><trkpt lat="45.59735331304174" lon="10.74418497715301"><ele>249.0</ele><time>2026-04-26T08:12:53Z</time></trkpt><trkpt lat="45.59735232321199" lon="10.744300494614508"><ele>249.0</ele><time>2026-04-26T08:12:55Z</time></trkpt><trkpt lat="45.59737207963196" lon="10.744427395811657"><ele>248.39999999999998</ele><time>2026-04-26T08:12:57Z</time></trkpt><trkpt lat="45.597388917508525" lon="10.744556351690946"><ele>247.79999999999998</ele><time>2026-04-26T08:12:58Z</time></trkpt><trkpt lat="45.5974018226613" lon="10.744682382516391"><ele>247.20000000000002</ele><time>2026-04-26T08:12:59Z</time></trkpt><trkpt lat="45.597417423712166" lon="10.744808237524445"><ele>246.60000000000002</ele><time>2026-04-26T08:13:00Z</time></trkpt><trkpt lat="45.59741832378842" lon="10.744947460313"><ele>246.0</ele><time>2026-04-26T08:13:01Z</time></trkpt><trkpt lat="45.59740549017557" lon="10.745100358831225"><ele>245.33333333333334</ele><time>2026-04-26T08:13:02Z</time></trkpt><trkpt lat="45.59739217861535" lon="10.745219132826088"><ele>244.66666666666669</ele><time>2026-04-26T08:13:03Z</time></trkpt><trkpt lat="45.59735713926542" lon="10.74534209113524"><ele>244.0</ele><time>2026-04-26T08:13:04Z</time></trkpt><trkpt lat="45.59732301744885" lon="10.745479439787287"><ele>243.33333333333334</ele><time>2026-04-26T08:13:05Z</time></trkpt><trkpt lat="45.59729558241797" lon="10.745594863387561"><ele>242.66666666666669</ele><time>2026-04-26T08:13:06Z</time></trkpt><trkpt lat="45.5972738909631" lon="10.745698166865976"><ele>242.0</ele><time>2026-04-26T08:13:07Z</time></trkpt><trkpt lat="45.597261228872206" lon="10.745813708138252"><ele>242.0</ele><time>2026-04-26T08:13:08Z</time></trkpt><trkpt lat="45.59723744840886" lon="10.745960034293708"><ele>242.0</ele><time>2026-04-26T08:13:09Z</time></trkpt><trkpt lat="45.59722863586796" lon="10.746099959146976"><ele>242.0</ele><time>2026-04-26T08:13:10Z</time></trkpt><trkpt lat="45.59722734884588" lon="10.74624557090763"><ele>242.0</ele><time>2026-04-26T08:13:11Z</time></trkpt><trkpt lat="45.597250329961874" lon="10.746413591654132"><ele>242.0</ele><time>2026-04-26T08:13:13Z</time></trkpt><trkpt lat="45.59724755753991" lon="10.74652114536541"><ele>242.2</ele><time>2026-04-26T08:13:16Z</time></trkpt><trkpt lat="45.59718252839795" lon="10.746699668879588"><ele>242.39999999999998</ele><time>2026-04-26T08:13:18Z</time></trkpt><trkpt lat="45.59715848134625" lon="10.746829984488917"><ele>242.60000000000002</ele><time>2026-04-26T08:13:19Z</time></trkpt><trkpt lat="45.5971524381542" lon="10.746949725984559"><ele>242.8</ele><time>2026-04-26T08:13:20Z</time></trkpt><trkpt lat="45.59714376751551" lon="10.747067899721877"><ele>243.0</ele><time>2026-04-26T08:13:21Z</time></trkpt><trkpt lat="45.597131682801944" lon="10.747186357455693"><ele>243.0</ele><time>2026-04-26T08:13:22Z</time></trkpt><trkpt lat="45.59712093871995" lon="10.747321897245055"><ele>243.0</ele><time>2026-04-26T08:13:23Z</time></trkpt><trkpt lat="45.59711250712851" lon="10.747458515307057"><ele>243.0</ele><time>2026-04-26T08:13:24Z</time></trkpt><trkpt lat="45.59709336137664" lon="10.747621612178394"><ele>243.0</ele><time>2026-04-26T08:13:25Z</time></trkpt><trkpt lat="45.59708713979987" lon="10.747789417746246"><ele>243.0</ele><time>2026-04-26T08:13:26Z</time></trkpt><trkpt lat="45.597070536832014" lon="10.747974473795665"><ele>242.5</ele><time>2026-04-26T08:13:27Z</time></trkpt><trkpt lat="45.59705762951632" lon="10.748152684952275"><ele>242.0</ele><time>2026-04-26T08:13:28Z</time></trkpt><trkpt lat="45.59704713807171" lon="10.748323858999138"><ele>241.5</ele><time>2026-04-26T08:13:29Z</time></trkpt><trkpt lat="45.59703671348944" lon="10.74847700102804"><ele>241.0</ele><time>2026-04-26T08:13:30Z</time></trkpt><trkpt lat="45.596992814900766" lon="10.748605193245025"><ele>239.5</ele><time>2026-04-26T08:13:31Z</time></trkpt><trkpt lat="45.596950444120935" lon="10.748727192282812"><ele>238.0</ele><time>2026-04-26T08:13:32Z</time></trkpt><trkpt lat="45.596892146449136" lon="10.74886951093366"><ele>236.5</ele><time>2026-04-26T08:13:33Z</time></trkpt><trkpt lat="45.59684496337574" lon="10.749039668942773"><ele>235.0</ele><time>2026-04-26T08:13:34Z</time></trkpt><trkpt lat="45.596788183553386" lon="10.749222078262983"><ele>235.75</ele><time>2026-04-26T08:13:35Z</time></trkpt><trkpt lat="45.59674741313186" lon="10.749438607839886"><ele>236.5</ele><time>2026-04-26T08:13:36Z</time></trkpt><trkpt lat="45.596706475488276" lon="10.749634536097851"><ele>237.25</ele><time>2026-04-26T08:13:37Z</time></trkpt><trkpt lat="45.59665103991638" lon="10.749799755865611"><ele>238.0</ele><time>2026-04-26T08:13:38Z</time></trkpt><trkpt lat="45.596589142979134" lon="10.74995977285296"><ele>238.0</ele><time>2026-04-26T08:13:39Z</time></trkpt><trkpt lat="45.596544222717895" lon="10.750106432248547"><ele>238.0</ele><time>2026-04-26T08:13:40Z</time></trkpt><trkpt lat="45.596496241602004" lon="10.750235513637445"><ele>238.0</ele><time>2026-04-26T08:13:41Z</time></trkpt><trkpt lat="45.59645053197366" lon="10.75035560045208"><ele>238.0</ele><time>2026-04-26T08:13:42Z</time></trkpt><trkpt lat="45.59641426154" lon="10.750467338241789"><ele>238.0</ele><time>2026-04-26T08:13:43Z</time></trkpt><trkpt lat="45.59638176146856" lon="10.750583833903926"><ele>238.2</ele><time>2026-04-26T08:13:44Z</time></trkpt><trkpt lat="45.59636119438175" lon="10.750671782370373"><ele>238.4</ele><time>2026-04-26T08:13:45Z</time></trkpt><trkpt lat="45.59633688842169" lon="10.750799139726041"><ele>238.59999999999997</ele><time>2026-04-26T08:13:47Z</time></trkpt><trkpt lat="45.59630502668378" lon="10.750972897065012"><ele>238.79999999999998</ele><time>2026-04-26T08:13:49Z</time></trkpt><trkpt lat="45.59628421469785" lon="10.751101949263225"><ele>239.0</ele><time>2026-04-26T08:13:50Z</time></trkpt><trkpt lat="45.5962633605197" lon="10.751248366502638"><ele>238.6</ele><time>2026-04-26T08:13:51Z</time></trkpt><trkpt lat="45.59624168292968" lon="10.751389611152323"><ele>238.2</ele><time>2026-04-26T08:13:52Z</time></trkpt><trkpt lat="45.596221157464456" lon="10.751494922348279"><ele>237.79999999999998</ele><time>2026-04-26T08:13:53Z</time></trkpt><trkpt lat="45.59615355804718" lon="10.75162014899462"><ele>237.39999999999998</ele><time>2026-04-26T08:13:55Z</time></trkpt><trkpt lat="45.59612120425484" lon="10.751739374446121"><ele>237.0</ele><time>2026-04-26T08:13:56Z</time></trkpt><trkpt lat="45.59606902559765" lon="10.751865013754133"><ele>236.0</ele><time>2026-04-26T08:13:57Z</time></trkpt><trkpt lat="45.596019040860526" lon="10.752017021584553"><ele>235.0</ele><time>2026-04-26T08:13:58Z</time></trkpt><trkpt lat="45.59594686192695" lon="10.752134209623417"><ele>234.0</ele><time>2026-04-26T08:13:59Z</time></trkpt><trkpt lat="45.59588209984551" lon="10.752230488159425"><ele>233.0</ele><time>2026-04-26T08:14:00Z</time></trkpt><trkpt lat="45.59582069298772" lon="10.752314943065054"><ele>232.0</ele><time>2026-04-26T08:14:01Z</time></trkpt><trkpt lat="45.59575746455111" lon="10.752425938616861"><ele>232.0</ele><time>2026-04-26T08:14:02Z</time></trkpt><trkpt lat="45.595690468509254" lon="10.752515435375827"><ele>232.0</ele><time>2026-04-26T08:14:03Z</time></trkpt><trkpt lat="45.59564307773961" lon="10.752578285322123"><ele>232.0</ele><time>2026-04-26T08:14:04Z</time></trkpt><trkpt lat="45.59558333313921" lon="10.752656679646996"><ele>232.0</ele><time>2026-04-26T08:14:06Z</time></trkpt><trkpt lat="45.595645353981475" lon="10.75282348754792"><ele>232.0</ele><time>2026-04-26T08:14:13Z</time></trkpt><trkpt lat="45.59572216238138" lon="10.752871949711045"><ele>232.33333333333331</ele><time>2026-04-26T08:14:14Z</time></trkpt><trkpt lat="45.59579728150596" lon="10.752924545451734"><ele>232.66666666666666</ele><time>2026-04-26T08:14:15Z</time></trkpt><trkpt lat="45.59584729598055" lon="10.753016186469345"><ele>233.0</ele><time>2026-04-26T08:14:17Z</time></trkpt><trkpt lat="45.59574971752697" lon="10.753084409157529"><ele>233.33333333333331</ele><time>2026-04-26T08:14:19Z</time></trkpt><trkpt lat="45.59568105478254" lon="10.753111247126737"><ele>233.66666666666666</ele><time>2026-04-26T08:14:20Z</time></trkpt><trkpt lat="45.59560112788369" lon="10.753152009329602"><ele>234.0</ele><time>2026-04-26T08:14:21Z</time></trkpt><trkpt lat="45.59552327454864" lon="10.753170921149296"><ele>234.0</ele><time>2026-04-26T08:14:22Z</time></trkpt><trkpt lat="45.59544092526522" lon="10.75320086611472"><ele>233.99999999999997</ele><time>2026-04-26T08:14:23Z</time></trkpt><trkpt lat="45.595360016499576" lon="10.753232058610466"><ele>233.99999999999997</ele><time>2026-04-26T08:14:24Z</time></trkpt><trkpt lat="45.595284327699616" lon="10.753264064992353"><ele>234.0</ele><time>2026-04-26T08:14:25Z</time></trkpt><trkpt lat="45.59516681973203" lon="10.753337807424"><ele>234.0</ele><time>2026-04-26T08:14:27Z</time></trkpt><trkpt lat="45.595103707981586" lon="10.753392175674712"><ele>232.83333333333334</ele><time>2026-04-26T08:14:28Z</time></trkpt><trkpt lat="45.595034020872085" lon="10.75345560491164"><ele>231.66666666666669</ele><time>2026-04-26T08:14:29Z</time></trkpt><trkpt lat="45.59495391394263" lon="10.753523969713529"><ele>230.5</ele><time>2026-04-26T08:14:30Z</time></trkpt><trkpt lat="45.59488696286904" lon="10.753580764055638"><ele>229.33333333333334</ele><time>2026-04-26T08:14:31Z</time></trkpt><trkpt lat="45.59482759914434" lon="10.753621546968564"><ele>228.16666666666669</ele><time>2026-04-26T08:14:32Z</time></trkpt><trkpt lat="45.59474464888563" lon="10.75367386304164"><ele>227.0</ele><time>2026-04-26T08:14:34Z</time></trkpt><trkpt lat="45.594805187564006" lon="10.753632462413613"><ele>227.00000000000003</ele><time>2026-04-26T08:14:39Z</time></trkpt><trkpt lat="45.594882245662724" lon="10.753566765795416"><ele>227.0</ele><time>2026-04-26T08:14:40Z</time></trkpt><trkpt lat="45.59496139091436" lon="10.753555600468273"><ele>227.0</ele><time>2026-04-26T08:14:41Z</time></trkpt><trkpt lat="45.595035259955445" lon="10.753485929424848"><ele>227.0</ele><time>2026-04-26T08:14:42Z</time></trkpt><trkpt lat="45.59510224885453" lon="10.753429914181986"><ele>227.00000000000003</ele><time>2026-04-26T08:14:43Z</time></trkpt><trkpt lat="45.59517519347155" lon="10.753378145149364"><ele>227.0</ele><time>2026-04-26T08:14:44Z</time></trkpt><trkpt lat="45.595268400857826" lon="10.753310455531347"><ele>227.00000000000003</ele><time>2026-04-26T08:14:46Z</time></trkpt><trkpt lat="45.595282270600336" lon="10.753431744718991"><ele>227.0</ele><time>2026-04-26T08:14:50Z</time></trkpt><trkpt lat="45.5952676419834" lon="10.753577298299057"><ele>227.0</ele><time>2026-04-26T08:14:53Z</time></trkpt><trkpt lat="45.595247796908815" lon="10.753663493363783"><ele>227.0</ele><time>2026-04-26T08:14:54Z</time></trkpt><trkpt lat="45.595218018285735" lon="10.753777133197227"><ele>227.00000000000003</ele><time>2026-04-26T08:14:55Z</time></trkpt><trkpt lat="45.59519484308377" lon="10.753895901410035"><ele>227.0</ele><time>2026-04-26T08:14:56Z</time></trkpt><trkpt lat="45.59516816641921" lon="10.754024326417895"><ele>227.0</ele><time>2026-04-26T08:14:57Z</time></trkpt><trkpt lat="45.59514122092546" lon="10.754144878492832"><ele>227.0</ele><time>2026-04-26T08:14:58Z</time></trkpt><trkpt lat="45.59510620780985" lon="10.7543082422834"><ele>227.0</ele><time>2026-04-26T08:15:00Z</time></trkpt><trkpt lat="45.59507200672491" lon="10.754458699107412"><ele>227.0</ele><time>2026-04-26T08:15:02Z</time></trkpt><trkpt lat="45.59504387017366" lon="10.754603283642805"><ele>227.0</ele><time>2026-04-26T08:15:04Z</time></trkpt><trkpt lat="45.59501210761366" lon="10.75472940452847"><ele>226.8</ele><time>2026-04-26T08:15:07Z</time></trkpt><trkpt lat="45.59500319049677" lon="10.754842482891696"><ele>226.6</ele><time>2026-04-26T08:15:11Z</time></trkpt><trkpt lat="45.59495844000329" lon="10.754987102522277"><ele>226.40000000000003</ele><time>2026-04-26T08:15:13Z</time></trkpt><trkpt lat="45.5949139908303" lon="10.755088501745483"><ele>226.20000000000002</ele><time>2026-04-26T08:15:14Z</time></trkpt><trkpt lat="45.59485700539893" lon="10.755214369425287"><ele>226.0</ele><time>2026-04-26T08:15:15Z</time></trkpt><trkpt lat="45.594801184269464" lon="10.755350598690352"><ele>225.8</ele><time>2026-04-26T08:15:16Z</time></trkpt><trkpt lat="45.59475268475001" lon="10.755470368311483"><ele>225.60000000000002</ele><time>2026-04-26T08:15:17Z</time></trkpt><trkpt lat="45.59469534225022" lon="10.75560817666402"><ele>225.4</ele><time>2026-04-26T08:15:18Z</time></trkpt><trkpt lat="45.59463825490864" lon="10.755747646217428"><ele>225.2</ele><time>2026-04-26T08:15:19Z</time></trkpt><trkpt lat="45.594577201495724" lon="10.75586086283588"><ele>225.0</ele><time>2026-04-26T08:15:20Z</time></trkpt><trkpt lat="45.59454609396018" lon="10.75598357135563"><ele>224.8</ele><time>2026-04-26T08:15:21Z</time></trkpt><trkpt lat="45.59451110241025" lon="10.756111359353847"><ele>224.6</ele><time>2026-04-26T08:15:22Z</time></trkpt><trkpt lat="45.594470942794004" lon="10.756243945925748"><ele>224.39999999999998</ele><time>2026-04-26T08:15:23Z</time></trkpt><trkpt lat="45.594421398890425" lon="10.756376939635732"><ele>224.2</ele><time>2026-04-26T08:15:24Z</time></trkpt><trkpt lat="45.594394345312786" lon="10.756501252087583"><ele>224.0</ele><time>2026-04-26T08:15:25Z</time></trkpt><trkpt lat="45.594375214884415" lon="10.756607037523203"><ele>223.2</ele><time>2026-04-26T08:15:26Z</time></trkpt><trkpt lat="45.59435510798068" lon="10.756707529696344"><ele>222.39999999999998</ele><time>2026-04-26T08:15:27Z</time></trkpt><trkpt lat="45.59431736498841" lon="10.75685481381628"><ele>221.6</ele><time>2026-04-26T08:15:28Z</time></trkpt><trkpt lat="45.59427350239871" lon="10.757010646694901"><ele>220.8</ele><time>2026-04-26T08:15:29Z</time></trkpt><trkpt lat="45.59422779368549" lon="10.757170437170624"><ele>220.0</ele><time>2026-04-26T08:15:30Z</time></trkpt><trkpt lat="45.594186255031474" lon="10.75733422694222"><ele>220.0</ele><time>2026-04-26T08:15:31Z</time></trkpt><trkpt lat="45.59414339201647" lon="10.757503034485612"><ele>220.0</ele><time>2026-04-26T08:15:32Z</time></trkpt><trkpt lat="45.59410166546323" lon="10.757651847515294"><ele>220.0</ele><time>2026-04-26T08:15:33Z</time></trkpt><trkpt lat="45.59406375708485" lon="10.757782486834982"><ele>220.0</ele><time>2026-04-26T08:15:34Z</time></trkpt><trkpt lat="45.594027690977356" lon="10.757907387540447"><ele>220.0</ele><time>2026-04-26T08:15:35Z</time></trkpt><trkpt lat="45.59397810872044" lon="10.758003858858386"><ele>220.0</ele><time>2026-04-26T08:15:36Z</time></trkpt><trkpt lat="45.59394347558545" lon="10.758086488266063"><ele>220.0</ele><time>2026-04-26T08:15:37Z</time></trkpt><trkpt lat="45.59390708733765" lon="10.758177213340458"><ele>220.0</ele><time>2026-04-26T08:15:38Z</time></trkpt><trkpt lat="45.59386408427931" lon="10.758284430991898"><ele>220.0</ele><time>2026-04-26T08:15:40Z</time></trkpt><trkpt lat="45.593775270618835" lon="10.758286424454358"><ele>220.0</ele><time>2026-04-26T08:15:42Z</time></trkpt><trkpt lat="45.59383586344541" lon="10.758538765952396"><ele>220.33333333333331</ele><time>2026-04-26T08:15:44Z</time></trkpt><trkpt lat="45.59382317545805" lon="10.75863339141025"><ele>220.66666666666666</ele><time>2026-04-26T08:15:45Z</time></trkpt><trkpt lat="45.593818308535475" lon="10.758740911467996"><ele>221.0</ele><time>2026-04-26T08:15:46Z</time></trkpt><trkpt lat="45.593808961515954" lon="10.758876903911426"><ele>221.33333333333331</ele><time>2026-04-26T08:15:47Z</time></trkpt><trkpt lat="45.593797788131475" lon="10.75899661357083"><ele>221.66666666666666</ele><time>2026-04-26T08:15:48Z</time></trkpt><trkpt lat="45.59378748864053" lon="10.759098415791124"><ele>222.0</ele><time>2026-04-26T08:15:49Z</time></trkpt><trkpt lat="45.59377457485292" lon="10.759222232220354"><ele>222.0</ele><time>2026-04-26T08:15:50Z</time></trkpt><trkpt lat="45.593754668864" lon="10.759357756595998"><ele>222.0</ele><time>2026-04-26T08:15:51Z</time></trkpt><trkpt lat="45.5937452991458" lon="10.759523891307838"><ele>222.0</ele><time>2026-04-26T08:15:52Z</time></trkpt><trkpt lat="45.59373444410038" lon="10.759700639103706"><ele>222.0</ele><time>2026-04-26T08:15:53Z</time></trkpt><trkpt lat="45.59372670020434" lon="10.759878698012226"><ele>221.0</ele><time>2026-04-26T08:15:54Z</time></trkpt><trkpt lat="45.5937189027229" lon="10.760048427393654"><ele>220.0</ele><time>2026-04-26T08:15:55Z</time></trkpt><trkpt lat="45.59371678697457" lon="10.760234950702586"><ele>219.0</ele><time>2026-04-26T08:15:56Z</time></trkpt><trkpt lat="45.59371222836756" lon="10.760417546287837"><ele>218.0</ele><time>2026-04-26T08:15:57Z</time></trkpt><trkpt lat="45.59370705686904" lon="10.760607804854958"><ele>217.5</ele><time>2026-04-26T08:15:58Z</time></trkpt><trkpt lat="45.593701330899904" lon="10.760782623280356"><ele>217.0</ele><time>2026-04-26T08:15:59Z</time></trkpt><trkpt lat="45.593697940406216" lon="10.7609565320208"><ele>216.5</ele><time>2026-04-26T08:16:00Z</time></trkpt><trkpt lat="45.59369634566875" lon="10.761148846290546"><ele>216.0</ele><time>2026-04-26T08:16:01Z</time></trkpt><trkpt lat="45.59369135657408" lon="10.76134752332029"><ele>216.0</ele><time>2026-04-26T08:16:02Z</time></trkpt><trkpt lat="45.593686382200296" lon="10.761517062772807"><ele>216.00000000000003</ele><time>2026-04-26T08:16:03Z</time></trkpt><trkpt lat="45.59368617292544" lon="10.761677822428553"><ele>216.00000000000003</ele><time>2026-04-26T08:16:04Z</time></trkpt><trkpt lat="45.59368209316333" lon="10.761800447925985"><ele>216.0</ele><time>2026-04-26T08:16:05Z</time></trkpt><trkpt lat="45.59366662961377" lon="10.761936375634082"><ele>216.0</ele><time>2026-04-26T08:16:06Z</time></trkpt><trkpt lat="45.593654728310014" lon="10.762036018118037"><ele>216.0</ele><time>2026-04-26T08:16:07Z</time></trkpt><trkpt lat="45.59364930182461" lon="10.76212793407691"><ele>216.0</ele><time>2026-04-26T08:16:08Z</time></trkpt><trkpt lat="45.593633151466165" lon="10.762243312805209"><ele>216.0</ele><time>2026-04-26T08:16:09Z</time></trkpt><trkpt lat="45.593607918481005" lon="10.76234516626323"><ele>216.0</ele><time>2026-04-26T08:16:10Z</time></trkpt><trkpt lat="45.59357873408298" lon="10.762513034731558"><ele>216.0</ele><time>2026-04-26T08:16:11Z</time></trkpt><trkpt lat="45.59355173611993" lon="10.762655856052085"><ele>216.0</ele><time>2026-04-26T08:16:12Z</time></trkpt><trkpt lat="45.59352722078727" lon="10.762763580944922"><ele>216.0</ele><time>2026-04-26T08:16:13Z</time></trkpt><trkpt lat="45.59349643545058" lon="10.762859144241094"><ele>216.0</ele><time>2026-04-26T08:16:14Z</time></trkpt><trkpt lat="45.593469149149314" lon="10.76294864379924"><ele>216.0</ele><time>2026-04-26T08:16:15Z</time></trkpt><trkpt lat="45.59344344122214" lon="10.763041400116958"><ele>216.0</ele><time>2026-04-26T08:16:16Z</time></trkpt><trkpt lat="45.59340083032733" lon="10.76318600849291"><ele>216.0</ele><time>2026-04-26T08:16:17Z</time></trkpt><trkpt lat="45.59335464359862" lon="10.763298019268886"><ele>216.0</ele><time>2026-04-26T08:16:18Z</time></trkpt><trkpt lat="45.593311885800425" lon="10.763423315441647"><ele>216.0</ele><time>2026-04-26T08:16:19Z</time></trkpt><trkpt lat="45.59326268490931" lon="10.763547631057454"><ele>216.0</ele><time>2026-04-26T08:16:20Z</time></trkpt><trkpt lat="45.59322611068839" lon="10.763657302255144"><ele>216.0</ele><time>2026-04-26T08:16:21Z</time></trkpt><trkpt lat="45.59318281705979" lon="10.763758778534807"><ele>216.0</ele><time>2026-04-26T08:16:23Z</time></trkpt><trkpt lat="45.593126515033674" lon="10.763866659094921"><ele>216.0</ele><time>2026-04-26T08:16:30Z</time></trkpt><trkpt lat="45.59307015113762" lon="10.763933173832163"><ele>216.0</ele><time>2026-04-26T08:16:32Z</time></trkpt><trkpt lat="45.592981585894705" lon="10.76402726250459"><ele>216.0</ele><time>2026-04-26T08:16:34Z</time></trkpt><trkpt lat="45.59291264769016" lon="10.764100762987983"><ele>216.0</ele><time>2026-04-26T08:16:35Z</time></trkpt><trkpt lat="45.59285964116354" lon="10.764159756750194"><ele>216.0</ele><time>2026-04-26T08:16:36Z</time></trkpt><trkpt lat="45.59279245675952" lon="10.764244057337427"><ele>216.0</ele><time>2026-04-26T08:16:38Z</time></trkpt><trkpt lat="45.592748790062046" lon="10.764315738247914"><ele>216.0</ele><time>2026-04-26T08:16:39Z</time></trkpt><trkpt lat="45.59270398374217" lon="10.764405666883391"><ele>216.0</ele><time>2026-04-26T08:16:40Z</time></trkpt><trkpt lat="45.59266377867538" lon="10.764481194094154"><ele>216.16666666666666</ele><time>2026-04-26T08:16:41Z</time></trkpt><trkpt lat="45.592606649251124" lon="10.764578768608649"><ele>216.33333333333331</ele><time>2026-04-26T08:16:43Z</time></trkpt><trkpt lat="45.59260454163704" lon="10.764693865953364"><ele>216.5</ele><time>2026-04-26T08:16:47Z</time></trkpt><trkpt lat="45.592610065613194" lon="10.764801856176726"><ele>216.66666666666666</ele><time>2026-04-26T08:16:48Z</time></trkpt><trkpt lat="45.592593810914934" lon="10.76495046272266"><ele>216.83333333333331</ele><time>2026-04-26T08:16:50Z</time></trkpt><trkpt lat="45.59254795592596" lon="10.765023857987432"><ele>217.0</ele><time>2026-04-26T08:16:51Z</time></trkpt><trkpt lat="45.59249792926943" lon="10.76510865630285"><ele>216.8</ele><time>2026-04-26T08:16:52Z</time></trkpt><trkpt lat="45.59244640370055" lon="10.765205614117846"><ele>216.6</ele><time>2026-04-26T08:16:53Z</time></trkpt><trkpt lat="45.592391427783106" lon="10.765290246940255"><ele>216.40000000000003</ele><time>2026-04-26T08:16:54Z</time></trkpt><trkpt lat="45.59231065561753" lon="10.765419054384088"><ele>216.20000000000002</ele><time>2026-04-26T08:16:55Z</time></trkpt><trkpt lat="45.59222776030769" lon="10.765547949095113"><ele>216.0</ele><time>2026-04-26T08:16:56Z</time></trkpt><trkpt lat="45.592153481271104" lon="10.765657300094363"><ele>216.0</ele><time>2026-04-26T08:16:57Z</time></trkpt><trkpt lat="45.592094093906866" lon="10.765757675904572"><ele>216.00000000000003</ele><time>2026-04-26T08:16:58Z</time></trkpt><trkpt lat="45.59202972765184" lon="10.76588099431276"><ele>216.00000000000003</ele><time>2026-04-26T08:16:59Z</time></trkpt><trkpt lat="45.59196791608001" lon="10.76599671009952"><ele>216.0</ele><time>2026-04-26T08:17:00Z</time></trkpt><trkpt lat="45.59190665549053" lon="10.766132943365637"><ele>216.0</ele><time>2026-04-26T08:17:01Z</time></trkpt><trkpt lat="45.59184504201802" lon="10.766276134295946"><ele>216.0</ele><time>2026-04-26T08:17:02Z</time></trkpt><trkpt lat="45.591802995497595" lon="10.766406068101471"><ele>216.0</ele><time>2026-04-26T08:17:03Z</time></trkpt><trkpt lat="45.591754417299235" lon="10.766549799174864"><ele>216.0</ele><time>2026-04-26T08:17:04Z</time></trkpt><trkpt lat="45.59169502905496" lon="10.766713002820426"><ele>216.0</ele><time>2026-04-26T08:17:05Z</time></trkpt><trkpt lat="45.59163962662584" lon="10.766847136222923"><ele>216.4</ele><time>2026-04-26T08:17:06Z</time></trkpt><trkpt lat="45.59159675822255" lon="10.766938553220196"><ele>216.8</ele><time>2026-04-26T08:17:07Z</time></trkpt><trkpt lat="45.591563238616274" lon="10.767055625617408"><ele>217.20000000000002</ele><time>2026-04-26T08:17:08Z</time></trkpt><trkpt lat="45.591533861471845" lon="10.767211128798273"><ele>217.60000000000002</ele><time>2026-04-26T08:17:09Z</time></trkpt><trkpt lat="45.591517384592166" lon="10.767360121340007"><ele>218.0</ele><time>2026-04-26T08:17:10Z</time></trkpt><trkpt lat="45.591503338344324" lon="10.767498648557934"><ele>218.00000000000003</ele><time>2026-04-26T08:17:11Z</time></trkpt><trkpt lat="45.591493889981614" lon="10.767594773069169"><ele>218.0</ele><time>2026-04-26T08:17:12Z</time></trkpt><trkpt lat="45.59149115516016" lon="10.767715915054753"><ele>218.0</ele><time>2026-04-26T08:17:13Z</time></trkpt><trkpt lat="45.591504552195445" lon="10.767828332803298"><ele>218.0</ele><time>2026-04-26T08:17:14Z</time></trkpt><trkpt lat="45.59151858171141" lon="10.767940160077638"><ele>218.00000000000003</ele><time>2026-04-26T08:17:15Z</time></trkpt><trkpt lat="45.59152382929847" lon="10.768066610914818"><ele>218.0</ele><time>2026-04-26T08:17:16Z</time></trkpt><trkpt lat="45.59153139776438" lon="10.768213844162544"><ele>217.8</ele><time>2026-04-26T08:17:18Z</time></trkpt><trkpt lat="45.59155735844448" lon="10.768344668091839"><ele>217.60000000000002</ele><time>2026-04-26T08:17:22Z</time></trkpt><trkpt lat="45.59160769955631" lon="10.768514262195248"><ele>217.39999999999998</ele><time>2026-04-26T08:17:24Z</time></trkpt><trkpt lat="45.59163604301153" lon="10.768611646689138"><ele>217.2</ele><time>2026-04-26T08:17:25Z</time></trkpt><trkpt lat="45.591662469137226" lon="10.768713741680614"><ele>217.0</ele><time>2026-04-26T08:17:26Z</time></trkpt><trkpt lat="45.59169156021343" lon="10.768823326255205"><ele>217.0</ele><time>2026-04-26T08:17:27Z</time></trkpt><trkpt lat="45.59171953709809" lon="10.768927579614425"><ele>217.0</ele><time>2026-04-26T08:17:28Z</time></trkpt><trkpt lat="45.59174469527589" lon="10.769041853392622"><ele>217.0</ele><time>2026-04-26T08:17:29Z</time></trkpt><trkpt lat="45.591771617448295" lon="10.769153066798099"><ele>217.0</ele><time>2026-04-26T08:17:30Z</time></trkpt><trkpt lat="45.591838134694775" lon="10.769297417769808"><ele>217.0</ele><time>2026-04-26T08:17:32Z</time></trkpt><trkpt lat="45.591879970140944" lon="10.769407561950516"><ele>217.39999999999998</ele><time>2026-04-26T08:17:33Z</time></trkpt><trkpt lat="45.59193986979469" lon="10.769549824667402"><ele>217.79999999999998</ele><time>2026-04-26T08:17:34Z</time></trkpt><trkpt lat="45.59201180238511" lon="10.769672677149043"><ele>218.2</ele><time>2026-04-26T08:17:35Z</time></trkpt><trkpt lat="45.59208301093536" lon="10.769796302199978"><ele>218.6</ele><time>2026-04-26T08:17:36Z</time></trkpt><trkpt lat="45.592153579910416" lon="10.769904248660795"><ele>219.0</ele><time>2026-04-26T08:17:37Z</time></trkpt><trkpt lat="45.592213333076295" lon="10.770008672781476"><ele>219.0</ele><time>2026-04-26T08:17:38Z</time></trkpt><trkpt lat="45.592280483087514" lon="10.77012916501845"><ele>218.99999999999997</ele><time>2026-04-26T08:17:39Z</time></trkpt><trkpt lat="45.592333738825836" lon="10.77023385828945"><ele>218.99999999999997</ele><time>2026-04-26T08:17:40Z</time></trkpt><trkpt lat="45.592386765810986" lon="10.77034682597703"><ele>219.0</ele><time>2026-04-26T08:17:41Z</time></trkpt><trkpt lat="45.592444798545955" lon="10.770467566410774"><ele>219.0</ele><time>2026-04-26T08:17:42Z</time></trkpt><trkpt lat="45.592494064795886" lon="10.770559230126988"><ele>219.0</ele><time>2026-04-26T08:17:43Z</time></trkpt><trkpt lat="45.59254969159011" lon="10.770616807139948"><ele>218.99999999999997</ele><time>2026-04-26T08:17:44Z</time></trkpt><trkpt lat="45.59265213710793" lon="10.770700292693816"><ele>218.99999999999997</ele><time>2026-04-26T08:17:45Z</time></trkpt><trkpt lat="45.59274047670739" lon="10.77080995245694"><ele>219.0</ele><time>2026-04-26T08:17:46Z</time></trkpt><trkpt lat="45.59280870137778" lon="10.77090686328016"><ele>219.0</ele><time>2026-04-26T08:17:47Z</time></trkpt><trkpt lat="45.59287308934243" lon="10.77101593762846"><ele>219.2</ele><time>2026-04-26T08:17:48Z</time></trkpt><trkpt lat="45.5929217063604" lon="10.771093303616578"><ele>219.39999999999998</ele><time>2026-04-26T08:17:49Z</time></trkpt><trkpt lat="45.592989589117266" lon="10.771171611212825"><ele>219.6</ele><time>2026-04-26T08:17:50Z</time></trkpt><trkpt lat="45.59307597740436" lon="10.771261501697738"><ele>219.8</ele><time>2026-04-26T08:17:51Z</time></trkpt><trkpt lat="45.59317894732576" lon="10.771366094473688"><ele>220.0</ele><time>2026-04-26T08:17:52Z</time></trkpt><trkpt lat="45.59328610138165" lon="10.771462182508522"><ele>220.0</ele><time>2026-04-26T08:17:53Z</time></trkpt><trkpt lat="45.593391929765474" lon="10.77158586201304"><ele>220.0</ele><time>2026-04-26T08:17:54Z</time></trkpt><trkpt lat="45.59347503598082" lon="10.771704417567678"><ele>220.0</ele><time>2026-04-26T08:17:55Z</time></trkpt><trkpt lat="45.59354875476105" lon="10.7718163371333"><ele>220.0</ele><time>2026-04-26T08:17:56Z</time></trkpt><trkpt lat="45.59360772448835" lon="10.77191633650506"><ele>220.25</ele><time>2026-04-26T08:17:57Z</time></trkpt><trkpt lat="45.593686448194276" lon="10.772043384735245"><ele>220.5</ele><time>2026-04-26T08:17:58Z</time></trkpt><trkpt lat="45.593769369990355" lon="10.772124951287736"><ele>220.75</ele><time>2026-04-26T08:17:59Z</time></trkpt><trkpt lat="45.593875133023566" lon="10.772203023427167"><ele>221.0</ele><time>2026-04-26T08:18:00Z</time></trkpt><trkpt lat="45.59399013139214" lon="10.77228604417737"><ele>221.00000000000003</ele><time>2026-04-26T08:18:01Z</time></trkpt><trkpt lat="45.594069048381925" lon="10.772350921788776"><ele>221.0</ele><time>2026-04-26T08:18:02Z</time></trkpt><trkpt lat="45.59414832055387" lon="10.77241982181098"><ele>221.0</ele><time>2026-04-26T08:18:03Z</time></trkpt><trkpt lat="45.594210159198816" lon="10.772476973141844"><ele>221.0</ele><time>2026-04-26T08:18:04Z</time></trkpt><trkpt lat="45.59427710119913" lon="10.77252920201136"><ele>221.00000000000003</ele><time>2026-04-26T08:18:05Z</time></trkpt><trkpt lat="45.59436016812789" lon="10.772574999758527"><ele>221.0</ele><time>2026-04-26T08:18:06Z</time></trkpt><trkpt lat="45.594452741884865" lon="10.772626045152196"><ele>221.00000000000003</ele><time>2026-04-26T08:18:07Z</time></trkpt><trkpt lat="45.59452687335501" lon="10.772676191470586"><ele>221.0</ele><time>2026-04-26T08:18:08Z</time></trkpt><trkpt lat="45.59460189491362" lon="10.772750464375115"><ele>221.0</ele><time>2026-04-26T08:18:10Z</time></trkpt><trkpt lat="45.594685468751486" lon="10.772843604850497"><ele>221.0</ele><time>2026-04-26T08:18:12Z</time></trkpt><trkpt lat="45.59473473168356" lon="10.772900290635825"><ele>221.00000000000003</ele><time>2026-04-26T08:18:13Z</time></trkpt><trkpt lat="45.594791026328835" lon="10.77295007040876"><ele>221.0</ele><time>2026-04-26T08:18:14Z</time></trkpt><trkpt lat="45.59486329471869" lon="10.773009233250292"><ele>221.20000000000002</ele><time>2026-04-26T08:18:15Z</time></trkpt><trkpt lat="45.59494097839309" lon="10.773064391360892"><ele>221.40000000000003</ele><time>2026-04-26T08:18:16Z</time></trkpt><trkpt lat="45.595045563726" lon="10.773121474082318"><ele>221.6</ele><time>2026-04-26T08:18:17Z</time></trkpt><trkpt lat="45.59514569712254" lon="10.773167840490071"><ele>221.8</ele><time>2026-04-26T08:18:18Z</time></trkpt><trkpt lat="45.595258358135915" lon="10.773201697956537"><ele>222.0</ele><time>2026-04-26T08:18:19Z</time></trkpt><trkpt lat="45.59536013053515" lon="10.77324761795725"><ele>222.0</ele><time>2026-04-26T08:18:20Z</time></trkpt><trkpt lat="45.59547136037919" lon="10.773243174781552"><ele>222.0</ele><time>2026-04-26T08:18:21Z</time></trkpt><trkpt lat="45.59556612506735" lon="10.773247031386244"><ele>222.0</ele><time>2026-04-26T08:18:22Z</time></trkpt><trkpt lat="45.59566530912889" lon="10.773246341861157"><ele>222.0</ele><time>2026-04-26T08:18:23Z</time></trkpt><trkpt lat="45.59578780193433" lon="10.773265460517134"><ele>222.0</ele><time>2026-04-26T08:18:24Z</time></trkpt><trkpt lat="45.5958937294221" lon="10.77331373960468"><ele>222.0</ele><time>2026-04-26T08:18:25Z</time></trkpt><trkpt lat="45.59598226213881" lon="10.77342328356978"><ele>222.0</ele><time>2026-04-26T08:18:26Z</time></trkpt><trkpt lat="45.596105695630364" lon="10.773522692932586"><ele>222.0</ele><time>2026-04-26T08:18:27Z</time></trkpt><trkpt lat="45.5962189430402" lon="10.773650966011076"><ele>222.0</ele><time>2026-04-26T08:18:28Z</time></trkpt><trkpt lat="45.596322288007414" lon="10.773761204729336"><ele>222.39999999999998</ele><time>2026-04-26T08:18:29Z</time></trkpt><trkpt lat="45.59641007400898" lon="10.773847039115442"><ele>222.79999999999998</ele><time>2026-04-26T08:18:30Z</time></trkpt><trkpt lat="45.59649941175196" lon="10.773898382673234"><ele>223.2</ele><time>2026-04-26T08:18:31Z</time></trkpt><trkpt lat="45.59656288093499" lon="10.773947050848006"><ele>223.6</ele><time>2026-04-26T08:18:32Z</time></trkpt><trkpt lat="45.59661845135844" lon="10.774006087868312"><ele>224.0</ele><time>2026-04-26T08:18:34Z</time></trkpt><trkpt lat="45.59645908359989" lon="10.774192355420368"><ele>224.00000000000003</ele><time>2026-04-26T08:19:10Z</time></trkpt><trkpt lat="45.5963700572971" lon="10.774308201336378"><ele>224.0</ele><time>2026-04-26T08:19:12Z</time></trkpt><trkpt lat="45.59633045882123" lon="10.774390329577203"><ele>224.0</ele><time>2026-04-26T08:19:13Z</time></trkpt><trkpt lat="45.596278272830524" lon="10.774463838408309"><ele>224.0</ele><time>2026-04-26T08:19:14Z</time></trkpt><trkpt lat="45.59621732956085" lon="10.77456080359273"><ele>224.00000000000003</ele><time>2026-04-26T08:19:15Z</time></trkpt><trkpt lat="45.596162232957454" lon="10.774654670459254"><ele>224.0</ele><time>2026-04-26T08:19:16Z</time></trkpt><trkpt lat="45.59609751612858" lon="10.774767177088536"><ele>223.79999999999998</ele><time>2026-04-26T08:19:17Z</time></trkpt><trkpt lat="45.59602386325031" lon="10.774889636887469"><ele>223.59999999999997</ele><time>2026-04-26T08:19:18Z</time></trkpt><trkpt lat="45.59595794881011" lon="10.774996502446475"><ele>223.4</ele><time>2026-04-26T08:19:19Z</time></trkpt><trkpt lat="45.59587295556555" lon="10.775075874322031"><ele>223.2</ele><time>2026-04-26T08:19:20Z</time></trkpt><trkpt lat="45.59578300464246" lon="10.77515163961277"><ele>223.0</ele><time>2026-04-26T08:19:21Z</time></trkpt><trkpt lat="45.59568531541366" lon="10.77522750822183"><ele>223.60000000000002</ele><time>2026-04-26T08:19:22Z</time></trkpt><trkpt lat="45.59558989638706" lon="10.775311048175102"><ele>224.20000000000002</ele><time>2026-04-26T08:19:23Z</time></trkpt><trkpt lat="45.595506084806225" lon="10.775376292240736"><ele>224.8</ele><time>2026-04-26T08:19:24Z</time></trkpt><trkpt lat="45.595419371224075" lon="10.775440522990534"><ele>225.4</ele><time>2026-04-26T08:19:25Z</time></trkpt><trkpt lat="45.59533006378703" lon="10.775522802125947"><ele>226.0</ele><time>2026-04-26T08:19:26Z</time></trkpt><trkpt lat="45.59523132040889" lon="10.775609728419784"><ele>226.0</ele><time>2026-04-26T08:19:27Z</time></trkpt><trkpt lat="45.59513936150501" lon="10.775684923069978"><ele>226.00000000000003</ele><time>2026-04-26T08:19:28Z</time></trkpt><trkpt lat="45.595057557530026" lon="10.775759657173596"><ele>226.00000000000003</ele><time>2026-04-26T08:19:29Z</time></trkpt><trkpt lat="45.594982317595154" lon="10.775832022282337"><ele>226.0</ele><time>2026-04-26T08:19:30Z</time></trkpt><trkpt lat="45.594906763749535" lon="10.775904664731462"><ele>226.0</ele><time>2026-04-26T08:19:31Z</time></trkpt><trkpt lat="45.594819372588184" lon="10.775990068493595"><ele>226.20000000000002</ele><time>2026-04-26T08:19:32Z</time></trkpt><trkpt lat="45.59472882825588" lon="10.776084893994451"><ele>226.40000000000003</ele><time>2026-04-26T08:19:33Z</time></trkpt><trkpt lat="45.594639061525385" lon="10.776191120754747"><ele>226.6</ele><time>2026-04-26T08:19:34Z</time></trkpt><trkpt lat="45.59456533901963" lon="10.776286754488726"><ele>226.8</ele><time>2026-04-26T08:19:35Z</time></trkpt><trkpt lat="45.594492362276306" lon="10.77637822908146"><ele>227.0</ele><time>2026-04-26T08:19:36Z</time></trkpt><trkpt lat="45.594415092235664" lon="10.776471538472707"><ele>226.5</ele><time>2026-04-26T08:19:37Z</time></trkpt><trkpt lat="45.5943228197883" lon="10.776583800071691"><ele>226.0</ele><time>2026-04-26T08:19:38Z</time></trkpt><trkpt lat="45.59422531440886" lon="10.776705244426878"><ele>225.5</ele><time>2026-04-26T08:19:39Z</time></trkpt><trkpt lat="45.594127689471826" lon="10.776829097741542"><ele>225.0</ele><time>2026-04-26T08:19:40Z</time></trkpt><trkpt lat="45.59402938457327" lon="10.776955659656402"><ele>224.75</ele><time>2026-04-26T08:19:41Z</time></trkpt><trkpt lat="45.5939350091037" lon="10.777073965990255"><ele>224.5</ele><time>2026-04-26T08:19:42Z</time></trkpt><trkpt lat="45.59384666297552" lon="10.77717899257783"><ele>224.25</ele><time>2026-04-26T08:19:43Z</time></trkpt><trkpt lat="45.59376353763121" lon="10.777282868239302"><ele>224.0</ele><time>2026-04-26T08:19:44Z</time></trkpt><trkpt lat="45.59368067656166" lon="10.777390541622331"><ele>224.0</ele><time>2026-04-26T08:19:45Z</time></trkpt><trkpt lat="45.59359570118257" lon="10.777497418903907"><ele>224.0</ele><time>2026-04-26T08:19:46Z</time></trkpt><trkpt lat="45.593504015216034" lon="10.777604387106583"><ele>224.0</ele><time>2026-04-26T08:19:47Z</time></trkpt><trkpt lat="45.5934074130846" lon="10.77771992957093"><ele>224.0</ele><time>2026-04-26T08:19:48Z</time></trkpt><trkpt lat="45.593311105231734" lon="10.77783448710037"><ele>224.0</ele><time>2026-04-26T08:19:49Z</time></trkpt><trkpt lat="45.593211242071455" lon="10.77795019607863"><ele>224.0</ele><time>2026-04-26T08:19:50Z</time></trkpt><trkpt lat="45.593104548781696" lon="10.778068310992822"><ele>224.0</ele><time>2026-04-26T08:19:51Z</time></trkpt><trkpt lat="45.59300085673565" lon="10.77818125111483"><ele>224.0</ele><time>2026-04-26T08:19:52Z</time></trkpt><trkpt lat="45.59289652813135" lon="10.778294420568985"><ele>223.79999999999998</ele><time>2026-04-26T08:19:53Z</time></trkpt><trkpt lat="45.59280155270422" lon="10.778397989964446"><ele>223.59999999999997</ele><time>2026-04-26T08:19:54Z</time></trkpt><trkpt lat="45.59272354506911" lon="10.778491782236983"><ele>223.4</ele><time>2026-04-26T08:19:55Z</time></trkpt><trkpt lat="45.59265930592586" lon="10.778574092005206"><ele>223.2</ele><time>2026-04-26T08:19:56Z</time></trkpt><trkpt lat="45.59259617659109" lon="10.778658550058204"><ele>223.0</ele><time>2026-04-26T08:19:57Z</time></trkpt><trkpt lat="45.592534563179804" lon="10.778744853508133"><ele>223.60000000000002</ele><time>2026-04-26T08:19:58Z</time></trkpt><trkpt lat="45.59246322155963" lon="10.778846367976907"><ele>224.20000000000002</ele><time>2026-04-26T08:19:59Z</time></trkpt><trkpt lat="45.59240348289117" lon="10.778957920426482"><ele>224.8</ele><time>2026-04-26T08:20:00Z</time></trkpt><trkpt lat="45.592363838579125" lon="10.77905834258052"><ele>225.4</ele><time>2026-04-26T08:20:01Z</time></trkpt><trkpt lat="45.59233527351865" lon="10.779156649381473"><ele>226.0</ele><time>2026-04-26T08:20:02Z</time></trkpt><trkpt lat="45.59231515702439" lon="10.779339481689297"><ele>226.4</ele><time>2026-04-26T08:20:04Z</time></trkpt><trkpt lat="45.59230078789303" lon="10.779455167847308"><ele>226.8</ele><time>2026-04-26T08:20:05Z</time></trkpt><trkpt lat="45.59226738386571" lon="10.779578542296798"><ele>227.20000000000002</ele><time>2026-04-26T08:20:06Z</time></trkpt><trkpt lat="45.59221699485113" lon="10.779683921569614"><ele>227.60000000000002</ele><time>2026-04-26T08:20:07Z</time></trkpt><trkpt lat="45.59215240983924" lon="10.779784323121836"><ele>228.0</ele><time>2026-04-26T08:20:08Z</time></trkpt><trkpt lat="45.59208829362576" lon="10.779888763441734"><ele>228.0</ele><time>2026-04-26T08:20:09Z</time></trkpt><trkpt lat="45.59201874324696" lon="10.780007567339718"><ele>228.0</ele><time>2026-04-26T08:20:10Z</time></trkpt><trkpt lat="45.59193547036438" lon="10.780134674506225"><ele>228.0</ele><time>2026-04-26T08:20:11Z</time></trkpt><trkpt lat="45.591855039424594" lon="10.78026102309652"><ele>228.0</ele><time>2026-04-26T08:20:12Z</time></trkpt><trkpt lat="45.59177886330899" lon="10.780393611259111"><ele>229.2</ele><time>2026-04-26T08:20:13Z</time></trkpt><trkpt lat="45.59171177563224" lon="10.780519069464173"><ele>230.4</ele><time>2026-04-26T08:20:14Z</time></trkpt><trkpt lat="45.591670986001986" lon="10.780625217792949"><ele>231.59999999999997</ele><time>2026-04-26T08:20:15Z</time></trkpt><trkpt lat="45.59162704601133" lon="10.780757336055101"><ele>232.79999999999998</ele><time>2026-04-26T08:20:17Z</time></trkpt><trkpt lat="45.59164826141652" lon="10.780873708129743"><ele>234.0</ele><time>2026-04-26T08:20:19Z</time></trkpt><trkpt lat="45.591642018046365" lon="10.780974524370826"><ele>235.0</ele><time>2026-04-26T08:20:22Z</time></trkpt><trkpt lat="45.59160673631476" lon="10.781054613823349"><ele>236.0</ele><time>2026-04-26T08:20:23Z</time></trkpt><trkpt lat="45.591565571711854" lon="10.781135190835613"><ele>237.0</ele><time>2026-04-26T08:20:24Z</time></trkpt><trkpt lat="45.591530233058755" lon="10.781228417608938"><ele>238.0</ele><time>2026-04-26T08:20:25Z</time></trkpt><trkpt lat="45.59150221489989" lon="10.781336216027483"><ele>239.0</ele><time>2026-04-26T08:20:26Z</time></trkpt><trkpt lat="45.591469777609646" lon="10.781443691950894"><ele>240.0</ele><time>2026-04-26T08:20:27Z</time></trkpt><trkpt lat="45.591435552462244" lon="10.781550578137733"><ele>240.0</ele><time>2026-04-26T08:20:29Z</time></trkpt><trkpt lat="45.591417559494474" lon="10.781645912643251"><ele>240.0</ele><time>2026-04-26T08:20:31Z</time></trkpt><trkpt lat="45.59141528395415" lon="10.781748679749374"><ele>240.0</ele><time>2026-04-26T08:20:32Z</time></trkpt><trkpt lat="45.59139544743962" lon="10.781871626117113"><ele>240.0</ele><time>2026-04-26T08:20:33Z</time></trkpt><trkpt lat="45.59136762749008" lon="10.781993722626424"><ele>240.0</ele><time>2026-04-26T08:20:35Z</time></trkpt><trkpt lat="45.59132658291606" lon="10.782088895250563"><ele>240.0</ele><time>2026-04-26T08:20:37Z</time></trkpt><trkpt lat="45.59122654737423" lon="10.782031789838008"><ele>241.16666666666666</ele><time>2026-04-26T08:20:39Z</time></trkpt><trkpt lat="45.591168878556246" lon="10.781976029513705"><ele>242.33333333333331</ele><time>2026-04-26T08:20:40Z</time></trkpt><trkpt lat="45.591101207672175" lon="10.781928644011753"><ele>243.5</ele><time>2026-04-26T08:20:41Z</time></trkpt><trkpt lat="45.59102807622303" lon="10.781840712874724"><ele>244.66666666666666</ele><time>2026-04-26T08:20:43Z</time></trkpt><trkpt lat="45.590971800287946" lon="10.78177814593172"><ele>245.83333333333331</ele><time>2026-04-26T08:20:44Z</time></trkpt><trkpt lat="45.59090017393002" lon="10.781695223418792"><ele>247.0</ele><time>2026-04-26T08:20:45Z</time></trkpt><trkpt lat="45.5908393397055" lon="10.781637349273598"><ele>247.0</ele><time>2026-04-26T08:20:46Z</time></trkpt><trkpt lat="45.59073532062468" lon="10.781534212655474"><ele>247.0</ele><time>2026-04-26T08:20:48Z</time></trkpt><trkpt lat="45.59066724974013" lon="10.781468021675057"><ele>247.0</ele><time>2026-04-26T08:20:49Z</time></trkpt><trkpt lat="45.59060338730607" lon="10.781396970271446"><ele>247.0</ele><time>2026-04-26T08:20:50Z</time></trkpt><trkpt lat="45.59052774507257" lon="10.78133294826661"><ele>247.0</ele><time>2026-04-26T08:20:51Z</time></trkpt><trkpt lat="45.59045954954025" lon="10.781248898278779"><ele>246.99999999999997</ele><time>2026-04-26T08:20:52Z</time></trkpt><trkpt lat="45.59037723630911" lon="10.781187610643318"><ele>247.0</ele><time>2026-04-26T08:20:53Z</time></trkpt><trkpt lat="45.59030813323652" lon="10.781091926671339"><ele>247.0</ele><time>2026-04-26T08:20:54Z</time></trkpt><trkpt lat="45.5902204198098" lon="10.781029708670397"><ele>247.0</ele><time>2026-04-26T08:20:55Z</time></trkpt><trkpt lat="45.590165430131705" lon="10.780964645179063"><ele>246.99999999999997</ele><time>2026-04-26T08:20:56Z</time></trkpt><trkpt lat="45.59011007556521" lon="10.78090507361164"><ele>247.0</ele><time>2026-04-26T08:20:57Z</time></trkpt><trkpt lat="45.59006105115575" lon="10.780838140476282"><ele>246.8</ele><time>2026-04-26T08:20:59Z</time></trkpt><trkpt lat="45.58990697642675" lon="10.780970082938687"><ele>246.6</ele><time>2026-04-26T08:21:04Z</time></trkpt><trkpt lat="45.58986194718938" lon="10.781063529023315"><ele>246.40000000000003</ele><time>2026-04-26T08:21:05Z</time></trkpt><trkpt lat="45.589812005843164" lon="10.781154688297084"><ele>246.20000000000002</ele><time>2026-04-26T08:21:06Z</time></trkpt><trkpt lat="45.589794470368076" lon="10.781245107288973"><ele>246.0</ele><time>2026-04-26T08:21:07Z</time></trkpt><trkpt lat="45.589744781602185" lon="10.781409337963423"><ele>246.0</ele><time>2026-04-26T08:21:09Z</time></trkpt><trkpt lat="45.5897276632887" lon="10.781520766721371"><ele>246.00000000000003</ele><time>2026-04-26T08:21:10Z</time></trkpt><trkpt lat="45.58971324860753" lon="10.78161459677929"><ele>246.00000000000003</ele><time>2026-04-26T08:21:11Z</time></trkpt><trkpt lat="45.58969310436473" lon="10.78175439340913"><ele>246.0</ele><time>2026-04-26T08:21:12Z</time></trkpt><trkpt lat="45.589668740468376" lon="10.78192131502827"><ele>246.0</ele><time>2026-04-26T08:21:13Z</time></trkpt><trkpt lat="45.589653084057026" lon="10.782071429723258"><ele>246.16666666666666</ele><time>2026-04-26T08:21:14Z</time></trkpt><trkpt lat="45.58961658530087" lon="10.782158769554993"><ele>246.33333333333331</ele><time>2026-04-26T08:21:15Z</time></trkpt><trkpt lat="45.58957645742826" lon="10.782285090079402"><ele>246.5</ele><time>2026-04-26T08:21:16Z</time></trkpt><trkpt lat="45.589559956990506" lon="10.782399139604383"><ele>246.66666666666666</ele><time>2026-04-26T08:21:17Z</time></trkpt><trkpt lat="45.58952826449415" lon="10.782483189627733"><ele>246.83333333333331</ele><time>2026-04-26T08:21:18Z</time></trkpt><trkpt lat="45.5894635710765" lon="10.782601051892389"><ele>247.0</ele><time>2026-04-26T08:21:20Z</time></trkpt><trkpt lat="45.58939727507284" lon="10.782680098295218"><ele>247.33333333333331</ele><time>2026-04-26T08:21:32Z</time></trkpt><trkpt lat="45.58930707554953" lon="10.78259883646179"><ele>247.66666666666666</ele><time>2026-04-26T08:21:33Z</time></trkpt><trkpt lat="45.58924127339943" lon="10.782548016461014"><ele>248.0</ele><time>2026-04-26T08:21:34Z</time></trkpt><trkpt lat="45.58916323565502" lon="10.782493010215818"><ele>248.33333333333331</ele><time>2026-04-26T08:21:35Z</time></trkpt><trkpt lat="45.58909442213552" lon="10.782437664525633"><ele>248.66666666666666</ele><time>2026-04-26T08:21:36Z</time></trkpt><trkpt lat="45.58900991937805" lon="10.782377448943082"><ele>249.0</ele><time>2026-04-26T08:21:37Z</time></trkpt><trkpt lat="45.58891207854833" lon="10.78230658652821"><ele>249.0</ele><time>2026-04-26T08:21:38Z</time></trkpt><trkpt lat="45.58880953086949" lon="10.782224489802498"><ele>249.0</ele><time>2026-04-26T08:21:39Z</time></trkpt><trkpt lat="45.58870645900191" lon="10.782147996342854"><ele>249.0</ele><time>2026-04-26T08:21:40Z</time></trkpt><trkpt lat="45.58859802724072" lon="10.782069981797921"><ele>249.0</ele><time>2026-04-26T08:21:41Z</time></trkpt><trkpt lat="45.58848437867997" lon="10.781987380517682"><ele>248.0</ele><time>2026-04-26T08:21:42Z</time></trkpt><trkpt lat="45.58836959347137" lon="10.781895638823203"><ele>247.0</ele><time>2026-04-26T08:21:43Z</time></trkpt><trkpt lat="45.58825520216998" lon="10.781808182929174"><ele>246.0</ele><time>2026-04-26T08:21:44Z</time></trkpt><trkpt lat="45.58813828992947" lon="10.78172394715818"><ele>245.0</ele><time>2026-04-26T08:21:45Z</time></trkpt><trkpt lat="45.58802698362724" lon="10.781640671208867"><ele>245.0</ele><time>2026-04-26T08:21:46Z</time></trkpt><trkpt lat="45.5879141983217" lon="10.781550955230921"><ele>245.0</ele><time>2026-04-26T08:21:47Z</time></trkpt><trkpt lat="45.58780187381105" lon="10.781466628119286"><ele>245.0</ele><time>2026-04-26T08:21:48Z</time></trkpt><trkpt lat="45.58768548574756" lon="10.781380802428236"><ele>245.0</ele><time>2026-04-26T08:21:49Z</time></trkpt><trkpt lat="45.58756668577333" lon="10.781291717689125"><ele>244.75</ele><time>2026-04-26T08:21:50Z</time></trkpt><trkpt lat="45.587450176088105" lon="10.781205874599888"><ele>244.5</ele><time>2026-04-26T08:21:51Z</time></trkpt><trkpt lat="45.5873245186288" lon="10.781107099402728"><ele>244.25</ele><time>2026-04-26T08:21:52Z</time></trkpt><trkpt lat="45.5871710778447" lon="10.780987881367658"><ele>244.0</ele><time>2026-04-26T08:21:53Z</time></trkpt><trkpt lat="45.58701232891572" lon="10.78086476021422"><ele>245.0</ele><time>2026-04-26T08:21:54Z</time></trkpt><trkpt lat="45.58687450409156" lon="10.780762431549396"><ele>246.0</ele><time>2026-04-26T08:21:55Z</time></trkpt><trkpt lat="45.58674905595334" lon="10.780680264334421"><ele>247.0</ele><time>2026-04-26T08:21:56Z</time></trkpt><trkpt lat="45.58662996066025" lon="10.780602151779027"><ele>248.0</ele><time>2026-04-26T08:21:57Z</time></trkpt><trkpt lat="45.586518460546316" lon="10.780524641262817"><ele>248.0</ele><time>2026-04-26T08:21:58Z</time></trkpt><trkpt lat="45.58640407138794" lon="10.780439125707419"><ele>248.0</ele><time>2026-04-26T08:21:59Z</time></trkpt><trkpt lat="45.58628645872576" lon="10.780350342177636"><ele>248.0</ele><time>2026-04-26T08:22:00Z</time></trkpt><trkpt lat="45.58616042795681" lon="10.780261192390798"><ele>248.0</ele><time>2026-04-26T08:22:01Z</time></trkpt><trkpt lat="45.586036612438924" lon="10.780181427131867"><ele>247.25</ele><time>2026-04-26T08:22:02Z</time></trkpt><trkpt lat="45.58592055440854" lon="10.780104718989755"><ele>246.5</ele><time>2026-04-26T08:22:03Z</time></trkpt><trkpt lat="45.58580913224646" lon="10.780031471712718"><ele>245.75</ele><time>2026-04-26T08:22:04Z</time></trkpt><trkpt lat="45.5856910957077" lon="10.77995073349055"><ele>245.0</ele><time>2026-04-26T08:22:05Z</time></trkpt><trkpt lat="45.58557337405032" lon="10.779872954297632"><ele>245.0</ele><time>2026-04-26T08:22:06Z</time></trkpt><trkpt lat="45.585450208612926" lon="10.779783179218299"><ele>245.0</ele><time>2026-04-26T08:22:07Z</time></trkpt><trkpt lat="45.585332306129914" lon="10.779700676906101"><ele>245.0</ele><time>2026-04-26T08:22:08Z</time></trkpt><trkpt lat="45.58520367464617" lon="10.779611153330682"><ele>245.0</ele><time>2026-04-26T08:22:09Z</time></trkpt><trkpt lat="45.585063692707116" lon="10.779512611234836"><ele>245.33333333333334</ele><time>2026-04-26T08:22:10Z</time></trkpt><trkpt lat="45.58491557090846" lon="10.779413202695721"><ele>245.66666666666669</ele><time>2026-04-26T08:22:11Z</time></trkpt><trkpt lat="45.58475198377105" lon="10.77929944542126"><ele>246.0</ele><time>2026-04-26T08:22:12Z</time></trkpt><trkpt lat="45.5845898704697" lon="10.779190067541505"><ele>245.25</ele><time>2026-04-26T08:22:13Z</time></trkpt><trkpt lat="45.584446486031204" lon="10.779094090634358"><ele>244.5</ele><time>2026-04-26T08:22:14Z</time></trkpt><trkpt lat="45.58431933579238" lon="10.778996814750467"><ele>243.75</ele><time>2026-04-26T08:22:15Z</time></trkpt><trkpt lat="45.584203814459535" lon="10.778909213605031"><ele>243.0</ele><time>2026-04-26T08:22:16Z</time></trkpt><trkpt lat="45.58408404913275" lon="10.778821258641926"><ele>243.0</ele><time>2026-04-26T08:22:17Z</time></trkpt><trkpt lat="45.58395965235916" lon="10.778711081364373"><ele>243.0</ele><time>2026-04-26T08:22:18Z</time></trkpt><trkpt lat="45.58384941680724" lon="10.778593479903632"><ele>243.0</ele><time>2026-04-26T08:22:19Z</time></trkpt><trkpt lat="45.58375203597635" lon="10.77848113606164"><ele>243.0</ele><time>2026-04-26T08:22:20Z</time></trkpt><trkpt lat="45.583660375638736" lon="10.778363436456514"><ele>240.75</ele><time>2026-04-26T08:22:21Z</time></trkpt><trkpt lat="45.583569868824384" lon="10.778235311113821"><ele>238.5</ele><time>2026-04-26T08:22:22Z</time></trkpt><trkpt lat="45.58347612681663" lon="10.778080696968471"><ele>236.25</ele><time>2026-04-26T08:22:23Z</time></trkpt><trkpt lat="45.58339630292247" lon="10.77793685946228"><ele>234.0</ele><time>2026-04-26T08:22:24Z</time></trkpt><trkpt lat="45.583341887392244" lon="10.777824472417823"><ele>234.0</ele><time>2026-04-26T08:22:25Z</time></trkpt><trkpt lat="45.58330341494949" lon="10.777739816177636"><ele>233.99999999999997</ele><time>2026-04-26T08:22:26Z</time></trkpt><trkpt lat="45.583278481737864" lon="10.777607924766356"><ele>233.99999999999997</ele><time>2026-04-26T08:22:28Z</time></trkpt><trkpt lat="45.5832367178515" lon="10.777741569498037"><ele>234.0</ele><time>2026-04-26T08:22:43Z</time></trkpt><trkpt lat="45.58327287241549" lon="10.777824025652295"><ele>234.0</ele><time>2026-04-26T08:22:45Z</time></trkpt><trkpt lat="45.58321571660727" lon="10.777967914315859"><ele>234.0</ele><time>2026-04-26T08:22:58Z</time></trkpt><trkpt lat="45.58318725528874" lon="10.778136432173806"><ele>233.99999999999997</ele><time>2026-04-26T08:23:00Z</time></trkpt><trkpt lat="45.583188655554224" lon="10.778246432471835"><ele>233.99999999999997</ele><time>2026-04-26T08:23:01Z</time></trkpt><trkpt lat="45.583175454996464" lon="10.778365480804009"><ele>234.0</ele><time>2026-04-26T08:23:02Z</time></trkpt><trkpt lat="45.58315551943119" lon="10.778490762934297"><ele>234.0</ele><time>2026-04-26T08:23:03Z</time></trkpt><trkpt lat="45.583138314468755" lon="10.778618395896952"><ele>234.39999999999998</ele><time>2026-04-26T08:23:04Z</time></trkpt><trkpt lat="45.583117740264385" lon="10.778713203728255"><ele>234.79999999999998</ele><time>2026-04-26T08:23:05Z</time></trkpt><trkpt lat="45.583081794729786" lon="10.778869059240755"><ele>235.20000000000002</ele><time>2026-04-26T08:23:07Z</time></trkpt><trkpt lat="45.58306043409068" lon="10.778980425224299"><ele>235.60000000000002</ele><time>2026-04-26T08:23:08Z</time></trkpt><trkpt lat="45.583043609230685" lon="10.779121510903058"><ele>236.0</ele><time>2026-04-26T08:23:09Z</time></trkpt><trkpt lat="45.58301951856428" lon="10.779275499119498"><ele>237.20000000000002</ele><time>2026-04-26T08:23:10Z</time></trkpt><trkpt lat="45.58299898820911" lon="10.779421538381806"><ele>238.40000000000003</ele><time>2026-04-26T08:23:11Z</time></trkpt><trkpt lat="45.58297449481317" lon="10.779596529638114"><ele>239.6</ele><time>2026-04-26T08:23:12Z</time></trkpt><trkpt lat="45.58295021597791" lon="10.779748081345147"><ele>240.8</ele><time>2026-04-26T08:23:13Z</time></trkpt><trkpt lat="45.58292243033683" lon="10.779891380291035"><ele>242.0</ele><time>2026-04-26T08:23:14Z</time></trkpt><trkpt lat="45.58290598906333" lon="10.77999272879001"><ele>242.00000000000003</ele><time>2026-04-26T08:23:15Z</time></trkpt><trkpt lat="45.582884943669605" lon="10.78014289680221"><ele>242.0</ele><time>2026-04-26T08:23:17Z</time></trkpt><trkpt lat="45.58286232059971" lon="10.780263814089984"><ele>242.0</ele><time>2026-04-26T08:23:19Z</time></trkpt><trkpt lat="45.58288179561048" lon="10.780365142667877"><ele>242.0</ele><time>2026-04-26T08:23:22Z</time></trkpt><trkpt lat="45.58298415548535" lon="10.780378971806659"><ele>242.00000000000003</ele><time>2026-04-26T08:23:28Z</time></trkpt><trkpt lat="45.58305061556599" lon="10.780388982790335"><ele>242.0</ele><time>2026-04-26T08:23:29Z</time></trkpt><trkpt lat="45.58311973155462" lon="10.7804783182761"><ele>242.0</ele><time>2026-04-26T08:23:31Z</time></trkpt><trkpt lat="45.583125601748094" lon="10.780572890628298"><ele>241.99999999999997</ele><time>2026-04-26T08:23:32Z</time></trkpt><trkpt lat="45.58313034035878" lon="10.780683483540349"><ele>242.0</ele><time>2026-04-26T08:23:33Z</time></trkpt><trkpt lat="45.58315218954795" lon="10.780786620757864"><ele>242.0</ele><time>2026-04-26T08:23:34Z</time></trkpt><trkpt lat="45.58318752236401" lon="10.780879168909923"><ele>241.99999999999997</ele><time>2026-04-26T08:23:35Z</time></trkpt><trkpt lat="45.58321679702203" lon="10.780978750084095"><ele>242.0</ele><time>2026-04-26T08:23:36Z</time></trkpt><trkpt lat="45.58324691417224" lon="10.78106845937428"><ele>242.0</ele><time>2026-04-26T08:23:37Z</time></trkpt><trkpt lat="45.58327964831286" lon="10.78116502685644"><ele>242.00000000000003</ele><time>2026-04-26T08:23:38Z</time></trkpt><trkpt lat="45.58332462089996" lon="10.781257277393834"><ele>242.0</ele><time>2026-04-26T08:23:39Z</time></trkpt><trkpt lat="45.58337418164685" lon="10.781369079740125"><ele>242.0</ele><time>2026-04-26T08:23:40Z</time></trkpt><trkpt lat="45.58342168122015" lon="10.78149376276663"><ele>242.0</ele><time>2026-04-26T08:23:41Z</time></trkpt><trkpt lat="45.583461120462175" lon="10.78161528450278"><ele>242.00000000000003</ele><time>2026-04-26T08:23:42Z</time></trkpt><trkpt lat="45.583491911189746" lon="10.781705813135744"><ele>242.0</ele><time>2026-04-26T08:23:43Z</time></trkpt><trkpt lat="45.583534732615774" lon="10.78180950557659"><ele>242.42857142857142</ele><time>2026-04-26T08:23:44Z</time></trkpt><trkpt lat="45.583584288472835" lon="10.78192092493887"><ele>242.85714285714283</ele><time>2026-04-26T08:23:45Z</time></trkpt><trkpt lat="45.583628815104646" lon="10.78201097825415"><ele>243.28571428571428</ele><time>2026-04-26T08:23:46Z</time></trkpt><trkpt lat="45.583674536144855" lon="10.782102837613943"><ele>243.71428571428572</ele><time>2026-04-26T08:23:47Z</time></trkpt><trkpt lat="45.58371552872787" lon="10.78217220112233"><ele>244.14285714285714</ele><time>2026-04-26T08:23:48Z</time></trkpt><trkpt lat="45.583760332237965" lon="10.782239849788938"><ele>244.57142857142856</ele><time>2026-04-26T08:23:49Z</time></trkpt><trkpt lat="45.58381401058156" lon="10.782292372490168"><ele>245.0</ele><time>2026-04-26T08:23:50Z</time></trkpt><trkpt lat="45.58387603149259" lon="10.78236097266477"><ele>245.2</ele><time>2026-04-26T08:23:51Z</time></trkpt><trkpt lat="45.58394201284099" lon="10.782422463196134"><ele>245.4</ele><time>2026-04-26T08:23:52Z</time></trkpt><trkpt lat="45.584000920396285" lon="10.782474377776735"><ele>245.60000000000002</ele><time>2026-04-26T08:23:53Z</time></trkpt><trkpt lat="45.58408135281361" lon="10.78254561775988"><ele>245.8</ele><time>2026-04-26T08:23:54Z</time></trkpt><trkpt lat="45.58414452145479" lon="10.782615677321594"><ele>246.0</ele><time>2026-04-26T08:23:55Z</time></trkpt><trkpt lat="45.58425383382384" lon="10.782738813291408"><ele>245.4</ele><time>2026-04-26T08:23:57Z</time></trkpt><trkpt lat="45.584316919624754" lon="10.782821479590373"><ele>244.8</ele><time>2026-04-26T08:23:58Z</time></trkpt><trkpt lat="45.584379862771755" lon="10.782922873157082"><ele>244.20000000000002</ele><time>2026-04-26T08:23:59Z</time></trkpt><trkpt lat="45.584446905931266" lon="10.783098318108772"><ele>243.60000000000002</ele><time>2026-04-26T08:24:01Z</time></trkpt><trkpt lat="45.58447048070968" lon="10.783202748773425"><ele>243.0</ele><time>2026-04-26T08:24:02Z</time></trkpt><trkpt lat="45.58448209747296" lon="10.783305562665568"><ele>243.0</ele><time>2026-04-26T08:24:03Z</time></trkpt><trkpt lat="45.58448952984769" lon="10.78344827667481"><ele>243.0</ele><time>2026-04-26T08:24:04Z</time></trkpt><trkpt lat="45.58448263497976" lon="10.783580826226684"><ele>243.0</ele><time>2026-04-26T08:24:05Z</time></trkpt><trkpt lat="45.58448704886199" lon="10.783730372834981"><ele>243.0</ele><time>2026-04-26T08:24:06Z</time></trkpt><trkpt lat="45.584503032963596" lon="10.783912172587101"><ele>243.0</ele><time>2026-04-26T08:24:07Z</time></trkpt><trkpt lat="45.58451018463716" lon="10.784069743290335"><ele>245.0</ele><time>2026-04-26T08:24:08Z</time></trkpt><trkpt lat="45.584516215418674" lon="10.784235388884925"><ele>247.0</ele><time>2026-04-26T08:24:09Z</time></trkpt><trkpt lat="45.58452126996717" lon="10.784375426216355"><ele>249.0</ele><time>2026-04-26T08:24:10Z</time></trkpt><trkpt lat="45.58452370761584" lon="10.784510251908372"><ele>251.0</ele><time>2026-04-26T08:24:11Z</time></trkpt><trkpt lat="45.584527029380176" lon="10.784647020371406"><ele>253.0</ele><time>2026-04-26T08:24:12Z</time></trkpt><trkpt lat="45.58452849892111" lon="10.784786337538957"><ele>252.99999999999997</ele><time>2026-04-26T08:24:13Z</time></trkpt><trkpt lat="45.58453983804048" lon="10.784880397362123"><ele>253.0</ele><time>2026-04-26T08:24:14Z</time></trkpt><trkpt lat="45.58458250760428" lon="10.784952584595462"><ele>253.0</ele><time>2026-04-26T08:24:16Z</time></trkpt><trkpt lat="45.58464569350635" lon="10.784895371431592"><ele>253.0</ele><time>2026-04-26T08:24:20Z</time></trkpt><trkpt lat="45.58471958245667" lon="10.784857089324204"><ele>252.99999999999997</ele><time>2026-04-26T08:24:22Z</time></trkpt><trkpt lat="45.58482875953581" lon="10.784803746681915"><ele>253.0</ele><time>2026-04-26T08:24:24Z</time></trkpt><trkpt lat="45.58489154830821" lon="10.784772036610295"><ele>252.99999999999997</ele><time>2026-04-26T08:24:25Z</time></trkpt><trkpt lat="45.58491855432839" lon="10.784657144509906"><ele>253.0</ele><time>2026-04-26T08:24:27Z</time></trkpt><trkpt lat="45.584895818497856" lon="10.784486353631118"><ele>253.0</ele><time>2026-04-26T08:24:29Z</time></trkpt><trkpt lat="45.58488734448933" lon="10.784369162691648"><ele>253.0</ele><time>2026-04-26T08:24:30Z</time></trkpt><trkpt lat="45.58489005442024" lon="10.784278605722433"><ele>252.99999999999997</ele><time>2026-04-26T08:24:31Z</time></trkpt><trkpt lat="45.58488995836638" lon="10.784173728943593"><ele>253.0</ele><time>2026-04-26T08:24:32Z</time></trkpt><trkpt lat="45.58488809102289" lon="10.784049136456396"><ele>253.2</ele><time>2026-04-26T08:24:33Z</time></trkpt><trkpt lat="45.584893353576064" lon="10.783932398881053"><ele>253.4</ele><time>2026-04-26T08:24:34Z</time></trkpt><trkpt lat="45.584906827558214" lon="10.783791887701963"><ele>253.59999999999997</ele><time>2026-04-26T08:24:35Z</time></trkpt><trkpt lat="45.58493254993817" lon="10.783641201857368"><ele>253.79999999999998</ele><time>2026-04-26T08:24:36Z</time></trkpt><trkpt lat="45.58495797332687" lon="10.783495861120874"><ele>254.0</ele><time>2026-04-26T08:24:37Z</time></trkpt><trkpt lat="45.58496927101554" lon="10.783378922336125"><ele>254.00000000000003</ele><time>2026-04-26T08:24:38Z</time></trkpt><trkpt lat="45.58498546385906" lon="10.783275180450273"><ele>254.0</ele><time>2026-04-26T08:24:39Z</time></trkpt><trkpt lat="45.5850026924135" lon="10.783158761262294"><ele>254.0</ele><time>2026-04-26T08:24:40Z</time></trkpt><trkpt lat="45.58499895027384" lon="10.783004573485442"><ele>254.0</ele><time>2026-04-26T08:24:42Z</time></trkpt><trkpt lat="45.58498227130625" lon="10.782906911824274"><ele>254.00000000000003</ele><time>2026-04-26T08:24:43Z</time></trkpt><trkpt lat="45.58495702352521" lon="10.782804169421288"><ele>254.0</ele><time>2026-04-26T08:24:44Z</time></trkpt><trkpt lat="45.58495862330256" lon="10.78267804472394"><ele>254.6</ele><time>2026-04-26T08:24:46Z</time></trkpt><trkpt lat="45.585029897771264" lon="10.782537039536152"><ele>255.2</ele><time>2026-04-26T08:24:49Z</time></trkpt><trkpt lat="45.585087571179784" lon="10.782433140900814"><ele>255.79999999999998</ele><time>2026-04-26T08:24:50Z</time></trkpt><trkpt lat="45.58514356375861" lon="10.782391825151054"><ele>256.4</ele><time>2026-04-26T08:24:51Z</time></trkpt><trkpt lat="45.58525054405356" lon="10.782490230648675"><ele>257.0</ele><time>2026-04-26T08:24:53Z</time></trkpt><trkpt lat="45.585327212102186" lon="10.78260328040871"><ele>257.8</ele><time>2026-04-26T08:24:54Z</time></trkpt><trkpt lat="45.585383759053926" lon="10.782699648784764"><ele>258.6</ele><time>2026-04-26T08:24:55Z</time></trkpt><trkpt lat="45.58545217689219" lon="10.782797652813223"><ele>259.40000000000003</ele><time>2026-04-26T08:24:56Z</time></trkpt><trkpt lat="45.58552616796683" lon="10.78288087963728"><ele>260.2</ele><time>2026-04-26T08:24:57Z</time></trkpt><trkpt lat="45.58559976098965" lon="10.782935484068123"><ele>261.0</ele><time>2026-04-26T08:24:58Z</time></trkpt><trkpt lat="45.585697777006615" lon="10.782995303565068"><ele>261.0</ele><time>2026-04-26T08:24:59Z</time></trkpt><trkpt lat="45.585797734159016" lon="10.783045992514511"><ele>261.0</ele><time>2026-04-26T08:25:00Z</time></trkpt><trkpt lat="45.58589418637636" lon="10.783080768902016"><ele>261.0</ele><time>2026-04-26T08:25:01Z</time></trkpt><trkpt lat="45.585992087445746" lon="10.783116453568805"><ele>261.0</ele><time>2026-04-26T08:25:02Z</time></trkpt><trkpt lat="45.58608319749948" lon="10.783142336195683"><ele>261.0</ele><time>2026-04-26T08:25:03Z</time></trkpt><trkpt lat="45.586157438592885" lon="10.783180432959613"><ele>261.40000000000003</ele><time>2026-04-26T08:25:04Z</time></trkpt><trkpt lat="45.586257342243414" lon="10.783222201208678"><ele>261.8</ele><time>2026-04-26T08:25:05Z</time></trkpt><trkpt lat="45.58635055971048" lon="10.783260447832195"><ele>262.20000000000005</ele><time>2026-04-26T08:25:06Z</time></trkpt><trkpt lat="45.58646370131351" lon="10.783302152665616"><ele>262.6</ele><time>2026-04-26T08:25:07Z</time></trkpt><trkpt lat="45.58657044820189" lon="10.783375765702935"><ele>263.0</ele><time>2026-04-26T08:25:08Z</time></trkpt><trkpt lat="45.586666719172484" lon="10.783469845362067"><ele>263.2</ele><time>2026-04-26T08:25:09Z</time></trkpt><trkpt lat="45.5867605892886" lon="10.783543264523743"><ele>263.4</ele><time>2026-04-26T08:25:10Z</time></trkpt><trkpt lat="45.58684133477106" lon="10.78359735802723"><ele>263.59999999999997</ele><time>2026-04-26T08:25:11Z</time></trkpt><trkpt lat="45.58692188270633" lon="10.783656755588755"><ele>263.8</ele><time>2026-04-26T08:25:12Z</time></trkpt><trkpt lat="45.58698827678247" lon="10.783716013974779"><ele>264.0</ele><time>2026-04-26T08:25:13Z</time></trkpt><trkpt lat="45.587072319209824" lon="10.783771316425183"><ele>263.59999999999997</ele><time>2026-04-26T08:25:14Z</time></trkpt><trkpt lat="45.587165987699365" lon="10.78383852634951"><ele>263.2</ele><time>2026-04-26T08:25:15Z</time></trkpt><trkpt lat="45.58722811346358" lon="10.783891226826503"><ele>262.79999999999995</ele><time>2026-04-26T08:25:16Z</time></trkpt><trkpt lat="45.58734101573142" lon="10.783954951804775"><ele>262.4</ele><time>2026-04-26T08:25:18Z</time></trkpt><trkpt lat="45.587422596072884" lon="10.783990189140825"><ele>262.0</ele><time>2026-04-26T08:25:19Z</time></trkpt><trkpt lat="45.58751384212389" lon="10.784039292974864"><ele>262.0</ele><time>2026-04-26T08:25:20Z</time></trkpt><trkpt lat="45.58760984953574" lon="10.78406375898905"><ele>262.0</ele><time>2026-04-26T08:25:21Z</time></trkpt><trkpt lat="45.58772207038245" lon="10.784093978075026"><ele>262.0</ele><time>2026-04-26T08:25:22Z</time></trkpt><trkpt lat="45.58783137086361" lon="10.784132414510491"><ele>262.0</ele><time>2026-04-26T08:25:23Z</time></trkpt><trkpt lat="45.587921682820046" lon="10.784178747839855"><ele>262.0</ele><time>2026-04-26T08:25:24Z</time></trkpt><trkpt lat="45.58799408574494" lon="10.784234552181685"><ele>261.75</ele><time>2026-04-26T08:25:25Z</time></trkpt><trkpt lat="45.58808189319385" lon="10.784296540658957"><ele>261.5</ele><time>2026-04-26T08:25:26Z</time></trkpt><trkpt lat="45.58819934007093" lon="10.784389247310658"><ele>261.25</ele><time>2026-04-26T08:25:28Z</time></trkpt><trkpt lat="45.58830358772012" lon="10.784478206196642"><ele>261.0</ele><time>2026-04-26T08:25:30Z</time></trkpt><trkpt lat="45.588387313729044" lon="10.784390279924768"><ele>261.0</ele><time>2026-04-26T08:25:31Z</time></trkpt><trkpt lat="45.58844547878756" lon="10.784454343295902"><ele>261.0</ele><time>2026-04-26T08:25:53Z</time></trkpt><trkpt lat="45.58855154108671" lon="10.784517320333002"><ele>261.0</ele><time>2026-04-26T08:25:56Z</time></trkpt><trkpt lat="45.58861197840527" lon="10.78455744886751"><ele>261.0</ele><time>2026-04-26T08:25:57Z</time></trkpt><trkpt lat="45.58868441394129" lon="10.784614599188078"><ele>261.0</ele><time>2026-04-26T08:25:58Z</time></trkpt><trkpt lat="45.588783726403584" lon="10.784691037638567"><ele>261.0</ele><time>2026-04-26T08:25:59Z</time></trkpt><trkpt lat="45.588895004727874" lon="10.784772492157588"><ele>261.0</ele><time>2026-04-26T08:26:00Z</time></trkpt><trkpt lat="45.58901708294424" lon="10.784875750263062"><ele>261.0</ele><time>2026-04-26T08:26:01Z</time></trkpt><trkpt lat="45.58908863550572" lon="10.784985097798385"><ele>261.0</ele><time>2026-04-26T08:26:02Z</time></trkpt><trkpt lat="45.58918379553744" lon="10.785078354489437"><ele>262.0</ele><time>2026-04-26T08:26:03Z</time></trkpt><trkpt lat="45.58926635582079" lon="10.785190959900701"><ele>263.0</ele><time>2026-04-26T08:26:04Z</time></trkpt><trkpt lat="45.589370104347864" lon="10.785322871276362"><ele>264.0</ele><time>2026-04-26T08:26:05Z</time></trkpt><trkpt lat="45.58947309753934" lon="10.785446078066379"><ele>265.0</ele><time>2026-04-26T08:26:06Z</time></trkpt><trkpt lat="45.58956443373752" lon="10.785571887861161"><ele>265.0</ele><time>2026-04-26T08:26:07Z</time></trkpt><trkpt lat="45.58965721585576" lon="10.78570508048161"><ele>265.0</ele><time>2026-04-26T08:26:08Z</time></trkpt><trkpt lat="45.5897494879426" lon="10.785806764247685"><ele>265.0</ele><time>2026-04-26T08:26:09Z</time></trkpt><trkpt lat="45.58984944100819" lon="10.785893525881823"><ele>265.0</ele><time>2026-04-26T08:26:10Z</time></trkpt><trkpt lat="45.589957961708876" lon="10.78598648182933"><ele>265.4</ele><time>2026-04-26T08:26:11Z</time></trkpt><trkpt lat="45.59006371481411" lon="10.786083713019636"><ele>265.8</ele><time>2026-04-26T08:26:12Z</time></trkpt><trkpt lat="45.59015464828724" lon="10.786173085179694"><ele>266.2</ele><time>2026-04-26T08:26:13Z</time></trkpt><trkpt lat="45.590236765262034" lon="10.786266266181924"><ele>266.6</ele><time>2026-04-26T08:26:14Z</time></trkpt><trkpt lat="45.5903138577492" lon="10.78636212322049"><ele>267.0</ele><time>2026-04-26T08:26:15Z</time></trkpt><trkpt lat="45.590381988980376" lon="10.786444483462104"><ele>267.0</ele><time>2026-04-26T08:26:16Z</time></trkpt><trkpt lat="45.59046961290402" lon="10.786542127589152"><ele>267.0</ele><time>2026-04-26T08:26:17Z</time></trkpt><trkpt lat="45.5905544790354" lon="10.78664090507146"><ele>267.0</ele><time>2026-04-26T08:26:18Z</time></trkpt><trkpt lat="45.59063666048888" lon="10.786737545739916"><ele>267.0</ele><time>2026-04-26T08:26:19Z</time></trkpt><trkpt lat="45.59071419385883" lon="10.786837836168308"><ele>267.0</ele><time>2026-04-26T08:26:20Z</time></trkpt><trkpt lat="45.590798406048485" lon="10.786938410521353"><ele>268.5</ele><time>2026-04-26T08:26:21Z</time></trkpt><trkpt lat="45.59088678159342" lon="10.787046144172823"><ele>270.0</ele><time>2026-04-26T08:26:22Z</time></trkpt><trkpt lat="45.590967997589004" lon="10.787163542055975"><ele>271.5</ele><time>2026-04-26T08:26:23Z</time></trkpt><trkpt lat="45.59104871706083" lon="10.787287072260739"><ele>273.0</ele><time>2026-04-26T08:26:24Z</time></trkpt><trkpt lat="45.591139436369915" lon="10.787394806047107"><ele>272.75</ele><time>2026-04-26T08:26:25Z</time></trkpt><trkpt lat="45.59123130040427" lon="10.787491345497196"><ele>272.5</ele><time>2026-04-26T08:26:26Z</time></trkpt><trkpt lat="45.59132297413262" lon="10.787603843182291"><ele>272.25</ele><time>2026-04-26T08:26:27Z</time></trkpt><trkpt lat="45.59142165365724" lon="10.787727313017644"><ele>272.0</ele><time>2026-04-26T08:26:28Z</time></trkpt><trkpt lat="45.591525319073675" lon="10.787865006233076"><ele>272.0</ele><time>2026-04-26T08:26:29Z</time></trkpt><trkpt lat="45.59163381626682" lon="10.788008087873154"><ele>272.0</ele><time>2026-04-26T08:26:30Z</time></trkpt><trkpt lat="45.591752913902745" lon="10.788134425646861"><ele>272.0</ele><time>2026-04-26T08:26:31Z</time></trkpt><trkpt lat="45.59184290618888" lon="10.78822966009855"><ele>272.0</ele><time>2026-04-26T08:26:32Z</time></trkpt><trkpt lat="45.59193745242628" lon="10.7883095339508"><ele>272.2</ele><time>2026-04-26T08:26:33Z</time></trkpt><trkpt lat="45.59201262671475" lon="10.788383112054635"><ele>272.4</ele><time>2026-04-26T08:26:34Z</time></trkpt><trkpt lat="45.592102364193" lon="10.78847400268123"><ele>272.6</ele><time>2026-04-26T08:26:35Z</time></trkpt><trkpt lat="45.592174093757365" lon="10.788573597303063"><ele>272.8</ele><time>2026-04-26T08:26:36Z</time></trkpt><trkpt lat="45.59223568650635" lon="10.788690373235431"><ele>273.0</ele><time>2026-04-26T08:26:37Z</time></trkpt><trkpt lat="45.59228941767009" lon="10.78877488430006"><ele>273.0</ele><time>2026-04-26T08:26:38Z</time></trkpt><trkpt lat="45.59235277393255" lon="10.788850211839033"><ele>273.0</ele><time>2026-04-26T08:26:39Z</time></trkpt><trkpt lat="45.592420101493175" lon="10.788872037586295"><ele>273.0</ele><time>2026-04-26T08:26:40Z</time></trkpt><trkpt lat="45.59250027949625" lon="10.788902455931135"><ele>273.0</ele><time>2026-04-26T08:26:41Z</time></trkpt><trkpt lat="45.59256689420697" lon="10.78898229723032"><ele>273.0</ele><time>2026-04-26T08:26:42Z</time></trkpt><trkpt lat="45.592617149627465" lon="10.7890628405105"><ele>273.0</ele><time>2026-04-26T08:26:43Z</time></trkpt><trkpt lat="45.59269837139345" lon="10.789171071235604"><ele>273.0</ele><time>2026-04-26T08:26:44Z</time></trkpt><trkpt lat="45.59279773620104" lon="10.789275490835903"><ele>273.0</ele><time>2026-04-26T08:26:45Z</time></trkpt><trkpt lat="45.592874824025124" lon="10.789374997591642"><ele>273.0</ele><time>2026-04-26T08:26:46Z</time></trkpt><trkpt lat="45.59296084708225" lon="10.789473570402622"><ele>273.0</ele><time>2026-04-26T08:26:47Z</time></trkpt><trkpt lat="45.593012077589215" lon="10.789565106376187"><ele>273.0</ele><time>2026-04-26T08:26:48Z</time></trkpt><trkpt lat="45.59307667910005" lon="10.789684180957897"><ele>273.4</ele><time>2026-04-26T08:26:50Z</time></trkpt><trkpt lat="45.593002917278724" lon="10.789783971650046"><ele>273.8</ele><time>2026-04-26T08:26:52Z</time></trkpt><trkpt lat="45.592947527530505" lon="10.78988692207455"><ele>274.2</ele><time>2026-04-26T08:26:54Z</time></trkpt><trkpt lat="45.592856110807475" lon="10.789986928415342"><ele>274.6</ele><time>2026-04-26T08:26:57Z</time></trkpt><trkpt lat="45.592800163607556" lon="10.79006255448001"><ele>275.0</ele><time>2026-04-26T08:26:59Z</time></trkpt><trkpt lat="45.592888405394774" lon="10.790184209461211"><ele>275.6666666666667</ele><time>2026-04-26T08:27:01Z</time></trkpt><trkpt lat="45.59294324227746" lon="10.790242968966657"><ele>276.33333333333337</ele><time>2026-04-26T08:27:02Z</time></trkpt><trkpt lat="45.592983689129184" lon="10.790322169142955"><ele>277.0</ele><time>2026-04-26T08:27:03Z</time></trkpt><trkpt lat="45.593044191204626" lon="10.790379645028455"><ele>277.6666666666667</ele><time>2026-04-26T08:27:04Z</time></trkpt><trkpt lat="45.593106633824426" lon="10.790456012812932"><ele>278.3333333333333</ele><time>2026-04-26T08:27:05Z</time></trkpt><trkpt lat="45.59315884688552" lon="10.790552730546446"><ele>279.0</ele><time>2026-04-26T08:27:06Z</time></trkpt><trkpt lat="45.59323642192295" lon="10.790664412293028"><ele>279.0</ele><time>2026-04-26T08:27:08Z</time></trkpt><trkpt lat="45.593349317680605" lon="10.79078762090473"><ele>279.0</ele><time>2026-04-26T08:27:10Z</time></trkpt><trkpt lat="45.59343229340066" lon="10.790851364351624"><ele>279.0</ele><time>2026-04-26T08:27:11Z</time></trkpt><trkpt lat="45.59345875713282" lon="10.791035688045957"><ele>279.0</ele><time>2026-04-26T08:27:12Z</time></trkpt><trkpt lat="45.59351256852758" lon="10.791117114743956"><ele>279.0</ele><time>2026-04-26T08:27:13Z</time></trkpt><trkpt lat="45.59356655839452" lon="10.791185647062889"><ele>279.59999999999997</ele><time>2026-04-26T08:27:14Z</time></trkpt><trkpt lat="45.593641810094525" lon="10.79127247087613"><ele>280.2</ele><time>2026-04-26T08:27:15Z</time></trkpt><trkpt lat="45.593685693064565" lon="10.791363245615909"><ele>280.79999999999995</ele><time>2026-04-26T08:27:16Z</time></trkpt><trkpt lat="45.59375562379695" lon="10.791445231753015"><ele>281.4</ele><time>2026-04-26T08:27:17Z</time></trkpt><trkpt lat="45.593849873261384" lon="10.791565301414998"><ele>282.0</ele><time>2026-04-26T08:27:19Z</time></trkpt><trkpt lat="45.59390235374653" lon="10.791673118226388"><ele>282.0</ele><time>2026-04-26T08:27:20Z</time></trkpt><trkpt lat="45.5939491938002" lon="10.791782098350271"><ele>282.0</ele><time>2026-04-26T08:27:21Z</time></trkpt><trkpt lat="45.59398297584526" lon="10.79188462266047"><ele>282.0</ele><time>2026-04-26T08:27:22Z</time></trkpt><trkpt lat="45.594023075651" lon="10.791995618381646"><ele>282.0</ele><time>2026-04-26T08:27:23Z</time></trkpt><trkpt lat="45.59405166174559" lon="10.792092374836056"><ele>282.0</ele><time>2026-04-26T08:27:24Z</time></trkpt><trkpt lat="45.59410780201946" lon="10.79219428359865"><ele>282.0</ele><time>2026-04-26T08:27:25Z</time></trkpt><trkpt lat="45.59420881547913" lon="10.792296996329625"><ele>282.5</ele><time>2026-04-26T08:27:27Z</time></trkpt><trkpt lat="45.59428233908265" lon="10.792370832133484"><ele>283.0</ele><time>2026-04-26T08:27:28Z</time></trkpt><trkpt lat="45.594343098391775" lon="10.7924354344306"><ele>283.5</ele><time>2026-04-26T08:27:29Z</time></trkpt><trkpt lat="45.59439324053972" lon="10.792505633694361"><ele>284.0</ele><time>2026-04-26T08:27:30Z</time></trkpt><trkpt lat="45.59444095339737" lon="10.79259866584699"><ele>284.5</ele><time>2026-04-26T08:27:31Z</time></trkpt><trkpt lat="45.59448631248115" lon="10.79267168468432"><ele>285.0</ele><time>2026-04-26T08:27:32Z</time></trkpt><trkpt lat="45.59454635832505" lon="10.79275996829384"><ele>285.0</ele><time>2026-04-26T08:27:33Z</time></trkpt><trkpt lat="45.59459395835938" lon="10.79285988638845"><ele>285.0</ele><time>2026-04-26T08:27:34Z</time></trkpt><trkpt lat="45.59464079954249" lon="10.79297300545462"><ele>285.0</ele><time>2026-04-26T08:27:35Z</time></trkpt><trkpt lat="45.59471308303277" lon="10.79304519764005"><ele>285.0</ele><time>2026-04-26T08:27:36Z</time></trkpt><trkpt lat="45.59475487894138" lon="10.793147950567647"><ele>285.0</ele><time>2026-04-26T08:27:37Z</time></trkpt><trkpt lat="45.594801844288895" lon="10.793252079298068"><ele>285.0</ele><time>2026-04-26T08:27:38Z</time></trkpt><trkpt lat="45.59487277153886" lon="10.793383643170833"><ele>285.0</ele><time>2026-04-26T08:27:40Z</time></trkpt><trkpt lat="45.59493021789541" lon="10.793474612637967"><ele>285.0</ele><time>2026-04-26T08:27:41Z</time></trkpt><trkpt lat="45.59499268546033" lon="10.793557425460778"><ele>285.0</ele><time>2026-04-26T08:27:42Z</time></trkpt><trkpt lat="45.5950731073549" lon="10.793645617736443"><ele>285.0</ele><time>2026-04-26T08:27:43Z</time></trkpt><trkpt lat="45.595129425569944" lon="10.793724986190668"><ele>285.0</ele><time>2026-04-26T08:27:44Z</time></trkpt><trkpt lat="45.595226733646534" lon="10.793871892237437"><ele>284.8333333333333</ele><time>2026-04-26T08:27:46Z</time></trkpt><trkpt lat="45.59528544032324" lon="10.793957159712473"><ele>284.6666666666667</ele><time>2026-04-26T08:27:47Z</time></trkpt><trkpt lat="45.59536277572865" lon="10.794053188875855"><ele>284.5</ele><time>2026-04-26T08:27:48Z</time></trkpt><trkpt lat="45.59540652699781" lon="10.794122968761037"><ele>284.33333333333337</ele><time>2026-04-26T08:27:49Z</time></trkpt><trkpt lat="45.59545365336437" lon="10.79420461527802"><ele>284.1666666666667</ele><time>2026-04-26T08:27:50Z</time></trkpt><trkpt lat="45.595509396162996" lon="10.794294722498122"><ele>284.0</ele><time>2026-04-26T08:27:51Z</time></trkpt><trkpt lat="45.59555495798695" lon="10.794380612823538"><ele>284.0</ele><time>2026-04-26T08:27:52Z</time></trkpt><trkpt lat="45.59561482814271" lon="10.794475503420971"><ele>284.0</ele><time>2026-04-26T08:27:54Z</time></trkpt><trkpt lat="45.59567530623036" lon="10.794521595596443"><ele>284.0</ele><time>2026-04-26T08:27:57Z</time></trkpt><trkpt lat="45.59574235657606" lon="10.794525815783773"><ele>284.0</ele><time>2026-04-26T08:27:58Z</time></trkpt><trkpt lat="45.5958286630663" lon="10.794503645702807"><ele>284.0</ele><time>2026-04-26T08:27:59Z</time></trkpt><trkpt lat="45.59591684238501" lon="10.794461627285468"><ele>284.0</ele><time>2026-04-26T08:28:00Z</time></trkpt><trkpt lat="45.596016192527166" lon="10.794454762059843"><ele>284.0</ele><time>2026-04-26T08:28:01Z</time></trkpt><trkpt lat="45.596105292162015" lon="10.79443313504136"><ele>284.0</ele><time>2026-04-26T08:28:02Z</time></trkpt><trkpt lat="45.5961857331396" lon="10.794423659243572"><ele>284.0</ele><time>2026-04-26T08:28:03Z</time></trkpt><trkpt lat="45.596248236986355" lon="10.794406556035403"><ele>284.0</ele><time>2026-04-26T08:28:04Z</time></trkpt><trkpt lat="45.59639708145619" lon="10.794355666017609"><ele>284.0</ele><time>2026-04-26T08:28:06Z</time></trkpt><trkpt lat="45.596538740494324" lon="10.794345539023901"><ele>282.33333333333337</ele><time>2026-04-26T08:28:08Z</time></trkpt><trkpt lat="45.596633311560886" lon="10.794323946554876"><ele>280.6666666666667</ele><time>2026-04-26T08:28:09Z</time></trkpt><trkpt lat="45.59674192851074" lon="10.794284680028431"><ele>279.0</ele><time>2026-04-26T08:28:10Z</time></trkpt><trkpt lat="45.59682825785622" lon="10.794280409202484"><ele>277.3333333333333</ele><time>2026-04-26T08:28:11Z</time></trkpt><trkpt lat="45.59690725134019" lon="10.794281916792588"><ele>275.66666666666663</ele><time>2026-04-26T08:28:12Z</time></trkpt><trkpt lat="45.59697633557186" lon="10.794286458674277"><ele>274.0</ele><time>2026-04-26T08:28:13Z</time></trkpt><trkpt lat="45.59706171402808" lon="10.794290413727966"><ele>272.66666666666663</ele><time>2026-04-26T08:28:14Z</time></trkpt><trkpt lat="45.59713175650261" lon="10.794289991420234"><ele>271.3333333333333</ele><time>2026-04-26T08:28:15Z</time></trkpt><trkpt lat="45.59720962844994" lon="10.794303987236598"><ele>270.0</ele><time>2026-04-26T08:28:16Z</time></trkpt><trkpt lat="45.5972742338242" lon="10.794340279316836"><ele>268.6666666666667</ele><time>2026-04-26T08:28:17Z</time></trkpt><trkpt lat="45.59732677090401" lon="10.794391861955964"><ele>267.33333333333337</ele><time>2026-04-26T08:28:18Z</time></trkpt><trkpt lat="45.597401102356045" lon="10.794440550018004"><ele>266.0</ele><time>2026-04-26T08:28:19Z</time></trkpt><trkpt lat="45.59749624762235" lon="10.794508706098968"><ele>266.0</ele><time>2026-04-26T08:28:20Z</time></trkpt><trkpt lat="45.597606842919596" lon="10.794587909558432"><ele>266.0</ele><time>2026-04-26T08:28:21Z</time></trkpt><trkpt lat="45.59772328083507" lon="10.794669271020089"><ele>266.0</ele><time>2026-04-26T08:28:22Z</time></trkpt><trkpt lat="45.59781791665207" lon="10.794731647712121"><ele>266.0</ele><time>2026-04-26T08:28:23Z</time></trkpt><trkpt lat="45.59790386025959" lon="10.794779476852947"><ele>263.8</ele><time>2026-04-26T08:28:24Z</time></trkpt><trkpt lat="45.59798365814759" lon="10.79481869650325"><ele>261.6</ele><time>2026-04-26T08:28:25Z</time></trkpt><trkpt lat="45.598104012139025" lon="10.794912137638416"><ele>259.4</ele><time>2026-04-26T08:28:27Z</time></trkpt><trkpt lat="45.59813305359774" lon="10.794998849775016"><ele>257.2</ele><time>2026-04-26T08:28:28Z</time></trkpt><trkpt lat="45.5982175783881" lon="10.795105728903879"><ele>255.0</ele><time>2026-04-26T08:28:30Z</time></trkpt><trkpt lat="45.59830101213798" lon="10.7951215486691"><ele>255.0</ele><time>2026-04-26T08:28:32Z</time></trkpt><trkpt lat="45.59843497609712" lon="10.795091304467528"><ele>255.0</ele><time>2026-04-26T08:28:34Z</time></trkpt><trkpt lat="45.59853066387027" lon="10.795089366486694"><ele>255.0</ele><time>2026-04-26T08:28:35Z</time></trkpt><trkpt lat="45.59862784212244" lon="10.795062495022577"><ele>255.0</ele><time>2026-04-26T08:28:36Z</time></trkpt><trkpt lat="45.598731766298684" lon="10.795026670806996"><ele>255.0</ele><time>2026-04-26T08:28:37Z</time></trkpt><trkpt lat="45.59883165034969" lon="10.79498413116574"><ele>254.16666666666666</ele><time>2026-04-26T08:28:38Z</time></trkpt><trkpt lat="45.598909203919476" lon="10.794933346776116"><ele>253.33333333333331</ele><time>2026-04-26T08:28:39Z</time></trkpt><trkpt lat="45.598992117637344" lon="10.794874418815393"><ele>252.5</ele><time>2026-04-26T08:28:40Z</time></trkpt><trkpt lat="45.59904948176105" lon="10.794810233956179"><ele>251.66666666666666</ele><time>2026-04-26T08:28:41Z</time></trkpt><trkpt lat="45.59912360348867" lon="10.794785678740563"><ele>250.83333333333331</ele><time>2026-04-26T08:28:42Z</time></trkpt><trkpt lat="45.599193620650524" lon="10.79475921554078"><ele>250.0</ele><time>2026-04-26T08:28:43Z</time></trkpt><trkpt lat="45.59926418469775" lon="10.794752217608462"><ele>250.0</ele><time>2026-04-26T08:28:44Z</time></trkpt><trkpt lat="45.59933820152062" lon="10.794750220096331"><ele>250.0</ele><time>2026-04-26T08:28:45Z</time></trkpt><trkpt lat="45.59941472913121" lon="10.794730490331315"><ele>250.0</ele><time>2026-04-26T08:28:46Z</time></trkpt><trkpt lat="45.59952241528325" lon="10.794748863273991"><ele>250.0</ele><time>2026-04-26T08:28:48Z</time></trkpt><trkpt lat="45.599641414346664" lon="10.794741578694532"><ele>250.0</ele><time>2026-04-26T08:28:50Z</time></trkpt><trkpt lat="45.59974576248323" lon="10.794715434573302"><ele>249.83333333333331</ele><time>2026-04-26T08:28:52Z</time></trkpt><trkpt lat="45.599816289225146" lon="10.794707409104923"><ele>249.66666666666666</ele><time>2026-04-26T08:28:59Z</time></trkpt><trkpt lat="45.59988224529498" lon="10.794707409105573"><ele>249.5</ele><time>2026-04-26T08:29:00Z</time></trkpt><trkpt lat="45.59999859826768" lon="10.794658768204199"><ele>249.33333333333331</ele><time>2026-04-26T08:29:02Z</time></trkpt><trkpt lat="45.6000801903944" lon="10.79463229967331"><ele>249.16666666666666</ele><time>2026-04-26T08:29:03Z</time></trkpt><trkpt lat="45.60016197327012" lon="10.79460301134803"><ele>249.0</ele><time>2026-04-26T08:29:04Z</time></trkpt><trkpt lat="45.60025305242696" lon="10.794583002685483"><ele>249.0</ele><time>2026-04-26T08:29:05Z</time></trkpt><trkpt lat="45.60036972117715" lon="10.794556082276658"><ele>248.99999999999997</ele><time>2026-04-26T08:29:06Z</time></trkpt><trkpt lat="45.60048833706561" lon="10.794526950001888"><ele>248.99999999999997</ele><time>2026-04-26T08:29:07Z</time></trkpt><trkpt lat="45.60057958997844" lon="10.794512022261546"><ele>249.0</ele><time>2026-04-26T08:29:08Z</time></trkpt><trkpt lat="45.600644171333464" lon="10.794498683429453"><ele>249.0</ele><time>2026-04-26T08:29:09Z</time></trkpt><trkpt lat="45.60070638114494" lon="10.794468736817857"><ele>249.0</ele><time>2026-04-26T08:29:11Z</time></trkpt><trkpt lat="45.60076728361067" lon="10.794417096132538"><ele>249.0</ele><time>2026-04-26T08:29:25Z</time></trkpt><trkpt lat="45.600845129522554" lon="10.79455208602595"><ele>249.0</ele><time>2026-04-26T08:29:26Z</time></trkpt><trkpt lat="45.600884427618695" lon="10.794632540648308"><ele>249.0</ele><time>2026-04-26T08:29:27Z</time></trkpt><trkpt lat="45.60094557760345" lon="10.794707674443254"><ele>249.0</ele><time>2026-04-26T08:29:28Z</time></trkpt><trkpt lat="45.60100526644928" lon="10.794776202057234"><ele>249.0</ele><time>2026-04-26T08:29:29Z</time></trkpt><trkpt lat="45.601085862083806" lon="10.794859206745668"><ele>249.0</ele><time>2026-04-26T08:29:30Z</time></trkpt><trkpt lat="45.601162920784475" lon="10.794940544565645"><ele>249.0</ele><time>2026-04-26T08:29:31Z</time></trkpt><trkpt lat="45.60122969860542" lon="10.795005492161208"><ele>249.0</ele><time>2026-04-26T08:29:32Z</time></trkpt><trkpt lat="45.60129650712315" lon="10.795062202365242"><ele>249.0</ele><time>2026-04-26T08:29:33Z</time></trkpt><trkpt lat="45.60136799547102" lon="10.795108010192925"><ele>249.0</ele><time>2026-04-26T08:29:34Z</time></trkpt><trkpt lat="45.60145965764037" lon="10.79514788128114"><ele>249.0</ele><time>2026-04-26T08:29:35Z</time></trkpt><trkpt lat="45.60156631333748" lon="10.795173435375608"><ele>249.2</ele><time>2026-04-26T08:29:36Z</time></trkpt><trkpt lat="45.601664011290886" lon="10.795181186241186"><ele>249.39999999999998</ele><time>2026-04-26T08:29:37Z</time></trkpt><trkpt lat="45.60177230315942" lon="10.795174693454188"><ele>249.6</ele><time>2026-04-26T08:29:38Z</time></trkpt><trkpt lat="45.60188211298469" lon="10.795180232226212"><ele>249.8</ele><time>2026-04-26T08:29:39Z</time></trkpt><trkpt lat="45.6019768347395" lon="10.7951796967357"><ele>250.0</ele><time>2026-04-26T08:29:40Z</time></trkpt><trkpt lat="45.60204663044233" lon="10.795175795865372"><ele>249.99999999999997</ele><time>2026-04-26T08:29:41Z</time></trkpt><trkpt lat="45.602121558802374" lon="10.795163739310182"><ele>250.0</ele><time>2026-04-26T08:29:42Z</time></trkpt><trkpt lat="45.602185579498936" lon="10.795164523266392"><ele>250.0</ele><time>2026-04-26T08:29:43Z</time></trkpt><trkpt lat="45.60227704792225" lon="10.795163697416195"><ele>250.0</ele><time>2026-04-26T08:29:44Z</time></trkpt><trkpt lat="45.60234279590178" lon="10.795172375529097"><ele>249.99999999999997</ele><time>2026-04-26T08:29:45Z</time></trkpt><trkpt lat="45.6024353913872" lon="10.795185000134145"><ele>250.0</ele><time>2026-04-26T08:29:47Z</time></trkpt><trkpt lat="45.602491149804784" lon="10.795232271292715"><ele>250.16666666666666</ele><time>2026-04-26T08:29:49Z</time></trkpt><trkpt lat="45.60255048075128" lon="10.7953116750072"><ele>250.33333333333331</ele><time>2026-04-26T08:29:51Z</time></trkpt><trkpt lat="45.6026016138301" lon="10.79538089778022"><ele>250.5</ele><time>2026-04-26T08:29:52Z</time></trkpt><trkpt lat="45.602676032057126" lon="10.79545867922468"><ele>250.66666666666669</ele><time>2026-04-26T08:29:53Z</time></trkpt><trkpt lat="45.60273538838452" lon="10.795533711067758"><ele>250.83333333333334</ele><time>2026-04-26T08:29:54Z</time></trkpt><trkpt lat="45.60270668430878" lon="10.795699958069594"><ele>251.0</ele><time>2026-04-26T08:29:55Z</time></trkpt><trkpt lat="45.6027033368031" lon="10.79584449923881"><ele>251.0</ele><time>2026-04-26T08:29:56Z</time></trkpt><trkpt lat="45.60269573286672" lon="10.796001168667793"><ele>251.00000000000003</ele><time>2026-04-26T08:29:57Z</time></trkpt><trkpt lat="45.60269577578229" lon="10.796149600227212"><ele>251.00000000000003</ele><time>2026-04-26T08:29:58Z</time></trkpt><trkpt lat="45.602698536233206" lon="10.796310091996691"><ele>251.0</ele><time>2026-04-26T08:29:59Z</time></trkpt><trkpt lat="45.60270608449012" lon="10.796461662938805"><ele>251.0</ele><time>2026-04-26T08:30:00Z</time></trkpt><trkpt lat="45.60271639835805" lon="10.796587818250236"><ele>251.0</ele><time>2026-04-26T08:30:01Z</time></trkpt><trkpt lat="45.60272521982883" lon="10.796717227959398"><ele>251.00000000000003</ele><time>2026-04-26T08:30:02Z</time></trkpt><trkpt lat="45.60273359378773" lon="10.796848323054721"><ele>251.00000000000003</ele><time>2026-04-26T08:30:03Z</time></trkpt><trkpt lat="45.60275609668674" lon="10.796991745641426"><ele>251.0</ele><time>2026-04-26T08:30:04Z</time></trkpt><trkpt lat="45.602768423823235" lon="10.79709898797071"><ele>251.0</ele><time>2026-04-26T08:30:05Z</time></trkpt><trkpt lat="45.602857979245876" lon="10.797240635375573"><ele>250.8</ele><time>2026-04-26T08:30:07Z</time></trkpt><trkpt lat="45.60293640873944" lon="10.797278537558999"><ele>250.60000000000002</ele><time>2026-04-26T08:30:08Z</time></trkpt><trkpt lat="45.603025209484606" lon="10.797309121932681"><ele>250.4</ele><time>2026-04-26T08:30:09Z</time></trkpt><trkpt lat="45.60310598193917" lon="10.797356842469512"><ele>250.2</ele><time>2026-04-26T08:30:10Z</time></trkpt><trkpt lat="45.60316425129447" lon="10.797409111239375"><ele>250.0</ele><time>2026-04-26T08:30:11Z</time></trkpt><trkpt lat="45.603200632365855" lon="10.797594711250342"><ele>250.2</ele><time>2026-04-26T08:30:13Z</time></trkpt><trkpt lat="45.60319331905083" lon="10.797728676611795"><ele>250.4</ele><time>2026-04-26T08:30:14Z</time></trkpt><trkpt lat="45.60318380529678" lon="10.79786442983746"><ele>250.60000000000002</ele><time>2026-04-26T08:30:15Z</time></trkpt><trkpt lat="45.603182333360905" lon="10.797986092796819"><ele>250.8</ele><time>2026-04-26T08:30:16Z</time></trkpt><trkpt lat="45.60324819423434" lon="10.798129937238317"><ele>251.0</ele><time>2026-04-26T08:30:18Z</time></trkpt><trkpt lat="45.60336654310363" lon="10.798202459989522"><ele>251.00000000000003</ele><time>2026-04-26T08:30:20Z</time></trkpt><trkpt lat="45.603447702086335" lon="10.798235199629607"><ele>251.0</ele><time>2026-04-26T08:30:21Z</time></trkpt><trkpt lat="45.60352592490553" lon="10.798275252468587"><ele>251.0</ele><time>2026-04-26T08:30:22Z</time></trkpt><trkpt lat="45.60361636424066" lon="10.798321310829383"><ele>251.0</ele><time>2026-04-26T08:30:23Z</time></trkpt><trkpt lat="45.603703326761114" lon="10.798359215660101"><ele>251.00000000000003</ele><time>2026-04-26T08:30:24Z</time></trkpt><trkpt lat="45.6037704806132" lon="10.798387138723621"><ele>251.0</ele><time>2026-04-26T08:30:25Z</time></trkpt><trkpt lat="45.60383426813174" lon="10.798421072076653"><ele>251.16666666666669</ele><time>2026-04-26T08:30:26Z</time></trkpt><trkpt lat="45.60390290232076" lon="10.798463827032524"><ele>251.33333333333334</ele><time>2026-04-26T08:30:27Z</time></trkpt><trkpt lat="45.60398105396199" lon="10.798509500657897"><ele>251.5</ele><time>2026-04-26T08:30:28Z</time></trkpt><trkpt lat="45.60406415916187" lon="10.7985591448033"><ele>251.66666666666669</ele><time>2026-04-26T08:30:29Z</time></trkpt><trkpt lat="45.60412744146077" lon="10.798592570188713"><ele>251.83333333333334</ele><time>2026-04-26T08:30:30Z</time></trkpt><trkpt lat="45.6042300699412" lon="10.79865617699889"><ele>252.0</ele><time>2026-04-26T08:30:32Z</time></trkpt><trkpt lat="45.60431152710116" lon="10.798702181342522"><ele>252.0</ele><time>2026-04-26T08:30:34Z</time></trkpt><trkpt lat="45.60440768499264" lon="10.7987580995765"><ele>252.0</ele><time>2026-04-26T08:30:36Z</time></trkpt><trkpt lat="45.604472085066995" lon="10.798800299683277"><ele>252.0</ele><time>2026-04-26T08:30:37Z</time></trkpt><trkpt lat="45.60454468844052" lon="10.798838224218771"><ele>252.0</ele><time>2026-04-26T08:30:38Z</time></trkpt><trkpt lat="45.60461076368313" lon="10.798871153140306"><ele>252.0</ele><time>2026-04-26T08:30:39Z</time></trkpt><trkpt lat="45.60466933462604" lon="10.79890621066302"><ele>252.0</ele><time>2026-04-26T08:30:40Z</time></trkpt><trkpt lat="45.60473872387852" lon="10.79894232615401"><ele>252.0</ele><time>2026-04-26T08:30:41Z</time></trkpt><trkpt lat="45.60486641548526" lon="10.799017654123768"><ele>252.0</ele><time>2026-04-26T08:30:43Z</time></trkpt><trkpt lat="45.60493798825125" lon="10.799055863306561"><ele>252.0</ele><time>2026-04-26T08:30:44Z</time></trkpt><trkpt lat="45.605006065767256" lon="10.799091721817035"><ele>252.0</ele><time>2026-04-26T08:30:45Z</time></trkpt><trkpt lat="45.60506697668964" lon="10.799119114659138"><ele>252.0</ele><time>2026-04-26T08:30:46Z</time></trkpt><trkpt lat="45.60517516568107" lon="10.799183938188527"><ele>252.0</ele><time>2026-04-26T08:30:48Z</time></trkpt><trkpt lat="45.60528728322266" lon="10.799276373073333"><ele>252.0</ele><time>2026-04-26T08:30:50Z</time></trkpt><trkpt lat="45.605352060245764" lon="10.799322702841543"><ele>252.0</ele><time>2026-04-26T08:30:51Z</time></trkpt><trkpt lat="45.605415062855" lon="10.799368866799114"><ele>252.0</ele><time>2026-04-26T08:30:52Z</time></trkpt><trkpt lat="45.60548723328549" lon="10.799365123386911"><ele>252.0</ele><time>2026-04-26T08:30:54Z</time></trkpt><trkpt lat="45.605511449081426" lon="10.799626567184838"><ele>253.8</ele><time>2026-04-26T08:30:56Z</time></trkpt><trkpt lat="45.60551933265059" lon="10.799735143950047"><ele>255.6</ele><time>2026-04-26T08:30:57Z</time></trkpt><trkpt lat="45.605517384193256" lon="10.7998654486826"><ele>257.40000000000003</ele><time>2026-04-26T08:30:58Z</time></trkpt><trkpt lat="45.60550363210461" lon="10.80001461769574"><ele>259.2</ele><time>2026-04-26T08:30:59Z</time></trkpt><trkpt lat="45.60548590053682" lon="10.800162577406747"><ele>261.0</ele><time>2026-04-26T08:31:00Z</time></trkpt><trkpt lat="45.60546372614424" lon="10.80029322272591"><ele>261.40000000000003</ele><time>2026-04-26T08:31:01Z</time></trkpt><trkpt lat="45.60545068845105" lon="10.800441479726956"><ele>261.8</ele><time>2026-04-26T08:31:02Z</time></trkpt><trkpt lat="45.605423375283785" lon="10.800590832265964"><ele>262.20000000000005</ele><time>2026-04-26T08:31:03Z</time></trkpt><trkpt lat="45.60540708288528" lon="10.800740726260305"><ele>262.6</ele><time>2026-04-26T08:31:04Z</time></trkpt><trkpt lat="45.60538910065645" lon="10.800883512156032"><ele>263.0</ele><time>2026-04-26T08:31:05Z</time></trkpt><trkpt lat="45.60537708101491" lon="10.801014357899534"><ele>264.0</ele><time>2026-04-26T08:31:06Z</time></trkpt><trkpt lat="45.605366120507654" lon="10.801141228483226"><ele>265.0</ele><time>2026-04-26T08:31:07Z</time></trkpt><trkpt lat="45.60535484335607" lon="10.801285151097657"><ele>266.0</ele><time>2026-04-26T08:31:08Z</time></trkpt><trkpt lat="45.60534060395016" lon="10.80142329378543"><ele>267.0</ele><time>2026-04-26T08:31:09Z</time></trkpt><trkpt lat="45.605330609058385" lon="10.801578727241411"><ele>268.0</ele><time>2026-04-26T08:31:10Z</time></trkpt><trkpt lat="45.60532350342383" lon="10.801704064270854"><ele>266.16666666666663</ele><time>2026-04-26T08:31:11Z</time></trkpt><trkpt lat="45.605322115004626" lon="10.801822027138735"><ele>264.3333333333333</ele><time>2026-04-26T08:31:12Z</time></trkpt><trkpt lat="45.605312411167176" lon="10.8019152670373"><ele>262.5</ele><time>2026-04-26T08:31:13Z</time></trkpt><trkpt lat="45.60529857994906" lon="10.802020194105664"><ele>260.6666666666667</ele><time>2026-04-26T08:31:14Z</time></trkpt><trkpt lat="45.605286364474466" lon="10.802171149677338"><ele>258.83333333333337</ele><time>2026-04-26T08:31:15Z</time></trkpt><trkpt lat="45.605261321137434" lon="10.80228642406229"><ele>257.0</ele><time>2026-04-26T08:31:16Z</time></trkpt><trkpt lat="45.605240230345" lon="10.802394590567294"><ele>257.0</ele><time>2026-04-26T08:31:17Z</time></trkpt><trkpt lat="45.60523365828258" lon="10.80254076426585"><ele>257.0</ele><time>2026-04-26T08:31:19Z</time></trkpt><trkpt lat="45.60522304183369" lon="10.802673701810846"><ele>257.0</ele><time>2026-04-26T08:31:21Z</time></trkpt><trkpt lat="45.60521482806064" lon="10.80278461493306"><ele>257.0</ele><time>2026-04-26T08:31:23Z</time></trkpt><trkpt lat="45.60520766970188" lon="10.802920362398115"><ele>257.0</ele><time>2026-04-26T08:31:26Z</time></trkpt><trkpt lat="45.605206479895735" lon="10.803097290639426"><ele>257.0</ele><time>2026-04-26T08:31:28Z</time></trkpt><trkpt lat="45.605228839331126" lon="10.803184443588218"><ele>257.0</ele><time>2026-04-26T08:31:29Z</time></trkpt><trkpt lat="45.60521320053491" lon="10.803285655181313"><ele>257.0</ele><time>2026-04-26T08:31:30Z</time></trkpt><trkpt lat="45.60521729385772" lon="10.803422038506914"><ele>257.0</ele><time>2026-04-26T08:31:31Z</time></trkpt><trkpt lat="45.605202895852884" lon="10.803574001157225"><ele>257.0</ele><time>2026-04-26T08:31:32Z</time></trkpt><trkpt lat="45.60518772150419" lon="10.803734289586405"><ele>257.6</ele><time>2026-04-26T08:31:33Z</time></trkpt><trkpt lat="45.605172087647574" lon="10.803902570466917"><ele>258.2</ele><time>2026-04-26T08:31:34Z</time></trkpt><trkpt lat="45.6051594847479" lon="10.804054793390437"><ele>258.8</ele><time>2026-04-26T08:31:35Z</time></trkpt><trkpt lat="45.605140940952886" lon="10.804193836446016"><ele>259.4</ele><time>2026-04-26T08:31:36Z</time></trkpt><trkpt lat="45.605124223594515" lon="10.804335399622305"><ele>260.0</ele><time>2026-04-26T08:31:37Z</time></trkpt><trkpt lat="45.60511041650784" lon="10.804485015100514"><ele>260.2</ele><time>2026-04-26T08:31:38Z</time></trkpt><trkpt lat="45.60510553590839" lon="10.80464807663485"><ele>260.4</ele><time>2026-04-26T08:31:39Z</time></trkpt><trkpt lat="45.605107192033955" lon="10.804811982194439"><ele>260.6</ele><time>2026-04-26T08:31:40Z</time></trkpt><trkpt lat="45.60511100852989" lon="10.8049456085965"><ele>260.8</ele><time>2026-04-26T08:31:41Z</time></trkpt><trkpt lat="45.60512241758207" lon="10.805071645340451"><ele>261.0</ele><time>2026-04-26T08:31:43Z</time></trkpt><trkpt lat="45.605122080761376" lon="10.805197556761003"><ele>261.0</ele><time>2026-04-26T08:32:01Z</time></trkpt><trkpt lat="45.60518824381421" lon="10.80532600248688"><ele>261.0</ele><time>2026-04-26T08:32:09Z</time></trkpt><trkpt lat="45.605243823131566" lon="10.805393558666877"><ele>261.0</ele><time>2026-04-26T08:32:10Z</time></trkpt><trkpt lat="45.60530831055804" lon="10.805449287107216"><ele>261.0</ele><time>2026-04-26T08:32:11Z</time></trkpt><trkpt lat="45.60535204415889" lon="10.805521753336206"><ele>261.0</ele><time>2026-04-26T08:32:12Z</time></trkpt><trkpt lat="45.60541089833603" lon="10.805593380884106"><ele>261.0</ele><time>2026-04-26T08:32:13Z</time></trkpt><trkpt lat="45.6054739886808" lon="10.80568521043434"><ele>261.6666666666667</ele><time>2026-04-26T08:32:14Z</time></trkpt><trkpt lat="45.60551954466563" lon="10.805791794651832"><ele>262.3333333333333</ele><time>2026-04-26T08:32:15Z</time></trkpt><trkpt lat="45.60555923971521" lon="10.805915701439105"><ele>263.0</ele><time>2026-04-26T08:32:16Z</time></trkpt><trkpt lat="45.60558786624285" lon="10.806019372828956"><ele>263.66666666666663</ele><time>2026-04-26T08:32:17Z</time></trkpt><trkpt lat="45.60562012269835" lon="10.806136185815559"><ele>264.3333333333333</ele><time>2026-04-26T08:32:18Z</time></trkpt><trkpt lat="45.60565796359933" lon="10.806265090657647"><ele>265.0</ele><time>2026-04-26T08:32:19Z</time></trkpt><trkpt lat="45.60570500459294" lon="10.806405369921245"><ele>265.0</ele><time>2026-04-26T08:32:20Z</time></trkpt><trkpt lat="45.60574711294176" lon="10.806550055702218"><ele>265.0</ele><time>2026-04-26T08:32:21Z</time></trkpt><trkpt lat="45.605785223999206" lon="10.806714476829878"><ele>265.0</ele><time>2026-04-26T08:32:22Z</time></trkpt><trkpt lat="45.60581840733496" lon="10.806856752806139"><ele>265.0</ele><time>2026-04-26T08:32:23Z</time></trkpt><trkpt lat="45.605850257897174" lon="10.806988595283283"><ele>265.0</ele><time>2026-04-26T08:32:24Z</time></trkpt><trkpt lat="45.60588625987552" lon="10.807107260532588"><ele>264.8</ele><time>2026-04-26T08:32:25Z</time></trkpt><trkpt lat="45.60592263055869" lon="10.80725826451209"><ele>264.6</ele><time>2026-04-26T08:32:26Z</time></trkpt><trkpt lat="45.60595426503519" lon="10.807400148644515"><ele>264.4</ele><time>2026-04-26T08:32:27Z</time></trkpt><trkpt lat="45.60598738128365" lon="10.807526481575602"><ele>264.2</ele><time>2026-04-26T08:32:28Z</time></trkpt><trkpt lat="45.606017696892906" lon="10.807632798941187"><ele>264.0</ele><time>2026-04-26T08:32:29Z</time></trkpt><trkpt lat="45.606055581204295" lon="10.807758544520013"><ele>264.0</ele><time>2026-04-26T08:32:30Z</time></trkpt><trkpt lat="45.60609257990737" lon="10.807895606390817"><ele>264.0</ele><time>2026-04-26T08:32:31Z</time></trkpt><trkpt lat="45.60613170654685" lon="10.808031751959698"><ele>264.0</ele><time>2026-04-26T08:32:32Z</time></trkpt><trkpt lat="45.606158014024544" lon="10.808150046536667"><ele>264.0</ele><time>2026-04-26T08:32:33Z</time></trkpt><trkpt lat="45.60618332115718" lon="10.808270022227672"><ele>264.0</ele><time>2026-04-26T08:32:34Z</time></trkpt><trkpt lat="45.60619893122994" lon="10.808392933312755"><ele>264.59999999999997</ele><time>2026-04-26T08:32:35Z</time></trkpt><trkpt lat="45.606229108251675" lon="10.80851980713075"><ele>265.2</ele><time>2026-04-26T08:32:36Z</time></trkpt><trkpt lat="45.60627529974411" lon="10.808645363833362"><ele>265.79999999999995</ele><time>2026-04-26T08:32:37Z</time></trkpt><trkpt lat="45.606350742452456" lon="10.808754643109998"><ele>266.4</ele><time>2026-04-26T08:32:38Z</time></trkpt><trkpt lat="45.60643444931989" lon="10.808858943516745"><ele>267.0</ele><time>2026-04-26T08:32:39Z</time></trkpt><trkpt lat="45.60650968587421" lon="10.808974519671743"><ele>267.0</ele><time>2026-04-26T08:32:40Z</time></trkpt><trkpt lat="45.60659013824733" lon="10.809063665871061"><ele>267.0</ele><time>2026-04-26T08:32:41Z</time></trkpt><trkpt lat="45.60666383031771" lon="10.809159029944889"><ele>267.0</ele><time>2026-04-26T08:32:42Z</time></trkpt><trkpt lat="45.60674797219993" lon="10.80925122585473"><ele>267.0</ele><time>2026-04-26T08:32:43Z</time></trkpt><trkpt lat="45.606810883322964" lon="10.809361667242808"><ele>267.0</ele><time>2026-04-26T08:32:44Z</time></trkpt><trkpt lat="45.606875457225634" lon="10.809453425164904"><ele>267.0</ele><time>2026-04-26T08:32:45Z</time></trkpt><trkpt lat="45.60695624457034" lon="10.809587055255736"><ele>267.0</ele><time>2026-04-26T08:32:47Z</time></trkpt><trkpt lat="45.60701494468551" lon="10.809662636918102"><ele>267.0</ele><time>2026-04-26T08:32:49Z</time></trkpt><trkpt lat="45.60687635190654" lon="10.809902208571788"><ele>267.0</ele><time>2026-04-26T08:32:58Z</time></trkpt><trkpt lat="45.60681210450912" lon="10.80991533402537"><ele>267.0</ele><time>2026-04-26T08:32:59Z</time></trkpt><trkpt lat="45.60671167777718" lon="10.809980445269167"><ele>267.0</ele><time>2026-04-26T08:33:01Z</time></trkpt><trkpt lat="45.606603392855085" lon="10.810048264557311"><ele>267.0</ele><time>2026-04-26T08:33:03Z</time></trkpt><trkpt lat="45.606547132463355" lon="10.810102575858668"><ele>267.0</ele><time>2026-04-26T08:33:04Z</time></trkpt><trkpt lat="45.606502466702025" lon="10.8101698434113"><ele>267.0</ele><time>2026-04-26T08:33:05Z</time></trkpt><trkpt lat="45.60646098085639" lon="10.810280060895932"><ele>267.0</ele><time>2026-04-26T08:33:07Z</time></trkpt><trkpt lat="45.606430903369734" lon="10.810361142951276"><ele>267.0</ele><time>2026-04-26T08:33:08Z</time></trkpt><trkpt lat="45.60639237871914" lon="10.810455877705715"><ele>267.0</ele><time>2026-04-26T08:33:09Z</time></trkpt><trkpt lat="45.606341867576695" lon="10.81056879158886"><ele>267.0</ele><time>2026-04-26T08:33:10Z</time></trkpt><trkpt lat="45.60628780317494" lon="10.810673717515517"><ele>267.0</ele><time>2026-04-26T08:33:11Z</time></trkpt><trkpt lat="45.60623252570352" lon="10.810766396046969"><ele>267.0</ele><time>2026-04-26T08:33:12Z</time></trkpt><trkpt lat="45.60617554228338" lon="10.810878791082068"><ele>267.0</ele><time>2026-04-26T08:33:13Z</time></trkpt><trkpt lat="45.60611741110709" lon="10.81098234578744"><ele>267.4</ele><time>2026-04-26T08:33:14Z</time></trkpt><trkpt lat="45.60606349909139" lon="10.811080841882697"><ele>267.79999999999995</ele><time>2026-04-26T08:33:15Z</time></trkpt><trkpt lat="45.60600826768136" lon="10.81118134948093"><ele>268.2</ele><time>2026-04-26T08:33:16Z</time></trkpt><trkpt lat="45.60593511445609" lon="10.811297389282585"><ele>268.59999999999997</ele><time>2026-04-26T08:33:17Z</time></trkpt><trkpt lat="45.60586947846227" lon="10.811391397024844"><ele>269.0</ele><time>2026-04-26T08:33:18Z</time></trkpt><trkpt lat="45.60581853210411" lon="10.811464651051693"><ele>269.0</ele><time>2026-04-26T08:33:19Z</time></trkpt><trkpt lat="45.605760329558386" lon="10.811562289387695"><ele>269.0</ele><time>2026-04-26T08:33:20Z</time></trkpt><trkpt lat="45.60569946407829" lon="10.81166185774766"><ele>269.0</ele><time>2026-04-26T08:33:21Z</time></trkpt><trkpt lat="45.605659886230534" lon="10.81175130302212"><ele>269.0</ele><time>2026-04-26T08:33:23Z</time></trkpt><trkpt lat="45.605636516272845" lon="10.81185332781598"><ele>269.0</ele><time>2026-04-26T08:33:26Z</time></trkpt><trkpt lat="45.605606204252254" lon="10.812019925837777"><ele>269.1666666666667</ele><time>2026-04-26T08:33:28Z</time></trkpt><trkpt lat="45.60557494846862" lon="10.812185800199277"><ele>269.33333333333337</ele><time>2026-04-26T08:33:30Z</time></trkpt><trkpt lat="45.605552215051546" lon="10.812281887162902"><ele>269.5</ele><time>2026-04-26T08:33:31Z</time></trkpt><trkpt lat="45.6055383127055" lon="10.812383828494744"><ele>269.6666666666667</ele><time>2026-04-26T08:33:33Z</time></trkpt><trkpt lat="45.60548915465893" lon="10.812479626714667"><ele>269.8333333333333</ele><time>2026-04-26T08:33:35Z</time></trkpt><trkpt lat="45.60544207963748" lon="10.812540437145502"><ele>270.0</ele><time>2026-04-26T08:33:36Z</time></trkpt><trkpt lat="45.605388863702906" lon="10.812594887983588"><ele>270.3333333333333</ele><time>2026-04-26T08:33:37Z</time></trkpt><trkpt lat="45.60533223940652" lon="10.812679081436919"><ele>270.6666666666667</ele><time>2026-04-26T08:33:39Z</time></trkpt><trkpt lat="45.60529157189822" lon="10.81281571393482"><ele>271.0</ele><time>2026-04-26T08:33:40Z</time></trkpt><trkpt lat="45.605258370465336" lon="10.812912609507812"><ele>271.33333333333337</ele><time>2026-04-26T08:33:41Z</time></trkpt><trkpt lat="45.60521724277355" lon="10.813004911060633"><ele>271.6666666666667</ele><time>2026-04-26T08:33:42Z</time></trkpt><trkpt lat="45.60518625766848" lon="10.813100915424585"><ele>272.0</ele><time>2026-04-26T08:33:43Z</time></trkpt><trkpt lat="45.60514969046354" lon="10.813207161767563"><ele>271.2</ele><time>2026-04-26T08:33:44Z</time></trkpt><trkpt lat="45.605108308232914" lon="10.81333966748164"><ele>270.4</ele><time>2026-04-26T08:33:45Z</time></trkpt><trkpt lat="45.60506834314864" lon="10.813466175006145"><ele>269.6</ele><time>2026-04-26T08:33:46Z</time></trkpt><trkpt lat="45.60503232791635" lon="10.813587717659043"><ele>268.8</ele><time>2026-04-26T08:33:47Z</time></trkpt><trkpt lat="45.604997748590876" lon="10.813724780249766"><ele>268.0</ele><time>2026-04-26T08:33:48Z</time></trkpt><trkpt lat="45.6049639768312" lon="10.8138671592425"><ele>268.0</ele><time>2026-04-26T08:33:49Z</time></trkpt><trkpt lat="45.60492402280488" lon="10.814009131300711"><ele>268.0</ele><time>2026-04-26T08:33:50Z</time></trkpt><trkpt lat="45.60489276928726" lon="10.814140757218864"><ele>268.0</ele><time>2026-04-26T08:33:51Z</time></trkpt><trkpt lat="45.60486701725741" lon="10.814259592200814"><ele>268.0</ele><time>2026-04-26T08:33:52Z</time></trkpt><trkpt lat="45.60483649218915" lon="10.814366681619589"><ele>268.0</ele><time>2026-04-26T08:33:53Z</time></trkpt><trkpt lat="45.60480522709432" lon="10.814489307820802"><ele>268.2</ele><time>2026-04-26T08:33:54Z</time></trkpt><trkpt lat="45.60477699049748" lon="10.814622176138052"><ele>268.4</ele><time>2026-04-26T08:33:55Z</time></trkpt><trkpt lat="45.60474727104036" lon="10.81477746055345"><ele>268.59999999999997</ele><time>2026-04-26T08:33:56Z</time></trkpt><trkpt lat="45.604719676800215" lon="10.814921455646463"><ele>268.8</ele><time>2026-04-26T08:33:57Z</time></trkpt><trkpt lat="45.60469463550123" lon="10.815049506655281"><ele>269.0</ele><time>2026-04-26T08:33:58Z</time></trkpt><trkpt lat="45.6046677631353" lon="10.815189340068908"><ele>269.1666666666667</ele><time>2026-04-26T08:33:59Z</time></trkpt><trkpt lat="45.60464640196099" lon="10.815321221197076"><ele>269.33333333333337</ele><time>2026-04-26T08:34:00Z</time></trkpt><trkpt lat="45.60463209557587" lon="10.815471065536885"><ele>269.5</ele><time>2026-04-26T08:34:01Z</time></trkpt><trkpt lat="45.6046247068103" lon="10.81559652955603"><ele>269.6666666666667</ele><time>2026-04-26T08:34:02Z</time></trkpt><trkpt lat="45.60462080567302" lon="10.815693596285081"><ele>269.8333333333333</ele><time>2026-04-26T08:34:03Z</time></trkpt><trkpt lat="45.60462095856661" lon="10.8157919206639"><ele>270.0</ele><time>2026-04-26T08:34:05Z</time></trkpt><trkpt lat="45.60469105068937" lon="10.815894693218098"><ele>269.8</ele><time>2026-04-26T08:34:08Z</time></trkpt><trkpt lat="45.60466863470841" lon="10.816030794867602"><ele>269.6</ele><time>2026-04-26T08:34:18Z</time></trkpt><trkpt lat="45.60464774684751" lon="10.816178852914494"><ele>269.4</ele><time>2026-04-26T08:34:20Z</time></trkpt><trkpt lat="45.60465158207929" lon="10.816301740130275"><ele>269.2</ele><time>2026-04-26T08:34:21Z</time></trkpt><trkpt lat="45.60463827737793" lon="10.816391279477404"><ele>269.0</ele><time>2026-04-26T08:34:22Z</time></trkpt><trkpt lat="45.60463640462268" lon="10.816530916393317"><ele>269.0</ele><time>2026-04-26T08:34:23Z</time></trkpt><trkpt lat="45.60463184247229" lon="10.81668421833246"><ele>269.0</ele><time>2026-04-26T08:34:24Z</time></trkpt><trkpt lat="45.60463074411107" lon="10.816820298837776"><ele>269.0</ele><time>2026-04-26T08:34:25Z</time></trkpt><trkpt lat="45.60464816245355" lon="10.816961813590584"><ele>269.0</ele><time>2026-04-26T08:34:26Z</time></trkpt><trkpt lat="45.604689741584764" lon="10.81708735290615"><ele>269.0</ele><time>2026-04-26T08:34:27Z</time></trkpt><trkpt lat="45.6047139232018" lon="10.817233310882363"><ele>269.8</ele><time>2026-04-26T08:34:28Z</time></trkpt><trkpt lat="45.604759149500666" lon="10.817392263207859"><ele>270.59999999999997</ele><time>2026-04-26T08:34:29Z</time></trkpt><trkpt lat="45.604792133042096" lon="10.817544441492245"><ele>271.4</ele><time>2026-04-26T08:34:30Z</time></trkpt><trkpt lat="45.60478998814502" lon="10.817666181389551"><ele>272.2</ele><time>2026-04-26T08:34:31Z</time></trkpt><trkpt lat="45.60476527405162" lon="10.817796930724356"><ele>273.0</ele><time>2026-04-26T08:34:32Z</time></trkpt><trkpt lat="45.604714763040874" lon="10.817945187071144"><ele>273.2</ele><time>2026-04-26T08:34:33Z</time></trkpt><trkpt lat="45.60464721776096" lon="10.818094063284626"><ele>273.4</ele><time>2026-04-26T08:34:34Z</time></trkpt><trkpt lat="45.60458625850818" lon="10.818252310692285"><ele>273.59999999999997</ele><time>2026-04-26T08:34:35Z</time></trkpt><trkpt lat="45.60453400448108" lon="10.81838189663005"><ele>273.8</ele><time>2026-04-26T08:34:36Z</time></trkpt><trkpt lat="45.60448912782965" lon="10.818497596611197"><ele>274.0</ele><time>2026-04-26T08:34:37Z</time></trkpt><trkpt lat="45.6044559802567" lon="10.818615458193998"><ele>273.4</ele><time>2026-04-26T08:34:38Z</time></trkpt><trkpt lat="45.60442252773135" lon="10.818731075597043"><ele>272.79999999999995</ele><time>2026-04-26T08:34:39Z</time></trkpt><trkpt lat="45.60439782779318" lon="10.818884618900949"><ele>272.20000000000005</ele><time>2026-04-26T08:34:41Z</time></trkpt><trkpt lat="45.604405533566556" lon="10.819081948222209"><ele>271.6</ele><time>2026-04-26T08:34:43Z</time></trkpt><trkpt lat="45.60440267789194" lon="10.819194170945485"><ele>271.0</ele><time>2026-04-26T08:34:44Z</time></trkpt><trkpt lat="45.60440903312573" lon="10.819293279519712"><ele>271.40000000000003</ele><time>2026-04-26T08:34:45Z</time></trkpt><trkpt lat="45.60443262071879" lon="10.819411610879422"><ele>271.8</ele><time>2026-04-26T08:34:46Z</time></trkpt><trkpt lat="45.604476784919534" lon="10.819539060796552"><ele>272.20000000000005</ele><time>2026-04-26T08:34:47Z</time></trkpt><trkpt lat="45.60451312072093" lon="10.819686497131904"><ele>272.6</ele><time>2026-04-26T08:34:48Z</time></trkpt><trkpt lat="45.604522087760756" lon="10.819841199360418"><ele>273.0</ele><time>2026-04-26T08:34:49Z</time></trkpt><trkpt lat="45.6045152563874" lon="10.820004168272884"><ele>273.8</ele><time>2026-04-26T08:34:50Z</time></trkpt><trkpt lat="45.60447344148694" lon="10.820167722210584"><ele>274.6</ele><time>2026-04-26T08:34:51Z</time></trkpt><trkpt lat="45.60445129203512" lon="10.820339788205999"><ele>275.4</ele><time>2026-04-26T08:34:52Z</time></trkpt><trkpt lat="45.60442332750265" lon="10.820495965952485"><ele>276.2</ele><time>2026-04-26T08:34:53Z</time></trkpt><trkpt lat="45.604404306422936" lon="10.820602467525234"><ele>277.0</ele><time>2026-04-26T08:34:54Z</time></trkpt><trkpt lat="45.60437761393091" lon="10.820735806035277"><ele>277.0</ele><time>2026-04-26T08:34:56Z</time></trkpt><trkpt lat="45.604352701654385" lon="10.82082127578237"><ele>277.0</ele><time>2026-04-26T08:34:59Z</time></trkpt><trkpt lat="45.604347286402344" lon="10.820916318451188"><ele>277.0</ele><time>2026-04-26T08:35:02Z</time></trkpt><trkpt lat="45.60431040045964" lon="10.821032589560469"><ele>277.0</ele><time>2026-04-26T08:35:08Z</time></trkpt><trkpt lat="45.60428068037333" lon="10.821120224366286"><ele>277.0</ele><time>2026-04-26T08:35:13Z</time></trkpt><trkpt lat="45.60394037520169" lon="10.821096712153077"><ele>276.5</ele><time>2026-04-26T08:35:16Z</time></trkpt><trkpt lat="45.603837666149516" lon="10.82112921567211"><ele>276.0</ele><time>2026-04-26T08:35:18Z</time></trkpt><trkpt lat="45.60377609758343" lon="10.821154753516304"><ele>275.5</ele><time>2026-04-26T08:35:20Z</time></trkpt><trkpt lat="45.60370333906012" lon="10.821178334490149"><ele>275.0</ele><time>2026-04-26T08:35:24Z</time></trkpt><trkpt lat="45.603640089124255" lon="10.821186356493346"><ele>274.5</ele><time>2026-04-26T08:35:43Z</time></trkpt><trkpt lat="45.60355354712876" lon="10.82121871032408"><ele>274.0</ele><time>2026-04-26T08:35:45Z</time></trkpt><trkpt lat="45.60344898745615" lon="10.821262066319674"><ele>274.0</ele><time>2026-04-26T08:35:47Z</time></trkpt><trkpt lat="45.60334594533944" lon="10.821296313993034"><ele>274.0</ele><time>2026-04-26T08:35:49Z</time></trkpt><trkpt lat="45.60328219052422" lon="10.821317288225995"><ele>274.0</ele><time>2026-04-26T08:35:50Z</time></trkpt><trkpt lat="45.60320463048462" lon="10.821342482439897"><ele>274.0</ele><time>2026-04-26T08:35:51Z</time></trkpt><trkpt lat="45.60314239070878" lon="10.821365991762711"><ele>274.0</ele><time>2026-04-26T08:35:52Z</time></trkpt><trkpt lat="45.60304717869381" lon="10.821397809704534"><ele>274.0</ele><time>2026-04-26T08:35:54Z</time></trkpt><trkpt lat="45.602981488312" lon="10.821421844220058"><ele>274.0</ele><time>2026-04-26T08:35:55Z</time></trkpt><trkpt lat="45.60290369052227" lon="10.821447538435072"><ele>274.0</ele><time>2026-04-26T08:35:57Z</time></trkpt><trkpt lat="45.6028909040507" lon="10.821571916580595"><ele>274.0</ele><time>2026-04-26T08:36:01Z</time></trkpt><trkpt lat="45.602937007692596" lon="10.82165135623807"><ele>274.0</ele><time>2026-04-26T08:36:02Z</time></trkpt><trkpt lat="45.60299215154743" lon="10.821731339276011"><ele>274.0</ele><time>2026-04-26T08:36:03Z</time></trkpt><trkpt lat="45.6030337037283" lon="10.8218092241606"><ele>274.0</ele><time>2026-04-26T08:36:04Z</time></trkpt><trkpt lat="45.603110076321265" lon="10.821958075497626"><ele>274.8</ele><time>2026-04-26T08:36:06Z</time></trkpt><trkpt lat="45.603156511804556" lon="10.822125104311645"><ele>275.59999999999997</ele><time>2026-04-26T08:36:08Z</time></trkpt><trkpt lat="45.60316058661432" lon="10.822221503164702"><ele>276.4</ele><time>2026-04-26T08:36:09Z</time></trkpt><trkpt lat="45.60312311101168" lon="10.822321443341055"><ele>277.2</ele><time>2026-04-26T08:36:12Z</time></trkpt><trkpt lat="45.603002031251684" lon="10.822360883295687"><ele>278.0</ele><time>2026-04-26T08:36:14Z</time></trkpt><trkpt lat="45.60292221366175" lon="10.822398116664376"><ele>278.0</ele><time>2026-04-26T08:36:15Z</time></trkpt><trkpt lat="45.602837112822776" lon="10.82245062856886"><ele>278.0</ele><time>2026-04-26T08:36:16Z</time></trkpt><trkpt lat="45.60273963292092" lon="10.822489969899669"><ele>278.0</ele><time>2026-04-26T08:36:17Z</time></trkpt><trkpt lat="45.60263949396353" lon="10.82253884511852"><ele>278.0</ele><time>2026-04-26T08:36:18Z</time></trkpt><trkpt lat="45.60255990844726" lon="10.822594301615414"><ele>278.0</ele><time>2026-04-26T08:36:19Z</time></trkpt><trkpt lat="45.60249094872962" lon="10.822651906897201"><ele>278.6</ele><time>2026-04-26T08:36:20Z</time></trkpt><trkpt lat="45.60242634347846" lon="10.822697486072185"><ele>279.20000000000005</ele><time>2026-04-26T08:36:21Z</time></trkpt><trkpt lat="45.60233227044111" lon="10.822768919347796"><ele>279.8</ele><time>2026-04-26T08:36:22Z</time></trkpt><trkpt lat="45.60224940294894" lon="10.822821790269233"><ele>280.40000000000003</ele><time>2026-04-26T08:36:23Z</time></trkpt><trkpt lat="45.602150813840865" lon="10.822906266902578"><ele>281.0</ele><time>2026-04-26T08:36:24Z</time></trkpt><trkpt lat="45.6020811014711" lon="10.822943088498327"><ele>281.0</ele><time>2026-04-26T08:36:25Z</time></trkpt><trkpt lat="45.60201511244801" lon="10.822992662999415"><ele>281.0</ele><time>2026-04-26T08:36:26Z</time></trkpt><trkpt lat="45.60194694697963" lon="10.823065956739152"><ele>281.0</ele><time>2026-04-26T08:36:27Z</time></trkpt><trkpt lat="45.60186759425505" lon="10.823114319209465"><ele>281.0</ele><time>2026-04-26T08:36:28Z</time></trkpt><trkpt lat="45.60178766711712" lon="10.82315768548425"><ele>281.0</ele><time>2026-04-26T08:36:29Z</time></trkpt><trkpt lat="45.60171264398696" lon="10.82324235170101"><ele>281.0</ele><time>2026-04-26T08:36:31Z</time></trkpt><trkpt lat="45.60162081669876" lon="10.823347583556245"><ele>280.83333333333337</ele><time>2026-04-26T08:36:33Z</time></trkpt><trkpt lat="45.60156585028031" lon="10.823429699222427"><ele>280.6666666666667</ele><time>2026-04-26T08:36:34Z</time></trkpt><trkpt lat="45.60149833478949" lon="10.8235544628483"><ele>280.5</ele><time>2026-04-26T08:36:36Z</time></trkpt><trkpt lat="45.60143934976772" lon="10.823594247236684"><ele>280.3333333333333</ele><time>2026-04-26T08:36:38Z</time></trkpt><trkpt lat="45.60137491010513" lon="10.823620023248175"><ele>280.16666666666663</ele><time>2026-04-26T08:36:39Z</time></trkpt><trkpt lat="45.601323088596374" lon="10.82367464999535"><ele>280.0</ele><time>2026-04-26T08:36:40Z</time></trkpt><trkpt lat="45.60122262756246" lon="10.823755664405924"><ele>282.2</ele><time>2026-04-26T08:36:42Z</time></trkpt><trkpt lat="45.60112549104351" lon="10.82381054093865"><ele>284.4</ele><time>2026-04-26T08:36:44Z</time></trkpt><trkpt lat="45.6010465643466" lon="10.823856370620327"><ele>286.6</ele><time>2026-04-26T08:36:46Z</time></trkpt><trkpt lat="45.60096336534079" lon="10.82390624464917"><ele>288.8</ele><time>2026-04-26T08:36:48Z</time></trkpt><trkpt lat="45.6008298253588" lon="10.82398073568904"><ele>291.0</ele><time>2026-04-26T08:36:50Z</time></trkpt><trkpt lat="45.600712717234806" lon="10.824019012941461"><ele>291.0</ele><time>2026-04-26T08:36:52Z</time></trkpt><trkpt lat="45.600649951718204" lon="10.824048137015458"><ele>291.0</ele><time>2026-04-26T08:36:54Z</time></trkpt><trkpt lat="45.60055415202996" lon="10.823971233974332"><ele>291.0</ele><time>2026-04-26T08:36:56Z</time></trkpt><trkpt lat="45.60047298733391" lon="10.823909174224802"><ele>291.0</ele><time>2026-04-26T08:36:57Z</time></trkpt><trkpt lat="45.6003929926151" lon="10.823854939509758"><ele>291.0</ele><time>2026-04-26T08:36:58Z</time></trkpt><trkpt lat="45.60027846865127" lon="10.823775198501995"><ele>291.40000000000003</ele><time>2026-04-26T08:36:59Z</time></trkpt><trkpt lat="45.60016569684251" lon="10.823721653352921"><ele>291.8</ele><time>2026-04-26T08:37:00Z</time></trkpt><trkpt lat="45.60007383285012" lon="10.823646901280865"><ele>292.20000000000005</ele><time>2026-04-26T08:37:01Z</time></trkpt><trkpt lat="45.59998817825785" lon="10.823600675510827"><ele>292.6</ele><time>2026-04-26T08:37:02Z</time></trkpt><trkpt lat="45.59991155219894" lon="10.823570712895936"><ele>293.0</ele><time>2026-04-26T08:37:03Z</time></trkpt><trkpt lat="45.59983769008594" lon="10.823530409520288"><ele>291.6</ele><time>2026-04-26T08:37:04Z</time></trkpt><trkpt lat="45.59973509456682" lon="10.823455742031946"><ele>290.20000000000005</ele><time>2026-04-26T08:37:05Z</time></trkpt><trkpt lat="45.59965239554282" lon="10.823343386118799"><ele>288.8</ele><time>2026-04-26T08:37:06Z</time></trkpt><trkpt lat="45.59955839476668" lon="10.82327247194216"><ele>287.40000000000003</ele><time>2026-04-26T08:37:07Z</time></trkpt><trkpt lat="45.599486358932594" lon="10.823255842971"><ele>286.0</ele><time>2026-04-26T08:37:08Z</time></trkpt><trkpt lat="45.59934383643423" lon="10.823242793750715"><ele>286.0</ele><time>2026-04-26T08:37:10Z</time></trkpt><trkpt lat="45.599264346064125" lon="10.823225973323257"><ele>286.0</ele><time>2026-04-26T08:37:11Z</time></trkpt><trkpt lat="45.5991664211153" lon="10.82320891692295"><ele>286.0</ele><time>2026-04-26T08:37:12Z</time></trkpt><trkpt lat="45.59909590746584" lon="10.823188337170258"><ele>286.0</ele><time>2026-04-26T08:37:13Z</time></trkpt><trkpt lat="45.599014133241084" lon="10.823170534791348"><ele>286.0</ele><time>2026-04-26T08:37:14Z</time></trkpt><trkpt lat="45.59887073806545" lon="10.823124683128079"><ele>286.0</ele><time>2026-04-26T08:37:16Z</time></trkpt><trkpt lat="45.59877640861984" lon="10.823088856796812"><ele>286.0</ele><time>2026-04-26T08:37:17Z</time></trkpt><trkpt lat="45.59868483464694" lon="10.823059525826453"><ele>286.0</ele><time>2026-04-26T08:37:18Z</time></trkpt><trkpt lat="45.598592648812215" lon="10.823025918945596"><ele>286.0</ele><time>2026-04-26T08:37:19Z</time></trkpt><trkpt lat="45.5984894910793" lon="10.822986843118999"><ele>286.0</ele><time>2026-04-26T08:37:20Z</time></trkpt><trkpt lat="45.59840785128363" lon="10.822948238006731"><ele>286.6</ele><time>2026-04-26T08:37:21Z</time></trkpt><trkpt lat="45.59832228244426" lon="10.822927743988815"><ele>287.20000000000005</ele><time>2026-04-26T08:37:22Z</time></trkpt><trkpt lat="45.598224047157146" lon="10.822909183974577"><ele>287.79999999999995</ele><time>2026-04-26T08:37:23Z</time></trkpt><trkpt lat="45.59814235896816" lon="10.822885627100474"><ele>288.4</ele><time>2026-04-26T08:37:24Z</time></trkpt><trkpt lat="45.59804598138784" lon="10.822870429918005"><ele>289.0</ele><time>2026-04-26T08:37:25Z</time></trkpt><trkpt lat="45.597950753775265" lon="10.822849099099106"><ele>287.8</ele><time>2026-04-26T08:37:26Z</time></trkpt><trkpt lat="45.59783318570482" lon="10.822838653268942"><ele>286.59999999999997</ele><time>2026-04-26T08:37:27Z</time></trkpt><trkpt lat="45.59770896075056" lon="10.822798820717958"><ele>285.4</ele><time>2026-04-26T08:37:28Z</time></trkpt><trkpt lat="45.59760795151847" lon="10.822755818265726"><ele>284.2</ele><time>2026-04-26T08:37:29Z</time></trkpt><trkpt lat="45.59751782623087" lon="10.822708657580124"><ele>283.0</ele><time>2026-04-26T08:37:30Z</time></trkpt><trkpt lat="45.59740932365604" lon="10.822635715277844"><ele>281.0</ele><time>2026-04-26T08:37:31Z</time></trkpt><trkpt lat="45.59729600675565" lon="10.822590018055317"><ele>279.0</ele><time>2026-04-26T08:37:32Z</time></trkpt><trkpt lat="45.59719007220609" lon="10.822552432751076"><ele>277.0</ele><time>2026-04-26T08:37:33Z</time></trkpt><trkpt lat="45.597125508675504" lon="10.822502012556283"><ele>275.0</ele><time>2026-04-26T08:37:34Z</time></trkpt><trkpt lat="45.59704517228394" lon="10.822450522361112"><ele>273.0</ele><time>2026-04-26T08:37:35Z</time></trkpt><trkpt lat="45.59693642709334" lon="10.822332465902445"><ele>273.0</ele><time>2026-04-26T08:37:37Z</time></trkpt><trkpt lat="45.59689382153067" lon="10.82223451444806"><ele>273.0</ele><time>2026-04-26T08:37:38Z</time></trkpt><trkpt lat="45.59684526237968" lon="10.822152066811936"><ele>273.0</ele><time>2026-04-26T08:37:39Z</time></trkpt><trkpt lat="45.596774794124144" lon="10.82204003334878"><ele>273.0</ele><time>2026-04-26T08:37:41Z</time></trkpt><trkpt lat="45.596694562368974" lon="10.822055307335075"><ele>273.0</ele><time>2026-04-26T08:37:44Z</time></trkpt><trkpt lat="45.59663302500204" lon="10.822107377423505"><ele>273.0</ele><time>2026-04-26T08:37:45Z</time></trkpt><trkpt lat="45.59657538619412" lon="10.822156148686359"><ele>273.0</ele><time>2026-04-26T08:37:46Z</time></trkpt><trkpt lat="45.596460263553055" lon="10.822268879058882"><ele>273.0</ele><time>2026-04-26T08:37:48Z</time></trkpt><trkpt lat="45.596361221537094" lon="10.822342396137524"><ele>273.0</ele><time>2026-04-26T08:37:50Z</time></trkpt><trkpt lat="45.59627280897258" lon="10.822403674667664"><ele>273.0</ele><time>2026-04-26T08:37:52Z</time></trkpt><trkpt lat="45.5962110531512" lon="10.822446477471493"><ele>273.0</ele><time>2026-04-26T08:37:53Z</time></trkpt><trkpt lat="45.596086149147496" lon="10.822536318621687"><ele>273.6666666666667</ele><time>2026-04-26T08:37:55Z</time></trkpt><trkpt lat="45.59601196562566" lon="10.822615291105631"><ele>274.3333333333333</ele><time>2026-04-26T08:37:56Z</time></trkpt><trkpt lat="45.595936592587954" lon="10.822651828840034"><ele>275.0</ele><time>2026-04-26T08:37:57Z</time></trkpt><trkpt lat="45.59586635019289" lon="10.822717221031873"><ele>275.66666666666663</ele><time>2026-04-26T08:37:58Z</time></trkpt><trkpt lat="45.59580737357481" lon="10.822751749652559"><ele>276.3333333333333</ele><time>2026-04-26T08:37:59Z</time></trkpt><trkpt lat="45.59574852503056" lon="10.822834442833095"><ele>277.0</ele><time>2026-04-26T08:38:00Z</time></trkpt><trkpt lat="45.59569145774929" lon="10.822901143337534"><ele>277.0</ele><time>2026-04-26T08:38:01Z</time></trkpt><trkpt lat="45.59561808975862" lon="10.822977481002345"><ele>277.0</ele><time>2026-04-26T08:38:02Z</time></trkpt><trkpt lat="45.59555603119294" lon="10.823073859311329"><ele>277.0</ele><time>2026-04-26T08:38:03Z</time></trkpt><trkpt lat="45.595507114595065" lon="10.823131432730383"><ele>277.0</ele><time>2026-04-26T08:38:04Z</time></trkpt><trkpt lat="45.595466023424684" lon="10.823209327152274"><ele>277.0</ele><time>2026-04-26T08:38:05Z</time></trkpt><trkpt lat="45.59538699182373" lon="10.823319965010192"><ele>277.0</ele><time>2026-04-26T08:38:07Z</time></trkpt><trkpt lat="45.59534439630559" lon="10.823393629264611"><ele>276.3333333333333</ele><time>2026-04-26T08:38:08Z</time></trkpt><trkpt lat="45.59527561968818" lon="10.823499386673214"><ele>275.66666666666663</ele><time>2026-04-26T08:38:10Z</time></trkpt><trkpt lat="45.595220403633775" lon="10.823582271882337"><ele>275.0</ele><time>2026-04-26T08:38:12Z</time></trkpt><trkpt lat="45.59515560474527" lon="10.823683277557326"><ele>274.3333333333333</ele><time>2026-04-26T08:38:14Z</time></trkpt><trkpt lat="45.59509229259505" lon="10.823778064370018"><ele>273.6666666666667</ele><time>2026-04-26T08:38:16Z</time></trkpt><trkpt lat="45.59503681879869" lon="10.823854184834083"><ele>273.0</ele><time>2026-04-26T08:38:18Z</time></trkpt><trkpt lat="45.59500082583152" lon="10.823939345600147"><ele>273.0</ele><time>2026-04-26T08:38:20Z</time></trkpt><trkpt lat="45.59494586807688" lon="10.824018755644184"><ele>273.0</ele><time>2026-04-26T08:38:23Z</time></trkpt><trkpt lat="45.594897868851575" lon="10.82408204363894"><ele>273.0</ele><time>2026-04-26T08:38:25Z</time></trkpt><trkpt lat="45.59481600517041" lon="10.824129037440008"><ele>273.0</ele><time>2026-04-26T08:38:27Z</time></trkpt><trkpt lat="45.5947297843653" lon="10.82417921834837"><ele>273.0</ele><time>2026-04-26T08:38:29Z</time></trkpt><trkpt lat="45.59463124012585" lon="10.824192594302529"><ele>273.0</ele><time>2026-04-26T08:38:31Z</time></trkpt><trkpt lat="45.59455910095207" lon="10.824244315324298"><ele>272.0</ele><time>2026-04-26T08:38:33Z</time></trkpt><trkpt lat="45.59447193489382" lon="10.824252856022559"><ele>271.0</ele><time>2026-04-26T08:38:35Z</time></trkpt><trkpt lat="45.594409566004614" lon="10.82426969242336"><ele>270.0</ele><time>2026-04-26T08:38:36Z</time></trkpt><trkpt lat="45.59434225313425" lon="10.824230145803707"><ele>269.0</ele><time>2026-04-26T08:38:37Z</time></trkpt><trkpt lat="45.594222240885976" lon="10.824170046535405"><ele>268.0</ele><time>2026-04-26T08:38:39Z</time></trkpt><trkpt lat="45.59414802058375" lon="10.824134633618305"><ele>267.0</ele><time>2026-04-26T08:38:40Z</time></trkpt><trkpt lat="45.594073351690035" lon="10.824082354592914"><ele>267.0</ele><time>2026-04-26T08:38:41Z</time></trkpt><trkpt lat="45.594017886894484" lon="10.824013205717502"><ele>267.0</ele><time>2026-04-26T08:38:42Z</time></trkpt><trkpt lat="45.59393253827473" lon="10.823933846954311"><ele>267.0</ele><time>2026-04-26T08:38:44Z</time></trkpt><trkpt lat="45.59389179565784" lon="10.823844885771063"><ele>267.0</ele><time>2026-04-26T08:38:45Z</time></trkpt><trkpt lat="45.59384629582416" lon="10.82376786277577"><ele>267.0</ele><time>2026-04-26T08:38:46Z</time></trkpt><trkpt lat="45.593791111029056" lon="10.823710332096041"><ele>267.0</ele><time>2026-04-26T08:38:47Z</time></trkpt><trkpt lat="45.59369958146746" lon="10.82363451963935"><ele>267.5</ele><time>2026-04-26T08:38:48Z</time></trkpt><trkpt lat="45.59361739503891" lon="10.823561066869962"><ele>268.0</ele><time>2026-04-26T08:38:49Z</time></trkpt><trkpt lat="45.593514650680184" lon="10.823512412941135"><ele>268.5</ele><time>2026-04-26T08:38:50Z</time></trkpt><trkpt lat="45.59344608318506" lon="10.823462965641474"><ele>269.0</ele><time>2026-04-26T08:38:51Z</time></trkpt><trkpt lat="45.59338306150457" lon="10.82340779824553"><ele>269.5</ele><time>2026-04-26T08:38:52Z</time></trkpt><trkpt lat="45.59330554990719" lon="10.823364364665743"><ele>270.0</ele><time>2026-04-26T08:38:53Z</time></trkpt><trkpt lat="45.59322806963184" lon="10.823323119713875"><ele>267.0</ele><time>2026-04-26T08:38:54Z</time></trkpt><trkpt lat="45.593121657740134" lon="10.823253094296303"><ele>264.0</ele><time>2026-04-26T08:38:56Z</time></trkpt><trkpt lat="45.59301830306193" lon="10.8231765209019"><ele>261.0</ele><time>2026-04-26T08:38:58Z</time></trkpt><trkpt lat="45.592955256087905" lon="10.823154855907605"><ele>258.0</ele><time>2026-04-26T08:38:59Z</time></trkpt><trkpt lat="45.59287947634366" lon="10.823166946852142"><ele>255.0</ele><time>2026-04-26T08:39:01Z</time></trkpt><trkpt lat="45.592802531931476" lon="10.823158798301673"><ele>255.0</ele><time>2026-04-26T08:39:05Z</time></trkpt><trkpt lat="45.592729776392694" lon="10.82314991547963"><ele>255.0</ele><time>2026-04-26T08:39:10Z</time></trkpt><trkpt lat="45.592669906649036" lon="10.823117313856374"><ele>255.0</ele><time>2026-04-26T08:39:15Z</time></trkpt><trkpt lat="45.59261570266369" lon="10.823067385810534"><ele>255.0</ele><time>2026-04-26T08:39:19Z</time></trkpt><trkpt lat="45.59254655915796" lon="10.823006533835322"><ele>255.0</ele><time>2026-04-26T08:39:21Z</time></trkpt><trkpt lat="45.59244970496958" lon="10.822935081640082"><ele>255.0</ele><time>2026-04-26T08:39:23Z</time></trkpt><trkpt lat="45.59243544842525" lon="10.822791759482028"><ele>255.0</ele><time>2026-04-26T08:39:25Z</time></trkpt><trkpt lat="45.59246033039149" lon="10.82269659652448"><ele>255.0</ele><time>2026-04-26T08:39:26Z</time></trkpt><trkpt lat="45.59247899212873" lon="10.822569331666482"><ele>255.0</ele><time>2026-04-26T08:39:27Z</time></trkpt><trkpt lat="45.592483775425514" lon="10.822445300343045"><ele>255.0</ele><time>2026-04-26T08:39:28Z</time></trkpt><trkpt lat="45.592509517989335" lon="10.822330345261113"><ele>255.0</ele><time>2026-04-26T08:39:29Z</time></trkpt><trkpt lat="45.59249963458479" lon="10.822193305972585"><ele>255.0</ele><time>2026-04-26T08:39:31Z</time></trkpt><trkpt lat="45.59237334410593" lon="10.822162599234167"><ele>252.4</ele><time>2026-04-26T08:39:33Z</time></trkpt><trkpt lat="45.59228797732307" lon="10.822161798110018"><ele>249.8</ele><time>2026-04-26T08:39:34Z</time></trkpt><trkpt lat="45.59219318937978" lon="10.822125177265887"><ele>247.2</ele><time>2026-04-26T08:39:35Z</time></trkpt><trkpt lat="45.592073881549915" lon="10.822107273932286"><ele>244.6</ele><time>2026-04-26T08:39:36Z</time></trkpt><trkpt lat="45.591960878632875" lon="10.822095308482517"><ele>242.0</ele><time>2026-04-26T08:39:37Z</time></trkpt><trkpt lat="45.59187217994276" lon="10.822085916517123"><ele>241.66666666666669</ele><time>2026-04-26T08:39:38Z</time></trkpt><trkpt lat="45.59178830031132" lon="10.822077034760875"><ele>241.33333333333334</ele><time>2026-04-26T08:39:39Z</time></trkpt><trkpt lat="45.59169821985833" lon="10.822081418333969"><ele>241.0</ele><time>2026-04-26T08:39:40Z</time></trkpt><trkpt lat="45.591624536894116" lon="10.82209520496372"><ele>240.66666666666669</ele><time>2026-04-26T08:39:41Z</time></trkpt><trkpt lat="45.591535250630336" lon="10.822113330622669"><ele>240.33333333333334</ele><time>2026-04-26T08:39:42Z</time></trkpt><trkpt lat="45.59145806599519" lon="10.822150546405053"><ele>240.0</ele><time>2026-04-26T08:39:43Z</time></trkpt><trkpt lat="45.591380965765296" lon="10.822126251216977"><ele>240.0</ele><time>2026-04-26T08:39:44Z</time></trkpt><trkpt lat="45.591300126645976" lon="10.822127675922106"><ele>240.0</ele><time>2026-04-26T08:39:45Z</time></trkpt><trkpt lat="45.591227293887854" lon="10.82207157190183"><ele>240.0</ele><time>2026-04-26T08:39:46Z</time></trkpt><trkpt lat="45.59112797411973" lon="10.822013827560317"><ele>240.0</ele><time>2026-04-26T08:39:47Z</time></trkpt><trkpt lat="45.59101584526968" lon="10.82196299387151"><ele>240.0</ele><time>2026-04-26T08:39:48Z</time></trkpt><trkpt lat="45.59090469927559" lon="10.821921189016859"><ele>239.8</ele><time>2026-04-26T08:39:49Z</time></trkpt><trkpt lat="45.590796181222935" lon="10.82187506407068"><ele>239.6</ele><time>2026-04-26T08:39:50Z</time></trkpt><trkpt lat="45.59069052562891" lon="10.821825207634639"><ele>239.39999999999998</ele><time>2026-04-26T08:39:51Z</time></trkpt><trkpt lat="45.59059173032029" lon="10.821794246967292"><ele>239.2</ele><time>2026-04-26T08:39:52Z</time></trkpt><trkpt lat="45.590499238190375" lon="10.821763348807435"><ele>239.0</ele><time>2026-04-26T08:39:53Z</time></trkpt><trkpt lat="45.59042429864793" lon="10.821733933566636"><ele>236.66666666666669</ele><time>2026-04-26T08:39:54Z</time></trkpt><trkpt lat="45.5903463672049" lon="10.821704571971866"><ele>234.33333333333334</ele><time>2026-04-26T08:39:55Z</time></trkpt><trkpt lat="45.59024471478074" lon="10.821674460279329"><ele>232.0</ele><time>2026-04-26T08:39:57Z</time></trkpt><trkpt lat="45.59017546002713" lon="10.821643791781046"><ele>229.66666666666669</ele><time>2026-04-26T08:39:59Z</time></trkpt><trkpt lat="45.59009869089608" lon="10.821629740778077"><ele>227.33333333333334</ele><time>2026-04-26T08:40:13Z</time></trkpt><trkpt lat="45.59001638586767" lon="10.821576318255845"><ele>225.0</ele><time>2026-04-26T08:40:15Z</time></trkpt><trkpt lat="45.58991099927897" lon="10.821531550454514"><ele>224.83333333333334</ele><time>2026-04-26T08:40:17Z</time></trkpt><trkpt lat="45.58984225468672" lon="10.821517592756924"><ele>224.66666666666669</ele><time>2026-04-26T08:40:18Z</time></trkpt><trkpt lat="45.58977584432723" lon="10.821517592755077"><ele>224.5</ele><time>2026-04-26T08:40:19Z</time></trkpt><trkpt lat="45.5896868877962" lon="10.82153226823104"><ele>224.33333333333334</ele><time>2026-04-26T08:40:20Z</time></trkpt><trkpt lat="45.58960347126616" lon="10.821534878162188"><ele>224.16666666666669</ele><time>2026-04-26T08:40:21Z</time></trkpt><trkpt lat="45.589530949707815" lon="10.821553767928187"><ele>224.0</ele><time>2026-04-26T08:40:22Z</time></trkpt><trkpt lat="45.589462917484454" lon="10.821579382237898"><ele>223.6</ele><time>2026-04-26T08:40:23Z</time></trkpt><trkpt lat="45.58939718106394" lon="10.821632670269532"><ele>223.2</ele><time>2026-04-26T08:40:24Z</time></trkpt><trkpt lat="45.589297130907255" lon="10.821579552672551"><ele>222.79999999999998</ele><time>2026-04-26T08:40:25Z</time></trkpt><trkpt lat="45.58919151156387" lon="10.821644070367142"><ele>222.39999999999998</ele><time>2026-04-26T08:40:26Z</time></trkpt><trkpt lat="45.58911333993952" lon="10.82165972137601"><ele>222.0</ele><time>2026-04-26T08:40:27Z</time></trkpt><trkpt lat="45.589034717403415" lon="10.82167619281114"><ele>222.0</ele><time>2026-04-26T08:40:28Z</time></trkpt><trkpt lat="45.5889622306424" lon="10.821710491241932"><ele>222.0</ele><time>2026-04-26T08:40:29Z</time></trkpt><trkpt lat="45.588819465649365" lon="10.82170723911251"><ele>222.0</ele><time>2026-04-26T08:40:31Z</time></trkpt><trkpt lat="45.58873055073125" lon="10.821720843525808"><ele>222.0</ele><time>2026-04-26T08:40:32Z</time></trkpt><trkpt lat="45.588606388554346" lon="10.82177115917449"><ele>222.0</ele><time>2026-04-26T08:40:34Z</time></trkpt><trkpt lat="45.58854165570045" lon="10.821831248198118"><ele>221.2</ele><time>2026-04-26T08:40:35Z</time></trkpt><trkpt lat="45.5884642507164" lon="10.821729198605894"><ele>220.39999999999998</ele><time>2026-04-26T08:40:36Z</time></trkpt><trkpt lat="45.58838911671371" lon="10.821715654540832"><ele>219.60000000000002</ele><time>2026-04-26T08:40:37Z</time></trkpt><trkpt lat="45.58829466415776" lon="10.821697983992987"><ele>218.8</ele><time>2026-04-26T08:40:38Z</time></trkpt><trkpt lat="45.588204876441395" lon="10.821690841348408"><ele>218.0</ele><time>2026-04-26T08:40:39Z</time></trkpt><trkpt lat="45.588117614064096" lon="10.821670442639235"><ele>218.0</ele><time>2026-04-26T08:40:40Z</time></trkpt><trkpt lat="45.58803607492904" lon="10.821651790467552"><ele>218.0</ele><time>2026-04-26T08:40:41Z</time></trkpt><trkpt lat="45.58796684565854" lon="10.821633638799193"><ele>218.0</ele><time>2026-04-26T08:40:42Z</time></trkpt><trkpt lat="45.5878348251417" lon="10.8216034255475"><ele>218.0</ele><time>2026-04-26T08:40:44Z</time></trkpt><trkpt lat="45.58774088846272" lon="10.821578720407699"><ele>218.0</ele><time>2026-04-26T08:40:45Z</time></trkpt><trkpt lat="45.58764026644231" lon="10.82156754549029"><ele>217.50000000000003</ele><time>2026-04-26T08:40:46Z</time></trkpt><trkpt lat="45.587551335747854" lon="10.821563841562096"><ele>217.0</ele><time>2026-04-26T08:40:47Z</time></trkpt><trkpt lat="45.587476408849" lon="10.8215541810661"><ele>216.5</ele><time>2026-04-26T08:40:48Z</time></trkpt><trkpt lat="45.58739381754963" lon="10.821545794328234"><ele>216.0</ele><time>2026-04-26T08:40:50Z</time></trkpt><trkpt lat="45.587316890026486" lon="10.821517349953785"><ele>215.50000000000003</ele><time>2026-04-26T08:40:52Z</time></trkpt><trkpt lat="45.587331640233245" lon="10.82141665589636"><ele>215.0</ele><time>2026-04-26T08:41:08Z</time></trkpt><trkpt lat="45.58732994859881" lon="10.821308388498348"><ele>215.00000000000003</ele><time>2026-04-26T08:41:10Z</time></trkpt><trkpt lat="45.58730263627672" lon="10.821184670016542"><ele>215.0</ele><time>2026-04-26T08:41:12Z</time></trkpt><trkpt lat="45.587242798275355" lon="10.821149691826696"><ele>215.0</ele><time>2026-04-26T08:41:13Z</time></trkpt><trkpt lat="45.5871441124657" lon="10.821117105734897"><ele>215.0</ele><time>2026-04-26T08:41:15Z</time></trkpt><trkpt lat="45.58705156366199" lon="10.82106281790655"><ele>215.00000000000003</ele><time>2026-04-26T08:41:17Z</time></trkpt><trkpt lat="45.586974643601145" lon="10.821012848778297"><ele>215.0</ele><time>2026-04-26T08:41:19Z</time></trkpt><trkpt lat="45.586864176075416" lon="10.820933272320472"><ele>212.0</ele><time>2026-04-26T08:41:21Z</time></trkpt><trkpt lat="45.58678263494848" lon="10.820860614618562"><ele>209.0</ele><time>2026-04-26T08:41:23Z</time></trkpt><trkpt lat="45.58672721501499" lon="10.820765274710652"><ele>206.0</ele><time>2026-04-26T08:41:25Z</time></trkpt><trkpt lat="45.58677278015325" lon="10.82065783008955"><ele>203.0</ele><time>2026-04-26T08:41:27Z</time></trkpt><trkpt lat="45.586840805188814" lon="10.82058342255846"><ele>200.0</ele><time>2026-04-26T08:41:29Z</time></trkpt><trkpt lat="45.58694844377351" lon="10.820665007334673"><ele>200.0</ele><time>2026-04-26T08:41:30Z</time></trkpt><trkpt lat="45.58702030912233" lon="10.820649445974178"><ele>200.0</ele><time>2026-04-26T08:41:31Z</time></trkpt><trkpt lat="45.58706970857261" lon="10.820591143891056"><ele>200.0</ele><time>2026-04-26T08:41:32Z</time></trkpt><trkpt lat="45.58715655543182" lon="10.820464324104005"><ele>200.0</ele><time>2026-04-26T08:41:34Z</time></trkpt><trkpt lat="45.58708743318687" lon="10.820304310130341"><ele>200.0</ele><time>2026-04-26T08:41:36Z</time></trkpt><trkpt lat="45.58699868627469" lon="10.82027881722408"><ele>200.0</ele><time>2026-04-26T08:41:37Z</time></trkpt><trkpt lat="45.58693913444602" lon="10.82021063956171"><ele>200.0</ele><time>2026-04-26T08:41:38Z</time></trkpt><trkpt lat="45.58684542883108" lon="10.820114624713229"><ele>200.0</ele><time>2026-04-26T08:41:40Z</time></trkpt><trkpt lat="45.58683048033261" lon="10.820021335133498"><ele>200.0</ele><time>2026-04-26T08:41:42Z</time></trkpt><trkpt lat="45.58679334418063" lon="10.819875727327027"><ele>200.0</ele><time>2026-04-26T08:41:44Z</time></trkpt><trkpt lat="45.58678860765697" lon="10.819738214691066"><ele>199.0</ele><time>2026-04-26T08:41:45Z</time></trkpt><trkpt lat="45.586782186478764" lon="10.81957544911631"><ele>198.0</ele><time>2026-04-26T08:41:46Z</time></trkpt><trkpt lat="45.58676632244802" lon="10.819391691020906"><ele>197.0</ele><time>2026-04-26T08:41:47Z</time></trkpt><trkpt lat="45.58675833394957" lon="10.819217665298009"><ele>196.0</ele><time>2026-04-26T08:41:48Z</time></trkpt><trkpt lat="45.586753533564824" lon="10.819078057277789"><ele>195.60000000000002</ele><time>2026-04-26T08:41:49Z</time></trkpt><trkpt lat="45.586746860153276" lon="10.81893702553665"><ele>195.2</ele><time>2026-04-26T08:41:50Z</time></trkpt><trkpt lat="45.58675323253437" lon="10.818751188200919"><ele>194.8</ele><time>2026-04-26T08:41:51Z</time></trkpt><trkpt lat="45.586739850412194" lon="10.818581065116977"><ele>194.39999999999998</ele><time>2026-04-26T08:41:52Z</time></trkpt><trkpt lat="45.58673693560149" lon="10.818443618616406"><ele>194.0</ele><time>2026-04-26T08:41:53Z</time></trkpt><trkpt lat="45.58672043048999" lon="10.818317831137527"><ele>194.00000000000003</ele><time>2026-04-26T08:41:54Z</time></trkpt><trkpt lat="45.5867177337514" lon="10.81820265140702"><ele>194.0</ele><time>2026-04-26T08:41:55Z</time></trkpt><trkpt lat="45.58669530724585" lon="10.818087315026597"><ele>194.0</ele><time>2026-04-26T08:41:56Z</time></trkpt><trkpt lat="45.58667506941095" lon="10.817958270038345"><ele>194.0</ele><time>2026-04-26T08:41:57Z</time></trkpt><trkpt lat="45.58665061936185" lon="10.817812152835542"><ele>194.00000000000003</ele><time>2026-04-26T08:41:58Z</time></trkpt><trkpt lat="45.58664195472098" lon="10.81770890783127"><ele>194.0</ele><time>2026-04-26T08:41:59Z</time></trkpt><trkpt lat="45.58664245048871" lon="10.817607293475072"><ele>193.79999999999998</ele><time>2026-04-26T08:42:00Z</time></trkpt><trkpt lat="45.58665307356327" lon="10.817490968080206"><ele>193.6</ele><time>2026-04-26T08:42:01Z</time></trkpt><trkpt lat="45.58666634071201" lon="10.817320802379593"><ele>193.4</ele><time>2026-04-26T08:42:02Z</time></trkpt><trkpt lat="45.586671644675015" lon="10.817170883423914"><ele>193.2</ele><time>2026-04-26T08:42:03Z</time></trkpt><trkpt lat="45.58666975779329" lon="10.81704378026838"><ele>193.0</ele><time>2026-04-26T08:42:04Z</time></trkpt><trkpt lat="45.5866616199834" lon="10.816953226453617"><ele>193.0</ele><time>2026-04-26T08:42:05Z</time></trkpt><trkpt lat="45.586631065415276" lon="10.81684752583191"><ele>193.0</ele><time>2026-04-26T08:42:06Z</time></trkpt><trkpt lat="45.586574321010346" lon="10.816753434939988"><ele>193.0</ele><time>2026-04-26T08:42:07Z</time></trkpt><trkpt lat="45.586481871545075" lon="10.816648054817012"><ele>193.0</ele><time>2026-04-26T08:42:08Z</time></trkpt><trkpt lat="45.58640445056223" lon="10.81653020824986"><ele>193.0</ele><time>2026-04-26T08:42:09Z</time></trkpt><trkpt lat="45.586329013848655" lon="10.816408602284728"><ele>192.25</ele><time>2026-04-26T08:42:10Z</time></trkpt><trkpt lat="45.58625032243404" lon="10.816277213279523"><ele>191.5</ele><time>2026-04-26T08:42:11Z</time></trkpt><trkpt lat="45.58616430695854" lon="10.816129663355678"><ele>190.75</ele><time>2026-04-26T08:42:12Z</time></trkpt><trkpt lat="45.586064706063944" lon="10.815936839879102"><ele>190.0</ele><time>2026-04-26T08:42:13Z</time></trkpt><trkpt lat="45.585922954610844" lon="10.815704766654326"><ele>188.66666666666669</ele><time>2026-04-26T08:42:14Z</time></trkpt><trkpt lat="45.58578807038647" lon="10.815483936335042"><ele>187.33333333333334</ele><time>2026-04-26T08:42:15Z</time></trkpt><trkpt lat="45.58567484297359" lon="10.815304547619855"><ele>186.0</ele><time>2026-04-26T08:42:16Z</time></trkpt><trkpt lat="45.58556538498692" lon="10.815160592987908"><ele>186.25</ele><time>2026-04-26T08:42:17Z</time></trkpt><trkpt lat="45.585456854786216" lon="10.814990085922563"><ele>186.5</ele><time>2026-04-26T08:42:18Z</time></trkpt><trkpt lat="45.58537676022495" lon="10.814834856739711"><ele>186.75</ele><time>2026-04-26T08:42:19Z</time></trkpt><trkpt lat="45.58530108334283" lon="10.814712337349642"><ele>187.0</ele><time>2026-04-26T08:42:20Z</time></trkpt><trkpt lat="45.58522983828582" lon="10.814595532302029"><ele>186.6</ele><time>2026-04-26T08:42:21Z</time></trkpt><trkpt lat="45.58516561524909" lon="10.81448666362021"><ele>186.2</ele><time>2026-04-26T08:42:22Z</time></trkpt><trkpt lat="45.5850917803442" lon="10.814349231867634"><ele>185.8</ele><time>2026-04-26T08:42:23Z</time></trkpt><trkpt lat="45.585021528102914" lon="10.814215906120367"><ele>185.4</ele><time>2026-04-26T08:42:24Z</time></trkpt><trkpt lat="45.584965934877665" lon="10.814119710703704"><ele>185.0</ele><time>2026-04-26T08:42:25Z</time></trkpt><trkpt lat="45.584909403229425" lon="10.814050916628469"><ele>185.0</ele><time>2026-04-26T08:42:26Z</time></trkpt><trkpt lat="45.58484626231326" lon="10.813950710364427"><ele>185.0</ele><time>2026-04-26T08:42:28Z</time></trkpt><trkpt lat="45.584783574188265" lon="10.813930935966134"><ele>185.0</ele><time>2026-04-26T08:42:40Z</time></trkpt><trkpt lat="45.58482740735645" lon="10.81437856142805"><ele>184.2</ele><time>2026-04-26T08:42:52Z</time></trkpt><trkpt lat="45.584861121777365" lon="10.814490133024554"><ele>183.4</ele><time>2026-04-26T08:42:53Z</time></trkpt><trkpt lat="45.58489994974818" lon="10.814626941754394"><ele>182.60000000000002</ele><time>2026-04-26T08:42:54Z</time></trkpt><trkpt lat="45.5849346840396" lon="10.814784426516395"><ele>181.8</ele><time>2026-04-26T08:42:55Z</time></trkpt><trkpt lat="45.58494617059497" lon="10.814943323986311"><ele>181.0</ele><time>2026-04-26T08:42:56Z</time></trkpt><trkpt lat="45.58493388485373" lon="10.81511599818187"><ele>181.0</ele><time>2026-04-26T08:42:57Z</time></trkpt><trkpt lat="45.584904620713374" lon="10.815300292489885"><ele>181.0</ele><time>2026-04-26T08:42:58Z</time></trkpt><trkpt lat="45.584871888513284" lon="10.815474840817181"><ele>181.0</ele><time>2026-04-26T08:42:59Z</time></trkpt><trkpt lat="45.58484030704078" lon="10.815631271547892"><ele>181.0</ele><time>2026-04-26T08:43:00Z</time></trkpt><trkpt lat="45.58480883534557" lon="10.815775966850214"><ele>181.0</ele><time>2026-04-26T08:43:01Z</time></trkpt><trkpt lat="45.58476565721401" lon="10.815913853529459"><ele>181.0</ele><time>2026-04-26T08:43:02Z</time></trkpt><trkpt lat="45.584703535116" lon="10.816047509960624"><ele>181.0</ele><time>2026-04-26T08:43:03Z</time></trkpt><trkpt lat="45.58462678337593" lon="10.816176215504052"><ele>181.0</ele><time>2026-04-26T08:43:04Z</time></trkpt><trkpt lat="45.58454157369186" lon="10.816315070470957"><ele>179.4</ele><time>2026-04-26T08:43:05Z</time></trkpt><trkpt lat="45.5844653232693" lon="10.816440671106172"><ele>177.8</ele><time>2026-04-26T08:43:06Z</time></trkpt><trkpt lat="45.584399244211696" lon="10.816560455591631"><ele>176.20000000000002</ele><time>2026-04-26T08:43:07Z</time></trkpt><trkpt lat="45.584336208440725" lon="10.816670229164364"><ele>174.60000000000002</ele><time>2026-04-26T08:43:08Z</time></trkpt><trkpt lat="45.58427198006854" lon="10.81677782007334"><ele>173.0</ele><time>2026-04-26T08:43:09Z</time></trkpt><trkpt lat="45.58421542846887" lon="10.816883028637948"><ele>173.0</ele><time>2026-04-26T08:43:10Z</time></trkpt><trkpt lat="45.58416710719895" lon="10.817021055374655"><ele>173.0</ele><time>2026-04-26T08:43:11Z</time></trkpt><trkpt lat="45.584133919461244" lon="10.817169823272543"><ele>173.0</ele><time>2026-04-26T08:43:12Z</time></trkpt><trkpt lat="45.584118337763655" lon="10.817349319741298"><ele>173.0</ele><time>2026-04-26T08:43:13Z</time></trkpt><trkpt lat="45.584124623731334" lon="10.817526580942031"><ele>171.75</ele><time>2026-04-26T08:43:14Z</time></trkpt><trkpt lat="45.584136043810354" lon="10.817694075668568"><ele>170.5</ele><time>2026-04-26T08:43:15Z</time></trkpt><trkpt lat="45.58414570393155" lon="10.8178534112929"><ele>169.25</ele><time>2026-04-26T08:43:16Z</time></trkpt><trkpt lat="45.584141988144495" lon="10.818011466163107"><ele>168.0</ele><time>2026-04-26T08:43:17Z</time></trkpt><trkpt lat="45.58412773172571" lon="10.81816884578092"><ele>168.0</ele><time>2026-04-26T08:43:18Z</time></trkpt><trkpt lat="45.58410979571808" lon="10.818327087905097"><ele>168.0</ele><time>2026-04-26T08:43:19Z</time></trkpt><trkpt lat="45.58409252323174" lon="10.818505870610897"><ele>168.0</ele><time>2026-04-26T08:43:20Z</time></trkpt><trkpt lat="45.584078143088504" lon="10.818691651748695"><ele>168.0</ele><time>2026-04-26T08:43:21Z</time></trkpt><trkpt lat="45.584064125727274" lon="10.81886434262658"><ele>167.25</ele><time>2026-04-26T08:43:22Z</time></trkpt><trkpt lat="45.58406440494276" lon="10.819027343669523"><ele>166.5</ele><time>2026-04-26T08:43:23Z</time></trkpt><trkpt lat="45.58408521940198" lon="10.819194331286255"><ele>165.75</ele><time>2026-04-26T08:43:24Z</time></trkpt><trkpt lat="45.58411999867754" lon="10.819368756645543"><ele>165.0</ele><time>2026-04-26T08:43:25Z</time></trkpt><trkpt lat="45.5841633581411" lon="10.819556607132256"><ele>164.2</ele><time>2026-04-26T08:43:26Z</time></trkpt><trkpt lat="45.584203909288746" lon="10.819726668635639"><ele>163.4</ele><time>2026-04-26T08:43:27Z</time></trkpt><trkpt lat="45.58423459903583" lon="10.81986686325496"><ele>162.60000000000002</ele><time>2026-04-26T08:43:28Z</time></trkpt><trkpt lat="45.5842595264234" lon="10.819999289781745"><ele>161.8</ele><time>2026-04-26T08:43:29Z</time></trkpt><trkpt lat="45.58427244701734" lon="10.820132124352162"><ele>161.0</ele><time>2026-04-26T08:43:30Z</time></trkpt><trkpt lat="45.58421558065437" lon="10.820297243182031"><ele>161.0</ele><time>2026-04-26T08:43:32Z</time></trkpt><trkpt lat="45.58414424463733" lon="10.820329033759107"><ele>161.0</ele><time>2026-04-26T08:43:33Z</time></trkpt><trkpt lat="45.584069009093064" lon="10.82030102372196"><ele>161.0</ele><time>2026-04-26T08:43:34Z</time></trkpt><trkpt lat="45.58400042820683" lon="10.820224140467037"><ele>161.0</ele><time>2026-04-26T08:43:35Z</time></trkpt><trkpt lat="45.58395660769381" lon="10.820081413591147"><ele>161.0</ele><time>2026-04-26T08:43:36Z</time></trkpt><trkpt lat="45.583884319056196" lon="10.819963764788875"><ele>161.0</ele><time>2026-04-26T08:43:37Z</time></trkpt><trkpt lat="45.58382288513339" lon="10.819815232581126"><ele>161.0</ele><time>2026-04-26T08:43:38Z</time></trkpt><trkpt lat="45.58376008567467" lon="10.819657353593842"><ele>161.0</ele><time>2026-04-26T08:43:39Z</time></trkpt><trkpt lat="45.58371395749458" lon="10.819496941363507"><ele>161.0</ele><time>2026-04-26T08:43:40Z</time></trkpt><trkpt lat="45.5836864031582" lon="10.819340499748177"><ele>158.0</ele><time>2026-04-26T08:43:41Z</time></trkpt><trkpt lat="45.5836701825207" lon="10.819193783857212"><ele>155.0</ele><time>2026-04-26T08:43:42Z</time></trkpt><trkpt lat="45.583661611018414" lon="10.819045840446398"><ele>152.0</ele><time>2026-04-26T08:43:43Z</time></trkpt><trkpt lat="45.58364835786323" lon="10.818911958989073"><ele>149.0</ele><time>2026-04-26T08:43:44Z</time></trkpt><trkpt lat="45.58362540191457" lon="10.818772925536956"><ele>146.0</ele><time>2026-04-26T08:43:45Z</time></trkpt><trkpt lat="45.58359900564975" lon="10.818632180045453"><ele>146.0</ele><time>2026-04-26T08:43:46Z</time></trkpt><trkpt lat="45.583555539874645" lon="10.81852513425943"><ele>146.0</ele><time>2026-04-26T08:43:47Z</time></trkpt><trkpt lat="45.58348005172743" lon="10.818450003245395"><ele>146.0</ele><time>2026-04-26T08:43:48Z</time></trkpt><trkpt lat="45.5833826763673" lon="10.818421798468211"><ele>146.0</ele><time>2026-04-26T08:43:49Z</time></trkpt><trkpt lat="45.58329043714208" lon="10.818468777829523"><ele>146.0</ele><time>2026-04-26T08:43:50Z</time></trkpt><trkpt lat="45.58322832955077" lon="10.818564346477515"><ele>146.0</ele><time>2026-04-26T08:43:51Z</time></trkpt><trkpt lat="45.58319835051843" lon="10.818694668784826"><ele>146.0</ele><time>2026-04-26T08:43:52Z</time></trkpt><trkpt lat="45.5832011125247" lon="10.818826016930249"><ele>146.0</ele><time>2026-04-26T08:43:53Z</time></trkpt><trkpt lat="45.583229169377624" lon="10.818972222737699"><ele>146.0</ele><time>2026-04-26T08:43:54Z</time></trkpt><trkpt lat="45.58325800566895" lon="10.819127525925067"><ele>146.0</ele><time>2026-04-26T08:43:55Z</time></trkpt><trkpt lat="45.58327799584188" lon="10.819302706198963"><ele>144.6</ele><time>2026-04-26T08:43:56Z</time></trkpt><trkpt lat="45.583279194002564" lon="10.819452687243048"><ele>143.2</ele><time>2026-04-26T08:43:57Z</time></trkpt><trkpt lat="45.58326188160107" lon="10.819600969721378"><ele>141.8</ele><time>2026-04-26T08:43:58Z</time></trkpt><trkpt lat="45.58322140786145" lon="10.81974059329819"><ele>140.4</ele><time>2026-04-26T08:43:59Z</time></trkpt><trkpt lat="45.58316853962349" lon="10.81986163194892"><ele>139.0</ele><time>2026-04-26T08:44:00Z</time></trkpt><trkpt lat="45.58310548360168" lon="10.819958997441322"><ele>139.0</ele><time>2026-04-26T08:44:01Z</time></trkpt><trkpt lat="45.58303619731394" lon="10.820052250163133"><ele>139.0</ele><time>2026-04-26T08:44:02Z</time></trkpt><trkpt lat="45.58296932953781" lon="10.820135354568274"><ele>139.0</ele><time>2026-04-26T08:44:03Z</time></trkpt><trkpt lat="45.58290199957997" lon="10.82024154786751"><ele>139.0</ele><time>2026-04-26T08:44:04Z</time></trkpt><trkpt lat="45.58286137907909" lon="10.820375882961233"><ele>139.0</ele><time>2026-04-26T08:44:05Z</time></trkpt><trkpt lat="45.58284162003412" lon="10.820542372264356"><ele>137.25</ele><time>2026-04-26T08:44:06Z</time></trkpt><trkpt lat="45.582828896162134" lon="10.820711840541573"><ele>135.5</ele><time>2026-04-26T08:44:07Z</time></trkpt><trkpt lat="45.58282236870535" lon="10.820866289376173"><ele>133.75</ele><time>2026-04-26T08:44:08Z</time></trkpt><trkpt lat="45.582825356098894" lon="10.821019762131808"><ele>132.0</ele><time>2026-04-26T08:44:09Z</time></trkpt><trkpt lat="45.58284609812341" lon="10.821203369008826"><ele>131.25</ele><time>2026-04-26T08:44:10Z</time></trkpt><trkpt lat="45.582876902927296" lon="10.821388581775796"><ele>130.5</ele><time>2026-04-26T08:44:11Z</time></trkpt><trkpt lat="45.58290750558116" lon="10.82157737799081"><ele>129.75</ele><time>2026-04-26T08:44:12Z</time></trkpt><trkpt lat="45.58293855287986" lon="10.821764128991397"><ele>129.0</ele><time>2026-04-26T08:44:13Z</time></trkpt><trkpt lat="45.582969327718466" lon="10.821940278329327"><ele>127.5</ele><time>2026-04-26T08:44:14Z</time></trkpt><trkpt lat="45.58300297940718" lon="10.822119032104096"><ele>126.0</ele><time>2026-04-26T08:44:15Z</time></trkpt><trkpt lat="45.583031876380055" lon="10.82229473055718"><ele>124.5</ele><time>2026-04-26T08:44:16Z</time></trkpt><trkpt lat="45.58305490777136" lon="10.822465968191125"><ele>123.0</ele><time>2026-04-26T08:44:17Z</time></trkpt><trkpt lat="45.5830837260037" lon="10.822654385279892"><ele>122.25</ele><time>2026-04-26T08:44:18Z</time></trkpt><trkpt lat="45.58311676985965" lon="10.822840166660974"><ele>121.5</ele><time>2026-04-26T08:44:19Z</time></trkpt><trkpt lat="45.58314519376473" lon="10.823015075588392"><ele>120.75</ele><time>2026-04-26T08:44:20Z</time></trkpt><trkpt lat="45.583174914476686" lon="10.823169001570289"><ele>120.0</ele><time>2026-04-26T08:44:21Z</time></trkpt><trkpt lat="45.58320866683958" lon="10.823305699518984"><ele>120.0</ele><time>2026-04-26T08:44:22Z</time></trkpt><trkpt lat="45.583266158486886" lon="10.8234236266556"><ele>120.0</ele><time>2026-04-26T08:44:23Z</time></trkpt><trkpt lat="45.58335270263318" lon="10.823515364274328"><ele>120.0</ele><time>2026-04-26T08:44:24Z</time></trkpt><trkpt lat="45.58345739722853" lon="10.82357338672269"><ele>120.0</ele><time>2026-04-26T08:44:25Z</time></trkpt><trkpt lat="45.583569045505065" lon="10.823596905702267"><ele>120.0</ele><time>2026-04-26T08:44:26Z</time></trkpt><trkpt lat="45.583695268583405" lon="10.823622293545336"><ele>117.25</ele><time>2026-04-26T08:44:27Z</time></trkpt><trkpt lat="45.583832594329984" lon="10.823650208892854"><ele>114.5</ele><time>2026-04-26T08:44:28Z</time></trkpt><trkpt lat="45.58396704617731" lon="10.823692687463353"><ele>111.75</ele><time>2026-04-26T08:44:29Z</time></trkpt><trkpt lat="45.58409352348901" lon="10.823734085298012"><ele>109.0</ele><time>2026-04-26T08:44:30Z</time></trkpt><trkpt lat="45.58420994496112" lon="10.823771662790941"><ele>109.0</ele><time>2026-04-26T08:44:31Z</time></trkpt><trkpt lat="45.58433089476973" lon="10.823812594245371"><ele>109.0</ele><time>2026-04-26T08:44:32Z</time></trkpt><trkpt lat="45.584435315143594" lon="10.823866134572844"><ele>109.0</ele><time>2026-04-26T08:44:33Z</time></trkpt><trkpt lat="45.584521336533825" lon="10.823949092854862"><ele>109.0</ele><time>2026-04-26T08:44:34Z</time></trkpt><trkpt lat="45.58458717086983" lon="10.824078540397357"><ele>116.25</ele><time>2026-04-26T08:44:35Z</time></trkpt><trkpt lat="45.584635060599524" lon="10.824224261895793"><ele>123.5</ele><time>2026-04-26T08:44:36Z</time></trkpt><trkpt lat="45.584690020507544" lon="10.824394579585858"><ele>130.75</ele><time>2026-04-26T08:44:37Z</time></trkpt><trkpt lat="45.58474452412714" lon="10.824564388296965"><ele>138.0</ele><time>2026-04-26T08:44:38Z</time></trkpt><trkpt lat="45.58480760199399" lon="10.824736633567825"><ele>138.0</ele><time>2026-04-26T08:44:39Z</time></trkpt><trkpt lat="45.58487053495748" lon="10.824899766398188"><ele>138.0</ele><time>2026-04-26T08:44:40Z</time></trkpt><trkpt lat="45.584932691933794" lon="10.825064031741727"><ele>138.0</ele><time>2026-04-26T08:44:41Z</time></trkpt><trkpt lat="45.58499314958329" lon="10.825241648266976"><ele>138.0</ele><time>2026-04-26T08:44:42Z</time></trkpt><trkpt lat="45.58505095024838" lon="10.825407278597718"><ele>131.25</ele><time>2026-04-26T08:44:43Z</time></trkpt><trkpt lat="45.58510706141458" lon="10.82556169037729"><ele>124.5</ele><time>2026-04-26T08:44:44Z</time></trkpt><trkpt lat="45.58516046112124" lon="10.825700046042304"><ele>117.75</ele><time>2026-04-26T08:44:45Z</time></trkpt><trkpt lat="45.58521102451536" lon="10.825857450563788"><ele>111.0</ele><time>2026-04-26T08:44:46Z</time></trkpt><trkpt lat="45.58526406665511" lon="10.826007533770893"><ele>109.19999999999999</ele><time>2026-04-26T08:44:47Z</time></trkpt><trkpt lat="45.58532481549568" lon="10.826161848896788"><ele>107.39999999999999</ele><time>2026-04-26T08:44:48Z</time></trkpt><trkpt lat="45.58537835475079" lon="10.82631267289259"><ele>105.6</ele><time>2026-04-26T08:44:49Z</time></trkpt><trkpt lat="45.58541848088632" lon="10.82643340847053"><ele>103.8</ele><time>2026-04-26T08:44:50Z</time></trkpt><trkpt lat="45.585449440573875" lon="10.826540327756742"><ele>102.0</ele><time>2026-04-26T08:44:51Z</time></trkpt><trkpt lat="45.58546804071429" lon="10.826630677241072"><ele>105.19999999999999</ele><time>2026-04-26T08:44:52Z</time></trkpt><trkpt lat="45.5854903375501" lon="10.826783083093678"><ele>108.4</ele><time>2026-04-26T08:44:54Z</time></trkpt><trkpt lat="45.585576531385975" lon="10.826904888702476"><ele>111.60000000000001</ele><time>2026-04-26T08:44:56Z</time></trkpt><trkpt lat="45.58564244124539" lon="10.826985947340354"><ele>114.80000000000001</ele><time>2026-04-26T08:44:57Z</time></trkpt><trkpt lat="45.585692668176804" lon="10.827085122731065"><ele>118.0</ele><time>2026-04-26T08:44:58Z</time></trkpt><trkpt lat="45.585741615562206" lon="10.827198664602113"><ele>118.0</ele><time>2026-04-26T08:44:59Z</time></trkpt><trkpt lat="45.58578376599734" lon="10.82729498440064"><ele>118.00000000000001</ele><time>2026-04-26T08:45:00Z</time></trkpt><trkpt lat="45.58583962047514" lon="10.827420389231257"><ele>118.00000000000001</ele><time>2026-04-26T08:45:01Z</time></trkpt><trkpt lat="45.58589873666856" lon="10.827562520929165"><ele>118.0</ele><time>2026-04-26T08:45:02Z</time></trkpt><trkpt lat="45.58595393030042" lon="10.82771628434062"><ele>118.0</ele><time>2026-04-26T08:45:03Z</time></trkpt><trkpt lat="45.586005466089794" lon="10.827850562134277"><ele>115.60000000000001</ele><time>2026-04-26T08:45:04Z</time></trkpt><trkpt lat="45.58603980137526" lon="10.827958152862884"><ele>113.20000000000002</ele><time>2026-04-26T08:45:05Z</time></trkpt><trkpt lat="45.5860591006427" lon="10.82804560849517"><ele>110.8</ele><time>2026-04-26T08:45:06Z</time></trkpt><trkpt lat="45.58602506805386" lon="10.828230137768188"><ele>108.4</ele><time>2026-04-26T08:45:08Z</time></trkpt><trkpt lat="45.5859662474257" lon="10.828322227162973"><ele>106.0</ele><time>2026-04-26T08:45:09Z</time></trkpt><trkpt lat="45.585912143735904" lon="10.828449378511584"><ele>105.4</ele><time>2026-04-26T08:45:11Z</time></trkpt><trkpt lat="45.585905747423695" lon="10.828562623969935"><ele>104.8</ele><time>2026-04-26T08:45:13Z</time></trkpt><trkpt lat="45.58591928149261" lon="10.828658370619214"><ele>104.2</ele><time>2026-04-26T08:45:15Z</time></trkpt><trkpt lat="45.58593955440922" lon="10.828773027216473"><ele>103.60000000000001</ele><time>2026-04-26T08:45:21Z</time></trkpt><trkpt lat="45.58595278396434" lon="10.828960837342732"><ele>103.0</ele><time>2026-04-26T08:45:23Z</time></trkpt><trkpt lat="45.585962122183076" lon="10.82908656307903"><ele>103.0</ele><time>2026-04-26T08:45:24Z</time></trkpt><trkpt lat="45.58597416995345" lon="10.829196748507387"><ele>103.0</ele><time>2026-04-26T08:45:25Z</time></trkpt><trkpt lat="45.58599631462832" lon="10.829333799314256"><ele>103.0</ele><time>2026-04-26T08:45:26Z</time></trkpt><trkpt lat="45.58604361680148" lon="10.82948472746764"><ele>103.0</ele><time>2026-04-26T08:45:27Z</time></trkpt><trkpt lat="45.58608787411554" lon="10.829596496814125"><ele>103.0</ele><time>2026-04-26T08:45:28Z</time></trkpt><trkpt lat="45.58613833781112" lon="10.829710889009846"><ele>104.2</ele><time>2026-04-26T08:45:29Z</time></trkpt><trkpt lat="45.586183379611974" lon="10.829808447796218"><ele>105.4</ele><time>2026-04-26T08:45:30Z</time></trkpt><trkpt lat="45.58623836523784" lon="10.829938052595578"><ele>106.60000000000001</ele><time>2026-04-26T08:45:31Z</time></trkpt><trkpt lat="45.58628339694074" lon="10.830081584750895"><ele>107.80000000000001</ele><time>2026-04-26T08:45:32Z</time></trkpt><trkpt lat="45.58632245314094" lon="10.830248507470259"><ele>109.0</ele><time>2026-04-26T08:45:33Z</time></trkpt><trkpt lat="45.586363894379204" lon="10.830428850557094"><ele>109.0</ele><time>2026-04-26T08:45:34Z</time></trkpt><trkpt lat="45.58640339787574" lon="10.830609898440054"><ele>109.0</ele><time>2026-04-26T08:45:35Z</time></trkpt><trkpt lat="45.586443011841354" lon="10.830780727048788"><ele>109.0</ele><time>2026-04-26T08:45:36Z</time></trkpt><trkpt lat="45.58648846944626" lon="10.830952016486474"><ele>109.0</ele><time>2026-04-26T08:45:37Z</time></trkpt><trkpt lat="45.58654107097178" lon="10.831117381810682"><ele>107.5</ele><time>2026-04-26T08:45:38Z</time></trkpt><trkpt lat="45.58659469089399" lon="10.831265465247574"><ele>106.0</ele><time>2026-04-26T08:45:39Z</time></trkpt><trkpt lat="45.586653793189704" lon="10.831417404018426"><ele>104.5</ele><time>2026-04-26T08:45:40Z</time></trkpt><trkpt lat="45.58672032846832" lon="10.831566410722523"><ele>103.0</ele><time>2026-04-26T08:45:41Z</time></trkpt><trkpt lat="45.586791519290834" lon="10.831714058701504"><ele>103.0</ele><time>2026-04-26T08:45:42Z</time></trkpt><trkpt lat="45.58686734482535" lon="10.831862929396996"><ele>103.0</ele><time>2026-04-26T08:45:43Z</time></trkpt><trkpt lat="45.58694590881534" lon="10.831999547714789"><ele>103.0</ele><time>2026-04-26T08:45:44Z</time></trkpt><trkpt lat="45.58702196923798" lon="10.832103471709624"><ele>103.0</ele><time>2026-04-26T08:45:45Z</time></trkpt><trkpt lat="45.587108694352104" lon="10.832195332325968"><ele>104.25</ele><time>2026-04-26T08:45:46Z</time></trkpt><trkpt lat="45.58720181522148" lon="10.83228533347575"><ele>105.5</ele><time>2026-04-26T08:45:47Z</time></trkpt><trkpt lat="45.58729545288642" lon="10.832373658672449"><ele>106.75</ele><time>2026-04-26T08:45:48Z</time></trkpt><trkpt lat="45.587387375406784" lon="10.832478004340121"><ele>108.0</ele><time>2026-04-26T08:45:49Z</time></trkpt><trkpt lat="45.587477247966206" lon="10.832598453064678"><ele>106.5</ele><time>2026-04-26T08:45:50Z</time></trkpt><trkpt lat="45.587566793056645" lon="10.8327260832867"><ele>105.0</ele><time>2026-04-26T08:45:51Z</time></trkpt><trkpt lat="45.587657080708276" lon="10.832863320450453"><ele>103.5</ele><time>2026-04-26T08:45:52Z</time></trkpt><trkpt lat="45.58773987055875" lon="10.83301824835547"><ele>102.0</ele><time>2026-04-26T08:45:53Z</time></trkpt><trkpt lat="45.58781545374857" lon="10.833179295724864"><ele>102.25</ele><time>2026-04-26T08:45:54Z</time></trkpt><trkpt lat="45.587887081670345" lon="10.833349647972216"><ele>102.5</ele><time>2026-04-26T08:45:55Z</time></trkpt><trkpt lat="45.58794798402246" lon="10.833491060015962"><ele>102.75</ele><time>2026-04-26T08:45:56Z</time></trkpt><trkpt lat="45.588010122502496" lon="10.833618326919082"><ele>103.0</ele><time>2026-04-26T08:45:57Z</time></trkpt><trkpt lat="45.588076905150174" lon="10.83374949299298"><ele>103.0</ele><time>2026-04-26T08:45:58Z</time></trkpt><trkpt lat="45.58813954411131" lon="10.833875367148229"><ele>103.0</ele><time>2026-04-26T08:45:59Z</time></trkpt><trkpt lat="45.588206050135796" lon="10.834009558595094"><ele>103.0</ele><time>2026-04-26T08:46:00Z</time></trkpt><trkpt lat="45.58826140956886" lon="10.834131427959203"><ele>103.0</ele><time>2026-04-26T08:46:01Z</time></trkpt><trkpt lat="45.588288004680756" lon="10.834223883266668"><ele>103.0</ele><time>2026-04-26T08:46:02Z</time></trkpt><trkpt lat="45.588306926778046" lon="10.834344020568881"><ele>103.2</ele><time>2026-04-26T08:46:04Z</time></trkpt><trkpt lat="45.58834590979511" lon="10.834440706809216"><ele>103.4</ele><time>2026-04-26T08:46:06Z</time></trkpt><trkpt lat="45.58837293324998" lon="10.834548796605482"><ele>103.60000000000001</ele><time>2026-04-26T08:46:07Z</time></trkpt><trkpt lat="45.588534837804445" lon="10.834567864037536"><ele>103.80000000000001</ele><time>2026-04-26T08:46:08Z</time></trkpt><trkpt lat="45.58861707536385" lon="10.834650870033263"><ele>104.0</ele><time>2026-04-26T08:46:09Z</time></trkpt><trkpt lat="45.58870243379953" lon="10.834704806085082"><ele>103.6</ele><time>2026-04-26T08:46:10Z</time></trkpt><trkpt lat="45.58880606571767" lon="10.834770024566604"><ele>103.2</ele><time>2026-04-26T08:46:11Z</time></trkpt><trkpt lat="45.58890664673995" lon="10.834843088204954"><ele>102.8</ele><time>2026-04-26T08:46:12Z</time></trkpt><trkpt lat="45.588996772060774" lon="10.834909937386138"><ele>102.39999999999999</ele><time>2026-04-26T08:46:13Z</time></trkpt><trkpt lat="45.58910712866659" lon="10.834979678150535"><ele>102.0</ele><time>2026-04-26T08:46:14Z</time></trkpt><trkpt lat="45.5892126576663" lon="10.83504417193214"><ele>102.0</ele><time>2026-04-26T08:46:15Z</time></trkpt><trkpt lat="45.58933438012542" lon="10.83511788661482"><ele>102.0</ele><time>2026-04-26T08:46:16Z</time></trkpt><trkpt lat="45.58945765833515" lon="10.835189785382587"><ele>102.0</ele><time>2026-04-26T08:46:17Z</time></trkpt><trkpt lat="45.58957182182864" lon="10.835249861382735"><ele>102.0</ele><time>2026-04-26T08:46:18Z</time></trkpt><trkpt lat="45.589686548999495" lon="10.835311823455843"><ele>102.6</ele><time>2026-04-26T08:46:19Z</time></trkpt><trkpt lat="45.589801620643414" lon="10.835377945828165"><ele>103.19999999999999</ele><time>2026-04-26T08:46:20Z</time></trkpt><trkpt lat="45.58990585703565" lon="10.83543868377877"><ele>103.8</ele><time>2026-04-26T08:46:21Z</time></trkpt><trkpt lat="45.59000566522659" lon="10.835489917504866"><ele>104.4</ele><time>2026-04-26T08:46:22Z</time></trkpt><trkpt lat="45.59009568673907" lon="10.835532015538073"><ele>105.0</ele><time>2026-04-26T08:46:23Z</time></trkpt><trkpt lat="45.59016202642797" lon="10.835557890781564"><ele>105.0</ele><time>2026-04-26T08:46:24Z</time></trkpt><trkpt lat="45.590227437364334" lon="10.83558968383891"><ele>105.0</ele><time>2026-04-26T08:46:25Z</time></trkpt><trkpt lat="45.59029066672269" lon="10.835628770899417"><ele>105.0</ele><time>2026-04-26T08:46:26Z</time></trkpt><trkpt lat="45.59037146855725" lon="10.835671693487276"><ele>105.0</ele><time>2026-04-26T08:46:27Z</time></trkpt><trkpt lat="45.59044374727485" lon="10.835706412799503"><ele>105.0</ele><time>2026-04-26T08:46:28Z</time></trkpt><trkpt lat="45.59055378777094" lon="10.835724844885778"><ele>105.0</ele><time>2026-04-26T08:46:30Z</time></trkpt><trkpt lat="45.59064470266427" lon="10.835789956757495"><ele>105.0</ele><time>2026-04-26T08:46:32Z</time></trkpt><trkpt lat="45.59071542643864" lon="10.835845218785252"><ele>105.0</ele><time>2026-04-26T08:46:34Z</time></trkpt><trkpt lat="45.59079611047798" lon="10.835893323584086"><ele>105.0</ele><time>2026-04-26T08:46:36Z</time></trkpt><trkpt lat="45.590871650018784" lon="10.835933517966065"><ele>105.0</ele><time>2026-04-26T08:46:39Z</time></trkpt><trkpt lat="45.59096726052994" lon="10.835990973446888"><ele>105.0</ele><time>2026-04-26T08:46:41Z</time></trkpt><trkpt lat="45.59104128772809" lon="10.836022052547243"><ele>105.0</ele><time>2026-04-26T08:46:43Z</time></trkpt><trkpt lat="45.591098940360546" lon="10.836065997616496"><ele>107.0</ele><time>2026-04-26T08:46:44Z</time></trkpt><trkpt lat="45.59117743401427" lon="10.836108201108006"><ele>109.0</ele><time>2026-04-26T08:46:46Z</time></trkpt><trkpt lat="45.59124032587773" lon="10.836145168045073"><ele>111.0</ele><time>2026-04-26T08:46:48Z</time></trkpt><trkpt lat="45.5913159850346" lon="10.836197387190252"><ele>113.0</ele><time>2026-04-26T08:46:52Z</time></trkpt><trkpt lat="45.59140516647923" lon="10.836294165294406"><ele>115.0</ele><time>2026-04-26T08:46:54Z</time></trkpt><trkpt lat="45.591474715230554" lon="10.836350154872147"><ele>117.0</ele><time>2026-04-26T08:46:55Z</time></trkpt><trkpt lat="45.591533141044316" lon="10.836404391899222"><ele>117.0</ele><time>2026-04-26T08:46:56Z</time></trkpt><trkpt lat="45.59161900386891" lon="10.836433243245393"><ele>117.0</ele><time>2026-04-26T08:46:58Z</time></trkpt><trkpt lat="45.591677191232854" lon="10.836328536031369"><ele>117.0</ele><time>2026-04-26T08:47:00Z</time></trkpt><trkpt lat="45.5917238284634" lon="10.836210726794624"><ele>117.0</ele><time>2026-04-26T08:47:02Z</time></trkpt><trkpt lat="45.59175971928765" lon="10.836134898947716"><ele>117.0</ele><time>2026-04-26T08:47:03Z</time></trkpt><trkpt lat="45.59179872550677" lon="10.836049107805934"><ele>117.0</ele><time>2026-04-26T08:47:04Z</time></trkpt><trkpt lat="45.59183607418906" lon="10.83594622709964"><ele>117.5</ele><time>2026-04-26T08:47:05Z</time></trkpt><trkpt lat="45.59185593151351" lon="10.835806502580532"><ele>118.0</ele><time>2026-04-26T08:47:07Z</time></trkpt><trkpt lat="45.591874787628946" lon="10.83570477080086"><ele>118.5</ele><time>2026-04-26T08:47:08Z</time></trkpt><trkpt lat="45.59190541199888" lon="10.83558676277325"><ele>119.0</ele><time>2026-04-26T08:47:09Z</time></trkpt><trkpt lat="45.59192294675648" lon="10.83549989542687"><ele>119.5</ele><time>2026-04-26T08:47:10Z</time></trkpt><trkpt lat="45.59198233205583" lon="10.835435994734311"><ele>120.0</ele><time>2026-04-26T08:47:13Z</time></trkpt><trkpt lat="45.59207984299949" lon="10.8354868633745"><ele>122.4</ele><time>2026-04-26T08:47:16Z</time></trkpt><trkpt lat="45.59213475912711" lon="10.835537655259174"><ele>124.8</ele><time>2026-04-26T08:47:17Z</time></trkpt><trkpt lat="45.59221202001323" lon="10.835588344976921"><ele>127.19999999999999</ele><time>2026-04-26T08:47:19Z</time></trkpt><trkpt lat="45.59233446759978" lon="10.835701763906059"><ele>129.6</ele><time>2026-04-26T08:47:21Z</time></trkpt><trkpt lat="45.59241347794582" lon="10.835774149236363"><ele>132.0</ele><time>2026-04-26T08:47:22Z</time></trkpt><trkpt lat="45.59252492232208" lon="10.835878905993036"><ele>133.0</ele><time>2026-04-26T08:47:23Z</time></trkpt><trkpt lat="45.59262892739464" lon="10.835999353613834"><ele>134.0</ele><time>2026-04-26T08:47:24Z</time></trkpt><trkpt lat="45.59271882681137" lon="10.836105071338078"><ele>135.0</ele><time>2026-04-26T08:47:25Z</time></trkpt><trkpt lat="45.592801015497855" lon="10.836205318515526"><ele>136.0</ele><time>2026-04-26T08:47:26Z</time></trkpt><trkpt lat="45.592882543630544" lon="10.836307576739134"><ele>136.0</ele><time>2026-04-26T08:47:27Z</time></trkpt><trkpt lat="45.59295271676016" lon="10.83639224567703"><ele>136.0</ele><time>2026-04-26T08:47:28Z</time></trkpt><trkpt lat="45.59301109392689" lon="10.836456625881452"><ele>136.0</ele><time>2026-04-26T08:47:29Z</time></trkpt><trkpt lat="45.59307050480714" lon="10.836546999417795"><ele>136.0</ele><time>2026-04-26T08:47:31Z</time></trkpt><trkpt lat="45.593027536934166" lon="10.836654339465182"><ele>136.0</ele><time>2026-04-26T08:47:33Z</time></trkpt><trkpt lat="45.59294697180357" lon="10.83679985919062"><ele>134.83333333333334</ele><time>2026-04-26T08:47:35Z</time></trkpt><trkpt lat="45.59289708176351" lon="10.836887095143256"><ele>133.66666666666669</ele><time>2026-04-26T08:47:36Z</time></trkpt><trkpt lat="45.592858523715414" lon="10.836966298805814"><ele>132.5</ele><time>2026-04-26T08:47:37Z</time></trkpt><trkpt lat="45.59286412051294" lon="10.837100216381355"><ele>131.33333333333334</ele><time>2026-04-26T08:47:39Z</time></trkpt><trkpt lat="45.59297767726215" lon="10.837174996994653"><ele>130.16666666666666</ele><time>2026-04-26T08:47:41Z</time></trkpt><trkpt lat="45.59305641074789" lon="10.837217282594251"><ele>129.0</ele><time>2026-04-26T08:47:42Z</time></trkpt><trkpt lat="45.59314134064856" lon="10.837260922563768"><ele>129.0</ele><time>2026-04-26T08:47:43Z</time></trkpt><trkpt lat="45.59322438455921" lon="10.837311441381463"><ele>129.0</ele><time>2026-04-26T08:47:44Z</time></trkpt><trkpt lat="45.59332047867813" lon="10.837372166671557"><ele>129.0</ele><time>2026-04-26T08:47:45Z</time></trkpt><trkpt lat="45.5934275892079" lon="10.83743414967211"><ele>129.0</ele><time>2026-04-26T08:47:46Z</time></trkpt><trkpt lat="45.59352996421687" lon="10.83749865193823"><ele>129.0</ele><time>2026-04-26T08:47:47Z</time></trkpt><trkpt lat="45.5936510704911" lon="10.837566774706348"><ele>128.4</ele><time>2026-04-26T08:47:48Z</time></trkpt><trkpt lat="45.59376300638544" lon="10.83763786983775"><ele>127.80000000000001</ele><time>2026-04-26T08:47:49Z</time></trkpt><trkpt lat="45.5938557553057" lon="10.837692432170503"><ele>127.19999999999999</ele><time>2026-04-26T08:47:50Z</time></trkpt><trkpt lat="45.59394573187548" lon="10.837748790620624"><ele>126.6</ele><time>2026-04-26T08:47:51Z</time></trkpt><trkpt lat="45.59404322789699" lon="10.837809845941475"><ele>126.0</ele><time>2026-04-26T08:47:52Z</time></trkpt><trkpt lat="45.59415043103282" lon="10.837890628775684"><ele>126.0</ele><time>2026-04-26T08:47:53Z</time></trkpt><trkpt lat="45.594266221023084" lon="10.837970340689555"><ele>126.0</ele><time>2026-04-26T08:47:54Z</time></trkpt><trkpt lat="45.59438255889365" lon="10.838044947871127"><ele>126.0</ele><time>2026-04-26T08:47:55Z</time></trkpt><trkpt lat="45.59448910674493" lon="10.838111500741157"><ele>126.0</ele><time>2026-04-26T08:47:56Z</time></trkpt><trkpt lat="45.59458793405625" lon="10.838184027591861"><ele>126.25</ele><time>2026-04-26T08:47:57Z</time></trkpt><trkpt lat="45.59467772594835" lon="10.838251341200113"><ele>126.5</ele><time>2026-04-26T08:47:58Z</time></trkpt><trkpt lat="45.59477997781844" lon="10.838329110446134"><ele>126.75</ele><time>2026-04-26T08:47:59Z</time></trkpt><trkpt lat="45.59488989098674" lon="10.838416240264921"><ele>127.0</ele><time>2026-04-26T08:48:00Z</time></trkpt><trkpt lat="45.59498830551768" lon="10.838494609348437"><ele>127.0</ele><time>2026-04-26T08:48:01Z</time></trkpt><trkpt lat="45.59507663644166" lon="10.838563514726129"><ele>127.0</ele><time>2026-04-26T08:48:02Z</time></trkpt><trkpt lat="45.595193847477546" lon="10.838672713894939"><ele>127.0</ele><time>2026-04-26T08:48:03Z</time></trkpt><trkpt lat="45.595314199957585" lon="10.838779748464841"><ele>127.0</ele><time>2026-04-26T08:48:04Z</time></trkpt><trkpt lat="45.59543391135342" lon="10.83887610702338"><ele>127.25</ele><time>2026-04-26T08:48:05Z</time></trkpt><trkpt lat="45.59556728763782" lon="10.838981502985343"><ele>127.5</ele><time>2026-04-26T08:48:06Z</time></trkpt><trkpt lat="45.5956990887411" lon="10.839091817195653"><ele>127.75</ele><time>2026-04-26T08:48:07Z</time></trkpt><trkpt lat="45.595807337712635" lon="10.839200056297047"><ele>128.0</ele><time>2026-04-26T08:48:08Z</time></trkpt><trkpt lat="45.595924587449005" lon="10.839302509952082"><ele>128.0</ele><time>2026-04-26T08:48:09Z</time></trkpt><trkpt lat="45.59603905403161" lon="10.839403666320653"><ele>128.0</ele><time>2026-04-26T08:48:10Z</time></trkpt><trkpt lat="45.596147790201535" lon="10.839496962501801"><ele>128.0</ele><time>2026-04-26T08:48:11Z</time></trkpt><trkpt lat="45.59624591179524" lon="10.839586597861127"><ele>128.0</ele><time>2026-04-26T08:48:12Z</time></trkpt><trkpt lat="45.59633310273878" lon="10.8396681256642"><ele>128.33333333333331</ele><time>2026-04-26T08:48:13Z</time></trkpt><trkpt lat="45.59641816554092" lon="10.839744315887586"><ele>128.66666666666666</ele><time>2026-04-26T08:48:14Z</time></trkpt><trkpt lat="45.596493714201564" lon="10.839805814189308"><ele>129.0</ele><time>2026-04-26T08:48:15Z</time></trkpt><trkpt lat="45.596566121825845" lon="10.839864060857186"><ele>129.33333333333334</ele><time>2026-04-26T08:48:16Z</time></trkpt><trkpt lat="45.59663103647721" lon="10.839923022413533"><ele>129.66666666666669</ele><time>2026-04-26T08:48:17Z</time></trkpt><trkpt lat="45.59668515719969" lon="10.83998671681693"><ele>130.0</ele><time>2026-04-26T08:48:18Z</time></trkpt><trkpt lat="45.59675080081076" lon="10.840064429023968"><ele>129.5</ele><time>2026-04-26T08:48:19Z</time></trkpt><trkpt lat="45.596844836300896" lon="10.840159314747023"><ele>129.0</ele><time>2026-04-26T08:48:20Z</time></trkpt><trkpt lat="45.59691825454251" lon="10.840228698579912"><ele>128.5</ele><time>2026-04-26T08:48:21Z</time></trkpt><trkpt lat="45.596985755950435" lon="10.840298101904153"><ele>128.0</ele><time>2026-04-26T08:48:22Z</time></trkpt><trkpt lat="45.59703703377315" lon="10.840351244422262"><ele>127.50000000000001</ele><time>2026-04-26T08:48:23Z</time></trkpt><trkpt lat="45.59711390838021" lon="10.840378189987508"><ele>127.0</ele><time>2026-04-26T08:48:25Z</time></trkpt><trkpt lat="45.597216660688986" lon="10.840231220384165"><ele>126.8</ele><time>2026-04-26T08:48:27Z</time></trkpt><trkpt lat="45.5972885382999" lon="10.840102248985527"><ele>126.6</ele><time>2026-04-26T08:48:28Z</time></trkpt><trkpt lat="45.59739038567244" lon="10.84005524978574"><ele>126.39999999999999</ele><time>2026-04-26T08:48:30Z</time></trkpt><trkpt lat="45.5975070873329" lon="10.840166322764947"><ele>126.19999999999999</ele><time>2026-04-26T08:48:32Z</time></trkpt><trkpt lat="45.59756559324182" lon="10.840235891798859"><ele>126.0</ele><time>2026-04-26T08:48:33Z</time></trkpt><trkpt lat="45.597622673853984" lon="10.840286284254317"><ele>126.0</ele><time>2026-04-26T08:48:34Z</time></trkpt><trkpt lat="45.597692919423835" lon="10.840346525644758"><ele>126.0</ele><time>2026-04-26T08:48:35Z</time></trkpt><trkpt lat="45.59777908886322" lon="10.84042707625629"><ele>126.0</ele><time>2026-04-26T08:48:36Z</time></trkpt><trkpt lat="45.59784949475483" lon="10.8404809361815"><ele>126.0</ele><time>2026-04-26T08:48:37Z</time></trkpt><trkpt lat="45.59791454631102" lon="10.840518877691737"><ele>126.0</ele><time>2026-04-26T08:48:38Z</time></trkpt><trkpt lat="45.59799859522174" lon="10.840556834098669"><ele>126.0</ele><time>2026-04-26T08:48:39Z</time></trkpt><trkpt lat="45.59810318321467" lon="10.84061529025197"><ele>126.0</ele><time>2026-04-26T08:48:41Z</time></trkpt><trkpt lat="45.59816450713602" lon="10.840645677256864"><ele>126.0</ele><time>2026-04-26T08:48:42Z</time></trkpt><trkpt lat="45.59822597567786" lon="10.840701535875397"><ele>126.0</ele><time>2026-04-26T08:48:44Z</time></trkpt><trkpt lat="45.59818776977753" lon="10.84083308564125"><ele>126.0</ele><time>2026-04-26T08:48:47Z</time></trkpt><trkpt lat="45.598137231963435" lon="10.840909441819571"><ele>126.0</ele><time>2026-04-26T08:48:48Z</time></trkpt><trkpt lat="45.59809591324145" lon="10.840981968632795"><ele>126.0</ele><time>2026-04-26T08:48:49Z</time></trkpt><trkpt lat="45.59805685698853" lon="10.84108568076008"><ele>126.0</ele><time>2026-04-26T08:48:50Z</time></trkpt><trkpt lat="45.598018521067566" lon="10.84118274431381"><ele>126.0</ele><time>2026-04-26T08:48:51Z</time></trkpt><trkpt lat="45.59798013229087" lon="10.84127389464134"><ele>126.0</ele><time>2026-04-26T08:48:52Z</time></trkpt><trkpt lat="45.59792361663344" lon="10.841390013268777"><ele>126.0</ele><time>2026-04-26T08:48:53Z</time></trkpt><trkpt lat="45.5978787560031" lon="10.841497262912007"><ele>126.0</ele><time>2026-04-26T08:48:54Z</time></trkpt><trkpt lat="45.59783022005107" lon="10.841602700008846"><ele>126.0</ele><time>2026-04-26T08:48:55Z</time></trkpt><trkpt lat="45.59779482424094" lon="10.841679499923195"><ele>125.83333333333333</ele><time>2026-04-26T08:48:56Z</time></trkpt><trkpt lat="45.59773686086516" lon="10.841811827552707"><ele>125.66666666666666</ele><time>2026-04-26T08:48:58Z</time></trkpt><trkpt lat="45.59771629658114" lon="10.841916447068487"><ele>125.5</ele><time>2026-04-26T08:49:00Z</time></trkpt><trkpt lat="45.597737598133065" lon="10.842010275712331"><ele>125.33333333333333</ele><time>2026-04-26T08:49:01Z</time></trkpt><trkpt lat="45.597779413430075" lon="10.842099844230106"><ele>125.16666666666666</ele><time>2026-04-26T08:49:02Z</time></trkpt><trkpt lat="45.59784235150356" lon="10.84218684759722"><ele>125.0</ele><time>2026-04-26T08:49:03Z</time></trkpt><trkpt lat="45.59792002487296" lon="10.842277608806738"><ele>125.0</ele><time>2026-04-26T08:49:04Z</time></trkpt><trkpt lat="45.59800952377149" lon="10.842377464072591"><ele>125.0</ele><time>2026-04-26T08:49:05Z</time></trkpt><trkpt lat="45.5980934224269" lon="10.842455343962108"><ele>125.0</ele><time>2026-04-26T08:49:06Z</time></trkpt><trkpt lat="45.59816682128421" lon="10.842527958979572"><ele>125.0</ele><time>2026-04-26T08:49:07Z</time></trkpt><trkpt lat="45.59823663449814" lon="10.842603124569862"><ele>125.0</ele><time>2026-04-26T08:49:08Z</time></trkpt><trkpt lat="45.59830458805491" lon="10.842677074452384"><ele>124.83333333333333</ele><time>2026-04-26T08:49:09Z</time></trkpt><trkpt lat="45.5983692794116" lon="10.842745995841934"><ele>124.66666666666666</ele><time>2026-04-26T08:49:10Z</time></trkpt><trkpt lat="45.59842385154727" lon="10.842800792196616"><ele>124.5</ele><time>2026-04-26T08:49:11Z</time></trkpt><trkpt lat="45.59850525136923" lon="10.842905102810157"><ele>124.33333333333334</ele><time>2026-04-26T08:49:13Z</time></trkpt><trkpt lat="45.59855202284029" lon="10.843006727838416"><ele>124.16666666666667</ele><time>2026-04-26T08:49:23Z</time></trkpt><trkpt lat="45.598602073266576" lon="10.843074579531612"><ele>124.0</ele><time>2026-04-26T08:49:24Z</time></trkpt><trkpt lat="45.598674839294695" lon="10.843140451301366"><ele>124.0</ele><time>2026-04-26T08:49:25Z</time></trkpt><trkpt lat="45.598765293071345" lon="10.843202369048853"><ele>124.0</ele><time>2026-04-26T08:49:26Z</time></trkpt><trkpt lat="45.59884822966678" lon="10.843261903378455"><ele>124.0</ele><time>2026-04-26T08:49:27Z</time></trkpt><trkpt lat="45.598938897191715" lon="10.843322262658106"><ele>124.0</ele><time>2026-04-26T08:49:28Z</time></trkpt><trkpt lat="45.599031752245644" lon="10.84339000582158"><ele>124.0</ele><time>2026-04-26T08:49:29Z</time></trkpt><trkpt lat="45.59913073381127" lon="10.843464841677068"><ele>123.5</ele><time>2026-04-26T08:49:30Z</time></trkpt><trkpt lat="45.59923740765536" lon="10.843544714383695"><ele>123.0</ele><time>2026-04-26T08:49:31Z</time></trkpt><trkpt lat="45.59935777648233" lon="10.84363083040134"><ele>122.5</ele><time>2026-04-26T08:49:32Z</time></trkpt><trkpt lat="45.59947517851809" lon="10.843714295107581"><ele>122.0</ele><time>2026-04-26T08:49:33Z</time></trkpt><trkpt lat="45.59958576399398" lon="10.843790392396349"><ele>122.0</ele><time>2026-04-26T08:49:34Z</time></trkpt><trkpt lat="45.59970250215292" lon="10.843868249816941"><ele>122.0</ele><time>2026-04-26T08:49:35Z</time></trkpt><trkpt lat="45.59982581219826" lon="10.843944389573856"><ele>122.0</ele><time>2026-04-26T08:49:36Z</time></trkpt><trkpt lat="45.599954592819095" lon="10.844021560799675"><ele>122.0</ele><time>2026-04-26T08:49:37Z</time></trkpt><trkpt lat="45.600075193910456" lon="10.84409988955466"><ele>122.0</ele><time>2026-04-26T08:49:38Z</time></trkpt><trkpt lat="45.600200322560504" lon="10.844191436721559"><ele>122.0</ele><time>2026-04-26T08:49:39Z</time></trkpt><trkpt lat="45.600306152487185" lon="10.844274533420554"><ele>122.0</ele><time>2026-04-26T08:49:40Z</time></trkpt><trkpt lat="45.60042428921748" lon="10.844368502361032"><ele>122.0</ele><time>2026-04-26T08:49:41Z</time></trkpt><trkpt lat="45.60054225116266" lon="10.844474152833598"><ele>121.0</ele><time>2026-04-26T08:49:42Z</time></trkpt><trkpt lat="45.600654412497775" lon="10.844594599100436"><ele>120.0</ele><time>2026-04-26T08:49:43Z</time></trkpt><trkpt lat="45.60077568801551" lon="10.844713235923704"><ele>119.0</ele><time>2026-04-26T08:49:44Z</time></trkpt><trkpt lat="45.60087425726229" lon="10.844815004624177"><ele>118.0</ele><time>2026-04-26T08:49:45Z</time></trkpt><trkpt lat="45.60097752691922" lon="10.844905086461242"><ele>118.0</ele><time>2026-04-26T08:49:46Z</time></trkpt><trkpt lat="45.60107542941326" lon="10.844985069277463"><ele>118.0</ele><time>2026-04-26T08:49:47Z</time></trkpt><trkpt lat="45.60117299698065" lon="10.845071082796185"><ele>118.0</ele><time>2026-04-26T08:49:48Z</time></trkpt><trkpt lat="45.60129008038771" lon="10.845167275968144"><ele>118.0</ele><time>2026-04-26T08:49:49Z</time></trkpt><trkpt lat="45.60141267354659" lon="10.84526238224192"><ele>118.25</ele><time>2026-04-26T08:49:50Z</time></trkpt><trkpt lat="45.60153667745614" lon="10.845360519245734"><ele>118.5</ele><time>2026-04-26T08:49:51Z</time></trkpt><trkpt lat="45.60166654268077" lon="10.845455887068738"><ele>118.75</ele><time>2026-04-26T08:49:52Z</time></trkpt><trkpt lat="45.60178177819868" lon="10.845547872265927"><ele>119.0</ele><time>2026-04-26T08:49:53Z</time></trkpt><trkpt lat="45.60188993494599" lon="10.845629793441237"><ele>118.75</ele><time>2026-04-26T08:49:54Z</time></trkpt><trkpt lat="45.60200014281621" lon="10.845713298131358"><ele>118.5</ele><time>2026-04-26T08:49:55Z</time></trkpt><trkpt lat="45.60211410994168" lon="10.845792372009711"><ele>118.25</ele><time>2026-04-26T08:49:56Z</time></trkpt><trkpt lat="45.60222492144095" lon="10.845874928563024"><ele>118.0</ele><time>2026-04-26T08:49:57Z</time></trkpt><trkpt lat="45.60234017558169" lon="10.845964946355531"><ele>118.0</ele><time>2026-04-26T08:49:58Z</time></trkpt><trkpt lat="45.60245472272862" lon="10.846063753040285"><ele>118.0</ele><time>2026-04-26T08:49:59Z</time></trkpt><trkpt lat="45.60258035918467" lon="10.846166236180352"><ele>118.0</ele><time>2026-04-26T08:50:00Z</time></trkpt><trkpt lat="45.60270885874241" lon="10.84627498581357"><ele>118.0</ele><time>2026-04-26T08:50:01Z</time></trkpt><trkpt lat="45.60284129448153" lon="10.846395167118605"><ele>117.33333333333334</ele><time>2026-04-26T08:50:02Z</time></trkpt><trkpt lat="45.60296163317062" lon="10.846500547138321"><ele>116.66666666666666</ele><time>2026-04-26T08:50:03Z</time></trkpt><trkpt lat="45.60309878908337" lon="10.846618498053855"><ele>116.0</ele><time>2026-04-26T08:50:04Z</time></trkpt><trkpt lat="45.603227076150866" lon="10.846740617752342"><ele>115.33333333333333</ele><time>2026-04-26T08:50:05Z</time></trkpt><trkpt lat="45.60337268514118" lon="10.846859799462433"><ele>114.66666666666666</ele><time>2026-04-26T08:50:06Z</time></trkpt><trkpt lat="45.60350186883935" lon="10.846981459746916"><ele>114.0</ele><time>2026-04-26T08:50:07Z</time></trkpt><trkpt lat="45.60363759346339" lon="10.847100659560033"><ele>114.75</ele><time>2026-04-26T08:50:08Z</time></trkpt><trkpt lat="45.6037677853202" lon="10.847207281645975"><ele>115.5</ele><time>2026-04-26T08:50:09Z</time></trkpt><trkpt lat="45.60388226002419" lon="10.847310128187724"><ele>116.25</ele><time>2026-04-26T08:50:10Z</time></trkpt><trkpt lat="45.60400060903426" lon="10.847410231016934"><ele>117.0</ele><time>2026-04-26T08:50:11Z</time></trkpt><trkpt lat="45.60411801913831" lon="10.847513818109574"><ele>116.66666666666666</ele><time>2026-04-26T08:50:12Z</time></trkpt><trkpt lat="45.60424205189782" lon="10.847630047824389"><ele>116.33333333333333</ele><time>2026-04-26T08:50:13Z</time></trkpt><trkpt lat="45.60436972396466" lon="10.84774990153166"><ele>116.0</ele><time>2026-04-26T08:50:14Z</time></trkpt><trkpt lat="45.604509617950505" lon="10.847870434266346"><ele>116.0</ele><time>2026-04-26T08:50:15Z</time></trkpt><trkpt lat="45.604652872464335" lon="10.847987602702313"><ele>116.0</ele><time>2026-04-26T08:50:16Z</time></trkpt><trkpt lat="45.6047815394304" lon="10.848111545788958"><ele>116.0</ele><time>2026-04-26T08:50:17Z</time></trkpt><trkpt lat="45.60491420152905" lon="10.84823575453556"><ele>116.0</ele><time>2026-04-26T08:50:18Z</time></trkpt><trkpt lat="45.60506480673712" lon="10.84835230348805"><ele>116.0</ele><time>2026-04-26T08:50:19Z</time></trkpt><trkpt lat="45.60519202103359" lon="10.848481277016061"><ele>116.0</ele><time>2026-04-26T08:50:20Z</time></trkpt><trkpt lat="45.60532609718547" lon="10.848601740173729"><ele>115.5</ele><time>2026-04-26T08:50:21Z</time></trkpt><trkpt lat="45.60545217886085" lon="10.848698497287398"><ele>115.0</ele><time>2026-04-26T08:50:22Z</time></trkpt><trkpt lat="45.605564664208536" lon="10.848806335797297"><ele>114.5</ele><time>2026-04-26T08:50:23Z</time></trkpt><trkpt lat="45.6056788152457" lon="10.848908732823693"><ele>114.0</ele><time>2026-04-26T08:50:24Z</time></trkpt><trkpt lat="45.60580686635121" lon="10.849007224403326"><ele>114.0</ele><time>2026-04-26T08:50:25Z</time></trkpt><trkpt lat="45.605933221743" lon="10.849127194624558"><ele>114.0</ele><time>2026-04-26T08:50:26Z</time></trkpt><trkpt lat="45.60606660157034" lon="10.849246436946382"><ele>114.0</ele><time>2026-04-26T08:50:27Z</time></trkpt><trkpt lat="45.606203414366234" lon="10.849364838480898"><ele>114.0</ele><time>2026-04-26T08:50:28Z</time></trkpt><trkpt lat="45.60633863514252" lon="10.849490845682897"><ele>114.0</ele><time>2026-04-26T08:50:29Z</time></trkpt><trkpt lat="45.60647355686309" lon="10.849609312692612"><ele>114.0</ele><time>2026-04-26T08:50:30Z</time></trkpt><trkpt lat="45.606614121311964" lon="10.849715773333896"><ele>114.0</ele><time>2026-04-26T08:50:31Z</time></trkpt><trkpt lat="45.606739131361344" lon="10.849830100543782"><ele>114.0</ele><time>2026-04-26T08:50:32Z</time></trkpt><trkpt lat="45.606865067075766" lon="10.849917962188893"><ele>114.0</ele><time>2026-04-26T08:50:33Z</time></trkpt><trkpt lat="45.60698886383707" lon="10.850012741704438"><ele>114.0</ele><time>2026-04-26T08:50:34Z</time></trkpt><trkpt lat="45.60711680349809" lon="10.850103831850236"><ele>113.33333333333334</ele><time>2026-04-26T08:50:35Z</time></trkpt><trkpt lat="45.6072536464989" lon="10.850191177336887"><ele>112.66666666666667</ele><time>2026-04-26T08:50:36Z</time></trkpt><trkpt lat="45.607398725900396" lon="10.850267080802169"><ele>112.0</ele><time>2026-04-26T08:50:37Z</time></trkpt><trkpt lat="45.607549373525444" lon="10.850333629961149"><ele>112.0</ele><time>2026-04-26T08:50:38Z</time></trkpt><trkpt lat="45.60769833100119" lon="10.850402271581238"><ele>112.0</ele><time>2026-04-26T08:50:39Z</time></trkpt><trkpt lat="45.60784653884563" lon="10.85046217132208"><ele>112.0</ele><time>2026-04-26T08:50:40Z</time></trkpt><trkpt lat="45.60799163351169" lon="10.850526274169253"><ele>112.0</ele><time>2026-04-26T08:50:41Z</time></trkpt><trkpt lat="45.608142060368316" lon="10.850590825486632"><ele>112.0</ele><time>2026-04-26T08:50:42Z</time></trkpt><trkpt lat="45.608295705734946" lon="10.850664231071418"><ele>112.0</ele><time>2026-04-26T08:50:43Z</time></trkpt><trkpt lat="45.60843710135725" lon="10.850734665030451"><ele>112.0</ele><time>2026-04-26T08:50:44Z</time></trkpt><trkpt lat="45.608571095119586" lon="10.850795317659879"><ele>112.0</ele><time>2026-04-26T08:50:45Z</time></trkpt><trkpt lat="45.608697585385364" lon="10.850852770507533"><ele>112.0</ele><time>2026-04-26T08:50:46Z</time></trkpt><trkpt lat="45.608826099975246" lon="10.850911832515072"><ele>112.0</ele><time>2026-04-26T08:50:47Z</time></trkpt><trkpt lat="45.608964969868794" lon="10.850970768088516"><ele>112.25</ele><time>2026-04-26T08:50:48Z</time></trkpt><trkpt lat="45.60910743877264" lon="10.851036755560488"><ele>112.5</ele><time>2026-04-26T08:50:49Z</time></trkpt><trkpt lat="45.60923641927944" lon="10.851090572368593"><ele>112.75</ele><time>2026-04-26T08:50:50Z</time></trkpt><trkpt lat="45.6093602534079" lon="10.851145311672564"><ele>113.0</ele><time>2026-04-26T08:50:51Z</time></trkpt><trkpt lat="45.609474064985854" lon="10.851204123762782"><ele>112.75</ele><time>2026-04-26T08:50:52Z</time></trkpt><trkpt lat="45.60958889485844" lon="10.85126950006046"><ele>112.5</ele><time>2026-04-26T08:50:53Z</time></trkpt><trkpt lat="45.60970757252487" lon="10.851359518251677"><ele>112.25</ele><time>2026-04-26T08:50:54Z</time></trkpt><trkpt lat="45.60983627017402" lon="10.851448561004533"><ele>112.0</ele><time>2026-04-26T08:50:55Z</time></trkpt><trkpt lat="45.609963100455616" lon="10.851538697076311"><ele>112.0</ele><time>2026-04-26T08:50:56Z</time></trkpt><trkpt lat="45.610089353877946" lon="10.851640832491285"><ele>112.0</ele><time>2026-04-26T08:50:57Z</time></trkpt><trkpt lat="45.61021702832099" lon="10.851741758917168"><ele>112.0</ele><time>2026-04-26T08:50:58Z</time></trkpt><trkpt lat="45.61034921700402" lon="10.851847828182484"><ele>112.0</ele><time>2026-04-26T08:50:59Z</time></trkpt><trkpt lat="45.61048770198111" lon="10.85194829449608"><ele>111.5</ele><time>2026-04-26T08:51:00Z</time></trkpt><trkpt lat="45.610622019915624" lon="10.852051968891375"><ele>111.0</ele><time>2026-04-26T08:51:01Z</time></trkpt><trkpt lat="45.61075178332866" lon="10.85215668715152"><ele>110.5</ele><time>2026-04-26T08:51:02Z</time></trkpt><trkpt lat="45.61087326252892" lon="10.852242374258953"><ele>110.0</ele><time>2026-04-26T08:51:03Z</time></trkpt><trkpt lat="45.610993945527035" lon="10.852320108632352"><ele>110.0</ele><time>2026-04-26T08:51:04Z</time></trkpt><trkpt lat="45.61110729846277" lon="10.852407438064558"><ele>110.0</ele><time>2026-04-26T08:51:05Z</time></trkpt><trkpt lat="45.61121462274287" lon="10.852494843355819"><ele>110.0</ele><time>2026-04-26T08:51:06Z</time></trkpt><trkpt lat="45.61134663683078" lon="10.852571691239756"><ele>110.0</ele><time>2026-04-26T08:51:07Z</time></trkpt><trkpt lat="45.61148534844391" lon="10.852625156525042"><ele>109.33333333333333</ele><time>2026-04-26T08:51:08Z</time></trkpt><trkpt lat="45.61163350332811" lon="10.852629848833322"><ele>108.66666666666666</ele><time>2026-04-26T08:51:09Z</time></trkpt><trkpt lat="45.61178708352959" lon="10.852594264035165"><ele>108.0</ele><time>2026-04-26T08:51:10Z</time></trkpt><trkpt lat="45.611940535569055" lon="10.852538788910667"><ele>107.33333333333334</ele><time>2026-04-26T08:51:11Z</time></trkpt><trkpt lat="45.61209426466177" lon="10.852459403359942"><ele>106.66666666666667</ele><time>2026-04-26T08:51:12Z</time></trkpt><trkpt lat="45.61225669567465" lon="10.852382161883702"><ele>106.0</ele><time>2026-04-26T08:51:13Z</time></trkpt><trkpt lat="45.61241635573008" lon="10.852310587781151"><ele>106.0</ele><time>2026-04-26T08:51:14Z</time></trkpt><trkpt lat="45.61257230716636" lon="10.852252679587895"><ele>106.0</ele><time>2026-04-26T08:51:15Z</time></trkpt><trkpt lat="45.61271758724928" lon="10.85218452923256"><ele>106.0</ele><time>2026-04-26T08:51:16Z</time></trkpt><trkpt lat="45.61286028450162" lon="10.852141734202394"><ele>105.0</ele><time>2026-04-26T08:51:17Z</time></trkpt><trkpt lat="45.61299037035329" lon="10.852086970567468"><ele>104.0</ele><time>2026-04-26T08:51:18Z</time></trkpt><trkpt lat="45.61311518094638" lon="10.852009014543059"><ele>103.0</ele><time>2026-04-26T08:51:19Z</time></trkpt><trkpt lat="45.61324293328693" lon="10.851954411753146"><ele>102.0</ele><time>2026-04-26T08:51:20Z</time></trkpt><trkpt lat="45.613368018894526" lon="10.851910886712593"><ele>102.0</ele><time>2026-04-26T08:51:21Z</time></trkpt><trkpt lat="45.613498914534404" lon="10.851856115857633"><ele>102.0</ele><time>2026-04-26T08:51:22Z</time></trkpt><trkpt lat="45.61362546454512" lon="10.851805900648833"><ele>102.0</ele><time>2026-04-26T08:51:23Z</time></trkpt><trkpt lat="45.61375521729817" lon="10.851773157897986"><ele>102.0</ele><time>2026-04-26T08:51:24Z</time></trkpt><trkpt lat="45.61388252653548" lon="10.851786131588755"><ele>102.0</ele><time>2026-04-26T08:51:25Z</time></trkpt><trkpt lat="45.61400939187597" lon="10.85179349553914"><ele>102.0</ele><time>2026-04-26T08:51:26Z</time></trkpt><trkpt lat="45.61413229680206" lon="10.851821486494151"><ele>102.0</ele><time>2026-04-26T08:51:27Z</time></trkpt><trkpt lat="45.614270996263194" lon="10.851832171530933"><ele>102.0</ele><time>2026-04-26T08:51:28Z</time></trkpt><trkpt lat="45.614411218411874" lon="10.85184073343014"><ele>102.75</ele><time>2026-04-26T08:51:29Z</time></trkpt><trkpt lat="45.61454937719145" lon="10.851854630130115"><ele>103.5</ele><time>2026-04-26T08:51:30Z</time></trkpt><trkpt lat="45.61467717781587" lon="10.851874672801609"><ele>104.25</ele><time>2026-04-26T08:51:31Z</time></trkpt><trkpt lat="45.61480104619884" lon="10.85190999767873"><ele>105.0</ele><time>2026-04-26T08:51:32Z</time></trkpt><trkpt lat="45.61493433987373" lon="10.851950373836"><ele>105.0</ele><time>2026-04-26T08:51:33Z</time></trkpt><trkpt lat="45.61507301363028" lon="10.851994982498418"><ele>105.0</ele><time>2026-04-26T08:51:34Z</time></trkpt><trkpt lat="45.61522153837414" lon="10.852033039018"><ele>105.0</ele><time>2026-04-26T08:51:35Z</time></trkpt><trkpt lat="45.61537235550928" lon="10.85206606673725"><ele>105.0</ele><time>2026-04-26T08:51:36Z</time></trkpt><trkpt lat="45.61552581374287" lon="10.852095600525947"><ele>104.75</ele><time>2026-04-26T08:51:37Z</time></trkpt><trkpt lat="45.61566181829103" lon="10.852126370858553"><ele>104.5</ele><time>2026-04-26T08:51:38Z</time></trkpt><trkpt lat="45.61579076073074" lon="10.852157424621826"><ele>104.25</ele><time>2026-04-26T08:51:39Z</time></trkpt><trkpt lat="45.61590420549805" lon="10.852183172026413"><ele>104.0</ele><time>2026-04-26T08:51:40Z</time></trkpt><trkpt lat="45.61602948832493" lon="10.852191946756635"><ele>104.0</ele><time>2026-04-26T08:51:41Z</time></trkpt><trkpt lat="45.616165321225616" lon="10.852203062698685"><ele>104.0</ele><time>2026-04-26T08:51:42Z</time></trkpt><trkpt lat="45.616295023010586" lon="10.85220866154203"><ele>104.0</ele><time>2026-04-26T08:51:43Z</time></trkpt><trkpt lat="45.61642056785807" lon="10.852219252040868"><ele>104.0</ele><time>2026-04-26T08:51:44Z</time></trkpt><trkpt lat="45.61654164715643" lon="10.852230731677254"><ele>104.0</ele><time>2026-04-26T08:51:45Z</time></trkpt><trkpt lat="45.61666757368385" lon="10.852249960569608"><ele>104.0</ele><time>2026-04-26T08:51:46Z</time></trkpt><trkpt lat="45.616795147341975" lon="10.85226983398368"><ele>104.0</ele><time>2026-04-26T08:51:47Z</time></trkpt><trkpt lat="45.616932692499425" lon="10.852288886073067"><ele>104.0</ele><time>2026-04-26T08:51:48Z</time></trkpt><trkpt lat="45.617080098906555" lon="10.852330070447724"><ele>104.75</ele><time>2026-04-26T08:51:49Z</time></trkpt><trkpt lat="45.617223625825225" lon="10.852373998100184"><ele>105.5</ele><time>2026-04-26T08:51:50Z</time></trkpt><trkpt lat="45.61736658701022" lon="10.8524081417138"><ele>106.25</ele><time>2026-04-26T08:51:51Z</time></trkpt><trkpt lat="45.617519272784016" lon="10.852448801194988"><ele>107.0</ele><time>2026-04-26T08:51:52Z</time></trkpt><trkpt lat="45.61766017775626" lon="10.852490414063668"><ele>107.0</ele><time>2026-04-26T08:51:53Z</time></trkpt><trkpt lat="45.617815350488314" lon="10.85252299705585"><ele>107.0</ele><time>2026-04-26T08:51:54Z</time></trkpt><trkpt lat="45.61796401002846" lon="10.852550672143991"><ele>107.0</ele><time>2026-04-26T08:51:55Z</time></trkpt><trkpt lat="45.61810712097368" lon="10.852595587995637"><ele>105.25</ele><time>2026-04-26T08:51:56Z</time></trkpt><trkpt lat="45.61823549840403" lon="10.852628080673037"><ele>103.5</ele><time>2026-04-26T08:51:57Z</time></trkpt><trkpt lat="45.6183622552544" lon="10.852658814228809"><ele>101.75</ele><time>2026-04-26T08:51:58Z</time></trkpt><trkpt lat="45.61847789845132" lon="10.852704901598502"><ele>100.0</ele><time>2026-04-26T08:51:59Z</time></trkpt><trkpt lat="45.61860443614869" lon="10.852722801107625"><ele>100.5</ele><time>2026-04-26T08:52:00Z</time></trkpt><trkpt lat="45.618729706749676" lon="10.852739191442819"><ele>101.0</ele><time>2026-04-26T08:52:01Z</time></trkpt><trkpt lat="45.618855099055196" lon="10.85275977909053"><ele>101.5</ele><time>2026-04-26T08:52:02Z</time></trkpt><trkpt lat="45.61897822732041" lon="10.85279856222182"><ele>102.0</ele><time>2026-04-26T08:52:03Z</time></trkpt><trkpt lat="45.61911595730042" lon="10.852859914536705"><ele>102.0</ele><time>2026-04-26T08:52:04Z</time></trkpt><trkpt lat="45.61926197396192" lon="10.852938877106114"><ele>102.0</ele><time>2026-04-26T08:52:05Z</time></trkpt><trkpt lat="45.61939253461041" lon="10.853028144128535"><ele>102.0</ele><time>2026-04-26T08:52:06Z</time></trkpt><trkpt lat="45.61952290600033" lon="10.853110256755452"><ele>102.0</ele><time>2026-04-26T08:52:07Z</time></trkpt><trkpt lat="45.61965732156688" lon="10.853190861462997"><ele>101.75</ele><time>2026-04-26T08:52:08Z</time></trkpt><trkpt lat="45.61978150399924" lon="10.85324361443746"><ele>101.5</ele><time>2026-04-26T08:52:09Z</time></trkpt><trkpt lat="45.61990792842963" lon="10.853322481851901"><ele>101.25</ele><time>2026-04-26T08:52:10Z</time></trkpt><trkpt lat="45.620041837039054" lon="10.853401487844367"><ele>101.0</ele><time>2026-04-26T08:52:11Z</time></trkpt><trkpt lat="45.62017717896952" lon="10.85348499705842"><ele>101.0</ele><time>2026-04-26T08:52:12Z</time></trkpt><trkpt lat="45.620303824873815" lon="10.853559387240987"><ele>101.0</ele><time>2026-04-26T08:52:13Z</time></trkpt><trkpt lat="45.62042205617015" lon="10.853621350263804"><ele>101.0</ele><time>2026-04-26T08:52:14Z</time></trkpt><trkpt lat="45.620530407432966" lon="10.85368018497445"><ele>101.0</ele><time>2026-04-26T08:52:15Z</time></trkpt><trkpt lat="45.62064081815085" lon="10.853750859791788"><ele>102.5</ele><time>2026-04-26T08:52:16Z</time></trkpt><trkpt lat="45.62076098779466" lon="10.853824427981076"><ele>104.0</ele><time>2026-04-26T08:52:17Z</time></trkpt><trkpt lat="45.62088993270646" lon="10.853904345179984"><ele>105.5</ele><time>2026-04-26T08:52:18Z</time></trkpt><trkpt lat="45.62101898220758" lon="10.853995821465537"><ele>107.0</ele><time>2026-04-26T08:52:19Z</time></trkpt><trkpt lat="45.62114136190428" lon="10.854109917825385"><ele>108.0</ele><time>2026-04-26T08:52:20Z</time></trkpt><trkpt lat="45.62126062329682" lon="10.854237995592868"><ele>109.0</ele><time>2026-04-26T08:52:21Z</time></trkpt><trkpt lat="45.62137420057953" lon="10.854371569078687"><ele>110.0</ele><time>2026-04-26T08:52:22Z</time></trkpt><trkpt lat="45.6214882451621" lon="10.854504676260856"><ele>111.0</ele><time>2026-04-26T08:52:23Z</time></trkpt><trkpt lat="45.62160402083471" lon="10.854636131148657"><ele>111.0</ele><time>2026-04-26T08:52:24Z</time></trkpt><trkpt lat="45.621713790767004" lon="10.854746732553965"><ele>111.0</ele><time>2026-04-26T08:52:25Z</time></trkpt><trkpt lat="45.62181602621961" lon="10.854844517973499"><ele>111.0</ele><time>2026-04-26T08:52:26Z</time></trkpt><trkpt lat="45.62191244680053" lon="10.85493873236291"><ele>111.0</ele><time>2026-04-26T08:52:27Z</time></trkpt><trkpt lat="45.62199944634625" lon="10.85503436887699"><ele>113.25</ele><time>2026-04-26T08:52:28Z</time></trkpt><trkpt lat="45.62208641425124" lon="10.855160582890981"><ele>115.5</ele><time>2026-04-26T08:52:29Z</time></trkpt><trkpt lat="45.6221621759038" lon="10.855297922661372"><ele>117.75</ele><time>2026-04-26T08:52:30Z</time></trkpt><trkpt lat="45.62223757954523" lon="10.855446540334245"><ele>120.0</ele><time>2026-04-26T08:52:31Z</time></trkpt><trkpt lat="45.622311386111804" lon="10.855604140907872"><ele>120.0</ele><time>2026-04-26T08:52:32Z</time></trkpt><trkpt lat="45.62237926502353" lon="10.855753341522089"><ele>120.0</ele><time>2026-04-26T08:52:33Z</time></trkpt><trkpt lat="45.62245516290832" lon="10.855900255180089"><ele>120.0</ele><time>2026-04-26T08:52:34Z</time></trkpt><trkpt lat="45.622529304632614" lon="10.856048423436068"><ele>120.0</ele><time>2026-04-26T08:52:35Z</time></trkpt><trkpt lat="45.62260252113593" lon="10.85620308411702"><ele>120.0</ele><time>2026-04-26T08:52:36Z</time></trkpt><trkpt lat="45.622677874705225" lon="10.856358184643364"><ele>120.0</ele><time>2026-04-26T08:52:37Z</time></trkpt><trkpt lat="45.62275914936218" lon="10.856520890885385"><ele>120.0</ele><time>2026-04-26T08:52:38Z</time></trkpt><trkpt lat="45.622840606379384" lon="10.856685131441326"><ele>120.0</ele><time>2026-04-26T08:52:39Z</time></trkpt><trkpt lat="45.62292074237603" lon="10.856853790572371"><ele>120.0</ele><time>2026-04-26T08:52:40Z</time></trkpt><trkpt lat="45.623001877284686" lon="10.85701190575162"><ele>120.0</ele><time>2026-04-26T08:52:41Z</time></trkpt><trkpt lat="45.62308652473726" lon="10.857177355339852"><ele>120.0</ele><time>2026-04-26T08:52:42Z</time></trkpt><trkpt lat="45.62317123639525" lon="10.857348381825599"><ele>120.0</ele><time>2026-04-26T08:52:43Z</time></trkpt><trkpt lat="45.62325632589226" lon="10.857520683937011"><ele>120.0</ele><time>2026-04-26T08:52:44Z</time></trkpt><trkpt lat="45.623350126595284" lon="10.857703321321534"><ele>120.0</ele><time>2026-04-26T08:52:45Z</time></trkpt><trkpt lat="45.623431726007524" lon="10.857865183790606"><ele>120.0</ele><time>2026-04-26T08:52:46Z</time></trkpt><trkpt lat="45.62350779201507" lon="10.858013168216733"><ele>120.0</ele><time>2026-04-26T08:52:47Z</time></trkpt><trkpt lat="45.62357806198141" lon="10.858151982733396"><ele>122.0</ele><time>2026-04-26T08:52:48Z</time></trkpt><trkpt lat="45.623647823863685" lon="10.858293174387294"><ele>124.0</ele><time>2026-04-26T08:52:49Z</time></trkpt><trkpt lat="45.62371009758782" lon="10.858429360155885"><ele>126.0</ele><time>2026-04-26T08:52:50Z</time></trkpt><trkpt lat="45.62376137133401" lon="10.858571242847251"><ele>128.0</ele><time>2026-04-26T08:52:51Z</time></trkpt><trkpt lat="45.623820605770675" lon="10.858723840451324"><ele>128.5</ele><time>2026-04-26T08:52:52Z</time></trkpt><trkpt lat="45.62387490940543" lon="10.858901020736221"><ele>129.0</ele><time>2026-04-26T08:52:53Z</time></trkpt><trkpt lat="45.62391415515694" lon="10.85907995367082"><ele>129.5</ele><time>2026-04-26T08:52:54Z</time></trkpt><trkpt lat="45.62395051191484" lon="10.859265523780165"><ele>130.0</ele><time>2026-04-26T08:52:55Z</time></trkpt><trkpt lat="45.623990565907924" lon="10.85945753534965"><ele>130.0</ele><time>2026-04-26T08:52:56Z</time></trkpt><trkpt lat="45.62402793104759" lon="10.859642639639357"><ele>130.0</ele><time>2026-04-26T08:52:57Z</time></trkpt><trkpt lat="45.62406804842786" lon="10.859831235227805"><ele>130.0</ele><time>2026-04-26T08:52:58Z</time></trkpt><trkpt lat="45.62410542628306" lon="10.860011976357123"><ele>130.0</ele><time>2026-04-26T08:52:59Z</time></trkpt><trkpt lat="45.62414124904769" lon="10.860192236617507"><ele>130.5</ele><time>2026-04-26T08:53:00Z</time></trkpt><trkpt lat="45.62417232630802" lon="10.860346379114317"><ele>131.0</ele><time>2026-04-26T08:53:01Z</time></trkpt><trkpt lat="45.62420694168529" lon="10.860497664484667"><ele>131.5</ele><time>2026-04-26T08:53:02Z</time></trkpt><trkpt lat="45.624242387272965" lon="10.86066120268073"><ele>132.0</ele><time>2026-04-26T08:53:03Z</time></trkpt><trkpt lat="45.624281197093595" lon="10.86083546960827"><ele>131.25</ele><time>2026-04-26T08:53:04Z</time></trkpt><trkpt lat="45.62433401250834" lon="10.861022277129381"><ele>130.5</ele><time>2026-04-26T08:53:05Z</time></trkpt><trkpt lat="45.62439640685491" lon="10.861211641064434"><ele>129.75</ele><time>2026-04-26T08:53:06Z</time></trkpt><trkpt lat="45.624470113333786" lon="10.861397669538954"><ele>129.0</ele><time>2026-04-26T08:53:07Z</time></trkpt><trkpt lat="45.624547868957094" lon="10.861604962754198"><ele>129.0</ele><time>2026-04-26T08:53:08Z</time></trkpt><trkpt lat="45.62461971424884" lon="10.861800934359906"><ele>129.0</ele><time>2026-04-26T08:53:09Z</time></trkpt><trkpt lat="45.6246913354707" lon="10.861998165496578"><ele>129.0</ele><time>2026-04-26T08:53:10Z</time></trkpt><trkpt lat="45.62475472666724" lon="10.862168971775365"><ele>129.0</ele><time>2026-04-26T08:53:11Z</time></trkpt><trkpt lat="45.62481951597819" lon="10.862331639064848"><ele>129.0</ele><time>2026-04-26T08:53:12Z</time></trkpt><trkpt lat="45.62488304385297" lon="10.86249220474625"><ele>129.0</ele><time>2026-04-26T08:53:13Z</time></trkpt><trkpt lat="45.62494116978984" lon="10.862618896007726"><ele>129.0</ele><time>2026-04-26T08:53:14Z</time></trkpt><trkpt lat="45.624998404399285" lon="10.862722098569957"><ele>129.0</ele><time>2026-04-26T08:53:15Z</time></trkpt><trkpt lat="45.62504595214502" lon="10.862796020607549"><ele>129.0</ele><time>2026-04-26T08:53:16Z</time></trkpt><trkpt lat="45.62511966243951" lon="10.86290129683726"><ele>128.83333333333334</ele><time>2026-04-26T08:53:18Z</time></trkpt><trkpt lat="45.62506503342858" lon="10.862989050712109"><ele>128.66666666666666</ele><time>2026-04-26T08:53:20Z</time></trkpt><trkpt lat="45.62503542426158" lon="10.863073752637387"><ele>128.5</ele><time>2026-04-26T08:53:21Z</time></trkpt><trkpt lat="45.625020992801716" lon="10.863177626077993"><ele>128.33333333333331</ele><time>2026-04-26T08:53:22Z</time></trkpt><trkpt lat="45.62499161849971" lon="10.863281346704229"><ele>128.16666666666666</ele><time>2026-04-26T08:53:23Z</time></trkpt><trkpt lat="45.62496227501091" lon="10.863410423464028"><ele>128.0</ele><time>2026-04-26T08:53:24Z</time></trkpt><trkpt lat="45.62494212574286" lon="10.863532431741154"><ele>127.66666666666666</ele><time>2026-04-26T08:53:25Z</time></trkpt><trkpt lat="45.62494750215134" lon="10.863639448503681"><ele>127.33333333333333</ele><time>2026-04-26T08:53:26Z</time></trkpt><trkpt lat="45.624960971874955" lon="10.863736077465838"><ele>127.0</ele><time>2026-04-26T08:53:27Z</time></trkpt><trkpt lat="45.62496842789558" lon="10.86384104433011"><ele>126.66666666666666</ele><time>2026-04-26T08:53:28Z</time></trkpt><trkpt lat="45.62496024301901" lon="10.863956568468634"><ele>126.33333333333333</ele><time>2026-04-26T08:53:29Z</time></trkpt><trkpt lat="45.62492549596427" lon="10.86407887274598"><ele>126.0</ele><time>2026-04-26T08:53:30Z</time></trkpt><trkpt lat="45.624914663499204" lon="10.864173671676623"><ele>126.0</ele><time>2026-04-26T08:53:31Z</time></trkpt><trkpt lat="45.62485717710234" lon="10.864252549545904"><ele>126.0</ele><time>2026-04-26T08:53:32Z</time></trkpt><trkpt lat="45.62482742891831" lon="10.864355404037536"><ele>126.0</ele><time>2026-04-26T08:53:33Z</time></trkpt><trkpt lat="45.62478514607874" lon="10.864462347433445"><ele>126.0</ele><time>2026-04-26T08:53:34Z</time></trkpt><trkpt lat="45.6247313296114" lon="10.86458991823071"><ele>126.0</ele><time>2026-04-26T08:53:35Z</time></trkpt><trkpt lat="45.62468486483496" lon="10.864699950280146"><ele>126.0</ele><time>2026-04-26T08:53:36Z</time></trkpt><trkpt lat="45.62465090403178" lon="10.864783131152146"><ele>125.66666666666667</ele><time>2026-04-26T08:53:37Z</time></trkpt><trkpt lat="45.62462197394117" lon="10.86489321502453"><ele>125.33333333333334</ele><time>2026-04-26T08:53:39Z</time></trkpt><trkpt lat="45.62474429415962" lon="10.864962233689154"><ele>125.0</ele><time>2026-04-26T08:53:44Z</time></trkpt><trkpt lat="45.62480993952843" lon="10.864985510272154"><ele>124.66666666666667</ele><time>2026-04-26T08:53:45Z</time></trkpt><trkpt lat="45.624876795758055" lon="10.865021229654184"><ele>124.33333333333334</ele><time>2026-04-26T08:53:46Z</time></trkpt><trkpt lat="45.62496628232006" lon="10.865059802762708"><ele>124.0</ele><time>2026-04-26T08:53:47Z</time></trkpt><trkpt lat="45.625072922821765" lon="10.8650835256712"><ele>124.0</ele><time>2026-04-26T08:53:48Z</time></trkpt><trkpt lat="45.62516194847201" lon="10.865125879511128"><ele>124.0</ele><time>2026-04-26T08:53:49Z</time></trkpt><trkpt lat="45.62525395202139" lon="10.865194196096512"><ele>124.0</ele><time>2026-04-26T08:53:50Z</time></trkpt><trkpt lat="45.625363602315346" lon="10.86526126767425"><ele>124.0</ele><time>2026-04-26T08:53:51Z</time></trkpt><trkpt lat="45.62546070824977" lon="10.865337908397533"><ele>124.0</ele><time>2026-04-26T08:53:52Z</time></trkpt><trkpt lat="45.62556717711662" lon="10.865415181052263"><ele>124.0</ele><time>2026-04-26T08:53:53Z</time></trkpt><trkpt lat="45.625669059959215" lon="10.865513313409318"><ele>124.0</ele><time>2026-04-26T08:53:54Z</time></trkpt><trkpt lat="45.62577483879483" lon="10.865582552557441"><ele>124.0</ele><time>2026-04-26T08:53:55Z</time></trkpt><trkpt lat="45.62586276153046" lon="10.865660844183003"><ele>124.0</ele><time>2026-04-26T08:53:56Z</time></trkpt><trkpt lat="45.625955430380955" lon="10.865729564192634"><ele>124.0</ele><time>2026-04-26T08:53:57Z</time></trkpt><trkpt lat="45.62604545976352" lon="10.865820728735963"><ele>124.25</ele><time>2026-04-26T08:53:58Z</time></trkpt><trkpt lat="45.62614847435985" lon="10.865911341774513"><ele>124.5</ele><time>2026-04-26T08:53:59Z</time></trkpt><trkpt lat="45.62626144031789" lon="10.865993769447059"><ele>124.75</ele><time>2026-04-26T08:54:00Z</time></trkpt><trkpt lat="45.626373615820626" lon="10.866082386841892"><ele>125.0</ele><time>2026-04-26T08:54:01Z</time></trkpt><trkpt lat="45.6264734739362" lon="10.866193061552602"><ele>124.5</ele><time>2026-04-26T08:54:02Z</time></trkpt><trkpt lat="45.62657643880841" lon="10.86628585000662"><ele>124.0</ele><time>2026-04-26T08:54:03Z</time></trkpt><trkpt lat="45.62668912583207" lon="10.866385907932752"><ele>123.5</ele><time>2026-04-26T08:54:04Z</time></trkpt><trkpt lat="45.626816187638426" lon="10.866473407390727"><ele>123.0</ele><time>2026-04-26T08:54:05Z</time></trkpt><trkpt lat="45.62693332814764" lon="10.866565266527987"><ele>122.75</ele><time>2026-04-26T08:54:06Z</time></trkpt><trkpt lat="45.627045080687225" lon="10.866653985832333"><ele>122.5</ele><time>2026-04-26T08:54:07Z</time></trkpt><trkpt lat="45.62714683777214" lon="10.866738782003301"><ele>122.25</ele><time>2026-04-26T08:54:08Z</time></trkpt><trkpt lat="45.62723196159386" lon="10.86684088725915"><ele>122.0</ele><time>2026-04-26T08:54:09Z</time></trkpt><trkpt lat="45.627333572309155" lon="10.86690637655013"><ele>121.75</ele><time>2026-04-26T08:54:10Z</time></trkpt><trkpt lat="45.627435161551404" lon="10.867019261182126"><ele>121.5</ele><time>2026-04-26T08:54:11Z</time></trkpt><trkpt lat="45.627552817865656" lon="10.867101870080393"><ele>121.25</ele><time>2026-04-26T08:54:12Z</time></trkpt><trkpt lat="45.627665246771556" lon="10.86719191379779"><ele>121.0</ele><time>2026-04-26T08:54:13Z</time></trkpt><trkpt lat="45.627763881389804" lon="10.867271401110719"><ele>121.4</ele><time>2026-04-26T08:54:14Z</time></trkpt><trkpt lat="45.62784455737295" lon="10.86736206853703"><ele>121.8</ele><time>2026-04-26T08:54:15Z</time></trkpt><trkpt lat="45.62793698978118" lon="10.867414748563439"><ele>122.20000000000002</ele><time>2026-04-26T08:54:16Z</time></trkpt><trkpt lat="45.628035032084014" lon="10.867493282666628"><ele>122.60000000000001</ele><time>2026-04-26T08:54:17Z</time></trkpt><trkpt lat="45.62813176389962" lon="10.867576431127523"><ele>123.0</ele><time>2026-04-26T08:54:18Z</time></trkpt><trkpt lat="45.62822908261115" lon="10.867666339845332"><ele>123.0</ele><time>2026-04-26T08:54:19Z</time></trkpt><trkpt lat="45.62831921841947" lon="10.867742382835768"><ele>123.0</ele><time>2026-04-26T08:54:20Z</time></trkpt><trkpt lat="45.62842547915265" lon="10.867831554612366"><ele>123.0</ele><time>2026-04-26T08:54:21Z</time></trkpt><trkpt lat="45.6285331356324" lon="10.867921679571932"><ele>123.0</ele><time>2026-04-26T08:54:22Z</time></trkpt><trkpt lat="45.628622018745865" lon="10.868016901526293"><ele>123.4</ele><time>2026-04-26T08:54:23Z</time></trkpt><trkpt lat="45.62869892972089" lon="10.868093208512263"><ele>123.80000000000001</ele><time>2026-04-26T08:54:24Z</time></trkpt><trkpt lat="45.62879916100876" lon="10.868155377895572"><ele>124.2</ele><time>2026-04-26T08:54:25Z</time></trkpt><trkpt lat="45.628870241683416" lon="10.868235809326334"><ele>124.6</ele><time>2026-04-26T08:54:26Z</time></trkpt><trkpt lat="45.628948907903826" lon="10.868310355392182"><ele>125.0</ele><time>2026-04-26T08:54:27Z</time></trkpt><trkpt lat="45.629044557890744" lon="10.868382331730157"><ele>124.8</ele><time>2026-04-26T08:54:28Z</time></trkpt><trkpt lat="45.62912258353834" lon="10.86846231180144"><ele>124.6</ele><time>2026-04-26T08:54:29Z</time></trkpt><trkpt lat="45.62919369180095" lon="10.868522574825732"><ele>124.4</ele><time>2026-04-26T08:54:30Z</time></trkpt><trkpt lat="45.62928057636412" lon="10.868600389441106"><ele>124.2</ele><time>2026-04-26T08:54:31Z</time></trkpt><trkpt lat="45.62938473622" lon="10.86866689867374"><ele>124.0</ele><time>2026-04-26T08:54:32Z</time></trkpt><trkpt lat="45.62948836295421" lon="10.86876288330814"><ele>124.0</ele><time>2026-04-26T08:54:33Z</time></trkpt><trkpt lat="45.629586752349205" lon="10.868846347026503"><ele>124.0</ele><time>2026-04-26T08:54:34Z</time></trkpt><trkpt lat="45.629674029704596" lon="10.86892356097236"><ele>124.0</ele><time>2026-04-26T08:54:35Z</time></trkpt><trkpt lat="45.62976501462649" lon="10.869003140986033"><ele>124.0</ele><time>2026-04-26T08:54:36Z</time></trkpt><trkpt lat="45.62984559773973" lon="10.869073078755534"><ele>124.0</ele><time>2026-04-26T08:54:37Z</time></trkpt><trkpt lat="45.62992395927734" lon="10.869160159287981"><ele>124.0</ele><time>2026-04-26T08:54:38Z</time></trkpt><trkpt lat="45.630016018160816" lon="10.86921140941762"><ele>124.0</ele><time>2026-04-26T08:54:39Z</time></trkpt><trkpt lat="45.63011447195193" lon="10.869300610360918"><ele>124.0</ele><time>2026-04-26T08:54:40Z</time></trkpt><trkpt lat="45.63021781003022" lon="10.86938417679417"><ele>124.0</ele><time>2026-04-26T08:54:41Z</time></trkpt><trkpt lat="45.630317648880904" lon="10.86946729486136"><ele>123.6</ele><time>2026-04-26T08:54:42Z</time></trkpt><trkpt lat="45.630414323807926" lon="10.869551236993768"><ele>123.2</ele><time>2026-04-26T08:54:43Z</time></trkpt><trkpt lat="45.630495080629586" lon="10.869618361859954"><ele>122.79999999999998</ele><time>2026-04-26T08:54:44Z</time></trkpt><trkpt lat="45.630584452100166" lon="10.869693004759666"><ele>122.39999999999999</ele><time>2026-04-26T08:54:45Z</time></trkpt><trkpt lat="45.630689293170384" lon="10.869781004541213"><ele>122.0</ele><time>2026-04-26T08:54:46Z</time></trkpt><trkpt lat="45.63079564938528" lon="10.869892000862752"><ele>122.0</ele><time>2026-04-26T08:54:47Z</time></trkpt><trkpt lat="45.63092282857887" lon="10.8699746289493"><ele>122.0</ele><time>2026-04-26T08:54:48Z</time></trkpt><trkpt lat="45.631029606396346" lon="10.870072183402531"><ele>122.0</ele><time>2026-04-26T08:54:49Z</time></trkpt><trkpt lat="45.6311178494173" lon="10.87017148870286"><ele>122.0</ele><time>2026-04-26T08:54:50Z</time></trkpt><trkpt lat="45.631207283371815" lon="10.870261528766074"><ele>122.0</ele><time>2026-04-26T08:54:51Z</time></trkpt><trkpt lat="45.63129755272593" lon="10.870357065426889"><ele>122.0</ele><time>2026-04-26T08:54:52Z</time></trkpt><trkpt lat="45.631397686346475" lon="10.870463754495306"><ele>122.0</ele><time>2026-04-26T08:54:53Z</time></trkpt><trkpt lat="45.63148701984611" lon="10.870558771423234"><ele>122.0</ele><time>2026-04-26T08:54:54Z</time></trkpt><trkpt lat="45.63156884747894" lon="10.870645804905296"><ele>122.0</ele><time>2026-04-26T08:54:55Z</time></trkpt><trkpt lat="45.6316654132096" lon="10.87071696867478"><ele>122.0</ele><time>2026-04-26T08:54:56Z</time></trkpt><trkpt lat="45.6317524978871" lon="10.870808140069174"><ele>122.0</ele><time>2026-04-26T08:54:57Z</time></trkpt><trkpt lat="45.63184936846762" lon="10.870905858621972"><ele>122.0</ele><time>2026-04-26T08:54:58Z</time></trkpt><trkpt lat="45.63193895953746" lon="10.871029705903124"><ele>122.6</ele><time>2026-04-26T08:54:59Z</time></trkpt><trkpt lat="45.63204703953315" lon="10.87114181536066"><ele>123.19999999999999</ele><time>2026-04-26T08:55:00Z</time></trkpt><trkpt lat="45.632136968163735" lon="10.871235096720847"><ele>123.8</ele><time>2026-04-26T08:55:01Z</time></trkpt><trkpt lat="45.63221185121652" lon="10.871311590957603"><ele>124.4</ele><time>2026-04-26T08:55:02Z</time></trkpt><trkpt lat="45.63227078308231" lon="10.871369625026032"><ele>125.0</ele><time>2026-04-26T08:55:03Z</time></trkpt><trkpt lat="45.63233962208403" lon="10.871401695195164"><ele>124.99999999999999</ele><time>2026-04-26T08:55:04Z</time></trkpt><trkpt lat="45.63240843063213" lon="10.871488634199002"><ele>125.0</ele><time>2026-04-26T08:55:06Z</time></trkpt><trkpt lat="45.63242174099735" lon="10.871636000425575"><ele>125.0</ele><time>2026-04-26T08:55:08Z</time></trkpt><trkpt lat="45.63243396057273" lon="10.871739481866555"><ele>125.0</ele><time>2026-04-26T08:55:09Z</time></trkpt><trkpt lat="45.63241240597143" lon="10.871858468252523"><ele>124.99999999999999</ele><time>2026-04-26T08:55:10Z</time></trkpt><trkpt lat="45.63240752727903" lon="10.871988543482095"><ele>125.0</ele><time>2026-04-26T08:55:11Z</time></trkpt><trkpt lat="45.63240917302493" lon="10.872120014048505"><ele>124.8</ele><time>2026-04-26T08:55:12Z</time></trkpt><trkpt lat="45.63241446386997" lon="10.872244945170582"><ele>124.6</ele><time>2026-04-26T08:55:13Z</time></trkpt><trkpt lat="45.632446158776226" lon="10.872354544704923"><ele>124.4</ele><time>2026-04-26T08:55:14Z</time></trkpt><trkpt lat="45.63250808225806" lon="10.872440599415654"><ele>124.2</ele><time>2026-04-26T08:55:15Z</time></trkpt><trkpt lat="45.63258551224477" lon="10.872484363622831"><ele>124.0</ele><time>2026-04-26T08:55:16Z</time></trkpt><trkpt lat="45.63269286876165" lon="10.872534653097937"><ele>124.0</ele><time>2026-04-26T08:55:17Z</time></trkpt><trkpt lat="45.632788729618305" lon="10.872595043850193"><ele>124.0</ele><time>2026-04-26T08:55:18Z</time></trkpt><trkpt lat="45.63287946355389" lon="10.872654742373152"><ele>124.0</ele><time>2026-04-26T08:55:19Z</time></trkpt><trkpt lat="45.6329691480189" lon="10.87271348310123"><ele>124.0</ele><time>2026-04-26T08:55:20Z</time></trkpt><trkpt lat="45.63304234216227" lon="10.872784745951124"><ele>124.0</ele><time>2026-04-26T08:55:21Z</time></trkpt><trkpt lat="45.633133112334264" lon="10.87284356260551"><ele>124.16666666666667</ele><time>2026-04-26T08:55:22Z</time></trkpt><trkpt lat="45.633213630734204" lon="10.872895736394147"><ele>124.33333333333334</ele><time>2026-04-26T08:55:23Z</time></trkpt><trkpt lat="45.633287980682766" lon="10.872921949669585"><ele>124.5</ele><time>2026-04-26T08:55:24Z</time></trkpt><trkpt lat="45.63334160149982" lon="10.872971107859712"><ele>124.66666666666666</ele><time>2026-04-26T08:55:25Z</time></trkpt><trkpt lat="45.63343386645566" lon="10.873023107429846"><ele>124.83333333333333</ele><time>2026-04-26T08:55:27Z</time></trkpt><trkpt lat="45.63349413211587" lon="10.87305945221819"><ele>125.0</ele><time>2026-04-26T08:55:28Z</time></trkpt><trkpt lat="45.6335731355843" lon="10.873110496674448"><ele>124.4</ele><time>2026-04-26T08:55:29Z</time></trkpt><trkpt lat="45.63365425624751" lon="10.87316945542134"><ele>123.8</ele><time>2026-04-26T08:55:30Z</time></trkpt><trkpt lat="45.63375402274123" lon="10.873248031136782"><ele>123.19999999999999</ele><time>2026-04-26T08:55:31Z</time></trkpt><trkpt lat="45.633852870927115" lon="10.873320580036257"><ele>122.6</ele><time>2026-04-26T08:55:32Z</time></trkpt><trkpt lat="45.63395012729891" lon="10.873395228171013"><ele>122.0</ele><time>2026-04-26T08:55:33Z</time></trkpt><trkpt lat="45.63403057550873" lon="10.873464445882902"><ele>121.8</ele><time>2026-04-26T08:55:34Z</time></trkpt><trkpt lat="45.63410606777677" lon="10.873537934719137"><ele>121.6</ele><time>2026-04-26T08:55:35Z</time></trkpt><trkpt lat="45.63419162594522" lon="10.8735857505743"><ele>121.39999999999999</ele><time>2026-04-26T08:55:36Z</time></trkpt><trkpt lat="45.63426685269829" lon="10.873645078484195"><ele>121.19999999999999</ele><time>2026-04-26T08:55:37Z</time></trkpt><trkpt lat="45.634365996305945" lon="10.873729521328704"><ele>121.0</ele><time>2026-04-26T08:55:38Z</time></trkpt><trkpt lat="45.63444871713378" lon="10.873795702854274"><ele>121.16666666666667</ele><time>2026-04-26T08:55:39Z</time></trkpt><trkpt lat="45.63452933622654" lon="10.873849262658535"><ele>121.33333333333334</ele><time>2026-04-26T08:55:40Z</time></trkpt><trkpt lat="45.634635116442325" lon="10.873931121241679"><ele>121.5</ele><time>2026-04-26T08:55:42Z</time></trkpt><trkpt lat="45.63470023749529" lon="10.87392483706981"><ele>121.66666666666666</ele><time>2026-04-26T08:55:44Z</time></trkpt><trkpt lat="45.63476648272377" lon="10.873855175905302"><ele>121.83333333333333</ele><time>2026-04-26T08:55:46Z</time></trkpt><trkpt lat="45.634781247635374" lon="10.873765469771353"><ele>122.0</ele><time>2026-04-26T08:55:47Z</time></trkpt><trkpt lat="45.63482190383009" lon="10.873657458239906"><ele>121.99999999999999</ele><time>2026-04-26T08:55:48Z</time></trkpt><trkpt lat="45.63486399821471" lon="10.873568369764087"><ele>122.0</ele><time>2026-04-26T08:55:49Z</time></trkpt><trkpt lat="45.63492999791538" lon="10.873473266080236"><ele>122.0</ele><time>2026-04-26T08:55:51Z</time></trkpt><trkpt lat="45.63501285990173" lon="10.873458910480055"><ele>122.0</ele><time>2026-04-26T08:55:54Z</time></trkpt><trkpt lat="45.63507268810448" lon="10.873512507580216"><ele>121.99999999999999</ele><time>2026-04-26T08:55:55Z</time></trkpt><trkpt lat="45.6351377928499" lon="10.87356725789327"><ele>122.0</ele><time>2026-04-26T08:55:56Z</time></trkpt><trkpt lat="45.63520363821877" lon="10.87364235615451"><ele>121.99999999999999</ele><time>2026-04-26T08:55:57Z</time></trkpt><trkpt lat="45.635264243069514" lon="10.873689140812175"><ele>122.0</ele><time>2026-04-26T08:55:58Z</time></trkpt><trkpt lat="45.635350884022216" lon="10.87375872772669"><ele>122.0</ele><time>2026-04-26T08:56:00Z</time></trkpt><trkpt lat="45.63543238154823" lon="10.873838325860056"><ele>122.0</ele><time>2026-04-26T08:56:02Z</time></trkpt><trkpt lat="45.63548809777915" lon="10.873886803102723"><ele>121.99999999999999</ele><time>2026-04-26T08:56:03Z</time></trkpt><trkpt lat="45.63555865390793" lon="10.873931373774099"><ele>122.0</ele><time>2026-04-26T08:56:04Z</time></trkpt><trkpt lat="45.635640681334976" lon="10.874002909634125"><ele>122.0</ele><time>2026-04-26T08:56:05Z</time></trkpt><trkpt lat="45.63571154909779" lon="10.87407512904203"><ele>121.99999999999999</ele><time>2026-04-26T08:56:06Z</time></trkpt><trkpt lat="45.63578622982468" lon="10.87415874208865"><ele>121.99999999999999</ele><time>2026-04-26T08:56:07Z</time></trkpt><trkpt lat="45.63587255324115" lon="10.874243398110266"><ele>122.0</ele><time>2026-04-26T08:56:08Z</time></trkpt><trkpt lat="45.63596159493343" lon="10.874321134967749"><ele>122.0</ele><time>2026-04-26T08:56:09Z</time></trkpt><trkpt lat="45.63604783514036" lon="10.874394005899957"><ele>121.8</ele><time>2026-04-26T08:56:10Z</time></trkpt><trkpt lat="45.63615044093156" lon="10.874484834307937"><ele>121.6</ele><time>2026-04-26T08:56:11Z</time></trkpt><trkpt lat="45.63623548167852" lon="10.874601564682685"><ele>121.39999999999999</ele><time>2026-04-26T08:56:12Z</time></trkpt><trkpt lat="45.636315421996414" lon="10.874683806001109"><ele>121.19999999999999</ele><time>2026-04-26T08:56:13Z</time></trkpt><trkpt lat="45.63639467037647" lon="10.87475613245301"><ele>121.0</ele><time>2026-04-26T08:56:14Z</time></trkpt><trkpt lat="45.63648670691593" lon="10.874827615606726"><ele>121.0</ele><time>2026-04-26T08:56:15Z</time></trkpt><trkpt lat="45.636566805904955" lon="10.874909323085646"><ele>121.0</ele><time>2026-04-26T08:56:16Z</time></trkpt><trkpt lat="45.63664073352893" lon="10.87498791451449"><ele>121.0</ele><time>2026-04-26T08:56:17Z</time></trkpt><trkpt lat="45.63671661853055" lon="10.875066147296845"><ele>121.0</ele><time>2026-04-26T08:56:18Z</time></trkpt><trkpt lat="45.63680329447987" lon="10.875147438590464"><ele>121.0</ele><time>2026-04-26T08:56:19Z</time></trkpt><trkpt lat="45.63689745392416" lon="10.875242868117695"><ele>121.0</ele><time>2026-04-26T08:56:20Z</time></trkpt><trkpt lat="45.636987691731285" lon="10.875329247380837"><ele>121.0</ele><time>2026-04-26T08:56:21Z</time></trkpt><trkpt lat="45.637065474443474" lon="10.875400234808081"><ele>121.0</ele><time>2026-04-26T08:56:22Z</time></trkpt><trkpt lat="45.637143876089254" lon="10.875469714943664"><ele>121.0</ele><time>2026-04-26T08:56:23Z</time></trkpt><trkpt lat="45.637218618800894" lon="10.87554900871061"><ele>121.0</ele><time>2026-04-26T08:56:24Z</time></trkpt><trkpt lat="45.63728256655883" lon="10.87563099345823"><ele>121.0</ele><time>2026-04-26T08:56:25Z</time></trkpt><trkpt lat="45.63736385621868" lon="10.875699377133836"><ele>121.0</ele><time>2026-04-26T08:56:26Z</time></trkpt><trkpt lat="45.63744586131565" lon="10.87578162101934"><ele>121.0</ele><time>2026-04-26T08:56:27Z</time></trkpt><trkpt lat="45.637522369727805" lon="10.875851082960754"><ele>121.0</ele><time>2026-04-26T08:56:28Z</time></trkpt><trkpt lat="45.63760720481107" lon="10.875966295265965"><ele>121.0</ele><time>2026-04-26T08:56:30Z</time></trkpt><trkpt lat="45.63758316871262" lon="10.876128140977457"><ele>120.83333333333334</ele><time>2026-04-26T08:56:32Z</time></trkpt><trkpt lat="45.6375891823265" lon="10.876244128150057"><ele>120.66666666666667</ele><time>2026-04-26T08:56:33Z</time></trkpt><trkpt lat="45.6375888126596" lon="10.876369190546354"><ele>120.5</ele><time>2026-04-26T08:56:34Z</time></trkpt><trkpt lat="45.6376236748998" lon="10.87648208671303"><ele>120.33333333333334</ele><time>2026-04-26T08:56:35Z</time></trkpt><trkpt lat="45.637685835929204" lon="10.876558512953336"><ele>120.16666666666667</ele><time>2026-04-26T08:56:36Z</time></trkpt><trkpt lat="45.63777704587718" lon="10.876609594518632"><ele>120.0</ele><time>2026-04-26T08:56:37Z</time></trkpt><trkpt lat="45.63790954593656" lon="10.87665993458014"><ele>120.0</ele><time>2026-04-26T08:56:38Z</time></trkpt><trkpt lat="45.63803054568409" lon="10.87671305397426"><ele>120.0</ele><time>2026-04-26T08:56:39Z</time></trkpt><trkpt lat="45.638104960708304" lon="10.876751431792147"><ele>120.0</ele><time>2026-04-26T08:56:40Z</time></trkpt><trkpt lat="45.638144331308965" lon="10.87684585577428"><ele>120.0</ele><time>2026-04-26T08:56:42Z</time></trkpt><trkpt lat="45.63809455527447" lon="10.876914404736842"><ele>120.0</ele><time>2026-04-26T08:56:43Z</time></trkpt><trkpt lat="45.63812222867454" lon="10.877004187641564"><ele>120.0</ele><time>2026-04-26T08:56:45Z</time></trkpt><trkpt lat="45.63820803937664" lon="10.877040429683865"><ele>120.16666666666667</ele><time>2026-04-26T08:56:47Z</time></trkpt><trkpt lat="45.638311828077" lon="10.877128331601746"><ele>120.33333333333334</ele><time>2026-04-26T08:56:49Z</time></trkpt><trkpt lat="45.63837318859637" lon="10.877173927411539"><ele>120.5</ele><time>2026-04-26T08:56:50Z</time></trkpt><trkpt lat="45.638462506281556" lon="10.87711712239247"><ele>120.66666666666667</ele><time>2026-04-26T08:56:51Z</time></trkpt><trkpt lat="45.6385262813508" lon="10.877123821671884"><ele>120.83333333333334</ele><time>2026-04-26T08:56:52Z</time></trkpt><trkpt lat="45.638611011986946" lon="10.877137018586497"><ele>121.0</ele><time>2026-04-26T08:56:54Z</time></trkpt><trkpt lat="45.6386850455666" lon="10.87721364731235"><ele>121.0</ele><time>2026-04-26T08:56:56Z</time></trkpt><trkpt lat="45.63880691230571" lon="10.87711879373192"><ele>121.0</ele><time>2026-04-26T08:56:57Z</time></trkpt><trkpt lat="45.638959541263645" lon="10.8773139233529"><ele>121.0</ele><time>2026-04-26T08:57:02Z</time></trkpt><trkpt lat="45.63904180983413" lon="10.877419100201031"><ele>121.00000000000001</ele><time>2026-04-26T08:57:04Z</time></trkpt><trkpt lat="45.63909376192077" lon="10.877485518733783"><ele>121.0</ele><time>2026-04-26T08:57:05Z</time></trkpt><trkpt lat="45.63915938637989" lon="10.877567735277069"><ele>121.0</ele><time>2026-04-26T08:57:06Z</time></trkpt><trkpt lat="45.63922700111328" lon="10.877651688789713"><ele>121.0</ele><time>2026-04-26T08:57:07Z</time></trkpt><trkpt lat="45.6392990779191" lon="10.877739792783139"><ele>121.00000000000001</ele><time>2026-04-26T08:57:08Z</time></trkpt><trkpt lat="45.639364923220086" lon="10.877818384512077"><ele>121.0</ele><time>2026-04-26T08:57:09Z</time></trkpt><trkpt lat="45.63943765853642" lon="10.877900500791467"><ele>120.83333333333334</ele><time>2026-04-26T08:57:10Z</time></trkpt><trkpt lat="45.63950052708348" lon="10.877971299222889"><ele>120.66666666666667</ele><time>2026-04-26T08:57:11Z</time></trkpt><trkpt lat="45.639574999393886" lon="10.878055165098559"><ele>120.5</ele><time>2026-04-26T08:57:12Z</time></trkpt><trkpt lat="45.639633600236316" lon="10.87811900740957"><ele>120.33333333333334</ele><time>2026-04-26T08:57:13Z</time></trkpt><trkpt lat="45.639699096332286" lon="10.878189557683777"><ele>120.16666666666667</ele><time>2026-04-26T08:57:14Z</time></trkpt><trkpt lat="45.63976866776755" lon="10.878262404984879"><ele>120.0</ele><time>2026-04-26T08:57:15Z</time></trkpt><trkpt lat="45.63986733915185" lon="10.878360929517633"><ele>118.75</ele><time>2026-04-26T08:57:16Z</time></trkpt><trkpt lat="45.63996465433695" lon="10.878454092383306"><ele>117.5</ele><time>2026-04-26T08:57:17Z</time></trkpt><trkpt lat="45.64006776428812" lon="10.878550972935198"><ele>116.25</ele><time>2026-04-26T08:57:18Z</time></trkpt><trkpt lat="45.640163413745775" lon="10.878637466855272"><ele>115.0</ele><time>2026-04-26T08:57:19Z</time></trkpt><trkpt lat="45.640250217227" lon="10.878714565077575"><ele>115.4</ele><time>2026-04-26T08:57:20Z</time></trkpt><trkpt lat="45.64031850881584" lon="10.878772833271501"><ele>115.8</ele><time>2026-04-26T08:57:21Z</time></trkpt><trkpt lat="45.64040008338158" lon="10.878839250673087"><ele>116.19999999999999</ele><time>2026-04-26T08:57:22Z</time></trkpt><trkpt lat="45.64049675816645" lon="10.878914591416105"><ele>116.6</ele><time>2026-04-26T08:57:23Z</time></trkpt><trkpt lat="45.64059270751512" lon="10.878987182163213"><ele>117.0</ele><time>2026-04-26T08:57:24Z</time></trkpt><trkpt lat="45.640678519573186" lon="10.87905210346709"><ele>117.0</ele><time>2026-04-26T08:57:25Z</time></trkpt><trkpt lat="45.6407621381282" lon="10.879114672359506"><ele>116.99999999999999</ele><time>2026-04-26T08:57:26Z</time></trkpt><trkpt lat="45.640849498903684" lon="10.879179441488976"><ele>116.99999999999999</ele><time>2026-04-26T08:57:27Z</time></trkpt><trkpt lat="45.64094250036913" lon="10.879247868718032"><ele>117.0</ele><time>2026-04-26T08:57:28Z</time></trkpt><trkpt lat="45.64104273179806" lon="10.879321615476483"><ele>117.0</ele><time>2026-04-26T08:57:29Z</time></trkpt><trkpt lat="45.64113209630299" lon="10.87938736677059"><ele>116.8</ele><time>2026-04-26T08:57:30Z</time></trkpt><trkpt lat="45.64120463865552" lon="10.879440740859392"><ele>116.6</ele><time>2026-04-26T08:57:31Z</time></trkpt><trkpt lat="45.641291072265666" lon="10.879504335695572"><ele>116.39999999999999</ele><time>2026-04-26T08:57:32Z</time></trkpt><trkpt lat="45.64138167541888" lon="10.879570998334016"><ele>116.19999999999999</ele><time>2026-04-26T08:57:33Z</time></trkpt><trkpt lat="45.641484875918024" lon="10.87964692966087"><ele>116.0</ele><time>2026-04-26T08:57:34Z</time></trkpt><trkpt lat="45.64156035197934" lon="10.879703114350677"><ele>116.0</ele><time>2026-04-26T08:57:35Z</time></trkpt><trkpt lat="45.64165160086462" lon="10.879774253521322"><ele>116.0</ele><time>2026-04-26T08:57:36Z</time></trkpt><trkpt lat="45.64172393134144" lon="10.879833374413279"><ele>116.0</ele><time>2026-04-26T08:57:37Z</time></trkpt><trkpt lat="45.641801333527305" lon="10.879898411511666"><ele>116.0</ele><time>2026-04-26T08:57:38Z</time></trkpt><trkpt lat="45.64189445843906" lon="10.879976659605674"><ele>116.0</ele><time>2026-04-26T08:57:39Z</time></trkpt><trkpt lat="45.64198487192338" lon="10.8800543696555"><ele>114.99999999999999</ele><time>2026-04-26T08:57:40Z</time></trkpt><trkpt lat="45.64205507411091" lon="10.88011617317679"><ele>114.0</ele><time>2026-04-26T08:57:41Z</time></trkpt><trkpt lat="45.642128171510144" lon="10.880183859298196"><ele>113.0</ele><time>2026-04-26T08:57:42Z</time></trkpt><trkpt lat="45.64219475687911" lon="10.8802455155309"><ele>112.0</ele><time>2026-04-26T08:57:43Z</time></trkpt><trkpt lat="45.64226461864623" lon="10.880311691953503"><ele>110.99999999999999</ele><time>2026-04-26T08:57:44Z</time></trkpt><trkpt lat="45.64233346145954" lon="10.880377798745979"><ele>110.0</ele><time>2026-04-26T08:57:45Z</time></trkpt><trkpt lat="45.64240284913889" lon="10.880444428803429"><ele>109.99999999999999</ele><time>2026-04-26T08:57:46Z</time></trkpt><trkpt lat="45.64246113736236" lon="10.88050040048539"><ele>110.0</ele><time>2026-04-26T08:57:47Z</time></trkpt><trkpt lat="45.64252042399784" lon="10.880557330918867"><ele>110.0</ele><time>2026-04-26T08:57:48Z</time></trkpt><trkpt lat="45.64259923393592" lon="10.880633736996245"><ele>110.0</ele><time>2026-04-26T08:57:50Z</time></trkpt><trkpt lat="45.64269510960368" lon="10.880572886474553"><ele>109.99999999999999</ele><time>2026-04-26T08:57:53Z</time></trkpt><trkpt lat="45.642758284010334" lon="10.880515144972266"><ele>110.0</ele><time>2026-04-26T08:57:54Z</time></trkpt><trkpt lat="45.64287134775936" lon="10.880433938872024"><ele>109.83333333333333</ele><time>2026-04-26T08:57:56Z</time></trkpt><trkpt lat="45.64293985481559" lon="10.880439870354676"><ele>109.66666666666666</ele><time>2026-04-26T08:57:57Z</time></trkpt><trkpt lat="45.643055123960885" lon="10.880349093547823"><ele>109.5</ele><time>2026-04-26T08:57:59Z</time></trkpt><trkpt lat="45.64311768886752" lon="10.88029316512502"><ele>109.33333333333334</ele><time>2026-04-26T08:58:00Z</time></trkpt><trkpt lat="45.64318692281122" lon="10.880212273927675"><ele>109.16666666666667</ele><time>2026-04-26T08:58:01Z</time></trkpt><trkpt lat="45.64324843738677" lon="10.880150793539954"><ele>109.0</ele><time>2026-04-26T08:58:02Z</time></trkpt><trkpt lat="45.64330753343389" lon="10.87998444581933"><ele>109.00000000000001</ele><time>2026-04-26T08:58:04Z</time></trkpt><trkpt lat="45.64332156724628" lon="10.879864329661784"><ele>109.0</ele><time>2026-04-26T08:58:05Z</time></trkpt><trkpt lat="45.64332758530388" lon="10.879729016782203"><ele>109.0</ele><time>2026-04-26T08:58:06Z</time></trkpt><trkpt lat="45.64332959388846" lon="10.879614587681786"><ele>109.0</ele><time>2026-04-26T08:58:07Z</time></trkpt><trkpt lat="45.64332481999954" lon="10.879522255943488"><ele>109.00000000000001</ele><time>2026-04-26T08:58:08Z</time></trkpt><trkpt lat="45.64331690854752" lon="10.87939301043491"><ele>109.0</ele><time>2026-04-26T08:58:09Z</time></trkpt><trkpt lat="45.64330579509196" lon="10.879259763350971"><ele>110.0</ele><time>2026-04-26T08:58:10Z</time></trkpt><trkpt lat="45.64328144361815" lon="10.879119482364514"><ele>111.0</ele><time>2026-04-26T08:58:11Z</time></trkpt><trkpt lat="45.64324760158688" lon="10.87896207248219"><ele>112.0</ele><time>2026-04-26T08:58:12Z</time></trkpt><trkpt lat="45.64321235951451" lon="10.878824048793273"><ele>113.0</ele><time>2026-04-26T08:58:13Z</time></trkpt><trkpt lat="45.64317200798836" lon="10.878738339684938"><ele>114.0</ele><time>2026-04-26T08:58:14Z</time></trkpt><trkpt lat="45.64312466177868" lon="10.878635210191709"><ele>114.0</ele><time>2026-04-26T08:58:15Z</time></trkpt><trkpt lat="45.64308734177307" lon="10.878553484322298"><ele>114.0</ele><time>2026-04-26T08:58:16Z</time></trkpt><trkpt lat="45.64304843728899" lon="10.878447881503508"><ele>114.0</ele><time>2026-04-26T08:58:18Z</time></trkpt><trkpt lat="45.64295265068379" lon="10.87847094452138"><ele>114.0</ele><time>2026-04-26T08:58:19Z</time></trkpt><trkpt lat="45.64312534490972" lon="10.878438772739983"><ele>114.0</ele><time>2026-04-26T08:58:22Z</time></trkpt><trkpt lat="45.643205836057625" lon="10.878436944062067"><ele>114.0</ele><time>2026-04-26T08:58:23Z</time></trkpt><trkpt lat="45.64327780499488" lon="10.878488164882942"><ele>114.0</ele><time>2026-04-26T08:58:24Z</time></trkpt><trkpt lat="45.64336424009295" lon="10.878525010567074"><ele>114.0</ele><time>2026-04-26T08:58:25Z</time></trkpt><trkpt lat="45.64345954568703" lon="10.878555917719627"><ele>114.0</ele><time>2026-04-26T08:58:26Z</time></trkpt><trkpt lat="45.6435680235055" lon="10.878590647854958"><ele>114.0</ele><time>2026-04-26T08:58:27Z</time></trkpt><trkpt lat="45.64368884186206" lon="10.878629206157257"><ele>114.5</ele><time>2026-04-26T08:58:28Z</time></trkpt><trkpt lat="45.64379979085002" lon="10.878669560654426"><ele>115.0</ele><time>2026-04-26T08:58:29Z</time></trkpt><trkpt lat="45.64392337077197" lon="10.878708912186102"><ele>115.5</ele><time>2026-04-26T08:58:30Z</time></trkpt><trkpt lat="45.64406355443914" lon="10.878757745492104"><ele>116.0</ele><time>2026-04-26T08:58:31Z</time></trkpt><trkpt lat="45.644208128962376" lon="10.878810622692924"><ele>116.0</ele><time>2026-04-26T08:58:32Z</time></trkpt><trkpt lat="45.64435429789027" lon="10.878861836823624"><ele>116.0</ele><time>2026-04-26T08:58:33Z</time></trkpt><trkpt lat="45.64450609251918" lon="10.87891450956957"><ele>116.0</ele><time>2026-04-26T08:58:34Z</time></trkpt><trkpt lat="45.64463982582028" lon="10.878959880743283"><ele>116.0</ele><time>2026-04-26T08:58:35Z</time></trkpt><trkpt lat="45.64476732731014" lon="10.879001652712104"><ele>117.5</ele><time>2026-04-26T08:58:36Z</time></trkpt><trkpt lat="45.644884968522405" lon="10.879043137871571"><ele>119.0</ele><time>2026-04-26T08:58:37Z</time></trkpt><trkpt lat="45.64500531645683" lon="10.879084355836882"><ele>120.5</ele><time>2026-04-26T08:58:38Z</time></trkpt><trkpt lat="45.64513486115977" lon="10.879131783821666"><ele>122.0</ele><time>2026-04-26T08:58:39Z</time></trkpt><trkpt lat="45.64527606339644" lon="10.879182887022312"><ele>124.0</ele><time>2026-04-26T08:58:40Z</time></trkpt><trkpt lat="45.64541672098169" lon="10.879229878998007"><ele>126.0</ele><time>2026-04-26T08:58:41Z</time></trkpt><trkpt lat="45.64557201528504" lon="10.879278770370929"><ele>128.0</ele><time>2026-04-26T08:58:42Z</time></trkpt><trkpt lat="45.64572178750455" lon="10.87932645085275"><ele>129.0</ele><time>2026-04-26T08:58:43Z</time></trkpt><trkpt lat="45.64586445487391" lon="10.879386230498929"><ele>130.0</ele><time>2026-04-26T08:58:44Z</time></trkpt><trkpt lat="45.645994884623384" lon="10.879432749199637"><ele>131.0</ele><time>2026-04-26T08:58:45Z</time></trkpt><trkpt lat="45.646113325122144" lon="10.879474497330962"><ele>132.0</ele><time>2026-04-26T08:58:46Z</time></trkpt><trkpt lat="45.64622982647687" lon="10.879518758881067"><ele>132.0</ele><time>2026-04-26T08:58:47Z</time></trkpt><trkpt lat="45.64634352862598" lon="10.879590461150286"><ele>132.0</ele><time>2026-04-26T08:58:48Z</time></trkpt><trkpt lat="45.64644032770834" lon="10.87966832131652"><ele>132.0</ele><time>2026-04-26T08:58:49Z</time></trkpt><trkpt lat="45.646529392282176" lon="10.879759915170316"><ele>132.0</ele><time>2026-04-26T08:58:50Z</time></trkpt><trkpt lat="45.64662191312102" lon="10.879865896844732"><ele>132.0</ele><time>2026-04-26T08:58:51Z</time></trkpt><trkpt lat="45.64670026944793" lon="10.879996392558033"><ele>132.0</ele><time>2026-04-26T08:58:52Z</time></trkpt><trkpt lat="45.64677785457033" lon="10.880133037703525"><ele>132.0</ele><time>2026-04-26T08:58:53Z</time></trkpt><trkpt lat="45.64685346657601" lon="10.880278812643345"><ele>132.0</ele><time>2026-04-26T08:58:54Z</time></trkpt><trkpt lat="45.646921723496426" lon="10.8804393945638"><ele>132.0</ele><time>2026-04-26T08:58:55Z</time></trkpt><trkpt lat="45.64700483471042" lon="10.880601125264958"><ele>132.0</ele><time>2026-04-26T08:58:56Z</time></trkpt><trkpt lat="45.647084037214725" lon="10.88076878545405"><ele>132.0</ele><time>2026-04-26T08:58:57Z</time></trkpt><trkpt lat="45.64716138466824" lon="10.880937233456176"><ele>132.0</ele><time>2026-04-26T08:58:58Z</time></trkpt><trkpt lat="45.64724807763991" lon="10.881111972113747"><ele>132.0</ele><time>2026-04-26T08:58:59Z</time></trkpt><trkpt lat="45.64733196299609" lon="10.8812892911402"><ele>132.0</ele><time>2026-04-26T08:59:00Z</time></trkpt><trkpt lat="45.64742581429746" lon="10.881466477914863"><ele>132.0</ele><time>2026-04-26T08:59:01Z</time></trkpt><trkpt lat="45.647502834707794" lon="10.881643421588889"><ele>132.25</ele><time>2026-04-26T08:59:02Z</time></trkpt><trkpt lat="45.64758209697187" lon="10.881812986997407"><ele>132.5</ele><time>2026-04-26T08:59:03Z</time></trkpt><trkpt lat="45.64766059378327" lon="10.881980168851708"><ele>132.75</ele><time>2026-04-26T08:59:04Z</time></trkpt><trkpt lat="45.647728722893355" lon="10.88213542130724"><ele>133.0</ele><time>2026-04-26T08:59:05Z</time></trkpt><trkpt lat="45.64781567464072" lon="10.882296794210818"><ele>133.0</ele><time>2026-04-26T08:59:06Z</time></trkpt><trkpt lat="45.64790260450606" lon="10.882453743604398"><ele>133.0</ele><time>2026-04-26T08:59:07Z</time></trkpt><trkpt lat="45.64799260220693" lon="10.882611013103123"><ele>133.0</ele><time>2026-04-26T08:59:08Z</time></trkpt><trkpt lat="45.64808990397888" lon="10.882757265935474"><ele>133.0</ele><time>2026-04-26T08:59:09Z</time></trkpt><trkpt lat="45.648193861702794" lon="10.882905305936088"><ele>130.5</ele><time>2026-04-26T08:59:10Z</time></trkpt><trkpt lat="45.6483028914239" lon="10.883051052047978"><ele>128.0</ele><time>2026-04-26T08:59:11Z</time></trkpt><trkpt lat="45.648414685127484" lon="10.88318574495501"><ele>125.5</ele><time>2026-04-26T08:59:12Z</time></trkpt><trkpt lat="45.64852779907066" lon="10.883316587727878"><ele>123.0</ele><time>2026-04-26T08:59:13Z</time></trkpt><trkpt lat="45.64864192050128" lon="10.883431625541416"><ele>123.0</ele><time>2026-04-26T08:59:14Z</time></trkpt><trkpt lat="45.648758442840766" lon="10.883541834302552"><ele>123.0</ele><time>2026-04-26T08:59:15Z</time></trkpt><trkpt lat="45.64888902680879" lon="10.883662977288376"><ele>123.0</ele><time>2026-04-26T08:59:16Z</time></trkpt><trkpt lat="45.649032035666906" lon="10.883791484251827"><ele>123.0</ele><time>2026-04-26T08:59:17Z</time></trkpt><trkpt lat="45.64916869134469" lon="10.883910586689845"><ele>123.0</ele><time>2026-04-26T08:59:18Z</time></trkpt><trkpt lat="45.649317313289934" lon="10.884054479288624"><ele>123.0</ele><time>2026-04-26T08:59:19Z</time></trkpt><trkpt lat="45.6494669602105" lon="10.884190858427814"><ele>124.5</ele><time>2026-04-26T08:59:20Z</time></trkpt><trkpt lat="45.64959706170524" lon="10.88430751754377"><ele>126.0</ele><time>2026-04-26T08:59:21Z</time></trkpt><trkpt lat="45.64972378780573" lon="10.88443337118795"><ele>127.5</ele><time>2026-04-26T08:59:22Z</time></trkpt><trkpt lat="45.64983336787314" lon="10.884531980668331"><ele>129.0</ele><time>2026-04-26T08:59:23Z</time></trkpt><trkpt lat="45.64994052689877" lon="10.884620838981876"><ele>129.0</ele><time>2026-04-26T08:59:24Z</time></trkpt><trkpt lat="45.65004701316333" lon="10.884719687324893"><ele>129.0</ele><time>2026-04-26T08:59:25Z</time></trkpt><trkpt lat="45.650157419136136" lon="10.88482264826363"><ele>129.0</ele><time>2026-04-26T08:59:26Z</time></trkpt><trkpt lat="45.650269902337165" lon="10.884935202839538"><ele>129.0</ele><time>2026-04-26T08:59:27Z</time></trkpt><trkpt lat="45.65037746248179" lon="10.885054876738339"><ele>129.0</ele><time>2026-04-26T08:59:28Z</time></trkpt><trkpt lat="45.65047692149831" lon="10.88519043043801"><ele>129.0</ele><time>2026-04-26T08:59:29Z</time></trkpt><trkpt lat="45.65057633836075" lon="10.885333821856163"><ele>129.0</ele><time>2026-04-26T08:59:30Z</time></trkpt><trkpt lat="45.65067685308921" lon="10.885483212976796"><ele>129.0</ele><time>2026-04-26T08:59:31Z</time></trkpt><trkpt lat="45.650776206943995" lon="10.885633603769397"><ele>129.0</ele><time>2026-04-26T08:59:32Z</time></trkpt><trkpt lat="45.650876218194256" lon="10.885785083585104"><ele>129.0</ele><time>2026-04-26T08:59:33Z</time></trkpt><trkpt lat="45.65097884018232" lon="10.885935441067971"><ele>129.0</ele><time>2026-04-26T08:59:34Z</time></trkpt><trkpt lat="45.65108660554251" lon="10.886095848933484"><ele>129.0</ele><time>2026-04-26T08:59:35Z</time></trkpt><trkpt lat="45.65119462813256" lon="10.886254392450436"><ele>130.33333333333334</ele><time>2026-04-26T08:59:36Z</time></trkpt><trkpt lat="45.65131035291448" lon="10.886421444503316"><ele>131.66666666666669</ele><time>2026-04-26T08:59:37Z</time></trkpt><trkpt lat="45.65143036417043" lon="10.886593130064242"><ele>133.0</ele><time>2026-04-26T08:59:38Z</time></trkpt><trkpt lat="45.651536792318005" lon="10.886755091335354"><ele>131.33333333333334</ele><time>2026-04-26T08:59:39Z</time></trkpt><trkpt lat="45.651648185506296" lon="10.886914691102225"><ele>129.66666666666666</ele><time>2026-04-26T08:59:40Z</time></trkpt><trkpt lat="45.65175203345004" lon="10.887068280097163"><ele>128.0</ele><time>2026-04-26T08:59:41Z</time></trkpt><trkpt lat="45.65186764047412" lon="10.887229970951932"><ele>129.0</ele><time>2026-04-26T08:59:42Z</time></trkpt><trkpt lat="45.651972300972076" lon="10.887381387731564"><ele>130.0</ele><time>2026-04-26T08:59:43Z</time></trkpt><trkpt lat="45.65206897699248" lon="10.887503753279246"><ele>131.0</ele><time>2026-04-26T08:59:44Z</time></trkpt><trkpt lat="45.6521622288105" lon="10.887619904358068"><ele>132.0</ele><time>2026-04-26T08:59:45Z</time></trkpt><trkpt lat="45.6522518687755" lon="10.887733418155852"><ele>132.0</ele><time>2026-04-26T08:59:46Z</time></trkpt><trkpt lat="45.65235296538755" lon="10.887856412850008"><ele>132.0</ele><time>2026-04-26T08:59:47Z</time></trkpt><trkpt lat="45.652454102378925" lon="10.887969511177412"><ele>132.0</ele><time>2026-04-26T08:59:48Z</time></trkpt><trkpt lat="45.65254628877883" lon="10.888058420105434"><ele>132.0</ele><time>2026-04-26T08:59:49Z</time></trkpt><trkpt lat="45.65262678422447" lon="10.888122312879648"><ele>132.0</ele><time>2026-04-26T08:59:50Z</time></trkpt><trkpt lat="45.65269870293594" lon="10.888166545892624"><ele>132.0</ele><time>2026-04-26T08:59:51Z</time></trkpt><trkpt lat="45.65276584129018" lon="10.888230834364023"><ele>132.0</ele><time>2026-04-26T08:59:52Z</time></trkpt><trkpt lat="45.652808073226936" lon="10.88832405865911"><ele>132.0</ele><time>2026-04-26T08:59:53Z</time></trkpt><trkpt lat="45.65284358171718" lon="10.888455200211355"><ele>132.0</ele><time>2026-04-26T08:59:54Z</time></trkpt><trkpt lat="45.652875663140264" lon="10.88862803124422"><ele>131.75</ele><time>2026-04-26T08:59:55Z</time></trkpt><trkpt lat="45.65291711670636" lon="10.888810129039376"><ele>131.5</ele><time>2026-04-26T08:59:56Z</time></trkpt><trkpt lat="45.652959685633775" lon="10.88897855624679"><ele>131.25</ele><time>2026-04-26T08:59:57Z</time></trkpt><trkpt lat="45.65299894825444" lon="10.889123418503502"><ele>131.0</ele><time>2026-04-26T08:59:58Z</time></trkpt><trkpt lat="45.653035564679165" lon="10.889251742242427"><ele>130.6</ele><time>2026-04-26T08:59:59Z</time></trkpt><trkpt lat="45.6530691925547" lon="10.889395426962196"><ele>130.2</ele><time>2026-04-26T09:00:00Z</time></trkpt><trkpt lat="45.653095293489756" lon="10.889526496170504"><ele>129.8</ele><time>2026-04-26T09:00:01Z</time></trkpt><trkpt lat="45.65313133788702" lon="10.889661161654923"><ele>129.4</ele><time>2026-04-26T09:00:02Z</time></trkpt><trkpt lat="45.653178963982405" lon="10.889827410088989"><ele>129.0</ele><time>2026-04-26T09:00:03Z</time></trkpt><trkpt lat="45.65322299545534" lon="10.890006123487634"><ele>128.5</ele><time>2026-04-26T09:00:04Z</time></trkpt><trkpt lat="45.653270269053316" lon="10.890183838822482"><ele>128.0</ele><time>2026-04-26T09:00:05Z</time></trkpt><trkpt lat="45.65331193589735" lon="10.890342264433173"><ele>127.5</ele><time>2026-04-26T09:00:06Z</time></trkpt><trkpt lat="45.65335353797448" lon="10.890501654182112"><ele>127.0</ele><time>2026-04-26T09:00:07Z</time></trkpt><trkpt lat="45.65339639359303" lon="10.890641245396719"><ele>127.0</ele><time>2026-04-26T09:00:08Z</time></trkpt><trkpt lat="45.65344783377592" lon="10.890773073261634"><ele>126.99999999999999</ele><time>2026-04-26T09:00:09Z</time></trkpt><trkpt lat="45.65350571277264" lon="10.890885386217475"><ele>126.99999999999999</ele><time>2026-04-26T09:00:10Z</time></trkpt><trkpt lat="45.65357361259481" lon="10.89099734692174"><ele>127.0</ele><time>2026-04-26T09:00:11Z</time></trkpt><trkpt lat="45.65363987615238" lon="10.891102188517975"><ele>127.0</ele><time>2026-04-26T09:00:12Z</time></trkpt><trkpt lat="45.65370203284328" lon="10.891207087311303"><ele>127.0</ele><time>2026-04-26T09:00:13Z</time></trkpt><trkpt lat="45.65376540909776" lon="10.891317714776198"><ele>126.99999999999999</ele><time>2026-04-26T09:00:14Z</time></trkpt><trkpt lat="45.65383125766673" lon="10.891438126672075"><ele>126.99999999999999</ele><time>2026-04-26T09:00:15Z</time></trkpt><trkpt lat="45.65389377291045" lon="10.891556338580722"><ele>127.0</ele><time>2026-04-26T09:00:16Z</time></trkpt><trkpt lat="45.653959399576216" lon="10.891674670593831"><ele>127.0</ele><time>2026-04-26T09:00:17Z</time></trkpt><trkpt lat="45.65403518132841" lon="10.891809642378865"><ele>126.75</ele><time>2026-04-26T09:00:18Z</time></trkpt><trkpt lat="45.654104186306846" lon="10.891952328773906"><ele>126.5</ele><time>2026-04-26T09:00:19Z</time></trkpt><trkpt lat="45.654175381664565" lon="10.892105673851674"><ele>126.25</ele><time>2026-04-26T09:00:20Z</time></trkpt><trkpt lat="45.6542427698704" lon="10.892271987951599"><ele>126.0</ele><time>2026-04-26T09:00:21Z</time></trkpt><trkpt lat="45.654279398730466" lon="10.892425148083069"><ele>126.0</ele><time>2026-04-26T09:00:22Z</time></trkpt><trkpt lat="45.654315760255486" lon="10.89258228989173"><ele>126.0</ele><time>2026-04-26T09:00:23Z</time></trkpt><trkpt lat="45.65436238485046" lon="10.89274892062185"><ele>126.0</ele><time>2026-04-26T09:00:24Z</time></trkpt><trkpt lat="45.654401462996454" lon="10.892908636491335"><ele>126.0</ele><time>2026-04-26T09:00:25Z</time></trkpt><trkpt lat="45.654444960618996" lon="10.893058455636611"><ele>125.4</ele><time>2026-04-26T09:00:26Z</time></trkpt><trkpt lat="45.654499448087975" lon="10.893190393819376"><ele>124.8</ele><time>2026-04-26T09:00:27Z</time></trkpt><trkpt lat="45.6545450358728" lon="10.893301644302825"><ele>124.20000000000002</ele><time>2026-04-26T09:00:28Z</time></trkpt><trkpt lat="45.65459840925549" lon="10.893408859921722"><ele>123.60000000000001</ele><time>2026-04-26T09:00:29Z</time></trkpt><trkpt lat="45.65465852692797" lon="10.893517519083343"><ele>123.0</ele><time>2026-04-26T09:00:30Z</time></trkpt><trkpt lat="45.654730398746835" lon="10.89362749671725"><ele>122.0</ele><time>2026-04-26T09:00:31Z</time></trkpt><trkpt lat="45.65482257179091" lon="10.893723511382742"><ele>121.0</ele><time>2026-04-26T09:00:32Z</time></trkpt><trkpt lat="45.65493094353024" lon="10.893785205903587"><ele>120.0</ele><time>2026-04-26T09:00:33Z</time></trkpt><trkpt lat="45.65506352033883" lon="10.893819515786053"><ele>119.0</ele><time>2026-04-26T09:00:34Z</time></trkpt><trkpt lat="45.65519185914509" lon="10.893851540237545"><ele>119.5</ele><time>2026-04-26T09:00:35Z</time></trkpt><trkpt lat="45.65532244878212" lon="10.893880796733493"><ele>120.0</ele><time>2026-04-26T09:00:36Z</time></trkpt><trkpt lat="45.65544517155933" lon="10.89389864767081"><ele>120.5</ele><time>2026-04-26T09:00:37Z</time></trkpt><trkpt lat="45.65555710246882" lon="10.893903146389375"><ele>121.0</ele><time>2026-04-26T09:00:38Z</time></trkpt><trkpt lat="45.65565900596754" lon="10.893900497349959"><ele>121.0</ele><time>2026-04-26T09:00:39Z</time></trkpt><trkpt lat="45.6557643300621" lon="10.893896326369912"><ele>121.0</ele><time>2026-04-26T09:00:40Z</time></trkpt><trkpt lat="45.6558739645984" lon="10.89391671244276"><ele>121.0</ele><time>2026-04-26T09:00:41Z</time></trkpt><trkpt lat="45.65599227557553" lon="10.893942586469624"><ele>121.0</ele><time>2026-04-26T09:00:42Z</time></trkpt><trkpt lat="45.65611730438355" lon="10.893982464274071"><ele>120.6</ele><time>2026-04-26T09:00:43Z</time></trkpt><trkpt lat="45.656233506067295" lon="10.894018379391461"><ele>120.19999999999999</ele><time>2026-04-26T09:00:44Z</time></trkpt><trkpt lat="45.65633831811321" lon="10.894035845643844"><ele>119.80000000000001</ele><time>2026-04-26T09:00:45Z</time></trkpt><trkpt lat="45.656434096950065" lon="10.894053937110359"><ele>119.4</ele><time>2026-04-26T09:00:46Z</time></trkpt><trkpt lat="45.65651370404405" lon="10.894073352155619"><ele>119.0</ele><time>2026-04-26T09:00:47Z</time></trkpt><trkpt lat="45.656626071124556" lon="10.894111393133427"><ele>119.0</ele><time>2026-04-26T09:00:49Z</time></trkpt><trkpt lat="45.65670730188809" lon="10.894180859151504"><ele>119.0</ele><time>2026-04-26T09:00:51Z</time></trkpt><trkpt lat="45.656697458867605" lon="10.894354846447804"><ele>119.0</ele><time>2026-04-26T09:00:53Z</time></trkpt><trkpt lat="45.65667743158151" lon="10.894473415638613"><ele>119.0</ele><time>2026-04-26T09:00:54Z</time></trkpt><trkpt lat="45.656663432717735" lon="10.894614534403662"><ele>119.0</ele><time>2026-04-26T09:00:55Z</time></trkpt><trkpt lat="45.656647659231275" lon="10.894766148117752"><ele>117.80000000000001</ele><time>2026-04-26T09:00:56Z</time></trkpt><trkpt lat="45.6566308119736" lon="10.894928104790129"><ele>116.60000000000001</ele><time>2026-04-26T09:00:57Z</time></trkpt><trkpt lat="45.656619290467376" lon="10.895079475993628"><ele>115.4</ele><time>2026-04-26T09:00:58Z</time></trkpt><trkpt lat="45.656606883842905" lon="10.895210414027634"><ele>114.2</ele><time>2026-04-26T09:00:59Z</time></trkpt><trkpt lat="45.656594506718825" lon="10.895356608304292"><ele>113.0</ele><time>2026-04-26T09:01:00Z</time></trkpt><trkpt lat="45.656576579737255" lon="10.895522243173625"><ele>113.0</ele><time>2026-04-26T09:01:01Z</time></trkpt><trkpt lat="45.65655825281999" lon="10.895693915822358"><ele>113.00000000000001</ele><time>2026-04-26T09:01:02Z</time></trkpt><trkpt lat="45.65654463891501" lon="10.895849673096347"><ele>113.00000000000001</ele><time>2026-04-26T09:01:03Z</time></trkpt><trkpt lat="45.65652963926237" lon="10.895996953214587"><ele>113.0</ele><time>2026-04-26T09:01:04Z</time></trkpt><trkpt lat="45.65651746746986" lon="10.896145479436013"><ele>113.0</ele><time>2026-04-26T09:01:05Z</time></trkpt><trkpt lat="45.656500345961376" lon="10.896292996221113"><ele>114.0</ele><time>2026-04-26T09:01:06Z</time></trkpt><trkpt lat="45.65648404259467" lon="10.896460615966205"><ele>115.0</ele><time>2026-04-26T09:01:07Z</time></trkpt><trkpt lat="45.65646750969263" lon="10.896636948929782"><ele>116.0</ele><time>2026-04-26T09:01:08Z</time></trkpt><trkpt lat="45.6564508281255" lon="10.896809500350631"><ele>117.0</ele><time>2026-04-26T09:01:09Z</time></trkpt><trkpt lat="45.656431829136224" lon="10.896987403280274"><ele>117.33333333333333</ele><time>2026-04-26T09:01:10Z</time></trkpt><trkpt lat="45.65641348094257" lon="10.897142604664742"><ele>117.66666666666666</ele><time>2026-04-26T09:01:11Z</time></trkpt><trkpt lat="45.656399290828595" lon="10.89728335450688"><ele>118.0</ele><time>2026-04-26T09:01:12Z</time></trkpt><trkpt lat="45.656386341608275" lon="10.897398857797034"><ele>118.33333333333333</ele><time>2026-04-26T09:01:13Z</time></trkpt><trkpt lat="45.65636915392904" lon="10.897500537373851"><ele>118.66666666666666</ele><time>2026-04-26T09:01:14Z</time></trkpt><trkpt lat="45.65635241021285" lon="10.89760170978567"><ele>119.0</ele><time>2026-04-26T09:01:16Z</time></trkpt><trkpt lat="45.6563625632582" lon="10.897465449255362"><ele>119.0</ele><time>2026-04-26T09:01:37Z</time></trkpt><trkpt lat="45.65637413394614" lon="10.897375790880071"><ele>119.0</ele><time>2026-04-26T09:01:38Z</time></trkpt><trkpt lat="45.6564138060828" lon="10.897039065431821"><ele>119.0</ele><time>2026-04-26T09:01:40Z</time></trkpt><trkpt lat="45.65642593557675" lon="10.896915891128822"><ele>119.0</ele><time>2026-04-26T09:01:41Z</time></trkpt><trkpt lat="45.65643695617649" lon="10.896809180905956"><ele>118.6</ele><time>2026-04-26T09:01:42Z</time></trkpt><trkpt lat="45.65644841433677" lon="10.896701449761197"><ele>118.2</ele><time>2026-04-26T09:01:43Z</time></trkpt><trkpt lat="45.656459881759666" lon="10.896593631196712"><ele>117.79999999999998</ele><time>2026-04-26T09:01:44Z</time></trkpt><trkpt lat="45.65647112472436" lon="10.896463361152158"><ele>117.39999999999999</ele><time>2026-04-26T09:01:45Z</time></trkpt><trkpt lat="45.65648684819116" lon="10.896301816784257"><ele>117.0</ele><time>2026-04-26T09:01:46Z</time></trkpt><trkpt lat="45.65650251283489" lon="10.896140875813797"><ele>117.0</ele><time>2026-04-26T09:01:47Z</time></trkpt><trkpt lat="45.65651575786735" lon="10.896004796231534"><ele>117.0</ele><time>2026-04-26T09:01:48Z</time></trkpt><trkpt lat="45.65652694095383" lon="10.895889900946251"><ele>117.0</ele><time>2026-04-26T09:01:49Z</time></trkpt><trkpt lat="45.65653577085855" lon="10.8957922935134"><ele>117.0</ele><time>2026-04-26T09:01:50Z</time></trkpt><trkpt lat="45.65654884151254" lon="10.895654454475956"><ele>117.0</ele><time>2026-04-26T09:01:52Z</time></trkpt><trkpt lat="45.656558537906605" lon="10.895551886005448"><ele>117.0</ele><time>2026-04-26T09:01:55Z</time></trkpt><trkpt lat="45.65633875467207" lon="10.895528444029322"><ele>116.39999999999999</ele><time>2026-04-26T09:01:59Z</time></trkpt><trkpt lat="45.65627129756259" lon="10.895499843258474"><ele>115.79999999999998</ele><time>2026-04-26T09:02:00Z</time></trkpt><trkpt lat="45.65619745282255" lon="10.895485558862688"><ele>115.2</ele><time>2026-04-26T09:02:01Z</time></trkpt><trkpt lat="45.656104520567936" lon="10.895475784843024"><ele>114.6</ele><time>2026-04-26T09:02:02Z</time></trkpt><trkpt lat="45.655989323447976" lon="10.895463146156732"><ele>114.0</ele><time>2026-04-26T09:02:03Z</time></trkpt><trkpt lat="45.65588637722252" lon="10.895466572986543"><ele>114.0</ele><time>2026-04-26T09:02:04Z</time></trkpt><trkpt lat="45.6557957207015" lon="10.89544813217506"><ele>114.0</ele><time>2026-04-26T09:02:05Z</time></trkpt><trkpt lat="45.65570427072297" lon="10.895461722774202"><ele>114.0</ele><time>2026-04-26T09:02:06Z</time></trkpt><trkpt lat="45.655579406269794" lon="10.895467537430337"><ele>114.0</ele><time>2026-04-26T09:02:07Z</time></trkpt><trkpt lat="45.6554842011552" lon="10.895471148839965"><ele>114.0</ele><time>2026-04-26T09:02:08Z</time></trkpt><trkpt lat="45.65534076933612" lon="10.895474734420691"><ele>114.0</ele><time>2026-04-26T09:02:10Z</time></trkpt><trkpt lat="45.655265592047655" lon="10.895492478171741"><ele>114.0</ele><time>2026-04-26T09:02:11Z</time></trkpt><trkpt lat="45.6551218374188" lon="10.895500839487916"><ele>114.0</ele><time>2026-04-26T09:02:13Z</time></trkpt><trkpt lat="45.655044824449796" lon="10.895515617871128"><ele>114.0</ele><time>2026-04-26T09:02:14Z</time></trkpt><trkpt lat="45.654961620779524" lon="10.895532141776778"><ele>114.0</ele><time>2026-04-26T09:02:15Z</time></trkpt><trkpt lat="45.65487299419166" lon="10.895527033477808"><ele>114.0</ele><time>2026-04-26T09:02:16Z</time></trkpt><trkpt lat="45.65480690301591" lon="10.895565251831627"><ele>114.0</ele><time>2026-04-26T09:02:17Z</time></trkpt><trkpt lat="45.6547531699041" lon="10.895615478554154"><ele>114.0</ele><time>2026-04-26T09:02:18Z</time></trkpt><trkpt lat="45.654701259340584" lon="10.895684567867304"><ele>114.0</ele><time>2026-04-26T09:02:19Z</time></trkpt><trkpt lat="45.65466616398085" lon="10.895818267746845"><ele>114.0</ele><time>2026-04-26T09:02:21Z</time></trkpt><trkpt lat="45.6546615517864" lon="10.895911753678408"><ele>114.0</ele><time>2026-04-26T09:02:22Z</time></trkpt><trkpt lat="45.654617141162795" lon="10.896020454087529"><ele>114.0</ele><time>2026-04-26T09:02:24Z</time></trkpt><trkpt lat="45.65449676141449" lon="10.896035471756084"><ele>114.0</ele><time>2026-04-26T09:02:26Z</time></trkpt><trkpt lat="45.654404021573086" lon="10.896009190727275"><ele>114.0</ele><time>2026-04-26T09:02:27Z</time></trkpt><trkpt lat="45.65433348748199" lon="10.89593953520696"><ele>114.0</ele><time>2026-04-26T09:02:28Z</time></trkpt><trkpt lat="45.65429255826538" lon="10.895784361475574"><ele>114.0</ele><time>2026-04-26T09:02:30Z</time></trkpt><trkpt lat="45.65427886891525" lon="10.895646521999856"><ele>114.0</ele><time>2026-04-26T09:02:32Z</time></trkpt><trkpt lat="45.65419572366959" lon="10.89561323697585"><ele>114.0</ele><time>2026-04-26T09:02:35Z</time></trkpt><trkpt lat="45.6541245148986" lon="10.895633631250545"><ele>114.0</ele><time>2026-04-26T09:02:36Z</time></trkpt><trkpt lat="45.65403967338451" lon="10.895665681677459"><ele>114.0</ele><time>2026-04-26T09:02:37Z</time></trkpt><trkpt lat="45.65396169655643" lon="10.89568658123532"><ele>114.0</ele><time>2026-04-26T09:02:38Z</time></trkpt><trkpt lat="45.65388060396528" lon="10.895699401883926"><ele>114.0</ele><time>2026-04-26T09:02:39Z</time></trkpt><trkpt lat="45.653769257275385" lon="10.895719906144611"><ele>114.0</ele><time>2026-04-26T09:02:40Z</time></trkpt><trkpt lat="45.65366759236824" lon="10.895744389462491"><ele>114.0</ele><time>2026-04-26T09:02:41Z</time></trkpt><trkpt lat="45.65356217874977" lon="10.895766202969401"><ele>114.0</ele><time>2026-04-26T09:02:42Z</time></trkpt><trkpt lat="45.65345236053471" lon="10.895802747547206"><ele>114.0</ele><time>2026-04-26T09:02:43Z</time></trkpt><trkpt lat="45.65333222932344" lon="10.895842973859933"><ele>114.0</ele><time>2026-04-26T09:02:44Z</time></trkpt><trkpt lat="45.65322207013297" lon="10.895895683239942"><ele>114.33333333333333</ele><time>2026-04-26T09:02:45Z</time></trkpt><trkpt lat="45.65313442270057" lon="10.895934657252463"><ele>114.66666666666666</ele><time>2026-04-26T09:02:46Z</time></trkpt><trkpt lat="45.653044645198584" lon="10.895966148626362"><ele>115.0</ele><time>2026-04-26T09:02:47Z</time></trkpt><trkpt lat="45.652954477512644" lon="10.895996024955524"><ele>115.33333333333333</ele><time>2026-04-26T09:02:48Z</time></trkpt><trkpt lat="45.65287163191233" lon="10.896015925685022"><ele>115.66666666666666</ele><time>2026-04-26T09:02:49Z</time></trkpt><trkpt lat="45.65278921143676" lon="10.89604187533495"><ele>116.0</ele><time>2026-04-26T09:02:50Z</time></trkpt><trkpt lat="45.65271524933114" lon="10.89606883953181"><ele>115.99999999999999</ele><time>2026-04-26T09:02:51Z</time></trkpt><trkpt lat="45.65265715838071" lon="10.896106052740324"><ele>116.0</ele><time>2026-04-26T09:02:52Z</time></trkpt><trkpt lat="45.65259852934572" lon="10.896186717706232"><ele>116.0</ele><time>2026-04-26T09:02:54Z</time></trkpt><trkpt lat="45.65262211097454" lon="10.896293310879408"><ele>116.0</ele><time>2026-04-26T09:02:56Z</time></trkpt><trkpt lat="45.652656589007854" lon="10.896377227749023"><ele>115.99999999999999</ele><time>2026-04-26T09:02:58Z</time></trkpt><trkpt lat="45.65269011845191" lon="10.896535435619125"><ele>116.0</ele><time>2026-04-26T09:03:00Z</time></trkpt><trkpt lat="45.652702319366945" lon="10.89663475075822"><ele>115.99999999999999</ele><time>2026-04-26T09:03:01Z</time></trkpt><trkpt lat="45.65272007115229" lon="10.896735599617458"><ele>116.0</ele><time>2026-04-26T09:03:02Z</time></trkpt><trkpt lat="45.65274317053572" lon="10.89683627842614"><ele>116.0</ele><time>2026-04-26T09:03:03Z</time></trkpt><trkpt lat="45.65276185575944" lon="10.896935360527872"><ele>116.0</ele><time>2026-04-26T09:03:04Z</time></trkpt><trkpt lat="45.65277597259958" lon="10.897036525812112"><ele>115.99999999999999</ele><time>2026-04-26T09:03:05Z</time></trkpt><trkpt lat="45.65280796720868" lon="10.897178357212248"><ele>116.0</ele><time>2026-04-26T09:03:06Z</time></trkpt><trkpt lat="45.65282811799891" lon="10.897335651768444"><ele>115.83333333333333</ele><time>2026-04-26T09:03:07Z</time></trkpt><trkpt lat="45.65283736386206" lon="10.897491888478452"><ele>115.66666666666666</ele><time>2026-04-26T09:03:08Z</time></trkpt><trkpt lat="45.65283588418864" lon="10.89762538000158"><ele>115.5</ele><time>2026-04-26T09:03:09Z</time></trkpt><trkpt lat="45.65283355398915" lon="10.897740782656582"><ele>115.33333333333334</ele><time>2026-04-26T09:03:10Z</time></trkpt><trkpt lat="45.65283200070512" lon="10.897835029950244"><ele>115.16666666666667</ele><time>2026-04-26T09:03:11Z</time></trkpt><trkpt lat="45.65283359169471" lon="10.89794344423353"><ele>115.0</ele><time>2026-04-26T09:03:12Z</time></trkpt><trkpt lat="45.65283335022759" lon="10.898040639690922"><ele>115.33333333333334</ele><time>2026-04-26T09:03:13Z</time></trkpt><trkpt lat="45.652835492364595" lon="10.898144772324786"><ele>115.66666666666667</ele><time>2026-04-26T09:03:14Z</time></trkpt><trkpt lat="45.65282908301063" lon="10.898261406368633"><ele>116.0</ele><time>2026-04-26T09:03:15Z</time></trkpt><trkpt lat="45.652822299524885" lon="10.898367197820015"><ele>116.33333333333334</ele><time>2026-04-26T09:03:16Z</time></trkpt><trkpt lat="45.652811248042795" lon="10.898490381281771"><ele>116.66666666666667</ele><time>2026-04-26T09:03:18Z</time></trkpt><trkpt lat="45.65278934176201" lon="10.898599726216052"><ele>117.0</ele><time>2026-04-26T09:03:21Z</time></trkpt><trkpt lat="45.6527369795206" lon="10.898783979684229"><ele>117.8</ele><time>2026-04-26T09:03:23Z</time></trkpt><trkpt lat="45.652734504696824" lon="10.898897788268808"><ele>118.6</ele><time>2026-04-26T09:03:24Z</time></trkpt><trkpt lat="45.652690697536094" lon="10.899004265295188"><ele>119.39999999999999</ele><time>2026-04-26T09:03:25Z</time></trkpt><trkpt lat="45.652661886760285" lon="10.899132781246841"><ele>120.19999999999999</ele><time>2026-04-26T09:03:26Z</time></trkpt><trkpt lat="45.652666631542715" lon="10.899276483830043"><ele>121.0</ele><time>2026-04-26T09:03:27Z</time></trkpt><trkpt lat="45.65265416086433" lon="10.899434609529123"><ele>121.00000000000001</ele><time>2026-04-26T09:03:28Z</time></trkpt><trkpt lat="45.652641916357304" lon="10.899563856837954"><ele>121.0</ele><time>2026-04-26T09:03:29Z</time></trkpt><trkpt lat="45.6526355890495" lon="10.89968233486001"><ele>121.0</ele><time>2026-04-26T09:03:30Z</time></trkpt><trkpt lat="45.65263815908488" lon="10.899776922866169"><ele>121.0</ele><time>2026-04-26T09:03:31Z</time></trkpt><trkpt lat="45.65266660451893" lon="10.899891524509187"><ele>121.00000000000001</ele><time>2026-04-26T09:03:32Z</time></trkpt><trkpt lat="45.65272043383029" lon="10.899981567716408"><ele>121.0</ele><time>2026-04-26T09:03:33Z</time></trkpt><trkpt lat="45.65281143356122" lon="10.900078808181027"><ele>123.6</ele><time>2026-04-26T09:03:34Z</time></trkpt><trkpt lat="45.65290056952399" lon="10.900161639873588"><ele>126.19999999999999</ele><time>2026-04-26T09:03:35Z</time></trkpt><trkpt lat="45.652975610071614" lon="10.900218202006856"><ele>128.8</ele><time>2026-04-26T09:03:36Z</time></trkpt><trkpt lat="45.65306054732579" lon="10.90030265504039"><ele>131.4</ele><time>2026-04-26T09:03:38Z</time></trkpt><trkpt lat="45.653102249066755" lon="10.90038016113033"><ele>134.0</ele><time>2026-04-26T09:03:40Z</time></trkpt><trkpt lat="45.65301177712034" lon="10.900344939616867"><ele>134.0</ele><time>2026-04-26T09:03:53Z</time></trkpt><trkpt lat="45.652948994305504" lon="10.900311298702551"><ele>134.0</ele><time>2026-04-26T09:03:54Z</time></trkpt><trkpt lat="45.65289302931397" lon="10.900248079508255"><ele>134.0</ele><time>2026-04-26T09:03:55Z</time></trkpt><trkpt lat="45.65282108781434" lon="10.900186974951088"><ele>134.0</ele><time>2026-04-26T09:03:56Z</time></trkpt><trkpt lat="45.65275167089367" lon="10.900131674846898"><ele>134.0</ele><time>2026-04-26T09:03:57Z</time></trkpt><trkpt lat="45.65266448917837" lon="10.90006260428331"><ele>134.0</ele><time>2026-04-26T09:03:58Z</time></trkpt><trkpt lat="45.65256238320322" lon="10.899982885479433"><ele>133.5</ele><time>2026-04-26T09:03:59Z</time></trkpt><trkpt lat="45.65245878235368" lon="10.899893131411755"><ele>133.0</ele><time>2026-04-26T09:04:00Z</time></trkpt><trkpt lat="45.6523500272068" lon="10.89980330385495"><ele>132.5</ele><time>2026-04-26T09:04:01Z</time></trkpt><trkpt lat="45.652235300759024" lon="10.899716840752438"><ele>132.0</ele><time>2026-04-26T09:04:02Z</time></trkpt><trkpt lat="45.65212321367142" lon="10.899622223943531"><ele>132.0</ele><time>2026-04-26T09:04:03Z</time></trkpt><trkpt lat="45.652001471137304" lon="10.899523902676393"><ele>132.0</ele><time>2026-04-26T09:04:04Z</time></trkpt><trkpt lat="45.65187234936924" lon="10.899420363542445"><ele>132.0</ele><time>2026-04-26T09:04:05Z</time></trkpt><trkpt lat="45.65175442493907" lon="10.899323141300039"><ele>132.0</ele><time>2026-04-26T09:04:06Z</time></trkpt><trkpt lat="45.651627756050516" lon="10.899218458557371"><ele>131.0</ele><time>2026-04-26T09:04:07Z</time></trkpt><trkpt lat="45.65150235270154" lon="10.899118263600709"><ele>130.0</ele><time>2026-04-26T09:04:08Z</time></trkpt><trkpt lat="45.651376469042255" lon="10.899029472865367"><ele>129.0</ele><time>2026-04-26T09:04:09Z</time></trkpt><trkpt lat="45.651254087543656" lon="10.8989382074043"><ele>128.0</ele><time>2026-04-26T09:04:10Z</time></trkpt><trkpt lat="45.65112751318945" lon="10.898859040978612"><ele>131.75</ele><time>2026-04-26T09:04:11Z</time></trkpt><trkpt lat="45.65099730003574" lon="10.898789573265239"><ele>135.5</ele><time>2026-04-26T09:04:12Z</time></trkpt><trkpt lat="45.650861463421336" lon="10.898716735330698"><ele>139.25</ele><time>2026-04-26T09:04:13Z</time></trkpt><trkpt lat="45.650724734664124" lon="10.898642208863578"><ele>143.0</ele><time>2026-04-26T09:04:14Z</time></trkpt><trkpt lat="45.65059036566247" lon="10.898558082710574"><ele>143.0</ele><time>2026-04-26T09:04:15Z</time></trkpt><trkpt lat="45.650454183068916" lon="10.898468663667012"><ele>143.0</ele><time>2026-04-26T09:04:16Z</time></trkpt><trkpt lat="45.65031418210822" lon="10.898391047896013"><ele>143.0</ele><time>2026-04-26T09:04:17Z</time></trkpt><trkpt lat="45.65017173903178" lon="10.898309545761899"><ele>139.75</ele><time>2026-04-26T09:04:18Z</time></trkpt><trkpt lat="45.650035859798585" lon="10.898234672357546"><ele>136.5</ele><time>2026-04-26T09:04:19Z</time></trkpt><trkpt lat="45.64991032145059" lon="10.898160767973616"><ele>133.25</ele><time>2026-04-26T09:04:20Z</time></trkpt><trkpt lat="45.649779251762936" lon="10.898085525563655"><ele>130.0</ele><time>2026-04-26T09:04:21Z</time></trkpt><trkpt lat="45.64965297248462" lon="10.89801882730608"><ele>130.0</ele><time>2026-04-26T09:04:22Z</time></trkpt><trkpt lat="45.64953475940487" lon="10.897949622382843"><ele>130.0</ele><time>2026-04-26T09:04:23Z</time></trkpt><trkpt lat="45.64941643543142" lon="10.89788183651511"><ele>130.0</ele><time>2026-04-26T09:04:24Z</time></trkpt><trkpt lat="45.64929429234355" lon="10.897805872549538"><ele>130.0</ele><time>2026-04-26T09:04:25Z</time></trkpt><trkpt lat="45.649171492688524" lon="10.897738222423277"><ele>127.75</ele><time>2026-04-26T09:04:26Z</time></trkpt><trkpt lat="45.64904381359646" lon="10.897662829376358"><ele>125.5</ele><time>2026-04-26T09:04:27Z</time></trkpt><trkpt lat="45.648916486460514" lon="10.897587608608298"><ele>123.25</ele><time>2026-04-26T09:04:28Z</time></trkpt><trkpt lat="45.648788063443575" lon="10.897510016323343"><ele>121.0</ele><time>2026-04-26T09:04:29Z</time></trkpt><trkpt lat="45.648665841651045" lon="10.897434733508545"><ele>124.5</ele><time>2026-04-26T09:04:30Z</time></trkpt><trkpt lat="45.64854995711166" lon="10.897361326916142"><ele>128.0</ele><time>2026-04-26T09:04:31Z</time></trkpt><trkpt lat="45.64843535259466" lon="10.89727607503103"><ele>131.5</ele><time>2026-04-26T09:04:32Z</time></trkpt><trkpt lat="45.64831632778869" lon="10.897185082780315"><ele>135.0</ele><time>2026-04-26T09:04:33Z</time></trkpt><trkpt lat="45.64819335389808" lon="10.897097354706787"><ele>135.0</ele><time>2026-04-26T09:04:34Z</time></trkpt><trkpt lat="45.64807017434544" lon="10.897009206343023"><ele>135.0</ele><time>2026-04-26T09:04:35Z</time></trkpt><trkpt lat="45.64794346919693" lon="10.896906643572008"><ele>135.0</ele><time>2026-04-26T09:04:36Z</time></trkpt><trkpt lat="45.64781464627104" lon="10.896801597505782"><ele>135.0</ele><time>2026-04-26T09:04:37Z</time></trkpt><trkpt lat="45.64768351024669" lon="10.896689487199021"><ele>134.5</ele><time>2026-04-26T09:04:38Z</time></trkpt><trkpt lat="45.64755824750319" lon="10.896576732592099"><ele>134.0</ele><time>2026-04-26T09:04:39Z</time></trkpt><trkpt lat="45.64743868021798" lon="10.89646965213048"><ele>133.5</ele><time>2026-04-26T09:04:40Z</time></trkpt><trkpt lat="45.64731983312563" lon="10.89636007733964"><ele>133.0</ele><time>2026-04-26T09:04:41Z</time></trkpt><trkpt lat="45.64719774766265" lon="10.896242612898293"><ele>133.0</ele><time>2026-04-26T09:04:42Z</time></trkpt><trkpt lat="45.647082388662575" lon="10.89612327965819"><ele>133.0</ele><time>2026-04-26T09:04:43Z</time></trkpt><trkpt lat="45.646973915619974" lon="10.89602374968957"><ele>133.0</ele><time>2026-04-26T09:04:44Z</time></trkpt><trkpt lat="45.646875035487525" lon="10.895937364011901"><ele>133.0</ele><time>2026-04-26T09:04:45Z</time></trkpt><trkpt lat="45.64679107586024" lon="10.895828313418646"><ele>132.5</ele><time>2026-04-26T09:04:46Z</time></trkpt><trkpt lat="45.646697294006174" lon="10.895742195155046"><ele>132.0</ele><time>2026-04-26T09:04:47Z</time></trkpt><trkpt lat="45.64660371951981" lon="10.895620242096754"><ele>131.5</ele><time>2026-04-26T09:04:48Z</time></trkpt><trkpt lat="45.646508847362384" lon="10.895499903052102"><ele>131.0</ele><time>2026-04-26T09:04:49Z</time></trkpt><trkpt lat="45.64641551031301" lon="10.895378883236432"><ele>131.0</ele><time>2026-04-26T09:04:50Z</time></trkpt><trkpt lat="45.646323566071416" lon="10.895240333010861"><ele>131.0</ele><time>2026-04-26T09:04:51Z</time></trkpt><trkpt lat="45.64623480589776" lon="10.895107421566678"><ele>131.0</ele><time>2026-04-26T09:04:52Z</time></trkpt><trkpt lat="45.646145203617706" lon="10.894971625300467"><ele>131.0</ele><time>2026-04-26T09:04:53Z</time></trkpt><trkpt lat="45.64607071928726" lon="10.894838001103698"><ele>132.0</ele><time>2026-04-26T09:04:54Z</time></trkpt><trkpt lat="45.64600944553127" lon="10.894721880366758"><ele>133.0</ele><time>2026-04-26T09:04:55Z</time></trkpt><trkpt lat="45.64595217201854" lon="10.894623814145964"><ele>134.0</ele><time>2026-04-26T09:04:56Z</time></trkpt><trkpt lat="45.645900158702105" lon="10.89453577997318"><ele>135.0</ele><time>2026-04-26T09:04:57Z</time></trkpt><trkpt lat="45.645842320476" lon="10.894431160450678"><ele>136.0</ele><time>2026-04-26T09:04:59Z</time></trkpt><trkpt lat="45.645633738070565" lon="10.894633273929577"><ele>136.0</ele><time>2026-04-26T09:05:12Z</time></trkpt><trkpt lat="45.64556664267185" lon="10.894709002016691"><ele>136.0</ele><time>2026-04-26T09:05:14Z</time></trkpt><trkpt lat="45.64551427665561" lon="10.89477479342219"><ele>136.0</ele><time>2026-04-26T09:05:16Z</time></trkpt><trkpt lat="45.64543957761125" lon="10.894831876317797"><ele>136.0</ele><time>2026-04-26T09:05:19Z</time></trkpt><trkpt lat="45.64538259738902" lon="10.894897583333922"><ele>136.0</ele><time>2026-04-26T09:05:29Z</time></trkpt><trkpt lat="45.64544756942807" lon="10.89484478303274"><ele>136.0</ele><time>2026-04-26T09:07:00Z</time></trkpt><trkpt lat="45.645482646284464" lon="10.894763855783482"><ele>136.0</ele><time>2026-04-26T09:07:01Z</time></trkpt><trkpt lat="45.64554631605588" lon="10.894698637833608"><ele>136.0</ele><time>2026-04-26T09:07:02Z</time></trkpt><trkpt lat="45.64561689303769" lon="10.894626097697389"><ele>136.0</ele><time>2026-04-26T09:07:03Z</time></trkpt><trkpt lat="45.645678232545954" lon="10.894553110869257"><ele>136.0</ele><time>2026-04-26T09:07:04Z</time></trkpt><trkpt lat="45.64573359861289" lon="10.89448999646833"><ele>136.0</ele><time>2026-04-26T09:07:05Z</time></trkpt><trkpt lat="45.64580686648922" lon="10.894405953445625"><ele>136.0</ele><time>2026-04-26T09:07:07Z</time></trkpt><trkpt lat="45.64585999494582" lon="10.89445549875475"><ele>136.0</ele><time>2026-04-26T09:07:09Z</time></trkpt><trkpt lat="45.6458993606507" lon="10.89454395040709"><ele>136.0</ele><time>2026-04-26T09:07:10Z</time></trkpt><trkpt lat="45.64594364052842" lon="10.89466290968288"><ele>136.0</ele><time>2026-04-26T09:07:11Z</time></trkpt><trkpt lat="45.6459975650696" lon="10.894766036488667"><ele>136.0</ele><time>2026-04-26T09:07:12Z</time></trkpt><trkpt lat="45.64606418488056" lon="10.894885074847247"><ele>136.0</ele><time>2026-04-26T09:07:13Z</time></trkpt><trkpt lat="45.6461298594172" lon="10.895006223045945"><ele>134.75</ele><time>2026-04-26T09:07:14Z</time></trkpt><trkpt lat="45.64620047904062" lon="10.895130981191597"><ele>133.5</ele><time>2026-04-26T09:07:15Z</time></trkpt><trkpt lat="45.646282682409606" lon="10.895251782193139"><ele>132.25</ele><time>2026-04-26T09:07:16Z</time></trkpt><trkpt lat="45.64636817460672" lon="10.89536989412857"><ele>131.0</ele><time>2026-04-26T09:07:17Z</time></trkpt><trkpt lat="45.6464663850486" lon="10.895508456714916"><ele>131.0</ele><time>2026-04-26T09:07:18Z</time></trkpt><trkpt lat="45.64657123704754" lon="10.895642886613043"><ele>131.0</ele><time>2026-04-26T09:07:19Z</time></trkpt><trkpt lat="45.6466832520457" lon="10.895772962446896"><ele>131.0</ele><time>2026-04-26T09:07:20Z</time></trkpt><trkpt lat="45.64679817483954" lon="10.89590334865175"><ele>131.0</ele><time>2026-04-26T09:07:21Z</time></trkpt><trkpt lat="45.64691578496974" lon="10.896023763101502"><ele>131.5</ele><time>2026-04-26T09:07:22Z</time></trkpt><trkpt lat="45.6470370426386" lon="10.896142321682948"><ele>132.0</ele><time>2026-04-26T09:07:23Z</time></trkpt><trkpt lat="45.64715721206967" lon="10.896262189990606"><ele>132.5</ele><time>2026-04-26T09:07:24Z</time></trkpt><trkpt lat="45.64728561552121" lon="10.896381399869783"><ele>133.0</ele><time>2026-04-26T09:07:25Z</time></trkpt><trkpt lat="45.647417155104385" lon="10.896498882860955"><ele>133.0</ele><time>2026-04-26T09:07:26Z</time></trkpt><trkpt lat="45.64755084455642" lon="10.896617376403759"><ele>133.0</ele><time>2026-04-26T09:07:27Z</time></trkpt><trkpt lat="45.64768592139579" lon="10.896736665406502"><ele>133.0</ele><time>2026-04-26T09:07:28Z</time></trkpt><trkpt lat="45.64781966288131" lon="10.896850827234069"><ele>133.5</ele><time>2026-04-26T09:07:29Z</time></trkpt><trkpt lat="45.64795659229807" lon="10.896959601237167"><ele>134.0</ele><time>2026-04-26T09:07:30Z</time></trkpt><trkpt lat="45.648086858528316" lon="10.897071145640238"><ele>134.5</ele><time>2026-04-26T09:07:31Z</time></trkpt><trkpt lat="45.64820471355599" lon="10.89716503212822"><ele>135.0</ele><time>2026-04-26T09:07:32Z</time></trkpt><trkpt lat="45.6483218213435" lon="10.89725073864628"><ele>135.0</ele><time>2026-04-26T09:07:33Z</time></trkpt><trkpt lat="45.648438927779026" lon="10.897333826621425"><ele>135.0</ele><time>2026-04-26T09:07:34Z</time></trkpt><trkpt lat="45.648563227954796" lon="10.897417986403159"><ele>135.0</ele><time>2026-04-26T09:07:35Z</time></trkpt><trkpt lat="45.648696266279245" lon="10.897505335506027"><ele>135.0</ele><time>2026-04-26T09:07:36Z</time></trkpt><trkpt lat="45.648835169600375" lon="10.89759775193543"><ele>137.33333333333334</ele><time>2026-04-26T09:07:37Z</time></trkpt><trkpt lat="45.64897618908404" lon="10.897673458864839"><ele>139.66666666666669</ele><time>2026-04-26T09:07:38Z</time></trkpt><trkpt lat="45.64912319519624" lon="10.897766115828913"><ele>142.0</ele><time>2026-04-26T09:07:39Z</time></trkpt><trkpt lat="45.64927275848307" lon="10.897850000916135"><ele>142.0</ele><time>2026-04-26T09:07:40Z</time></trkpt><trkpt lat="45.64942131450016" lon="10.897927659339278"><ele>142.0</ele><time>2026-04-26T09:07:41Z</time></trkpt><trkpt lat="45.649567823042176" lon="10.898010064491803"><ele>142.0</ele><time>2026-04-26T09:07:42Z</time></trkpt><trkpt lat="45.649710667906355" lon="10.898084841278097"><ele>139.0</ele><time>2026-04-26T09:07:43Z</time></trkpt><trkpt lat="45.64983482937038" lon="10.89815102148904"><ele>136.0</ele><time>2026-04-26T09:07:44Z</time></trkpt><trkpt lat="45.6499510033607" lon="10.8982229377204"><ele>133.0</ele><time>2026-04-26T09:07:45Z</time></trkpt><trkpt lat="45.650078282902264" lon="10.898296057458527"><ele>130.0</ele><time>2026-04-26T09:07:46Z</time></trkpt><trkpt lat="45.65020971093192" lon="10.898364902745048"><ele>134.33333333333334</ele><time>2026-04-26T09:07:47Z</time></trkpt><trkpt lat="45.650350824691586" lon="10.89844255803308"><ele>138.66666666666666</ele><time>2026-04-26T09:07:48Z</time></trkpt><trkpt lat="45.65049648092261" lon="10.898524938521842"><ele>143.0</ele><time>2026-04-26T09:07:49Z</time></trkpt><trkpt lat="45.65064859515779" lon="10.89861007543672"><ele>143.0</ele><time>2026-04-26T09:07:50Z</time></trkpt><trkpt lat="45.650799014901665" lon="10.898700010929176"><ele>143.0</ele><time>2026-04-26T09:07:51Z</time></trkpt><trkpt lat="45.65093831586255" lon="10.8987932865906"><ele>143.0</ele><time>2026-04-26T09:07:52Z</time></trkpt><trkpt lat="45.65107960687327" lon="10.89887689511349"><ele>138.0</ele><time>2026-04-26T09:07:53Z</time></trkpt><trkpt lat="45.6512265478528" lon="10.898959400263603"><ele>133.0</ele><time>2026-04-26T09:07:54Z</time></trkpt><trkpt lat="45.65137371917476" lon="10.899053353559637"><ele>128.0</ele><time>2026-04-26T09:07:55Z</time></trkpt><trkpt lat="45.65151480372243" lon="10.899154757661028"><ele>135.33333333333331</ele><time>2026-04-26T09:07:56Z</time></trkpt><trkpt lat="45.65165074558008" lon="10.899262017656342"><ele>142.66666666666666</ele><time>2026-04-26T09:07:57Z</time></trkpt><trkpt lat="45.65177467181187" lon="10.899388873757179"><ele>150.0</ele><time>2026-04-26T09:07:58Z</time></trkpt><trkpt lat="45.651912039597306" lon="10.89947707797036"><ele>144.0</ele><time>2026-04-26T09:07:59Z</time></trkpt><trkpt lat="45.65204094849158" lon="10.899608678906327"><ele>138.0</ele><time>2026-04-26T09:08:00Z</time></trkpt><trkpt lat="45.65217697069165" lon="10.899693086161582"><ele>132.0</ele><time>2026-04-26T09:08:01Z</time></trkpt><trkpt lat="45.652301672242146" lon="10.89979979239138"><ele>132.0</ele><time>2026-04-26T09:08:02Z</time></trkpt><trkpt lat="45.65240984651308" lon="10.899911426177955"><ele>132.0</ele><time>2026-04-26T09:08:03Z</time></trkpt><trkpt lat="45.652534772891954" lon="10.899986944092811"><ele>132.0</ele><time>2026-04-26T09:08:04Z</time></trkpt><trkpt lat="45.652653972273924" lon="10.900085621223027"><ele>132.0</ele><time>2026-04-26T09:08:05Z</time></trkpt><trkpt lat="45.65277807794257" lon="10.900189004465112"><ele>132.5</ele><time>2026-04-26T09:08:06Z</time></trkpt><trkpt lat="45.65290278084546" lon="10.900304526143342"><ele>133.0</ele><time>2026-04-26T09:08:07Z</time></trkpt><trkpt lat="45.65302659526946" lon="10.900408281522912"><ele>133.5</ele><time>2026-04-26T09:08:08Z</time></trkpt><trkpt lat="45.65315444493993" lon="10.900509245776878"><ele>134.0</ele><time>2026-04-26T09:08:09Z</time></trkpt><trkpt lat="45.65328954040131" lon="10.900619059635883"><ele>134.0</ele><time>2026-04-26T09:08:10Z</time></trkpt><trkpt lat="45.653420637289265" lon="10.90072604695493"><ele>134.0</ele><time>2026-04-26T09:08:11Z</time></trkpt><trkpt lat="45.65355277287721" lon="10.900825252343937"><ele>134.0</ele><time>2026-04-26T09:08:12Z</time></trkpt><trkpt lat="45.6536756844056" lon="10.900917793423133"><ele>134.0</ele><time>2026-04-26T09:08:13Z</time></trkpt><trkpt lat="45.65379182930205" lon="10.901004356334955"><ele>135.75</ele><time>2026-04-26T09:08:14Z</time></trkpt><trkpt lat="45.65390345726225" lon="10.901078959635178"><ele>137.5</ele><time>2026-04-26T09:08:15Z</time></trkpt><trkpt lat="45.654006240423485" lon="10.901156510950498"><ele>139.25</ele><time>2026-04-26T09:08:16Z</time></trkpt><trkpt lat="45.65412008936691" lon="10.901217762378804"><ele>141.0</ele><time>2026-04-26T09:08:17Z</time></trkpt><trkpt lat="45.65423243437566" lon="10.901264730258715"><ele>141.0</ele><time>2026-04-26T09:08:18Z</time></trkpt><trkpt lat="45.65432818326773" lon="10.90129750018342"><ele>141.0</ele><time>2026-04-26T09:08:19Z</time></trkpt><trkpt lat="45.65441361165242" lon="10.901329044327639"><ele>141.0</ele><time>2026-04-26T09:08:20Z</time></trkpt><trkpt lat="45.65449039286596" lon="10.901352002983243"><ele>141.0</ele><time>2026-04-26T09:08:21Z</time></trkpt><trkpt lat="45.65461070295885" lon="10.901364745202429"><ele>141.0</ele><time>2026-04-26T09:08:23Z</time></trkpt><trkpt lat="45.65468555591666" lon="10.901377064897545"><ele>140.2</ele><time>2026-04-26T09:08:24Z</time></trkpt><trkpt lat="45.65476990507437" lon="10.901422347685012"><ele>139.39999999999998</ele><time>2026-04-26T09:08:25Z</time></trkpt><trkpt lat="45.65486541861064" lon="10.901483844526581"><ele>138.6</ele><time>2026-04-26T09:08:26Z</time></trkpt><trkpt lat="45.65496909269202" lon="10.901538363678245"><ele>137.79999999999998</ele><time>2026-04-26T09:08:27Z</time></trkpt><trkpt lat="45.65508366325406" lon="10.901586821586026"><ele>137.0</ele><time>2026-04-26T09:08:28Z</time></trkpt><trkpt lat="45.65520451564392" lon="10.90163473041863"><ele>137.5</ele><time>2026-04-26T09:08:29Z</time></trkpt><trkpt lat="45.65531556973808" lon="10.901671782825652"><ele>138.0</ele><time>2026-04-26T09:08:30Z</time></trkpt><trkpt lat="45.65543192836601" lon="10.901712218777876"><ele>138.5</ele><time>2026-04-26T09:08:31Z</time></trkpt><trkpt lat="45.65555329264301" lon="10.901755731725162"><ele>139.0</ele><time>2026-04-26T09:08:32Z</time></trkpt><trkpt lat="45.65567253189054" lon="10.901793470956745"><ele>140.0</ele><time>2026-04-26T09:08:33Z</time></trkpt><trkpt lat="45.655797552545586" lon="10.901843178926471"><ele>141.0</ele><time>2026-04-26T09:08:34Z</time></trkpt><trkpt lat="45.65591090717018" lon="10.901888273639393"><ele>142.0</ele><time>2026-04-26T09:08:35Z</time></trkpt><trkpt lat="45.65602284688758" lon="10.901928742762635"><ele>143.0</ele><time>2026-04-26T09:08:36Z</time></trkpt><trkpt lat="45.65612514568019" lon="10.901967049526885"><ele>143.0</ele><time>2026-04-26T09:08:37Z</time></trkpt><trkpt lat="45.65623910013169" lon="10.902015569721065"><ele>143.0</ele><time>2026-04-26T09:08:38Z</time></trkpt><trkpt lat="45.656359833720686" lon="10.902062334716899"><ele>143.0</ele><time>2026-04-26T09:08:39Z</time></trkpt><trkpt lat="45.656473301116016" lon="10.902100913222599"><ele>143.0</ele><time>2026-04-26T09:08:40Z</time></trkpt><trkpt lat="45.65656858958293" lon="10.902137850975135"><ele>143.0</ele><time>2026-04-26T09:08:41Z</time></trkpt><trkpt lat="45.6566637031643" lon="10.902175998806053"><ele>143.0</ele><time>2026-04-26T09:08:42Z</time></trkpt><trkpt lat="45.65674466330995" lon="10.90220989974551"><ele>143.0</ele><time>2026-04-26T09:08:43Z</time></trkpt><trkpt lat="45.65682198506751" lon="10.902254736938177"><ele>143.0</ele><time>2026-04-26T09:08:44Z</time></trkpt><trkpt lat="45.656898561742445" lon="10.902276331524664"><ele>143.0</ele><time>2026-04-26T09:08:45Z</time></trkpt><trkpt lat="45.65697884293734" lon="10.90237567945926"><ele>142.28571428571428</ele><time>2026-04-26T09:08:47Z</time></trkpt><trkpt lat="45.65705240316879" lon="10.902466728196806"><ele>141.57142857142856</ele><time>2026-04-26T09:08:49Z</time></trkpt><trkpt lat="45.65710240234632" lon="10.902523453105015"><ele>140.85714285714286</ele><time>2026-04-26T09:11:10Z</time></trkpt><trkpt lat="45.6571667040721" lon="10.902512032786488"><ele>140.14285714285714</ele><time>2026-04-26T09:14:34Z</time></trkpt><trkpt lat="45.657205463977256" lon="10.902431061019412"><ele>139.42857142857144</ele><time>2026-04-26T09:17:40Z</time></trkpt><trkpt lat="45.65718212827924" lon="10.902335729647783"><ele>138.71428571428572</ele><time>2026-04-26T09:17:43Z</time></trkpt><trkpt lat="45.65713028462164" lon="10.90228132380604"><ele>138.0</ele><time>2026-04-26T09:17:44Z</time></trkpt><trkpt lat="45.657052043930925" lon="10.902247406326492"><ele>138.0</ele><time>2026-04-26T09:17:45Z</time></trkpt><trkpt lat="45.656957364173316" lon="10.902222980744245"><ele>138.0</ele><time>2026-04-26T09:17:46Z</time></trkpt><trkpt lat="45.65686749386176" lon="10.90219012383234"><ele>138.0</ele><time>2026-04-26T09:17:47Z</time></trkpt><trkpt lat="45.65676676075296" lon="10.90215564741739"><ele>138.0</ele><time>2026-04-26T09:17:48Z</time></trkpt><trkpt lat="45.656655883721" lon="10.902118231241623"><ele>138.0</ele><time>2026-04-26T09:17:49Z</time></trkpt><trkpt lat="45.656542179226186" lon="10.902094956631624"><ele>139.25</ele><time>2026-04-26T09:17:50Z</time></trkpt><trkpt lat="45.65642680105601" lon="10.902044393151076"><ele>140.5</ele><time>2026-04-26T09:17:51Z</time></trkpt><trkpt lat="45.65631695119211" lon="10.901998622741544"><ele>141.75</ele><time>2026-04-26T09:17:52Z</time></trkpt><trkpt lat="45.65618742705501" lon="10.901945962538996"><ele>143.0</ele><time>2026-04-26T09:17:53Z</time></trkpt><trkpt lat="45.65605659059706" lon="10.901898160966343"><ele>143.20000000000002</ele><time>2026-04-26T09:17:54Z</time></trkpt><trkpt lat="45.655943245369265" lon="10.901854890214237"><ele>143.4</ele><time>2026-04-26T09:17:55Z</time></trkpt><trkpt lat="45.655832259671335" lon="10.901815661029937"><ele>143.60000000000002</ele><time>2026-04-26T09:17:56Z</time></trkpt><trkpt lat="45.65572959133068" lon="10.901779960268536"><ele>143.8</ele><time>2026-04-26T09:17:57Z</time></trkpt><trkpt lat="45.6556278259576" lon="10.90175074562643"><ele>144.0</ele><time>2026-04-26T09:17:58Z</time></trkpt><trkpt lat="45.655528223590444" lon="10.901699617791376"><ele>142.75</ele><time>2026-04-26T09:17:59Z</time></trkpt><trkpt lat="45.655413635511074" lon="10.901652751224331"><ele>141.5</ele><time>2026-04-26T09:18:00Z</time></trkpt><trkpt lat="45.65528825851826" lon="10.901602461737246"><ele>140.25</ele><time>2026-04-26T09:18:01Z</time></trkpt><trkpt lat="45.655155059896984" lon="10.901556188352513"><ele>139.0</ele><time>2026-04-26T09:18:02Z</time></trkpt><trkpt lat="45.65502946821124" lon="10.901511177777275"><ele>138.5</ele><time>2026-04-26T09:18:03Z</time></trkpt><trkpt lat="45.6548996641648" lon="10.90145817039014"><ele>138.0</ele><time>2026-04-26T09:18:04Z</time></trkpt><trkpt lat="45.65476658384516" lon="10.901403265497624"><ele>137.5</ele><time>2026-04-26T09:18:05Z</time></trkpt><trkpt lat="45.65463910592477" lon="10.901356839378142"><ele>137.0</ele><time>2026-04-26T09:18:06Z</time></trkpt><trkpt lat="45.65450321558875" lon="10.901302284383313"><ele>138.0</ele><time>2026-04-26T09:18:07Z</time></trkpt><trkpt lat="45.65437477491709" lon="10.901255473079422"><ele>139.0</ele><time>2026-04-26T09:18:08Z</time></trkpt><trkpt lat="45.65424002068862" lon="10.901202761435952"><ele>140.0</ele><time>2026-04-26T09:18:09Z</time></trkpt><trkpt lat="45.65410766758838" lon="10.90114562030367"><ele>141.0</ele><time>2026-04-26T09:18:10Z</time></trkpt><trkpt lat="45.65398947940579" lon="10.901085302583697"><ele>141.0</ele><time>2026-04-26T09:18:11Z</time></trkpt><trkpt lat="45.65387119067233" lon="10.90100722055764"><ele>141.0</ele><time>2026-04-26T09:18:12Z</time></trkpt><trkpt lat="45.65375058021451" lon="10.90091789887668"><ele>141.0</ele><time>2026-04-26T09:18:13Z</time></trkpt><trkpt lat="45.653625785121505" lon="10.900825875228279"><ele>141.0</ele><time>2026-04-26T09:18:14Z</time></trkpt><trkpt lat="45.65348790387497" lon="10.900728877756185"><ele>139.25</ele><time>2026-04-26T09:18:15Z</time></trkpt><trkpt lat="45.6533526045825" lon="10.900615559479787"><ele>137.5</ele><time>2026-04-26T09:18:16Z</time></trkpt><trkpt lat="45.65323440177824" lon="10.900520423249146"><ele>135.75</ele><time>2026-04-26T09:18:17Z</time></trkpt><trkpt lat="45.653119804409755" lon="10.900434098792429"><ele>134.0</ele><time>2026-04-26T09:18:18Z</time></trkpt><trkpt lat="45.65301361971734" lon="10.90034895603252"><ele>134.0</ele><time>2026-04-26T09:18:19Z</time></trkpt><trkpt lat="45.65290741332242" lon="10.900259760747286"><ele>134.0</ele><time>2026-04-26T09:18:20Z</time></trkpt><trkpt lat="45.652797859309864" lon="10.900171711125356"><ele>134.0</ele><time>2026-04-26T09:18:21Z</time></trkpt><trkpt lat="45.65267812730021" lon="10.900076089553615"><ele>134.0</ele><time>2026-04-26T09:18:22Z</time></trkpt><trkpt lat="45.65255750336256" lon="10.899976641733693"><ele>133.5</ele><time>2026-04-26T09:18:23Z</time></trkpt><trkpt lat="45.65243731186239" lon="10.899870711889827"><ele>133.0</ele><time>2026-04-26T09:18:24Z</time></trkpt><trkpt lat="45.652307821226415" lon="10.899765545760864"><ele>132.5</ele><time>2026-04-26T09:18:25Z</time></trkpt><trkpt lat="45.65217397415762" lon="10.899658594063142"><ele>132.0</ele><time>2026-04-26T09:18:26Z</time></trkpt><trkpt lat="45.65203987072836" lon="10.89954979630905"><ele>131.0</ele><time>2026-04-26T09:18:27Z</time></trkpt><trkpt lat="45.65191533430395" lon="10.8994437472773"><ele>130.0</ele><time>2026-04-26T09:18:28Z</time></trkpt><trkpt lat="45.65179286793575" lon="10.899338637845045"><ele>129.0</ele><time>2026-04-26T09:18:29Z</time></trkpt><trkpt lat="45.651656555173744" lon="10.899234252918827"><ele>128.0</ele><time>2026-04-26T09:18:30Z</time></trkpt><trkpt lat="45.65152231883419" lon="10.89912947779031"><ele>128.0</ele><time>2026-04-26T09:18:31Z</time></trkpt><trkpt lat="45.65138867982924" lon="10.89903006759221"><ele>128.0</ele><time>2026-04-26T09:18:32Z</time></trkpt><trkpt lat="45.651259410558" lon="10.89894056802556"><ele>128.0</ele><time>2026-04-26T09:18:33Z</time></trkpt><trkpt lat="45.65113247701981" lon="10.898853859518622"><ele>128.0</ele><time>2026-04-26T09:18:34Z</time></trkpt><trkpt lat="45.65099242174307" lon="10.898775710766841"><ele>133.0</ele><time>2026-04-26T09:18:35Z</time></trkpt><trkpt lat="45.65085575261245" lon="10.898696918139422"><ele>138.0</ele><time>2026-04-26T09:18:36Z</time></trkpt><trkpt lat="45.65070776688517" lon="10.898614975307346"><ele>143.0</ele><time>2026-04-26T09:18:37Z</time></trkpt><trkpt lat="45.65056516495778" lon="10.898526179069595"><ele>143.0</ele><time>2026-04-26T09:18:38Z</time></trkpt><trkpt lat="45.650426876559145" lon="10.898441250667764"><ele>143.0</ele><time>2026-04-26T09:18:39Z</time></trkpt><trkpt lat="45.650280651279324" lon="10.898359998043418"><ele>143.0</ele><time>2026-04-26T09:18:40Z</time></trkpt><trkpt lat="45.65013464408372" lon="10.89827778040591"><ele>139.75</ele><time>2026-04-26T09:18:41Z</time></trkpt><trkpt lat="45.650002437500675" lon="10.898203326501877"><ele>136.5</ele><time>2026-04-26T09:18:42Z</time></trkpt><trkpt lat="45.64988588251459" lon="10.898137398043046"><ele>133.25</ele><time>2026-04-26T09:18:43Z</time></trkpt><trkpt lat="45.64976644627722" lon="10.898069651391502"><ele>130.0</ele><time>2026-04-26T09:18:44Z</time></trkpt><trkpt lat="45.64963938165137" lon="10.897995103566473"><ele>130.0</ele><time>2026-04-26T09:18:45Z</time></trkpt><trkpt lat="45.649507708995245" lon="10.897921950025015"><ele>130.0</ele><time>2026-04-26T09:18:46Z</time></trkpt><trkpt lat="45.649372911266134" lon="10.89785076046231"><ele>130.0</ele><time>2026-04-26T09:18:47Z</time></trkpt><trkpt lat="45.64923969874339" lon="10.897776391554428"><ele>130.0</ele><time>2026-04-26T09:18:48Z</time></trkpt><trkpt lat="45.64910133607664" lon="10.897689954689794"><ele>127.0</ele><time>2026-04-26T09:18:49Z</time></trkpt><trkpt lat="45.64895597065376" lon="10.897602928972379"><ele>124.0</ele><time>2026-04-26T09:18:50Z</time></trkpt><trkpt lat="45.6488175445098" lon="10.897517746183787"><ele>121.0</ele><time>2026-04-26T09:18:51Z</time></trkpt><trkpt lat="45.64868368560576" lon="10.897428270042225"><ele>125.66666666666667</ele><time>2026-04-26T09:18:52Z</time></trkpt><trkpt lat="45.64854975892352" lon="10.897341486245764"><ele>130.33333333333334</ele><time>2026-04-26T09:18:53Z</time></trkpt><trkpt lat="45.64841454948675" lon="10.897248507181471"><ele>135.0</ele><time>2026-04-26T09:18:54Z</time></trkpt><trkpt lat="45.64827778607186" lon="10.897151700040139"><ele>135.0</ele><time>2026-04-26T09:18:55Z</time></trkpt><trkpt lat="45.64815042966801" lon="10.897056699130736"><ele>135.0</ele><time>2026-04-26T09:18:56Z</time></trkpt><trkpt lat="45.64801715708947" lon="10.8969532607938"><ele>135.0</ele><time>2026-04-26T09:18:57Z</time></trkpt><trkpt lat="45.64788082442555" lon="10.896841444032063"><ele>134.33333333333334</ele><time>2026-04-26T09:18:58Z</time></trkpt><trkpt lat="45.647750702000295" lon="10.89672448436464"><ele>133.66666666666669</ele><time>2026-04-26T09:18:59Z</time></trkpt><trkpt lat="45.64762205892774" lon="10.896609409939506"><ele>133.0</ele><time>2026-04-26T09:19:00Z</time></trkpt><trkpt lat="45.64749519708789" lon="10.89649925125225"><ele>133.0</ele><time>2026-04-26T09:19:01Z</time></trkpt><trkpt lat="45.6473738292734" lon="10.896389279989366"><ele>133.0</ele><time>2026-04-26T09:19:02Z</time></trkpt><trkpt lat="45.64724567764046" lon="10.896272537442714"><ele>133.0</ele><time>2026-04-26T09:19:03Z</time></trkpt><trkpt lat="45.64712194206364" lon="10.8961531926493"><ele>133.0</ele><time>2026-04-26T09:19:04Z</time></trkpt><trkpt lat="45.64700746430871" lon="10.896044521237728"><ele>132.5</ele><time>2026-04-26T09:19:05Z</time></trkpt><trkpt lat="45.64690430691928" lon="10.895945181488644"><ele>132.0</ele><time>2026-04-26T09:19:06Z</time></trkpt><trkpt lat="45.64679714677554" lon="10.895841698720979"><ele>131.5</ele><time>2026-04-26T09:19:07Z</time></trkpt><trkpt lat="45.64669291833336" lon="10.895723811252248"><ele>131.0</ele><time>2026-04-26T09:19:08Z</time></trkpt><trkpt lat="45.64659021939106" lon="10.89559734089383"><ele>131.0</ele><time>2026-04-26T09:19:09Z</time></trkpt><trkpt lat="45.646489600081054" lon="10.895467150939393"><ele>131.0</ele><time>2026-04-26T09:19:10Z</time></trkpt><trkpt lat="45.64638475246499" lon="10.895332235796083"><ele>131.0</ele><time>2026-04-26T09:19:11Z</time></trkpt><trkpt lat="45.64629952592356" lon="10.895211716564477"><ele>131.0</ele><time>2026-04-26T09:19:12Z</time></trkpt><trkpt lat="45.64622203687129" lon="10.895085743170922"><ele>132.25</ele><time>2026-04-26T09:19:13Z</time></trkpt><trkpt lat="45.64613477362579" lon="10.894954711778462"><ele>133.5</ele><time>2026-04-26T09:19:14Z</time></trkpt><trkpt lat="45.64605918140799" lon="10.894823904543152"><ele>134.75</ele><time>2026-04-26T09:19:15Z</time></trkpt><trkpt lat="45.64599161908172" lon="10.894698966364652"><ele>136.0</ele><time>2026-04-26T09:19:16Z</time></trkpt><trkpt lat="45.64592765206956" lon="10.894595735618262"><ele>136.0</ele><time>2026-04-26T09:19:17Z</time></trkpt><trkpt lat="45.645880412117066" lon="10.894496754521361"><ele>136.0</ele><time>2026-04-26T09:19:18Z</time></trkpt><trkpt lat="45.645840563857305" lon="10.894410892145066"><ele>136.0</ele><time>2026-04-26T09:19:19Z</time></trkpt><trkpt lat="45.64572662273815" lon="10.894495370769908"><ele>136.0</ele><time>2026-04-26T09:19:23Z</time></trkpt><trkpt lat="45.64567901289758" lon="10.894571465586388"><ele>136.0</ele><time>2026-04-26T09:19:24Z</time></trkpt><trkpt lat="45.645621772298895" lon="10.89464372947519"><ele>136.0</ele><time>2026-04-26T09:19:25Z</time></trkpt><trkpt lat="45.645565988272004" lon="10.894702959253959"><ele>136.0</ele><time>2026-04-26T09:19:26Z</time></trkpt><trkpt lat="45.64550934184182" lon="10.894758907092253"><ele>136.0</ele><time>2026-04-26T09:19:27Z</time></trkpt><trkpt lat="45.645426925159974" lon="10.894839139183723"><ele>136.0</ele><time>2026-04-26T09:19:29Z</time></trkpt><trkpt lat="45.64536712392385" lon="10.89489060019764"><ele>136.0</ele><time>2026-04-26T09:19:30Z</time></trkpt><trkpt lat="45.64528090016841" lon="10.894930655994857"><ele>136.0</ele><time>2026-04-26T09:19:31Z</time></trkpt><trkpt lat="45.645208104116946" lon="10.894954269982053"><ele>136.0</ele><time>2026-04-26T09:19:32Z</time></trkpt><trkpt lat="45.64512975497419" lon="10.894965535716354"><ele>139.4</ele><time>2026-04-26T09:19:33Z</time></trkpt><trkpt lat="45.64500282686079" lon="10.894902120499172"><ele>142.8</ele><time>2026-04-26T09:19:35Z</time></trkpt><trkpt lat="45.64490682183066" lon="10.89484000449778"><ele>146.20000000000002</ele><time>2026-04-26T09:19:36Z</time></trkpt><trkpt lat="45.644809699032194" lon="10.894781649109044"><ele>149.6</ele><time>2026-04-26T09:19:37Z</time></trkpt><trkpt lat="45.64472280055751" lon="10.894740619252161"><ele>153.0</ele><time>2026-04-26T09:19:38Z</time></trkpt><trkpt lat="45.644642849380084" lon="10.894702256975377"><ele>153.0</ele><time>2026-04-26T09:19:39Z</time></trkpt><trkpt lat="45.644563502011295" lon="10.894652073718436"><ele>153.0</ele><time>2026-04-26T09:19:40Z</time></trkpt><trkpt lat="45.64447723114068" lon="10.894591063786072"><ele>153.0</ele><time>2026-04-26T09:19:41Z</time></trkpt><trkpt lat="45.64441455284386" lon="10.894528534956834"><ele>153.0</ele><time>2026-04-26T09:19:42Z</time></trkpt><trkpt lat="45.64435361455074" lon="10.894492497846734"><ele>153.0</ele><time>2026-04-26T09:19:43Z</time></trkpt><trkpt lat="45.64428067545079" lon="10.894443145709078"><ele>153.0</ele><time>2026-04-26T09:19:44Z</time></trkpt><trkpt lat="45.644221538527695" lon="10.894403270629244"><ele>153.83333333333334</ele><time>2026-04-26T09:19:45Z</time></trkpt><trkpt lat="45.644146925652" lon="10.894368511980472"><ele>154.66666666666666</ele><time>2026-04-26T09:19:46Z</time></trkpt><trkpt lat="45.64405804418947" lon="10.89432292536572"><ele>155.5</ele><time>2026-04-26T09:19:47Z</time></trkpt><trkpt lat="45.64395170226684" lon="10.894288743514688"><ele>156.33333333333331</ele><time>2026-04-26T09:19:48Z</time></trkpt><trkpt lat="45.64386743992131" lon="10.894260240170093"><ele>157.16666666666666</ele><time>2026-04-26T09:19:49Z</time></trkpt><trkpt lat="45.64380148818945" lon="10.894236758759442"><ele>158.0</ele><time>2026-04-26T09:19:50Z</time></trkpt><trkpt lat="45.64373165757463" lon="10.894187378444732"><ele>158.0</ele><time>2026-04-26T09:19:51Z</time></trkpt><trkpt lat="45.64364449632676" lon="10.894139534211407"><ele>158.0</ele><time>2026-04-26T09:19:53Z</time></trkpt><trkpt lat="45.643525420952336" lon="10.89408066091282"><ele>158.0</ele><time>2026-04-26T09:19:55Z</time></trkpt><trkpt lat="45.64343882178423" lon="10.894073610080245"><ele>158.0</ele><time>2026-04-26T09:19:56Z</time></trkpt><trkpt lat="45.64334774102055" lon="10.894053171060342"><ele>158.0</ele><time>2026-04-26T09:19:57Z</time></trkpt><trkpt lat="45.64326665510523" lon="10.894034738562969"><ele>160.4</ele><time>2026-04-26T09:19:59Z</time></trkpt><trkpt lat="45.643209961721155" lon="10.893932538511443"><ele>162.8</ele><time>2026-04-26T09:20:01Z</time></trkpt><trkpt lat="45.64313257550901" lon="10.893883217381338"><ele>165.2</ele><time>2026-04-26T09:20:03Z</time></trkpt><trkpt lat="45.643049870769914" lon="10.893840673028276"><ele>167.6</ele><time>2026-04-26T09:20:04Z</time></trkpt><trkpt lat="45.64298299726879" lon="10.893811610032909"><ele>170.0</ele><time>2026-04-26T09:20:05Z</time></trkpt><trkpt lat="45.64286261622978" lon="10.893793813113597"><ele>171.0</ele><time>2026-04-26T09:20:07Z</time></trkpt><trkpt lat="45.64279061839064" lon="10.893793436864028"><ele>172.0</ele><time>2026-04-26T09:20:08Z</time></trkpt><trkpt lat="45.64271503972064" lon="10.893801436765598"><ele>173.0</ele><time>2026-04-26T09:20:09Z</time></trkpt><trkpt lat="45.642619249381056" lon="10.89379534126806"><ele>174.0</ele><time>2026-04-26T09:20:11Z</time></trkpt><trkpt lat="45.642545445680284" lon="10.893754971739211"><ele>175.0</ele><time>2026-04-26T09:20:13Z</time></trkpt><trkpt lat="45.64245718638232" lon="10.893786378912742"><ele>176.0</ele><time>2026-04-26T09:20:15Z</time></trkpt><trkpt lat="45.64234899100929" lon="10.893879962443814"><ele>176.0</ele><time>2026-04-26T09:20:17Z</time></trkpt><trkpt lat="45.64229087989254" lon="10.893842132714013"><ele>176.0</ele><time>2026-04-26T09:20:22Z</time></trkpt><trkpt lat="45.6422252394326" lon="10.893759038689664"><ele>176.0</ele><time>2026-04-26T09:20:24Z</time></trkpt><trkpt lat="45.64219169929196" lon="10.893596322156643"><ele>176.0</ele><time>2026-04-26T09:20:26Z</time></trkpt><trkpt lat="45.64216745798706" lon="10.893484316110774"><ele>176.0</ele><time>2026-04-26T09:20:27Z</time></trkpt><trkpt lat="45.64211641805421" lon="10.893428920505022"><ele>176.0</ele><time>2026-04-26T09:20:28Z</time></trkpt><trkpt lat="45.642139434809465" lon="10.89332896045753"><ele>174.20000000000002</ele><time>2026-04-26T09:20:30Z</time></trkpt><trkpt lat="45.64219494251859" lon="10.893191580841847"><ele>172.4</ele><time>2026-04-26T09:20:32Z</time></trkpt><trkpt lat="45.64225161478748" lon="10.893118497107922"><ele>170.6</ele><time>2026-04-26T09:20:33Z</time></trkpt><trkpt lat="45.642296129532525" lon="10.892951558667464"><ele>168.8</ele><time>2026-04-26T09:20:35Z</time></trkpt><trkpt lat="45.642299944418866" lon="10.8928591840728"><ele>167.0</ele><time>2026-04-26T09:20:36Z</time></trkpt><trkpt lat="45.64228940191425" lon="10.892720307689219"><ele>167.0</ele><time>2026-04-26T09:20:38Z</time></trkpt><trkpt lat="45.642215378565105" lon="10.892630555607859"><ele>167.0</ele><time>2026-04-26T09:20:40Z</time></trkpt><trkpt lat="45.64218652902295" lon="10.892541493086592"><ele>167.0</ele><time>2026-04-26T09:20:41Z</time></trkpt><trkpt lat="45.64218480493298" lon="10.892402638281544"><ele>167.0</ele><time>2026-04-26T09:20:43Z</time></trkpt><trkpt lat="45.642197189246126" lon="10.89229117031192"><ele>167.0</ele><time>2026-04-26T09:20:45Z</time></trkpt><trkpt lat="45.6422087819263" lon="10.892190975047797"><ele>167.0</ele><time>2026-04-26T09:20:46Z</time></trkpt><trkpt lat="45.6422317554166" lon="10.892084257491065"><ele>165.6</ele><time>2026-04-26T09:20:47Z</time></trkpt><trkpt lat="45.64225406534063" lon="10.891994861671858"><ele>164.2</ele><time>2026-04-26T09:20:48Z</time></trkpt><trkpt lat="45.642264594428845" lon="10.891896216019802"><ele>162.8</ele><time>2026-04-26T09:20:49Z</time></trkpt><trkpt lat="45.642285126299" lon="10.891759462945785"><ele>161.4</ele><time>2026-04-26T09:20:51Z</time></trkpt><trkpt lat="45.64233037211422" lon="10.891560975958534"><ele>160.0</ele><time>2026-04-26T09:20:53Z</time></trkpt><trkpt lat="45.642356620509084" lon="10.8914143752048"><ele>158.5</ele><time>2026-04-26T09:20:54Z</time></trkpt><trkpt lat="45.64238157761219" lon="10.891264763401914"><ele>157.0</ele><time>2026-04-26T09:20:55Z</time></trkpt><trkpt lat="45.64241154047523" lon="10.891103241702643"><ele>155.5</ele><time>2026-04-26T09:20:56Z</time></trkpt><trkpt lat="45.64246421877774" lon="10.890928306761406"><ele>154.0</ele><time>2026-04-26T09:20:57Z</time></trkpt><trkpt lat="45.64250951238357" lon="10.890756074905786"><ele>152.2</ele><time>2026-04-26T09:20:58Z</time></trkpt><trkpt lat="45.642548753123336" lon="10.890590704098903"><ele>150.4</ele><time>2026-04-26T09:20:59Z</time></trkpt><trkpt lat="45.64258458307074" lon="10.89043366957408"><ele>148.6</ele><time>2026-04-26T09:21:00Z</time></trkpt><trkpt lat="45.64261318353541" lon="10.890305238977074"><ele>146.8</ele><time>2026-04-26T09:21:01Z</time></trkpt><trkpt lat="45.64264447312795" lon="10.89018557675335"><ele>145.0</ele><time>2026-04-26T09:21:02Z</time></trkpt><trkpt lat="45.642666877466795" lon="10.890095369732084"><ele>143.83333333333334</ele><time>2026-04-26T09:21:03Z</time></trkpt><trkpt lat="45.64269151723452" lon="10.890005862088564"><ele>142.66666666666669</ele><time>2026-04-26T09:21:05Z</time></trkpt><trkpt lat="45.642813721061465" lon="10.890002354702222"><ele>141.5</ele><time>2026-04-26T09:21:18Z</time></trkpt><trkpt lat="45.642895332085594" lon="10.890029739344229"><ele>140.33333333333334</ele><time>2026-04-26T09:21:19Z</time></trkpt><trkpt lat="45.64295813210019" lon="10.890044807420322"><ele>139.16666666666666</ele><time>2026-04-26T09:21:20Z</time></trkpt><trkpt lat="45.643020383760245" lon="10.890071527397419"><ele>138.0</ele><time>2026-04-26T09:21:26Z</time></trkpt><trkpt lat="45.64294641612306" lon="10.890050367361857"><ele>138.0</ele><time>2026-04-26T09:21:30Z</time></trkpt><trkpt lat="45.64284979359113" lon="10.890025408009073"><ele>138.0</ele><time>2026-04-26T09:21:34Z</time></trkpt><trkpt lat="45.64265115579027" lon="10.88980946048527"><ele>138.0</ele><time>2026-04-26T09:21:37Z</time></trkpt><trkpt lat="45.642569546649284" lon="10.88979961113211"><ele>138.0</ele><time>2026-04-26T09:21:39Z</time></trkpt><trkpt lat="45.642481720024776" lon="10.889775549759301"><ele>138.0</ele><time>2026-04-26T09:21:41Z</time></trkpt><trkpt lat="45.642412159390425" lon="10.889744788430727"><ele>138.0</ele><time>2026-04-26T09:21:44Z</time></trkpt><trkpt lat="45.642480854400084" lon="10.889810531408093"><ele>138.0</ele><time>2026-04-26T09:21:47Z</time></trkpt><trkpt lat="45.64255585545756" lon="10.889816433483121"><ele>138.0</ele><time>2026-04-26T09:21:48Z</time></trkpt><trkpt lat="45.64265702703431" lon="10.889813925550529"><ele>138.0</ele><time>2026-04-26T09:21:49Z</time></trkpt><trkpt lat="45.64273631119542" lon="10.889821630560496"><ele>138.0</ele><time>2026-04-26T09:21:50Z</time></trkpt><trkpt lat="45.642834931226844" lon="10.889840408193256"><ele>137.5</ele><time>2026-04-26T09:21:51Z</time></trkpt><trkpt lat="45.64291453853888" lon="10.889855784182423"><ele>137.0</ele><time>2026-04-26T09:21:52Z</time></trkpt><trkpt lat="45.64298128385863" lon="10.889885681016466"><ele>136.5</ele><time>2026-04-26T09:21:53Z</time></trkpt><trkpt lat="45.643046435283935" lon="10.8898426422269"><ele>136.0</ele><time>2026-04-26T09:21:56Z</time></trkpt><trkpt lat="45.64309353760858" lon="10.889652405794509"><ele>135.5</ele><time>2026-04-26T09:21:58Z</time></trkpt><trkpt lat="45.643103857862016" lon="10.889538125222181"><ele>135.0</ele><time>2026-04-26T09:21:59Z</time></trkpt><trkpt lat="45.643117931605076" lon="10.889391209775763"><ele>135.0</ele><time>2026-04-26T09:22:00Z</time></trkpt><trkpt lat="45.64312752118033" lon="10.889299274637974"><ele>135.0</ele><time>2026-04-26T09:22:01Z</time></trkpt><trkpt lat="45.643145423468205" lon="10.889203860868768"><ele>135.0</ele><time>2026-04-26T09:22:02Z</time></trkpt><trkpt lat="45.64316664867896" lon="10.88910574065797"><ele>135.0</ele><time>2026-04-26T09:22:04Z</time></trkpt><trkpt lat="45.642970062474554" lon="10.888942628582056"><ele>135.0</ele><time>2026-04-26T09:22:07Z</time></trkpt><trkpt lat="45.64290986129174" lon="10.888882211720432"><ele>134.66666666666666</ele><time>2026-04-26T09:22:08Z</time></trkpt><trkpt lat="45.642849652631504" lon="10.888818669370025"><ele>134.33333333333334</ele><time>2026-04-26T09:22:09Z</time></trkpt><trkpt lat="45.642775796405154" lon="10.888735744528267"><ele>134.0</ele><time>2026-04-26T09:22:10Z</time></trkpt><trkpt lat="45.64270613847462" lon="10.888656570372527"><ele>133.66666666666669</ele><time>2026-04-26T09:22:11Z</time></trkpt><trkpt lat="45.64262355500602" lon="10.888567326131199"><ele>133.33333333333334</ele><time>2026-04-26T09:22:12Z</time></trkpt><trkpt lat="45.64256841095994" lon="10.888513890786957"><ele>133.0</ele><time>2026-04-26T09:22:13Z</time></trkpt><trkpt lat="45.642517246204946" lon="10.88844666554526"><ele>132.33333333333334</ele><time>2026-04-26T09:22:14Z</time></trkpt><trkpt lat="45.642468414932864" lon="10.888386324370401"><ele>131.66666666666669</ele><time>2026-04-26T09:22:15Z</time></trkpt><trkpt lat="45.642410738750094" lon="10.88831943730535"><ele>131.0</ele><time>2026-04-26T09:22:16Z</time></trkpt><trkpt lat="45.64235569448008" lon="10.888256605528515"><ele>130.33333333333334</ele><time>2026-04-26T09:22:17Z</time></trkpt><trkpt lat="45.642282558089136" lon="10.888184079065157"><ele>129.66666666666666</ele><time>2026-04-26T09:22:18Z</time></trkpt><trkpt lat="45.64220866649856" lon="10.888107701410231"><ele>129.0</ele><time>2026-04-26T09:22:19Z</time></trkpt><trkpt lat="45.64213969640182" lon="10.88801946736995"><ele>128.99999999999997</ele><time>2026-04-26T09:22:20Z</time></trkpt><trkpt lat="45.64208298401212" lon="10.887964793078032"><ele>129.0</ele><time>2026-04-26T09:22:21Z</time></trkpt><trkpt lat="45.64202264068821" lon="10.887909983624997"><ele>129.0</ele><time>2026-04-26T09:22:22Z</time></trkpt><trkpt lat="45.64196614056561" lon="10.887848467040412"><ele>129.0</ele><time>2026-04-26T09:22:23Z</time></trkpt><trkpt lat="45.64189621281014" lon="10.887772692103532"><ele>129.0</ele><time>2026-04-26T09:22:24Z</time></trkpt><trkpt lat="45.64184773575247" lon="10.887709835383097"><ele>128.99999999999997</ele><time>2026-04-26T09:22:25Z</time></trkpt><trkpt lat="45.64177403212504" lon="10.887649019871287"><ele>129.0</ele><time>2026-04-26T09:22:26Z</time></trkpt><trkpt lat="45.64170530640721" lon="10.887575525247525"><ele>128.4</ele><time>2026-04-26T09:22:27Z</time></trkpt><trkpt lat="45.64162727300598" lon="10.887486867002266"><ele>127.80000000000001</ele><time>2026-04-26T09:22:28Z</time></trkpt><trkpt lat="45.6415445113405" lon="10.887397092098013"><ele>127.19999999999999</ele><time>2026-04-26T09:22:29Z</time></trkpt><trkpt lat="45.64147999346667" lon="10.887328470961243"><ele>126.6</ele><time>2026-04-26T09:22:30Z</time></trkpt><trkpt lat="45.64141667641152" lon="10.887261376831324"><ele>126.0</ele><time>2026-04-26T09:22:31Z</time></trkpt><trkpt lat="45.64133906471115" lon="10.887181798784152"><ele>126.0</ele><time>2026-04-26T09:22:32Z</time></trkpt><trkpt lat="45.64127151510167" lon="10.887106546574103"><ele>126.0</ele><time>2026-04-26T09:22:33Z</time></trkpt><trkpt lat="45.641194474435075" lon="10.887036515399917"><ele>126.0</ele><time>2026-04-26T09:22:34Z</time></trkpt><trkpt lat="45.64114081912307" lon="10.886971012032632"><ele>126.0</ele><time>2026-04-26T09:22:35Z</time></trkpt><trkpt lat="45.64103294439847" lon="10.886864059489067"><ele>126.0</ele><time>2026-04-26T09:22:37Z</time></trkpt><trkpt lat="45.640954745717345" lon="10.886727836843948"><ele>125.4</ele><time>2026-04-26T09:22:39Z</time></trkpt><trkpt lat="45.6408839424441" lon="10.886662194691619"><ele>124.8</ele><time>2026-04-26T09:22:40Z</time></trkpt><trkpt lat="45.64079567865882" lon="10.886578157667362"><ele>124.20000000000002</ele><time>2026-04-26T09:22:41Z</time></trkpt><trkpt lat="45.64070730081633" lon="10.886475749353934"><ele>123.60000000000001</ele><time>2026-04-26T09:22:42Z</time></trkpt><trkpt lat="45.64062281011711" lon="10.886387296971755"><ele>123.0</ele><time>2026-04-26T09:22:43Z</time></trkpt><trkpt lat="45.64053413985852" lon="10.886306279140177"><ele>123.0</ele><time>2026-04-26T09:22:44Z</time></trkpt><trkpt lat="45.64045644266744" lon="10.88623042398085"><ele>123.0</ele><time>2026-04-26T09:22:45Z</time></trkpt><trkpt lat="45.64037184592773" lon="10.886149566083706"><ele>123.0</ele><time>2026-04-26T09:22:46Z</time></trkpt><trkpt lat="45.6402945856897" lon="10.886073827869073"><ele>123.0</ele><time>2026-04-26T09:22:47Z</time></trkpt><trkpt lat="45.64023882703212" lon="10.88602293346033"><ele>123.0</ele><time>2026-04-26T09:22:48Z</time></trkpt><trkpt lat="45.640175973288365" lon="10.885962527901114"><ele>123.0</ele><time>2026-04-26T09:22:49Z</time></trkpt><trkpt lat="45.640095935226235" lon="10.885868705841023"><ele>123.4</ele><time>2026-04-26T09:22:50Z</time></trkpt><trkpt lat="45.64000933498576" lon="10.88578389069757"><ele>123.80000000000001</ele><time>2026-04-26T09:22:51Z</time></trkpt><trkpt lat="45.639913635431" lon="10.885690128543718"><ele>124.2</ele><time>2026-04-26T09:22:52Z</time></trkpt><trkpt lat="45.63982274528002" lon="10.885619587533672"><ele>124.6</ele><time>2026-04-26T09:22:53Z</time></trkpt><trkpt lat="45.639724769555514" lon="10.885542785103087"><ele>125.0</ele><time>2026-04-26T09:22:54Z</time></trkpt><trkpt lat="45.63961405167729" lon="10.885441486573692"><ele>125.0</ele><time>2026-04-26T09:22:55Z</time></trkpt><trkpt lat="45.63950847893439" lon="10.885335449657191"><ele>125.0</ele><time>2026-04-26T09:22:56Z</time></trkpt><trkpt lat="45.639427873492934" lon="10.885261830029606"><ele>125.0</ele><time>2026-04-26T09:22:57Z</time></trkpt><trkpt lat="45.6393411920643" lon="10.885183294902635"><ele>125.0</ele><time>2026-04-26T09:22:58Z</time></trkpt><trkpt lat="45.63925758465887" lon="10.885098965800259"><ele>125.0</ele><time>2026-04-26T09:22:59Z</time></trkpt><trkpt lat="45.639170810652836" lon="10.885009674515823"><ele>124.8</ele><time>2026-04-26T09:23:00Z</time></trkpt><trkpt lat="45.63908662712033" lon="10.884918305061602"><ele>124.6</ele><time>2026-04-26T09:23:01Z</time></trkpt><trkpt lat="45.63900322083211" lon="10.884837830043258"><ele>124.4</ele><time>2026-04-26T09:23:02Z</time></trkpt><trkpt lat="45.638915654512324" lon="10.884761824033832"><ele>124.2</ele><time>2026-04-26T09:23:03Z</time></trkpt><trkpt lat="45.6388262856419" lon="10.88467447390718"><ele>124.0</ele><time>2026-04-26T09:23:04Z</time></trkpt><trkpt lat="45.6387230798423" lon="10.8845815527714"><ele>124.0</ele><time>2026-04-26T09:23:05Z</time></trkpt><trkpt lat="45.63863633434577" lon="10.884497338827357"><ele>124.0</ele><time>2026-04-26T09:23:06Z</time></trkpt><trkpt lat="45.63856064303737" lon="10.884422002327343"><ele>124.0</ele><time>2026-04-26T09:23:07Z</time></trkpt><trkpt lat="45.638479930607666" lon="10.884348564259575"><ele>124.0</ele><time>2026-04-26T09:23:08Z</time></trkpt><trkpt lat="45.63839514411076" lon="10.884270016210097"><ele>124.0</ele><time>2026-04-26T09:23:09Z</time></trkpt><trkpt lat="45.638293593568115" lon="10.884168817696567"><ele>123.80000000000001</ele><time>2026-04-26T09:23:10Z</time></trkpt><trkpt lat="45.638205779388954" lon="10.884083861666964"><ele>123.60000000000001</ele><time>2026-04-26T09:23:11Z</time></trkpt><trkpt lat="45.63812494389904" lon="10.88401219011906"><ele>123.4</ele><time>2026-04-26T09:23:12Z</time></trkpt><trkpt lat="45.63803204873376" lon="10.883917928774581"><ele>123.2</ele><time>2026-04-26T09:23:13Z</time></trkpt><trkpt lat="45.63793299532215" lon="10.883821540003028"><ele>123.0</ele><time>2026-04-26T09:23:14Z</time></trkpt><trkpt lat="45.63782100323715" lon="10.883718870042346"><ele>123.0</ele><time>2026-04-26T09:23:15Z</time></trkpt><trkpt lat="45.63772745861681" lon="10.883630071008454"><ele>123.00000000000001</ele><time>2026-04-26T09:23:16Z</time></trkpt><trkpt lat="45.63763793159533" lon="10.88354824927874"><ele>123.00000000000001</ele><time>2026-04-26T09:23:17Z</time></trkpt><trkpt lat="45.63755649199323" lon="10.883468777350556"><ele>123.0</ele><time>2026-04-26T09:23:18Z</time></trkpt><trkpt lat="45.63746287747104" lon="10.883381196884201"><ele>123.0</ele><time>2026-04-26T09:23:19Z</time></trkpt><trkpt lat="45.637365490976784" lon="10.883283872887729"><ele>123.0</ele><time>2026-04-26T09:23:20Z</time></trkpt><trkpt lat="45.63725918869156" lon="10.883179501764834"><ele>123.0</ele><time>2026-04-26T09:23:21Z</time></trkpt><trkpt lat="45.63715203131867" lon="10.88307788185078"><ele>123.0</ele><time>2026-04-26T09:23:22Z</time></trkpt><trkpt lat="45.637056736433244" lon="10.88298897154084"><ele>123.0</ele><time>2026-04-26T09:23:23Z</time></trkpt><trkpt lat="45.6369747819836" lon="10.882904333820212"><ele>123.2</ele><time>2026-04-26T09:23:24Z</time></trkpt><trkpt lat="45.63689092699448" lon="10.882828640116253"><ele>123.4</ele><time>2026-04-26T09:23:25Z</time></trkpt><trkpt lat="45.63680543236505" lon="10.882750268851005"><ele>123.60000000000001</ele><time>2026-04-26T09:23:26Z</time></trkpt><trkpt lat="45.636724955108804" lon="10.882671703993179"><ele>123.80000000000001</ele><time>2026-04-26T09:23:27Z</time></trkpt><trkpt lat="45.636630462417614" lon="10.882576577690555"><ele>124.0</ele><time>2026-04-26T09:23:28Z</time></trkpt><trkpt lat="45.63652388919752" lon="10.882480803007509"><ele>124.0</ele><time>2026-04-26T09:23:29Z</time></trkpt><trkpt lat="45.63642180282919" lon="10.88237709026869"><ele>124.0</ele><time>2026-04-26T09:23:30Z</time></trkpt><trkpt lat="45.63631979870225" lon="10.882281615294753"><ele>124.0</ele><time>2026-04-26T09:23:31Z</time></trkpt><trkpt lat="45.63623745208614" lon="10.882204020959959"><ele>124.0</ele><time>2026-04-26T09:23:32Z</time></trkpt><trkpt lat="45.636162492024006" lon="10.882133448746789"><ele>124.0</ele><time>2026-04-26T09:23:33Z</time></trkpt><trkpt lat="45.63608918775646" lon="10.882065001130886"><ele>124.0</ele><time>2026-04-26T09:23:34Z</time></trkpt><trkpt lat="45.63601197199413" lon="10.88198987439938"><ele>124.0</ele><time>2026-04-26T09:23:35Z</time></trkpt><trkpt lat="45.63592081815005" lon="10.881912030971446"><ele>124.0</ele><time>2026-04-26T09:23:36Z</time></trkpt><trkpt lat="45.63583829901983" lon="10.881831762738251"><ele>124.0</ele><time>2026-04-26T09:23:37Z</time></trkpt><trkpt lat="45.63576571611033" lon="10.88176800908772"><ele>124.0</ele><time>2026-04-26T09:23:38Z</time></trkpt><trkpt lat="45.635694138149155" lon="10.881713762698691"><ele>124.80000000000001</ele><time>2026-04-26T09:23:40Z</time></trkpt><trkpt lat="45.63567310158016" lon="10.881855912050854"><ele>125.60000000000001</ele><time>2026-04-26T09:23:42Z</time></trkpt><trkpt lat="45.635666828466086" lon="10.881981766324289"><ele>126.4</ele><time>2026-04-26T09:23:43Z</time></trkpt><trkpt lat="45.63565811287712" lon="10.88211088801289"><ele>127.2</ele><time>2026-04-26T09:23:44Z</time></trkpt><trkpt lat="45.63563017721361" lon="10.882266596301923"><ele>128.0</ele><time>2026-04-26T09:23:45Z</time></trkpt><trkpt lat="45.63560475683273" lon="10.882385116086121"><ele>128.0</ele><time>2026-04-26T09:23:46Z</time></trkpt><trkpt lat="45.635553374795315" lon="10.882491923714001"><ele>128.0</ele><time>2026-04-26T09:23:48Z</time></trkpt><trkpt lat="45.63544808705082" lon="10.882448047261123"><ele>128.0</ele><time>2026-04-26T09:23:56Z</time></trkpt><trkpt lat="45.63540902468738" lon="10.882338337904566"><ele>128.0</ele><time>2026-04-26T09:23:57Z</time></trkpt><trkpt lat="45.63537962819879" lon="10.882234379824801"><ele>128.0</ele><time>2026-04-26T09:23:58Z</time></trkpt><trkpt lat="45.63533731749644" lon="10.882127453449119"><ele>128.5</ele><time>2026-04-26T09:23:59Z</time></trkpt><trkpt lat="45.63528800924426" lon="10.881991370519975"><ele>129.0</ele><time>2026-04-26T09:24:00Z</time></trkpt><trkpt lat="45.63523530092546" lon="10.88185016437276"><ele>129.5</ele><time>2026-04-26T09:24:01Z</time></trkpt><trkpt lat="45.63517562897584" lon="10.881698338407764"><ele>130.0</ele><time>2026-04-26T09:24:02Z</time></trkpt><trkpt lat="45.63510784643816" lon="10.881523530589043"><ele>130.0</ele><time>2026-04-26T09:24:03Z</time></trkpt><trkpt lat="45.63503247072073" lon="10.88134306522744"><ele>130.0</ele><time>2026-04-26T09:24:04Z</time></trkpt><trkpt lat="45.63495240726581" lon="10.881180098256879"><ele>130.0</ele><time>2026-04-26T09:24:05Z</time></trkpt><trkpt lat="45.634859464156065" lon="10.881017150321652"><ele>130.0</ele><time>2026-04-26T09:24:06Z</time></trkpt><trkpt lat="45.63475052804091" lon="10.880877154107008"><ele>129.5</ele><time>2026-04-26T09:24:07Z</time></trkpt><trkpt lat="45.63462813556354" lon="10.880757474305796"><ele>129.0</ele><time>2026-04-26T09:24:08Z</time></trkpt><trkpt lat="45.63450988773196" lon="10.880639877126104"><ele>128.5</ele><time>2026-04-26T09:24:09Z</time></trkpt><trkpt lat="45.63438152639548" lon="10.880527384788964"><ele>128.0</ele><time>2026-04-26T09:24:10Z</time></trkpt><trkpt lat="45.634249009590704" lon="10.880415919309378"><ele>128.0</ele><time>2026-04-26T09:24:11Z</time></trkpt><trkpt lat="45.63410969379544" lon="10.880326221044488"><ele>128.0</ele><time>2026-04-26T09:24:12Z</time></trkpt><trkpt lat="45.63396553625829" lon="10.880246328083933"><ele>128.0</ele><time>2026-04-26T09:24:13Z</time></trkpt><trkpt lat="45.6338220682729" lon="10.88018681813059"><ele>128.0</ele><time>2026-04-26T09:24:14Z</time></trkpt><trkpt lat="45.63367643288555" lon="10.880132219544379"><ele>128.0</ele><time>2026-04-26T09:24:15Z</time></trkpt><trkpt lat="45.63352294686839" lon="10.880082197617233"><ele>128.0</ele><time>2026-04-26T09:24:16Z</time></trkpt><trkpt lat="45.633362964030596" lon="10.880047546367477"><ele>127.0</ele><time>2026-04-26T09:24:17Z</time></trkpt><trkpt lat="45.63322046204271" lon="10.879992431136346"><ele>126.0</ele><time>2026-04-26T09:24:18Z</time></trkpt><trkpt lat="45.63306277579212" lon="10.879952361016963"><ele>125.0</ele><time>2026-04-26T09:24:19Z</time></trkpt><trkpt lat="45.6329102476414" lon="10.879920984210548"><ele>126.33333333333333</ele><time>2026-04-26T09:24:20Z</time></trkpt><trkpt lat="45.63275766310581" lon="10.879880548433603"><ele>127.66666666666666</ele><time>2026-04-26T09:24:21Z</time></trkpt><trkpt lat="45.63260115487769" lon="10.879838888603567"><ele>129.0</ele><time>2026-04-26T09:24:22Z</time></trkpt><trkpt lat="45.63244473091899" lon="10.879790650884605"><ele>129.0</ele><time>2026-04-26T09:24:23Z</time></trkpt><trkpt lat="45.63229048324017" lon="10.879732944027655"><ele>129.0</ele><time>2026-04-26T09:24:24Z</time></trkpt><trkpt lat="45.632140209918084" lon="10.879667358933673"><ele>129.0</ele><time>2026-04-26T09:24:25Z</time></trkpt><trkpt lat="45.6319957932526" lon="10.87959015221419"><ele>137.0</ele><time>2026-04-26T09:24:26Z</time></trkpt><trkpt lat="45.631851418969745" lon="10.879508601270903"><ele>145.0</ele><time>2026-04-26T09:24:27Z</time></trkpt><trkpt lat="45.63170503340116" lon="10.87942375894492"><ele>153.0</ele><time>2026-04-26T09:24:28Z</time></trkpt><trkpt lat="45.6315670260488" lon="10.87932450325454"><ele>151.5</ele><time>2026-04-26T09:24:29Z</time></trkpt><trkpt lat="45.63143841572868" lon="10.879221082468288"><ele>150.0</ele><time>2026-04-26T09:24:30Z</time></trkpt><trkpt lat="45.63131331132372" lon="10.879111743955752"><ele>148.5</ele><time>2026-04-26T09:24:31Z</time></trkpt><trkpt lat="45.631185477818896" lon="10.879007586402567"><ele>147.0</ele><time>2026-04-26T09:24:32Z</time></trkpt><trkpt lat="45.63105857869724" lon="10.878895249036901"><ele>147.0</ele><time>2026-04-26T09:24:33Z</time></trkpt><trkpt lat="45.63093068767574" lon="10.87877703016338"><ele>147.0</ele><time>2026-04-26T09:24:34Z</time></trkpt><trkpt lat="45.63080232588867" lon="10.878660193054547"><ele>147.0</ele><time>2026-04-26T09:24:35Z</time></trkpt><trkpt lat="45.630680973499096" lon="10.878560766435188"><ele>147.0</ele><time>2026-04-26T09:24:36Z</time></trkpt><trkpt lat="45.630572866631695" lon="10.878472136199939"><ele>146.5</ele><time>2026-04-26T09:24:37Z</time></trkpt><trkpt lat="45.6304727640656" lon="10.878381004762005"><ele>146.0</ele><time>2026-04-26T09:24:38Z</time></trkpt><trkpt lat="45.63036109059697" lon="10.878285409139002"><ele>145.5</ele><time>2026-04-26T09:24:39Z</time></trkpt><trkpt lat="45.6302399629802" lon="10.878184289462206"><ele>145.0</ele><time>2026-04-26T09:24:40Z</time></trkpt><trkpt lat="45.63011895933744" lon="10.878085749611307"><ele>145.0</ele><time>2026-04-26T09:24:41Z</time></trkpt><trkpt lat="45.630011602035886" lon="10.877993646954062"><ele>145.0</ele><time>2026-04-26T09:24:42Z</time></trkpt><trkpt lat="45.629918112597196" lon="10.87789926656721"><ele>145.0</ele><time>2026-04-26T09:24:43Z</time></trkpt><trkpt lat="45.6298237386467" lon="10.87780447585316"><ele>145.0</ele><time>2026-04-26T09:24:44Z</time></trkpt><trkpt lat="45.62972950032558" lon="10.877719337152055"><ele>145.0</ele><time>2026-04-26T09:24:45Z</time></trkpt><trkpt lat="45.62962296784036" lon="10.877620059756541"><ele>145.0</ele><time>2026-04-26T09:24:46Z</time></trkpt><trkpt lat="45.6295120435228" lon="10.877505995481627"><ele>145.0</ele><time>2026-04-26T09:24:47Z</time></trkpt><trkpt lat="45.629407803572576" lon="10.877394592991287"><ele>145.0</ele><time>2026-04-26T09:24:48Z</time></trkpt><trkpt lat="45.629310826943396" lon="10.877298542313893"><ele>144.6</ele><time>2026-04-26T09:24:49Z</time></trkpt><trkpt lat="45.629224777763326" lon="10.877209031108938"><ele>144.2</ele><time>2026-04-26T09:24:50Z</time></trkpt><trkpt lat="45.62915349390434" lon="10.877109226411868"><ele>143.8</ele><time>2026-04-26T09:24:51Z</time></trkpt><trkpt lat="45.6290857066985" lon="10.877033830291857"><ele>143.4</ele><time>2026-04-26T09:24:52Z</time></trkpt><trkpt lat="45.629017342159514" lon="10.876945510064598"><ele>143.0</ele><time>2026-04-26T09:24:54Z</time></trkpt><trkpt lat="45.628942582585545" lon="10.87685578409809"><ele>143.0</ele><time>2026-04-26T09:24:59Z</time></trkpt><trkpt lat="45.62900270941126" lon="10.876908316363064"><ele>143.0</ele><time>2026-04-26T09:25:21Z</time></trkpt><trkpt lat="45.62909123524519" lon="10.877025647370573"><ele>143.0</ele><time>2026-04-26T09:25:23Z</time></trkpt><trkpt lat="45.6291253426194" lon="10.877101519678764"><ele>143.0</ele><time>2026-04-26T09:25:24Z</time></trkpt><trkpt lat="45.62919074705876" lon="10.877172906202839"><ele>143.0</ele><time>2026-04-26T09:25:25Z</time></trkpt><trkpt lat="45.62925921944325" lon="10.877260933436814"><ele>143.0</ele><time>2026-04-26T09:25:26Z</time></trkpt><trkpt lat="45.62933480697099" lon="10.87734557766506"><ele>143.0</ele><time>2026-04-26T09:25:27Z</time></trkpt><trkpt lat="45.629417704292194" lon="10.877447946793977"><ele>143.0</ele><time>2026-04-26T09:25:28Z</time></trkpt><trkpt lat="45.62950373570894" lon="10.877553909305286"><ele>143.0</ele><time>2026-04-26T09:25:29Z</time></trkpt><trkpt lat="45.62958047445779" lon="10.877648120000076"><ele>143.0</ele><time>2026-04-26T09:25:30Z</time></trkpt><trkpt lat="45.62973136218892" lon="10.877781725029513"><ele>143.5</ele><time>2026-04-26T09:25:31Z</time></trkpt><trkpt lat="45.629843799970644" lon="10.877892858265538"><ele>144.0</ele><time>2026-04-26T09:25:32Z</time></trkpt><trkpt lat="45.629951147916685" lon="10.87799516222809"><ele>144.5</ele><time>2026-04-26T09:25:33Z</time></trkpt><trkpt lat="45.63005928263689" lon="10.878092919262937"><ele>145.0</ele><time>2026-04-26T09:25:34Z</time></trkpt><trkpt lat="45.63018242435327" lon="10.878196822548235"><ele>145.5</ele><time>2026-04-26T09:25:35Z</time></trkpt><trkpt lat="45.63030891779468" lon="10.87829491549384"><ele>146.0</ele><time>2026-04-26T09:25:36Z</time></trkpt><trkpt lat="45.630421167933406" lon="10.878385514110219"><ele>146.5</ele><time>2026-04-26T09:25:37Z</time></trkpt><trkpt lat="45.63052839624204" lon="10.878474518551274"><ele>147.0</ele><time>2026-04-26T09:25:38Z</time></trkpt><trkpt lat="45.63062397254899" lon="10.878548401868668"><ele>147.0</ele><time>2026-04-26T09:25:39Z</time></trkpt><trkpt lat="45.63071961384935" lon="10.878623935265537"><ele>147.0</ele><time>2026-04-26T09:25:40Z</time></trkpt><trkpt lat="45.63081988888121" lon="10.878719079309056"><ele>147.0</ele><time>2026-04-26T09:25:41Z</time></trkpt><trkpt lat="45.63091804830105" lon="10.87879499497055"><ele>147.0</ele><time>2026-04-26T09:25:42Z</time></trkpt><trkpt lat="45.631007297268745" lon="10.878867490352873"><ele>147.0</ele><time>2026-04-26T09:25:43Z</time></trkpt><trkpt lat="45.63107979064149" lon="10.878937015254115"><ele>147.0</ele><time>2026-04-26T09:25:44Z</time></trkpt><trkpt lat="45.631140166941115" lon="10.879007418281196"><ele>147.0</ele><time>2026-04-26T09:25:45Z</time></trkpt><trkpt lat="45.631196504690145" lon="10.879056099469015"><ele>147.0</ele><time>2026-04-26T09:25:46Z</time></trkpt><trkpt lat="45.63128539517785" lon="10.87913290881985"><ele>147.0</ele><time>2026-04-26T09:25:48Z</time></trkpt><trkpt lat="45.63134846293462" lon="10.879186331440224"><ele>147.0</ele><time>2026-04-26T09:25:49Z</time></trkpt><trkpt lat="45.63141939716242" lon="10.879245250059276"><ele>147.0</ele><time>2026-04-26T09:25:50Z</time></trkpt><trkpt lat="45.631478555770876" lon="10.87929368120062"><ele>148.2</ele><time>2026-04-26T09:25:51Z</time></trkpt><trkpt lat="45.631542876623726" lon="10.879344393413575"><ele>149.39999999999998</ele><time>2026-04-26T09:25:52Z</time></trkpt><trkpt lat="45.63160845515413" lon="10.879393456468055"><ele>150.60000000000002</ele><time>2026-04-26T09:25:53Z</time></trkpt><trkpt lat="45.63174599679424" lon="10.879490695805572"><ele>151.8</ele><time>2026-04-26T09:25:55Z</time></trkpt><trkpt lat="45.63185385767172" lon="10.879559452009982"><ele>153.0</ele><time>2026-04-26T09:25:56Z</time></trkpt><trkpt lat="45.63192263060369" lon="10.879598429716282"><ele>148.20000000000002</ele><time>2026-04-26T09:25:57Z</time></trkpt><trkpt lat="45.63198284078076" lon="10.87963088038427"><ele>143.4</ele><time>2026-04-26T09:25:58Z</time></trkpt><trkpt lat="45.63208626500651" lon="10.879684352367407"><ele>138.60000000000002</ele><time>2026-04-26T09:26:00Z</time></trkpt><trkpt lat="45.632169343505275" lon="10.879727305182922"><ele>133.8</ele><time>2026-04-26T09:26:02Z</time></trkpt><trkpt lat="45.63216367087481" lon="10.87948721185554"><ele>129.0</ele><time>2026-04-26T09:26:07Z</time></trkpt><trkpt lat="45.632118098559246" lon="10.87939757811721"><ele>129.0</ele><time>2026-04-26T09:26:09Z</time></trkpt><trkpt lat="45.63215261774949" lon="10.87931635508725"><ele>129.0</ele><time>2026-04-26T09:26:11Z</time></trkpt><trkpt lat="45.63217056761454" lon="10.87921786395756"><ele>129.0</ele><time>2026-04-26T09:26:13.018Z</time></trkpt><trkpt lat="45.63218936124913" lon="10.879074848485603"><ele>129.0</ele><time>2026-04-26T09:26:15.015Z</time></trkpt><trkpt lat="45.6322016205987" lon="10.878940299004839"><ele>129.0</ele><time>2026-04-26T09:26:17Z</time></trkpt><trkpt lat="45.63230702056717" lon="10.878723052155264"><ele>126.2</ele><time>2026-04-26T09:26:18Z</time></trkpt><trkpt lat="45.632348498954606" lon="10.878606079154123"><ele>123.4</ele><time>2026-04-26T09:26:20Z</time></trkpt><trkpt lat="45.63239123380542" lon="10.878425624755513"><ele>120.6</ele><time>2026-04-26T09:26:22Z</time></trkpt><trkpt lat="45.63240919231147" lon="10.878327651614635"><ele>117.8</ele><time>2026-04-26T09:26:23Z</time></trkpt><trkpt lat="45.632443504423584" lon="10.878229993762881"><ele>115.0</ele><time>2026-04-26T09:26:24Z</time></trkpt><trkpt lat="45.63247770014902" lon="10.878092002760837"><ele>113.83333333333334</ele><time>2026-04-26T09:26:25Z</time></trkpt><trkpt lat="45.632502056562046" lon="10.877995117320731"><ele>112.66666666666667</ele><time>2026-04-26T09:26:26Z</time></trkpt><trkpt lat="45.632524114145255" lon="10.877898720620975"><ele>111.5</ele><time>2026-04-26T09:26:27Z</time></trkpt><trkpt lat="45.63255042544299" lon="10.877761949705013"><ele>110.33333333333334</ele><time>2026-04-26T09:26:29Z</time></trkpt><trkpt lat="45.63251185739112" lon="10.87768354630849"><ele>109.16666666666667</ele><time>2026-04-26T09:26:31Z</time></trkpt><trkpt lat="45.632383689268075" lon="10.877640432156673"><ele>108.0</ele><time>2026-04-26T09:26:33Z</time></trkpt><trkpt lat="45.63228398313607" lon="10.877609858053592"><ele>108.25</ele><time>2026-04-26T09:26:34Z</time></trkpt><trkpt lat="45.63218117240681" lon="10.877584124721372"><ele>108.5</ele><time>2026-04-26T09:26:35Z</time></trkpt><trkpt lat="45.63206485383876" lon="10.8775767292139"><ele>108.75</ele><time>2026-04-26T09:26:36Z</time></trkpt><trkpt lat="45.63194506643669" lon="10.877566519455671"><ele>109.0</ele><time>2026-04-26T09:26:37Z</time></trkpt><trkpt lat="45.631821427259716" lon="10.877549896555898"><ele>109.0</ele><time>2026-04-26T09:26:38Z</time></trkpt><trkpt lat="45.63171109260058" lon="10.877541413362886"><ele>109.0</ele><time>2026-04-26T09:26:39Z</time></trkpt><trkpt lat="45.631591930094864" lon="10.877528306421972"><ele>109.0</ele><time>2026-04-26T09:26:40Z</time></trkpt><trkpt lat="45.631454597813644" lon="10.877517182862087"><ele>109.0</ele><time>2026-04-26T09:26:41Z</time></trkpt><trkpt lat="45.63132557137225" lon="10.877504984057708"><ele>109.0</ele><time>2026-04-26T09:26:42Z</time></trkpt><trkpt lat="45.63121094902989" lon="10.87749116111273"><ele>109.0</ele><time>2026-04-26T09:26:43Z</time></trkpt><trkpt lat="45.631119262142484" lon="10.877483644275966"><ele>109.0</ele><time>2026-04-26T09:26:44Z</time></trkpt><trkpt lat="45.631014665822654" lon="10.877472469279317"><ele>109.0</ele><time>2026-04-26T09:26:45Z</time></trkpt><trkpt lat="45.6309022402582" lon="10.877456573632449"><ele>109.0</ele><time>2026-04-26T09:26:46Z</time></trkpt><trkpt lat="45.63080198939142" lon="10.877441528135744"><ele>108.80000000000001</ele><time>2026-04-26T09:26:47Z</time></trkpt><trkpt lat="45.630717650759216" lon="10.877426214155813"><ele>108.60000000000001</ele><time>2026-04-26T09:26:48Z</time></trkpt><trkpt lat="45.63063678260134" lon="10.877400118009154"><ele>108.4</ele><time>2026-04-26T09:26:49Z</time></trkpt><trkpt lat="45.630530478935206" lon="10.877367718264626"><ele>108.2</ele><time>2026-04-26T09:26:50Z</time></trkpt><trkpt lat="45.630410153702414" lon="10.877342646660967"><ele>108.0</ele><time>2026-04-26T09:26:51Z</time></trkpt><trkpt lat="45.630315333782065" lon="10.877317320010716"><ele>109.66666666666667</ele><time>2026-04-26T09:26:52Z</time></trkpt><trkpt lat="45.63023521524012" lon="10.877292143007772"><ele>111.33333333333334</ele><time>2026-04-26T09:26:53Z</time></trkpt><trkpt lat="45.63016345922355" lon="10.877260583076968"><ele>113.0</ele><time>2026-04-26T09:26:54Z</time></trkpt><trkpt lat="45.630101887378935" lon="10.877217489898586"><ele>114.66666666666667</ele><time>2026-04-26T09:26:55Z</time></trkpt><trkpt lat="45.63003095695159" lon="10.877184645655422"><ele>116.33333333333334</ele><time>2026-04-26T09:26:57Z</time></trkpt><trkpt lat="45.630029822917194" lon="10.87733889765786"><ele>118.0</ele><time>2026-04-26T09:27:04Z</time></trkpt><trkpt lat="45.63006695842735" lon="10.877461151924262"><ele>118.00000000000001</ele><time>2026-04-26T09:27:06Z</time></trkpt><trkpt lat="45.63017409261341" lon="10.877525760554342"><ele>118.0</ele><time>2026-04-26T09:27:08Z</time></trkpt><trkpt lat="45.63028452724744" lon="10.87760942460824"><ele>118.0</ele><time>2026-04-26T09:27:10Z</time></trkpt><trkpt lat="45.630354844366586" lon="10.877645548302867"><ele>118.0</ele><time>2026-04-26T09:27:11Z</time></trkpt><trkpt lat="45.63041827789308" lon="10.87766903775727"><ele>118.00000000000001</ele><time>2026-04-26T09:27:12Z</time></trkpt><trkpt lat="45.63048035507191" lon="10.877697617990853"><ele>118.0</ele><time>2026-04-26T09:27:13Z</time></trkpt><trkpt lat="45.63038109446158" lon="10.877724237351117"><ele>118.00000000000001</ele><time>2026-04-26T09:27:19Z</time></trkpt><trkpt lat="45.63030833587432" lon="10.877663733417906"><ele>118.0</ele><time>2026-04-26T09:27:20Z</time></trkpt><trkpt lat="45.630243700922456" lon="10.877620872653168"><ele>118.0</ele><time>2026-04-26T09:27:21Z</time></trkpt><trkpt lat="45.63017314323282" lon="10.87757403114395"><ele>118.0</ele><time>2026-04-26T09:27:22Z</time></trkpt><trkpt lat="45.63008782548706" lon="10.877522121576598"><ele>118.00000000000001</ele><time>2026-04-26T09:27:23Z</time></trkpt><trkpt lat="45.630002510534275" lon="10.877465834214956"><ele>118.0</ele><time>2026-04-26T09:27:24Z</time></trkpt><trkpt lat="45.62991375893192" lon="10.877405112954433"><ele>118.0</ele><time>2026-04-26T09:27:25Z</time></trkpt><trkpt lat="45.629818962381975" lon="10.87733887423774"><ele>118.00000000000001</ele><time>2026-04-26T09:27:26Z</time></trkpt><trkpt lat="45.62972208902409" lon="10.877271426874948"><ele>118.00000000000001</ele><time>2026-04-26T09:27:27Z</time></trkpt><trkpt lat="45.62965928920524" lon="10.877221309234706"><ele>118.0</ele><time>2026-04-26T09:27:28Z</time></trkpt><trkpt lat="45.62958082660322" lon="10.877188867889911"><ele>118.0</ele><time>2026-04-26T09:27:30Z</time></trkpt><trkpt lat="45.629452420464716" lon="10.877298026627994"><ele>123.0</ele><time>2026-04-26T09:27:31Z</time></trkpt><trkpt lat="45.629385762230065" lon="10.877224149854154"><ele>128.0</ele><time>2026-04-26T09:27:32Z</time></trkpt><trkpt lat="45.62931413306466" lon="10.877144628561911"><ele>133.0</ele><time>2026-04-26T09:27:33Z</time></trkpt><trkpt lat="45.62922819469209" lon="10.87704687700639"><ele>138.0</ele><time>2026-04-26T09:27:34Z</time></trkpt><trkpt lat="45.62914194378301" lon="10.876942104409741"><ele>143.0</ele><time>2026-04-26T09:27:35Z</time></trkpt><trkpt lat="45.62906670543865" lon="10.876846701313038"><ele>136.5</ele><time>2026-04-26T09:27:36Z</time></trkpt><trkpt lat="45.62898063503133" lon="10.8767335469136"><ele>130.0</ele><time>2026-04-26T09:27:37Z</time></trkpt><trkpt lat="45.628907614206476" lon="10.876630258710723"><ele>123.5</ele><time>2026-04-26T09:27:38Z</time></trkpt><trkpt lat="45.62882535885255" lon="10.876511088599768"><ele>117.0</ele><time>2026-04-26T09:27:39Z</time></trkpt><trkpt lat="45.62874420302294" lon="10.876387554331345"><ele>117.0</ele><time>2026-04-26T09:27:40Z</time></trkpt><trkpt lat="45.62866049163321" lon="10.876255756748863"><ele>116.99999999999999</ele><time>2026-04-26T09:27:41Z</time></trkpt><trkpt lat="45.62858964510124" lon="10.87614097936395"><ele>116.99999999999999</ele><time>2026-04-26T09:27:42Z</time></trkpt><trkpt lat="45.62852613832859" lon="10.876034758489926"><ele>117.0</ele><time>2026-04-26T09:27:43Z</time></trkpt><trkpt lat="45.62846953383313" lon="10.875940075713373"><ele>117.0</ele><time>2026-04-26T09:27:44Z</time></trkpt><trkpt lat="45.62841366081952" lon="10.875846510071232"><ele>117.66666666666667</ele><time>2026-04-26T09:27:45Z</time></trkpt><trkpt lat="45.62836883149988" lon="10.875771293904346"><ele>118.33333333333334</ele><time>2026-04-26T09:27:46Z</time></trkpt><trkpt lat="45.628291102477874" lon="10.875640877517176"><ele>119.0</ele><time>2026-04-26T09:27:48Z</time></trkpt><trkpt lat="45.62824635042587" lon="10.875565495250488"><ele>119.66666666666667</ele><time>2026-04-26T09:27:49Z</time></trkpt><trkpt lat="45.628199580865044" lon="10.875485535510759"><ele>120.33333333333334</ele><time>2026-04-26T09:27:50Z</time></trkpt><trkpt lat="45.628148764630005" lon="10.875398657374868"><ele>121.0</ele><time>2026-04-26T09:27:51Z</time></trkpt><trkpt lat="45.62807329815965" lon="10.875269635905124"><ele>121.0</ele><time>2026-04-26T09:27:53Z</time></trkpt><trkpt lat="45.627991871345465" lon="10.87513042429701"><ele>121.0</ele><time>2026-04-26T09:27:55Z</time></trkpt><trkpt lat="45.62794155013766" lon="10.87504543416141"><ele>121.0</ele><time>2026-04-26T09:27:56Z</time></trkpt><trkpt lat="45.62787703614558" lon="10.87493660262615"><ele>121.0</ele><time>2026-04-26T09:27:57Z</time></trkpt><trkpt lat="45.62781069196869" lon="10.874825641277269"><ele>121.0</ele><time>2026-04-26T09:27:58Z</time></trkpt><trkpt lat="45.627740309379696" lon="10.874710631459875"><ele>120.4</ele><time>2026-04-26T09:27:59Z</time></trkpt><trkpt lat="45.62767307439155" lon="10.874602857703687"><ele>119.8</ele><time>2026-04-26T09:28:00Z</time></trkpt><trkpt lat="45.62761080738293" lon="10.874506817076012"><ele>119.20000000000002</ele><time>2026-04-26T09:28:01Z</time></trkpt><trkpt lat="45.62755018153938" lon="10.874417762262645"><ele>118.60000000000001</ele><time>2026-04-26T09:28:02Z</time></trkpt><trkpt lat="45.627481108845956" lon="10.874319123189167"><ele>118.0</ele><time>2026-04-26T09:28:03Z</time></trkpt><trkpt lat="45.62741063726771" lon="10.874220560968922"><ele>118.00000000000001</ele><time>2026-04-26T09:28:04Z</time></trkpt><trkpt lat="45.62736050804846" lon="10.874154339552705"><ele>118.0</ele><time>2026-04-26T09:28:05Z</time></trkpt><trkpt lat="45.62728270669668" lon="10.874056962282037"><ele>118.0</ele><time>2026-04-26T09:28:07Z</time></trkpt><trkpt lat="45.62723088024407" lon="10.873995627839335"><ele>118.0</ele><time>2026-04-26T09:28:10Z</time></trkpt><trkpt lat="45.62714250302287" lon="10.873892987270873"><ele>118.00000000000001</ele><time>2026-04-26T09:28:12Z</time></trkpt><trkpt lat="45.627100007258385" lon="10.8738240936685"><ele>118.0</ele><time>2026-04-26T09:28:13Z</time></trkpt><trkpt lat="45.62704072399449" lon="10.87371032484598"><ele>118.50000000000001</ele><time>2026-04-26T09:28:15Z</time></trkpt><trkpt lat="45.62697212458361" lon="10.873657268518624"><ele>119.0</ele><time>2026-04-26T09:28:16Z</time></trkpt><trkpt lat="45.626909692388644" lon="10.873622102533805"><ele>119.5</ele><time>2026-04-26T09:28:17Z</time></trkpt><trkpt lat="45.62684333437209" lon="10.873580243110784"><ele>120.0</ele><time>2026-04-26T09:28:18Z</time></trkpt><trkpt lat="45.62677905186887" lon="10.873466744404483"><ele>120.50000000000001</ele><time>2026-04-26T09:28:20Z</time></trkpt><trkpt lat="45.62675869464901" lon="10.873336112627413"><ele>121.0</ele><time>2026-04-26T09:28:22Z</time></trkpt><trkpt lat="45.62704505645481" lon="10.872657331122818"><ele>119.50000000000001</ele><time>2026-04-26T09:28:24Z</time></trkpt><trkpt lat="45.62699828033356" lon="10.872594441077421"><ele>118.0</ele><time>2026-04-26T09:28:32Z</time></trkpt><trkpt lat="45.626951189236884" lon="10.872512897762396"><ele>116.5</ele><time>2026-04-26T09:28:33Z</time></trkpt><trkpt lat="45.626905469831684" lon="10.872409785917005"><ele>115.0</ele><time>2026-04-26T09:28:34Z</time></trkpt><trkpt lat="45.62685359390387" lon="10.872288970243606"><ele>113.50000000000001</ele><time>2026-04-26T09:28:35Z</time></trkpt><trkpt lat="45.626790189880396" lon="10.8721607108485"><ele>112.0</ele><time>2026-04-26T09:28:36Z</time></trkpt><trkpt lat="45.626725977245776" lon="10.872043534678458"><ele>112.0</ele><time>2026-04-26T09:28:37Z</time></trkpt><trkpt lat="45.62666109309088" lon="10.871908247750284"><ele>111.99999999999999</ele><time>2026-04-26T09:28:38Z</time></trkpt><trkpt lat="45.62660683787448" lon="10.871790218574937"><ele>111.99999999999999</ele><time>2026-04-26T09:28:39Z</time></trkpt><trkpt lat="45.62654992945881" lon="10.87169416762199"><ele>112.0</ele><time>2026-04-26T09:28:40Z</time></trkpt><trkpt lat="45.626475010593126" lon="10.87159475936632"><ele>112.0</ele><time>2026-04-26T09:28:41Z</time></trkpt><trkpt lat="45.62639026340016" lon="10.871503526859485"><ele>112.0</ele><time>2026-04-26T09:28:42Z</time></trkpt><trkpt lat="45.626303913833596" lon="10.871404953741678"><ele>111.99999999999999</ele><time>2026-04-26T09:28:43Z</time></trkpt><trkpt lat="45.62621663959281" lon="10.871291828808436"><ele>111.99999999999999</ele><time>2026-04-26T09:28:44Z</time></trkpt><trkpt lat="45.6261364875291" lon="10.87120772246655"><ele>112.0</ele><time>2026-04-26T09:28:45Z</time></trkpt><trkpt lat="45.62605351847148" lon="10.871124579761224"><ele>112.0</ele><time>2026-04-26T09:28:46Z</time></trkpt><trkpt lat="45.625956739534736" lon="10.871035248776296"><ele>111.39999999999999</ele><time>2026-04-26T09:28:47Z</time></trkpt><trkpt lat="45.6258595819768" lon="10.87092894756278"><ele>110.79999999999998</ele><time>2026-04-26T09:28:48Z</time></trkpt><trkpt lat="45.62576530404818" lon="10.870835489925895"><ele>110.2</ele><time>2026-04-26T09:28:49Z</time></trkpt><trkpt lat="45.62567516145083" lon="10.870747866795677"><ele>109.6</ele><time>2026-04-26T09:28:50Z</time></trkpt><trkpt lat="45.62559632793995" lon="10.870674780728951"><ele>109.0</ele><time>2026-04-26T09:28:51Z</time></trkpt><trkpt lat="45.625514849353884" lon="10.870599910529656"><ele>109.0</ele><time>2026-04-26T09:28:52Z</time></trkpt><trkpt lat="45.62541546769247" lon="10.870497363632145"><ele>109.0</ele><time>2026-04-26T09:28:53Z</time></trkpt><trkpt lat="45.62530013569832" lon="10.870412804484818"><ele>109.0</ele><time>2026-04-26T09:28:54Z</time></trkpt><trkpt lat="45.62518006231487" lon="10.870321436559665"><ele>109.0</ele><time>2026-04-26T09:28:55Z</time></trkpt><trkpt lat="45.62508167858676" lon="10.870236343824178"><ele>109.2</ele><time>2026-04-26T09:28:56Z</time></trkpt><trkpt lat="45.62500585373256" lon="10.87017039393992"><ele>109.4</ele><time>2026-04-26T09:28:57Z</time></trkpt><trkpt lat="45.6249188518597" lon="10.870094866747355"><ele>109.6</ele><time>2026-04-26T09:28:58Z</time></trkpt><trkpt lat="45.624830384481285" lon="10.870036405210946"><ele>109.8</ele><time>2026-04-26T09:28:59Z</time></trkpt><trkpt lat="45.62473706263051" lon="10.86997348072395"><ele>110.0</ele><time>2026-04-26T09:29:00Z</time></trkpt><trkpt lat="45.62464230990479" lon="10.869903091415027"><ele>109.8</ele><time>2026-04-26T09:29:01Z</time></trkpt><trkpt lat="45.62454535747675" lon="10.869836001898198"><ele>109.6</ele><time>2026-04-26T09:29:02Z</time></trkpt><trkpt lat="45.62443730586779" lon="10.869751034474508"><ele>109.4</ele><time>2026-04-26T09:29:03Z</time></trkpt><trkpt lat="45.62434931931421" lon="10.869704100631688"><ele>109.2</ele><time>2026-04-26T09:29:04Z</time></trkpt><trkpt lat="45.624263917146166" lon="10.869642044426026"><ele>109.0</ele><time>2026-04-26T09:29:05Z</time></trkpt><trkpt lat="45.624192935589136" lon="10.869579708917358"><ele>109.0</ele><time>2026-04-26T09:29:06Z</time></trkpt><trkpt lat="45.62409993274377" lon="10.86951454348933"><ele>109.0</ele><time>2026-04-26T09:29:07Z</time></trkpt><trkpt lat="45.62401505365438" lon="10.86944930434905"><ele>109.0</ele><time>2026-04-26T09:29:08Z</time></trkpt><trkpt lat="45.623934472473195" lon="10.86939686486452"><ele>109.0</ele><time>2026-04-26T09:29:09Z</time></trkpt><trkpt lat="45.62384472030981" lon="10.869326183493772"><ele>109.0</ele><time>2026-04-26T09:29:10Z</time></trkpt><trkpt lat="45.6237619312916" lon="10.869258278016549"><ele>108.80000000000001</ele><time>2026-04-26T09:29:11Z</time></trkpt><trkpt lat="45.62367699159353" lon="10.869192662205812"><ele>108.60000000000001</ele><time>2026-04-26T09:29:12Z</time></trkpt><trkpt lat="45.623575731895876" lon="10.869117031895048"><ele>108.4</ele><time>2026-04-26T09:29:13Z</time></trkpt><trkpt lat="45.62347660150278" lon="10.869041741585757"><ele>108.2</ele><time>2026-04-26T09:29:14Z</time></trkpt><trkpt lat="45.62339586595433" lon="10.868968728076437"><ele>108.0</ele><time>2026-04-26T09:29:15Z</time></trkpt><trkpt lat="45.6232959830505" lon="10.868902437371306"><ele>108.0</ele><time>2026-04-26T09:29:16Z</time></trkpt><trkpt lat="45.62320233917867" lon="10.868824988210585"><ele>108.00000000000001</ele><time>2026-04-26T09:29:17Z</time></trkpt><trkpt lat="45.62310572745388" lon="10.86872855498174"><ele>108.00000000000001</ele><time>2026-04-26T09:29:18Z</time></trkpt><trkpt lat="45.62302487460353" lon="10.86863767160387"><ele>108.0</ele><time>2026-04-26T09:29:19Z</time></trkpt><trkpt lat="45.6229525921058" lon="10.868567271168923"><ele>108.0</ele><time>2026-04-26T09:29:20Z</time></trkpt><trkpt lat="45.62285768192022" lon="10.86848354787658"><ele>108.4</ele><time>2026-04-26T09:29:21Z</time></trkpt><trkpt lat="45.62277159209208" lon="10.868383939479292"><ele>108.80000000000001</ele><time>2026-04-26T09:29:22Z</time></trkpt><trkpt lat="45.622680032850106" lon="10.868271772766656"><ele>109.2</ele><time>2026-04-26T09:29:23Z</time></trkpt><trkpt lat="45.62258415926261" lon="10.868191068369423"><ele>109.6</ele><time>2026-04-26T09:29:24Z</time></trkpt><trkpt lat="45.622507148726946" lon="10.868119405377074"><ele>110.0</ele><time>2026-04-26T09:29:25Z</time></trkpt><trkpt lat="45.622431667236036" lon="10.868076654357905"><ele>110.0</ele><time>2026-04-26T09:29:26Z</time></trkpt><trkpt lat="45.62235036251202" lon="10.868080550658728"><ele>110.0</ele><time>2026-04-26T09:29:28Z</time></trkpt><trkpt lat="45.6222737389748" lon="10.868204861431343"><ele>110.0</ele><time>2026-04-26T09:29:30Z</time></trkpt><trkpt lat="45.622245433948805" lon="10.86829645858209"><ele>110.0</ele><time>2026-04-26T09:29:31Z</time></trkpt><trkpt lat="45.62224964411045" lon="10.868447859122746"><ele>110.0</ele><time>2026-04-26T09:29:33Z</time></trkpt><trkpt lat="45.622330206333366" lon="10.868547167557024"><ele>111.33333333333333</ele><time>2026-04-26T09:29:35Z</time></trkpt><trkpt lat="45.6223965430757" lon="10.868608255262526"><ele>112.66666666666666</ele><time>2026-04-26T09:29:36Z</time></trkpt><trkpt lat="45.62244928927068" lon="10.868659529614986"><ele>114.0</ele><time>2026-04-26T09:29:37Z</time></trkpt><trkpt lat="45.62238946287199" lon="10.868697578550474"><ele>115.33333333333334</ele><time>2026-04-26T09:29:43Z</time></trkpt><trkpt lat="45.62227972463038" lon="10.868586449588326"><ele>116.66666666666667</ele><time>2026-04-26T09:29:45Z</time></trkpt><trkpt lat="45.622222431275816" lon="10.86854102528577"><ele>118.0</ele><time>2026-04-26T09:29:46Z</time></trkpt><trkpt lat="45.622122871714325" lon="10.868454139360567"><ele>117.83333333333334</ele><time>2026-04-26T09:29:48Z</time></trkpt><trkpt lat="45.62203960927567" lon="10.868431884753315"><ele>117.66666666666667</ele><time>2026-04-26T09:29:50Z</time></trkpt><trkpt lat="45.621971634713596" lon="10.868412803012443"><ele>117.5</ele><time>2026-04-26T09:29:52Z</time></trkpt><trkpt lat="45.62190358631461" lon="10.868360784225374"><ele>117.33333333333334</ele><time>2026-04-26T09:29:53Z</time></trkpt><trkpt lat="45.62183815238377" lon="10.868276022115412"><ele>117.16666666666667</ele><time>2026-04-26T09:29:54Z</time></trkpt><trkpt lat="45.62175463102302" lon="10.868203279728782"><ele>117.0</ele><time>2026-04-26T09:29:55Z</time></trkpt><trkpt lat="45.621665717339006" lon="10.868106969913784"><ele>117.0</ele><time>2026-04-26T09:29:56Z</time></trkpt><trkpt lat="45.62156326424963" lon="10.868015677160992"><ele>117.0</ele><time>2026-04-26T09:29:57Z</time></trkpt><trkpt lat="45.62145340666294" lon="10.867936871443236"><ele>117.0</ele><time>2026-04-26T09:29:58Z</time></trkpt><trkpt lat="45.62133664985003" lon="10.867824565977413"><ele>117.0</ele><time>2026-04-26T09:29:59Z</time></trkpt><trkpt lat="45.62124692704222" lon="10.867733984017239"><ele>117.0</ele><time>2026-04-26T09:30:00Z</time></trkpt><trkpt lat="45.6211614832618" lon="10.867645623889386"><ele>116.99999999999999</ele><time>2026-04-26T09:30:01Z</time></trkpt><trkpt lat="45.62108094569951" lon="10.86754425875435"><ele>116.99999999999999</ele><time>2026-04-26T09:30:02Z</time></trkpt><trkpt lat="45.62100061493604" lon="10.867451103855613"><ele>117.0</ele><time>2026-04-26T09:30:03Z</time></trkpt><trkpt lat="45.62090662757762" lon="10.86734881980724"><ele>117.0</ele><time>2026-04-26T09:30:04Z</time></trkpt><trkpt lat="45.62081510863236" lon="10.867233194750796"><ele>117.5</ele><time>2026-04-26T09:30:05Z</time></trkpt><trkpt lat="45.620713373614414" lon="10.867116811263847"><ele>118.0</ele><time>2026-04-26T09:30:06Z</time></trkpt><trkpt lat="45.620604201588606" lon="10.867007867636651"><ele>118.5</ele><time>2026-04-26T09:30:07Z</time></trkpt><trkpt lat="45.62050805238122" lon="10.866926492314802"><ele>119.0</ele><time>2026-04-26T09:30:08Z</time></trkpt><trkpt lat="45.62044022897476" lon="10.86682425335345"><ele>119.75</ele><time>2026-04-26T09:30:09Z</time></trkpt><trkpt lat="45.620355173985566" lon="10.866738309616492"><ele>120.5</ele><time>2026-04-26T09:30:10Z</time></trkpt><trkpt lat="45.620264371584675" lon="10.866644585262062"><ele>121.25</ele><time>2026-04-26T09:30:11Z</time></trkpt><trkpt lat="45.62017842808493" lon="10.866530066254803"><ele>122.0</ele><time>2026-04-26T09:30:12Z</time></trkpt><trkpt lat="45.620087147405776" lon="10.866411164778189"><ele>122.0</ele><time>2026-04-26T09:30:13Z</time></trkpt><trkpt lat="45.62000540755102" lon="10.866275795784691"><ele>122.0</ele><time>2026-04-26T09:30:14Z</time></trkpt><trkpt lat="45.61991348008289" lon="10.866137754477917"><ele>122.0</ele><time>2026-04-26T09:30:15Z</time></trkpt><trkpt lat="45.61983145146907" lon="10.86599245593576"><ele>122.0</ele><time>2026-04-26T09:30:16Z</time></trkpt><trkpt lat="45.61974549015797" lon="10.86584293855443"><ele>123.75</ele><time>2026-04-26T09:30:17Z</time></trkpt><trkpt lat="45.61965270133081" lon="10.865691598249484"><ele>125.5</ele><time>2026-04-26T09:30:18Z</time></trkpt><trkpt lat="45.61956329351435" lon="10.865545140623276"><ele>127.25</ele><time>2026-04-26T09:30:19Z</time></trkpt><trkpt lat="45.6194694913745" lon="10.865416012214704"><ele>129.0</ele><time>2026-04-26T09:30:20Z</time></trkpt><trkpt lat="45.619268485899106" lon="10.865410319416032"><ele>129.0</ele><time>2026-04-26T09:30:21Z</time></trkpt><trkpt lat="45.61919256213878" lon="10.865284717105187"><ele>129.0</ele><time>2026-04-26T09:30:22Z</time></trkpt><trkpt lat="45.61913393910912" lon="10.865187630218943"><ele>129.0</ele><time>2026-04-26T09:30:23Z</time></trkpt><trkpt lat="45.61907963247576" lon="10.865097691769215"><ele>129.0</ele><time>2026-04-26T09:30:24Z</time></trkpt><trkpt lat="45.61902793788275" lon="10.86501444299003"><ele>129.0</ele><time>2026-04-26T09:30:25Z</time></trkpt><trkpt lat="45.6189624108647" lon="10.864916826385121"><ele>128.8</ele><time>2026-04-26T09:30:26Z</time></trkpt><trkpt lat="45.6188868045078" lon="10.864816785821935"><ele>128.60000000000002</ele><time>2026-04-26T09:30:27Z</time></trkpt><trkpt lat="45.618806709352576" lon="10.864724871444569"><ele>128.4</ele><time>2026-04-26T09:30:28Z</time></trkpt><trkpt lat="45.61872257038445" lon="10.86464236943764"><ele>128.20000000000002</ele><time>2026-04-26T09:30:29Z</time></trkpt><trkpt lat="45.61864990576676" lon="10.864591404499953"><ele>128.0</ele><time>2026-04-26T09:30:30Z</time></trkpt><trkpt lat="45.618576494353846" lon="10.86452444271182"><ele>128.0</ele><time>2026-04-26T09:30:31Z</time></trkpt><trkpt lat="45.618508398920504" lon="10.864456973357079"><ele>128.0</ele><time>2026-04-26T09:30:32Z</time></trkpt><trkpt lat="45.61843375152393" lon="10.864380862556999"><ele>128.0</ele><time>2026-04-26T09:30:33Z</time></trkpt><trkpt lat="45.61835218673885" lon="10.8642952756382"><ele>128.0</ele><time>2026-04-26T09:30:34Z</time></trkpt><trkpt lat="45.61825771724816" lon="10.86419621837674"><ele>128.0</ele><time>2026-04-26T09:30:35Z</time></trkpt><trkpt lat="45.61816913269407" lon="10.864072585345161"><ele>126.0</ele><time>2026-04-26T09:30:36Z</time></trkpt><trkpt lat="45.61810239868893" lon="10.863962050503579"><ele>124.00000000000001</ele><time>2026-04-26T09:30:37Z</time></trkpt><trkpt lat="45.61804876727837" lon="10.86385899327177"><ele>122.00000000000001</ele><time>2026-04-26T09:30:38Z</time></trkpt><trkpt lat="45.617995821341545" lon="10.863751387755501"><ele>120.0</ele><time>2026-04-26T09:30:39Z</time></trkpt><trkpt lat="45.617954002844904" lon="10.863653574611321"><ele>118.0</ele><time>2026-04-26T09:30:40Z</time></trkpt><trkpt lat="45.618124055616924" lon="10.863046832318405"><ele>116.80000000000001</ele><time>2026-04-26T09:30:41Z</time></trkpt><trkpt lat="45.618057087904035" lon="10.862876880354147"><ele>115.60000000000001</ele><time>2026-04-26T09:30:43Z</time></trkpt><trkpt lat="45.618018533584745" lon="10.862778121378309"><ele>114.39999999999999</ele><time>2026-04-26T09:30:44Z</time></trkpt><trkpt lat="45.61795699945227" lon="10.862639817534593"><ele>113.19999999999999</ele><time>2026-04-26T09:30:45Z</time></trkpt><trkpt lat="45.61791473350266" lon="10.862514201697588"><ele>112.0</ele><time>2026-04-26T09:30:46Z</time></trkpt><trkpt lat="45.61786770231385" lon="10.862371995007651"><ele>111.6</ele><time>2026-04-26T09:30:47Z</time></trkpt><trkpt lat="45.61782632527531" lon="10.862217708225174"><ele>111.19999999999999</ele><time>2026-04-26T09:30:48Z</time></trkpt><trkpt lat="45.61778865300419" lon="10.86206166672696"><ele>110.8</ele><time>2026-04-26T09:30:49Z</time></trkpt><trkpt lat="45.61775760111086" lon="10.861911252474023"><ele>110.4</ele><time>2026-04-26T09:30:50Z</time></trkpt><trkpt lat="45.617738017071325" lon="10.86178554706481"><ele>110.0</ele><time>2026-04-26T09:30:51Z</time></trkpt><trkpt lat="45.61771928868554" lon="10.861663870518434"><ele>111.6</ele><time>2026-04-26T09:30:52Z</time></trkpt><trkpt lat="45.61770146360316" lon="10.861525064679798"><ele>113.2</ele><time>2026-04-26T09:30:53Z</time></trkpt><trkpt lat="45.61768302870071" lon="10.861389203904361"><ele>114.80000000000001</ele><time>2026-04-26T09:30:54Z</time></trkpt><trkpt lat="45.617672277984276" lon="10.86128864327164"><ele>116.4</ele><time>2026-04-26T09:30:55Z</time></trkpt><trkpt lat="45.61764993348587" lon="10.8611392465594"><ele>118.0</ele><time>2026-04-26T09:30:57Z</time></trkpt><trkpt lat="45.61764519318639" lon="10.8609539671606"><ele>118.4</ele><time>2026-04-26T09:30:59Z</time></trkpt><trkpt lat="45.61763840953451" lon="10.860813766563142"><ele>118.80000000000001</ele><time>2026-04-26T09:31:00Z</time></trkpt><trkpt lat="45.61763396480643" lon="10.860642306384332"><ele>119.2</ele><time>2026-04-26T09:31:01Z</time></trkpt><trkpt lat="45.61763756249878" lon="10.860503134731694"><ele>119.6</ele><time>2026-04-26T09:31:02Z</time></trkpt><trkpt lat="45.6176457494955" lon="10.860341473329557"><ele>120.0</ele><time>2026-04-26T09:31:03Z</time></trkpt><trkpt lat="45.6176585694945" lon="10.860189233718792"><ele>120.0</ele><time>2026-04-26T09:31:04Z</time></trkpt><trkpt lat="45.617693763224246" lon="10.860056735155487"><ele>120.0</ele><time>2026-04-26T09:31:05Z</time></trkpt><trkpt lat="45.61772054354412" lon="10.859866989959894"><ele>120.0</ele><time>2026-04-26T09:31:06Z</time></trkpt><trkpt lat="45.61775759911589" lon="10.85967280450258"><ele>120.0</ele><time>2026-04-26T09:31:07Z</time></trkpt><trkpt lat="45.61780893437234" lon="10.859495847771386"><ele>118.4</ele><time>2026-04-26T09:31:08Z</time></trkpt><trkpt lat="45.61787857389821" lon="10.859326253895984"><ele>116.8</ele><time>2026-04-26T09:31:09Z</time></trkpt><trkpt lat="45.617948922989456" lon="10.859189433429933"><ele>115.19999999999999</ele><time>2026-04-26T09:31:10Z</time></trkpt><trkpt lat="45.61800607637824" lon="10.859075976448668"><ele>113.6</ele><time>2026-04-26T09:31:11Z</time></trkpt><trkpt lat="45.618061760048484" lon="10.858970445965879"><ele>112.0</ele><time>2026-04-26T09:31:12Z</time></trkpt><trkpt lat="45.618108489477216" lon="10.858886910095848"><ele>112.0</ele><time>2026-04-26T09:31:13Z</time></trkpt><trkpt lat="45.61812639956083" lon="10.858793259241805"><ele>111.99999999999999</ele><time>2026-04-26T09:31:15Z</time></trkpt><trkpt lat="45.61805179513419" lon="10.858686010080044"><ele>111.99999999999999</ele><time>2026-04-26T09:31:17Z</time></trkpt><trkpt lat="45.61798693935015" lon="10.858627113860857"><ele>112.0</ele><time>2026-04-26T09:31:18Z</time></trkpt><trkpt lat="45.61790927398605" lon="10.858552397321722"><ele>112.0</ele><time>2026-04-26T09:31:19Z</time></trkpt><trkpt lat="45.61781262290422" lon="10.858456732373853"><ele>114.66666666666667</ele><time>2026-04-26T09:31:20Z</time></trkpt><trkpt lat="45.61768871292243" lon="10.858333086309258"><ele>117.33333333333334</ele><time>2026-04-26T09:31:21Z</time></trkpt><trkpt lat="45.61753082180051" lon="10.858170990890027"><ele>120.0</ele><time>2026-04-26T09:31:22Z</time></trkpt><trkpt lat="45.61736042213429" lon="10.857993037197037"><ele>120.0</ele><time>2026-04-26T09:31:23Z</time></trkpt><trkpt lat="45.61721538174631" lon="10.85784647637775"><ele>120.0</ele><time>2026-04-26T09:31:24Z</time></trkpt><trkpt lat="45.6170879529597" lon="10.857713943253696"><ele>120.0</ele><time>2026-04-26T09:31:25Z</time></trkpt><trkpt lat="45.6169671365189" lon="10.85758992582489"><ele>120.0</ele><time>2026-04-26T09:31:26Z</time></trkpt><trkpt lat="45.61684990098805" lon="10.857480889441437"><ele>120.0</ele><time>2026-04-26T09:31:27Z</time></trkpt><trkpt lat="45.616751413785494" lon="10.857399199140858"><ele>120.0</ele><time>2026-04-26T09:31:28Z</time></trkpt><trkpt lat="45.616668506442885" lon="10.857327913840406"><ele>120.0</ele><time>2026-04-26T09:31:29Z</time></trkpt><trkpt lat="45.616589845984876" lon="10.857227873211942"><ele>120.0</ele><time>2026-04-26T09:31:30Z</time></trkpt><trkpt lat="45.61650689871787" lon="10.857135700659514"><ele>120.0</ele><time>2026-04-26T09:31:31Z</time></trkpt><trkpt lat="45.616402081370495" lon="10.857030572965337"><ele>120.0</ele><time>2026-04-26T09:31:32Z</time></trkpt><trkpt lat="45.61630368374367" lon="10.856937048378176"><ele>120.0</ele><time>2026-04-26T09:31:33Z</time></trkpt><trkpt lat="45.616203250067734" lon="10.856844949960452"><ele>119.8</ele><time>2026-04-26T09:31:34Z</time></trkpt><trkpt lat="45.61611136217506" lon="10.856767506254233"><ele>119.6</ele><time>2026-04-26T09:31:35Z</time></trkpt><trkpt lat="45.616022848777845" lon="10.85669148716911"><ele>119.4</ele><time>2026-04-26T09:31:36Z</time></trkpt><trkpt lat="45.61593753010119" lon="10.856608725905808"><ele>119.2</ele><time>2026-04-26T09:31:37Z</time></trkpt><trkpt lat="45.61583738864962" lon="10.856498505789597"><ele>119.0</ele><time>2026-04-26T09:31:38Z</time></trkpt><trkpt lat="45.61573127528441" lon="10.856386215830303"><ele>119.0</ele><time>2026-04-26T09:31:39Z</time></trkpt><trkpt lat="45.61563184035737" lon="10.856281661900674"><ele>119.0</ele><time>2026-04-26T09:31:40Z</time></trkpt><trkpt lat="45.61552544367501" lon="10.856178803394227"><ele>119.0</ele><time>2026-04-26T09:31:41Z</time></trkpt><trkpt lat="45.61542727733485" lon="10.856084242732765"><ele>119.0</ele><time>2026-04-26T09:31:42Z</time></trkpt><trkpt lat="45.61534808981457" lon="10.85600890169339"><ele>119.16666666666666</ele><time>2026-04-26T09:31:43Z</time></trkpt><trkpt lat="45.61527896839694" lon="10.85594222378798"><ele>119.33333333333333</ele><time>2026-04-26T09:31:44Z</time></trkpt><trkpt lat="45.615218769224775" lon="10.8558867007127"><ele>119.5</ele><time>2026-04-26T09:31:45Z</time></trkpt><trkpt lat="45.61515331957349" lon="10.855831961497211"><ele>119.66666666666666</ele><time>2026-04-26T09:31:46Z</time></trkpt><trkpt lat="45.61509577468829" lon="10.85579050872539"><ele>119.83333333333333</ele><time>2026-04-26T09:31:47Z</time></trkpt><trkpt lat="45.61501021664873" lon="10.85579752650502"><ele>120.0</ele><time>2026-04-26T09:31:49Z</time></trkpt><trkpt lat="45.6149534888919" lon="10.855918650303282"><ele>120.0</ele><time>2026-04-26T09:31:51Z</time></trkpt><trkpt lat="45.61492137777051" lon="10.85582372523725"><ele>120.0</ele><time>2026-04-26T09:31:55Z</time></trkpt><trkpt lat="45.614953529344746" lon="10.85574563531018"><ele>120.0</ele><time>2026-04-26T09:31:56Z</time></trkpt><trkpt lat="45.61501136423959" lon="10.855679754592678"><ele>120.0</ele><time>2026-04-26T09:31:57Z</time></trkpt><trkpt lat="45.61507132723491" lon="10.855560391636258"><ele>120.0</ele><time>2026-04-26T09:31:59Z</time></trkpt><trkpt lat="45.61514928724029" lon="10.85540519028993"><ele>120.0</ele><time>2026-04-26T09:32:01Z</time></trkpt><trkpt lat="45.61519455213205" lon="10.855316208473564"><ele>120.0</ele><time>2026-04-26T09:32:02Z</time></trkpt><trkpt lat="45.61523125687677" lon="10.855240321135375"><ele>120.0</ele><time>2026-04-26T09:32:03Z</time></trkpt><trkpt lat="45.61528645347881" lon="10.85511465637581"><ele>120.0</ele><time>2026-04-26T09:32:05Z</time></trkpt><trkpt lat="45.615333979531734" lon="10.854984491355612"><ele>120.0</ele><time>2026-04-26T09:32:07Z</time></trkpt><trkpt lat="45.61535406079958" lon="10.854888585752512"><ele>120.0</ele><time>2026-04-26T09:32:08Z</time></trkpt><trkpt lat="45.615382075759975" lon="10.854788839023655"><ele>120.0</ele><time>2026-04-26T09:32:09Z</time></trkpt><trkpt lat="45.61543508590934" lon="10.854629063814194"><ele>119.4</ele><time>2026-04-26T09:32:11Z</time></trkpt><trkpt lat="45.615493658417236" lon="10.854544255793478"><ele>118.8</ele><time>2026-04-26T09:32:13Z</time></trkpt><trkpt lat="45.61561947355265" lon="10.854515749048582"><ele>118.19999999999999</ele><time>2026-04-26T09:32:15Z</time></trkpt><trkpt lat="45.61572631479797" lon="10.854541274614734"><ele>117.6</ele><time>2026-04-26T09:32:16Z</time></trkpt><trkpt lat="45.61584157938691" lon="10.854558834950275"><ele>117.0</ele><time>2026-04-26T09:32:17Z</time></trkpt><trkpt lat="45.615944209970806" lon="10.854577272549003"><ele>117.0</ele><time>2026-04-26T09:32:18Z</time></trkpt><trkpt lat="45.61605509967711" lon="10.854595891442644"><ele>117.0</ele><time>2026-04-26T09:32:19Z</time></trkpt><trkpt lat="45.61617877020229" lon="10.854615857649314"><ele>117.0</ele><time>2026-04-26T09:32:20Z</time></trkpt><trkpt lat="45.6162927077273" lon="10.854629884084183"><ele>117.0</ele><time>2026-04-26T09:32:21Z</time></trkpt><trkpt lat="45.61639378877795" lon="10.854638586403095"><ele>116.5</ele><time>2026-04-26T09:32:22Z</time></trkpt><trkpt lat="45.616486262865955" lon="10.854655345172231"><ele>116.0</ele><time>2026-04-26T09:32:23Z</time></trkpt><trkpt lat="45.616591331949806" lon="10.854671074059674"><ele>115.5</ele><time>2026-04-26T09:32:24Z</time></trkpt><trkpt lat="45.616717932341075" lon="10.854683969154763"><ele>115.0</ele><time>2026-04-26T09:32:25Z</time></trkpt><trkpt lat="45.61684338311751" lon="10.854702395076197"><ele>115.0</ele><time>2026-04-26T09:32:26Z</time></trkpt><trkpt lat="45.61695992834037" lon="10.854712555087373"><ele>115.0</ele><time>2026-04-26T09:32:27Z</time></trkpt><trkpt lat="45.61706165420301" lon="10.854715711316686"><ele>115.0</ele><time>2026-04-26T09:32:28Z</time></trkpt><trkpt lat="45.617150950950375" lon="10.85471205598093"><ele>115.0</ele><time>2026-04-26T09:32:29Z</time></trkpt><trkpt lat="45.617249834526795" lon="10.85470437114926"><ele>115.0</ele><time>2026-04-26T09:32:30Z</time></trkpt><trkpt lat="45.617350338481316" lon="10.854711619966825"><ele>115.00000000000001</ele><time>2026-04-26T09:32:31Z</time></trkpt><trkpt lat="45.617454479117164" lon="10.854720805973166"><ele>115.0</ele><time>2026-04-26T09:32:32Z</time></trkpt><trkpt lat="45.61754091667992" lon="10.85472437759215"><ele>115.0</ele><time>2026-04-26T09:32:33Z</time></trkpt><trkpt lat="45.61761842992428" lon="10.854723715034215"><ele>115.0</ele><time>2026-04-26T09:32:34Z</time></trkpt><trkpt lat="45.61768785473997" lon="10.854732165175738"><ele>115.00000000000001</ele><time>2026-04-26T09:32:35Z</time></trkpt><trkpt lat="45.617758763758566" lon="10.854745933601452"><ele>115.0</ele><time>2026-04-26T09:32:36Z</time></trkpt><trkpt lat="45.61783798279096" lon="10.854758323927982"><ele>115.0</ele><time>2026-04-26T09:32:37Z</time></trkpt><trkpt lat="45.617941841922004" lon="10.854760020969001"><ele>115.0</ele><time>2026-04-26T09:32:38Z</time></trkpt><trkpt lat="45.61804844841527" lon="10.854766391561682"><ele>115.0</ele><time>2026-04-26T09:32:39Z</time></trkpt><trkpt lat="45.618168316183116" lon="10.854768814506604"><ele>115.0</ele><time>2026-04-26T09:32:40Z</time></trkpt><trkpt lat="45.61829069930953" lon="10.854770045580366"><ele>115.0</ele><time>2026-04-26T09:32:41Z</time></trkpt><trkpt lat="45.61839101190856" lon="10.854773976174656"><ele>115.0</ele><time>2026-04-26T09:32:42Z</time></trkpt><trkpt lat="45.61847960156206" lon="10.854782841205465"><ele>115.0</ele><time>2026-04-26T09:32:43Z</time></trkpt><trkpt lat="45.618576746142416" lon="10.854800300471224"><ele>115.0</ele><time>2026-04-26T09:32:44Z</time></trkpt><trkpt lat="45.618688639051975" lon="10.854820757705204"><ele>115.0</ele><time>2026-04-26T09:32:45Z</time></trkpt><trkpt lat="45.61879323333635" lon="10.854845714298044"><ele>114.4</ele><time>2026-04-26T09:32:46Z</time></trkpt><trkpt lat="45.61887677991794" lon="10.854867163550454"><ele>113.8</ele><time>2026-04-26T09:32:47Z</time></trkpt><trkpt lat="45.618963471786856" lon="10.854901360259097"><ele>113.19999999999999</ele><time>2026-04-26T09:32:48Z</time></trkpt><trkpt lat="45.61905099970425" lon="10.85494328027201"><ele>112.6</ele><time>2026-04-26T09:32:49Z</time></trkpt><trkpt lat="45.61913456792336" lon="10.854991529823067"><ele>112.0</ele><time>2026-04-26T09:32:50Z</time></trkpt><trkpt lat="45.619230020406405" lon="10.855048735990264"><ele>112.0</ele><time>2026-04-26T09:32:51Z</time></trkpt><trkpt lat="45.61934752890061" lon="10.855113282345997"><ele>112.0</ele><time>2026-04-26T09:32:52Z</time></trkpt><trkpt lat="45.61945690647579" lon="10.855172765113029"><ele>112.0</ele><time>2026-04-26T09:32:53Z</time></trkpt><trkpt lat="45.619560221292325" lon="10.855233907752957"><ele>112.0</ele><time>2026-04-26T09:32:54Z</time></trkpt><trkpt lat="45.61965342302783" lon="10.855291523623412"><ele>112.0</ele><time>2026-04-26T09:32:55Z</time></trkpt><trkpt lat="45.61973333933431" lon="10.855341276380623"><ele>111.99999999999999</ele><time>2026-04-26T09:32:56Z</time></trkpt><trkpt lat="45.61979939076358" lon="10.855389749474318"><ele>111.99999999999999</ele><time>2026-04-26T09:32:57Z</time></trkpt><trkpt lat="45.6198873851702" lon="10.855506240296389"><ele>112.0</ele><time>2026-04-26T09:32:59Z</time></trkpt><trkpt lat="45.619926822537195" lon="10.855677933451403"><ele>112.0</ele><time>2026-04-26T09:33:01Z</time></trkpt><trkpt lat="45.61992541510132" lon="10.85580890397661"><ele>112.0</ele><time>2026-04-26T09:33:02Z</time></trkpt><trkpt lat="45.61990036212866" lon="10.855920916698876"><ele>111.99999999999999</ele><time>2026-04-26T09:33:03Z</time></trkpt><trkpt lat="45.619884549074115" lon="10.856035614545693"><ele>111.99999999999999</ele><time>2026-04-26T09:33:05Z</time></trkpt><trkpt lat="45.6199657721953" lon="10.856011729712247"><ele>112.0</ele><time>2026-04-26T09:33:08Z</time></trkpt><trkpt lat="45.62000711238087" lon="10.855809790941558"><ele>112.0</ele><time>2026-04-26T09:33:10Z</time></trkpt><trkpt lat="45.62000957283208" lon="10.855680257476235"><ele>112.00000000000001</ele><time>2026-04-26T09:33:11Z</time></trkpt><trkpt lat="45.62001527460782" lon="10.855577732976396"><ele>112.0</ele><time>2026-04-26T09:33:12Z</time></trkpt><trkpt lat="45.620017739955195" lon="10.855466156046084"><ele>112.0</ele><time>2026-04-26T09:33:13Z</time></trkpt><trkpt lat="45.62000027303549" lon="10.855292266313654"><ele>112.0</ele><time>2026-04-26T09:33:15Z</time></trkpt><trkpt lat="45.619944965663635" lon="10.85517388763178"><ele>112.00000000000001</ele><time>2026-04-26T09:33:17Z</time></trkpt><trkpt lat="45.61987616059348" lon="10.85516034829855"><ele>112.0</ele><time>2026-04-26T09:33:18Z</time></trkpt><trkpt lat="45.61979813759863" lon="10.855138657538049"><ele>112.00000000000001</ele><time>2026-04-26T09:33:19Z</time></trkpt><trkpt lat="45.61972696488983" lon="10.855108221242174"><ele>112.0</ele><time>2026-04-26T09:33:20Z</time></trkpt><trkpt lat="45.61964473302454" lon="10.855085403742498"><ele>112.0</ele><time>2026-04-26T09:33:21Z</time></trkpt><trkpt lat="45.61956746590838" lon="10.855042434535388"><ele>112.0</ele><time>2026-04-26T09:33:22Z</time></trkpt><trkpt lat="45.619500141757605" lon="10.854991191095214"><ele>112.00000000000001</ele><time>2026-04-26T09:33:23Z</time></trkpt><trkpt lat="45.61942131273278" lon="10.85494499423868"><ele>112.0</ele><time>2026-04-26T09:33:24Z</time></trkpt><trkpt lat="45.619318083141266" lon="10.854871699534739"><ele>112.0</ele><time>2026-04-26T09:33:25Z</time></trkpt><trkpt lat="45.61922758333083" lon="10.85480246719334"><ele>111.99999999999999</ele><time>2026-04-26T09:33:26Z</time></trkpt><trkpt lat="45.619136510797695" lon="10.854744407537572"><ele>111.99999999999999</ele><time>2026-04-26T09:33:27Z</time></trkpt><trkpt lat="45.619049044043884" lon="10.854691516754913"><ele>112.0</ele><time>2026-04-26T09:33:28Z</time></trkpt><trkpt lat="45.61895927210492" lon="10.854641845908995"><ele>112.0</ele><time>2026-04-26T09:33:29Z</time></trkpt><trkpt lat="45.618867644487054" lon="10.854601792652737"><ele>112.0</ele><time>2026-04-26T09:33:30Z</time></trkpt><trkpt lat="45.618759721335394" lon="10.854565995534285"><ele>112.0</ele><time>2026-04-26T09:33:31Z</time></trkpt><trkpt lat="45.618649084197656" lon="10.854547184574455"><ele>112.0</ele><time>2026-04-26T09:33:32Z</time></trkpt><trkpt lat="45.61853276256284" lon="10.854521696606334"><ele>112.0</ele><time>2026-04-26T09:33:33Z</time></trkpt><trkpt lat="45.61840187369036" lon="10.854507312439692"><ele>112.6</ele><time>2026-04-26T09:33:34Z</time></trkpt><trkpt lat="45.61829414333347" lon="10.854489541989876"><ele>113.19999999999999</ele><time>2026-04-26T09:33:35Z</time></trkpt><trkpt lat="45.61820182176335" lon="10.854492670423097"><ele>113.8</ele><time>2026-04-26T09:33:36Z</time></trkpt><trkpt lat="45.61809675474128" lon="10.854501636244025"><ele>114.4</ele><time>2026-04-26T09:33:37Z</time></trkpt><trkpt lat="45.617988849529425" lon="10.854498352445516"><ele>115.0</ele><time>2026-04-26T09:33:38Z</time></trkpt><trkpt lat="45.61787771774187" lon="10.854506358951461"><ele>114.4</ele><time>2026-04-26T09:33:39Z</time></trkpt><trkpt lat="45.61776534462302" lon="10.854506739671775"><ele>113.8</ele><time>2026-04-26T09:33:40Z</time></trkpt><trkpt lat="45.617657395633664" lon="10.854511042566749"><ele>113.19999999999999</ele><time>2026-04-26T09:33:41Z</time></trkpt><trkpt lat="45.61755331005074" lon="10.854511713177804"><ele>112.6</ele><time>2026-04-26T09:33:42Z</time></trkpt><trkpt lat="45.61745177969046" lon="10.854504549618275"><ele>112.0</ele><time>2026-04-26T09:33:43Z</time></trkpt><trkpt lat="45.61736504800808" lon="10.854493933344905"><ele>112.00000000000001</ele><time>2026-04-26T09:33:44Z</time></trkpt><trkpt lat="45.617287400595046" lon="10.854493547709561"><ele>112.0</ele><time>2026-04-26T09:33:45Z</time></trkpt><trkpt lat="45.61721553500616" lon="10.85448129024506"><ele>112.0</ele><time>2026-04-26T09:33:46Z</time></trkpt><trkpt lat="45.6171091210695" lon="10.854476928136108"><ele>112.0</ele><time>2026-04-26T09:33:47Z</time></trkpt><trkpt lat="45.61701027329723" lon="10.854471081255229"><ele>112.00000000000001</ele><time>2026-04-26T09:33:48Z</time></trkpt><trkpt lat="45.61691730308245" lon="10.854470373041945"><ele>112.0</ele><time>2026-04-26T09:33:49Z</time></trkpt><trkpt lat="45.61682805385597" lon="10.854467124806218"><ele>112.6</ele><time>2026-04-26T09:33:50Z</time></trkpt><trkpt lat="45.61672379563337" lon="10.854445280618647"><ele>113.19999999999999</ele><time>2026-04-26T09:33:51Z</time></trkpt><trkpt lat="45.616623530052756" lon="10.854432677075986"><ele>113.8</ele><time>2026-04-26T09:33:52Z</time></trkpt><trkpt lat="45.616517115136766" lon="10.854416204407622"><ele>114.4</ele><time>2026-04-26T09:33:53Z</time></trkpt><trkpt lat="45.61642818258657" lon="10.85440006575082"><ele>115.0</ele><time>2026-04-26T09:33:54Z</time></trkpt><trkpt lat="45.616359998606434" lon="10.854396326086793"><ele>115.0</ele><time>2026-04-26T09:33:55Z</time></trkpt><trkpt lat="45.61627674751733" lon="10.854375331668377"><ele>115.0</ele><time>2026-04-26T09:33:56Z</time></trkpt><trkpt lat="45.61620830805504" lon="10.854357770430074"><ele>115.0</ele><time>2026-04-26T09:33:57Z</time></trkpt><trkpt lat="45.61608943629344" lon="10.854296374636352"><ele>115.0</ele><time>2026-04-26T09:33:59Z</time></trkpt><trkpt lat="45.61600618485008" lon="10.85425667181192"><ele>115.0</ele><time>2026-04-26T09:34:00Z</time></trkpt><trkpt lat="45.61592351187816" lon="10.854236582569634"><ele>113.50000000000001</ele><time>2026-04-26T09:34:01Z</time></trkpt><trkpt lat="45.61581235436803" lon="10.85422636970941"><ele>112.0</ele><time>2026-04-26T09:34:02Z</time></trkpt><trkpt lat="45.61572130112492" lon="10.854224807870544"><ele>110.5</ele><time>2026-04-26T09:34:03Z</time></trkpt><trkpt lat="45.61564657604294" lon="10.854205892807222"><ele>109.0</ele><time>2026-04-26T09:34:04Z</time></trkpt><trkpt lat="45.61557937681244" lon="10.854200759198298"><ele>107.50000000000001</ele><time>2026-04-26T09:34:05Z</time></trkpt><trkpt lat="45.6154949641049" lon="10.85418985278446"><ele>106.0</ele><time>2026-04-26T09:34:06Z</time></trkpt><trkpt lat="45.61539601721416" lon="10.854181175471922"><ele>106.00000000000001</ele><time>2026-04-26T09:34:07Z</time></trkpt><trkpt lat="45.61528802290286" lon="10.85417218752334"><ele>106.0</ele><time>2026-04-26T09:34:08Z</time></trkpt><trkpt lat="45.615193502133714" lon="10.854168420226934"><ele>106.0</ele><time>2026-04-26T09:34:09Z</time></trkpt><trkpt lat="45.615127257705424" lon="10.854160948227603"><ele>106.0</ele><time>2026-04-26T09:34:10Z</time></trkpt><trkpt lat="45.61506274957851" lon="10.854151389334882"><ele>106.00000000000001</ele><time>2026-04-26T09:34:11Z</time></trkpt><trkpt lat="45.61500064301821" lon="10.854129170358593"><ele>106.0</ele><time>2026-04-26T09:34:12Z</time></trkpt><trkpt lat="45.61491548425521" lon="10.854124906467005"><ele>106.0</ele><time>2026-04-26T09:34:13Z</time></trkpt><trkpt lat="45.61481262484472" lon="10.854132093982487"><ele>106.0</ele><time>2026-04-26T09:34:14Z</time></trkpt><trkpt lat="45.6147268882739" lon="10.854129339011129"><ele>106.0</ele><time>2026-04-26T09:34:15Z</time></trkpt><trkpt lat="45.61463933352936" lon="10.854135545061487"><ele>106.0</ele><time>2026-04-26T09:34:16Z</time></trkpt><trkpt lat="45.614541936737155" lon="10.854135170136487"><ele>106.0</ele><time>2026-04-26T09:34:17Z</time></trkpt><trkpt lat="45.614445794867855" lon="10.85412947191227"><ele>106.50000000000001</ele><time>2026-04-26T09:34:18Z</time></trkpt><trkpt lat="45.61434679824394" lon="10.854118539877607"><ele>107.0</ele><time>2026-04-26T09:34:19Z</time></trkpt><trkpt lat="45.61426441375466" lon="10.85410854020794"><ele>107.5</ele><time>2026-04-26T09:34:20Z</time></trkpt><trkpt lat="45.61418956062178" lon="10.854109257335042"><ele>108.0</ele><time>2026-04-26T09:34:21Z</time></trkpt><trkpt lat="45.614124580852256" lon="10.854114342621287"><ele>108.50000000000001</ele><time>2026-04-26T09:34:22Z</time></trkpt><trkpt lat="45.61402360903946" lon="10.854102748222326"><ele>109.0</ele><time>2026-04-26T09:34:23Z</time></trkpt><trkpt lat="45.61393323536482" lon="10.854112386395865"><ele>109.0</ele><time>2026-04-26T09:34:24Z</time></trkpt><trkpt lat="45.613842633915795" lon="10.85410039587899"><ele>109.0</ele><time>2026-04-26T09:34:25Z</time></trkpt><trkpt lat="45.61376037070925" lon="10.854095319214181"><ele>109.0</ele><time>2026-04-26T09:34:26Z</time></trkpt><trkpt lat="45.61369635550173" lon="10.85407345765839"><ele>109.0</ele><time>2026-04-26T09:34:27Z</time></trkpt><trkpt lat="45.613563820883606" lon="10.854089771196715"><ele>109.0</ele><time>2026-04-26T09:34:28Z</time></trkpt><trkpt lat="45.61341718905992" lon="10.854105113489386"><ele>108.2</ele><time>2026-04-26T09:34:30Z</time></trkpt><trkpt lat="45.61330881644295" lon="10.854147179301794"><ele>107.4</ele><time>2026-04-26T09:34:31Z</time></trkpt><trkpt lat="45.61319369885867" lon="10.854174006380633"><ele>106.6</ele><time>2026-04-26T09:34:32Z</time></trkpt><trkpt lat="45.61307987448244" lon="10.854197347196404"><ele>105.8</ele><time>2026-04-26T09:34:33Z</time></trkpt><trkpt lat="45.61297872283102" lon="10.85423007380701"><ele>105.0</ele><time>2026-04-26T09:34:34Z</time></trkpt><trkpt lat="45.612872627011264" lon="10.854248076860172"><ele>105.4</ele><time>2026-04-26T09:34:35Z</time></trkpt><trkpt lat="45.612775462425546" lon="10.8542738395831"><ele>105.8</ele><time>2026-04-26T09:34:36Z</time></trkpt><trkpt lat="45.61268787820109" lon="10.854289083868299"><ele>106.19999999999999</ele><time>2026-04-26T09:34:37Z</time></trkpt><trkpt lat="45.6126005886368" lon="10.854326569779316"><ele>106.6</ele><time>2026-04-26T09:34:38Z</time></trkpt><trkpt lat="45.612493101886905" lon="10.854363678146987"><ele>107.0</ele><time>2026-04-26T09:34:39Z</time></trkpt><trkpt lat="45.6123724384103" lon="10.854416303904262"><ele>107.75</ele><time>2026-04-26T09:34:40Z</time></trkpt><trkpt lat="45.61224733250115" lon="10.854459753462315"><ele>108.5</ele><time>2026-04-26T09:34:41Z</time></trkpt><trkpt lat="45.61212496854342" lon="10.854495851502065"><ele>109.25</ele><time>2026-04-26T09:34:42Z</time></trkpt><trkpt lat="45.61201092194913" lon="10.854525361852673"><ele>110.0</ele><time>2026-04-26T09:34:43Z</time></trkpt><trkpt lat="45.611909412139745" lon="10.854570616514454"><ele>109.99999999999999</ele><time>2026-04-26T09:34:44Z</time></trkpt><trkpt lat="45.61182164439561" lon="10.854596578022"><ele>110.0</ele><time>2026-04-26T09:34:45Z</time></trkpt><trkpt lat="45.61173038455266" lon="10.854625134036263"><ele>110.0</ele><time>2026-04-26T09:34:46Z</time></trkpt><trkpt lat="45.6116323119059" lon="10.854665817554565"><ele>110.0</ele><time>2026-04-26T09:34:47Z</time></trkpt><trkpt lat="45.611563924031145" lon="10.854698466115918"><ele>109.99999999999999</ele><time>2026-04-26T09:34:48Z</time></trkpt><trkpt lat="45.611488591618496" lon="10.854730933365019"><ele>110.0</ele><time>2026-04-26T09:34:49Z</time></trkpt><trkpt lat="45.611367737350214" lon="10.854773044135294"><ele>109.99999999999999</ele><time>2026-04-26T09:34:51Z</time></trkpt><trkpt lat="45.611290415590396" lon="10.854799480228186"><ele>110.0</ele><time>2026-04-26T09:34:52Z</time></trkpt><trkpt lat="45.611226647663266" lon="10.854828124322838"><ele>110.0</ele><time>2026-04-26T09:34:53Z</time></trkpt><trkpt lat="45.61115296087892" lon="10.854875029829037"><ele>110.0</ele><time>2026-04-26T09:34:54Z</time></trkpt><trkpt lat="45.611081560913185" lon="10.854914205641828"><ele>110.0</ele><time>2026-04-26T09:34:55Z</time></trkpt><trkpt lat="45.61101304640137" lon="10.85495563814673"><ele>109.99999999999999</ele><time>2026-04-26T09:34:56Z</time></trkpt><trkpt lat="45.61095000248628" lon="10.855003090883757"><ele>110.0</ele><time>2026-04-26T09:34:57Z</time></trkpt><trkpt lat="45.61087433473517" lon="10.855048059220517"><ele>109.49999999999999</ele><time>2026-04-26T09:34:58Z</time></trkpt><trkpt lat="45.610811095329936" lon="10.855100525638539"><ele>109.0</ele><time>2026-04-26T09:34:59Z</time></trkpt><trkpt lat="45.61074020984739" lon="10.855166060995902"><ele>108.5</ele><time>2026-04-26T09:35:00Z</time></trkpt><trkpt lat="45.610666860368376" lon="10.855229478067978"><ele>108.0</ele><time>2026-04-26T09:35:01Z</time></trkpt><trkpt lat="45.61060489381191" lon="10.855291882717943"><ele>107.49999999999999</ele><time>2026-04-26T09:35:02Z</time></trkpt><trkpt lat="45.610553930254625" lon="10.85538308063963"><ele>107.0</ele><time>2026-04-26T09:35:04Z</time></trkpt><trkpt lat="45.610522687961385" lon="10.855515404769239"><ele>108.8</ele><time>2026-04-26T09:35:06Z</time></trkpt><trkpt lat="45.61049693825261" lon="10.85566373244167"><ele>110.6</ele><time>2026-04-26T09:35:08Z</time></trkpt><trkpt lat="45.6104957234089" lon="10.855830221643798"><ele>112.39999999999999</ele><time>2026-04-26T09:35:10Z</time></trkpt><trkpt lat="45.61048713053842" lon="10.855922398477917"><ele>114.19999999999999</ele><time>2026-04-26T09:35:11Z</time></trkpt><trkpt lat="45.61046519033891" lon="10.856045605944864"><ele>116.0</ele><time>2026-04-26T09:35:12Z</time></trkpt><trkpt lat="45.610443480204935" lon="10.856151410224387"><ele>115.99999999999999</ele><time>2026-04-26T09:35:13Z</time></trkpt><trkpt lat="45.610430280937" lon="10.856254711341514"><ele>116.0</ele><time>2026-04-26T09:35:14Z</time></trkpt><trkpt lat="45.61040657189856" lon="10.856432967903547"><ele>116.0</ele><time>2026-04-26T09:35:16Z</time></trkpt><trkpt lat="45.6103981725502" lon="10.856522192078192"><ele>116.0</ele><time>2026-04-26T09:35:17Z</time></trkpt><trkpt lat="45.61038253826167" lon="10.856643192545869"><ele>115.99999999999999</ele><time>2026-04-26T09:35:19Z</time></trkpt><trkpt lat="45.61035075990982" lon="10.856751154105712"><ele>116.0</ele><time>2026-04-26T09:35:34Z</time></trkpt><trkpt lat="45.610292284965254" lon="10.856786608630143"><ele>115.99999999999999</ele><time>2026-04-26T09:35:35Z</time></trkpt><trkpt lat="45.61025033568762" lon="10.856855576823687"><ele>116.0</ele><time>2026-04-26T09:35:36Z</time></trkpt><trkpt lat="45.61020499526938" lon="10.856967064504161"><ele>116.0</ele><time>2026-04-26T09:35:38Z</time></trkpt><trkpt lat="45.610122413502125" lon="10.857027896038243"><ele>116.0</ele><time>2026-04-26T09:35:41Z</time></trkpt><trkpt lat="45.61004945389408" lon="10.857026363275661"><ele>115.99999999999999</ele><time>2026-04-26T09:35:44Z</time></trkpt><trkpt lat="45.609937811541734" lon="10.857057470380798"><ele>116.0</ele><time>2026-04-26T09:35:46Z</time></trkpt><trkpt lat="45.60985033850208" lon="10.857059297001618"><ele>115.99999999999999</ele><time>2026-04-26T09:35:47Z</time></trkpt><trkpt lat="45.609771472769474" lon="10.857068092076817"><ele>116.0</ele><time>2026-04-26T09:35:48Z</time></trkpt><trkpt lat="45.60966697545095" lon="10.857091656955827"><ele>116.0</ele><time>2026-04-26T09:35:49Z</time></trkpt><trkpt lat="45.60957295028139" lon="10.857098609922147"><ele>116.0</ele><time>2026-04-26T09:35:50Z</time></trkpt><trkpt lat="45.60950493938872" lon="10.857111173294399"><ele>115.99999999999999</ele><time>2026-04-26T09:35:51Z</time></trkpt><trkpt lat="45.6094361440331" lon="10.857099955721996"><ele>116.0</ele><time>2026-04-26T09:35:52Z</time></trkpt><trkpt lat="45.609344864146394" lon="10.857108076932306"><ele>115.8</ele><time>2026-04-26T09:35:53Z</time></trkpt><trkpt lat="45.60924049597794" lon="10.857121084285922"><ele>115.6</ele><time>2026-04-26T09:35:54Z</time></trkpt><trkpt lat="45.60914452485022" lon="10.857063373771249"><ele>115.4</ele><time>2026-04-26T09:35:55Z</time></trkpt><trkpt lat="45.60904227027033" lon="10.85701450004608"><ele>115.2</ele><time>2026-04-26T09:35:56Z</time></trkpt><trkpt lat="45.60893989185208" lon="10.856983544146425"><ele>115.0</ele><time>2026-04-26T09:35:57Z</time></trkpt><trkpt lat="45.60882375590888" lon="10.856928366731465"><ele>115.0</ele><time>2026-04-26T09:35:58Z</time></trkpt><trkpt lat="45.60871198480384" lon="10.85688735088332"><ele>115.0</ele><time>2026-04-26T09:35:59Z</time></trkpt><trkpt lat="45.60861106044707" lon="10.856842143598138"><ele>115.0</ele><time>2026-04-26T09:36:00Z</time></trkpt><trkpt lat="45.60850972766816" lon="10.856799289557033"><ele>115.0</ele><time>2026-04-26T09:36:01Z</time></trkpt><trkpt lat="45.60843104577575" lon="10.856741246583294"><ele>115.0</ele><time>2026-04-26T09:36:02Z</time></trkpt><trkpt lat="45.60835017151544" lon="10.856717715193655"><ele>113.66666666666667</ele><time>2026-04-26T09:36:03Z</time></trkpt><trkpt lat="45.60827713113096" lon="10.856676794489166"><ele>112.33333333333334</ele><time>2026-04-26T09:36:04Z</time></trkpt><trkpt lat="45.60821541925504" lon="10.856636250291062"><ele>111.0</ele><time>2026-04-26T09:36:05Z</time></trkpt><trkpt lat="45.608146336882974" lon="10.856601325457493"><ele>109.66666666666666</ele><time>2026-04-26T09:36:06Z</time></trkpt><trkpt lat="45.60806935517613" lon="10.856565086966063"><ele>108.33333333333333</ele><time>2026-04-26T09:36:07Z</time></trkpt><trkpt lat="45.607997172063804" lon="10.856523508379446"><ele>107.0</ele><time>2026-04-26T09:36:08Z</time></trkpt><trkpt lat="45.60793018243234" lon="10.856472375577374"><ele>107.0</ele><time>2026-04-26T09:36:10Z</time></trkpt><trkpt lat="45.607829041663166" lon="10.856416191502671"><ele>106.99999999999999</ele><time>2026-04-26T09:36:35Z</time></trkpt><trkpt lat="45.60774983367811" lon="10.856359150501806"><ele>106.99999999999999</ele><time>2026-04-26T09:36:37Z</time></trkpt><trkpt lat="45.60769786382951" lon="10.856272304870469"><ele>107.0</ele><time>2026-04-26T09:36:44Z</time></trkpt><trkpt lat="45.60757871288268" lon="10.856431704792014"><ele>107.0</ele><time>2026-04-26T09:36:47Z</time></trkpt><trkpt lat="45.60755108762017" lon="10.856550594234673"><ele>107.39999999999999</ele><time>2026-04-26T09:36:49Z</time></trkpt><trkpt lat="45.60750221808725" lon="10.856672713901458"><ele>107.79999999999998</ele><time>2026-04-26T09:36:51Z</time></trkpt><trkpt lat="45.607465349154054" lon="10.856772074376316"><ele>108.2</ele><time>2026-04-26T09:36:53Z</time></trkpt><trkpt lat="45.60734727851402" lon="10.856686258406334"><ele>108.6</ele><time>2026-04-26T09:36:55Z</time></trkpt><trkpt lat="45.60723583416452" lon="10.856647909771757"><ele>109.0</ele><time>2026-04-26T09:36:57Z</time></trkpt><trkpt lat="45.60717265286176" lon="10.856627110035404"><ele>109.0</ele><time>2026-04-26T09:36:58Z</time></trkpt><trkpt lat="45.607079749141384" lon="10.856590536309517"><ele>109.0</ele><time>2026-04-26T09:37:00Z</time></trkpt><trkpt lat="45.60701332964298" lon="10.856555196694151"><ele>109.0</ele><time>2026-04-26T09:37:01Z</time></trkpt><trkpt lat="45.606860734666135" lon="10.85644663266439"><ele>109.0</ele><time>2026-04-26T09:37:03Z</time></trkpt><trkpt lat="45.60675948214058" lon="10.856369041666197"><ele>110.2</ele><time>2026-04-26T09:37:04Z</time></trkpt><trkpt lat="45.60667366185604" lon="10.856300182717716"><ele>111.4</ele><time>2026-04-26T09:37:05Z</time></trkpt><trkpt lat="45.60658525995106" lon="10.856223606384388"><ele>112.6</ele><time>2026-04-26T09:37:06Z</time></trkpt><trkpt lat="45.606492491659274" lon="10.856140270411345"><ele>113.8</ele><time>2026-04-26T09:37:07Z</time></trkpt><trkpt lat="45.606395274871566" lon="10.856057583089187"><ele>115.0</ele><time>2026-04-26T09:37:08Z</time></trkpt><trkpt lat="45.60629129549425" lon="10.855967355234768"><ele>114.0</ele><time>2026-04-26T09:37:09Z</time></trkpt><trkpt lat="45.60619649249031" lon="10.855865277532146"><ele>113.0</ele><time>2026-04-26T09:37:10Z</time></trkpt><trkpt lat="45.60612285135706" lon="10.855776833575382"><ele>112.0</ele><time>2026-04-26T09:37:11Z</time></trkpt><trkpt lat="45.60606585188171" lon="10.855698570605439"><ele>111.0</ele><time>2026-04-26T09:37:12Z</time></trkpt><trkpt lat="45.60600573088453" lon="10.855615428994337"><ele>110.0</ele><time>2026-04-26T09:37:13Z</time></trkpt><trkpt lat="45.605941665986975" lon="10.855524023709377"><ele>110.6</ele><time>2026-04-26T09:37:14Z</time></trkpt><trkpt lat="45.605868894972744" lon="10.85541059232069"><ele>111.2</ele><time>2026-04-26T09:37:15Z</time></trkpt><trkpt lat="45.60579955797779" lon="10.855292986398803"><ele>111.80000000000001</ele><time>2026-04-26T09:37:16Z</time></trkpt><trkpt lat="45.6057329294638" lon="10.855165126532459"><ele>112.4</ele><time>2026-04-26T09:37:17Z</time></trkpt><trkpt lat="45.605661601745" lon="10.855031647294352"><ele>113.0</ele><time>2026-04-26T09:37:18Z</time></trkpt><trkpt lat="45.605578170989325" lon="10.854896629501622"><ele>113.0</ele><time>2026-04-26T09:37:19Z</time></trkpt><trkpt lat="45.60548939711417" lon="10.854755725840546"><ele>113.0</ele><time>2026-04-26T09:37:20Z</time></trkpt><trkpt lat="45.60539890092766" lon="10.854640570335283"><ele>113.0</ele><time>2026-04-26T09:37:21Z</time></trkpt><trkpt lat="45.60530213542358" lon="10.854529483670754"><ele>113.0</ele><time>2026-04-26T09:37:22Z</time></trkpt><trkpt lat="45.60519538657898" lon="10.85441860740295"><ele>113.5</ele><time>2026-04-26T09:37:23Z</time></trkpt><trkpt lat="45.605086168886665" lon="10.854304529439458"><ele>114.0</ele><time>2026-04-26T09:37:24Z</time></trkpt><trkpt lat="45.60497273042649" lon="10.854179733712462"><ele>114.5</ele><time>2026-04-26T09:37:25Z</time></trkpt><trkpt lat="45.604857803785436" lon="10.854053564255944"><ele>115.0</ele><time>2026-04-26T09:37:26Z</time></trkpt><trkpt lat="45.6047454106624" lon="10.853936393620904"><ele>115.0</ele><time>2026-04-26T09:37:27Z</time></trkpt><trkpt lat="45.60464218994388" lon="10.85381777950518"><ele>115.0</ele><time>2026-04-26T09:37:28Z</time></trkpt><trkpt lat="45.60454081804072" lon="10.853706282550185"><ele>115.0</ele><time>2026-04-26T09:37:29Z</time></trkpt><trkpt lat="45.60444128802656" lon="10.853601937562129"><ele>115.0</ele><time>2026-04-26T09:37:30Z</time></trkpt><trkpt lat="45.60433553994052" lon="10.853485464207715"><ele>115.25</ele><time>2026-04-26T09:37:31Z</time></trkpt><trkpt lat="45.60423303810825" lon="10.853373408441627"><ele>115.5</ele><time>2026-04-26T09:37:32Z</time></trkpt><trkpt lat="45.60413754817023" lon="10.853275803688938"><ele>115.75</ele><time>2026-04-26T09:37:33Z</time></trkpt><trkpt lat="45.60404882967831" lon="10.853186310786027"><ele>116.0</ele><time>2026-04-26T09:37:34Z</time></trkpt><trkpt lat="45.60395385558647" lon="10.853098656112984"><ele>116.0</ele><time>2026-04-26T09:37:35Z</time></trkpt><trkpt lat="45.603848929897204" lon="10.853011497494126"><ele>116.0</ele><time>2026-04-26T09:37:36Z</time></trkpt><trkpt lat="45.6037307025333" lon="10.85292491592521"><ele>116.0</ele><time>2026-04-26T09:37:37Z</time></trkpt><trkpt lat="45.60360907286922" lon="10.85284006745591"><ele>116.0</ele><time>2026-04-26T09:37:38Z</time></trkpt><trkpt lat="45.60348930009568" lon="10.852769225668766"><ele>115.75</ele><time>2026-04-26T09:37:39Z</time></trkpt><trkpt lat="45.6033626723685" lon="10.852697834456364"><ele>115.5</ele><time>2026-04-26T09:37:40Z</time></trkpt><trkpt lat="45.60323901421646" lon="10.852632220327505"><ele>115.25</ele><time>2026-04-26T09:37:41Z</time></trkpt><trkpt lat="45.60311236094781" lon="10.852568265819642"><ele>115.0</ele><time>2026-04-26T09:37:42Z</time></trkpt><trkpt lat="45.602979564901425" lon="10.852501153729241"><ele>115.0</ele><time>2026-04-26T09:37:43Z</time></trkpt><trkpt lat="45.60285265691676" lon="10.852435785411092"><ele>115.0</ele><time>2026-04-26T09:37:44Z</time></trkpt><trkpt lat="45.60273625006565" lon="10.85237463208412"><ele>115.0</ele><time>2026-04-26T09:37:45Z</time></trkpt><trkpt lat="45.602621561274354" lon="10.852319107467025"><ele>115.0</ele><time>2026-04-26T09:37:46Z</time></trkpt><trkpt lat="45.60250321360204" lon="10.852259877885219"><ele>115.0</ele><time>2026-04-26T09:37:47Z</time></trkpt><trkpt lat="45.60238133357981" lon="10.85220145383499"><ele>115.0</ele><time>2026-04-26T09:37:48Z</time></trkpt><trkpt lat="45.602251084629906" lon="10.852134407225162"><ele>115.0</ele><time>2026-04-26T09:37:49Z</time></trkpt><trkpt lat="45.60211528399356" lon="10.852065617374027"><ele>115.0</ele><time>2026-04-26T09:37:50Z</time></trkpt><trkpt lat="45.60198452404281" lon="10.8519950777387"><ele>115.25</ele><time>2026-04-26T09:37:51Z</time></trkpt><trkpt lat="45.6018574311194" lon="10.851920073483397"><ele>115.5</ele><time>2026-04-26T09:37:52Z</time></trkpt><trkpt lat="45.60174720567477" lon="10.851845511882676"><ele>115.75</ele><time>2026-04-26T09:37:53Z</time></trkpt><trkpt lat="45.601645346268484" lon="10.851771733307144"><ele>116.0</ele><time>2026-04-26T09:37:54Z</time></trkpt><trkpt lat="45.601552079257296" lon="10.851699574478419"><ele>115.49999999999999</ele><time>2026-04-26T09:37:55Z</time></trkpt><trkpt lat="45.60146796338403" lon="10.851630073212583"><ele>115.0</ele><time>2026-04-26T09:37:56Z</time></trkpt><trkpt lat="45.60139019550656" lon="10.851568506999113"><ele>114.5</ele><time>2026-04-26T09:37:57Z</time></trkpt><trkpt lat="45.601316741273905" lon="10.851510091011633"><ele>114.0</ele><time>2026-04-26T09:37:58Z</time></trkpt><trkpt lat="45.60123159499247" lon="10.851439643242978"><ele>113.49999999999999</ele><time>2026-04-26T09:38:00Z</time></trkpt><trkpt lat="45.60121988477068" lon="10.851339393175039"><ele>113.0</ele><time>2026-04-26T09:38:03Z</time></trkpt><trkpt lat="45.60129616303686" lon="10.851325950004242"><ele>113.0</ele><time>2026-04-26T09:38:04Z</time></trkpt><trkpt lat="45.60138125367419" lon="10.851217426675815"><ele>113.00000000000001</ele><time>2026-04-26T09:38:06Z</time></trkpt><trkpt lat="45.60148825160638" lon="10.851173397047953"><ele>113.00000000000001</ele><time>2026-04-26T09:38:08Z</time></trkpt><trkpt lat="45.601612423888426" lon="10.851069404658896"><ele>113.0</ele><time>2026-04-26T09:38:10Z</time></trkpt><trkpt lat="45.601662317176945" lon="10.850982432899896"><ele>113.0</ele><time>2026-04-26T09:38:11Z</time></trkpt><trkpt lat="45.60173027694009" lon="10.850904845197533"><ele>112.83333333333333</ele><time>2026-04-26T09:38:12Z</time></trkpt><trkpt lat="45.6017736460996" lon="10.850838479747715"><ele>112.66666666666666</ele><time>2026-04-26T09:38:13Z</time></trkpt><trkpt lat="45.601857927635606" lon="10.850719611372787"><ele>112.5</ele><time>2026-04-26T09:38:15Z</time></trkpt><trkpt lat="45.60191201580267" lon="10.850662205186547"><ele>112.33333333333334</ele><time>2026-04-26T09:38:16Z</time></trkpt><trkpt lat="45.601949182962436" lon="10.85051832699999"><ele>112.16666666666667</ele><time>2026-04-26T09:38:18Z</time></trkpt><trkpt lat="45.601955841552574" lon="10.850395638476204"><ele>112.0</ele><time>2026-04-26T09:38:20Z</time></trkpt><trkpt lat="45.60180983952199" lon="10.850321263335879"><ele>112.00000000000001</ele><time>2026-04-26T09:38:21Z</time></trkpt><trkpt lat="45.60172356018648" lon="10.850282841486534"><ele>112.0</ele><time>2026-04-26T09:38:22Z</time></trkpt><trkpt lat="45.601645458782755" lon="10.85025308806884"><ele>112.0</ele><time>2026-04-26T09:38:23Z</time></trkpt><trkpt lat="45.60155902015886" lon="10.850218805486984"><ele>112.0</ele><time>2026-04-26T09:38:24Z</time></trkpt><trkpt lat="45.60146782221655" lon="10.850187275563957"><ele>112.00000000000001</ele><time>2026-04-26T09:38:25Z</time></trkpt><trkpt lat="45.60139130076016" lon="10.850173015054716"><ele>112.0</ele><time>2026-04-26T09:38:26Z</time></trkpt><trkpt lat="45.601321209063066" lon="10.850165705199368"><ele>112.0</ele><time>2026-04-26T09:38:27Z</time></trkpt><trkpt lat="45.60123878139646" lon="10.850157753162918"><ele>111.99999999999999</ele><time>2026-04-26T09:38:28Z</time></trkpt><trkpt lat="45.60114352495727" lon="10.850152635746426"><ele>111.99999999999999</ele><time>2026-04-26T09:38:29Z</time></trkpt><trkpt lat="45.60104891999078" lon="10.850140598294816"><ele>112.0</ele><time>2026-04-26T09:38:30Z</time></trkpt><trkpt lat="45.60095423557042" lon="10.850116012070215"><ele>112.0</ele><time>2026-04-26T09:38:31Z</time></trkpt><trkpt lat="45.600855078252714" lon="10.850084093552054"><ele>112.0</ele><time>2026-04-26T09:38:32Z</time></trkpt><trkpt lat="45.600743901149265" lon="10.850045764228616"><ele>111.99999999999999</ele><time>2026-04-26T09:38:33Z</time></trkpt><trkpt lat="45.60064803268038" lon="10.850010929150537"><ele>111.99999999999999</ele><time>2026-04-26T09:38:34Z</time></trkpt><trkpt lat="45.60056350702358" lon="10.849982394014669"><ele>112.0</ele><time>2026-04-26T09:38:35Z</time></trkpt><trkpt lat="45.600477186919235" lon="10.849951373711713"><ele>112.0</ele><time>2026-04-26T09:38:36Z</time></trkpt><trkpt lat="45.600380473225336" lon="10.849918312454367"><ele>111.50000000000001</ele><time>2026-04-26T09:38:37Z</time></trkpt><trkpt lat="45.6002937879897" lon="10.849893807720298"><ele>111.0</ele><time>2026-04-26T09:38:38Z</time></trkpt><trkpt lat="45.600206989222336" lon="10.849873995885797"><ele>110.5</ele><time>2026-04-26T09:38:39Z</time></trkpt><trkpt lat="45.60013703005095" lon="10.849851720954096"><ele>110.0</ele><time>2026-04-26T09:38:40Z</time></trkpt><trkpt lat="45.60006971894105" lon="10.849831636132022"><ele>109.50000000000001</ele><time>2026-04-26T09:38:41Z</time></trkpt><trkpt lat="45.59995994884865" lon="10.849787814011194"><ele>109.0</ele><time>2026-04-26T09:38:43Z</time></trkpt><trkpt lat="45.599903472045966" lon="10.84970370532499"><ele>109.0</ele><time>2026-04-26T09:38:45Z</time></trkpt><trkpt lat="45.59986406805517" lon="10.849541693394068"><ele>109.0</ele><time>2026-04-26T09:38:48Z</time></trkpt><trkpt lat="45.59989860020073" lon="10.849395441789685"><ele>109.0</ele><time>2026-04-26T09:38:50Z</time></trkpt><trkpt lat="45.59993264932824" lon="10.849296113211235"><ele>109.0</ele><time>2026-04-26T09:38:51Z</time></trkpt><trkpt lat="45.59996349413318" lon="10.849183581959345"><ele>109.0</ele><time>2026-04-26T09:38:52Z</time></trkpt><trkpt lat="45.5999861212404" lon="10.849084688373038"><ele>108.66666666666667</ele><time>2026-04-26T09:38:53Z</time></trkpt><trkpt lat="45.60000529862772" lon="10.848994337882198"><ele>108.33333333333334</ele><time>2026-04-26T09:38:54Z</time></trkpt><trkpt lat="45.60002708742054" lon="10.84890359392259"><ele>108.0</ele><time>2026-04-26T09:38:55Z</time></trkpt><trkpt lat="45.60006034439592" lon="10.84879579148006"><ele>107.66666666666666</ele><time>2026-04-26T09:38:56Z</time></trkpt><trkpt lat="45.60009996776596" lon="10.848674413577156"><ele>107.33333333333333</ele><time>2026-04-26T09:38:57Z</time></trkpt><trkpt lat="45.60014679690775" lon="10.848548881345291"><ele>107.0</ele><time>2026-04-26T09:38:58Z</time></trkpt><trkpt lat="45.6001856117056" lon="10.848438472273598"><ele>106.83333333333333</ele><time>2026-04-26T09:38:59Z</time></trkpt><trkpt lat="45.600228199292154" lon="10.848319841989214"><ele>106.66666666666666</ele><time>2026-04-26T09:39:00Z</time></trkpt><trkpt lat="45.60026819979757" lon="10.84821587300859"><ele>106.5</ele><time>2026-04-26T09:39:01Z</time></trkpt><trkpt lat="45.60030274760241" lon="10.848121456315077"><ele>106.33333333333334</ele><time>2026-04-26T09:39:02Z</time></trkpt><trkpt lat="45.60033416909799" lon="10.848031661707033"><ele>106.16666666666667</ele><time>2026-04-26T09:39:03Z</time></trkpt><trkpt lat="45.60037092116657" lon="10.847935333757691"><ele>106.0</ele><time>2026-04-26T09:39:04Z</time></trkpt><trkpt lat="45.60040496899481" lon="10.847842894013809"><ele>106.00000000000001</ele><time>2026-04-26T09:39:05Z</time></trkpt><trkpt lat="45.600432910648934" lon="10.847754437688646"><ele>106.0</ele><time>2026-04-26T09:39:06Z</time></trkpt><trkpt lat="45.600495531440316" lon="10.847720080102375"><ele>106.0</ele><time>2026-04-26T09:39:07Z</time></trkpt><trkpt lat="45.60054453309822" lon="10.847640973449343"><ele>106.0</ele><time>2026-04-26T09:39:09Z</time></trkpt><trkpt lat="45.60059961822331" lon="10.847570895545438"><ele>106.00000000000001</ele><time>2026-04-26T09:39:19Z</time></trkpt><trkpt lat="45.600649784893555" lon="10.84748494997685"><ele>106.0</ele><time>2026-04-26T09:39:22Z</time></trkpt><trkpt lat="45.60049386290271" lon="10.847229120017431"><ele>105.8</ele><time>2026-04-26T09:39:24Z</time></trkpt><trkpt lat="45.60044842536756" lon="10.847142203885731"><ele>105.6</ele><time>2026-04-26T09:39:25Z</time></trkpt><trkpt lat="45.60039286615527" lon="10.847037661396236"><ele>105.4</ele><time>2026-04-26T09:39:26Z</time></trkpt><trkpt lat="45.60031660344014" lon="10.846937313197277"><ele>105.2</ele><time>2026-04-26T09:39:27Z</time></trkpt><trkpt lat="45.60022867364781" lon="10.846834025242694"><ele>105.0</ele><time>2026-04-26T09:39:28Z</time></trkpt><trkpt lat="45.60016415283294" lon="10.846749955921016"><ele>104.33333333333333</ele><time>2026-04-26T09:39:29Z</time></trkpt><trkpt lat="45.6001129717701" lon="10.846675095754064"><ele>103.66666666666666</ele><time>2026-04-26T09:39:30Z</time></trkpt><trkpt lat="45.600059703145995" lon="10.846595478044065"><ele>103.0</ele><time>2026-04-26T09:39:31Z</time></trkpt><trkpt lat="45.59999143825375" lon="10.846532752777176"><ele>102.33333333333333</ele><time>2026-04-26T09:39:32Z</time></trkpt><trkpt lat="45.599893786089105" lon="10.846471644203016"><ele>101.66666666666666</ele><time>2026-04-26T09:39:33Z</time></trkpt><trkpt lat="45.59980524350857" lon="10.8464282750512"><ele>101.0</ele><time>2026-04-26T09:39:34Z</time></trkpt><trkpt lat="45.59969511178079" lon="10.846376124680626"><ele>101.0</ele><time>2026-04-26T09:39:35Z</time></trkpt><trkpt lat="45.59959356263175" lon="10.846309477291598"><ele>101.0</ele><time>2026-04-26T09:39:36Z</time></trkpt><trkpt lat="45.599477280507934" lon="10.846364948936067"><ele>101.0</ele><time>2026-04-26T09:39:37Z</time></trkpt><trkpt lat="45.59940136557162" lon="10.846312972138213"><ele>101.0</ele><time>2026-04-26T09:39:38Z</time></trkpt><trkpt lat="45.59932070545006" lon="10.846257745929417"><ele>101.0</ele><time>2026-04-26T09:39:39Z</time></trkpt><trkpt lat="45.59925094485624" lon="10.846209983145163"><ele>100.75</ele><time>2026-04-26T09:39:40Z</time></trkpt><trkpt lat="45.59917977170867" lon="10.846161253226242"><ele>100.5</ele><time>2026-04-26T09:39:41Z</time></trkpt><trkpt lat="45.59907526756678" lon="10.846089702678068"><ele>100.25</ele><time>2026-04-26T09:39:42Z</time></trkpt><trkpt lat="45.59902975787645" lon="10.845858242240809"><ele>100.0</ele><time>2026-04-26T09:39:43Z</time></trkpt><trkpt lat="45.5989337793473" lon="10.845798030058914"><ele>100.0</ele><time>2026-04-26T09:39:44Z</time></trkpt><trkpt lat="45.598847805915824" lon="10.845728765511979"><ele>100.0</ele><time>2026-04-26T09:39:45Z</time></trkpt><trkpt lat="45.59877536525769" lon="10.84567766693641"><ele>100.0</ele><time>2026-04-26T09:39:46Z</time></trkpt><trkpt lat="45.598709760488525" lon="10.845636969923989"><ele>100.0</ele><time>2026-04-26T09:39:47Z</time></trkpt><trkpt lat="45.598572603845874" lon="10.845577346704216"><ele>100.0</ele><time>2026-04-26T09:39:49Z</time></trkpt><trkpt lat="45.59848402597793" lon="10.845552875047801"><ele>100.0</ele><time>2026-04-26T09:39:50Z</time></trkpt><trkpt lat="45.598404776087726" lon="10.845524599453693"><ele>100.0</ele><time>2026-04-26T09:39:51Z</time></trkpt><trkpt lat="45.59832007293335" lon="10.845454182917361"><ele>100.0</ele><time>2026-04-26T09:39:52Z</time></trkpt><trkpt lat="45.59824565746273" lon="10.84536773302798"><ele>100.0</ele><time>2026-04-26T09:39:53Z</time></trkpt><trkpt lat="45.59816551841132" lon="10.845312052083175"><ele>100.0</ele><time>2026-04-26T09:39:54Z</time></trkpt><trkpt lat="45.598079380863055" lon="10.84525094707708"><ele>100.0</ele><time>2026-04-26T09:39:55Z</time></trkpt><trkpt lat="45.598002887798366" lon="10.845208935647248"><ele>100.0</ele><time>2026-04-26T09:39:56Z</time></trkpt><trkpt lat="45.59791797888324" lon="10.845153852975555"><ele>100.0</ele><time>2026-04-26T09:39:57Z</time></trkpt><trkpt lat="45.597826575005456" lon="10.84508941895689"><ele>100.0</ele><time>2026-04-26T09:39:58Z</time></trkpt><trkpt lat="45.5977101517604" lon="10.845023436479293"><ele>100.0</ele><time>2026-04-26T09:40:00Z</time></trkpt><trkpt lat="45.59764130711756" lon="10.84500668886773"><ele>100.00000000000001</ele><time>2026-04-26T09:40:03Z</time></trkpt><trkpt lat="45.59759624537302" lon="10.845082505429497"><ele>100.0</ele><time>2026-04-26T09:40:05Z</time></trkpt><trkpt lat="45.59761448495381" lon="10.845181211463993"><ele>100.0</ele><time>2026-04-26T09:40:06Z</time></trkpt><trkpt lat="45.59767113394247" lon="10.845257290593208"><ele>100.0</ele><time>2026-04-26T09:40:07Z</time></trkpt><trkpt lat="45.59775922911957" lon="10.845290503512535"><ele>100.00000000000001</ele><time>2026-04-26T09:40:08Z</time></trkpt><trkpt lat="45.59786255998772" lon="10.845323710125264"><ele>100.0</ele><time>2026-04-26T09:40:09Z</time></trkpt><trkpt lat="45.59794494584024" lon="10.845366735747065"><ele>100.00000000000001</ele><time>2026-04-26T09:40:11Z</time></trkpt><trkpt lat="45.59799264720229" lon="10.84544400183755"><ele>100.0</ele><time>2026-04-26T09:40:15Z</time></trkpt><trkpt lat="45.59789844309341" lon="10.845442309744135"><ele>100.0</ele><time>2026-04-26T09:40:18Z</time></trkpt><trkpt lat="45.597823847971185" lon="10.845397313442605"><ele>100.0</ele><time>2026-04-26T09:40:19Z</time></trkpt><trkpt lat="45.59774798551889" lon="10.845347588725662"><ele>100.00000000000001</ele><time>2026-04-26T09:40:20Z</time></trkpt><trkpt lat="45.597682257351615" lon="10.845315604675996"><ele>100.0</ele><time>2026-04-26T09:40:21Z</time></trkpt><trkpt lat="45.597616397988254" lon="10.845284941476434"><ele>100.16666666666667</ele><time>2026-04-26T09:40:22Z</time></trkpt><trkpt lat="45.59751336320063" lon="10.845229612144365"><ele>100.33333333333334</ele><time>2026-04-26T09:40:24Z</time></trkpt><trkpt lat="45.597453241874675" lon="10.845199856527083"><ele>100.5</ele><time>2026-04-26T09:40:25Z</time></trkpt><trkpt lat="45.59738740809173" lon="10.845172074667868"><ele>100.66666666666666</ele><time>2026-04-26T09:40:26Z</time></trkpt><trkpt lat="45.59730353043634" lon="10.84513304733733"><ele>100.83333333333333</ele><time>2026-04-26T09:40:27Z</time></trkpt><trkpt lat="45.597200941134076" lon="10.845073365528169"><ele>101.0</ele><time>2026-04-26T09:40:28Z</time></trkpt><trkpt lat="45.59711526797032" lon="10.845026498181321"><ele>100.99999999999999</ele><time>2026-04-26T09:40:29Z</time></trkpt><trkpt lat="45.59702057227924" lon="10.84497891751016"><ele>101.0</ele><time>2026-04-26T09:40:30Z</time></trkpt><trkpt lat="45.59694138318157" lon="10.844932449083473"><ele>101.0</ele><time>2026-04-26T09:40:31Z</time></trkpt><trkpt lat="45.59686789401562" lon="10.844886017943946"><ele>101.0</ele><time>2026-04-26T09:40:32Z</time></trkpt><trkpt lat="45.59680841693066" lon="10.844849121272967"><ele>100.99999999999999</ele><time>2026-04-26T09:40:33Z</time></trkpt><trkpt lat="45.596742137788816" lon="10.844816471886885"><ele>101.0</ele><time>2026-04-26T09:40:34Z</time></trkpt><trkpt lat="45.596650685066145" lon="10.84475215558825"><ele>101.0</ele><time>2026-04-26T09:40:35Z</time></trkpt><trkpt lat="45.596540921165975" lon="10.844685098322287"><ele>101.0</ele><time>2026-04-26T09:40:36Z</time></trkpt><trkpt lat="45.59642893482669" lon="10.844614187390778"><ele>101.0</ele><time>2026-04-26T09:40:37Z</time></trkpt><trkpt lat="45.596317037774234" lon="10.844552139400726"><ele>101.0</ele><time>2026-04-26T09:40:38Z</time></trkpt><trkpt lat="45.596219470271556" lon="10.84450120732667"><ele>101.75</ele><time>2026-04-26T09:40:39Z</time></trkpt><trkpt lat="45.59612445409842" lon="10.844455126341082"><ele>102.5</ele><time>2026-04-26T09:40:40Z</time></trkpt><trkpt lat="45.59601542420519" lon="10.84440528429905"><ele>103.25</ele><time>2026-04-26T09:40:41Z</time></trkpt><trkpt lat="45.595909913325606" lon="10.844356085780575"><ele>104.0</ele><time>2026-04-26T09:40:42Z</time></trkpt><trkpt lat="45.59578185305453" lon="10.844297776969485"><ele>103.5</ele><time>2026-04-26T09:40:43Z</time></trkpt><trkpt lat="45.59562501920852" lon="10.844227113423244"><ele>103.0</ele><time>2026-04-26T09:40:44Z</time></trkpt><trkpt lat="45.59548309859842" lon="10.84417705652899"><ele>102.5</ele><time>2026-04-26T09:40:45Z</time></trkpt><trkpt lat="45.59536338506966" lon="10.84413572395119"><ele>102.0</ele><time>2026-04-26T09:40:46Z</time></trkpt><trkpt lat="45.59526204535254" lon="10.844121274517137"><ele>101.5</ele><time>2026-04-26T09:40:47Z</time></trkpt><trkpt lat="45.59516778979575" lon="10.844127814682858"><ele>101.0</ele><time>2026-04-26T09:40:48Z</time></trkpt><trkpt lat="45.59506694708014" lon="10.844115968947138"><ele>100.5</ele><time>2026-04-26T09:40:49Z</time></trkpt><trkpt lat="45.59495174512855" lon="10.844069992272642"><ele>100.0</ele><time>2026-04-26T09:40:50Z</time></trkpt><trkpt lat="45.594818693313435" lon="10.84403221328719"><ele>100.0</ele><time>2026-04-26T09:40:51Z</time></trkpt><trkpt lat="45.59469573193932" lon="10.844000468966604"><ele>100.0</ele><time>2026-04-26T09:40:52Z</time></trkpt><trkpt lat="45.594598287191914" lon="10.84397658474434"><ele>100.0</ele><time>2026-04-26T09:40:53Z</time></trkpt><trkpt lat="45.594526363684054" lon="10.843963127201963"><ele>100.0</ele><time>2026-04-26T09:40:54Z</time></trkpt><trkpt lat="45.59442558434959" lon="10.843988818136312"><ele>100.0</ele><time>2026-04-26T09:40:56Z</time></trkpt><trkpt lat="45.5943943412479" lon="10.844083693712847"><ele>100.25</ele><time>2026-04-26T09:40:57Z</time></trkpt><trkpt lat="45.59437778402637" lon="10.844229968796947"><ele>100.5</ele><time>2026-04-26T09:40:58Z</time></trkpt><trkpt lat="45.594354195806666" lon="10.844412483988297"><ele>100.75</ele><time>2026-04-26T09:40:59Z</time></trkpt><trkpt lat="45.594323175494985" lon="10.84459630563278"><ele>101.0</ele><time>2026-04-26T09:41:00Z</time></trkpt><trkpt lat="45.59428667949497" lon="10.844790219651346"><ele>100.8</ele><time>2026-04-26T09:41:01Z</time></trkpt><trkpt lat="45.59425125541908" lon="10.844981907138859"><ele>100.6</ele><time>2026-04-26T09:41:02Z</time></trkpt><trkpt lat="45.59422223822865" lon="10.84513480760681"><ele>100.4</ele><time>2026-04-26T09:41:03Z</time></trkpt><trkpt lat="45.59419610560477" lon="10.84526124853534"><ele>100.2</ele><time>2026-04-26T09:41:04Z</time></trkpt><trkpt lat="45.59416739096199" lon="10.845360268361876"><ele>100.0</ele><time>2026-04-26T09:41:05Z</time></trkpt><trkpt lat="45.59408413588781" lon="10.84538524012117"><ele>100.0</ele><time>2026-04-26T09:41:07Z</time></trkpt><trkpt lat="45.594008411678715" lon="10.845336236341343"><ele>100.0</ele><time>2026-04-26T09:41:08Z</time></trkpt><trkpt lat="45.59391179477143" lon="10.84526407497888"><ele>100.0</ele><time>2026-04-26T09:41:09Z</time></trkpt><trkpt lat="45.59380396765729" lon="10.845200718705993"><ele>100.0</ele><time>2026-04-26T09:41:10Z</time></trkpt><trkpt lat="45.593696324125276" lon="10.845158765035903"><ele>100.0</ele><time>2026-04-26T09:41:11Z</time></trkpt><trkpt lat="45.59359982475602" lon="10.845116319906312"><ele>100.4</ele><time>2026-04-26T09:41:12Z</time></trkpt><trkpt lat="45.59352521254918" lon="10.845075595785918"><ele>100.8</ele><time>2026-04-26T09:41:13Z</time></trkpt><trkpt lat="45.593478993160225" lon="10.8449056191711"><ele>101.19999999999999</ele><time>2026-04-26T09:41:15Z</time></trkpt><trkpt lat="45.59349722010509" lon="10.844765840134297"><ele>101.6</ele><time>2026-04-26T09:41:16Z</time></trkpt><trkpt lat="45.5935320460384" lon="10.84461947305545"><ele>102.0</ele><time>2026-04-26T09:41:17Z</time></trkpt><trkpt lat="45.593570266780304" lon="10.844464393002486"><ele>102.0</ele><time>2026-04-26T09:41:18Z</time></trkpt><trkpt lat="45.59358687931863" lon="10.844354330378223"><ele>102.0</ele><time>2026-04-26T09:41:19Z</time></trkpt><trkpt lat="45.593522381066244" lon="10.844288031712663"><ele>102.0</ele><time>2026-04-26T09:41:21Z</time></trkpt><trkpt lat="45.593429873402826" lon="10.8442910706132"><ele>102.0</ele><time>2026-04-26T09:41:22Z</time></trkpt><trkpt lat="45.593330623157584" lon="10.84428429023197"><ele>102.0</ele><time>2026-04-26T09:41:23Z</time></trkpt><trkpt lat="45.593224617619015" lon="10.844279192600311"><ele>102.0</ele><time>2026-04-26T09:41:24Z</time></trkpt><trkpt lat="45.5930830866348" lon="10.844272314319594"><ele>102.0</ele><time>2026-04-26T09:41:25Z</time></trkpt><trkpt lat="45.59298727129377" lon="10.844259114090834"><ele>102.0</ele><time>2026-04-26T09:41:26Z</time></trkpt><trkpt lat="45.592902461241074" lon="10.844250541027026"><ele>102.0</ele><time>2026-04-26T09:41:27Z</time></trkpt><trkpt lat="45.59283814763467" lon="10.844181174445474"><ele>102.0</ele><time>2026-04-26T09:41:29Z</time></trkpt><trkpt lat="45.59284599499651" lon="10.844087851821214"><ele>102.0</ele><time>2026-04-26T09:41:30Z</time></trkpt><trkpt lat="45.592871027142806" lon="10.843959859982432"><ele>102.0</ele><time>2026-04-26T09:41:31Z</time></trkpt><trkpt lat="45.59287654463948" lon="10.843844235722731"><ele>102.0</ele><time>2026-04-26T09:41:32Z</time></trkpt><trkpt lat="45.59279423764299" lon="10.843767070769246"><ele>102.0</ele><time>2026-04-26T09:41:34Z</time></trkpt><trkpt lat="45.592694889308014" lon="10.843779858814825"><ele>102.0</ele><time>2026-04-26T09:41:35Z</time></trkpt><trkpt lat="45.59258092872486" lon="10.84380749678866"><ele>101.25</ele><time>2026-04-26T09:41:36Z</time></trkpt><trkpt lat="45.59247461545388" lon="10.843832116600762"><ele>100.5</ele><time>2026-04-26T09:41:37Z</time></trkpt><trkpt lat="45.59235480861682" lon="10.84385024128564"><ele>99.75</ele><time>2026-04-26T09:41:38Z</time></trkpt><trkpt lat="45.59222529916892" lon="10.843870468610113"><ele>99.0</ele><time>2026-04-26T09:41:39Z</time></trkpt><trkpt lat="45.59207965928097" lon="10.843893644130782"><ele>99.75</ele><time>2026-04-26T09:41:40Z</time></trkpt><trkpt lat="45.59193634634777" lon="10.843902037392256"><ele>100.5</ele><time>2026-04-26T09:41:41Z</time></trkpt><trkpt lat="45.59181085590768" lon="10.843915986546978"><ele>101.25</ele><time>2026-04-26T09:41:42Z</time></trkpt><trkpt lat="45.59169595767829" lon="10.843928076646351"><ele>102.0</ele><time>2026-04-26T09:41:43Z</time></trkpt><trkpt lat="45.591570614064075" lon="10.843935539452119"><ele>102.0</ele><time>2026-04-26T09:41:44Z</time></trkpt><trkpt lat="45.59145688538829" lon="10.843950122385536"><ele>102.0</ele><time>2026-04-26T09:41:45Z</time></trkpt><trkpt lat="45.59135984755867" lon="10.843957619768386"><ele>102.0</ele><time>2026-04-26T09:41:46Z</time></trkpt><trkpt lat="45.59123618643708" lon="10.843950303351907"><ele>102.0</ele><time>2026-04-26T09:41:47Z</time></trkpt><trkpt lat="45.591108707336694" lon="10.843936210731544"><ele>101.75</ele><time>2026-04-26T09:41:48Z</time></trkpt><trkpt lat="45.59097230967902" lon="10.843939132850943"><ele>101.5</ele><time>2026-04-26T09:41:49Z</time></trkpt><trkpt lat="45.590828367552" lon="10.843982517486483"><ele>101.25</ele><time>2026-04-26T09:41:50Z</time></trkpt><trkpt lat="45.590682986758665" lon="10.84403684633713"><ele>101.0</ele><time>2026-04-26T09:41:51Z</time></trkpt><trkpt lat="45.590526663537155" lon="10.844080050234279"><ele>101.0</ele><time>2026-04-26T09:41:52Z</time></trkpt><trkpt lat="45.590369968583964" lon="10.8441223887595"><ele>101.0</ele><time>2026-04-26T09:41:53Z</time></trkpt><trkpt lat="45.590190595812174" lon="10.844168981783783"><ele>101.0</ele><time>2026-04-26T09:41:54Z</time></trkpt><trkpt lat="45.59004232883031" lon="10.844204142569929"><ele>101.0</ele><time>2026-04-26T09:41:55Z</time></trkpt><trkpt lat="45.589884617734704" lon="10.84424179355231"><ele>101.0</ele><time>2026-04-26T09:41:56Z</time></trkpt><trkpt lat="45.58974264437011" lon="10.84426974154157"><ele>101.0</ele><time>2026-04-26T09:41:57Z</time></trkpt><trkpt lat="45.589589071521175" lon="10.844293531312246"><ele>101.0</ele><time>2026-04-26T09:41:58Z</time></trkpt><trkpt lat="45.589431389214035" lon="10.844317272156175"><ele>101.0</ele><time>2026-04-26T09:41:59Z</time></trkpt><trkpt lat="45.58926035596549" lon="10.844339137154867"><ele>101.0</ele><time>2026-04-26T09:42:00Z</time></trkpt><trkpt lat="45.58911957035789" lon="10.844370241703762"><ele>101.0</ele><time>2026-04-26T09:42:01Z</time></trkpt><trkpt lat="45.58900021312219" lon="10.844394878388636"><ele>101.0</ele><time>2026-04-26T09:42:02Z</time></trkpt><trkpt lat="45.58888733891178" lon="10.844424223876484"><ele>101.0</ele><time>2026-04-26T09:42:03Z</time></trkpt><trkpt lat="45.5887716419155" lon="10.844474240892092"><ele>101.0</ele><time>2026-04-26T09:42:04Z</time></trkpt><trkpt lat="45.58863888571969" lon="10.84453475541657"><ele>100.75</ele><time>2026-04-26T09:42:05Z</time></trkpt><trkpt lat="45.58850256937627" lon="10.844585801905192"><ele>100.5</ele><time>2026-04-26T09:42:06Z</time></trkpt><trkpt lat="45.58834395582612" lon="10.844642715469101"><ele>100.25</ele><time>2026-04-26T09:42:07Z</time></trkpt><trkpt lat="45.58821501880261" lon="10.84468250172982"><ele>100.0</ele><time>2026-04-26T09:42:08Z</time></trkpt><trkpt lat="45.588093923016665" lon="10.844708699113943"><ele>100.0</ele><time>2026-04-26T09:42:09Z</time></trkpt><trkpt lat="45.587982921471834" lon="10.844735080011308"><ele>100.0</ele><time>2026-04-26T09:42:10Z</time></trkpt><trkpt lat="45.58789559460648" lon="10.844774268472793"><ele>100.0</ele><time>2026-04-26T09:42:11Z</time></trkpt><trkpt lat="45.58779494800962" lon="10.844829953234939"><ele>100.0</ele><time>2026-04-26T09:42:12Z</time></trkpt><trkpt lat="45.58770936460507" lon="10.844890458742453"><ele>100.0</ele><time>2026-04-26T09:42:13Z</time></trkpt><trkpt lat="45.58764042465356" lon="10.844976568579604"><ele>99.66666666666667</ele><time>2026-04-26T09:42:14Z</time></trkpt><trkpt lat="45.58759489233144" lon="10.845094370401887"><ele>99.33333333333334</ele><time>2026-04-26T09:42:15Z</time></trkpt><trkpt lat="45.587581956087746" lon="10.845187935597474"><ele>99.0</ele><time>2026-04-26T09:42:16Z</time></trkpt><trkpt lat="45.5875821885468" lon="10.845309492108276"><ele>98.66666666666666</ele><time>2026-04-26T09:42:17Z</time></trkpt><trkpt lat="45.5875658514289" lon="10.845410621836223"><ele>98.33333333333333</ele><time>2026-04-26T09:42:18Z</time></trkpt><trkpt lat="45.587559989112336" lon="10.84552074045346"><ele>98.0</ele><time>2026-04-26T09:42:20Z</time></trkpt><trkpt lat="45.58761335557505" lon="10.845582630868957"><ele>98.66666666666666</ele><time>2026-04-26T09:42:23Z</time></trkpt><trkpt lat="45.587687922634885" lon="10.845608696181209"><ele>99.33333333333333</ele><time>2026-04-26T09:42:24Z</time></trkpt><trkpt lat="45.58777987944436" lon="10.845621103085536"><ele>100.0</ele><time>2026-04-26T09:42:25Z</time></trkpt><trkpt lat="45.58785984972153" lon="10.845639281217114"><ele>100.66666666666666</ele><time>2026-04-26T09:42:26Z</time></trkpt><trkpt lat="45.58792863558352" lon="10.8456614590412"><ele>101.33333333333333</ele><time>2026-04-26T09:42:27Z</time></trkpt><trkpt lat="45.58800817828582" lon="10.845693554624075"><ele>102.0</ele><time>2026-04-26T09:42:28Z</time></trkpt><trkpt lat="45.58808635904793" lon="10.845730369157536"><ele>102.0</ele><time>2026-04-26T09:42:29Z</time></trkpt><trkpt lat="45.58817616810789" lon="10.845767461001895"><ele>102.0</ele><time>2026-04-26T09:42:30Z</time></trkpt><trkpt lat="45.588282500801036" lon="10.845795781900375"><ele>102.0</ele><time>2026-04-26T09:42:31Z</time></trkpt><trkpt lat="45.58837548690655" lon="10.845847739099032"><ele>102.0</ele><time>2026-04-26T09:42:32Z</time></trkpt><trkpt lat="45.58848935422912" lon="10.845890427577999"><ele>102.0</ele><time>2026-04-26T09:42:33Z</time></trkpt><trkpt lat="45.588612065366114" lon="10.845936431378403"><ele>102.5</ele><time>2026-04-26T09:42:34Z</time></trkpt><trkpt lat="45.588748336394616" lon="10.845984661202293"><ele>103.0</ele><time>2026-04-26T09:42:35Z</time></trkpt><trkpt lat="45.5888873531349" lon="10.846006793501825"><ele>103.5</ele><time>2026-04-26T09:42:36Z</time></trkpt><trkpt lat="45.589020532330984" lon="10.84607039596857"><ele>104.0</ele><time>2026-04-26T09:42:37Z</time></trkpt><trkpt lat="45.58914442920395" lon="10.846103606113928"><ele>104.0</ele><time>2026-04-26T09:42:38Z</time></trkpt><trkpt lat="45.58925411608296" lon="10.84614086274334"><ele>104.0</ele><time>2026-04-26T09:42:39Z</time></trkpt><trkpt lat="45.58935714619033" lon="10.846175813682333"><ele>104.0</ele><time>2026-04-26T09:42:40Z</time></trkpt><trkpt lat="45.58946866025052" lon="10.84621435924851"><ele>104.0</ele><time>2026-04-26T09:42:41Z</time></trkpt><trkpt lat="45.58958736997938" lon="10.846253710276724"><ele>103.6</ele><time>2026-04-26T09:42:42Z</time></trkpt><trkpt lat="45.58970915730194" lon="10.846296050127902"><ele>103.2</ele><time>2026-04-26T09:42:43Z</time></trkpt><trkpt lat="45.58981765894595" lon="10.846334622282818"><ele>102.8</ele><time>2026-04-26T09:42:44Z</time></trkpt><trkpt lat="45.58992297552594" lon="10.846373226815556"><ele>102.39999999999999</ele><time>2026-04-26T09:42:45Z</time></trkpt><trkpt lat="45.59001877960598" lon="10.846405889420087"><ele>102.0</ele><time>2026-04-26T09:42:46Z</time></trkpt><trkpt lat="45.59011339693381" lon="10.846444767313727"><ele>102.0</ele><time>2026-04-26T09:42:47Z</time></trkpt><trkpt lat="45.5901936088422" lon="10.846472941161124"><ele>102.0</ele><time>2026-04-26T09:42:48Z</time></trkpt><trkpt lat="45.590271807494005" lon="10.846504927598385"><ele>102.0</ele><time>2026-04-26T09:42:49Z</time></trkpt><trkpt lat="45.59034470724485" lon="10.846522323667468"><ele>102.0</ele><time>2026-04-26T09:42:50Z</time></trkpt><trkpt lat="45.59040701665512" lon="10.846540768878667"><ele>102.0</ele><time>2026-04-26T09:42:51Z</time></trkpt><trkpt lat="45.59047100905575" lon="10.846561143994725"><ele>102.0</ele><time>2026-04-26T09:42:52Z</time></trkpt><trkpt lat="45.59058925057012" lon="10.846588031298454"><ele>102.25</ele><time>2026-04-26T09:42:54Z</time></trkpt><trkpt lat="45.590592110084415" lon="10.846795406708313"><ele>102.5</ele><time>2026-04-26T09:42:58Z</time></trkpt><trkpt lat="45.5905629961485" lon="10.846917192945941"><ele>102.75</ele><time>2026-04-26T09:42:59Z</time></trkpt><trkpt lat="45.59054517197243" lon="10.847060579658402"><ele>103.0</ele><time>2026-04-26T09:43:00Z</time></trkpt><trkpt lat="45.590505543332384" lon="10.847231643552844"><ele>103.00000000000001</ele><time>2026-04-26T09:43:01Z</time></trkpt><trkpt lat="45.59045654784381" lon="10.847368816553931"><ele>103.0</ele><time>2026-04-26T09:43:02Z</time></trkpt><trkpt lat="45.590420487710674" lon="10.847471946926659"><ele>103.0</ele><time>2026-04-26T09:43:03Z</time></trkpt><trkpt lat="45.59038588589783" lon="10.847573952450837"><ele>103.0</ele><time>2026-04-26T09:43:05Z</time></trkpt><trkpt lat="45.59033886220817" lon="10.84769502802035"><ele>103.00000000000001</ele><time>2026-04-26T09:43:29Z</time></trkpt><trkpt lat="45.590302625024236" lon="10.847777350678133"><ele>103.0</ele><time>2026-04-26T09:43:31Z</time></trkpt><trkpt lat="45.590361110176865" lon="10.84782276286567"><ele>104.60000000000001</ele><time>2026-04-26T09:43:33Z</time></trkpt><trkpt lat="45.590296890480175" lon="10.84797769027014"><ele>106.2</ele><time>2026-04-26T09:43:48Z</time></trkpt><trkpt lat="45.590167035002644" lon="10.847933486848872"><ele>107.8</ele><time>2026-04-26T09:43:49Z</time></trkpt><trkpt lat="45.59009706810432" lon="10.847882846612904"><ele>109.4</ele><time>2026-04-26T09:43:50Z</time></trkpt><trkpt lat="45.5900371893191" lon="10.847829536132325"><ele>111.0</ele><time>2026-04-26T09:43:51Z</time></trkpt><trkpt lat="45.58990984371551" lon="10.847943610745142"><ele>111.0</ele><time>2026-04-26T09:43:52Z</time></trkpt><trkpt lat="45.58982019229122" lon="10.847887800063505"><ele>111.0</ele><time>2026-04-26T09:43:53Z</time></trkpt><trkpt lat="45.58972125897429" lon="10.847827135921305"><ele>111.0</ele><time>2026-04-26T09:43:54Z</time></trkpt><trkpt lat="45.589644959401454" lon="10.847780640150368"><ele>111.0</ele><time>2026-04-26T09:43:55Z</time></trkpt><trkpt lat="45.58954881805277" lon="10.847722052251035"><ele>111.0</ele><time>2026-04-26T09:43:56Z</time></trkpt><trkpt lat="45.589439631942085" lon="10.847656283327506"><ele>110.75</ele><time>2026-04-26T09:43:57Z</time></trkpt><trkpt lat="45.5893137285729" lon="10.847585814022889"><ele>110.5</ele><time>2026-04-26T09:43:58Z</time></trkpt><trkpt lat="45.58920008231763" lon="10.847527237019293"><ele>110.25</ele><time>2026-04-26T09:43:59Z</time></trkpt><trkpt lat="45.589105600670415" lon="10.847479452226436"><ele>110.0</ele><time>2026-04-26T09:44:00Z</time></trkpt><trkpt lat="45.58900755094722" lon="10.847432980134627"><ele>109.99999999999999</ele><time>2026-04-26T09:44:01Z</time></trkpt><trkpt lat="45.58891882795942" lon="10.847397383360637"><ele>110.0</ele><time>2026-04-26T09:44:02Z</time></trkpt><trkpt lat="45.58884199802287" lon="10.847368348665434"><ele>110.0</ele><time>2026-04-26T09:44:03Z</time></trkpt><trkpt lat="45.588767799503486" lon="10.847340308336378"><ele>110.0</ele><time>2026-04-26T09:44:04Z</time></trkpt><trkpt lat="45.588706659670514" lon="10.847317203192043"><ele>109.99999999999999</ele><time>2026-04-26T09:44:07Z</time></trkpt><trkpt lat="45.58864083125478" lon="10.847292326040765"><ele>110.0</ele><time>2026-04-26T09:44:11Z</time></trkpt><trkpt lat="45.5887172872627" lon="10.847188152205058"><ele>109.99999999999999</ele><time>2026-04-26T09:44:18Z</time></trkpt><trkpt lat="45.588799627483795" lon="10.847293689689469"><ele>110.0</ele><time>2026-04-26T09:44:20Z</time></trkpt><trkpt lat="45.58885454881173" lon="10.847357407004498"><ele>110.0</ele><time>2026-04-26T09:44:21Z</time></trkpt><trkpt lat="45.588928340126444" lon="10.847387679378825"><ele>110.0</ele><time>2026-04-26T09:44:22Z</time></trkpt><trkpt lat="45.58900907997878" lon="10.847412436618955"><ele>109.99999999999999</ele><time>2026-04-26T09:44:23Z</time></trkpt><trkpt lat="45.589080117784235" lon="10.847438634364007"><ele>110.0</ele><time>2026-04-26T09:44:24Z</time></trkpt><trkpt lat="45.58911943238704" lon="10.847649540714167"><ele>110.2</ele><time>2026-04-26T09:44:25Z</time></trkpt><trkpt lat="45.58920550512748" lon="10.847693905416106"><ele>110.4</ele><time>2026-04-26T09:44:26Z</time></trkpt><trkpt lat="45.58932710571245" lon="10.847758300990217"><ele>110.6</ele><time>2026-04-26T09:44:28Z</time></trkpt><trkpt lat="45.58939630461302" lon="10.847797570034498"><ele>110.8</ele><time>2026-04-26T09:44:29Z</time></trkpt><trkpt lat="45.58946452212152" lon="10.847838288515085"><ele>111.0</ele><time>2026-04-26T09:44:30Z</time></trkpt><trkpt lat="45.58954448482311" lon="10.847887016743881"><ele>111.0</ele><time>2026-04-26T09:44:31Z</time></trkpt><trkpt lat="45.58963782686696" lon="10.847943898532687"><ele>111.0</ele><time>2026-04-26T09:44:32Z</time></trkpt><trkpt lat="45.589716385114386" lon="10.847991770955797"><ele>111.0</ele><time>2026-04-26T09:44:33Z</time></trkpt><trkpt lat="45.58977925644618" lon="10.848030485645335"><ele>111.0</ele><time>2026-04-26T09:44:34Z</time></trkpt><trkpt lat="45.58984993429694" lon="10.848074484731455"><ele>111.0</ele><time>2026-04-26T09:44:35Z</time></trkpt><trkpt lat="45.589919771777666" lon="10.848121537426923"><ele>111.0</ele><time>2026-04-26T09:44:36Z</time></trkpt><trkpt lat="45.59000345239722" lon="10.848183978930265"><ele>111.0</ele><time>2026-04-26T09:44:37Z</time></trkpt><trkpt lat="45.590070934779106" lon="10.848239746739454"><ele>111.0</ele><time>2026-04-26T09:44:38Z</time></trkpt><trkpt lat="45.590176401617086" lon="10.848359027267993"><ele>111.0</ele><time>2026-04-26T09:44:40Z</time></trkpt><trkpt lat="45.590254792123304" lon="10.84845478279918"><ele>111.0</ele><time>2026-04-26T09:44:42Z</time></trkpt><trkpt lat="45.59031692093709" lon="10.848538871048422"><ele>111.0</ele><time>2026-04-26T09:44:44Z</time></trkpt><trkpt lat="45.59023576274157" lon="10.848403541382345"><ele>111.0</ele><time>2026-04-26T09:44:49Z</time></trkpt><trkpt lat="45.590152375000564" lon="10.8483281097139"><ele>111.0</ele><time>2026-04-26T09:44:50Z</time></trkpt><trkpt lat="45.59009339196446" lon="10.848261475869256"><ele>111.0</ele><time>2026-04-26T09:44:51Z</time></trkpt><trkpt lat="45.59003885804234" lon="10.848197385858354"><ele>111.0</ele><time>2026-04-26T09:44:52Z</time></trkpt><trkpt lat="45.58997682459863" lon="10.848151662295866"><ele>111.0</ele><time>2026-04-26T09:44:53Z</time></trkpt><trkpt lat="45.58992107473351" lon="10.84806457105616"><ele>111.0</ele><time>2026-04-26T09:44:54Z</time></trkpt><trkpt lat="45.58982350226626" lon="10.848005268546345"><ele>111.0</ele><time>2026-04-26T09:44:55Z</time></trkpt><trkpt lat="45.58970601116922" lon="10.847937227280472"><ele>111.0</ele><time>2026-04-26T09:44:56Z</time></trkpt><trkpt lat="45.58959062804059" lon="10.847858343490303"><ele>111.0</ele><time>2026-04-26T09:44:57Z</time></trkpt><trkpt lat="45.58946884990473" lon="10.84777767869406"><ele>111.0</ele><time>2026-04-26T09:44:58Z</time></trkpt><trkpt lat="45.58934558116528" lon="10.847703462370985"><ele>110.75</ele><time>2026-04-26T09:44:59Z</time></trkpt><trkpt lat="45.58923661478553" lon="10.847644538999575"><ele>110.5</ele><time>2026-04-26T09:45:00Z</time></trkpt><trkpt lat="45.58912491900111" lon="10.847586625232722"><ele>110.25</ele><time>2026-04-26T09:45:01Z</time></trkpt><trkpt lat="45.589021391923374" lon="10.84754281800792"><ele>110.0</ele><time>2026-04-26T09:45:02Z</time></trkpt><trkpt lat="45.588914796527966" lon="10.84750139626159"><ele>110.0</ele><time>2026-04-26T09:45:03Z</time></trkpt><trkpt lat="45.58880529725875" lon="10.84745740125559"><ele>110.0</ele><time>2026-04-26T09:45:04Z</time></trkpt><trkpt lat="45.58868884841351" lon="10.847415085581803"><ele>110.0</ele><time>2026-04-26T09:45:05Z</time></trkpt><trkpt lat="45.588573423561165" lon="10.8473782314211"><ele>110.0</ele><time>2026-04-26T09:45:06Z</time></trkpt><trkpt lat="45.58846450423111" lon="10.847335571737181"><ele>112.0</ele><time>2026-04-26T09:45:07Z</time></trkpt><trkpt lat="45.58836505329912" lon="10.847290473696592"><ele>114.0</ele><time>2026-04-26T09:45:08Z</time></trkpt><trkpt lat="45.58825685088849" lon="10.84723247492376"><ele>116.0</ele><time>2026-04-26T09:45:09Z</time></trkpt><trkpt lat="45.58814621410117" lon="10.847150159078744"><ele>118.0</ele><time>2026-04-26T09:45:10Z</time></trkpt><trkpt lat="45.58802963899578" lon="10.847055849969594"><ele>118.0</ele><time>2026-04-26T09:45:11Z</time></trkpt><trkpt lat="45.58790920008146" lon="10.84695672297563"><ele>118.0</ele><time>2026-04-26T09:45:12Z</time></trkpt><trkpt lat="45.587775504950066" lon="10.846856342671924"><ele>118.0</ele><time>2026-04-26T09:45:13Z</time></trkpt><trkpt lat="45.58764422843705" lon="10.846756683380912"><ele>118.0</ele><time>2026-04-26T09:45:14Z</time></trkpt><trkpt lat="45.58750895295673" lon="10.846653505543348"><ele>116.75</ele><time>2026-04-26T09:45:15Z</time></trkpt><trkpt lat="45.587387112856916" lon="10.8465559600657"><ele>115.5</ele><time>2026-04-26T09:45:16Z</time></trkpt><trkpt lat="45.58726277002648" lon="10.846454629957265"><ele>114.25</ele><time>2026-04-26T09:45:17Z</time></trkpt><trkpt lat="45.58713830764083" lon="10.846346005029016"><ele>113.0</ele><time>2026-04-26T09:45:18Z</time></trkpt><trkpt lat="45.58701638984969" lon="10.846244208849924"><ele>112.0</ele><time>2026-04-26T09:45:19Z</time></trkpt><trkpt lat="45.586889346883474" lon="10.846137883656894"><ele>111.0</ele><time>2026-04-26T09:45:20Z</time></trkpt><trkpt lat="45.58675786644351" lon="10.846011468777066"><ele>110.0</ele><time>2026-04-26T09:45:21Z</time></trkpt><trkpt lat="45.58663154870951" lon="10.84587989927914"><ele>110.0</ele><time>2026-04-26T09:45:22Z</time></trkpt><trkpt lat="45.586510483726016" lon="10.845759884067729"><ele>110.0</ele><time>2026-04-26T09:45:23Z</time></trkpt><trkpt lat="45.586391951212015" lon="10.845652220714923"><ele>110.0</ele><time>2026-04-26T09:45:24Z</time></trkpt><trkpt lat="45.58627517914768" lon="10.845545487674066"><ele>110.0</ele><time>2026-04-26T09:45:25Z</time></trkpt><trkpt lat="45.5861522642702" lon="10.84543120086275"><ele>110.25</ele><time>2026-04-26T09:45:26Z</time></trkpt><trkpt lat="45.58602675097206" lon="10.845312422766664"><ele>110.5</ele><time>2026-04-26T09:45:27Z</time></trkpt><trkpt lat="45.58590386927192" lon="10.845200594312537"><ele>110.75</ele><time>2026-04-26T09:45:28Z</time></trkpt><trkpt lat="45.58578025495634" lon="10.8450895976309"><ele>111.0</ele><time>2026-04-26T09:45:29Z</time></trkpt><trkpt lat="45.585666671034055" lon="10.844977749443157"><ele>111.0</ele><time>2026-04-26T09:45:30Z</time></trkpt><trkpt lat="45.58553918932211" lon="10.84485219351752"><ele>111.0</ele><time>2026-04-26T09:45:31Z</time></trkpt><trkpt lat="45.58540957196008" lon="10.84471971854073"><ele>111.0</ele><time>2026-04-26T09:45:32Z</time></trkpt><trkpt lat="45.58528815473902" lon="10.844592387337432"><ele>111.33333333333334</ele><time>2026-04-26T09:45:33Z</time></trkpt><trkpt lat="45.58516361216125" lon="10.84446692686342"><ele>111.66666666666667</ele><time>2026-04-26T09:45:34Z</time></trkpt><trkpt lat="45.58503931676098" lon="10.844330066922284"><ele>112.0</ele><time>2026-04-26T09:45:35Z</time></trkpt><trkpt lat="45.584921105809045" lon="10.844205723136577"><ele>112.0</ele><time>2026-04-26T09:45:36Z</time></trkpt><trkpt lat="45.584794662823455" lon="10.844077021322667"><ele>112.0</ele><time>2026-04-26T09:45:37Z</time></trkpt><trkpt lat="45.58467670827322" lon="10.843952262179341"><ele>112.0</ele><time>2026-04-26T09:45:38Z</time></trkpt><trkpt lat="45.584555542654314" lon="10.843828283056098"><ele>114.66666666666667</ele><time>2026-04-26T09:45:39Z</time></trkpt><trkpt lat="45.58443757718237" lon="10.84369758317025"><ele>117.33333333333334</ele><time>2026-04-26T09:45:40Z</time></trkpt><trkpt lat="45.58431735614376" lon="10.84355764267785"><ele>120.0</ele><time>2026-04-26T09:45:41Z</time></trkpt><trkpt lat="45.584212348635624" lon="10.843395215691876"><ele>120.0</ele><time>2026-04-26T09:45:42Z</time></trkpt><trkpt lat="45.58411302320506" lon="10.843229391468366"><ele>120.0</ele><time>2026-04-26T09:45:43Z</time></trkpt><trkpt lat="45.58401970922967" lon="10.84307198309495"><ele>120.0</ele><time>2026-04-26T09:45:44Z</time></trkpt><trkpt lat="45.58391748758091" lon="10.8429016718551"><ele>120.0</ele><time>2026-04-26T09:45:45Z</time></trkpt><trkpt lat="45.58382591341326" lon="10.842727241240025"><ele>120.0</ele><time>2026-04-26T09:45:46Z</time></trkpt><trkpt lat="45.58372222642311" lon="10.842559683254613"><ele>120.0</ele><time>2026-04-26T09:45:47Z</time></trkpt><trkpt lat="45.58363136910202" lon="10.842406652105604"><ele>123.0</ele><time>2026-04-26T09:45:48Z</time></trkpt><trkpt lat="45.58352747918133" lon="10.84224083467994"><ele>126.0</ele><time>2026-04-26T09:45:49Z</time></trkpt><trkpt lat="45.5834164108783" lon="10.842062568689915"><ele>129.0</ele><time>2026-04-26T09:45:50Z</time></trkpt><trkpt lat="45.58331233628191" lon="10.841883783508413"><ele>122.66666666666666</ele><time>2026-04-26T09:45:51Z</time></trkpt><trkpt lat="45.58320915826941" lon="10.841703384220125"><ele>116.33333333333333</ele><time>2026-04-26T09:45:52Z</time></trkpt><trkpt lat="45.58311083694582" lon="10.841520192209734"><ele>110.0</ele><time>2026-04-26T09:45:53Z</time></trkpt><trkpt lat="45.583022417673035" lon="10.841351319601264"><ele>110.0</ele><time>2026-04-26T09:45:54Z</time></trkpt><trkpt lat="45.58294034087417" lon="10.841179898612884"><ele>110.0</ele><time>2026-04-26T09:45:55Z</time></trkpt><trkpt lat="45.58284919065104" lon="10.840997693337458"><ele>110.0</ele><time>2026-04-26T09:45:56Z</time></trkpt><trkpt lat="45.58276087176846" lon="10.840806638525674"><ele>116.0</ele><time>2026-04-26T09:45:57Z</time></trkpt><trkpt lat="45.58267439300666" lon="10.840609475785012"><ele>122.0</ele><time>2026-04-26T09:45:58Z</time></trkpt><trkpt lat="45.58257666346119" lon="10.840397182688726"><ele>128.0</ele><time>2026-04-26T09:45:59Z</time></trkpt><trkpt lat="45.582499021227115" lon="10.840204344925624"><ele>122.66666666666666</ele><time>2026-04-26T09:46:00Z</time></trkpt><trkpt lat="45.5824290050134" lon="10.840003021255727"><ele>117.33333333333334</ele><time>2026-04-26T09:46:01Z</time></trkpt><trkpt lat="45.58237309363581" lon="10.839811435731207"><ele>112.0</ele><time>2026-04-26T09:46:02Z</time></trkpt><trkpt lat="45.58231127890245" lon="10.839619743256796"><ele>112.0</ele><time>2026-04-26T09:46:03Z</time></trkpt><trkpt lat="45.58224869018752" lon="10.839427987761804"><ele>112.0</ele><time>2026-04-26T09:46:04Z</time></trkpt><trkpt lat="45.58218159160963" lon="10.839221014720055"><ele>112.0</ele><time>2026-04-26T09:46:05Z</time></trkpt><trkpt lat="45.58211341556909" lon="10.83899947101395"><ele>113.66666666666667</ele><time>2026-04-26T09:46:06Z</time></trkpt><trkpt lat="45.58204110223712" lon="10.838783041132771"><ele>115.33333333333334</ele><time>2026-04-26T09:46:07Z</time></trkpt><trkpt lat="45.58196740404014" lon="10.838560848577513"><ele>117.0</ele><time>2026-04-26T09:46:08Z</time></trkpt><trkpt lat="45.581902004409585" lon="10.838362671919265"><ele>117.0</ele><time>2026-04-26T09:46:09Z</time></trkpt><trkpt lat="45.58182922407278" lon="10.838160770188658"><ele>117.0</ele><time>2026-04-26T09:46:10Z</time></trkpt><trkpt lat="45.581766726417186" lon="10.837971106028164"><ele>117.0</ele><time>2026-04-26T09:46:11Z</time></trkpt><trkpt lat="45.58170946229043" lon="10.837766825889522"><ele>114.5</ele><time>2026-04-26T09:46:12Z</time></trkpt><trkpt lat="45.58165475745443" lon="10.837578303111183"><ele>112.0</ele><time>2026-04-26T09:46:13Z</time></trkpt><trkpt lat="45.58158839422906" lon="10.837395351735402"><ele>109.5</ele><time>2026-04-26T09:46:14Z</time></trkpt><trkpt lat="45.581512743138326" lon="10.837217099096883"><ele>107.0</ele><time>2026-04-26T09:46:15Z</time></trkpt><trkpt lat="45.58145914658318" lon="10.837012319094452"><ele>107.0</ele><time>2026-04-26T09:46:16Z</time></trkpt><trkpt lat="45.581394220401954" lon="10.836813532891107"><ele>107.0</ele><time>2026-04-26T09:46:17Z</time></trkpt><trkpt lat="45.581332170562376" lon="10.836632640863128"><ele>107.0</ele><time>2026-04-26T09:46:18Z</time></trkpt><trkpt lat="45.581275234833086" lon="10.83645764760804"><ele>107.0</ele><time>2026-04-26T09:46:19Z</time></trkpt><trkpt lat="45.58122175881348" lon="10.836292108673016"><ele>107.6</ele><time>2026-04-26T09:46:20Z</time></trkpt><trkpt lat="45.58116825931615" lon="10.83614448390556"><ele>108.19999999999999</ele><time>2026-04-26T09:46:21Z</time></trkpt><trkpt lat="45.58113493755338" lon="10.836041448121998"><ele>108.8</ele><time>2026-04-26T09:46:22Z</time></trkpt><trkpt lat="45.58108115618114" lon="10.83587853239411"><ele>109.4</ele><time>2026-04-26T09:46:24Z</time></trkpt><trkpt lat="45.58103095814216" lon="10.835746760031773"><ele>110.0</ele><time>2026-04-26T09:46:26Z</time></trkpt><trkpt lat="45.580997297077694" lon="10.8356437222474"><ele>108.8</ele><time>2026-04-26T09:46:28Z</time></trkpt><trkpt lat="45.5810225995656" lon="10.835558839914256"><ele>107.6</ele><time>2026-04-26T09:46:30Z</time></trkpt><trkpt lat="45.58116858711236" lon="10.8354868461547"><ele>106.4</ele><time>2026-04-26T09:46:34Z</time></trkpt><trkpt lat="45.58120881614347" lon="10.835401639499644"><ele>105.2</ele><time>2026-04-26T09:46:36Z</time></trkpt><trkpt lat="45.58118864023226" lon="10.835250155784367"><ele>104.0</ele><time>2026-04-26T09:46:38Z</time></trkpt><trkpt lat="45.58115626843753" lon="10.835159578087302"><ele>103.83333333333333</ele><time>2026-04-26T09:46:39Z</time></trkpt><trkpt lat="45.581123796167006" lon="10.8350422262437"><ele>103.66666666666666</ele><time>2026-04-26T09:46:40Z</time></trkpt><trkpt lat="45.58109718826364" lon="10.834898172788307"><ele>103.5</ele><time>2026-04-26T09:46:41Z</time></trkpt><trkpt lat="45.58107859024988" lon="10.834769146073036"><ele>103.33333333333334</ele><time>2026-04-26T09:46:42Z</time></trkpt><trkpt lat="45.58106795374617" lon="10.83466707614925"><ele>103.16666666666667</ele><time>2026-04-26T09:46:43Z</time></trkpt><trkpt lat="45.58106187566552" lon="10.83457033580106"><ele>103.0</ele><time>2026-04-26T09:46:44Z</time></trkpt><trkpt lat="45.58105099604841" lon="10.83447341609291"><ele>102.80000000000001</ele><time>2026-04-26T09:46:45Z</time></trkpt><trkpt lat="45.581037073191695" lon="10.834298880485528"><ele>102.6</ele><time>2026-04-26T09:46:47Z</time></trkpt><trkpt lat="45.581036376498105" lon="10.834097007491104"><ele>102.4</ele><time>2026-04-26T09:46:49Z</time></trkpt><trkpt lat="45.58103066479991" lon="10.833986605555552"><ele>102.19999999999999</ele><time>2026-04-26T09:46:50Z</time></trkpt><trkpt lat="45.581023177938825" lon="10.833888711441956"><ele>102.0</ele><time>2026-04-26T09:46:51Z</time></trkpt><trkpt lat="45.581019198775444" lon="10.833767947485109"><ele>102.0</ele><time>2026-04-26T09:46:53Z</time></trkpt><trkpt lat="45.581000748872846" lon="10.833647464005443"><ele>102.0</ele><time>2026-04-26T09:46:58Z</time></trkpt><trkpt lat="45.58100725156359" lon="10.833497664418433"><ele>102.0</ele><time>2026-04-26T09:46:59Z</time></trkpt><trkpt lat="45.58099532330957" lon="10.833331050421434"><ele>102.0</ele><time>2026-04-26T09:47:00Z</time></trkpt><trkpt lat="45.580981679570456" lon="10.833184254210225"><ele>102.0</ele><time>2026-04-26T09:47:01Z</time></trkpt><trkpt lat="45.58097121373757" lon="10.833028359843796"><ele>101.25</ele><time>2026-04-26T09:47:02Z</time></trkpt><trkpt lat="45.58096672591713" lon="10.832868866719746"><ele>100.5</ele><time>2026-04-26T09:47:03Z</time></trkpt><trkpt lat="45.58095857208051" lon="10.832701738082868"><ele>99.75</ele><time>2026-04-26T09:47:04Z</time></trkpt><trkpt lat="45.58094968439999" lon="10.832519966372017"><ele>99.0</ele><time>2026-04-26T09:47:05Z</time></trkpt><trkpt lat="45.58094581545289" lon="10.832350316106144"><ele>98.80000000000001</ele><time>2026-04-26T09:47:06Z</time></trkpt><trkpt lat="45.580950674896144" lon="10.832195100173386"><ele>98.60000000000001</ele><time>2026-04-26T09:47:07Z</time></trkpt><trkpt lat="45.58099430012583" lon="10.832062213047832"><ele>98.4</ele><time>2026-04-26T09:47:08Z</time></trkpt><trkpt lat="45.58100360405851" lon="10.831928737144741"><ele>98.2</ele><time>2026-04-26T09:47:09Z</time></trkpt><trkpt lat="45.581012924650885" lon="10.831804030504735"><ele>98.0</ele><time>2026-04-26T09:47:10Z</time></trkpt><trkpt lat="45.581025610841124" lon="10.8316342941757"><ele>98.0</ele><time>2026-04-26T09:47:11Z</time></trkpt><trkpt lat="45.5810333819321" lon="10.831530319440645"><ele>98.0</ele><time>2026-04-26T09:47:12Z</time></trkpt><trkpt lat="45.5810411525141" lon="10.831420209293519"><ele>98.0</ele><time>2026-04-26T09:47:13Z</time></trkpt><trkpt lat="45.581049510201645" lon="10.83129484384031"><ele>98.0</ele><time>2026-04-26T09:47:14Z</time></trkpt><trkpt lat="45.58105938108901" lon="10.831146780471432"><ele>98.0</ele><time>2026-04-26T09:47:15Z</time></trkpt><trkpt lat="45.581070535959476" lon="10.830979457259454"><ele>98.0</ele><time>2026-04-26T09:47:16Z</time></trkpt><trkpt lat="45.58108351914678" lon="10.830820278479168"><ele>98.0</ele><time>2026-04-26T09:47:17Z</time></trkpt><trkpt lat="45.58109642670717" lon="10.830663790871437"><ele>98.0</ele><time>2026-04-26T09:47:18Z</time></trkpt><trkpt lat="45.581110469266896" lon="10.830506436565019"><ele>98.0</ele><time>2026-04-26T09:47:19Z</time></trkpt><trkpt lat="45.58112465010969" lon="10.830341712923367"><ele>98.0</ele><time>2026-04-26T09:47:20Z</time></trkpt><trkpt lat="45.581118463846764" lon="10.830181822429372"><ele>98.0</ele><time>2026-04-26T09:47:21Z</time></trkpt><trkpt lat="45.58112706744381" lon="10.830038511409285"><ele>98.0</ele><time>2026-04-26T09:47:22Z</time></trkpt><trkpt lat="45.581111862175476" lon="10.829896645814184"><ele>98.0</ele><time>2026-04-26T09:47:23Z</time></trkpt><trkpt lat="45.58107477787727" lon="10.829761279065602"><ele>98.0</ele><time>2026-04-26T09:47:24Z</time></trkpt><trkpt lat="45.58100691380274" lon="10.829634201424039"><ele>98.25</ele><time>2026-04-26T09:47:25Z</time></trkpt><trkpt lat="45.58093213784593" lon="10.829515036762553"><ele>98.5</ele><time>2026-04-26T09:47:26Z</time></trkpt><trkpt lat="45.5808597732579" lon="10.829382281970435"><ele>98.75</ele><time>2026-04-26T09:47:27Z</time></trkpt><trkpt lat="45.580789127568984" lon="10.829244648762657"><ele>99.0</ele><time>2026-04-26T09:47:28Z</time></trkpt><trkpt lat="45.58072283796568" lon="10.829116510508985"><ele>99.33333333333333</ele><time>2026-04-26T09:47:29Z</time></trkpt><trkpt lat="45.580669148676385" lon="10.829004859548391"><ele>99.66666666666666</ele><time>2026-04-26T09:47:30Z</time></trkpt><trkpt lat="45.58061560008737" lon="10.828899333568229"><ele>100.0</ele><time>2026-04-26T09:47:31Z</time></trkpt><trkpt lat="45.5805628297084" lon="10.828797918177836"><ele>100.33333333333333</ele><time>2026-04-26T09:47:32Z</time></trkpt><trkpt lat="45.580526639350396" lon="10.828703996986798"><ele>100.66666666666666</ele><time>2026-04-26T09:47:33Z</time></trkpt><trkpt lat="45.580465381958845" lon="10.828600783467769"><ele>101.0</ele><time>2026-04-26T09:47:34Z</time></trkpt><trkpt lat="45.58036666342125" lon="10.828558591078174"><ele>100.75</ele><time>2026-04-26T09:47:35Z</time></trkpt><trkpt lat="45.58029892986836" lon="10.828467923991075"><ele>100.5</ele><time>2026-04-26T09:47:36Z</time></trkpt><trkpt lat="45.58021010260928" lon="10.828363709094976"><ele>100.25</ele><time>2026-04-26T09:47:37Z</time></trkpt><trkpt lat="45.58009211895003" lon="10.828184083329745"><ele>100.0</ele><time>2026-04-26T09:47:38Z</time></trkpt><trkpt lat="45.58001218762538" lon="10.828059187583566"><ele>100.0</ele><time>2026-04-26T09:47:39Z</time></trkpt><trkpt lat="45.57995220573241" lon="10.82796492316725"><ele>100.0</ele><time>2026-04-26T09:47:40Z</time></trkpt><trkpt lat="45.57988962644847" lon="10.827843832494423"><ele>100.0</ele><time>2026-04-26T09:47:41Z</time></trkpt><trkpt lat="45.57982104765271" lon="10.827759139214667"><ele>100.0</ele><time>2026-04-26T09:47:42Z</time></trkpt><trkpt lat="45.579745328838115" lon="10.827642069947734"><ele>100.0</ele><time>2026-04-26T09:47:44Z</time></trkpt><trkpt lat="45.57983312385769" lon="10.827483348808306"><ele>100.0</ele><time>2026-04-26T09:47:47Z</time></trkpt><trkpt lat="45.57990334452302" lon="10.82739786593275"><ele>100.0</ele><time>2026-04-26T09:47:48Z</time></trkpt><trkpt lat="45.57998163817005" lon="10.827281835942408"><ele>100.0</ele><time>2026-04-26T09:47:49Z</time></trkpt><trkpt lat="45.58006272619414" lon="10.827138422813102"><ele>100.0</ele><time>2026-04-26T09:47:50Z</time></trkpt><trkpt lat="45.58013025223999" lon="10.827004863828645"><ele>100.0</ele><time>2026-04-26T09:47:51Z</time></trkpt><trkpt lat="45.58019645050737" lon="10.826888238489328"><ele>100.0</ele><time>2026-04-26T09:47:52Z</time></trkpt><trkpt lat="45.5802659876691" lon="10.826769266279731"><ele>100.0</ele><time>2026-04-26T09:47:53Z</time></trkpt><trkpt lat="45.580344337757296" lon="10.82664316248527"><ele>100.0</ele><time>2026-04-26T09:47:54Z</time></trkpt><trkpt lat="45.580407380721304" lon="10.826529289599167"><ele>100.0</ele><time>2026-04-26T09:47:55Z</time></trkpt><trkpt lat="45.58048919783294" lon="10.826400882731615"><ele>100.0</ele><time>2026-04-26T09:47:56Z</time></trkpt><trkpt lat="45.580567735134906" lon="10.82625554221217"><ele>100.0</ele><time>2026-04-26T09:47:57Z</time></trkpt><trkpt lat="45.58064472237425" lon="10.826120618192608"><ele>100.0</ele><time>2026-04-26T09:47:58Z</time></trkpt><trkpt lat="45.580720731704844" lon="10.82600111592809"><ele>100.0</ele><time>2026-04-26T09:47:59Z</time></trkpt><trkpt lat="45.58078726397506" lon="10.825877530090965"><ele>99.8</ele><time>2026-04-26T09:48:00Z</time></trkpt><trkpt lat="45.580843880301884" lon="10.825755987074194"><ele>99.6</ele><time>2026-04-26T09:48:01Z</time></trkpt><trkpt lat="45.58089591395668" lon="10.825647806977498"><ele>99.4</ele><time>2026-04-26T09:48:02Z</time></trkpt><trkpt lat="45.580956158961285" lon="10.825556732458223"><ele>99.2</ele><time>2026-04-26T09:48:03Z</time></trkpt><trkpt lat="45.58103148387979" lon="10.825463439613374"><ele>99.0</ele><time>2026-04-26T09:48:04Z</time></trkpt><trkpt lat="45.58111738627471" lon="10.82534729404144"><ele>99.0</ele><time>2026-04-26T09:48:05Z</time></trkpt><trkpt lat="45.581180330379276" lon="10.825215760607907"><ele>99.0</ele><time>2026-04-26T09:48:06Z</time></trkpt><trkpt lat="45.58122364050331" lon="10.825133279703516"><ele>99.0</ele><time>2026-04-26T09:48:07Z</time></trkpt><trkpt lat="45.581292508661875" lon="10.825038340606007"><ele>99.0</ele><time>2026-04-26T09:48:09Z</time></trkpt><trkpt lat="45.58130320454606" lon="10.82493102928974"><ele>99.0</ele><time>2026-04-26T09:48:11Z</time></trkpt><trkpt lat="45.58123708856987" lon="10.824750946254195"><ele>99.0</ele><time>2026-04-26T09:48:13Z</time></trkpt><trkpt lat="45.5811711045046" lon="10.824598152943016"><ele>99.0</ele><time>2026-04-26T09:48:15Z</time></trkpt><trkpt lat="45.58112747452866" lon="10.824504830668747"><ele>99.0</ele><time>2026-04-26T09:48:16Z</time></trkpt><trkpt lat="45.581082217478965" lon="10.82440141289843"><ele>99.0</ele><time>2026-04-26T09:48:17Z</time></trkpt><trkpt lat="45.581026824474954" lon="10.82427452170209"><ele>99.0</ele><time>2026-04-26T09:48:18Z</time></trkpt><trkpt lat="45.58096120135301" lon="10.82416208351698"><ele>99.4</ele><time>2026-04-26T09:48:19Z</time></trkpt><trkpt lat="45.580900684558046" lon="10.824082172539446"><ele>99.80000000000001</ele><time>2026-04-26T09:48:20Z</time></trkpt><trkpt lat="45.58084208788339" lon="10.823999841422145"><ele>100.19999999999999</ele><time>2026-04-26T09:48:21Z</time></trkpt><trkpt lat="45.58077251241556" lon="10.82391080781759"><ele>100.6</ele><time>2026-04-26T09:48:22Z</time></trkpt><trkpt lat="45.58071833774441" lon="10.823844887940004"><ele>101.0</ele><time>2026-04-26T09:48:23Z</time></trkpt><trkpt lat="45.58061716096786" lon="10.823738358477703"><ele>100.99999999999999</ele><time>2026-04-26T09:48:25Z</time></trkpt><trkpt lat="45.58053350196946" lon="10.823669145602862"><ele>101.0</ele><time>2026-04-26T09:48:26Z</time></trkpt><trkpt lat="45.58046707590133" lon="10.823628558236045"><ele>101.0</ele><time>2026-04-26T09:48:27Z</time></trkpt><trkpt lat="45.580385200310324" lon="10.823595078618014"><ele>101.0</ele><time>2026-04-26T09:48:28Z</time></trkpt><trkpt lat="45.58031107695916" lon="10.823573460518158"><ele>100.99999999999999</ele><time>2026-04-26T09:48:29Z</time></trkpt><trkpt lat="45.58021231938388" lon="10.823545285182552"><ele>101.0</ele><time>2026-04-26T09:48:30Z</time></trkpt><trkpt lat="45.580122103296425" lon="10.823508901851286"><ele>100.66666666666666</ele><time>2026-04-26T09:48:31Z</time></trkpt><trkpt lat="45.58003559431697" lon="10.823480328743111"><ele>100.33333333333333</ele><time>2026-04-26T09:48:32Z</time></trkpt><trkpt lat="45.57996803381638" lon="10.823454842318302"><ele>100.0</ele><time>2026-04-26T09:48:33Z</time></trkpt><trkpt lat="45.57989031198121" lon="10.823424989178749"><ele>99.66666666666666</ele><time>2026-04-26T09:48:34Z</time></trkpt><trkpt lat="45.57978843771144" lon="10.823387404589843"><ele>99.33333333333333</ele><time>2026-04-26T09:48:35Z</time></trkpt><trkpt lat="45.57970756399449" lon="10.823366837480567"><ele>99.0</ele><time>2026-04-26T09:48:36Z</time></trkpt><trkpt lat="45.579625177499416" lon="10.823350488966183"><ele>99.0</ele><time>2026-04-26T09:48:37Z</time></trkpt><trkpt lat="45.579538875089995" lon="10.823333731824325"><ele>99.0</ele><time>2026-04-26T09:48:38Z</time></trkpt><trkpt lat="45.57945264780561" lon="10.823320839171144"><ele>99.0</ele><time>2026-04-26T09:48:39Z</time></trkpt><trkpt lat="45.5793570736846" lon="10.823298213829782"><ele>99.0</ele><time>2026-04-26T09:48:40Z</time></trkpt><trkpt lat="45.57928057063692" lon="10.823273875500243"><ele>99.0</ele><time>2026-04-26T09:48:41Z</time></trkpt><trkpt lat="45.57918957570519" lon="10.823250275625652"><ele>99.0</ele><time>2026-04-26T09:48:42Z</time></trkpt><trkpt lat="45.57908246489616" lon="10.823223238389986"><ele>98.5</ele><time>2026-04-26T09:48:43Z</time></trkpt><trkpt lat="45.57900252463037" lon="10.823198365777163"><ele>98.0</ele><time>2026-04-26T09:48:44Z</time></trkpt><trkpt lat="45.57891877399651" lon="10.823172926055367"><ele>97.5</ele><time>2026-04-26T09:48:45Z</time></trkpt><trkpt lat="45.57885673942116" lon="10.823144522841973"><ele>97.0</ele><time>2026-04-26T09:48:46Z</time></trkpt><trkpt lat="45.578783770741076" lon="10.823105551459024"><ele>96.5</ele><time>2026-04-26T09:48:47Z</time></trkpt><trkpt lat="45.57869392786468" lon="10.823061311445644"><ele>96.0</ele><time>2026-04-26T09:48:48Z</time></trkpt><trkpt lat="45.57859186148638" lon="10.823014121710269"><ele>96.0</ele><time>2026-04-26T09:48:49Z</time></trkpt><trkpt lat="45.578512844905816" lon="10.822960437012787"><ele>96.0</ele><time>2026-04-26T09:48:50Z</time></trkpt><trkpt lat="45.578445023419405" lon="10.822912123101043"><ele>96.0</ele><time>2026-04-26T09:48:51Z</time></trkpt><trkpt lat="45.578376763017054" lon="10.822868180620889"><ele>96.0</ele><time>2026-04-26T09:48:52Z</time></trkpt><trkpt lat="45.578295504117364" lon="10.822820875393628"><ele>96.0</ele><time>2026-04-26T09:48:53Z</time></trkpt><trkpt lat="45.57822334333958" lon="10.82278693145298"><ele>96.0</ele><time>2026-04-26T09:48:54Z</time></trkpt><trkpt lat="45.57814476523568" lon="10.822735388307672"><ele>96.0</ele><time>2026-04-26T09:48:55Z</time></trkpt><trkpt lat="45.578047604382775" lon="10.82264571163249"><ele>96.0</ele><time>2026-04-26T09:48:56Z</time></trkpt><trkpt lat="45.57795173259832" lon="10.822554851117934"><ele>96.0</ele><time>2026-04-26T09:48:57Z</time></trkpt><trkpt lat="45.577851066062614" lon="10.822471887577993"><ele>96.0</ele><time>2026-04-26T09:48:58Z</time></trkpt><trkpt lat="45.57775165774045" lon="10.822411231478553"><ele>96.0</ele><time>2026-04-26T09:48:59Z</time></trkpt><trkpt lat="45.57763151688178" lon="10.82234300841559"><ele>96.0</ele><time>2026-04-26T09:49:00Z</time></trkpt><trkpt lat="45.577528960875235" lon="10.822276418151858"><ele>96.0</ele><time>2026-04-26T09:49:01Z</time></trkpt><trkpt lat="45.577433053999606" lon="10.822208873330199"><ele>96.0</ele><time>2026-04-26T09:49:02Z</time></trkpt><trkpt lat="45.57734124158012" lon="10.822156031620905"><ele>96.0</ele><time>2026-04-26T09:49:03Z</time></trkpt><trkpt lat="45.57722508723595" lon="10.822138118517081"><ele>96.0</ele><time>2026-04-26T09:49:04Z</time></trkpt><trkpt lat="45.57709857127879" lon="10.822137603874577"><ele>96.0</ele><time>2026-04-26T09:49:05Z</time></trkpt><trkpt lat="45.57696653852642" lon="10.822135835546241"><ele>96.0</ele><time>2026-04-26T09:49:06Z</time></trkpt><trkpt lat="45.576860237444926" lon="10.822102686672714"><ele>96.0</ele><time>2026-04-26T09:49:07Z</time></trkpt><trkpt lat="45.57675364721505" lon="10.822064691105872"><ele>96.5</ele><time>2026-04-26T09:49:08Z</time></trkpt><trkpt lat="45.576650940244875" lon="10.82202833480214"><ele>97.0</ele><time>2026-04-26T09:49:09Z</time></trkpt><trkpt lat="45.5765378861611" lon="10.821996314059719"><ele>97.5</ele><time>2026-04-26T09:49:10Z</time></trkpt><trkpt lat="45.576403219812036" lon="10.821962421350966"><ele>98.0</ele><time>2026-04-26T09:49:11Z</time></trkpt><trkpt lat="45.576272017763785" lon="10.821920701625364"><ele>97.75</ele><time>2026-04-26T09:49:12Z</time></trkpt><trkpt lat="45.576158575919855" lon="10.82189100404391"><ele>97.5</ele><time>2026-04-26T09:49:13Z</time></trkpt><trkpt lat="45.57605448696427" lon="10.821864299042792"><ele>97.25</ele><time>2026-04-26T09:49:14Z</time></trkpt><trkpt lat="45.57594540528" lon="10.82184528484872"><ele>97.0</ele><time>2026-04-26T09:49:15Z</time></trkpt><trkpt lat="45.575825670239" lon="10.82183548663336"><ele>96.6</ele><time>2026-04-26T09:49:16Z</time></trkpt><trkpt lat="45.575713011780934" lon="10.8217921128508"><ele>96.19999999999999</ele><time>2026-04-26T09:49:17Z</time></trkpt><trkpt lat="45.57561915720357" lon="10.821737131630918"><ele>95.8</ele><time>2026-04-26T09:49:18Z</time></trkpt><trkpt lat="45.57550751763343" lon="10.8217009906735"><ele>95.4</ele><time>2026-04-26T09:49:19Z</time></trkpt><trkpt lat="45.575397247856834" lon="10.82165576330231"><ele>95.0</ele><time>2026-04-26T09:49:20Z</time></trkpt><trkpt lat="45.575288893343334" lon="10.82159966693864"><ele>95.0</ele><time>2026-04-26T09:49:21Z</time></trkpt><trkpt lat="45.57515863912329" lon="10.821537071149779"><ele>95.0</ele><time>2026-04-26T09:49:22Z</time></trkpt><trkpt lat="45.575032403924794" lon="10.821475979567875"><ele>95.0</ele><time>2026-04-26T09:49:23Z</time></trkpt><trkpt lat="45.57491237067503" lon="10.821418286859505"><ele>95.0</ele><time>2026-04-26T09:49:24Z</time></trkpt><trkpt lat="45.57481372559724" lon="10.821373352877044"><ele>95.0</ele><time>2026-04-26T09:49:25Z</time></trkpt><trkpt lat="45.57472636491294" lon="10.82133656604652"><ele>95.0</ele><time>2026-04-26T09:49:26Z</time></trkpt><trkpt lat="45.574634749631656" lon="10.821290030823246"><ele>95.0</ele><time>2026-04-26T09:49:27Z</time></trkpt><trkpt lat="45.57451258088772" lon="10.821251734683425"><ele>95.0</ele><time>2026-04-26T09:49:28Z</time></trkpt><trkpt lat="45.5743847929433" lon="10.82123483458241"><ele>95.0</ele><time>2026-04-26T09:49:29Z</time></trkpt><trkpt lat="45.574256984241494" lon="10.82120911451159"><ele>95.0</ele><time>2026-04-26T09:49:30Z</time></trkpt><trkpt lat="45.57414633920122" lon="10.821154748888706"><ele>95.0</ele><time>2026-04-26T09:49:31Z</time></trkpt><trkpt lat="45.57405490613951" lon="10.821096904980568"><ele>95.0</ele><time>2026-04-26T09:49:32Z</time></trkpt><trkpt lat="45.573964051294055" lon="10.82105542228422"><ele>95.0</ele><time>2026-04-26T09:49:33Z</time></trkpt><trkpt lat="45.57384743663023" lon="10.821002287812032"><ele>95.0</ele><time>2026-04-26T09:49:34Z</time></trkpt><trkpt lat="45.57371907674918" lon="10.820945787235893"><ele>95.6</ele><time>2026-04-26T09:49:35Z</time></trkpt><trkpt lat="45.5736034792091" lon="10.8208878189973"><ele>96.2</ele><time>2026-04-26T09:49:36Z</time></trkpt><trkpt lat="45.57349751114512" lon="10.820828976694656"><ele>96.80000000000001</ele><time>2026-04-26T09:49:37Z</time></trkpt><trkpt lat="45.57340405658396" lon="10.820767918420179"><ele>97.4</ele><time>2026-04-26T09:49:38Z</time></trkpt><trkpt lat="45.57330559540614" lon="10.820726799711307"><ele>98.0</ele><time>2026-04-26T09:49:39Z</time></trkpt><trkpt lat="45.57321107863251" lon="10.82067293292411"><ele>98.0</ele><time>2026-04-26T09:49:40Z</time></trkpt><trkpt lat="45.573114802386996" lon="10.82061395244863"><ele>98.0</ele><time>2026-04-26T09:49:41Z</time></trkpt><trkpt lat="45.57301270949686" lon="10.820554251887636"><ele>98.0</ele><time>2026-04-26T09:49:42Z</time></trkpt><trkpt lat="45.572925299272114" lon="10.820507617586802"><ele>98.0</ele><time>2026-04-26T09:49:43Z</time></trkpt><trkpt lat="45.57282068662257" lon="10.820448856940578"><ele>98.0</ele><time>2026-04-26T09:49:44Z</time></trkpt><trkpt lat="45.57270044937296" lon="10.82037241139522"><ele>98.0</ele><time>2026-04-26T09:49:45Z</time></trkpt><trkpt lat="45.57257239793033" lon="10.820302315359621"><ele>98.0</ele><time>2026-04-26T09:49:46Z</time></trkpt><trkpt lat="45.57245982393039" lon="10.820242909648584"><ele>98.0</ele><time>2026-04-26T09:49:47Z</time></trkpt><trkpt lat="45.572371531853626" lon="10.82019256540562"><ele>98.0</ele><time>2026-04-26T09:49:48Z</time></trkpt><trkpt lat="45.57228478934537" lon="10.820139639352517"><ele>98.0</ele><time>2026-04-26T09:49:49Z</time></trkpt><trkpt lat="45.57220296795354" lon="10.820100478714883"><ele>98.0</ele><time>2026-04-26T09:49:50Z</time></trkpt><trkpt lat="45.57212024768949" lon="10.820110405903202"><ele>98.0</ele><time>2026-04-26T09:49:52Z</time></trkpt><trkpt lat="45.5720780272996" lon="10.820285216825301"><ele>98.0</ele><time>2026-04-26T09:49:54Z</time></trkpt><trkpt lat="45.57205260189128" lon="10.820453100899844"><ele>98.0</ele><time>2026-04-26T09:49:55Z</time></trkpt><trkpt lat="45.57202598678173" lon="10.820625746973715"><ele>97.60000000000001</ele><time>2026-04-26T09:49:56Z</time></trkpt><trkpt lat="45.571998582821664" lon="10.82079383423741"><ele>97.2</ele><time>2026-04-26T09:49:57Z</time></trkpt><trkpt lat="45.57196876116113" lon="10.820929290975503"><ele>96.8</ele><time>2026-04-26T09:49:58Z</time></trkpt><trkpt lat="45.5719138595036" lon="10.82101826758834"><ele>96.4</ele><time>2026-04-26T09:50:00Z</time></trkpt><trkpt lat="45.571802066598075" lon="10.820956458686323"><ele>96.0</ele><time>2026-04-26T09:50:02Z</time></trkpt><trkpt lat="45.57171806394055" lon="10.820903911778402"><ele>96.0</ele><time>2026-04-26T09:50:03Z</time></trkpt><trkpt lat="45.57162884509027" lon="10.82084607124747"><ele>96.0</ele><time>2026-04-26T09:50:04Z</time></trkpt><trkpt lat="45.571529096930995" lon="10.820798731705734"><ele>96.0</ele><time>2026-04-26T09:50:05Z</time></trkpt><trkpt lat="45.57143639450481" lon="10.820773049648272"><ele>96.0</ele><time>2026-04-26T09:50:06Z</time></trkpt><trkpt lat="45.57132378363537" lon="10.820727316844058"><ele>96.0</ele><time>2026-04-26T09:50:07Z</time></trkpt><trkpt lat="45.57121358307747" lon="10.820681846292107"><ele>95.5</ele><time>2026-04-26T09:50:08Z</time></trkpt><trkpt lat="45.57110050606435" lon="10.820639969271818"><ele>95.0</ele><time>2026-04-26T09:50:09Z</time></trkpt><trkpt lat="45.5709813778755" lon="10.820590693546372"><ele>94.5</ele><time>2026-04-26T09:50:10Z</time></trkpt><trkpt lat="45.57087416105773" lon="10.820551430322809"><ele>94.0</ele><time>2026-04-26T09:50:11Z</time></trkpt><trkpt lat="45.57077408902136" lon="10.820514769256919"><ele>94.0</ele><time>2026-04-26T09:50:12Z</time></trkpt><trkpt lat="45.570681410483274" lon="10.820479923777867"><ele>94.0</ele><time>2026-04-26T09:50:13Z</time></trkpt><trkpt lat="45.57057548905589" lon="10.820423628774169"><ele>94.0</ele><time>2026-04-26T09:50:14Z</time></trkpt><trkpt lat="45.570466226851686" lon="10.82036365136719"><ele>94.0</ele><time>2026-04-26T09:50:15Z</time></trkpt><trkpt lat="45.57034694321187" lon="10.820310315634051"><ele>94.25</ele><time>2026-04-26T09:50:16Z</time></trkpt><trkpt lat="45.570216104666706" lon="10.820261099941137"><ele>94.5</ele><time>2026-04-26T09:50:17Z</time></trkpt><trkpt lat="45.57006609242736" lon="10.820202231650574"><ele>94.75</ele><time>2026-04-26T09:50:18Z</time></trkpt><trkpt lat="45.5699400593632" lon="10.820152458191966"><ele>95.0</ele><time>2026-04-26T09:50:19Z</time></trkpt><trkpt lat="45.56982505392764" lon="10.820110012379892"><ele>95.0</ele><time>2026-04-26T09:50:20Z</time></trkpt><trkpt lat="45.569709931962215" lon="10.820064186658248"><ele>95.0</ele><time>2026-04-26T09:50:21Z</time></trkpt><trkpt lat="45.569593808258276" lon="10.820017066582263"><ele>95.0</ele><time>2026-04-26T09:50:22Z</time></trkpt><trkpt lat="45.56949100129816" lon="10.819973189414597"><ele>95.0</ele><time>2026-04-26T09:50:23Z</time></trkpt><trkpt lat="45.569399385174755" lon="10.819939189031693"><ele>95.0</ele><time>2026-04-26T09:50:24Z</time></trkpt><trkpt lat="45.569324575282124" lon="10.819913192020154"><ele>95.0</ele><time>2026-04-26T09:50:25Z</time></trkpt><trkpt lat="45.56923393037762" lon="10.81997457150103"><ele>95.0</ele><time>2026-04-26T09:50:27Z</time></trkpt><trkpt lat="45.569217979657076" lon="10.82006557620384"><ele>95.0</ele><time>2026-04-26T09:50:28Z</time></trkpt><trkpt lat="45.56921620086386" lon="10.820197915244595"><ele>95.0</ele><time>2026-04-26T09:50:29Z</time></trkpt><trkpt lat="45.56924051116191" lon="10.820316509890814"><ele>95.0</ele><time>2026-04-26T09:50:30Z</time></trkpt><trkpt lat="45.56931650134305" lon="10.820450751691126"><ele>95.0</ele><time>2026-04-26T09:50:31Z</time></trkpt><trkpt lat="45.56938793200929" lon="10.820540271884488"><ele>95.0</ele><time>2026-04-26T09:50:32Z</time></trkpt><trkpt lat="45.569456643927026" lon="10.820635587120497"><ele>95.0</ele><time>2026-04-26T09:50:33Z</time></trkpt><trkpt lat="45.56953015396273" lon="10.820740631349063"><ele>95.0</ele><time>2026-04-26T09:50:34Z</time></trkpt><trkpt lat="45.569605443512735" lon="10.820872637651327"><ele>95.0</ele><time>2026-04-26T09:50:35Z</time></trkpt><trkpt lat="45.56965762211831" lon="10.821004654780804"><ele>95.4</ele><time>2026-04-26T09:50:36Z</time></trkpt><trkpt lat="45.56970742634582" lon="10.821117394648283"><ele>95.8</ele><time>2026-04-26T09:50:37Z</time></trkpt><trkpt lat="45.56975555016811" lon="10.821240902912761"><ele>96.19999999999999</ele><time>2026-04-26T09:50:38Z</time></trkpt><trkpt lat="45.569806542411314" lon="10.821360879191284"><ele>96.6</ele><time>2026-04-26T09:50:39Z</time></trkpt><trkpt lat="45.569846867508694" lon="10.82147916396551"><ele>97.0</ele><time>2026-04-26T09:50:40Z</time></trkpt><trkpt lat="45.56987612824238" lon="10.82161611474419"><ele>97.0</ele><time>2026-04-26T09:50:41Z</time></trkpt><trkpt lat="45.56989841990001" lon="10.821751715877976"><ele>97.0</ele><time>2026-04-26T09:50:42Z</time></trkpt><trkpt lat="45.569922311848025" lon="10.821884857330446"><ele>97.0</ele><time>2026-04-26T09:50:43Z</time></trkpt><trkpt lat="45.56994819066144" lon="10.822070712736494"><ele>97.0</ele><time>2026-04-26T09:50:45Z</time></trkpt><trkpt lat="45.56999186841035" lon="10.8222053828967"><ele>97.0</ele><time>2026-04-26T09:50:47Z</time></trkpt><trkpt lat="45.570098556752555" lon="10.822281068220088"><ele>97.19999999999999</ele><time>2026-04-26T09:50:49Z</time></trkpt><trkpt lat="45.570192158161554" lon="10.82230946935767"><ele>97.4</ele><time>2026-04-26T09:50:50Z</time></trkpt><trkpt lat="45.57029372195088" lon="10.822362097853881"><ele>97.6</ele><time>2026-04-26T09:50:51Z</time></trkpt><trkpt lat="45.57037984738938" lon="10.822405384137873"><ele>97.80000000000001</ele><time>2026-04-26T09:50:52Z</time></trkpt><trkpt lat="45.57049084633197" lon="10.822461472954068"><ele>98.0</ele><time>2026-04-26T09:50:53Z</time></trkpt><trkpt lat="45.57060607739885" lon="10.822525950135816"><ele>98.0</ele><time>2026-04-26T09:50:54Z</time></trkpt><trkpt lat="45.57073798267363" lon="10.822596379610768"><ele>98.0</ele><time>2026-04-26T09:50:55Z</time></trkpt><trkpt lat="45.57087392182062" lon="10.822677439731912"><ele>98.0</ele><time>2026-04-26T09:50:56Z</time></trkpt><trkpt lat="45.57100076061438" lon="10.822751521873514"><ele>98.0</ele><time>2026-04-26T09:50:57Z</time></trkpt><trkpt lat="45.57112409364862" lon="10.82281363733483"><ele>99.5</ele><time>2026-04-26T09:50:58Z</time></trkpt><trkpt lat="45.571249173310086" lon="10.822882332336038"><ele>101.0</ele><time>2026-04-26T09:50:59Z</time></trkpt><trkpt lat="45.57137582739052" lon="10.822957045480324"><ele>102.5</ele><time>2026-04-26T09:51:00Z</time></trkpt><trkpt lat="45.5714908597442" lon="10.823025468591876"><ele>104.0</ele><time>2026-04-26T09:51:01Z</time></trkpt><trkpt lat="45.57158949841705" lon="10.823074083202114"><ele>103.99999999999999</ele><time>2026-04-26T09:51:02Z</time></trkpt><trkpt lat="45.57169273439923" lon="10.823112300398682"><ele>104.0</ele><time>2026-04-26T09:51:03Z</time></trkpt><trkpt lat="45.57177111721346" lon="10.82314132374821"><ele>104.0</ele><time>2026-04-26T09:51:04Z</time></trkpt><trkpt lat="45.571845349471644" lon="10.823165001082819"><ele>104.0</ele><time>2026-04-26T09:51:05Z</time></trkpt><trkpt lat="45.57193024430037" lon="10.823195292123527"><ele>103.99999999999999</ele><time>2026-04-26T09:51:06Z</time></trkpt><trkpt lat="45.572012767575224" lon="10.823225488424638"><ele>104.0</ele><time>2026-04-26T09:51:07Z</time></trkpt><trkpt lat="45.57210482827109" lon="10.823244977787809"><ele>103.42857142857143</ele><time>2026-04-26T09:51:09Z</time></trkpt><trkpt lat="45.572146909556785" lon="10.823340766012738"><ele>102.85714285714286</ele><time>2026-04-26T09:51:11Z</time></trkpt><trkpt lat="45.57216875774767" lon="10.823432804172402"><ele>102.28571428571429</ele><time>2026-04-26T09:51:12Z</time></trkpt><trkpt lat="45.572199576726376" lon="10.823515616988914"><ele>101.71428571428572</ele><time>2026-04-26T09:51:13Z</time></trkpt><trkpt lat="45.57221111336726" lon="10.823604968249501"><ele>101.14285714285714</ele><time>2026-04-26T09:51:14Z</time></trkpt><trkpt lat="45.5721842562358" lon="10.823690265429132"><ele>100.57142857142858</ele><time>2026-04-26T09:51:15Z</time></trkpt><trkpt lat="45.57213437399021" lon="10.82376254626995"><ele>100.0</ele><time>2026-04-26T09:51:16Z</time></trkpt><trkpt lat="45.572067208509" lon="10.82388678276866"><ele>100.00000000000001</ele><time>2026-04-26T09:51:18Z</time></trkpt><trkpt lat="45.57203582094554" lon="10.823973388688396"><ele>100.0</ele><time>2026-04-26T09:51:19Z</time></trkpt><trkpt lat="45.5719176505248" lon="10.82403180977152"><ele>100.0</ele><time>2026-04-26T09:51:20Z</time></trkpt><trkpt lat="45.571895417454144" lon="10.824140440921568"><ele>100.0</ele><time>2026-04-26T09:51:21Z</time></trkpt><trkpt lat="45.5718753076224" lon="10.824226647034848"><ele>100.00000000000001</ele><time>2026-04-26T09:51:22Z</time></trkpt><trkpt lat="45.571854811335065" lon="10.824324313357874"><ele>100.0</ele><time>2026-04-26T09:51:23Z</time></trkpt><trkpt lat="45.571855037394535" lon="10.824418401409018"><ele>102.2</ele><time>2026-04-26T09:51:24Z</time></trkpt><trkpt lat="45.57185803526951" lon="10.824312208105344"><ele>104.4</ele><time>2026-04-26T09:51:36Z</time></trkpt><trkpt lat="45.57188665298885" lon="10.824210986688698"><ele>106.6</ele><time>2026-04-26T09:51:37Z</time></trkpt><trkpt lat="45.5719126054375" lon="10.824097661616898"><ele>108.8</ele><time>2026-04-26T09:51:38Z</time></trkpt><trkpt lat="45.571926778654415" lon="10.823934826128816"><ele>111.0</ele><time>2026-04-26T09:51:40Z</time></trkpt><trkpt lat="45.57183790778404" lon="10.823831902455039"><ele>111.0</ele><time>2026-04-26T09:51:42Z</time></trkpt><trkpt lat="45.57174117511179" lon="10.823856446906934"><ele>111.0</ele><time>2026-04-26T09:51:44Z</time></trkpt><trkpt lat="45.57168547949842" lon="10.823991106105408"><ele>111.0</ele><time>2026-04-26T09:51:47Z</time></trkpt><trkpt lat="45.57168900286919" lon="10.824093245770763"><ele>111.0</ele><time>2026-04-26T09:51:48Z</time></trkpt><trkpt lat="45.57170011706558" lon="10.824182566355157"><ele>111.0</ele><time>2026-04-26T09:51:49Z</time></trkpt><trkpt lat="45.571695756475854" lon="10.824276065746274"><ele>111.0</ele><time>2026-04-26T09:51:50Z</time></trkpt><trkpt lat="45.571699005684415" lon="10.824388332151312"><ele>111.66666666666667</ele><time>2026-04-26T09:51:51Z</time></trkpt><trkpt lat="45.57171963227227" lon="10.824500634047114"><ele>112.33333333333334</ele><time>2026-04-26T09:51:52Z</time></trkpt><trkpt lat="45.571746589314756" lon="10.824607916222625"><ele>113.0</ele><time>2026-04-26T09:51:53Z</time></trkpt><trkpt lat="45.5717754728321" lon="10.824751774978079"><ele>113.66666666666667</ele><time>2026-04-26T09:51:55Z</time></trkpt><trkpt lat="45.571795195227864" lon="10.824862788399548"><ele>114.33333333333334</ele><time>2026-04-26T09:51:57Z</time></trkpt><trkpt lat="45.57181646614815" lon="10.82497603833662"><ele>115.0</ele><time>2026-04-26T09:51:59Z</time></trkpt><trkpt lat="45.571834110019736" lon="10.82506247035964"><ele>116.4</ele><time>2026-04-26T09:52:00Z</time></trkpt><trkpt lat="45.57185163948597" lon="10.825191985956803"><ele>117.8</ele><time>2026-04-26T09:52:02Z</time></trkpt><trkpt lat="45.571874857754594" lon="10.82529875017209"><ele>119.19999999999999</ele><time>2026-04-26T09:52:04Z</time></trkpt><trkpt lat="45.57170855651936" lon="10.825388447953014"><ele>120.6</ele><time>2026-04-26T09:52:08Z</time></trkpt><trkpt lat="45.57162572609867" lon="10.82540471858045"><ele>122.0</ele><time>2026-04-26T09:52:09Z</time></trkpt><trkpt lat="45.571535659092" lon="10.825419713717897"><ele>122.0</ele><time>2026-04-26T09:52:10Z</time></trkpt><trkpt lat="45.571428650167064" lon="10.825441136030161"><ele>121.99999999999999</ele><time>2026-04-26T09:52:11Z</time></trkpt><trkpt lat="45.57132630179785" lon="10.82547544775364"><ele>121.99999999999999</ele><time>2026-04-26T09:52:12Z</time></trkpt><trkpt lat="45.571219113181584" lon="10.82551948057778"><ele>122.0</ele><time>2026-04-26T09:52:13Z</time></trkpt><trkpt lat="45.57112668530277" lon="10.825507840995995"><ele>122.0</ele><time>2026-04-26T09:52:14Z</time></trkpt><trkpt lat="45.57103527623431" lon="10.825553659707353"><ele>121.19999999999999</ele><time>2026-04-26T09:52:15Z</time></trkpt><trkpt lat="45.570939534112334" lon="10.825575379736327"><ele>120.39999999999999</ele><time>2026-04-26T09:52:16Z</time></trkpt><trkpt lat="45.570835784859604" lon="10.825614396453016"><ele>119.60000000000001</ele><time>2026-04-26T09:52:17Z</time></trkpt><trkpt lat="45.57075174942228" lon="10.82565992224573"><ele>118.80000000000001</ele><time>2026-04-26T09:52:18Z</time></trkpt><trkpt lat="45.570653192570674" lon="10.825703664942111"><ele>118.0</ele><time>2026-04-26T09:52:19Z</time></trkpt><trkpt lat="45.570567190608024" lon="10.825741602262706"><ele>118.0</ele><time>2026-04-26T09:52:20Z</time></trkpt><trkpt lat="45.57049079475715" lon="10.82578744741678"><ele>118.00000000000001</ele><time>2026-04-26T09:52:21Z</time></trkpt><trkpt lat="45.57040968120695" lon="10.825832010193922"><ele>118.00000000000001</ele><time>2026-04-26T09:52:22Z</time></trkpt><trkpt lat="45.57031924035714" lon="10.825881125118297"><ele>118.0</ele><time>2026-04-26T09:52:23Z</time></trkpt><trkpt lat="45.570226470750406" lon="10.825928018153945"><ele>118.0</ele><time>2026-04-26T09:52:24Z</time></trkpt><trkpt lat="45.57013446718989" lon="10.825975175430326"><ele>119.4</ele><time>2026-04-26T09:52:25Z</time></trkpt><trkpt lat="45.57004664061836" lon="10.826021406049753"><ele>120.80000000000001</ele><time>2026-04-26T09:52:26Z</time></trkpt><trkpt lat="45.56995845780049" lon="10.826084334536622"><ele>122.2</ele><time>2026-04-26T09:52:27Z</time></trkpt><trkpt lat="45.569857332327565" lon="10.826172654037284"><ele>123.6</ele><time>2026-04-26T09:52:28Z</time></trkpt><trkpt lat="45.569776550871566" lon="10.826265988909142"><ele>125.0</ele><time>2026-04-26T09:52:29Z</time></trkpt><trkpt lat="45.56970667870639" lon="10.82634087465973"><ele>125.0</ele><time>2026-04-26T09:52:30Z</time></trkpt><trkpt lat="45.569648413945714" lon="10.82640255063907"><ele>125.0</ele><time>2026-04-26T09:52:31Z</time></trkpt><trkpt lat="45.56955231118193" lon="10.826504945760071"><ele>125.0</ele><time>2026-04-26T09:52:33Z</time></trkpt><trkpt lat="45.569475766531" lon="10.82660351905981"><ele>125.0</ele><time>2026-04-26T09:52:35Z</time></trkpt><trkpt lat="45.56938098429707" lon="10.82661404150774"><ele>125.0</ele><time>2026-04-26T09:52:36Z</time></trkpt><trkpt lat="45.56927937934664" lon="10.826650379666424"><ele>124.5</ele><time>2026-04-26T09:52:37Z</time></trkpt><trkpt lat="45.56916780308876" lon="10.826690900384833"><ele>124.0</ele><time>2026-04-26T09:52:38Z</time></trkpt><trkpt lat="45.56904385912007" lon="10.826738850076362"><ele>123.5</ele><time>2026-04-26T09:52:39Z</time></trkpt><trkpt lat="45.56890940184771" lon="10.82678499050779"><ele>123.0</ele><time>2026-04-26T09:52:40Z</time></trkpt><trkpt lat="45.5687754176634" lon="10.82682556084333"><ele>133.75</ele><time>2026-04-26T09:52:41Z</time></trkpt><trkpt lat="45.56865060090613" lon="10.826852099172775"><ele>144.5</ele><time>2026-04-26T09:52:42Z</time></trkpt><trkpt lat="45.568526924588596" lon="10.826877439040796"><ele>155.25</ele><time>2026-04-26T09:52:43Z</time></trkpt><trkpt lat="45.56839311397488" lon="10.826891229183573"><ele>166.0</ele><time>2026-04-26T09:52:44Z</time></trkpt><trkpt lat="45.568248511574396" lon="10.82689241125332"><ele>166.0</ele><time>2026-04-26T09:52:45Z</time></trkpt><trkpt lat="45.56810171359324" lon="10.826862764723774"><ele>166.0</ele><time>2026-04-26T09:52:46Z</time></trkpt><trkpt lat="45.5679793200442" lon="10.826802323018295"><ele>166.0</ele><time>2026-04-26T09:52:47Z</time></trkpt><trkpt lat="45.56787329513483" lon="10.826713902275749"><ele>166.0</ele><time>2026-04-26T09:52:48Z</time></trkpt><trkpt lat="45.56777470392088" lon="10.826606662397564"><ele>166.0</ele><time>2026-04-26T09:52:49Z</time></trkpt><trkpt lat="45.56766013326716" lon="10.826516289226026"><ele>166.0</ele><time>2026-04-26T09:52:50Z</time></trkpt><trkpt lat="45.56751918249905" lon="10.826458675162533"><ele>166.0</ele><time>2026-04-26T09:52:51Z</time></trkpt><trkpt lat="45.56735649635202" lon="10.826423241402095"><ele>166.0</ele><time>2026-04-26T09:52:52Z</time></trkpt><trkpt lat="45.56718533345035" lon="10.826390232395633"><ele>191.0</ele><time>2026-04-26T09:52:53Z</time></trkpt><trkpt lat="45.567025403597995" lon="10.826352775774673"><ele>216.0</ele><time>2026-04-26T09:52:54Z</time></trkpt><trkpt lat="45.56686221555646" lon="10.82631649219317"><ele>241.0</ele><time>2026-04-26T09:52:55Z</time></trkpt><trkpt lat="45.566685584573285" lon="10.826272590565221"><ele>241.0</ele><time>2026-04-26T09:52:56Z</time></trkpt><trkpt lat="45.56649613263096" lon="10.826226756087136"><ele>241.0</ele><time>2026-04-26T09:52:57Z</time></trkpt><trkpt lat="45.566331108709214" lon="10.826203573422857"><ele>241.0</ele><time>2026-04-26T09:52:58Z</time></trkpt><trkpt lat="45.566168109729496" lon="10.8261703095816"><ele>234.0</ele><time>2026-04-26T09:52:59Z</time></trkpt><trkpt lat="45.56600411536554" lon="10.826138744084888"><ele>227.0</ele><time>2026-04-26T09:53:00Z</time></trkpt><trkpt lat="45.565839235093" lon="10.826104370642604"><ele>220.0</ele><time>2026-04-26T09:53:01Z</time></trkpt><trkpt lat="45.56568379644838" lon="10.826076923753481"><ele>220.0</ele><time>2026-04-26T09:53:02Z</time></trkpt><trkpt lat="45.565510414048724" lon="10.826045225249153"><ele>220.0</ele><time>2026-04-26T09:53:03Z</time></trkpt><trkpt lat="45.56533744727035" lon="10.826008854176264"><ele>220.0</ele><time>2026-04-26T09:53:04Z</time></trkpt><trkpt lat="45.56517854528761" lon="10.825978663608788"><ele>199.25</ele><time>2026-04-26T09:53:05Z</time></trkpt><trkpt lat="45.56503544043181" lon="10.825950777728146"><ele>178.5</ele><time>2026-04-26T09:53:06Z</time></trkpt><trkpt lat="45.56489562453951" lon="10.825928010205027"><ele>157.75</ele><time>2026-04-26T09:53:07Z</time></trkpt><trkpt lat="45.56476495459069" lon="10.825900458975434"><ele>137.0</ele><time>2026-04-26T09:53:08Z</time></trkpt><trkpt lat="45.56463667162181" lon="10.825880101258202"><ele>130.75</ele><time>2026-04-26T09:53:09Z</time></trkpt><trkpt lat="45.56451194405994" lon="10.825862264646126"><ele>124.5</ele><time>2026-04-26T09:53:10Z</time></trkpt><trkpt lat="45.5643841637464" lon="10.82585136748095"><ele>118.25</ele><time>2026-04-26T09:53:11Z</time></trkpt><trkpt lat="45.56424465291262" lon="10.825848877939139"><ele>112.0</ele><time>2026-04-26T09:53:12Z</time></trkpt><trkpt lat="45.56409535075703" lon="10.825855312870175"><ele>112.0</ele><time>2026-04-26T09:53:13Z</time></trkpt><trkpt lat="45.56395043281885" lon="10.825871005493656"><ele>112.0</ele><time>2026-04-26T09:53:14Z</time></trkpt><trkpt lat="45.56380839406545" lon="10.825900890063124"><ele>112.0</ele><time>2026-04-26T09:53:15Z</time></trkpt><trkpt lat="45.56366208610727" lon="10.825939311328836"><ele>112.0</ele><time>2026-04-26T09:53:16Z</time></trkpt><trkpt lat="45.56352340335659" lon="10.825985986966366"><ele>114.5</ele><time>2026-04-26T09:53:17Z</time></trkpt><trkpt lat="45.563391045070134" lon="10.826053856396559"><ele>117.0</ele><time>2026-04-26T09:53:18Z</time></trkpt><trkpt lat="45.56325489206926" lon="10.82613634029316"><ele>119.5</ele><time>2026-04-26T09:53:19Z</time></trkpt><trkpt lat="45.56312190657144" lon="10.826226495390976"><ele>122.0</ele><time>2026-04-26T09:53:20Z</time></trkpt><trkpt lat="45.5630017932798" lon="10.826319874195796"><ele>122.0</ele><time>2026-04-26T09:53:21Z</time></trkpt><trkpt lat="45.56288436325885" lon="10.826431397046148"><ele>122.0</ele><time>2026-04-26T09:53:22Z</time></trkpt><trkpt lat="45.56277785058328" lon="10.826557732130537"><ele>122.0</ele><time>2026-04-26T09:53:23Z</time></trkpt><trkpt lat="45.56266671389167" lon="10.826716641796352"><ele>122.0</ele><time>2026-04-26T09:53:24Z</time></trkpt><trkpt lat="45.562572794967195" lon="10.826876523367611"><ele>115.75</ele><time>2026-04-26T09:53:25Z</time></trkpt><trkpt lat="45.562477453570104" lon="10.827027021821493"><ele>109.5</ele><time>2026-04-26T09:53:26Z</time></trkpt><trkpt lat="45.56238695628835" lon="10.827167841910402"><ele>103.25</ele><time>2026-04-26T09:53:27Z</time></trkpt><trkpt lat="45.56230312129001" lon="10.827300029138607"><ele>97.0</ele><time>2026-04-26T09:53:28Z</time></trkpt><trkpt lat="45.56220933576612" lon="10.827446379861502"><ele>97.0</ele><time>2026-04-26T09:53:29Z</time></trkpt><trkpt lat="45.562101376708206" lon="10.827591508115145"><ele>97.0</ele><time>2026-04-26T09:53:30Z</time></trkpt><trkpt lat="45.56198475464896" lon="10.827716539064047"><ele>97.0</ele><time>2026-04-26T09:53:31Z</time></trkpt><trkpt lat="45.561857246151824" lon="10.827831894032348"><ele>97.0</ele><time>2026-04-26T09:53:32Z</time></trkpt><trkpt lat="45.56173601581837" lon="10.82794287220153"><ele>102.25</ele><time>2026-04-26T09:53:33Z</time></trkpt><trkpt lat="45.561620988001" lon="10.828069357007164"><ele>107.5</ele><time>2026-04-26T09:53:34Z</time></trkpt><trkpt lat="45.56150958688599" lon="10.828198797386749"><ele>112.75</ele><time>2026-04-26T09:53:35Z</time></trkpt><trkpt lat="45.56140391062706" lon="10.828332968634427"><ele>118.0</ele><time>2026-04-26T09:53:36Z</time></trkpt><trkpt lat="45.56129782689447" lon="10.828467108348281"><ele>118.0</ele><time>2026-04-26T09:53:37Z</time></trkpt><trkpt lat="45.56119409468545" lon="10.828599349881666"><ele>118.0</ele><time>2026-04-26T09:53:38Z</time></trkpt><trkpt lat="45.561091854851455" lon="10.828736102688687"><ele>118.0</ele><time>2026-04-26T09:53:39Z</time></trkpt><trkpt lat="45.56098837860531" lon="10.828877417264339"><ele>118.0</ele><time>2026-04-26T09:53:40Z</time></trkpt><trkpt lat="45.560887225621016" lon="10.829030272259528"><ele>118.0</ele><time>2026-04-26T09:53:41Z</time></trkpt><trkpt lat="45.56078958212521" lon="10.829200783212652"><ele>118.0</ele><time>2026-04-26T09:53:42Z</time></trkpt><trkpt lat="45.56070266310182" lon="10.829377562216113"><ele>118.0</ele><time>2026-04-26T09:53:43Z</time></trkpt><trkpt lat="45.56061559071249" lon="10.829562633789028"><ele>118.0</ele><time>2026-04-26T09:53:44Z</time></trkpt><trkpt lat="45.560527084738936" lon="10.829736988662328"><ele>118.0</ele><time>2026-04-26T09:53:45Z</time></trkpt><trkpt lat="45.56044664699867" lon="10.829896989273747"><ele>118.0</ele><time>2026-04-26T09:53:46Z</time></trkpt><trkpt lat="45.56037153346843" lon="10.830043706002716"><ele>118.0</ele><time>2026-04-26T09:53:47Z</time></trkpt><trkpt lat="45.56029439801601" lon="10.830185137070329"><ele>118.0</ele><time>2026-04-26T09:53:48Z</time></trkpt><trkpt lat="45.5601831464411" lon="10.830331298700003"><ele>118.0</ele><time>2026-04-26T09:53:49Z</time></trkpt><trkpt lat="45.56004282724963" lon="10.830453638262941"><ele>118.0</ele><time>2026-04-26T09:53:50Z</time></trkpt><trkpt lat="45.55988892397462" lon="10.830566293199052"><ele>118.0</ele><time>2026-04-26T09:53:51Z</time></trkpt><trkpt lat="45.5597415794136" lon="10.830677121500045"><ele>118.0</ele><time>2026-04-26T09:53:52Z</time></trkpt><trkpt lat="45.55958321008563" lon="10.830803852402392"><ele>118.0</ele><time>2026-04-26T09:53:53Z</time></trkpt><trkpt lat="45.55943136864884" lon="10.830913973883886"><ele>145.0</ele><time>2026-04-26T09:53:54Z</time></trkpt><trkpt lat="45.55928667139036" lon="10.831018394652485"><ele>172.0</ele><time>2026-04-26T09:53:55Z</time></trkpt><trkpt lat="45.559137950514106" lon="10.831116344896083"><ele>199.0</ele><time>2026-04-26T09:53:56Z</time></trkpt><trkpt lat="45.55898504013149" lon="10.831204173488409"><ele>199.0</ele><time>2026-04-26T09:53:57Z</time></trkpt><trkpt lat="45.55883918081755" lon="10.83128265502251"><ele>199.0</ele><time>2026-04-26T09:53:58Z</time></trkpt><trkpt lat="45.55869344857266" lon="10.831363381981637"><ele>199.0</ele><time>2026-04-26T09:53:59Z</time></trkpt><trkpt lat="45.55853924083616" lon="10.831452205159628"><ele>205.66666666666666</ele><time>2026-04-26T09:54:00Z</time></trkpt><trkpt lat="45.558388158720085" lon="10.831534007260846"><ele>212.33333333333331</ele><time>2026-04-26T09:54:01Z</time></trkpt><trkpt lat="45.558243282549654" lon="10.831598542157211"><ele>219.0</ele><time>2026-04-26T09:54:02Z</time></trkpt><trkpt lat="45.558080196397576" lon="10.83165065374892"><ele>219.0</ele><time>2026-04-26T09:54:03Z</time></trkpt><trkpt lat="45.557918637597766" lon="10.831677456697433"><ele>219.0</ele><time>2026-04-26T09:54:04Z</time></trkpt><trkpt lat="45.557757262024516" lon="10.83171780281188"><ele>219.0</ele><time>2026-04-26T09:54:05Z</time></trkpt><trkpt lat="45.557592911695586" lon="10.831724836961733"><ele>219.0</ele><time>2026-04-26T09:54:06Z</time></trkpt><trkpt lat="45.55741297185253" lon="10.831702427178424"><ele>219.0</ele><time>2026-04-26T09:54:07Z</time></trkpt><trkpt lat="45.557243510387664" lon="10.831657293642566"><ele>219.0</ele><time>2026-04-26T09:54:08Z</time></trkpt><trkpt lat="45.55706595734868" lon="10.831600630724296"><ele>207.33333333333334</ele><time>2026-04-26T09:54:09Z</time></trkpt><trkpt lat="45.556891806215326" lon="10.83157340682012"><ele>195.66666666666669</ele><time>2026-04-26T09:54:10Z</time></trkpt><trkpt lat="45.55673412721851" lon="10.831531636296159"><ele>184.0</ele><time>2026-04-26T09:54:11Z</time></trkpt><trkpt lat="45.556586679257144" lon="10.831496088352791"><ele>184.0</ele><time>2026-04-26T09:54:12Z</time></trkpt><trkpt lat="45.55643809208646" lon="10.831469072756086"><ele>184.0</ele><time>2026-04-26T09:54:13Z</time></trkpt><trkpt lat="45.556280044165945" lon="10.831442415617447"><ele>184.0</ele><time>2026-04-26T09:54:14Z</time></trkpt><trkpt lat="45.5561125462329" lon="10.831400540964285"><ele>201.33333333333334</ele><time>2026-04-26T09:54:15Z</time></trkpt><trkpt lat="45.5559540483072" lon="10.831325862205542"><ele>218.66666666666669</ele><time>2026-04-26T09:54:16Z</time></trkpt><trkpt lat="45.55577941228345" lon="10.83123036671052"><ele>236.0</ele><time>2026-04-26T09:54:17Z</time></trkpt><trkpt lat="45.55562543089635" lon="10.831120257912485"><ele>236.0</ele><time>2026-04-26T09:54:18Z</time></trkpt><trkpt lat="45.55546651356511" lon="10.830980910727734"><ele>236.0</ele><time>2026-04-26T09:54:19Z</time></trkpt><trkpt lat="45.55531775274055" lon="10.83082959500721"><ele>236.0</ele><time>2026-04-26T09:54:20Z</time></trkpt><trkpt lat="45.55518170475945" lon="10.830668716382652"><ele>188.33333333333334</ele><time>2026-04-26T09:54:21Z</time></trkpt><trkpt lat="45.555040085701464" lon="10.83052281627554"><ele>140.66666666666669</ele><time>2026-04-26T09:54:22Z</time></trkpt><trkpt lat="45.554891608139954" lon="10.830389673203205"><ele>93.0</ele><time>2026-04-26T09:54:23Z</time></trkpt><trkpt lat="45.55473489020946" lon="10.830265614571173"><ele>93.0</ele><time>2026-04-26T09:54:24Z</time></trkpt><trkpt lat="45.55458158106257" lon="10.830155407480733"><ele>93.0</ele><time>2026-04-26T09:54:25Z</time></trkpt><trkpt lat="45.55443307486114" lon="10.830063983781953"><ele>93.0</ele><time>2026-04-26T09:54:26Z</time></trkpt><trkpt lat="45.55430386985338" lon="10.829991383913695"><ele>95.0</ele><time>2026-04-26T09:54:27Z</time></trkpt><trkpt lat="45.55415846845275" lon="10.829919706560675"><ele>97.0</ele><time>2026-04-26T09:54:28Z</time></trkpt><trkpt lat="45.554022540487566" lon="10.829851313046602"><ele>99.0</ele><time>2026-04-26T09:54:29Z</time></trkpt><trkpt lat="45.55388183036775" lon="10.82978144385856"><ele>101.0</ele><time>2026-04-26T09:54:30Z</time></trkpt><trkpt lat="45.55373007583865" lon="10.829725080431915"><ele>105.33333333333333</ele><time>2026-04-26T09:54:31Z</time></trkpt><trkpt lat="45.55357505338308" lon="10.829677422297076"><ele>109.66666666666666</ele><time>2026-04-26T09:54:32Z</time></trkpt><trkpt lat="45.55342111387522" lon="10.829628336589948"><ele>114.0</ele><time>2026-04-26T09:54:33Z</time></trkpt><trkpt lat="45.55326492197829" lon="10.829565284267854"><ele>114.0</ele><time>2026-04-26T09:54:34Z</time></trkpt><trkpt lat="45.553124014140884" lon="10.829489022661074"><ele>114.0</ele><time>2026-04-26T09:54:35Z</time></trkpt><trkpt lat="45.55298275668941" lon="10.829389133722442"><ele>114.0</ele><time>2026-04-26T09:54:36Z</time></trkpt><trkpt lat="45.552847753771935" lon="10.82927063402764"><ele>110.66666666666666</ele><time>2026-04-26T09:54:37Z</time></trkpt><trkpt lat="45.55271617076362" lon="10.8291473021474"><ele>107.33333333333333</ele><time>2026-04-26T09:54:38Z</time></trkpt><trkpt lat="45.55257468640401" lon="10.829019534788012"><ele>104.0</ele><time>2026-04-26T09:54:39Z</time></trkpt><trkpt lat="45.55244242638034" lon="10.828888704687554"><ele>104.0</ele><time>2026-04-26T09:54:40Z</time></trkpt><trkpt lat="45.55231856375873" lon="10.828754407463139"><ele>104.0</ele><time>2026-04-26T09:54:41Z</time></trkpt><trkpt lat="45.55220267193663" lon="10.828610083040425"><ele>104.0</ele><time>2026-04-26T09:54:42Z</time></trkpt><trkpt lat="45.55209325652552" lon="10.828478375699753"><ele>108.5</ele><time>2026-04-26T09:54:43Z</time></trkpt><trkpt lat="45.55198967193513" lon="10.828354446517839"><ele>113.0</ele><time>2026-04-26T09:54:44Z</time></trkpt><trkpt lat="45.55188172455616" lon="10.828234123701716"><ele>117.5</ele><time>2026-04-26T09:54:45Z</time></trkpt><trkpt lat="45.55176627769941" lon="10.828115480067511"><ele>122.0</ele><time>2026-04-26T09:54:46Z</time></trkpt><trkpt lat="45.55165019168322" lon="10.827992394416425"><ele>122.0</ele><time>2026-04-26T09:54:47Z</time></trkpt><trkpt lat="45.55153462597622" lon="10.82786232195129"><ele>122.0</ele><time>2026-04-26T09:54:48Z</time></trkpt><trkpt lat="45.55144129590687" lon="10.827707155378622"><ele>122.0</ele><time>2026-04-26T09:54:49Z</time></trkpt><trkpt lat="45.55134515012582" lon="10.827538241901136"><ele>122.0</ele><time>2026-04-26T09:54:50Z</time></trkpt><trkpt lat="45.55124987790817" lon="10.82736978866285"><ele>117.25</ele><time>2026-04-26T09:54:51Z</time></trkpt><trkpt lat="45.55115535251292" lon="10.827206873024187"><ele>112.5</ele><time>2026-04-26T09:54:52Z</time></trkpt><trkpt lat="45.5510609596361" lon="10.827050040395681"><ele>107.75</ele><time>2026-04-26T09:54:53Z</time></trkpt><trkpt lat="45.55095910708793" lon="10.826888136135807"><ele>103.0</ele><time>2026-04-26T09:54:54Z</time></trkpt><trkpt lat="45.5508687551477" lon="10.826721413243437"><ele>99.33333333333334</ele><time>2026-04-26T09:54:55Z</time></trkpt><trkpt lat="45.550764184994954" lon="10.8265594179754"><ele>95.66666666666667</ele><time>2026-04-26T09:54:56Z</time></trkpt><trkpt lat="45.55066412735501" lon="10.826398616545548"><ele>92.0</ele><time>2026-04-26T09:54:57Z</time></trkpt><trkpt lat="45.550571027592596" lon="10.82622706223014"><ele>92.0</ele><time>2026-04-26T09:54:58Z</time></trkpt><trkpt lat="45.55047025808897" lon="10.82605723076483"><ele>92.0</ele><time>2026-04-26T09:54:59Z</time></trkpt><trkpt lat="45.5503799705579" lon="10.82589683558523"><ele>92.0</ele><time>2026-04-26T09:55:00Z</time></trkpt><trkpt lat="45.55028925390025" lon="10.825753768170756"><ele>92.0</ele><time>2026-04-26T09:55:01Z</time></trkpt><trkpt lat="45.55019515469949" lon="10.825608064036995"><ele>92.25</ele><time>2026-04-26T09:55:02Z</time></trkpt><trkpt lat="45.550111497955214" lon="10.825475809954208"><ele>92.5</ele><time>2026-04-26T09:55:03Z</time></trkpt><trkpt lat="45.55001398116276" lon="10.825334761420345"><ele>92.75</ele><time>2026-04-26T09:55:04Z</time></trkpt><trkpt lat="45.54991036080973" lon="10.825194702800848"><ele>93.0</ele><time>2026-04-26T09:55:05Z</time></trkpt><trkpt lat="45.54979506326936" lon="10.825058574692882"><ele>93.0</ele><time>2026-04-26T09:55:06Z</time></trkpt><trkpt lat="45.54967398346936" lon="10.824918762136942"><ele>93.0</ele><time>2026-04-26T09:55:07Z</time></trkpt><trkpt lat="45.54955230639534" lon="10.824784996961236"><ele>93.0</ele><time>2026-04-26T09:55:08Z</time></trkpt><trkpt lat="45.54942727514447" lon="10.824648735828687"><ele>93.75</ele><time>2026-04-26T09:55:09Z</time></trkpt><trkpt lat="45.54930172646188" lon="10.824523007401252"><ele>94.5</ele><time>2026-04-26T09:55:10Z</time></trkpt><trkpt lat="45.54919024133888" lon="10.82440484488415"><ele>95.25</ele><time>2026-04-26T09:55:11Z</time></trkpt><trkpt lat="45.54908349395124" lon="10.824296251729914"><ele>96.0</ele><time>2026-04-26T09:55:12Z</time></trkpt><trkpt lat="45.54897365038606" lon="10.824176263557428"><ele>96.0</ele><time>2026-04-26T09:55:13Z</time></trkpt><trkpt lat="45.54886056797516" lon="10.824053684603033"><ele>96.0</ele><time>2026-04-26T09:55:14Z</time></trkpt><trkpt lat="45.54873796784522" lon="10.823928253231749"><ele>96.0</ele><time>2026-04-26T09:55:15Z</time></trkpt><trkpt lat="45.54860950172388" lon="10.82381433906471"><ele>96.0</ele><time>2026-04-26T09:55:16Z</time></trkpt><trkpt lat="45.54846723354365" lon="10.823705200870442"><ele>96.0</ele><time>2026-04-26T09:55:17Z</time></trkpt><trkpt lat="45.548332340209846" lon="10.823598173530414"><ele>96.0</ele><time>2026-04-26T09:55:18Z</time></trkpt><trkpt lat="45.548187445739586" lon="10.823493045284408"><ele>96.0</ele><time>2026-04-26T09:55:19Z</time></trkpt><trkpt lat="45.54803274015025" lon="10.823406216476728"><ele>96.66666666666666</ele><time>2026-04-26T09:55:20Z</time></trkpt><trkpt lat="45.54789104153517" lon="10.823338561076941"><ele>97.33333333333333</ele><time>2026-04-26T09:55:21Z</time></trkpt><trkpt lat="45.54774020454919" lon="10.823275713209808"><ele>98.0</ele><time>2026-04-26T09:55:22Z</time></trkpt><trkpt lat="45.54758332431819" lon="10.823224483538253"><ele>98.33333333333333</ele><time>2026-04-26T09:55:23Z</time></trkpt><trkpt lat="45.54743831883223" lon="10.823178707644033"><ele>98.66666666666666</ele><time>2026-04-26T09:55:24Z</time></trkpt><trkpt lat="45.54729058148652" lon="10.823136865932371"><ele>99.0</ele><time>2026-04-26T09:55:25Z</time></trkpt><trkpt lat="45.547135908818674" lon="10.823104261074954"><ele>100.66666666666666</ele><time>2026-04-26T09:55:26Z</time></trkpt><trkpt lat="45.546984572414075" lon="10.823074509656177"><ele>102.33333333333333</ele><time>2026-04-26T09:55:27Z</time></trkpt><trkpt lat="45.54682624134436" lon="10.823062403762043"><ele>104.0</ele><time>2026-04-26T09:55:28Z</time></trkpt><trkpt lat="45.54666677054265" lon="10.823048216191088"><ele>104.0</ele><time>2026-04-26T09:55:29Z</time></trkpt><trkpt lat="45.54650329890208" lon="10.823036148211246"><ele>104.0</ele><time>2026-04-26T09:55:30Z</time></trkpt><trkpt lat="45.546341263999345" lon="10.823031294446684"><ele>104.0</ele><time>2026-04-26T09:55:31Z</time></trkpt><trkpt lat="45.54618697696357" lon="10.823017598233074"><ele>104.0</ele><time>2026-04-26T09:55:32Z</time></trkpt><trkpt lat="45.54605028370327" lon="10.823007006870693"><ele>104.0</ele><time>2026-04-26T09:55:33Z</time></trkpt><trkpt lat="45.545912698274904" lon="10.822999545093957"><ele>104.0</ele><time>2026-04-26T09:55:34Z</time></trkpt><trkpt lat="45.5457814819559" lon="10.822984427761527"><ele>104.0</ele><time>2026-04-26T09:55:35Z</time></trkpt><trkpt lat="45.545639149601946" lon="10.822971142676696"><ele>104.0</ele><time>2026-04-26T09:55:36Z</time></trkpt><trkpt lat="45.5454899073706" lon="10.822960051515086"><ele>104.0</ele><time>2026-04-26T09:55:37Z</time></trkpt><trkpt lat="45.545345637210296" lon="10.822947456908636"><ele>104.0</ele><time>2026-04-26T09:55:38Z</time></trkpt><trkpt lat="45.54519604690552" lon="10.822941516060911"><ele>104.0</ele><time>2026-04-26T09:55:39Z</time></trkpt><trkpt lat="45.54504454249036" lon="10.822935237608709"><ele>104.5</ele><time>2026-04-26T09:55:40Z</time></trkpt><trkpt lat="45.54490241837456" lon="10.822921076254703"><ele>105.0</ele><time>2026-04-26T09:55:41Z</time></trkpt><trkpt lat="45.544762022339505" lon="10.822903982139671"><ele>105.5</ele><time>2026-04-26T09:55:42Z</time></trkpt><trkpt lat="45.54461737070139" lon="10.82289361446949"><ele>106.0</ele><time>2026-04-26T09:55:43Z</time></trkpt><trkpt lat="45.54447511798587" lon="10.822880581581225"><ele>106.75</ele><time>2026-04-26T09:55:44Z</time></trkpt><trkpt lat="45.544329434158605" lon="10.822865586370026"><ele>107.5</ele><time>2026-04-26T09:55:45Z</time></trkpt><trkpt lat="45.54420274396191" lon="10.822855067792437"><ele>108.25</ele><time>2026-04-26T09:55:46Z</time></trkpt><trkpt lat="45.5440800074933" lon="10.822846622762643"><ele>109.0</ele><time>2026-04-26T09:55:47Z</time></trkpt><trkpt lat="45.543956961458626" lon="10.822832659200918"><ele>109.0</ele><time>2026-04-26T09:55:48Z</time></trkpt><trkpt lat="45.543830171249226" lon="10.822821900359138"><ele>109.0</ele><time>2026-04-26T09:55:49Z</time></trkpt><trkpt lat="45.5436960945072" lon="10.822813229873356"><ele>109.0</ele><time>2026-04-26T09:55:50Z</time></trkpt><trkpt lat="45.54355898103075" lon="10.822802898376954"><ele>109.0</ele><time>2026-04-26T09:55:51Z</time></trkpt><trkpt lat="45.54343279227047" lon="10.822790530001042"><ele>109.25</ele><time>2026-04-26T09:55:52Z</time></trkpt><trkpt lat="45.54331859919443" lon="10.822781811323365"><ele>109.5</ele><time>2026-04-26T09:55:53Z</time></trkpt><trkpt lat="45.543205112978576" lon="10.822774008252193"><ele>109.75</ele><time>2026-04-26T09:55:54Z</time></trkpt><trkpt lat="45.54308405500216" lon="10.822761684369164"><ele>110.0</ele><time>2026-04-26T09:55:55Z</time></trkpt><trkpt lat="45.542949228143755" lon="10.822745019350824"><ele>110.25</ele><time>2026-04-26T09:55:56Z</time></trkpt><trkpt lat="45.542817948923776" lon="10.822729261335933"><ele>110.5</ele><time>2026-04-26T09:55:57Z</time></trkpt><trkpt lat="45.54269925726754" lon="10.822709818759181"><ele>110.75</ele><time>2026-04-26T09:55:58Z</time></trkpt><trkpt lat="45.54258486449942" lon="10.82268650918898"><ele>111.0</ele><time>2026-04-26T09:55:59Z</time></trkpt><trkpt lat="45.54247196935677" lon="10.822659949420412"><ele>111.25</ele><time>2026-04-26T09:56:00Z</time></trkpt><trkpt lat="45.542356019299774" lon="10.822628055201436"><ele>111.5</ele><time>2026-04-26T09:56:01Z</time></trkpt><trkpt lat="45.542232373326655" lon="10.822590524488913"><ele>111.75</ele><time>2026-04-26T09:56:02Z</time></trkpt><trkpt lat="45.542104358605435" lon="10.82253286052753"><ele>112.0</ele><time>2026-04-26T09:56:03Z</time></trkpt><trkpt lat="45.54197602039828" lon="10.822473173675567"><ele>112.25</ele><time>2026-04-26T09:56:04Z</time></trkpt><trkpt lat="45.54184377659666" lon="10.822406879276617"><ele>112.5</ele><time>2026-04-26T09:56:05Z</time></trkpt><trkpt lat="45.54171738986237" lon="10.822337565160824"><ele>112.75</ele><time>2026-04-26T09:56:06Z</time></trkpt><trkpt lat="45.5415915024588" lon="10.822268665299637"><ele>113.0</ele><time>2026-04-26T09:56:07Z</time></trkpt><trkpt lat="45.54147725651216" lon="10.822209205952484"><ele>113.0</ele><time>2026-04-26T09:56:08Z</time></trkpt><trkpt lat="45.54136205231262" lon="10.82214689048554"><ele>113.0</ele><time>2026-04-26T09:56:09Z</time></trkpt><trkpt lat="45.54124325728506" lon="10.822081887122668"><ele>113.0</ele><time>2026-04-26T09:56:10Z</time></trkpt><trkpt lat="45.54111679257917" lon="10.822013057983332"><ele>113.0</ele><time>2026-04-26T09:56:11Z</time></trkpt><trkpt lat="45.54098520759612" lon="10.821944691256483"><ele>113.25</ele><time>2026-04-26T09:56:12Z</time></trkpt><trkpt lat="45.54085825982174" lon="10.821875513897972"><ele>113.5</ele><time>2026-04-26T09:56:13Z</time></trkpt><trkpt lat="45.54074255838789" lon="10.821812574712213"><ele>113.75</ele><time>2026-04-26T09:56:14Z</time></trkpt><trkpt lat="45.54063490347807" lon="10.821755062506073"><ele>114.0</ele><time>2026-04-26T09:56:15Z</time></trkpt><trkpt lat="45.54052700334104" lon="10.821699415147451"><ele>114.25</ele><time>2026-04-26T09:56:16Z</time></trkpt><trkpt lat="45.540423689867445" lon="10.821641822983095"><ele>114.5</ele><time>2026-04-26T09:56:17Z</time></trkpt><trkpt lat="45.540306752534654" lon="10.821583830505862"><ele>114.75</ele><time>2026-04-26T09:56:18Z</time></trkpt><trkpt lat="45.540193217560955" lon="10.821519690530048"><ele>115.0</ele><time>2026-04-26T09:56:19Z</time></trkpt><trkpt lat="45.54007338936419" lon="10.82146202018939"><ele>114.25</ele><time>2026-04-26T09:56:20Z</time></trkpt><trkpt lat="45.539944747750695" lon="10.821392044505387"><ele>113.5</ele><time>2026-04-26T09:56:21Z</time></trkpt><trkpt lat="45.53983263384152" lon="10.821335748238628"><ele>112.75</ele><time>2026-04-26T09:56:22Z</time></trkpt><trkpt lat="45.53972850217135" lon="10.82127630205611"><ele>112.0</ele><time>2026-04-26T09:56:23Z</time></trkpt><trkpt lat="45.539622707651326" lon="10.821220265401905"><ele>112.25</ele><time>2026-04-26T09:56:24Z</time></trkpt><trkpt lat="45.539522050019045" lon="10.82117040012637"><ele>112.5</ele><time>2026-04-26T09:56:25Z</time></trkpt><trkpt lat="45.53941197930621" lon="10.82111180916901"><ele>112.75</ele><time>2026-04-26T09:56:26Z</time></trkpt><trkpt lat="45.53929584165754" lon="10.821050403659623"><ele>113.0</ele><time>2026-04-26T09:56:27Z</time></trkpt><trkpt lat="45.53918660174042" lon="10.820989036278627"><ele>112.5</ele><time>2026-04-26T09:56:28Z</time></trkpt><trkpt lat="45.53908251846349" lon="10.82093708509316"><ele>112.0</ele><time>2026-04-26T09:56:29Z</time></trkpt><trkpt lat="45.53897908179638" lon="10.82088738756312"><ele>111.5</ele><time>2026-04-26T09:56:30Z</time></trkpt><trkpt lat="45.53886679722364" lon="10.82083041220331"><ele>111.0</ele><time>2026-04-26T09:56:31Z</time></trkpt><trkpt lat="45.53875204198364" lon="10.820766090459559"><ele>111.0</ele><time>2026-04-26T09:56:32Z</time></trkpt><trkpt lat="45.53864368242819" lon="10.820700386627108"><ele>111.0</ele><time>2026-04-26T09:56:33Z</time></trkpt><trkpt lat="45.5385417985404" lon="10.820630228414098"><ele>111.0</ele><time>2026-04-26T09:56:34Z</time></trkpt><trkpt lat="45.538443602451416" lon="10.820556250246414"><ele>111.0</ele><time>2026-04-26T09:56:35Z</time></trkpt><trkpt lat="45.5383373772585" lon="10.820479633597088"><ele>111.0</ele><time>2026-04-26T09:56:36Z</time></trkpt><trkpt lat="45.5382268525292" lon="10.820397070388658"><ele>111.0</ele><time>2026-04-26T09:56:37Z</time></trkpt><trkpt lat="45.53811054116102" lon="10.820305556877328"><ele>111.0</ele><time>2026-04-26T09:56:38Z</time></trkpt><trkpt lat="45.53799016296123" lon="10.82021642201325"><ele>111.0</ele><time>2026-04-26T09:56:39Z</time></trkpt><trkpt lat="45.53786083520822" lon="10.82012265085876"><ele>111.5</ele><time>2026-04-26T09:56:40Z</time></trkpt><trkpt lat="45.53773753626927" lon="10.82002985071777"><ele>112.0</ele><time>2026-04-26T09:56:41Z</time></trkpt><trkpt lat="45.53762505558169" lon="10.81994479252899"><ele>112.5</ele><time>2026-04-26T09:56:42Z</time></trkpt><trkpt lat="45.53751714865549" lon="10.81986776451514"><ele>113.0</ele><time>2026-04-26T09:56:43Z</time></trkpt><trkpt lat="45.537414182201665" lon="10.819792182871224"><ele>113.0</ele><time>2026-04-26T09:56:44Z</time></trkpt><trkpt lat="45.537307887432405" lon="10.819720644944418"><ele>113.0</ele><time>2026-04-26T09:56:45Z</time></trkpt><trkpt lat="45.53718547991974" lon="10.819634961626122"><ele>113.0</ele><time>2026-04-26T09:56:46Z</time></trkpt><trkpt lat="45.537066013500684" lon="10.819549621094335"><ele>113.0</ele><time>2026-04-26T09:56:47Z</time></trkpt><trkpt lat="45.536946557126875" lon="10.819466489966821"><ele>112.5</ele><time>2026-04-26T09:56:48Z</time></trkpt><trkpt lat="45.536833983774066" lon="10.819389927732534"><ele>112.0</ele><time>2026-04-26T09:56:49Z</time></trkpt><trkpt lat="45.53672587340174" lon="10.81932058802859"><ele>111.5</ele><time>2026-04-26T09:56:50Z</time></trkpt><trkpt lat="45.536623753587236" lon="10.819257690571778"><ele>111.0</ele><time>2026-04-26T09:56:51Z</time></trkpt><trkpt lat="45.53652438641793" lon="10.819193656002028"><ele>111.0</ele><time>2026-04-26T09:56:52Z</time></trkpt><trkpt lat="45.53641260678819" lon="10.819117846265891"><ele>111.0</ele><time>2026-04-26T09:56:53Z</time></trkpt><trkpt lat="45.53629484501468" lon="10.819040379634423"><ele>111.0</ele><time>2026-04-26T09:56:54Z</time></trkpt><trkpt lat="45.53618129522288" lon="10.81896399035638"><ele>111.0</ele><time>2026-04-26T09:56:55Z</time></trkpt><trkpt lat="45.53608360749552" lon="10.81889822948242"><ele>110.75</ele><time>2026-04-26T09:56:56Z</time></trkpt><trkpt lat="45.53598390031805" lon="10.818835330631561"><ele>110.5</ele><time>2026-04-26T09:56:57Z</time></trkpt><trkpt lat="45.535884053232884" lon="10.818769563238796"><ele>110.25</ele><time>2026-04-26T09:56:58Z</time></trkpt><trkpt lat="45.53577205661389" lon="10.81870334778493"><ele>110.0</ele><time>2026-04-26T09:56:59Z</time></trkpt><trkpt lat="45.53565285187794" lon="10.818641101741743"><ele>110.0</ele><time>2026-04-26T09:57:00Z</time></trkpt><trkpt lat="45.53553174443377" lon="10.818584247163857"><ele>110.0</ele><time>2026-04-26T09:57:01Z</time></trkpt><trkpt lat="45.535416697443736" lon="10.818540012355173"><ele>110.0</ele><time>2026-04-26T09:57:02Z</time></trkpt><trkpt lat="45.535311709580306" lon="10.818504670334947"><ele>110.0</ele><time>2026-04-26T09:57:03Z</time></trkpt><trkpt lat="45.535200723458736" lon="10.818476566546776"><ele>110.0</ele><time>2026-04-26T09:57:04Z</time></trkpt><trkpt lat="45.53507765371361" lon="10.818446384012693"><ele>110.0</ele><time>2026-04-26T09:57:05Z</time></trkpt><trkpt lat="45.53494194664601" lon="10.818416290274278"><ele>110.0</ele><time>2026-04-26T09:57:06Z</time></trkpt><trkpt lat="45.53480004544401" lon="10.818395922096578"><ele>110.0</ele><time>2026-04-26T09:57:07Z</time></trkpt><trkpt lat="45.5346486719976" lon="10.818374559304086"><ele>110.25</ele><time>2026-04-26T09:57:08Z</time></trkpt><trkpt lat="45.53450620307352" lon="10.81835274293786"><ele>110.5</ele><time>2026-04-26T09:57:09Z</time></trkpt><trkpt lat="45.53437985016244" lon="10.818334676195315"><ele>110.75</ele><time>2026-04-26T09:57:10Z</time></trkpt><trkpt lat="45.53426057489849" lon="10.818320003999395"><ele>111.0</ele><time>2026-04-26T09:57:11Z</time></trkpt><trkpt lat="45.53415282148848" lon="10.818307245510338"><ele>111.0</ele><time>2026-04-26T09:57:12Z</time></trkpt><trkpt lat="45.53404942627824" lon="10.818290193737427"><ele>111.0</ele><time>2026-04-26T09:57:13Z</time></trkpt><trkpt lat="45.53394668605224" lon="10.818277270951958"><ele>111.0</ele><time>2026-04-26T09:57:14Z</time></trkpt><trkpt lat="45.53382279561003" lon="10.818265065485132"><ele>111.0</ele><time>2026-04-26T09:57:15Z</time></trkpt><trkpt lat="45.533692998734736" lon="10.818247997689024"><ele>111.5</ele><time>2026-04-26T09:57:16Z</time></trkpt><trkpt lat="45.533563248361794" lon="10.818238471002896"><ele>112.0</ele><time>2026-04-26T09:57:17Z</time></trkpt><trkpt lat="45.53342609708919" lon="10.818226664880559"><ele>112.5</ele><time>2026-04-26T09:57:18Z</time></trkpt><trkpt lat="45.533292051436916" lon="10.8182181130066"><ele>113.0</ele><time>2026-04-26T09:57:19Z</time></trkpt><trkpt lat="45.53317337582845" lon="10.818215942341515"><ele>113.0</ele><time>2026-04-26T09:57:20Z</time></trkpt><trkpt lat="45.53305103715751" lon="10.818205842166071"><ele>113.0</ele><time>2026-04-26T09:57:21Z</time></trkpt><trkpt lat="45.53291312613741" lon="10.81819910451166"><ele>113.0</ele><time>2026-04-26T09:57:22Z</time></trkpt><trkpt lat="45.5327591570244" lon="10.818203551580233"><ele>113.0</ele><time>2026-04-26T09:57:23Z</time></trkpt><trkpt lat="45.53259201962176" lon="10.818207849887623"><ele>112.75</ele><time>2026-04-26T09:57:24Z</time></trkpt><trkpt lat="45.532433457526736" lon="10.818208470037554"><ele>112.5</ele><time>2026-04-26T09:57:25Z</time></trkpt><trkpt lat="45.53228824855748" lon="10.818224973127482"><ele>112.25</ele><time>2026-04-26T09:57:26Z</time></trkpt><trkpt lat="45.532181812846204" lon="10.818222272480618"><ele>112.0</ele><time>2026-04-26T09:57:27Z</time></trkpt><trkpt lat="45.53207927995063" lon="10.818224087823493"><ele>112.25</ele><time>2026-04-26T09:57:28Z</time></trkpt><trkpt lat="45.531955795076236" lon="10.818235139416561"><ele>112.5</ele><time>2026-04-26T09:57:29Z</time></trkpt><trkpt lat="45.531831792108335" lon="10.818238005531011"><ele>112.75</ele><time>2026-04-26T09:57:30Z</time></trkpt><trkpt lat="45.531696021547845" lon="10.81825612542392"><ele>113.0</ele><time>2026-04-26T09:57:31Z</time></trkpt><trkpt lat="45.53154780710091" lon="10.818250854479654"><ele>113.0</ele><time>2026-04-26T09:57:32Z</time></trkpt><trkpt lat="45.53138736665738" lon="10.818244276330038"><ele>113.0</ele><time>2026-04-26T09:57:33Z</time></trkpt><trkpt lat="45.5312199497884" lon="10.818235263343693"><ele>113.0</ele><time>2026-04-26T09:57:34Z</time></trkpt><trkpt lat="45.53104954264685" lon="10.81823274812911"><ele>112.33333333333333</ele><time>2026-04-26T09:57:35Z</time></trkpt><trkpt lat="45.53087713204119" lon="10.818225463262712"><ele>111.66666666666666</ele><time>2026-04-26T09:57:36Z</time></trkpt><trkpt lat="45.530709996490785" lon="10.818224722846322"><ele>111.0</ele><time>2026-04-26T09:57:37Z</time></trkpt><trkpt lat="45.53054836690484" lon="10.818228914991884"><ele>111.0</ele><time>2026-04-26T09:57:38Z</time></trkpt><trkpt lat="45.53038828857252" lon="10.818233052268656"><ele>111.0</ele><time>2026-04-26T09:57:39Z</time></trkpt><trkpt lat="45.53023550627904" lon="10.818251487328663"><ele>111.0</ele><time>2026-04-26T09:57:40Z</time></trkpt><trkpt lat="45.53008229637817" lon="10.818267342856348"><ele>111.0</ele><time>2026-04-26T09:57:41Z</time></trkpt><trkpt lat="45.529932075984" lon="10.81828627017815"><ele>111.0</ele><time>2026-04-26T09:57:42Z</time></trkpt><trkpt lat="45.52977236552333" lon="10.818311885154932"><ele>111.0</ele><time>2026-04-26T09:57:43Z</time></trkpt><trkpt lat="45.52961264221067" lon="10.818339192339256"><ele>111.33333333333334</ele><time>2026-04-26T09:57:44Z</time></trkpt><trkpt lat="45.52945062682838" lon="10.818365619198573"><ele>111.66666666666667</ele><time>2026-04-26T09:57:45Z</time></trkpt><trkpt lat="45.529281198945135" lon="10.818390985647039"><ele>112.0</ele><time>2026-04-26T09:57:46Z</time></trkpt><trkpt lat="45.52911818254578" lon="10.818407338491717"><ele>112.0</ele><time>2026-04-26T09:57:47Z</time></trkpt><trkpt lat="45.52897029013993" lon="10.818395702223773"><ele>112.0</ele><time>2026-04-26T09:57:48Z</time></trkpt><trkpt lat="45.528830298385635" lon="10.818379440381047"><ele>112.0</ele><time>2026-04-26T09:57:49Z</time></trkpt><trkpt lat="45.528694817138074" lon="10.818357226846745"><ele>112.0</ele><time>2026-04-26T09:57:50Z</time></trkpt><trkpt lat="45.52856581172455" lon="10.81836034998141"><ele>111.75</ele><time>2026-04-26T09:57:51Z</time></trkpt><trkpt lat="45.52844607340398" lon="10.818314006941609"><ele>111.5</ele><time>2026-04-26T09:57:52Z</time></trkpt><trkpt lat="45.52833120882286" lon="10.818290607276271"><ele>111.25</ele><time>2026-04-26T09:57:53Z</time></trkpt><trkpt lat="45.52822454441704" lon="10.818283748258779"><ele>111.0</ele><time>2026-04-26T09:57:54Z</time></trkpt><trkpt lat="45.52809845378431" lon="10.818283945415237"><ele>111.0</ele><time>2026-04-26T09:57:55Z</time></trkpt><trkpt lat="45.52795816234608" lon="10.818281563855798"><ele>111.0</ele><time>2026-04-26T09:57:56Z</time></trkpt><trkpt lat="45.527819021314656" lon="10.818277915507089"><ele>111.0</ele><time>2026-04-26T09:57:57Z</time></trkpt><trkpt lat="45.52767685936786" lon="10.81826981383356"><ele>111.0</ele><time>2026-04-26T09:57:58Z</time></trkpt><trkpt lat="45.52756000973139" lon="10.818266409964616"><ele>111.5</ele><time>2026-04-26T09:57:59Z</time></trkpt><trkpt lat="45.52746076856211" lon="10.818264855634055"><ele>112.0</ele><time>2026-04-26T09:58:00Z</time></trkpt><trkpt lat="45.527382970109045" lon="10.818262296849523"><ele>112.5</ele><time>2026-04-26T09:58:01Z</time></trkpt><trkpt lat="45.52728697519874" lon="10.818258011362472"><ele>113.0</ele><time>2026-04-26T09:58:03Z</time></trkpt><trkpt lat="45.527196731450715" lon="10.818250787209529"><ele>113.5</ele><time>2026-04-26T09:58:06Z</time></trkpt><trkpt lat="45.52713378994967" lon="10.818247164165603"><ele>114.0</ele><time>2026-04-26T09:58:09Z</time></trkpt><trkpt lat="45.52704730328555" lon="10.81823537753377"><ele>114.0</ele><time>2026-04-26T09:58:16Z</time></trkpt><trkpt lat="45.52698135330082" lon="10.818228002868135"><ele>114.0</ele><time>2026-04-26T09:58:18Z</time></trkpt><trkpt lat="45.526870710117834" lon="10.818216962048005"><ele>114.0</ele><time>2026-04-26T09:58:27Z</time></trkpt><trkpt lat="45.526764300720785" lon="10.818210424217716"><ele>114.0</ele><time>2026-04-26T09:58:29Z</time></trkpt><trkpt lat="45.52669449902486" lon="10.818308878309258"><ele>114.0</ele><time>2026-04-26T09:58:31Z</time></trkpt><trkpt lat="45.526704414131565" lon="10.818503465876667"><ele>114.16666666666667</ele><time>2026-04-26T09:58:33Z</time></trkpt><trkpt lat="45.52674765861901" lon="10.818611735621618"><ele>114.33333333333334</ele><time>2026-04-26T09:58:34Z</time></trkpt><trkpt lat="45.526750267327955" lon="10.81871291786209"><ele>114.5</ele><time>2026-04-26T09:58:35Z</time></trkpt><trkpt lat="45.52672421153107" lon="10.818817834451798"><ele>114.66666666666667</ele><time>2026-04-26T09:58:36Z</time></trkpt><trkpt lat="45.526715857859784" lon="10.818928653394064"><ele>114.83333333333334</ele><time>2026-04-26T09:58:37Z</time></trkpt><trkpt lat="45.52669448349254" lon="10.819047216027514"><ele>115.0</ele><time>2026-04-26T09:58:39Z</time></trkpt><trkpt lat="45.526682562466775" lon="10.819140806307127"><ele>115.00000000000001</ele><time>2026-04-26T09:58:45Z</time></trkpt><trkpt lat="45.52664725565038" lon="10.819240123469829"><ele>115.0</ele><time>2026-04-26T09:58:47Z</time></trkpt><trkpt lat="45.526581731035236" lon="10.819351368274388"><ele>115.0</ele><time>2026-04-26T09:58:49Z</time></trkpt><trkpt lat="45.52652210533158" lon="10.819385569011775"><ele>115.0</ele><time>2026-04-26T09:58:50Z</time></trkpt><trkpt lat="45.52644217249496" lon="10.819407032311851"><ele>115.00000000000001</ele><time>2026-04-26T09:58:51Z</time></trkpt><trkpt lat="45.52635685619724" lon="10.81941210446924"><ele>115.0</ele><time>2026-04-26T09:58:52Z</time></trkpt><trkpt lat="45.52626206307911" lon="10.819399583295507"><ele>115.2</ele><time>2026-04-26T09:58:53Z</time></trkpt><trkpt lat="45.526161583201684" lon="10.819388848479363"><ele>115.4</ele><time>2026-04-26T09:58:54Z</time></trkpt><trkpt lat="45.5260488834221" lon="10.819379189826794"><ele>115.6</ele><time>2026-04-26T09:58:55Z</time></trkpt><trkpt lat="45.52593913592943" lon="10.819369132994781"><ele>115.8</ele><time>2026-04-26T09:58:56Z</time></trkpt><trkpt lat="45.5258206778357" lon="10.819364518331657"><ele>116.0</ele><time>2026-04-26T09:58:57Z</time></trkpt><trkpt lat="45.52569591181463" lon="10.819364394168444"><ele>116.0</ele><time>2026-04-26T09:58:58Z</time></trkpt><trkpt lat="45.52558345893337" lon="10.819367531820946"><ele>116.0</ele><time>2026-04-26T09:58:59Z</time></trkpt><trkpt lat="45.52547835415069" lon="10.81937721580225"><ele>116.0</ele><time>2026-04-26T09:59:00Z</time></trkpt><trkpt lat="45.52538165421629" lon="10.819383289684506"><ele>116.0</ele><time>2026-04-26T09:59:01Z</time></trkpt><trkpt lat="45.52529854719003" lon="10.81938678091142"><ele>116.0</ele><time>2026-04-26T09:59:02Z</time></trkpt><trkpt lat="45.525205824925486" lon="10.819398370292772"><ele>115.83333333333333</ele><time>2026-04-26T09:59:03Z</time></trkpt><trkpt lat="45.52512969472085" lon="10.819406485093321"><ele>115.66666666666666</ele><time>2026-04-26T09:59:04Z</time></trkpt><trkpt lat="45.52504208962268" lon="10.819423594488553"><ele>115.5</ele><time>2026-04-26T09:59:05Z</time></trkpt><trkpt lat="45.524976407894144" lon="10.819442347823397"><ele>115.33333333333334</ele><time>2026-04-26T09:59:06Z</time></trkpt><trkpt lat="45.52491468221677" lon="10.819487984764777"><ele>115.16666666666667</ele><time>2026-04-26T09:59:07Z</time></trkpt><trkpt lat="45.52485876157371" lon="10.819539863836583"><ele>115.0</ele><time>2026-04-26T09:59:08Z</time></trkpt><trkpt lat="45.52484547688103" lon="10.819683601119094"><ele>115.0</ele><time>2026-04-26T09:59:09Z</time></trkpt><trkpt lat="45.52482105125075" lon="10.819840488451236"><ele>115.0</ele><time>2026-04-26T09:59:10Z</time></trkpt><trkpt lat="45.5247985803382" lon="10.820012202914267"><ele>115.0</ele><time>2026-04-26T09:59:11Z</time></trkpt><trkpt lat="45.524772655492605" lon="10.820190625274744"><ele>115.0</ele><time>2026-04-26T09:59:12Z</time></trkpt><trkpt lat="45.52474897996128" lon="10.82035295950654"><ele>115.16666666666667</ele><time>2026-04-26T09:59:13Z</time></trkpt><trkpt lat="45.52473342262669" lon="10.82049391027601"><ele>115.33333333333334</ele><time>2026-04-26T09:59:14Z</time></trkpt><trkpt lat="45.52471420511477" lon="10.820619479868451"><ele>115.5</ele><time>2026-04-26T09:59:15Z</time></trkpt><trkpt lat="45.52469769272241" lon="10.820722408532596"><ele>115.66666666666666</ele><time>2026-04-26T09:59:16Z</time></trkpt><trkpt lat="45.524672942422384" lon="10.82084667099443"><ele>115.83333333333333</ele><time>2026-04-26T09:59:17Z</time></trkpt><trkpt lat="45.5246411913873" lon="10.82096308840668"><ele>116.0</ele><time>2026-04-26T09:59:18Z</time></trkpt><trkpt lat="45.52462376521386" lon="10.821111092410497"><ele>116.19999999999999</ele><time>2026-04-26T09:59:19Z</time></trkpt><trkpt lat="45.52459602276113" lon="10.82126358251698"><ele>116.39999999999999</ele><time>2026-04-26T09:59:20Z</time></trkpt><trkpt lat="45.5245359566377" lon="10.821391714244786"><ele>116.6</ele><time>2026-04-26T09:59:21Z</time></trkpt><trkpt lat="45.52447281947113" lon="10.821524447445643"><ele>116.8</ele><time>2026-04-26T09:59:22Z</time></trkpt><trkpt lat="45.52442150013282" lon="10.821655698475269"><ele>117.0</ele><time>2026-04-26T09:59:23Z</time></trkpt><trkpt lat="45.524340744549654" lon="10.821745124592743"><ele>117.0</ele><time>2026-04-26T09:59:24Z</time></trkpt><trkpt lat="45.524250794640786" lon="10.821837809550496"><ele>117.0</ele><time>2026-04-26T09:59:25Z</time></trkpt><trkpt lat="45.524153074739694" lon="10.821922141830987"><ele>117.0</ele><time>2026-04-26T09:59:26Z</time></trkpt><trkpt lat="45.52403572936767" lon="10.82199927251389"><ele>117.0</ele><time>2026-04-26T09:59:27Z</time></trkpt><trkpt lat="45.523905095387974" lon="10.822076626665005"><ele>117.0</ele><time>2026-04-26T09:59:28Z</time></trkpt><trkpt lat="45.52377270822321" lon="10.822142473711988"><ele>117.0</ele><time>2026-04-26T09:59:29Z</time></trkpt><trkpt lat="45.52364835543621" lon="10.82217649534268"><ele>117.0</ele><time>2026-04-26T09:59:30Z</time></trkpt><trkpt lat="45.52351743847486" lon="10.822206217803483"><ele>117.0</ele><time>2026-04-26T09:59:31Z</time></trkpt><trkpt lat="45.52338511747187" lon="10.822216572772302"><ele>117.25</ele><time>2026-04-26T09:59:32Z</time></trkpt><trkpt lat="45.523234443389505" lon="10.82223376081524"><ele>117.5</ele><time>2026-04-26T09:59:33Z</time></trkpt><trkpt lat="45.52309250324232" lon="10.822251667583389"><ele>117.75</ele><time>2026-04-26T09:59:34Z</time></trkpt><trkpt lat="45.52296480967915" lon="10.822269924531147"><ele>118.0</ele><time>2026-04-26T09:59:35Z</time></trkpt><trkpt lat="45.522852140700834" lon="10.822281586516402"><ele>118.0</ele><time>2026-04-26T09:59:36Z</time></trkpt><trkpt lat="45.52273743471688" lon="10.822294166062495"><ele>118.00000000000001</ele><time>2026-04-26T09:59:37Z</time></trkpt><trkpt lat="45.52262554863751" lon="10.822310842499167"><ele>118.00000000000001</ele><time>2026-04-26T09:59:38Z</time></trkpt><trkpt lat="45.52252677853428" lon="10.822316447545155"><ele>118.0</ele><time>2026-04-26T09:59:39Z</time></trkpt><trkpt lat="45.522446245875685" lon="10.822315921266123"><ele>118.0</ele><time>2026-04-26T09:59:40Z</time></trkpt><trkpt lat="45.522360419529996" lon="10.822314671064811"><ele>118.00000000000001</ele><time>2026-04-26T09:59:41Z</time></trkpt><trkpt lat="45.52228805371549" lon="10.822306757830802"><ele>118.0</ele><time>2026-04-26T09:59:42Z</time></trkpt><trkpt lat="45.52221692173517" lon="10.822295349576883"><ele>118.0</ele><time>2026-04-26T09:59:43Z</time></trkpt><trkpt lat="45.52213854860713" lon="10.822284640380504"><ele>118.0</ele><time>2026-04-26T09:59:44Z</time></trkpt><trkpt lat="45.52203714460215" lon="10.822303553340001"><ele>118.00000000000001</ele><time>2026-04-26T09:59:45Z</time></trkpt><trkpt lat="45.52193095733397" lon="10.822346241225832"><ele>118.0</ele><time>2026-04-26T09:59:46Z</time></trkpt><trkpt lat="45.52181698326568" lon="10.822387006177145"><ele>117.5</ele><time>2026-04-26T09:59:47Z</time></trkpt><trkpt lat="45.52171129048581" lon="10.822411108181864"><ele>117.0</ele><time>2026-04-26T09:59:48Z</time></trkpt><trkpt lat="45.52159473614514" lon="10.822428628764177"><ele>116.5</ele><time>2026-04-26T09:59:49Z</time></trkpt><trkpt lat="45.521467869864814" lon="10.822443664977023"><ele>116.0</ele><time>2026-04-26T09:59:50Z</time></trkpt><trkpt lat="45.52134015511796" lon="10.82245302052218"><ele>115.75</ele><time>2026-04-26T09:59:51Z</time></trkpt><trkpt lat="45.52120039716879" lon="10.822458233384156"><ele>115.5</ele><time>2026-04-26T09:59:52Z</time></trkpt><trkpt lat="45.521062205692424" lon="10.822462579511043"><ele>115.25</ele><time>2026-04-26T09:59:53Z</time></trkpt><trkpt lat="45.52094719629835" lon="10.82246172342093"><ele>115.0</ele><time>2026-04-26T09:59:54Z</time></trkpt><trkpt lat="45.520834547052374" lon="10.822459856775373"><ele>115.0</ele><time>2026-04-26T09:59:55Z</time></trkpt><trkpt lat="45.52071838850183" lon="10.822432321802685"><ele>115.0</ele><time>2026-04-26T09:59:56Z</time></trkpt><trkpt lat="45.520588651383406" lon="10.822457057094578"><ele>115.0</ele><time>2026-04-26T09:59:57Z</time></trkpt><trkpt lat="45.52045415114523" lon="10.822442351793889"><ele>115.0</ele><time>2026-04-26T09:59:58Z</time></trkpt><trkpt lat="45.520337850911886" lon="10.822448683819639"><ele>115.25</ele><time>2026-04-26T09:59:59Z</time></trkpt><trkpt lat="45.520240826385894" lon="10.82245528039297"><ele>115.5</ele><time>2026-04-26T10:00:00Z</time></trkpt><trkpt lat="45.520123991674204" lon="10.822459683727775"><ele>115.75</ele><time>2026-04-26T10:00:01Z</time></trkpt><trkpt lat="45.52000465640377" lon="10.822455488029846"><ele>116.0</ele><time>2026-04-26T10:00:02Z</time></trkpt><trkpt lat="45.51988376339508" lon="10.822463377526889"><ele>116.0</ele><time>2026-04-26T10:00:03Z</time></trkpt><trkpt lat="45.51976712253269" lon="10.822464275342737"><ele>116.0</ele><time>2026-04-26T10:00:04Z</time></trkpt><trkpt lat="45.519657608267636" lon="10.822462021757206"><ele>116.0</ele><time>2026-04-26T10:00:05Z</time></trkpt><trkpt lat="45.51955344865535" lon="10.822494153561372"><ele>116.0</ele><time>2026-04-26T10:00:06Z</time></trkpt><trkpt lat="45.519454913924804" lon="10.822531753757199"><ele>116.0</ele><time>2026-04-26T10:00:07Z</time></trkpt><trkpt lat="45.51935178265885" lon="10.822597808867055"><ele>117.6</ele><time>2026-04-26T10:00:08Z</time></trkpt><trkpt lat="45.51924785418505" lon="10.82267338401304"><ele>119.19999999999999</ele><time>2026-04-26T10:00:09Z</time></trkpt><trkpt lat="45.519146530128985" lon="10.82274594782273"><ele>120.80000000000001</ele><time>2026-04-26T10:00:10Z</time></trkpt><trkpt lat="45.519068459856854" lon="10.822808002560928"><ele>122.4</ele><time>2026-04-26T10:00:11Z</time></trkpt><trkpt lat="45.51901030634177" lon="10.822851655838914"><ele>124.0</ele><time>2026-04-26T10:00:12Z</time></trkpt><trkpt lat="45.51894545433799" lon="10.822903970042741"><ele>124.00000000000001</ele><time>2026-04-26T10:00:13Z</time></trkpt><trkpt lat="45.51889058555412" lon="10.822962032264178"><ele>124.0</ele><time>2026-04-26T10:00:14Z</time></trkpt><trkpt lat="45.51881707140253" lon="10.823020341262843"><ele>124.0</ele><time>2026-04-26T10:00:16Z</time></trkpt><trkpt lat="45.51875740179443" lon="10.823054048493807"><ele>124.0</ele><time>2026-04-26T10:00:18Z</time></trkpt><trkpt lat="45.51869018908897" lon="10.823110255654655"><ele>124.00000000000001</ele><time>2026-04-26T10:00:22Z</time></trkpt><trkpt lat="45.51859981231488" lon="10.82317662842905"><ele>124.0</ele><time>2026-04-26T10:00:27Z</time></trkpt><trkpt lat="45.518550390467915" lon="10.823267565742462"><ele>124.25</ele><time>2026-04-26T10:00:28Z</time></trkpt><trkpt lat="45.518533192933404" lon="10.823443757045633"><ele>124.5</ele><time>2026-04-26T10:00:29Z</time></trkpt><trkpt lat="45.51850388784107" lon="10.823601401009581"><ele>124.75</ele><time>2026-04-26T10:00:30Z</time></trkpt><trkpt lat="45.5184806281563" lon="10.823749231411925"><ele>125.0</ele><time>2026-04-26T10:00:31Z</time></trkpt><trkpt lat="45.518460209055" lon="10.823905839928175"><ele>125.0</ele><time>2026-04-26T10:00:32Z</time></trkpt><trkpt lat="45.51843471536354" lon="10.824084868692479"><ele>125.0</ele><time>2026-04-26T10:00:33Z</time></trkpt><trkpt lat="45.51841524210479" lon="10.824280069794183"><ele>125.0</ele><time>2026-04-26T10:00:34Z</time></trkpt><trkpt lat="45.51839686135943" lon="10.824453274956618"><ele>125.0</ele><time>2026-04-26T10:00:35Z</time></trkpt><trkpt lat="45.51837853060278" lon="10.824628164071552"><ele>126.5</ele><time>2026-04-26T10:00:36Z</time></trkpt><trkpt lat="45.51836324646999" lon="10.824803550296963"><ele>128.0</ele><time>2026-04-26T10:00:37Z</time></trkpt><trkpt lat="45.51836118914357" lon="10.824983104036532"><ele>129.5</ele><time>2026-04-26T10:00:38Z</time></trkpt><trkpt lat="45.51835660397517" lon="10.825166411728462"><ele>131.0</ele><time>2026-04-26T10:00:39Z</time></trkpt><trkpt lat="45.51835968712507" lon="10.825348555754008"><ele>131.4</ele><time>2026-04-26T10:00:40Z</time></trkpt><trkpt lat="45.51836926938772" lon="10.825510892139931"><ele>131.8</ele><time>2026-04-26T10:00:41Z</time></trkpt><trkpt lat="45.51837538825329" lon="10.82566421782502"><ele>132.20000000000002</ele><time>2026-04-26T10:00:42Z</time></trkpt><trkpt lat="45.51838048289271" lon="10.825815405579629"><ele>132.6</ele><time>2026-04-26T10:00:43Z</time></trkpt><trkpt lat="45.5183911026076" lon="10.825982266107587"><ele>133.0</ele><time>2026-04-26T10:00:44Z</time></trkpt><trkpt lat="45.518401991279575" lon="10.82615891258844"><ele>133.75</ele><time>2026-04-26T10:00:45Z</time></trkpt><trkpt lat="45.51841087978501" lon="10.826347323362729"><ele>134.5</ele><time>2026-04-26T10:00:46Z</time></trkpt><trkpt lat="45.518415223298476" lon="10.82654042162535"><ele>135.25</ele><time>2026-04-26T10:00:47Z</time></trkpt><trkpt lat="45.51842769290609" lon="10.826724309415306"><ele>136.0</ele><time>2026-04-26T10:00:48Z</time></trkpt><trkpt lat="45.518442166090054" lon="10.826914346101464"><ele>136.5</ele><time>2026-04-26T10:00:49Z</time></trkpt><trkpt lat="45.51845246684498" lon="10.827099887874136"><ele>137.0</ele><time>2026-04-26T10:00:50Z</time></trkpt><trkpt lat="45.5184651503221" lon="10.827284177102158"><ele>137.5</ele><time>2026-04-26T10:00:51Z</time></trkpt><trkpt lat="45.51847364358182" lon="10.827471298237654"><ele>138.0</ele><time>2026-04-26T10:00:52Z</time></trkpt><trkpt lat="45.51848523794836" lon="10.82765889773912"><ele>138.75</ele><time>2026-04-26T10:00:53Z</time></trkpt><trkpt lat="45.518488618035356" lon="10.827842627060571"><ele>139.5</ele><time>2026-04-26T10:00:54Z</time></trkpt><trkpt lat="45.51849477549127" lon="10.828016935891307"><ele>140.25</ele><time>2026-04-26T10:00:55Z</time></trkpt><trkpt lat="45.518502020183966" lon="10.828186702811571"><ele>141.0</ele><time>2026-04-26T10:00:56Z</time></trkpt><trkpt lat="45.51850445211053" lon="10.828361440035374"><ele>141.0</ele><time>2026-04-26T10:00:57Z</time></trkpt><trkpt lat="45.51851438343437" lon="10.828525544385846"><ele>141.0</ele><time>2026-04-26T10:00:58Z</time></trkpt><trkpt lat="45.518513128697634" lon="10.828690958954086"><ele>141.0</ele><time>2026-04-26T10:00:59Z</time></trkpt><trkpt lat="45.51851776761516" lon="10.828834447105898"><ele>141.0</ele><time>2026-04-26T10:01:00Z</time></trkpt><trkpt lat="45.518519777515394" lon="10.828964128745191"><ele>141.0</ele><time>2026-04-26T10:01:01Z</time></trkpt><trkpt lat="45.51852253087055" lon="10.829064323994714"><ele>141.0</ele><time>2026-04-26T10:01:02Z</time></trkpt><trkpt lat="45.51853190568037" lon="10.829188803750407"><ele>141.0</ele><time>2026-04-26T10:01:03Z</time></trkpt><trkpt lat="45.51853994686009" lon="10.82932634596864"><ele>141.0</ele><time>2026-04-26T10:01:04Z</time></trkpt><trkpt lat="45.518548168979045" lon="10.829461835715472"><ele>141.0</ele><time>2026-04-26T10:01:05Z</time></trkpt><trkpt lat="45.51856757514476" lon="10.82961615916215"><ele>141.0</ele><time>2026-04-26T10:01:06Z</time></trkpt><trkpt lat="45.518591481985034" lon="10.829759870409216"><ele>141.2</ele><time>2026-04-26T10:01:07Z</time></trkpt><trkpt lat="45.51863123637979" lon="10.829903471227826"><ele>141.39999999999998</ele><time>2026-04-26T10:01:08Z</time></trkpt><trkpt lat="45.51867036583965" lon="10.830041345978056"><ele>141.6</ele><time>2026-04-26T10:01:09Z</time></trkpt><trkpt lat="45.518707773744076" lon="10.830156294674284"><ele>141.79999999999998</ele><time>2026-04-26T10:01:10Z</time></trkpt><trkpt lat="45.518740959119754" lon="10.830244658354127"><ele>142.0</ele><time>2026-04-26T10:01:11Z</time></trkpt><trkpt lat="45.51879446025708" lon="10.830412381094286"><ele>145.0</ele><time>2026-04-26T10:01:13Z</time></trkpt><trkpt lat="45.51882736414714" lon="10.830564104154123"><ele>148.0</ele><time>2026-04-26T10:01:15Z</time></trkpt><trkpt lat="45.518825022985574" lon="10.830710029741965"><ele>151.0</ele><time>2026-04-26T10:01:17Z</time></trkpt><trkpt lat="45.51877210102601" lon="10.8308807970838"><ele>154.0</ele><time>2026-04-26T10:01:19Z</time></trkpt><trkpt lat="45.51876842539589" lon="10.830990359007272"><ele>157.0</ele><time>2026-04-26T10:01:20Z</time></trkpt><trkpt lat="45.51879913865391" lon="10.831081699305967"><ele>157.0</ele><time>2026-04-26T10:01:21Z</time></trkpt><trkpt lat="45.51885555830857" lon="10.831144001738837"><ele>157.0</ele><time>2026-04-26T10:01:22Z</time></trkpt><trkpt lat="45.51892524379825" lon="10.831171137909624"><ele>157.0</ele><time>2026-04-26T10:01:23Z</time></trkpt><trkpt lat="45.51900116088604" lon="10.831169622013126"><ele>157.0</ele><time>2026-04-26T10:01:24Z</time></trkpt><trkpt lat="45.51907275756499" lon="10.831155366147183"><ele>157.0</ele><time>2026-04-26T10:01:25Z</time></trkpt><trkpt lat="45.51915083635879" lon="10.83094543557118"><ele>157.0</ele><time>2026-04-26T10:01:27Z</time></trkpt><trkpt lat="45.51914464499235" lon="10.830830126980377"><ele>157.0</ele><time>2026-04-26T10:01:28Z</time></trkpt><trkpt lat="45.519145102990294" lon="10.83071461368089"><ele>157.0</ele><time>2026-04-26T10:01:29Z</time></trkpt><trkpt lat="45.519162098673306" lon="10.830616990072198"><ele>157.0</ele><time>2026-04-26T10:01:30Z</time></trkpt><trkpt lat="45.51920372826224" lon="10.830504784842834"><ele>157.0</ele><time>2026-04-26T10:01:31Z</time></trkpt><trkpt lat="45.51926145278165" lon="10.83037845480299"><ele>157.0</ele><time>2026-04-26T10:01:32Z</time></trkpt><trkpt lat="45.51931998437455" lon="10.830236659382571"><ele>157.0</ele><time>2026-04-26T10:01:33Z</time></trkpt><trkpt lat="45.51935529406902" lon="10.830120265515568"><ele>157.0</ele><time>2026-04-26T10:01:34Z</time></trkpt><trkpt lat="45.519401578758625" lon="10.82999913503206"><ele>157.0</ele><time>2026-04-26T10:01:35Z</time></trkpt><trkpt lat="45.519443556873846" lon="10.82986377353377"><ele>157.0</ele><time>2026-04-26T10:01:36Z</time></trkpt><trkpt lat="45.519484716689476" lon="10.829731816321223"><ele>157.0</ele><time>2026-04-26T10:01:37Z</time></trkpt><trkpt lat="45.51953176381147" lon="10.8296031724586"><ele>157.8</ele><time>2026-04-26T10:01:38Z</time></trkpt><trkpt lat="45.519578076082496" lon="10.829472110268128"><ele>158.6</ele><time>2026-04-26T10:01:39Z</time></trkpt><trkpt lat="45.51963851694188" lon="10.829335913847133"><ele>159.4</ele><time>2026-04-26T10:01:40Z</time></trkpt><trkpt lat="45.519725342204005" lon="10.829219635583714"><ele>160.20000000000002</ele><time>2026-04-26T10:01:41Z</time></trkpt><trkpt lat="45.51979598189599" lon="10.829094752127585"><ele>161.0</ele><time>2026-04-26T10:01:42Z</time></trkpt><trkpt lat="45.519865060348394" lon="10.828946242346513"><ele>161.0</ele><time>2026-04-26T10:01:43Z</time></trkpt><trkpt lat="45.51994938207541" lon="10.828801980514463"><ele>161.0</ele><time>2026-04-26T10:01:44Z</time></trkpt><trkpt lat="45.520023644473405" lon="10.828684524241943"><ele>161.0</ele><time>2026-04-26T10:01:45Z</time></trkpt><trkpt lat="45.52007018875706" lon="10.828555010809922"><ele>161.0</ele><time>2026-04-26T10:01:46Z</time></trkpt><trkpt lat="45.520119385385165" lon="10.82840235315163"><ele>161.5</ele><time>2026-04-26T10:01:47Z</time></trkpt><trkpt lat="45.52016468969109" lon="10.828227025248864"><ele>162.0</ele><time>2026-04-26T10:01:48Z</time></trkpt><trkpt lat="45.52019513390535" lon="10.828043331892365"><ele>162.5</ele><time>2026-04-26T10:01:49Z</time></trkpt><trkpt lat="45.520213529916795" lon="10.827853985001699"><ele>163.0</ele><time>2026-04-26T10:01:50Z</time></trkpt><trkpt lat="45.52022924137644" lon="10.82765751257845"><ele>163.25</ele><time>2026-04-26T10:01:51Z</time></trkpt><trkpt lat="45.52025618652645" lon="10.827455068618306"><ele>163.5</ele><time>2026-04-26T10:01:52Z</time></trkpt><trkpt lat="45.520279544703975" lon="10.827245354227461"><ele>163.75</ele><time>2026-04-26T10:01:53Z</time></trkpt><trkpt lat="45.520304091346674" lon="10.827042266145648"><ele>164.0</ele><time>2026-04-26T10:01:54Z</time></trkpt><trkpt lat="45.5203299108286" lon="10.826849445461347"><ele>165.0</ele><time>2026-04-26T10:01:55Z</time></trkpt><trkpt lat="45.52035814960831" lon="10.82668129269401"><ele>166.0</ele><time>2026-04-26T10:01:56Z</time></trkpt><trkpt lat="45.520379540900386" lon="10.826502155961744"><ele>167.0</ele><time>2026-04-26T10:01:57Z</time></trkpt><trkpt lat="45.520403415373" lon="10.826304819953432"><ele>168.0</ele><time>2026-04-26T10:01:58Z</time></trkpt><trkpt lat="45.520426745059304" lon="10.82611025636211"><ele>171.25</ele><time>2026-04-26T10:01:59Z</time></trkpt><trkpt lat="45.52045583483707" lon="10.825927780474421"><ele>174.5</ele><time>2026-04-26T10:02:00Z</time></trkpt><trkpt lat="45.52050567590357" lon="10.825780677408735"><ele>177.75</ele><time>2026-04-26T10:02:01Z</time></trkpt><trkpt lat="45.52054246356083" lon="10.825643380240143"><ele>181.0</ele><time>2026-04-26T10:02:02Z</time></trkpt><trkpt lat="45.52061397708125" lon="10.825513747993618"><ele>181.0</ele><time>2026-04-26T10:02:03Z</time></trkpt><trkpt lat="45.520697525842905" lon="10.825386513269965"><ele>181.0</ele><time>2026-04-26T10:02:04Z</time></trkpt><trkpt lat="45.52079369051431" lon="10.825279705818595"><ele>181.0</ele><time>2026-04-26T10:02:05Z</time></trkpt><trkpt lat="45.52090664804063" lon="10.825205172008344"><ele>181.0</ele><time>2026-04-26T10:02:06Z</time></trkpt><trkpt lat="45.5210339045836" lon="10.825140746633402"><ele>178.75</ele><time>2026-04-26T10:02:07Z</time></trkpt><trkpt lat="45.52117010754363" lon="10.825100820996413"><ele>176.5</ele><time>2026-04-26T10:02:08Z</time></trkpt><trkpt lat="45.52130329761136" lon="10.825090423915865"><ele>174.25</ele><time>2026-04-26T10:02:09Z</time></trkpt><trkpt lat="45.521437545411366" lon="10.82510925606699"><ele>172.0</ele><time>2026-04-26T10:02:10Z</time></trkpt><trkpt lat="45.52156337017287" lon="10.825165874693306"><ele>176.5</ele><time>2026-04-26T10:02:11Z</time></trkpt><trkpt lat="45.52168663500743" lon="10.825262707033385"><ele>181.0</ele><time>2026-04-26T10:02:12Z</time></trkpt><trkpt lat="45.52180832021335" lon="10.825376577096247"><ele>185.5</ele><time>2026-04-26T10:02:13Z</time></trkpt><trkpt lat="45.521929457691684" lon="10.825524589711582"><ele>190.0</ele><time>2026-04-26T10:02:14Z</time></trkpt><trkpt lat="45.522061077156124" lon="10.825697962401403"><ele>187.66666666666669</ele><time>2026-04-26T10:02:15Z</time></trkpt><trkpt lat="45.52222210751858" lon="10.82589649396345"><ele>185.33333333333334</ele><time>2026-04-26T10:02:16Z</time></trkpt><trkpt lat="45.522372728766065" lon="10.826111826441593"><ele>183.0</ele><time>2026-04-26T10:02:17Z</time></trkpt><trkpt lat="45.52250417683589" lon="10.82628900706721"><ele>187.0</ele><time>2026-04-26T10:02:18Z</time></trkpt><trkpt lat="45.52262499352478" lon="10.826445986192168"><ele>191.0</ele><time>2026-04-26T10:02:19Z</time></trkpt><trkpt lat="45.52272047073097" lon="10.82656954372115"><ele>195.0</ele><time>2026-04-26T10:02:20Z</time></trkpt><trkpt lat="45.52279800474572" lon="10.82669204859916"><ele>199.0</ele><time>2026-04-26T10:02:21Z</time></trkpt><trkpt lat="45.522864585726346" lon="10.82677919489081"><ele>200.16666666666666</ele><time>2026-04-26T10:02:22Z</time></trkpt><trkpt lat="45.522925788452135" lon="10.82684546428975"><ele>201.33333333333331</ele><time>2026-04-26T10:02:23Z</time></trkpt><trkpt lat="45.5229816278663" lon="10.82690181980977"><ele>202.5</ele><time>2026-04-26T10:02:24Z</time></trkpt><trkpt lat="45.523047046559356" lon="10.826979183396459"><ele>203.66666666666669</ele><time>2026-04-26T10:02:25Z</time></trkpt><trkpt lat="45.523129257022546" lon="10.827045952584367"><ele>204.83333333333334</ele><time>2026-04-26T10:02:26Z</time></trkpt><trkpt lat="45.5232175718858" lon="10.827083906777004"><ele>206.0</ele><time>2026-04-26T10:02:27Z</time></trkpt><trkpt lat="45.52332389530505" lon="10.827094629808062"><ele>206.0</ele><time>2026-04-26T10:02:28Z</time></trkpt><trkpt lat="45.52343058580532" lon="10.827069093245475"><ele>206.0</ele><time>2026-04-26T10:02:29Z</time></trkpt><trkpt lat="45.52354882468644" lon="10.827005648625276"><ele>206.0</ele><time>2026-04-26T10:02:30Z</time></trkpt><trkpt lat="45.52365600866299" lon="10.826915574307373"><ele>206.0</ele><time>2026-04-26T10:02:31Z</time></trkpt><trkpt lat="45.52377573635863" lon="10.8267946019779"><ele>207.5</ele><time>2026-04-26T10:02:32Z</time></trkpt><trkpt lat="45.52389011240763" lon="10.826682351079768"><ele>209.0</ele><time>2026-04-26T10:02:33Z</time></trkpt><trkpt lat="45.523984809943414" lon="10.826589742874091"><ele>210.5</ele><time>2026-04-26T10:02:34Z</time></trkpt><trkpt lat="45.524090625509054" lon="10.82649907029045"><ele>212.0</ele><time>2026-04-26T10:02:35Z</time></trkpt><trkpt lat="45.52420425201485" lon="10.82640263587377"><ele>212.0</ele><time>2026-04-26T10:02:36Z</time></trkpt><trkpt lat="45.52431253161228" lon="10.826313060458562"><ele>212.0</ele><time>2026-04-26T10:02:37Z</time></trkpt><trkpt lat="45.524412474926066" lon="10.826235631610306"><ele>212.0</ele><time>2026-04-26T10:02:38Z</time></trkpt><trkpt lat="45.52451184111717" lon="10.826172379925623"><ele>212.0</ele><time>2026-04-26T10:02:39Z</time></trkpt><trkpt lat="45.52462505539024" lon="10.826122563800116"><ele>214.5</ele><time>2026-04-26T10:02:40Z</time></trkpt><trkpt lat="45.5247512017421" lon="10.826076641934538"><ele>217.0</ele><time>2026-04-26T10:02:41Z</time></trkpt><trkpt lat="45.52488148767715" lon="10.8260605457446"><ele>219.5</ele><time>2026-04-26T10:02:42Z</time></trkpt><trkpt lat="45.52501513111847" lon="10.826071203564313"><ele>222.0</ele><time>2026-04-26T10:02:43Z</time></trkpt><trkpt lat="45.525162909173375" lon="10.826091148544329"><ele>222.0</ele><time>2026-04-26T10:02:44Z</time></trkpt><trkpt lat="45.52531348579499" lon="10.826109541144795"><ele>222.0</ele><time>2026-04-26T10:02:45Z</time></trkpt><trkpt lat="45.52545833923121" lon="10.826130062197361"><ele>222.0</ele><time>2026-04-26T10:02:46Z</time></trkpt><trkpt lat="45.525610939226084" lon="10.826140635823577"><ele>222.0</ele><time>2026-04-26T10:02:47Z</time></trkpt><trkpt lat="45.5257681889101" lon="10.826155430029807"><ele>222.33333333333331</ele><time>2026-04-26T10:02:48Z</time></trkpt><trkpt lat="45.52592046416176" lon="10.826187041732036"><ele>222.66666666666666</ele><time>2026-04-26T10:02:49Z</time></trkpt><trkpt lat="45.526074884727336" lon="10.826209237615707"><ele>223.0</ele><time>2026-04-26T10:02:50Z</time></trkpt><trkpt lat="45.526222445849086" lon="10.82623118865335"><ele>224.75</ele><time>2026-04-26T10:02:51Z</time></trkpt><trkpt lat="45.5263703589751" lon="10.826249474224792"><ele>226.5</ele><time>2026-04-26T10:02:52Z</time></trkpt><trkpt lat="45.52652091438559" lon="10.826267010092131"><ele>228.25</ele><time>2026-04-26T10:02:53Z</time></trkpt><trkpt lat="45.52666736030517" lon="10.826291133547667"><ele>230.0</ele><time>2026-04-26T10:02:54Z</time></trkpt><trkpt lat="45.52682219423589" lon="10.826302525074885"><ele>230.0</ele><time>2026-04-26T10:02:55Z</time></trkpt><trkpt lat="45.52698017988005" lon="10.826295186687247"><ele>230.0</ele><time>2026-04-26T10:02:56Z</time></trkpt><trkpt lat="45.52713260798845" lon="10.826267173961632"><ele>230.0</ele><time>2026-04-26T10:02:57Z</time></trkpt><trkpt lat="45.527282376590314" lon="10.826218000627778"><ele>231.66666666666669</ele><time>2026-04-26T10:02:58Z</time></trkpt><trkpt lat="45.52742834508974" lon="10.826144251646454"><ele>233.33333333333331</ele><time>2026-04-26T10:02:59Z</time></trkpt><trkpt lat="45.52756318735442" lon="10.826040824665558"><ele>235.0</ele><time>2026-04-26T10:03:00Z</time></trkpt><trkpt lat="45.52769085355666" lon="10.825917213148855"><ele>234.5</ele><time>2026-04-26T10:03:01Z</time></trkpt><trkpt lat="45.52781350561158" lon="10.825799381531247"><ele>234.0</ele><time>2026-04-26T10:03:02Z</time></trkpt><trkpt lat="45.52793318150769" lon="10.825695777229734"><ele>233.5</ele><time>2026-04-26T10:03:03Z</time></trkpt><trkpt lat="45.52805030416782" lon="10.825598934922343"><ele>233.0</ele><time>2026-04-26T10:03:04Z</time></trkpt><trkpt lat="45.52816469292195" lon="10.825520893257194"><ele>233.0</ele><time>2026-04-26T10:03:05Z</time></trkpt><trkpt lat="45.52827875073139" lon="10.825457977186216"><ele>233.0</ele><time>2026-04-26T10:03:06Z</time></trkpt><trkpt lat="45.52840555311117" lon="10.825401157507448"><ele>233.0</ele><time>2026-04-26T10:03:07Z</time></trkpt><trkpt lat="45.528532937508544" lon="10.825357775486413"><ele>233.0</ele><time>2026-04-26T10:03:08Z</time></trkpt><trkpt lat="45.528661410390114" lon="10.825329764253325"><ele>235.75</ele><time>2026-04-26T10:03:09Z</time></trkpt><trkpt lat="45.52880260425063" lon="10.825298763481582"><ele>238.5</ele><time>2026-04-26T10:03:10Z</time></trkpt><trkpt lat="45.52893591466199" lon="10.825262117289723"><ele>241.25</ele><time>2026-04-26T10:03:11Z</time></trkpt><trkpt lat="45.52906964688998" lon="10.825231132379452"><ele>244.0</ele><time>2026-04-26T10:03:12Z</time></trkpt><trkpt lat="45.529189389005005" lon="10.8252287142887"><ele>244.0</ele><time>2026-04-26T10:03:13Z</time></trkpt><trkpt lat="45.52928643350019" lon="10.8252104215749"><ele>243.99999999999997</ele><time>2026-04-26T10:03:14Z</time></trkpt><trkpt lat="45.529394059277784" lon="10.825201684159424"><ele>243.99999999999997</ele><time>2026-04-26T10:03:15Z</time></trkpt><trkpt lat="45.52950804519002" lon="10.825189065039064"><ele>244.0</ele><time>2026-04-26T10:03:16Z</time></trkpt><trkpt lat="45.529633849896776" lon="10.825231993735624"><ele>244.0</ele><time>2026-04-26T10:03:17Z</time></trkpt><trkpt lat="45.52975311819364" lon="10.8252886665619"><ele>244.25</ele><time>2026-04-26T10:03:18Z</time></trkpt><trkpt lat="45.52984986131954" lon="10.825360863388962"><ele>244.5</ele><time>2026-04-26T10:03:19Z</time></trkpt><trkpt lat="45.52994059363705" lon="10.825454040691657"><ele>244.75</ele><time>2026-04-26T10:03:20Z</time></trkpt><trkpt lat="45.53004716998056" lon="10.825540732768312"><ele>245.0</ele><time>2026-04-26T10:03:21Z</time></trkpt><trkpt lat="45.53015237141916" lon="10.825618062985503"><ele>245.0</ele><time>2026-04-26T10:03:22Z</time></trkpt><trkpt lat="45.53026952580617" lon="10.825685200281876"><ele>245.0</ele><time>2026-04-26T10:03:23Z</time></trkpt><trkpt lat="45.53039784816926" lon="10.8257478792419"><ele>245.0</ele><time>2026-04-26T10:03:24Z</time></trkpt><trkpt lat="45.530528534330834" lon="10.825789845338896"><ele>245.0</ele><time>2026-04-26T10:03:25Z</time></trkpt><trkpt lat="45.53067230579809" lon="10.82582674832452"><ele>244.75</ele><time>2026-04-26T10:03:26Z</time></trkpt><trkpt lat="45.530803906452306" lon="10.825863888540235"><ele>244.5</ele><time>2026-04-26T10:03:27Z</time></trkpt><trkpt lat="45.53093032681166" lon="10.825907753658536"><ele>244.25</ele><time>2026-04-26T10:03:28Z</time></trkpt><trkpt lat="45.53106040277661" lon="10.82595568094827"><ele>244.0</ele><time>2026-04-26T10:03:29Z</time></trkpt><trkpt lat="45.53119026238122" lon="10.825996810079365"><ele>247.2</ele><time>2026-04-26T10:03:30Z</time></trkpt><trkpt lat="45.53131486543495" lon="10.826034582701835"><ele>250.39999999999998</ele><time>2026-04-26T10:03:31Z</time></trkpt><trkpt lat="45.53142105040667" lon="10.826071837609998"><ele>253.6</ele><time>2026-04-26T10:03:32Z</time></trkpt><trkpt lat="45.5315100382867" lon="10.826116155692128"><ele>256.8</ele><time>2026-04-26T10:03:33Z</time></trkpt><trkpt lat="45.53158266604432" lon="10.826123074772582"><ele>260.0</ele><time>2026-04-26T10:03:34Z</time></trkpt><trkpt lat="45.53171312911573" lon="10.82618832697881"><ele>260.0</ele><time>2026-04-26T10:03:36Z</time></trkpt><trkpt lat="45.53181200204501" lon="10.826264327237666"><ele>260.0</ele><time>2026-04-26T10:03:37Z</time></trkpt><trkpt lat="45.5319052593243" lon="10.826346238472711"><ele>260.0</ele><time>2026-04-26T10:03:38Z</time></trkpt><trkpt lat="45.5319875284845" lon="10.826401259122212"><ele>260.0</ele><time>2026-04-26T10:03:39Z</time></trkpt><trkpt lat="45.53207029552107" lon="10.826458992343111"><ele>260.0</ele><time>2026-04-26T10:03:40Z</time></trkpt><trkpt lat="45.532147975215175" lon="10.8265189588839"><ele>260.5</ele><time>2026-04-26T10:03:41Z</time></trkpt><trkpt lat="45.53221223757548" lon="10.82657171768994"><ele>261.0</ele><time>2026-04-26T10:03:42Z</time></trkpt><trkpt lat="45.53227346493632" lon="10.82666461562048"><ele>261.5</ele><time>2026-04-26T10:03:43Z</time></trkpt><trkpt lat="45.532317570786674" lon="10.826745792748637"><ele>262.0</ele><time>2026-04-26T10:03:44Z</time></trkpt><trkpt lat="45.5323686840154" lon="10.826847695724613"><ele>262.5</ele><time>2026-04-26T10:03:45Z</time></trkpt><trkpt lat="45.53240858878815" lon="10.826934896642884"><ele>263.0</ele><time>2026-04-26T10:03:46Z</time></trkpt><trkpt lat="45.53244220160518" lon="10.827049554373717"><ele>263.0</ele><time>2026-04-26T10:03:47Z</time></trkpt><trkpt lat="45.5324650505162" lon="10.827165218779967"><ele>263.0</ele><time>2026-04-26T10:03:48Z</time></trkpt><trkpt lat="45.532481490196744" lon="10.827288743377386"><ele>263.0</ele><time>2026-04-26T10:03:49Z</time></trkpt><trkpt lat="45.53250508611053" lon="10.82741475541462"><ele>263.0</ele><time>2026-04-26T10:03:50Z</time></trkpt><trkpt lat="45.532538568098175" lon="10.827517109508522"><ele>263.0</ele><time>2026-04-26T10:03:51Z</time></trkpt><trkpt lat="45.53259655661438" lon="10.82761310437894"><ele>263.0</ele><time>2026-04-26T10:03:52Z</time></trkpt><trkpt lat="45.532672025908035" lon="10.827677895375064"><ele>263.0</ele><time>2026-04-26T10:03:53Z</time></trkpt><trkpt lat="45.532752034764975" lon="10.827712152503969"><ele>263.0</ele><time>2026-04-26T10:03:54Z</time></trkpt><trkpt lat="45.532831723520324" lon="10.82772463839203"><ele>263.0</ele><time>2026-04-26T10:03:55Z</time></trkpt><trkpt lat="45.532946503061744" lon="10.827719013937328"><ele>263.0</ele><time>2026-04-26T10:03:57Z</time></trkpt><trkpt lat="45.53306809979868" lon="10.827714406261135"><ele>263.0</ele><time>2026-04-26T10:03:59Z</time></trkpt><trkpt lat="45.53313835145219" lon="10.827709399206388"><ele>263.0</ele><time>2026-04-26T10:04:01Z</time></trkpt><trkpt lat="45.53320728651414" lon="10.827703443021585"><ele>263.0</ele><time>2026-04-26T10:04:03Z</time></trkpt><trkpt lat="45.53330853781618" lon="10.827715414481604"><ele>263.0</ele><time>2026-04-26T10:04:05Z</time></trkpt><trkpt lat="45.53338820772112" lon="10.82773329407361"><ele>263.0</ele><time>2026-04-26T10:04:07Z</time></trkpt><trkpt lat="45.53345240782245" lon="10.827747544833565"><ele>263.0</ele><time>2026-04-26T10:04:09Z</time></trkpt><trkpt lat="45.533522467227144" lon="10.827756990944424"><ele>263.0</ele><time>2026-04-26T10:04:12Z</time></trkpt><trkpt lat="45.5335884235905" lon="10.827766295777174"><ele>263.0</ele><time>2026-04-26T10:04:14Z</time></trkpt><trkpt lat="45.53366162140405" lon="10.827796191123989"><ele>263.0</ele><time>2026-04-26T10:04:16Z</time></trkpt><trkpt lat="45.53372125917236" lon="10.827853301348638"><ele>263.0</ele><time>2026-04-26T10:04:19Z</time></trkpt><trkpt lat="45.53379115606617" lon="10.827923858094138"><ele>263.0</ele><time>2026-04-26T10:04:22Z</time></trkpt><trkpt lat="45.53384496272965" lon="10.827996208424862"><ele>263.0</ele><time>2026-04-26T10:04:24Z</time></trkpt><trkpt lat="45.533909984347396" lon="10.828075766892715"><ele>263.0</ele><time>2026-04-26T10:04:27Z</time></trkpt><trkpt lat="45.53396583424992" lon="10.828134887751204"><ele>262.0</ele><time>2026-04-26T10:04:30Z</time></trkpt><trkpt lat="45.534036003553894" lon="10.82822628787016"><ele>261.0</ele><time>2026-04-26T10:04:32Z</time></trkpt><trkpt lat="45.5340192544915" lon="10.828395968294751"><ele>260.0</ele><time>2026-04-26T10:04:34Z</time></trkpt><trkpt lat="45.53405635737648" lon="10.82850904310171"><ele>259.0</ele><time>2026-04-26T10:04:36Z</time></trkpt><trkpt lat="45.5340610160999" lon="10.828638616817939"><ele>258.0</ele><time>2026-04-26T10:04:39Z</time></trkpt><trkpt lat="45.53405472562604" lon="10.828752655528048"><ele>258.8333333333333</ele><time>2026-04-26T10:04:42Z</time></trkpt><trkpt lat="45.53398189027309" lon="10.828796920540894"><ele>259.6666666666667</ele><time>2026-04-26T10:04:43Z</time></trkpt><trkpt lat="45.53391296929946" lon="10.82883706283544"><ele>260.5</ele><time>2026-04-26T10:04:44Z</time></trkpt><trkpt lat="45.53383045675793" lon="10.82888573744614"><ele>261.33333333333337</ele><time>2026-04-26T10:04:45Z</time></trkpt><trkpt lat="45.53374132773186" lon="10.8289518092809"><ele>262.1666666666667</ele><time>2026-04-26T10:04:46Z</time></trkpt><trkpt lat="45.53368791034252" lon="10.828999953953389"><ele>263.0</ele><time>2026-04-26T10:04:47Z</time></trkpt><trkpt lat="45.53357931067156" lon="10.829067792731665"><ele>263.0</ele><time>2026-04-26T10:04:49Z</time></trkpt><trkpt lat="45.533487145905376" lon="10.82911457231837"><ele>263.0</ele><time>2026-04-26T10:04:50Z</time></trkpt><trkpt lat="45.53340074684461" lon="10.829205578556829"><ele>263.0</ele><time>2026-04-26T10:04:51Z</time></trkpt><trkpt lat="45.53333641138945" lon="10.829298277791839"><ele>263.0</ele><time>2026-04-26T10:04:52Z</time></trkpt><trkpt lat="45.53328233691107" lon="10.829379387431663"><ele>263.0</ele><time>2026-04-26T10:04:53Z</time></trkpt><trkpt lat="45.533212219722444" lon="10.829422931893502"><ele>260.6</ele><time>2026-04-26T10:04:54Z</time></trkpt><trkpt lat="45.533155983323965" lon="10.82954585114937"><ele>258.20000000000005</ele><time>2026-04-26T10:04:55Z</time></trkpt><trkpt lat="45.533092588644635" lon="10.829660040730326"><ele>255.8</ele><time>2026-04-26T10:04:56Z</time></trkpt><trkpt lat="45.53303245751127" lon="10.829787962141577"><ele>253.4</ele><time>2026-04-26T10:04:57Z</time></trkpt><trkpt lat="45.53298205699282" lon="10.829914402069898"><ele>251.0</ele><time>2026-04-26T10:04:58Z</time></trkpt><trkpt lat="45.53292610242191" lon="10.830011045329115"><ele>253.4</ele><time>2026-04-26T10:04:59Z</time></trkpt><trkpt lat="45.532878679644206" lon="10.83010567713589"><ele>255.8</ele><time>2026-04-26T10:05:00Z</time></trkpt><trkpt lat="45.53282749555766" lon="10.83022787170672"><ele>258.20000000000005</ele><time>2026-04-26T10:05:01Z</time></trkpt><trkpt lat="45.53277065752004" lon="10.830371583238204"><ele>260.6</ele><time>2026-04-26T10:05:02Z</time></trkpt><trkpt lat="45.532719795922596" lon="10.8304779464265"><ele>263.0</ele><time>2026-04-26T10:05:03Z</time></trkpt><trkpt lat="45.53267945201995" lon="10.830563710025602"><ele>263.0</ele><time>2026-04-26T10:05:04Z</time></trkpt><trkpt lat="45.532659324760516" lon="10.830661271386525"><ele>263.0</ele><time>2026-04-26T10:05:05Z</time></trkpt><trkpt lat="45.53265545265378" lon="10.830770753570691"><ele>263.0</ele><time>2026-04-26T10:05:06Z</time></trkpt><trkpt lat="45.53262542052914" lon="10.830914421208615"><ele>263.0</ele><time>2026-04-26T10:05:07Z</time></trkpt><trkpt lat="45.53261197775707" lon="10.831062853694695"><ele>263.0</ele><time>2026-04-26T10:05:08Z</time></trkpt><trkpt lat="45.53259030289278" lon="10.831184100045565"><ele>263.0</ele><time>2026-04-26T10:05:09Z</time></trkpt><trkpt lat="45.532547863341996" lon="10.831268346306446"><ele>261.0</ele><time>2026-04-26T10:05:10Z</time></trkpt><trkpt lat="45.53250803849594" lon="10.831372079375669"><ele>259.0</ele><time>2026-04-26T10:05:11Z</time></trkpt><trkpt lat="45.5324454130778" lon="10.83149149072587"><ele>257.0</ele><time>2026-04-26T10:05:12Z</time></trkpt><trkpt lat="45.532372153248204" lon="10.831594434476726"><ele>255.0</ele><time>2026-04-26T10:05:13Z</time></trkpt><trkpt lat="45.532318077859046" lon="10.831700599240175"><ele>253.0</ele><time>2026-04-26T10:05:14Z</time></trkpt><trkpt lat="45.53226391053306" lon="10.831805104426095"><ele>253.99999999999997</ele><time>2026-04-26T10:05:15Z</time></trkpt><trkpt lat="45.53221203867526" lon="10.831919493982246"><ele>255.0</ele><time>2026-04-26T10:05:16Z</time></trkpt><trkpt lat="45.53217077796947" lon="10.83201945621292"><ele>256.0</ele><time>2026-04-26T10:05:17Z</time></trkpt><trkpt lat="45.53212348222121" lon="10.832128281519632"><ele>257.0</ele><time>2026-04-26T10:05:18Z</time></trkpt><trkpt lat="45.53207987020897" lon="10.83220649893629"><ele>258.0</ele><time>2026-04-26T10:05:19Z</time></trkpt><trkpt lat="45.53203222163588" lon="10.832310072073136"><ele>259.0</ele><time>2026-04-26T10:05:20Z</time></trkpt><trkpt lat="45.53196990796127" lon="10.832424912824012"><ele>259.0</ele><time>2026-04-26T10:05:21Z</time></trkpt><trkpt lat="45.53191909261452" lon="10.832526220373587"><ele>259.0</ele><time>2026-04-26T10:05:22Z</time></trkpt><trkpt lat="45.53185317174223" lon="10.83266993980771"><ele>259.0</ele><time>2026-04-26T10:05:24Z</time></trkpt><trkpt lat="45.53180816656988" lon="10.832742109845514"><ele>259.0</ele><time>2026-04-26T10:05:25Z</time></trkpt><trkpt lat="45.53176516750697" lon="10.832828701784441"><ele>259.0</ele><time>2026-04-26T10:05:26Z</time></trkpt><trkpt lat="45.53170498823746" lon="10.83296743670113"><ele>257.5</ele><time>2026-04-26T10:05:28Z</time></trkpt><trkpt lat="45.5316698963792" lon="10.833048458081901"><ele>256.0</ele><time>2026-04-26T10:05:29Z</time></trkpt><trkpt lat="45.531629255571694" lon="10.833151317938961"><ele>254.5</ele><time>2026-04-26T10:05:30Z</time></trkpt><trkpt lat="45.53162631765872" lon="10.83327812058978"><ele>253.0</ele><time>2026-04-26T10:05:31Z</time></trkpt><trkpt lat="45.53160917394981" lon="10.833403288894923"><ele>251.49999999999997</ele><time>2026-04-26T10:05:32Z</time></trkpt><trkpt lat="45.53159253023672" lon="10.833491536239734"><ele>250.0</ele><time>2026-04-26T10:05:33Z</time></trkpt><trkpt lat="45.5315232245523" lon="10.833611783306015"><ele>249.99999999999997</ele><time>2026-04-26T10:05:35Z</time></trkpt><trkpt lat="45.53146866273272" lon="10.83367645289451"><ele>250.0</ele><time>2026-04-26T10:05:36Z</time></trkpt><trkpt lat="45.5314192764557" lon="10.833742100690158"><ele>250.0</ele><time>2026-04-26T10:05:37Z</time></trkpt><trkpt lat="45.53134183669326" lon="10.833863294310378"><ele>250.0</ele><time>2026-04-26T10:05:39Z</time></trkpt><trkpt lat="45.53129746196332" lon="10.833934437093795"><ele>249.99999999999997</ele><time>2026-04-26T10:05:40Z</time></trkpt><trkpt lat="45.53122250085422" lon="10.834054981337628"><ele>250.0</ele><time>2026-04-26T10:05:42Z</time></trkpt><trkpt lat="45.531183201266586" lon="10.83413465744514"><ele>250.4</ele><time>2026-04-26T10:05:44Z</time></trkpt><trkpt lat="45.53119924040129" lon="10.834290733040952"><ele>250.8</ele><time>2026-04-26T10:05:47Z</time></trkpt><trkpt lat="45.53123999848026" lon="10.834393160790261"><ele>251.2</ele><time>2026-04-26T10:05:48Z</time></trkpt><trkpt lat="45.53126336488566" lon="10.834499384104731"><ele>251.6</ele><time>2026-04-26T10:05:50Z</time></trkpt><trkpt lat="45.5313098775151" lon="10.834607228062282"><ele>252.0</ele><time>2026-04-26T10:05:58Z</time></trkpt><trkpt lat="45.53128873840117" lon="10.834764177498327"><ele>252.16666666666666</ele><time>2026-04-26T10:06:00Z</time></trkpt><trkpt lat="45.53126616528503" lon="10.834856796976151"><ele>252.33333333333331</ele><time>2026-04-26T10:06:01Z</time></trkpt><trkpt lat="45.531247956512686" lon="10.834944538426523"><ele>252.5</ele><time>2026-04-26T10:06:02Z</time></trkpt><trkpt lat="45.53122021498752" lon="10.835039605370254"><ele>252.66666666666666</ele><time>2026-04-26T10:06:03Z</time></trkpt><trkpt lat="45.53118656918019" lon="10.83513397957074"><ele>252.83333333333331</ele><time>2026-04-26T10:06:04Z</time></trkpt><trkpt lat="45.53115386927823" lon="10.835238640570903"><ele>253.0</ele><time>2026-04-26T10:06:05Z</time></trkpt><trkpt lat="45.53112874078908" lon="10.835365577375958"><ele>253.0</ele><time>2026-04-26T10:06:07Z</time></trkpt><trkpt lat="45.531221994191554" lon="10.835340182370993"><ele>253.0</ele><time>2026-04-26T10:06:14Z</time></trkpt><trkpt lat="45.53124806138803" lon="10.835219550192631"><ele>253.0</ele><time>2026-04-26T10:06:15Z</time></trkpt><trkpt lat="45.531253688036045" lon="10.835066669459101"><ele>253.0</ele><time>2026-04-26T10:06:16Z</time></trkpt><trkpt lat="45.531286259300074" lon="10.83494390995185"><ele>253.0</ele><time>2026-04-26T10:06:17Z</time></trkpt><trkpt lat="45.53137713049703" lon="10.834820049599514"><ele>253.0</ele><time>2026-04-26T10:06:18Z</time></trkpt><trkpt lat="45.53145689005812" lon="10.8346631913848"><ele>253.0</ele><time>2026-04-26T10:06:19Z</time></trkpt><trkpt lat="45.5315455071739" lon="10.834558784401228"><ele>253.0</ele><time>2026-04-26T10:06:20Z</time></trkpt><trkpt lat="45.5316504124029" lon="10.834495934092583"><ele>253.0</ele><time>2026-04-26T10:06:21Z</time></trkpt><trkpt lat="45.53176859161098" lon="10.834440678334435"><ele>253.0</ele><time>2026-04-26T10:06:22Z</time></trkpt><trkpt lat="45.53191204216356" lon="10.834395783610494"><ele>253.0</ele><time>2026-04-26T10:06:23Z</time></trkpt><trkpt lat="45.53206511612466" lon="10.834353102073454"><ele>253.0</ele><time>2026-04-26T10:06:24Z</time></trkpt><trkpt lat="45.532239014214426" lon="10.834290447056615"><ele>255.66666666666666</ele><time>2026-04-26T10:06:25Z</time></trkpt><trkpt lat="45.53241553642696" lon="10.83421610044281"><ele>258.3333333333333</ele><time>2026-04-26T10:06:26Z</time></trkpt><trkpt lat="45.53259284452875" lon="10.83411427029833"><ele>261.0</ele><time>2026-04-26T10:06:27Z</time></trkpt><trkpt lat="45.53277099974476" lon="10.834010462200567"><ele>265.6666666666667</ele><time>2026-04-26T10:06:28Z</time></trkpt><trkpt lat="45.53293366496319" lon="10.83391610667153"><ele>270.33333333333337</ele><time>2026-04-26T10:06:29Z</time></trkpt><trkpt lat="45.533091042622644" lon="10.833819800352638"><ele>275.0</ele><time>2026-04-26T10:06:30Z</time></trkpt><trkpt lat="45.5332461171291" lon="10.83373533806116"><ele>275.0</ele><time>2026-04-26T10:06:31Z</time></trkpt><trkpt lat="45.533397024357235" lon="10.833654813928085"><ele>275.0</ele><time>2026-04-26T10:06:32Z</time></trkpt><trkpt lat="45.53355241280938" lon="10.833580549488833"><ele>275.0</ele><time>2026-04-26T10:06:33Z</time></trkpt><trkpt lat="45.53368620578468" lon="10.83351572064597"><ele>273.0</ele><time>2026-04-26T10:06:34Z</time></trkpt><trkpt lat="45.533827423160986" lon="10.833444723899495"><ele>271.0</ele><time>2026-04-26T10:06:35Z</time></trkpt><trkpt lat="45.53395567839211" lon="10.833397084726538"><ele>269.0</ele><time>2026-04-26T10:06:36Z</time></trkpt><trkpt lat="45.53407814392947" lon="10.833379950320932"><ele>267.0</ele><time>2026-04-26T10:06:37Z</time></trkpt><trkpt lat="45.53419580460302" lon="10.833429843957322"><ele>267.0</ele><time>2026-04-26T10:06:38Z</time></trkpt><trkpt lat="45.53433587206394" lon="10.833450224063544"><ele>267.0</ele><time>2026-04-26T10:06:39Z</time></trkpt><trkpt lat="45.53447474384696" lon="10.833467719788791"><ele>267.0</ele><time>2026-04-26T10:06:40Z</time></trkpt><trkpt lat="45.53460880469387" lon="10.83343712736088"><ele>267.0</ele><time>2026-04-26T10:06:41Z</time></trkpt><trkpt lat="45.53475168198672" lon="10.833368410607548"><ele>269.6666666666667</ele><time>2026-04-26T10:06:42Z</time></trkpt><trkpt lat="45.534902985555895" lon="10.833289988175434"><ele>272.33333333333337</ele><time>2026-04-26T10:06:43Z</time></trkpt><trkpt lat="45.535065564054506" lon="10.833218518654931"><ele>275.0</ele><time>2026-04-26T10:06:44Z</time></trkpt><trkpt lat="45.535225030133866" lon="10.833161596116748"><ele>275.0</ele><time>2026-04-26T10:06:45Z</time></trkpt><trkpt lat="45.53537457324973" lon="10.833123077603798"><ele>275.0</ele><time>2026-04-26T10:06:46Z</time></trkpt><trkpt lat="45.53551322686716" lon="10.833067408361945"><ele>275.0</ele><time>2026-04-26T10:06:47Z</time></trkpt><trkpt lat="45.53564467234846" lon="10.83295520418573"><ele>275.0</ele><time>2026-04-26T10:06:48Z</time></trkpt><trkpt lat="45.53576275707349" lon="10.832790569050639"><ele>274.75</ele><time>2026-04-26T10:06:49Z</time></trkpt><trkpt lat="45.5358708999461" lon="10.832608133583301"><ele>274.5</ele><time>2026-04-26T10:06:50Z</time></trkpt><trkpt lat="45.53598051423925" lon="10.832478607393776"><ele>274.25</ele><time>2026-04-26T10:06:51Z</time></trkpt><trkpt lat="45.536071480518245" lon="10.832353899188975"><ele>274.0</ele><time>2026-04-26T10:06:52Z</time></trkpt><trkpt lat="45.536182121177525" lon="10.832299414549027"><ele>276.5</ele><time>2026-04-26T10:06:53Z</time></trkpt><trkpt lat="45.5363031098771" lon="10.832302401372225"><ele>279.0</ele><time>2026-04-26T10:06:54Z</time></trkpt><trkpt lat="45.5364264098737" lon="10.832346896120784"><ele>281.5</ele><time>2026-04-26T10:06:55Z</time></trkpt><trkpt lat="45.53653435024559" lon="10.83246275926214"><ele>284.0</ele><time>2026-04-26T10:06:56Z</time></trkpt><trkpt lat="45.53667419386539" lon="10.832554547402331"><ele>289.0</ele><time>2026-04-26T10:06:57Z</time></trkpt><trkpt lat="45.536808799568696" lon="10.832677175952911"><ele>294.0</ele><time>2026-04-26T10:06:58Z</time></trkpt><trkpt lat="45.53694312074623" lon="10.832766780733587"><ele>299.0</ele><time>2026-04-26T10:06:59Z</time></trkpt><trkpt lat="45.5370841129194" lon="10.832843720344703"><ele>299.5</ele><time>2026-04-26T10:07:00Z</time></trkpt><trkpt lat="45.537223341031265" lon="10.832908835224224"><ele>300.0</ele><time>2026-04-26T10:07:01Z</time></trkpt><trkpt lat="45.53735070569058" lon="10.832937291048637"><ele>300.5</ele><time>2026-04-26T10:07:02Z</time></trkpt><trkpt lat="45.53747922676609" lon="10.832915905137352"><ele>301.0</ele><time>2026-04-26T10:07:03Z</time></trkpt><trkpt lat="45.53760765202658" lon="10.832864744011236"><ele>301.0</ele><time>2026-04-26T10:07:04Z</time></trkpt><trkpt lat="45.537734516229015" lon="10.832806749739602"><ele>301.0</ele><time>2026-04-26T10:07:05Z</time></trkpt><trkpt lat="45.53787601998367" lon="10.832733442487763"><ele>301.0</ele><time>2026-04-26T10:07:06Z</time></trkpt><trkpt lat="45.53801893966157" lon="10.83263457571614"><ele>301.0</ele><time>2026-04-26T10:07:07Z</time></trkpt><trkpt lat="45.538158446290524" lon="10.832506774267289"><ele>299.0</ele><time>2026-04-26T10:07:08Z</time></trkpt><trkpt lat="45.53830205837439" lon="10.83238329055885"><ele>297.0</ele><time>2026-04-26T10:07:09Z</time></trkpt><trkpt lat="45.53844530697719" lon="10.832343217886462"><ele>295.0</ele><time>2026-04-26T10:07:10Z</time></trkpt><trkpt lat="45.538587111291534" lon="10.832301231186149"><ele>295.25</ele><time>2026-04-26T10:07:11Z</time></trkpt><trkpt lat="45.538728209087985" lon="10.83235162972028"><ele>295.5</ele><time>2026-04-26T10:07:12Z</time></trkpt><trkpt lat="45.53886253814975" lon="10.832400718452787"><ele>295.75</ele><time>2026-04-26T10:07:13Z</time></trkpt><trkpt lat="45.538989101109124" lon="10.83253070206237"><ele>296.0</ele><time>2026-04-26T10:07:14Z</time></trkpt><trkpt lat="45.53913292843993" lon="10.832634087832542"><ele>300.5</ele><time>2026-04-26T10:07:15Z</time></trkpt><trkpt lat="45.53926072138536" lon="10.832768503780077"><ele>305.0</ele><time>2026-04-26T10:07:16Z</time></trkpt><trkpt lat="45.53936615189269" lon="10.83289197876971"><ele>309.5</ele><time>2026-04-26T10:07:17Z</time></trkpt><trkpt lat="45.53943877801655" lon="10.833017942013111"><ele>314.0</ele><time>2026-04-26T10:07:18Z</time></trkpt><trkpt lat="45.5394927643939" lon="10.83317258187703"><ele>314.0</ele><time>2026-04-26T10:07:19Z</time></trkpt><trkpt lat="45.53952883556548" lon="10.833359909974826"><ele>314.0</ele><time>2026-04-26T10:07:20Z</time></trkpt><trkpt lat="45.539576993886136" lon="10.833543395136703"><ele>314.0</ele><time>2026-04-26T10:07:21Z</time></trkpt><trkpt lat="45.5396572504481" lon="10.833687505443281"><ele>314.0</ele><time>2026-04-26T10:07:22Z</time></trkpt><trkpt lat="45.53977346155646" lon="10.8337834656042"><ele>315.0</ele><time>2026-04-26T10:07:23Z</time></trkpt><trkpt lat="45.539910295671525" lon="10.833844890947471"><ele>316.0</ele><time>2026-04-26T10:07:24Z</time></trkpt><trkpt lat="45.54006074396138" lon="10.833879958922887"><ele>317.0</ele><time>2026-04-26T10:07:25Z</time></trkpt><trkpt lat="45.54022200380811" lon="10.833883253431184"><ele>318.6666666666667</ele><time>2026-04-26T10:07:26Z</time></trkpt><trkpt lat="45.540384112232005" lon="10.833884347407006"><ele>320.3333333333333</ele><time>2026-04-26T10:07:27Z</time></trkpt><trkpt lat="45.54057505407779" lon="10.833891324558262"><ele>322.0</ele><time>2026-04-26T10:07:28Z</time></trkpt><trkpt lat="45.54074565820173" lon="10.833908274259711"><ele>322.0</ele><time>2026-04-26T10:07:29Z</time></trkpt><trkpt lat="45.54092247942726" lon="10.833930412556018"><ele>322.0</ele><time>2026-04-26T10:07:30Z</time></trkpt><trkpt lat="45.54109593927608" lon="10.833956977353067"><ele>322.0</ele><time>2026-04-26T10:07:31Z</time></trkpt><trkpt lat="45.54126821469948" lon="10.833971779680862"><ele>322.5</ele><time>2026-04-26T10:07:32Z</time></trkpt><trkpt lat="45.5414301500146" lon="10.833972138976375"><ele>323.0</ele><time>2026-04-26T10:07:33Z</time></trkpt><trkpt lat="45.54157510102998" lon="10.833977379531984"><ele>323.5</ele><time>2026-04-26T10:07:34Z</time></trkpt><trkpt lat="45.54171102172552" lon="10.833973731528063"><ele>324.0</ele><time>2026-04-26T10:07:35Z</time></trkpt><trkpt lat="45.54183484029983" lon="10.834018134451831"><ele>324.0</ele><time>2026-04-26T10:07:36Z</time></trkpt><trkpt lat="45.54195592139288" lon="10.834097316600264"><ele>324.0</ele><time>2026-04-26T10:07:37Z</time></trkpt><trkpt lat="45.54207698752725" lon="10.834227222788211"><ele>324.0</ele><time>2026-04-26T10:07:38Z</time></trkpt><trkpt lat="45.54219759381018" lon="10.834364258068149"><ele>324.0</ele><time>2026-04-26T10:07:39Z</time></trkpt><trkpt lat="45.54233548150195" lon="10.834484545966607"><ele>327.0</ele><time>2026-04-26T10:07:40Z</time></trkpt><trkpt lat="45.542488169647505" lon="10.834572203699782"><ele>330.0</ele><time>2026-04-26T10:07:41Z</time></trkpt><trkpt lat="45.54265604240079" lon="10.83462846209351"><ele>333.0</ele><time>2026-04-26T10:07:42Z</time></trkpt><trkpt lat="45.542815591035854" lon="10.83467864379"><ele>332.6666666666667</ele><time>2026-04-26T10:07:43Z</time></trkpt><trkpt lat="45.54298784254494" lon="10.834728364498833"><ele>332.33333333333337</ele><time>2026-04-26T10:07:44Z</time></trkpt><trkpt lat="45.543163430356834" lon="10.834764501789882"><ele>332.0</ele><time>2026-04-26T10:07:45Z</time></trkpt><trkpt lat="45.54334686503281" lon="10.83478766978294"><ele>332.0</ele><time>2026-04-26T10:07:46Z</time></trkpt><trkpt lat="45.54353832320656" lon="10.834800120503221"><ele>332.0</ele><time>2026-04-26T10:07:47Z</time></trkpt><trkpt lat="45.54370949625393" lon="10.834813561223646"><ele>332.0</ele><time>2026-04-26T10:07:48Z</time></trkpt><trkpt lat="45.54388764809438" lon="10.834813055502186"><ele>333.33333333333337</ele><time>2026-04-26T10:07:49Z</time></trkpt><trkpt lat="45.54406458673963" lon="10.834798967117603"><ele>334.6666666666667</ele><time>2026-04-26T10:07:50Z</time></trkpt><trkpt lat="45.544233690525004" lon="10.834783816660831"><ele>336.0</ele><time>2026-04-26T10:07:51Z</time></trkpt><trkpt lat="45.54436826879428" lon="10.834781837710139"><ele>336.0</ele><time>2026-04-26T10:07:52Z</time></trkpt><trkpt lat="45.54451170547861" lon="10.834800732529365"><ele>336.0</ele><time>2026-04-26T10:07:53Z</time></trkpt><trkpt lat="45.544663501015656" lon="10.83483539977002"><ele>336.0</ele><time>2026-04-26T10:07:54Z</time></trkpt><trkpt lat="45.54481794065685" lon="10.834888019565925"><ele>335.6666666666667</ele><time>2026-04-26T10:07:55Z</time></trkpt><trkpt lat="45.54494808988324" lon="10.83499551838672"><ele>335.33333333333337</ele><time>2026-04-26T10:07:56Z</time></trkpt><trkpt lat="45.54506653330049" lon="10.835114919702331"><ele>335.0</ele><time>2026-04-26T10:07:57Z</time></trkpt><trkpt lat="45.54519184571255" lon="10.835249009398973"><ele>336.6666666666667</ele><time>2026-04-26T10:07:58Z</time></trkpt><trkpt lat="45.54530034719325" lon="10.835424136917771"><ele>338.3333333333333</ele><time>2026-04-26T10:07:59Z</time></trkpt><trkpt lat="45.54539985051318" lon="10.83561157662431"><ele>340.0</ele><time>2026-04-26T10:08:00Z</time></trkpt><trkpt lat="45.54546548739716" lon="10.83577851932191"><ele>340.0</ele><time>2026-04-26T10:08:01Z</time></trkpt><trkpt lat="45.54549910634463" lon="10.835928734935584"><ele>340.0</ele><time>2026-04-26T10:08:02Z</time></trkpt><trkpt lat="45.545501928918355" lon="10.836085137494917"><ele>340.0</ele><time>2026-04-26T10:08:03Z</time></trkpt><trkpt lat="45.54547072384296" lon="10.836243162484111"><ele>340.0</ele><time>2026-04-26T10:08:04Z</time></trkpt><trkpt lat="45.54541056005292" lon="10.836383725903467"><ele>340.66666666666663</ele><time>2026-04-26T10:08:05Z</time></trkpt><trkpt lat="45.54535010170411" lon="10.836470573383853"><ele>341.3333333333333</ele><time>2026-04-26T10:08:06Z</time></trkpt><trkpt lat="45.5452921483249" lon="10.836514418455161"><ele>342.0</ele><time>2026-04-26T10:08:07Z</time></trkpt><trkpt lat="45.54521881598687" lon="10.836563381647986"><ele>342.6666666666667</ele><time>2026-04-26T10:08:09Z</time></trkpt><trkpt lat="45.54532033027565" lon="10.836576985318402"><ele>343.33333333333337</ele><time>2026-04-26T10:08:13Z</time></trkpt><trkpt lat="45.54539237433367" lon="10.836474206794916"><ele>344.0</ele><time>2026-04-26T10:08:14Z</time></trkpt><trkpt lat="45.54545768663709" lon="10.836353942085838"><ele>344.0</ele><time>2026-04-26T10:08:15Z</time></trkpt><trkpt lat="45.54550982556806" lon="10.836230206669253"><ele>344.0</ele><time>2026-04-26T10:08:16Z</time></trkpt><trkpt lat="45.545528505532644" lon="10.836116209506041"><ele>344.0</ele><time>2026-04-26T10:08:17Z</time></trkpt><trkpt lat="45.54552323174539" lon="10.835991296921254"><ele>344.0</ele><time>2026-04-26T10:08:18Z</time></trkpt><trkpt lat="45.545510309935786" lon="10.835836641135826"><ele>344.0</ele><time>2026-04-26T10:08:19Z</time></trkpt><trkpt lat="45.54547275925052" lon="10.835687775787454"><ele>344.5</ele><time>2026-04-26T10:08:20Z</time></trkpt><trkpt lat="45.54541233421829" lon="10.835548389957912"><ele>345.0</ele><time>2026-04-26T10:08:21Z</time></trkpt><trkpt lat="45.545330428100236" lon="10.835416533618186"><ele>345.5</ele><time>2026-04-26T10:08:22Z</time></trkpt><trkpt lat="45.545247239065624" lon="10.835279684139278"><ele>346.0</ele><time>2026-04-26T10:08:23Z</time></trkpt><trkpt lat="45.54515405534631" lon="10.835143979559078"><ele>343.25</ele><time>2026-04-26T10:08:24Z</time></trkpt><trkpt lat="45.54505370365965" lon="10.83502662438712"><ele>340.5</ele><time>2026-04-26T10:08:25Z</time></trkpt><trkpt lat="45.544952649311185" lon="10.83493883895829"><ele>337.75</ele><time>2026-04-26T10:08:26Z</time></trkpt><trkpt lat="45.5448512650239" lon="10.834872872818517"><ele>335.0</ele><time>2026-04-26T10:08:27Z</time></trkpt><trkpt lat="45.54474303398675" lon="10.834816572068622"><ele>335.0</ele><time>2026-04-26T10:08:28Z</time></trkpt><trkpt lat="45.54463067659186" lon="10.83478430658056"><ele>335.0</ele><time>2026-04-26T10:08:29Z</time></trkpt><trkpt lat="45.5445223479127" lon="10.83476728312831"><ele>335.0</ele><time>2026-04-26T10:08:30Z</time></trkpt><trkpt lat="45.544431788844655" lon="10.834762303394635"><ele>335.0</ele><time>2026-04-26T10:08:31Z</time></trkpt><trkpt lat="45.54434569119701" lon="10.83472578222237"><ele>335.0</ele><time>2026-04-26T10:08:33Z</time></trkpt><trkpt lat="45.54440663906621" lon="10.834681048651134"><ele>335.0</ele><time>2026-04-26T10:08:37Z</time></trkpt><trkpt lat="45.544517526241215" lon="10.83470257210085"><ele>335.0</ele><time>2026-04-26T10:08:39Z</time></trkpt><trkpt lat="45.5446169603781" lon="10.834724709038511"><ele>335.0</ele><time>2026-04-26T10:08:41Z</time></trkpt><trkpt lat="45.54467898552472" lon="10.834740588599207"><ele>335.0</ele><time>2026-04-26T10:08:43Z</time></trkpt><trkpt lat="45.544789762977445" lon="10.83477846432826"><ele>335.0</ele><time>2026-04-26T10:08:45Z</time></trkpt><trkpt lat="45.54487294112404" lon="10.834819795052594"><ele>335.0</ele><time>2026-04-26T10:08:46Z</time></trkpt><trkpt lat="45.54498273493976" lon="10.834808778653263"><ele>335.0</ele><time>2026-04-26T10:08:47Z</time></trkpt><trkpt lat="45.54509395762405" lon="10.834875871376687"><ele>335.0</ele><time>2026-04-26T10:08:48Z</time></trkpt><trkpt lat="45.54520041226018" lon="10.834935349669092"><ele>335.0</ele><time>2026-04-26T10:08:49Z</time></trkpt><trkpt lat="45.545312975380426" lon="10.834996020286049"><ele>336.25</ele><time>2026-04-26T10:08:50Z</time></trkpt><trkpt lat="45.5453996493306" lon="10.835061679335269"><ele>337.5</ele><time>2026-04-26T10:08:51Z</time></trkpt><trkpt lat="45.54549981723629" lon="10.83514381335854"><ele>338.75</ele><time>2026-04-26T10:08:52Z</time></trkpt><trkpt lat="45.545593168539455" lon="10.835240642174199"><ele>340.0</ele><time>2026-04-26T10:08:53Z</time></trkpt><trkpt lat="45.545696292178995" lon="10.835349812688388"><ele>340.0</ele><time>2026-04-26T10:08:54Z</time></trkpt><trkpt lat="45.54578749945021" lon="10.835443503945662"><ele>340.0</ele><time>2026-04-26T10:08:55Z</time></trkpt><trkpt lat="45.54589202421607" lon="10.835519754214987"><ele>340.0</ele><time>2026-04-26T10:08:56Z</time></trkpt><trkpt lat="45.54599931113392" lon="10.835582561663847"><ele>340.0</ele><time>2026-04-26T10:08:57Z</time></trkpt><trkpt lat="45.54612103887342" lon="10.835635660889068"><ele>338.0</ele><time>2026-04-26T10:08:58Z</time></trkpt><trkpt lat="45.54624969392364" lon="10.835669612889005"><ele>336.0</ele><time>2026-04-26T10:08:59Z</time></trkpt><trkpt lat="45.54638322460977" lon="10.835705120449823"><ele>334.0</ele><time>2026-04-26T10:09:00Z</time></trkpt><trkpt lat="45.546521019638924" lon="10.835733808731602"><ele>332.0</ele><time>2026-04-26T10:09:01Z</time></trkpt><trkpt lat="45.546638795352145" lon="10.835774043523648"><ele>332.0</ele><time>2026-04-26T10:09:02Z</time></trkpt><trkpt lat="45.5467522083321" lon="10.835820469604231"><ele>332.0</ele><time>2026-04-26T10:09:03Z</time></trkpt><trkpt lat="45.54686291661962" lon="10.835865130336948"><ele>332.0</ele><time>2026-04-26T10:09:04Z</time></trkpt><trkpt lat="45.54697683710115" lon="10.835915216231468"><ele>332.0</ele><time>2026-04-26T10:09:05Z</time></trkpt><trkpt lat="45.547107119904965" lon="10.83596916025558"><ele>332.5</ele><time>2026-04-26T10:09:06Z</time></trkpt><trkpt lat="45.54725033146453" lon="10.836015351869277"><ele>333.0</ele><time>2026-04-26T10:09:07Z</time></trkpt><trkpt lat="45.54738938503649" lon="10.836054412073912"><ele>333.5</ele><time>2026-04-26T10:09:08Z</time></trkpt><trkpt lat="45.547515362338444" lon="10.836086665114285"><ele>334.0</ele><time>2026-04-26T10:09:09Z</time></trkpt><trkpt lat="45.5476401291276" lon="10.836103006978298"><ele>334.0</ele><time>2026-04-26T10:09:10Z</time></trkpt><trkpt lat="45.54775002022507" lon="10.836112417429643"><ele>334.0</ele><time>2026-04-26T10:09:11Z</time></trkpt><trkpt lat="45.54784421066981" lon="10.836121075995974"><ele>334.0</ele><time>2026-04-26T10:09:12Z</time></trkpt><trkpt lat="45.54792056868047" lon="10.836129132220778"><ele>334.0</ele><time>2026-04-26T10:09:13Z</time></trkpt><trkpt lat="45.54801818762877" lon="10.836182129330178"><ele>334.0</ele><time>2026-04-26T10:09:15Z</time></trkpt><trkpt lat="45.54809159499784" lon="10.836247046926031"><ele>333.4</ele><time>2026-04-26T10:09:16Z</time></trkpt><trkpt lat="45.54818977638671" lon="10.8363440255383"><ele>332.79999999999995</ele><time>2026-04-26T10:09:17Z</time></trkpt><trkpt lat="45.54827124775202" lon="10.83644216443177"><ele>332.20000000000005</ele><time>2026-04-26T10:09:18Z</time></trkpt><trkpt lat="45.54832546188067" lon="10.836530381199035"><ele>331.6</ele><time>2026-04-26T10:09:19Z</time></trkpt><trkpt lat="45.54836229219311" lon="10.836638717820842"><ele>331.0</ele><time>2026-04-26T10:09:20Z</time></trkpt><trkpt lat="45.548385818799545" lon="10.836749690988592"><ele>332.3333333333333</ele><time>2026-04-26T10:09:21Z</time></trkpt><trkpt lat="45.54841774481842" lon="10.836837306553685"><ele>333.66666666666663</ele><time>2026-04-26T10:09:22Z</time></trkpt><trkpt lat="45.548467989013716" lon="10.836913983422289"><ele>335.0</ele><time>2026-04-26T10:09:23Z</time></trkpt><trkpt lat="45.54852844004618" lon="10.836963033774168"><ele>336.3333333333333</ele><time>2026-04-26T10:09:24Z</time></trkpt><trkpt lat="45.54860941003085" lon="10.836931502733037"><ele>337.6666666666667</ele><time>2026-04-26T10:09:26Z</time></trkpt><trkpt lat="45.548662133513126" lon="10.836878486524663"><ele>339.0</ele><time>2026-04-26T10:09:33Z</time></trkpt><trkpt lat="45.54874849511158" lon="10.836807980787194"><ele>338.2</ele><time>2026-04-26T10:09:35Z</time></trkpt><trkpt lat="45.54879003608213" lon="10.836715688184867"><ele>337.4</ele><time>2026-04-26T10:09:36Z</time></trkpt><trkpt lat="45.54881876741287" lon="10.836632375302514"><ele>336.6</ele><time>2026-04-26T10:09:37Z</time></trkpt><trkpt lat="45.548871134695" lon="10.836525558294545"><ele>335.8</ele><time>2026-04-26T10:09:38Z</time></trkpt><trkpt lat="45.548926146774825" lon="10.836421849877121"><ele>335.0</ele><time>2026-04-26T10:09:39Z</time></trkpt><trkpt lat="45.54900583926019" lon="10.836261013023094"><ele>335.0</ele><time>2026-04-26T10:09:40Z</time></trkpt><trkpt lat="45.549105189325125" lon="10.836081267223516"><ele>335.0</ele><time>2026-04-26T10:09:41Z</time></trkpt><trkpt lat="45.54917306296109" lon="10.835931566269265"><ele>335.0</ele><time>2026-04-26T10:09:42Z</time></trkpt><trkpt lat="45.54922661425915" lon="10.835826782936211"><ele>335.0</ele><time>2026-04-26T10:09:43Z</time></trkpt><trkpt lat="45.54929931689605" lon="10.83572780415796"><ele>334.4</ele><time>2026-04-26T10:09:44Z</time></trkpt><trkpt lat="45.54938534199886" lon="10.835618157248916"><ele>333.8</ele><time>2026-04-26T10:09:45Z</time></trkpt><trkpt lat="45.54946261545964" lon="10.83550472572518"><ele>333.20000000000005</ele><time>2026-04-26T10:09:46Z</time></trkpt><trkpt lat="45.549530559639685" lon="10.835408904681067"><ele>332.6</ele><time>2026-04-26T10:09:47Z</time></trkpt><trkpt lat="45.549590971497636" lon="10.8353318420872"><ele>332.0</ele><time>2026-04-26T10:09:48Z</time></trkpt><trkpt lat="45.549650877576724" lon="10.835276310332418"><ele>332.0</ele><time>2026-04-26T10:09:49Z</time></trkpt><trkpt lat="45.54971463594901" lon="10.835225448161045"><ele>332.0</ele><time>2026-04-26T10:09:50Z</time></trkpt><trkpt lat="45.54977508247604" lon="10.835165459524594"><ele>332.0</ele><time>2026-04-26T10:09:51Z</time></trkpt><trkpt lat="45.54982937733419" lon="10.835104990684322"><ele>332.0</ele><time>2026-04-26T10:09:52Z</time></trkpt><trkpt lat="45.54988232302202" lon="10.835054652681615"><ele>332.0</ele><time>2026-04-26T10:09:53Z</time></trkpt><trkpt lat="45.54994637346718" lon="10.835001381787787"><ele>332.0</ele><time>2026-04-26T10:09:54Z</time></trkpt><trkpt lat="45.55007115597269" lon="10.834964152781792"><ele>332.0</ele><time>2026-04-26T10:09:56Z</time></trkpt><trkpt lat="45.55014982293" lon="10.834981619006482"><ele>332.0</ele><time>2026-04-26T10:09:57Z</time></trkpt><trkpt lat="45.550233130020175" lon="10.835017673483314"><ele>332.0</ele><time>2026-04-26T10:09:58Z</time></trkpt><trkpt lat="45.55029738507181" lon="10.835066251209804"><ele>332.0</ele><time>2026-04-26T10:09:59Z</time></trkpt><trkpt lat="45.5503641321258" lon="10.835125415316103"><ele>332.0</ele><time>2026-04-26T10:10:00Z</time></trkpt><trkpt lat="45.55045060047177" lon="10.835176371514487"><ele>332.0</ele><time>2026-04-26T10:10:01Z</time></trkpt><trkpt lat="45.55057062101948" lon="10.835248628107967"><ele>332.0</ele><time>2026-04-26T10:10:02Z</time></trkpt><trkpt lat="45.550667414999374" lon="10.835316824751718"><ele>332.0</ele><time>2026-04-26T10:10:03Z</time></trkpt><trkpt lat="45.5507768735377" lon="10.83539046240763"><ele>332.0</ele><time>2026-04-26T10:10:04Z</time></trkpt><trkpt lat="45.550886752995744" lon="10.835458547460487"><ele>332.0</ele><time>2026-04-26T10:10:05Z</time></trkpt><trkpt lat="45.55098820138688" lon="10.835521451735545"><ele>332.0</ele><time>2026-04-26T10:10:06Z</time></trkpt><trkpt lat="45.55108340152927" lon="10.8355736694641"><ele>332.0</ele><time>2026-04-26T10:10:07Z</time></trkpt><trkpt lat="45.5511839416953" lon="10.835616883159444"><ele>332.0</ele><time>2026-04-26T10:10:08Z</time></trkpt><trkpt lat="45.55128339859527" lon="10.835662056168571"><ele>332.0</ele><time>2026-04-26T10:10:09Z</time></trkpt><trkpt lat="45.55137269303102" lon="10.835722256125624"><ele>332.0</ele><time>2026-04-26T10:10:10Z</time></trkpt><trkpt lat="45.55144608100208" lon="10.835781072525426"><ele>331.20000000000005</ele><time>2026-04-26T10:10:11Z</time></trkpt><trkpt lat="45.55152739678124" lon="10.835821316915183"><ele>330.4</ele><time>2026-04-26T10:10:12Z</time></trkpt><trkpt lat="45.55162539070957" lon="10.835843971052816"><ele>329.6</ele><time>2026-04-26T10:10:13Z</time></trkpt><trkpt lat="45.55172966192456" lon="10.835837693092866"><ele>328.79999999999995</ele><time>2026-04-26T10:10:14Z</time></trkpt><trkpt lat="45.55186975415079" lon="10.835825723077114"><ele>328.0</ele><time>2026-04-26T10:10:15Z</time></trkpt><trkpt lat="45.551990149503695" lon="10.83582372663594"><ele>327.25</ele><time>2026-04-26T10:10:16Z</time></trkpt><trkpt lat="45.552102659127264" lon="10.835820099789878"><ele>326.5</ele><time>2026-04-26T10:10:17Z</time></trkpt><trkpt lat="45.55222461189763" lon="10.835815392772252"><ele>325.75</ele><time>2026-04-26T10:10:18Z</time></trkpt><trkpt lat="45.55236302655831" lon="10.835820789014473"><ele>325.0</ele><time>2026-04-26T10:10:19Z</time></trkpt><trkpt lat="45.55247553763618" lon="10.835833304615175"><ele>325.0</ele><time>2026-04-26T10:10:20Z</time></trkpt><trkpt lat="45.552577101851746" lon="10.835850407201768"><ele>325.0</ele><time>2026-04-26T10:10:21Z</time></trkpt><trkpt lat="45.55268973278598" lon="10.835864257743475"><ele>325.0</ele><time>2026-04-26T10:10:22Z</time></trkpt><trkpt lat="45.5527836098551" lon="10.835889210054022"><ele>325.0</ele><time>2026-04-26T10:10:23Z</time></trkpt><trkpt lat="45.552868622218895" lon="10.835905896015774"><ele>325.0</ele><time>2026-04-26T10:10:24Z</time></trkpt><trkpt lat="45.5529485812483" lon="10.835923994087114"><ele>324.4</ele><time>2026-04-26T10:10:25Z</time></trkpt><trkpt lat="45.553033822379156" lon="10.83595744356389"><ele>323.8</ele><time>2026-04-26T10:10:26Z</time></trkpt><trkpt lat="45.553135038348294" lon="10.836009874394355"><ele>323.20000000000005</ele><time>2026-04-26T10:10:27Z</time></trkpt><trkpt lat="45.553229117728996" lon="10.836081227168284"><ele>322.6</ele><time>2026-04-26T10:10:28Z</time></trkpt><trkpt lat="45.55333514213912" lon="10.83614517501213"><ele>322.0</ele><time>2026-04-26T10:10:29Z</time></trkpt><trkpt lat="45.553457027606576" lon="10.836211883800246"><ele>323.40000000000003</ele><time>2026-04-26T10:10:30Z</time></trkpt><trkpt lat="45.55356096163019" lon="10.83628411765181"><ele>324.8</ele><time>2026-04-26T10:10:31Z</time></trkpt><trkpt lat="45.55364979927829" lon="10.836344712380782"><ele>326.2</ele><time>2026-04-26T10:10:32Z</time></trkpt><trkpt lat="45.55372891706163" lon="10.836387388482486"><ele>327.6</ele><time>2026-04-26T10:10:33Z</time></trkpt><trkpt lat="45.553809626938396" lon="10.836415883776866"><ele>329.0</ele><time>2026-04-26T10:10:34Z</time></trkpt><trkpt lat="45.55390240902843" lon="10.836437573006807"><ele>329.0</ele><time>2026-04-26T10:10:35Z</time></trkpt><trkpt lat="45.55401964288995" lon="10.836449415739677"><ele>329.0</ele><time>2026-04-26T10:10:36Z</time></trkpt><trkpt lat="45.55412992403152" lon="10.836443223108573"><ele>329.0</ele><time>2026-04-26T10:10:37Z</time></trkpt><trkpt lat="45.55421359150684" lon="10.836428038718138"><ele>329.0</ele><time>2026-04-26T10:10:38Z</time></trkpt><trkpt lat="45.5542873928122" lon="10.836421718377544"><ele>329.0</ele><time>2026-04-26T10:10:39Z</time></trkpt><trkpt lat="45.55436798724423" lon="10.83642611004598"><ele>329.0</ele><time>2026-04-26T10:10:40Z</time></trkpt><trkpt lat="45.554453794018805" lon="10.836444597764684"><ele>329.0</ele><time>2026-04-26T10:10:41Z</time></trkpt><trkpt lat="45.554550067647554" lon="10.836477908088545"><ele>329.0</ele><time>2026-04-26T10:10:42Z</time></trkpt><trkpt lat="45.5546330885132" lon="10.836534441232416"><ele>329.0</ele><time>2026-04-26T10:10:43Z</time></trkpt><trkpt lat="45.55472505412112" lon="10.836605851457502"><ele>329.0</ele><time>2026-04-26T10:10:44Z</time></trkpt><trkpt lat="45.55482188705623" lon="10.836676914266977"><ele>328.79999999999995</ele><time>2026-04-26T10:10:45Z</time></trkpt><trkpt lat="45.55490763836769" lon="10.836751543677247"><ele>328.59999999999997</ele><time>2026-04-26T10:10:46Z</time></trkpt><trkpt lat="45.55497932893759" lon="10.836825590113111"><ele>328.4</ele><time>2026-04-26T10:10:47Z</time></trkpt><trkpt lat="45.555050689994594" lon="10.836896343118786"><ele>328.2</ele><time>2026-04-26T10:10:48Z</time></trkpt><trkpt lat="45.5551262424276" lon="10.836983970638476"><ele>328.0</ele><time>2026-04-26T10:10:49Z</time></trkpt><trkpt lat="45.55519056540489" lon="10.837053357339396"><ele>328.0</ele><time>2026-04-26T10:10:50Z</time></trkpt><trkpt lat="45.55526178780449" lon="10.837124472393969"><ele>328.0</ele><time>2026-04-26T10:10:51Z</time></trkpt><trkpt lat="45.55532371294505" lon="10.83720708098235"><ele>328.0</ele><time>2026-04-26T10:10:52Z</time></trkpt><trkpt lat="45.55537867775775" lon="10.837317108185008"><ele>328.0</ele><time>2026-04-26T10:10:53Z</time></trkpt><trkpt lat="45.55542277662403" lon="10.837439617628636"><ele>328.0</ele><time>2026-04-26T10:10:54Z</time></trkpt><trkpt lat="45.55546142342829" lon="10.837581149620242"><ele>326.16666666666663</ele><time>2026-04-26T10:10:55Z</time></trkpt><trkpt lat="45.55548451246907" lon="10.837699358828461"><ele>324.3333333333333</ele><time>2026-04-26T10:10:56Z</time></trkpt><trkpt lat="45.55549009526775" lon="10.837825352417479"><ele>322.5</ele><time>2026-04-26T10:10:57Z</time></trkpt><trkpt lat="45.55548226136638" lon="10.83795749685308"><ele>320.6666666666667</ele><time>2026-04-26T10:10:58Z</time></trkpt><trkpt lat="45.55546887815815" lon="10.838072291843341"><ele>318.83333333333337</ele><time>2026-04-26T10:10:59Z</time></trkpt><trkpt lat="45.55544431589343" lon="10.838159685108462"><ele>317.0</ele><time>2026-04-26T10:11:00Z</time></trkpt><trkpt lat="45.555407636610546" lon="10.83828518680823"><ele>320.4</ele><time>2026-04-26T10:11:01Z</time></trkpt><trkpt lat="45.55536361305633" lon="10.838441040189112"><ele>323.79999999999995</ele><time>2026-04-26T10:11:02Z</time></trkpt><trkpt lat="45.555320373989716" lon="10.83853315971124"><ele>327.2</ele><time>2026-04-26T10:11:03Z</time></trkpt><trkpt lat="45.555282284896364" lon="10.83861704661895"><ele>330.59999999999997</ele><time>2026-04-26T10:11:04Z</time></trkpt><trkpt lat="45.55523889368805" lon="10.83876727811225"><ele>334.0</ele><time>2026-04-26T10:11:06Z</time></trkpt><trkpt lat="45.555267664174785" lon="10.838890348885883"><ele>333.4</ele><time>2026-04-26T10:11:08Z</time></trkpt><trkpt lat="45.555389368131344" lon="10.83889460394884"><ele>332.79999999999995</ele><time>2026-04-26T10:11:10Z</time></trkpt><trkpt lat="45.55547152192512" lon="10.838858608125221"><ele>332.20000000000005</ele><time>2026-04-26T10:11:11Z</time></trkpt><trkpt lat="45.55552951696435" lon="10.838798194110144"><ele>331.6</ele><time>2026-04-26T10:11:12Z</time></trkpt><trkpt lat="45.555589051872374" lon="10.838749142280962"><ele>331.0</ele><time>2026-04-26T10:11:13Z</time></trkpt><trkpt lat="45.55567777546333" lon="10.838678961143122"><ele>331.0</ele><time>2026-04-26T10:11:14Z</time></trkpt><trkpt lat="45.55575162402371" lon="10.838640366594822"><ele>331.0</ele><time>2026-04-26T10:11:15Z</time></trkpt><trkpt lat="45.55583559905492" lon="10.838633302849741"><ele>331.0</ele><time>2026-04-26T10:11:16Z</time></trkpt><trkpt lat="45.555925997639946" lon="10.838644484878573"><ele>331.0</ele><time>2026-04-26T10:11:17Z</time></trkpt><trkpt lat="45.556018494957264" lon="10.838675388547214"><ele>331.0</ele><time>2026-04-26T10:11:18Z</time></trkpt><trkpt lat="45.55608005639504" lon="10.838728265625763"><ele>331.0</ele><time>2026-04-26T10:11:19Z</time></trkpt><trkpt lat="45.556137355165525" lon="10.838829473908786"><ele>331.0</ele><time>2026-04-26T10:11:20Z</time></trkpt><trkpt lat="45.55620200087066" lon="10.838950683454593"><ele>331.0</ele><time>2026-04-26T10:11:21Z</time></trkpt><trkpt lat="45.556252207544674" lon="10.839071981160256"><ele>331.0</ele><time>2026-04-26T10:11:22Z</time></trkpt><trkpt lat="45.556295858249754" lon="10.839191594364854"><ele>331.0</ele><time>2026-04-26T10:11:23Z</time></trkpt><trkpt lat="45.556325033847" lon="10.83930517540451"><ele>331.0</ele><time>2026-04-26T10:11:24Z</time></trkpt><trkpt lat="45.556332869048" lon="10.839402792553477"><ele>331.0</ele><time>2026-04-26T10:11:25Z</time></trkpt><trkpt lat="45.55633476027241" lon="10.839544044266926"><ele>331.0</ele><time>2026-04-26T10:11:26Z</time></trkpt><trkpt lat="45.55633664260739" lon="10.839651027121464"><ele>331.0</ele><time>2026-04-26T10:11:27Z</time></trkpt><trkpt lat="45.55639636185123" lon="10.839733071723463"><ele>331.0</ele><time>2026-04-26T10:11:29Z</time></trkpt><trkpt lat="45.556460245639975" lon="10.83970990433543"><ele>331.0</ele><time>2026-04-26T10:11:30Z</time></trkpt><trkpt lat="45.556545956566914" lon="10.83964360479505"><ele>331.0</ele><time>2026-04-26T10:11:31Z</time></trkpt><trkpt lat="45.55662490780687" lon="10.839576797834386"><ele>331.0</ele><time>2026-04-26T10:11:32Z</time></trkpt><trkpt lat="45.55669497071397" lon="10.839574446095359"><ele>331.0</ele><time>2026-04-26T10:11:33Z</time></trkpt><trkpt lat="45.556809105120585" lon="10.839673121660171"><ele>331.0</ele><time>2026-04-26T10:11:35Z</time></trkpt><trkpt lat="45.5568618289821" lon="10.839752843084549"><ele>331.0</ele><time>2026-04-26T10:11:36Z</time></trkpt><trkpt lat="45.55690840250993" lon="10.839859128282326"><ele>331.0</ele><time>2026-04-26T10:11:37Z</time></trkpt><trkpt lat="45.5569637091644" lon="10.839992894345576"><ele>331.0</ele><time>2026-04-26T10:11:38Z</time></trkpt><trkpt lat="45.55701467878007" lon="10.840120135330961"><ele>331.0</ele><time>2026-04-26T10:11:39Z</time></trkpt><trkpt lat="45.557078084527724" lon="10.840247894147144"><ele>331.0</ele><time>2026-04-26T10:11:40Z</time></trkpt><trkpt lat="45.557150510270816" lon="10.84037330372116"><ele>331.0</ele><time>2026-04-26T10:11:41Z</time></trkpt><trkpt lat="45.55722820789446" lon="10.840455203069098"><ele>331.0</ele><time>2026-04-26T10:11:42Z</time></trkpt><trkpt lat="45.557324292501214" lon="10.840545578465967"><ele>332.6</ele><time>2026-04-26T10:11:43Z</time></trkpt><trkpt lat="45.55743121943604" lon="10.840642438774427"><ele>334.20000000000005</ele><time>2026-04-26T10:11:44Z</time></trkpt><trkpt lat="45.55752729972224" lon="10.840728936237067"><ele>335.79999999999995</ele><time>2026-04-26T10:11:45Z</time></trkpt><trkpt lat="45.55759115658152" lon="10.84079148723167"><ele>337.4</ele><time>2026-04-26T10:11:46Z</time></trkpt><trkpt lat="45.55767274932068" lon="10.840826929061457"><ele>339.0</ele><time>2026-04-26T10:11:48Z</time></trkpt><trkpt lat="45.557720234063616" lon="10.840697403550935"><ele>339.0</ele><time>2026-04-26T10:11:50Z</time></trkpt><trkpt lat="45.55770063695777" lon="10.840603285460794"><ele>339.0</ele><time>2026-04-26T10:11:51Z</time></trkpt><trkpt lat="45.55765095770046" lon="10.840489900877579"><ele>339.0</ele><time>2026-04-26T10:11:52Z</time></trkpt><trkpt lat="45.55760837507969" lon="10.84040730397872"><ele>339.0</ele><time>2026-04-26T10:11:53Z</time></trkpt><trkpt lat="45.55755753286573" lon="10.840323090180329"><ele>339.0</ele><time>2026-04-26T10:11:54Z</time></trkpt><trkpt lat="45.55752655239565" lon="10.840224025859673"><ele>339.0</ele><time>2026-04-26T10:11:55Z</time></trkpt><trkpt lat="45.557504452696215" lon="10.840127518760953"><ele>337.0</ele><time>2026-04-26T10:11:56Z</time></trkpt><trkpt lat="45.557487080344984" lon="10.840009399164394"><ele>335.0</ele><time>2026-04-26T10:11:57Z</time></trkpt><trkpt lat="45.557480002167175" lon="10.839919992859626"><ele>333.0</ele><time>2026-04-26T10:11:58Z</time></trkpt><trkpt lat="45.55745693926879" lon="10.839802322307863"><ele>331.0</ele><time>2026-04-26T10:11:59Z</time></trkpt><trkpt lat="45.557455489742274" lon="10.839676104276501"><ele>329.0</ele><time>2026-04-26T10:12:00Z</time></trkpt><trkpt lat="45.55745111858866" lon="10.839539811398444"><ele>327.0</ele><time>2026-04-26T10:12:01Z</time></trkpt><trkpt lat="45.55743735493132" lon="10.839367245223439"><ele>326.25</ele><time>2026-04-26T10:12:02Z</time></trkpt><trkpt lat="45.557421625971834" lon="10.839230185681952"><ele>325.5</ele><time>2026-04-26T10:12:03Z</time></trkpt><trkpt lat="45.557403527930795" lon="10.839068621581411"><ele>324.75</ele><time>2026-04-26T10:12:04Z</time></trkpt><trkpt lat="45.557363925884566" lon="10.838892016797596"><ele>324.0</ele><time>2026-04-26T10:12:05Z</time></trkpt><trkpt lat="45.55731684329762" lon="10.83872400297953"><ele>324.0</ele><time>2026-04-26T10:12:06Z</time></trkpt><trkpt lat="45.55727285509643" lon="10.8385897939047"><ele>324.0</ele><time>2026-04-26T10:12:07Z</time></trkpt><trkpt lat="45.5572441348512" lon="10.838462041384236"><ele>324.0</ele><time>2026-04-26T10:12:08Z</time></trkpt><trkpt lat="45.55723830824559" lon="10.838350436494348"><ele>324.0</ele><time>2026-04-26T10:12:09Z</time></trkpt><trkpt lat="45.55726138899111" lon="10.838242097981501"><ele>324.0</ele><time>2026-04-26T10:12:10Z</time></trkpt><trkpt lat="45.557300266891154" lon="10.838142814513079"><ele>324.0</ele><time>2026-04-26T10:12:11Z</time></trkpt><trkpt lat="45.557355176577964" lon="10.83800233701339"><ele>324.0</ele><time>2026-04-26T10:12:12Z</time></trkpt><trkpt lat="45.557417397228384" lon="10.837850020383339"><ele>324.0</ele><time>2026-04-26T10:12:13Z</time></trkpt><trkpt lat="45.55747761477848" lon="10.83770087809599"><ele>324.0</ele><time>2026-04-26T10:12:14Z</time></trkpt><trkpt lat="45.557543487270536" lon="10.837563849303436"><ele>324.0</ele><time>2026-04-26T10:12:15Z</time></trkpt><trkpt lat="45.55762530590114" lon="10.83742500523475"><ele>323.4</ele><time>2026-04-26T10:12:16Z</time></trkpt><trkpt lat="45.55770130611395" lon="10.837300471554629"><ele>322.79999999999995</ele><time>2026-04-26T10:12:17Z</time></trkpt><trkpt lat="45.5577722178686" lon="10.837161495333852"><ele>322.20000000000005</ele><time>2026-04-26T10:12:18Z</time></trkpt><trkpt lat="45.55783211756975" lon="10.83702668227217"><ele>321.6</ele><time>2026-04-26T10:12:19Z</time></trkpt><trkpt lat="45.55788307334543" lon="10.83690906796515"><ele>321.0</ele><time>2026-04-26T10:12:20Z</time></trkpt><trkpt lat="45.55792875295487" lon="10.836766832057648"><ele>321.0</ele><time>2026-04-26T10:12:21Z</time></trkpt><trkpt lat="45.5579579629524" lon="10.836599859812452"><ele>321.0</ele><time>2026-04-26T10:12:22Z</time></trkpt><trkpt lat="45.55798892583886" lon="10.8364161077922"><ele>321.0</ele><time>2026-04-26T10:12:23Z</time></trkpt><trkpt lat="45.558031993138954" lon="10.836243947478804"><ele>321.0</ele><time>2026-04-26T10:12:24Z</time></trkpt><trkpt lat="45.55808098550495" lon="10.836109362160974"><ele>321.0</ele><time>2026-04-26T10:12:25Z</time></trkpt><trkpt lat="45.55814833893663" lon="10.835970804229943"><ele>321.0</ele><time>2026-04-26T10:12:26Z</time></trkpt><trkpt lat="45.55821950037523" lon="10.83580773613101"><ele>321.0</ele><time>2026-04-26T10:12:27Z</time></trkpt><trkpt lat="45.55828639640946" lon="10.835670263302115"><ele>321.0</ele><time>2026-04-26T10:12:28Z</time></trkpt><trkpt lat="45.558348658522334" lon="10.835585531920517"><ele>320.1666666666667</ele><time>2026-04-26T10:12:29Z</time></trkpt><trkpt lat="45.558410991036666" lon="10.83553323890158"><ele>319.3333333333333</ele><time>2026-04-26T10:12:30Z</time></trkpt><trkpt lat="45.55847659562199" lon="10.835496753083584"><ele>318.5</ele><time>2026-04-26T10:12:31Z</time></trkpt><trkpt lat="45.558559840577935" lon="10.835473143819726"><ele>317.66666666666663</ele><time>2026-04-26T10:12:32Z</time></trkpt><trkpt lat="45.558631997713455" lon="10.835475737157392"><ele>316.8333333333333</ele><time>2026-04-26T10:12:33Z</time></trkpt><trkpt lat="45.55870728380287" lon="10.835492736384742"><ele>316.0</ele><time>2026-04-26T10:12:34Z</time></trkpt><trkpt lat="45.55877912085523" lon="10.835540284988967"><ele>314.8</ele><time>2026-04-26T10:12:35Z</time></trkpt><trkpt lat="45.558825460724265" lon="10.835604238513755"><ele>313.6</ele><time>2026-04-26T10:12:36Z</time></trkpt><trkpt lat="45.5588651136266" lon="10.835675022708804"><ele>312.4</ele><time>2026-04-26T10:12:37Z</time></trkpt><trkpt lat="45.55891612416481" lon="10.835884395658615"><ele>311.2</ele><time>2026-04-26T10:12:39Z</time></trkpt><trkpt lat="45.558955948009725" lon="10.836057048761791"><ele>310.0</ele><time>2026-04-26T10:12:40Z</time></trkpt><trkpt lat="45.55897285550633" lon="10.836178435789918"><ele>312.16666666666663</ele><time>2026-04-26T10:12:41Z</time></trkpt><trkpt lat="45.559008796141384" lon="10.836268978699927"><ele>314.3333333333333</ele><time>2026-04-26T10:12:42Z</time></trkpt><trkpt lat="45.55906589269546" lon="10.836351265119355"><ele>316.5</ele><time>2026-04-26T10:12:43Z</time></trkpt><trkpt lat="45.55914099438214" lon="10.836410030168278"><ele>318.6666666666667</ele><time>2026-04-26T10:12:44Z</time></trkpt><trkpt lat="45.55921136413073" lon="10.836447660550427"><ele>320.83333333333337</ele><time>2026-04-26T10:12:45Z</time></trkpt><trkpt lat="45.55930040413315" lon="10.836480478351445"><ele>323.0</ele><time>2026-04-26T10:12:46Z</time></trkpt><trkpt lat="45.559386749054575" lon="10.83653171629114"><ele>323.0</ele><time>2026-04-26T10:12:47Z</time></trkpt><trkpt lat="45.559447238565035" lon="10.836607727860365"><ele>323.0</ele><time>2026-04-26T10:12:48Z</time></trkpt><trkpt lat="45.55950792913692" lon="10.83670562229031"><ele>323.0</ele><time>2026-04-26T10:12:49Z</time></trkpt><trkpt lat="45.559581345715955" lon="10.836803595118697"><ele>323.0</ele><time>2026-04-26T10:12:50Z</time></trkpt><trkpt lat="45.55966400206666" lon="10.836906727065207"><ele>323.0</ele><time>2026-04-26T10:12:51Z</time></trkpt><trkpt lat="45.55974822671744" lon="10.837002409465397"><ele>323.59999999999997</ele><time>2026-04-26T10:12:52Z</time></trkpt><trkpt lat="45.5598170395121" lon="10.837079392465784"><ele>324.2</ele><time>2026-04-26T10:12:53Z</time></trkpt><trkpt lat="45.55988901759459" lon="10.837159318428334"><ele>324.8</ele><time>2026-04-26T10:12:54Z</time></trkpt><trkpt lat="45.55995784188389" lon="10.837227239259967"><ele>325.4</ele><time>2026-04-26T10:12:55Z</time></trkpt><trkpt lat="45.56004339266809" lon="10.837274483760998"><ele>326.0</ele><time>2026-04-26T10:12:56Z</time></trkpt><trkpt lat="45.56014451262355" lon="10.837320194432305"><ele>326.0</ele><time>2026-04-26T10:12:57Z</time></trkpt><trkpt lat="45.560224886303764" lon="10.837382609794464"><ele>326.0</ele><time>2026-04-26T10:12:58Z</time></trkpt><trkpt lat="45.56031533434139" lon="10.837436054288755"><ele>326.0</ele><time>2026-04-26T10:12:59Z</time></trkpt><trkpt lat="45.56039236143522" lon="10.837484986157756"><ele>326.0</ele><time>2026-04-26T10:13:00Z</time></trkpt><trkpt lat="45.560478134049134" lon="10.837570601417964"><ele>326.0</ele><time>2026-04-26T10:13:02Z</time></trkpt><trkpt lat="45.560611707099326" lon="10.837624118655816"><ele>325.6666666666667</ele><time>2026-04-26T10:13:04Z</time></trkpt><trkpt lat="45.560705135243914" lon="10.837607413959539"><ele>325.33333333333337</ele><time>2026-04-26T10:13:05Z</time></trkpt><trkpt lat="45.56080516279273" lon="10.837581607924223"><ele>325.0</ele><time>2026-04-26T10:13:06Z</time></trkpt><trkpt lat="45.56088123907459" lon="10.837559798711377"><ele>324.6666666666667</ele><time>2026-04-26T10:13:07Z</time></trkpt><trkpt lat="45.56094204380106" lon="10.837525166309618"><ele>324.3333333333333</ele><time>2026-04-26T10:13:08Z</time></trkpt><trkpt lat="45.56100705455701" lon="10.837426275234138"><ele>324.0</ele><time>2026-04-26T10:13:10Z</time></trkpt><trkpt lat="45.56103774578932" lon="10.837274855579595"><ele>324.0</ele><time>2026-04-26T10:13:12Z</time></trkpt><trkpt lat="45.56102336671337" lon="10.837160181665002"><ele>324.0</ele><time>2026-04-26T10:13:13Z</time></trkpt><trkpt lat="45.56099761723819" lon="10.837042070027115"><ele>324.0</ele><time>2026-04-26T10:13:14Z</time></trkpt><trkpt lat="45.56096654910796" lon="10.836905626835563"><ele>324.0</ele><time>2026-04-26T10:13:15Z</time></trkpt><trkpt lat="45.56093879472304" lon="10.836750041631616"><ele>324.0</ele><time>2026-04-26T10:13:16Z</time></trkpt><trkpt lat="45.5609288390682" lon="10.83658517456308"><ele>323.5</ele><time>2026-04-26T10:13:17Z</time></trkpt><trkpt lat="45.56093291541066" lon="10.836445090330711"><ele>323.0</ele><time>2026-04-26T10:13:18Z</time></trkpt><trkpt lat="45.56095701344173" lon="10.836281573875446"><ele>322.5</ele><time>2026-04-26T10:13:20Z</time></trkpt><trkpt lat="45.56099100184979" lon="10.836199771068264"><ele>322.0</ele><time>2026-04-26T10:13:21Z</time></trkpt><trkpt lat="45.561043805679965" lon="10.836133423050805"><ele>321.5</ele><time>2026-04-26T10:13:22Z</time></trkpt><trkpt lat="45.56111052495678" lon="10.836039630370635"><ele>321.0</ele><time>2026-04-26T10:13:23Z</time></trkpt><trkpt lat="45.5611696870662" lon="10.83599176392162"><ele>321.6</ele><time>2026-04-26T10:13:24Z</time></trkpt><trkpt lat="45.56127683736156" lon="10.835968283329345"><ele>322.20000000000005</ele><time>2026-04-26T10:13:26Z</time></trkpt><trkpt lat="45.56136260329444" lon="10.836007970635043"><ele>322.79999999999995</ele><time>2026-04-26T10:13:28Z</time></trkpt><trkpt lat="45.56146301771292" lon="10.836054485980771"><ele>323.4</ele><time>2026-04-26T10:13:31Z</time></trkpt><trkpt lat="45.56155000284386" lon="10.83608857113888"><ele>324.0</ele><time>2026-04-26T10:13:33Z</time></trkpt><trkpt lat="45.56158456568147" lon="10.836186105824895"><ele>325.6</ele><time>2026-04-26T10:14:52Z</time></trkpt><trkpt lat="45.561552860935684" lon="10.836325021514194"><ele>327.2</ele><time>2026-04-26T10:14:54Z</time></trkpt><trkpt lat="45.561543288386694" lon="10.836465637456142"><ele>328.8</ele><time>2026-04-26T10:14:56Z</time></trkpt><trkpt lat="45.561543876861855" lon="10.83659128444196"><ele>330.40000000000003</ele><time>2026-04-26T10:14:58Z</time></trkpt><trkpt lat="45.56153690536943" lon="10.836771920338776"><ele>332.0</ele><time>2026-04-26T10:15:00Z</time></trkpt><trkpt lat="45.56153982139992" lon="10.83689974256066"><ele>332.6666666666667</ele><time>2026-04-26T10:15:02Z</time></trkpt><trkpt lat="45.56156450380333" lon="10.83699215254391"><ele>333.33333333333337</ele><time>2026-04-26T10:15:03Z</time></trkpt><trkpt lat="45.56159946514478" lon="10.837096300392638"><ele>334.0</ele><time>2026-04-26T10:15:04Z</time></trkpt><trkpt lat="45.56163190759072" lon="10.837187843882216"><ele>334.6666666666667</ele><time>2026-04-26T10:15:05Z</time></trkpt><trkpt lat="45.56166859809356" lon="10.83727147545879"><ele>335.3333333333333</ele><time>2026-04-26T10:15:06Z</time></trkpt><trkpt lat="45.5617139426538" lon="10.837367619814966"><ele>336.0</ele><time>2026-04-26T10:15:07Z</time></trkpt><trkpt lat="45.56175684939443" lon="10.83746094484175"><ele>336.0</ele><time>2026-04-26T10:15:08Z</time></trkpt><trkpt lat="45.56185277744051" lon="10.837583048517716"><ele>336.0</ele><time>2026-04-26T10:15:10Z</time></trkpt><trkpt lat="45.561921604859855" lon="10.837627983507279"><ele>336.0</ele><time>2026-04-26T10:15:11Z</time></trkpt><trkpt lat="45.56200521391072" lon="10.837666222209076"><ele>336.0</ele><time>2026-04-26T10:15:12Z</time></trkpt><trkpt lat="45.562129045073306" lon="10.837703186897622"><ele>336.0</ele><time>2026-04-26T10:15:13Z</time></trkpt><trkpt lat="45.56220023244493" lon="10.837752112022109"><ele>338.6666666666667</ele><time>2026-04-26T10:15:14Z</time></trkpt><trkpt lat="45.56225616174663" lon="10.837820508712044"><ele>341.3333333333333</ele><time>2026-04-26T10:15:15Z</time></trkpt><trkpt lat="45.562318127239166" lon="10.83790926471815"><ele>344.0</ele><time>2026-04-26T10:15:16Z</time></trkpt><trkpt lat="45.56239072282127" lon="10.838001615794633"><ele>346.66666666666663</ele><time>2026-04-26T10:15:17Z</time></trkpt><trkpt lat="45.56244845331034" lon="10.838073556608418"><ele>349.3333333333333</ele><time>2026-04-26T10:15:18Z</time></trkpt><trkpt lat="45.5625072551528" lon="10.838147129201662"><ele>352.0</ele><time>2026-04-26T10:15:19Z</time></trkpt><trkpt lat="45.562571271402064" lon="10.8382025777609"><ele>352.0</ele><time>2026-04-26T10:15:20Z</time></trkpt><trkpt lat="45.56264556223314" lon="10.838262159498935"><ele>352.0</ele><time>2026-04-26T10:15:21Z</time></trkpt><trkpt lat="45.562734651524146" lon="10.838342726685417"><ele>352.0</ele><time>2026-04-26T10:15:22Z</time></trkpt><trkpt lat="45.562825244480436" lon="10.838425994826386"><ele>352.0</ele><time>2026-04-26T10:15:23Z</time></trkpt><trkpt lat="45.562900231938656" lon="10.838499676354298"><ele>352.0</ele><time>2026-04-26T10:15:24Z</time></trkpt><trkpt lat="45.56297526756806" lon="10.838553841661533"><ele>355.8</ele><time>2026-04-26T10:15:25Z</time></trkpt><trkpt lat="45.56305519231189" lon="10.838591771300724"><ele>359.6</ele><time>2026-04-26T10:15:26Z</time></trkpt><trkpt lat="45.56313575081735" lon="10.83864182919945"><ele>363.40000000000003</ele><time>2026-04-26T10:15:27Z</time></trkpt><trkpt lat="45.56320863341076" lon="10.838681753816543"><ele>367.20000000000005</ele><time>2026-04-26T10:15:28Z</time></trkpt><trkpt lat="45.56330271785437" lon="10.838741054767238"><ele>371.0</ele><time>2026-04-26T10:15:30Z</time></trkpt><trkpt lat="45.56339566084052" lon="10.838792801618967"><ele>371.0</ele><time>2026-04-26T10:15:32Z</time></trkpt><trkpt lat="45.563466938212166" lon="10.838833183989088"><ele>371.0</ele><time>2026-04-26T10:15:33Z</time></trkpt><trkpt lat="45.563572341896695" lon="10.838888328708403"><ele>371.0</ele><time>2026-04-26T10:15:35Z</time></trkpt><trkpt lat="45.56363767342074" lon="10.838931892544172"><ele>371.0</ele><time>2026-04-26T10:15:36Z</time></trkpt><trkpt lat="45.56369527317778" lon="10.83897901977297"><ele>371.0</ele><time>2026-04-26T10:15:37Z</time></trkpt><trkpt lat="45.56374811876619" lon="10.83904754683395"><ele>371.0</ele><time>2026-04-26T10:15:38Z</time></trkpt><trkpt lat="45.563811506414304" lon="10.839130193161349"><ele>373.0</ele><time>2026-04-26T10:15:39Z</time></trkpt><trkpt lat="45.56387230536312" lon="10.839208731811613"><ele>375.0</ele><time>2026-04-26T10:15:40Z</time></trkpt><trkpt lat="45.56394642450917" lon="10.83932620891685"><ele>377.0</ele><time>2026-04-26T10:15:41Z</time></trkpt><trkpt lat="45.564008145040205" lon="10.839411756557116"><ele>379.0</ele><time>2026-04-26T10:15:42Z</time></trkpt><trkpt lat="45.56407989816188" lon="10.839510444309441"><ele>381.0</ele><time>2026-04-26T10:15:44Z</time></trkpt><trkpt lat="45.56411786708302" lon="10.83959684228771"><ele>381.8333333333333</ele><time>2026-04-26T10:15:45Z</time></trkpt><trkpt lat="45.56416181978688" lon="10.839674405592717"><ele>382.66666666666663</ele><time>2026-04-26T10:15:46Z</time></trkpt><trkpt lat="45.56421639435228" lon="10.839740152784602"><ele>383.5</ele><time>2026-04-26T10:15:47Z</time></trkpt><trkpt lat="45.56426522127717" lon="10.839820502102405"><ele>384.3333333333333</ele><time>2026-04-26T10:15:48Z</time></trkpt><trkpt lat="45.56434606854825" lon="10.839931266138334"><ele>385.16666666666663</ele><time>2026-04-26T10:15:50Z</time></trkpt><trkpt lat="45.56441736653867" lon="10.83995595588914"><ele>386.0</ele><time>2026-04-26T10:15:52Z</time></trkpt><trkpt lat="45.56452407490374" lon="10.839992925955935"><ele>389.20000000000005</ele><time>2026-04-26T10:15:54Z</time></trkpt><trkpt lat="45.56459617036621" lon="10.839994966253391"><ele>392.40000000000003</ele><time>2026-04-26T10:15:55Z</time></trkpt><trkpt lat="45.56471251157295" lon="10.839958164436968"><ele>395.6</ele><time>2026-04-26T10:15:57Z</time></trkpt><trkpt lat="45.5648317596385" lon="10.839896617136874"><ele>398.8</ele><time>2026-04-26T10:15:59Z</time></trkpt><trkpt lat="45.56489599884518" lon="10.839858193465242"><ele>402.0</ele><time>2026-04-26T10:16:00Z</time></trkpt><trkpt lat="45.564956904952886" lon="10.839834847618075"><ele>402.0</ele><time>2026-04-26T10:16:01Z</time></trkpt><trkpt lat="45.56508630869385" lon="10.839830664373396"><ele>402.0</ele><time>2026-04-26T10:16:03Z</time></trkpt><trkpt lat="45.565163939642545" lon="10.839885897746619"><ele>402.0</ele><time>2026-04-26T10:16:04Z</time></trkpt><trkpt lat="45.565289632882546" lon="10.840008205791346"><ele>402.0</ele><time>2026-04-26T10:16:06Z</time></trkpt><trkpt lat="45.56534956719935" lon="10.840066241711515"><ele>402.0</ele><time>2026-04-26T10:16:07Z</time></trkpt><trkpt lat="45.56544548414266" lon="10.840112495541693"><ele>406.75</ele><time>2026-04-26T10:16:09Z</time></trkpt><trkpt lat="45.56557712718244" lon="10.840099122617183"><ele>411.5</ele><time>2026-04-26T10:16:11Z</time></trkpt><trkpt lat="45.565660804317815" lon="10.840062045546821"><ele>416.25</ele><time>2026-04-26T10:16:12Z</time></trkpt><trkpt lat="45.56576954562165" lon="10.839993467076821"><ele>421.0</ele><time>2026-04-26T10:16:14Z</time></trkpt><trkpt lat="45.565898899222105" lon="10.84001250865012"><ele>421.00000000000006</ele><time>2026-04-26T10:16:16Z</time></trkpt><trkpt lat="45.56597285505203" lon="10.840063262547542"><ele>421.0</ele><time>2026-04-26T10:16:17Z</time></trkpt><trkpt lat="45.56609481945596" lon="10.840064300552044"><ele>421.0</ele><time>2026-04-26T10:16:19Z</time></trkpt><trkpt lat="45.56617437109595" lon="10.84009026940885"><ele>421.0</ele><time>2026-04-26T10:16:20Z</time></trkpt><trkpt lat="45.56623923306104" lon="10.840110372497968"><ele>421.00000000000006</ele><time>2026-04-26T10:16:21Z</time></trkpt><trkpt lat="45.56629538705208" lon="10.840198682677217"><ele>421.0</ele><time>2026-04-26T10:16:23Z</time></trkpt><trkpt lat="45.566340063891424" lon="10.840288497322812"><ele>425.8</ele><time>2026-04-26T10:16:24Z</time></trkpt><trkpt lat="45.566401023057004" lon="10.840376429779859"><ele>430.6</ele><time>2026-04-26T10:16:25Z</time></trkpt><trkpt lat="45.566491620435706" lon="10.840439286063672"><ele>435.4</ele><time>2026-04-26T10:16:27Z</time></trkpt><trkpt lat="45.56658254604116" lon="10.840544361641923"><ele>440.2</ele><time>2026-04-26T10:16:29Z</time></trkpt><trkpt lat="45.56660573904106" lon="10.840677007325827"><ele>445.0</ele><time>2026-04-26T10:16:31Z</time></trkpt><trkpt lat="45.56663491895989" lon="10.840772144670408"><ele>445.00000000000006</ele><time>2026-04-26T10:16:32Z</time></trkpt><trkpt lat="45.566691361181675" lon="10.840877549567722"><ele>445.0</ele><time>2026-04-26T10:16:34Z</time></trkpt><trkpt lat="45.566769709865945" lon="10.840978978857981"><ele>445.0</ele><time>2026-04-26T10:16:36Z</time></trkpt><trkpt lat="45.56682136992026" lon="10.841049555650411"><ele>445.0</ele><time>2026-04-26T10:16:37Z</time></trkpt><trkpt lat="45.56687303354792" lon="10.841109625720616"><ele>445.00000000000006</ele><time>2026-04-26T10:16:38Z</time></trkpt><trkpt lat="45.56692494310811" lon="10.841170630271424"><ele>445.0</ele><time>2026-04-26T10:16:39Z</time></trkpt><trkpt lat="45.566960436290124" lon="10.841249676196073"><ele>444.8</ele><time>2026-04-26T10:16:43Z</time></trkpt><trkpt lat="45.56692320214686" lon="10.841408682658736"><ele>444.6</ele><time>2026-04-26T10:16:45Z</time></trkpt><trkpt lat="45.566895629764375" lon="10.841582193350456"><ele>444.4</ele><time>2026-04-26T10:16:47Z</time></trkpt><trkpt lat="45.56689457585958" lon="10.841698979637364"><ele>444.2</ele><time>2026-04-26T10:16:48Z</time></trkpt><trkpt lat="45.56689465124467" lon="10.841802102034677"><ele>444.0</ele><time>2026-04-26T10:16:49Z</time></trkpt><trkpt lat="45.56690761143822" lon="10.841901064908589"><ele>443.3333333333333</ele><time>2026-04-26T10:16:50Z</time></trkpt><trkpt lat="45.56691206966157" lon="10.842002914180163"><ele>442.66666666666663</ele><time>2026-04-26T10:16:51Z</time></trkpt><trkpt lat="45.56691680232912" lon="10.84212424997108"><ele>442.0</ele><time>2026-04-26T10:16:52Z</time></trkpt><trkpt lat="45.56693640258479" lon="10.842273996545345"><ele>441.3333333333333</ele><time>2026-04-26T10:16:53Z</time></trkpt><trkpt lat="45.566968394638096" lon="10.842390102029434"><ele>440.66666666666663</ele><time>2026-04-26T10:16:54Z</time></trkpt><trkpt lat="45.56699692630916" lon="10.842511955957809"><ele>440.0</ele><time>2026-04-26T10:16:55Z</time></trkpt><trkpt lat="45.567003940514475" lon="10.84264032118321"><ele>439.99999999999994</ele><time>2026-04-26T10:16:56Z</time></trkpt><trkpt lat="45.5670321039047" lon="10.842736928902745"><ele>440.0</ele><time>2026-04-26T10:16:57Z</time></trkpt><trkpt lat="45.56703445275809" lon="10.842843088074135"><ele>440.0</ele><time>2026-04-26T10:16:58Z</time></trkpt><trkpt lat="45.56702198203491" lon="10.84294238305218"><ele>440.0</ele><time>2026-04-26T10:16:59Z</time></trkpt><trkpt lat="45.566987304592985" lon="10.843031201866633"><ele>440.0</ele><time>2026-04-26T10:17:00Z</time></trkpt><trkpt lat="45.56693348531931" lon="10.843105559636653"><ele>439.99999999999994</ele><time>2026-04-26T10:17:01Z</time></trkpt><trkpt lat="45.56687610115972" lon="10.843157300396287"><ele>440.0</ele><time>2026-04-26T10:17:02Z</time></trkpt><trkpt lat="45.56679908651175" lon="10.843200174026558"><ele>440.0</ele><time>2026-04-26T10:17:03Z</time></trkpt><trkpt lat="45.56672579911794" lon="10.84327080290529"><ele>440.0</ele><time>2026-04-26T10:17:04Z</time></trkpt><trkpt lat="45.566659873982395" lon="10.84339081542519"><ele>440.0</ele><time>2026-04-26T10:17:05Z</time></trkpt><trkpt lat="45.56662661080537" lon="10.84353127527981"><ele>440.0</ele><time>2026-04-26T10:17:06Z</time></trkpt><trkpt lat="45.56661013824081" lon="10.843670627850276"><ele>440.0</ele><time>2026-04-26T10:17:07Z</time></trkpt><trkpt lat="45.56659184267529" lon="10.843811431229724"><ele>440.4</ele><time>2026-04-26T10:17:08Z</time></trkpt><trkpt lat="45.56657518483189" lon="10.843956445847006"><ele>440.8</ele><time>2026-04-26T10:17:09Z</time></trkpt><trkpt lat="45.566554191857875" lon="10.844106908826394"><ele>441.20000000000005</ele><time>2026-04-26T10:17:10Z</time></trkpt><trkpt lat="45.56652435744415" lon="10.844252864832143"><ele>441.6</ele><time>2026-04-26T10:17:11Z</time></trkpt><trkpt lat="45.56650222876983" lon="10.844392450530952"><ele>442.0</ele><time>2026-04-26T10:17:12Z</time></trkpt><trkpt lat="45.56647874715405" lon="10.844509021851996"><ele>442.33333333333337</ele><time>2026-04-26T10:17:13Z</time></trkpt><trkpt lat="45.56645525503819" lon="10.844615177809727"><ele>442.6666666666667</ele><time>2026-04-26T10:17:14Z</time></trkpt><trkpt lat="45.566426739073144" lon="10.844736900299191"><ele>443.0</ele><time>2026-04-26T10:17:15Z</time></trkpt><trkpt lat="45.56640442524384" lon="10.844851652896747"><ele>443.33333333333337</ele><time>2026-04-26T10:17:16Z</time></trkpt><trkpt lat="45.566391848723555" lon="10.844988978045652"><ele>443.6666666666667</ele><time>2026-04-26T10:17:17Z</time></trkpt><trkpt lat="45.56640075153996" lon="10.845131361353596"><ele>444.0</ele><time>2026-04-26T10:17:18Z</time></trkpt><trkpt lat="45.56644249421422" lon="10.84526056209917"><ele>444.3333333333333</ele><time>2026-04-26T10:17:19Z</time></trkpt><trkpt lat="45.566501790768235" lon="10.845366490029775"><ele>444.66666666666663</ele><time>2026-04-26T10:17:20Z</time></trkpt><trkpt lat="45.56658569210215" lon="10.845470020949186"><ele>445.0</ele><time>2026-04-26T10:17:21Z</time></trkpt><trkpt lat="45.566655441129804" lon="10.845558937690798"><ele>445.3333333333333</ele><time>2026-04-26T10:17:22Z</time></trkpt><trkpt lat="45.5666943814584" lon="10.845645161686631"><ele>445.66666666666663</ele><time>2026-04-26T10:17:23Z</time></trkpt><trkpt lat="45.566684389638766" lon="10.845736902923992"><ele>446.0</ele><time>2026-04-26T10:17:24Z</time></trkpt><trkpt lat="45.56662709020568" lon="10.845808758848005"><ele>446.0</ele><time>2026-04-26T10:17:25Z</time></trkpt><trkpt lat="45.56653168206656" lon="10.845856925617863"><ele>446.0</ele><time>2026-04-26T10:17:26Z</time></trkpt><trkpt lat="45.566428184204035" lon="10.845832740783965"><ele>446.0</ele><time>2026-04-26T10:17:27Z</time></trkpt><trkpt lat="45.56631945696114" lon="10.845824132476794"><ele>446.0</ele><time>2026-04-26T10:17:28Z</time></trkpt><trkpt lat="45.56622625012955" lon="10.845836338296866"><ele>446.0</ele><time>2026-04-26T10:17:29Z</time></trkpt><trkpt lat="45.56614981443413" lon="10.845826438133045"><ele>446.0</ele><time>2026-04-26T10:17:30Z</time></trkpt><trkpt lat="45.566071826443974" lon="10.84578470810443"><ele>446.0</ele><time>2026-04-26T10:17:32Z</time></trkpt><trkpt lat="45.56598406740101" lon="10.845973827185025"><ele>446.0</ele><time>2026-04-26T10:17:37Z</time></trkpt><trkpt lat="45.566330842143905" lon="10.845869586041202"><ele>446.0</ele><time>2026-04-26T10:17:39Z</time></trkpt><trkpt lat="45.56641015671867" lon="10.845876955724068"><ele>446.0</ele><time>2026-04-26T10:17:40Z</time></trkpt><trkpt lat="45.56649255127541" lon="10.845884543256137"><ele>446.0</ele><time>2026-04-26T10:17:41Z</time></trkpt><trkpt lat="45.56655981027753" lon="10.845875310369342"><ele>446.0</ele><time>2026-04-26T10:17:42Z</time></trkpt><trkpt lat="45.56665968929636" lon="10.845802037510207"><ele>446.0</ele><time>2026-04-26T10:17:44Z</time></trkpt><trkpt lat="45.56667873205187" lon="10.845524203234996"><ele>445.99999999999994</ele><time>2026-04-26T10:17:47Z</time></trkpt><trkpt lat="45.56660808389982" lon="10.845435998247751"><ele>446.0</ele><time>2026-04-26T10:17:48Z</time></trkpt><trkpt lat="45.56652930480607" lon="10.845357395651725"><ele>446.0</ele><time>2026-04-26T10:17:49Z</time></trkpt><trkpt lat="45.566464475095735" lon="10.84526010393012"><ele>446.0</ele><time>2026-04-26T10:17:50Z</time></trkpt><trkpt lat="45.56642125560697" lon="10.845155145317232"><ele>445.99999999999994</ele><time>2026-04-26T10:17:51Z</time></trkpt><trkpt lat="45.566400755727486" lon="10.845055318808834"><ele>446.0</ele><time>2026-04-26T10:17:52Z</time></trkpt><trkpt lat="45.56640693662617" lon="10.844965545164573"><ele>445.66666666666663</ele><time>2026-04-26T10:17:53Z</time></trkpt><trkpt lat="45.56641537539423" lon="10.844852682899084"><ele>445.3333333333333</ele><time>2026-04-26T10:17:54Z</time></trkpt><trkpt lat="45.56643404439639" lon="10.84473499824992"><ele>445.0</ele><time>2026-04-26T10:17:55Z</time></trkpt><trkpt lat="45.56646266565275" lon="10.844622813330929"><ele>444.66666666666663</ele><time>2026-04-26T10:17:56Z</time></trkpt><trkpt lat="45.56649902530262" lon="10.844547937134902"><ele>444.3333333333333</ele><time>2026-04-26T10:17:57Z</time></trkpt><trkpt lat="45.56661105505109" lon="10.844545008538796"><ele>444.0</ele><time>2026-04-26T10:17:59Z</time></trkpt><trkpt lat="45.56666728964977" lon="10.844597712791833"><ele>444.0</ele><time>2026-04-26T10:18:00Z</time></trkpt><trkpt lat="45.566708839939714" lon="10.844683957230302"><ele>444.0</ele><time>2026-04-26T10:18:01Z</time></trkpt><trkpt lat="45.566733838175594" lon="10.844796376741726"><ele>444.0</ele><time>2026-04-26T10:18:02Z</time></trkpt><trkpt lat="45.56675871570141" lon="10.84492268682718"><ele>444.0</ele><time>2026-04-26T10:18:03Z</time></trkpt><trkpt lat="45.566782343951374" lon="10.845047616882052"><ele>444.0</ele><time>2026-04-26T10:18:04Z</time></trkpt><trkpt lat="45.566791818037956" lon="10.845187992235282"><ele>444.0</ele><time>2026-04-26T10:18:05Z</time></trkpt><trkpt lat="45.56678757492045" lon="10.84531927082574"><ele>444.4</ele><time>2026-04-26T10:18:06Z</time></trkpt><trkpt lat="45.56684040017684" lon="10.845500672100062"><ele>444.79999999999995</ele><time>2026-04-26T10:18:08Z</time></trkpt><trkpt lat="45.566913751566545" lon="10.845608713596285"><ele>445.20000000000005</ele><time>2026-04-26T10:18:09Z</time></trkpt><trkpt lat="45.56698799623633" lon="10.84568523890122"><ele>445.6</ele><time>2026-04-26T10:18:10Z</time></trkpt><trkpt lat="45.567078540595865" lon="10.84578381711686"><ele>446.0</ele><time>2026-04-26T10:18:11Z</time></trkpt><trkpt lat="45.56715706302193" lon="10.845867617458232"><ele>448.49999999999994</ele><time>2026-04-26T10:18:12Z</time></trkpt><trkpt lat="45.567239911911635" lon="10.845959428672"><ele>451.0</ele><time>2026-04-26T10:18:13Z</time></trkpt><trkpt lat="45.567293608563006" lon="10.846030081843322"><ele>453.5</ele><time>2026-04-26T10:18:14Z</time></trkpt><trkpt lat="45.56733223656258" lon="10.846118180236186"><ele>456.0</ele><time>2026-04-26T10:18:15Z</time></trkpt><trkpt lat="45.567340556159124" lon="10.84625072205236"><ele>458.49999999999994</ele><time>2026-04-26T10:18:16Z</time></trkpt><trkpt lat="45.56738323890409" lon="10.846383642915814"><ele>461.0</ele><time>2026-04-26T10:18:17Z</time></trkpt><trkpt lat="45.56741736048045" lon="10.84652283480568"><ele>461.20000000000005</ele><time>2026-04-26T10:18:18Z</time></trkpt><trkpt lat="45.56745379817739" lon="10.846645456699571"><ele>461.40000000000003</ele><time>2026-04-26T10:18:19Z</time></trkpt><trkpt lat="45.56749736496009" lon="10.846782964343689"><ele>461.6</ele><time>2026-04-26T10:18:20Z</time></trkpt><trkpt lat="45.567545661009476" lon="10.846918055172468"><ele>461.8</ele><time>2026-04-26T10:18:21Z</time></trkpt><trkpt lat="45.567575381802776" lon="10.847044671520505"><ele>462.0</ele><time>2026-04-26T10:18:22Z</time></trkpt><trkpt lat="45.567599716067576" lon="10.847162932852527"><ele>463.0</ele><time>2026-04-26T10:18:23Z</time></trkpt><trkpt lat="45.56764252383041" lon="10.847278563866801"><ele>464.00000000000006</ele><time>2026-04-26T10:18:24Z</time></trkpt><trkpt lat="45.56771901137739" lon="10.84738155834825"><ele>465.00000000000006</ele><time>2026-04-26T10:18:25Z</time></trkpt><trkpt lat="45.56782017883282" lon="10.847468509175803"><ele>466.0</ele><time>2026-04-26T10:18:26Z</time></trkpt><trkpt lat="45.56789010216631" lon="10.847553320965284"><ele>467.0</ele><time>2026-04-26T10:18:27Z</time></trkpt><trkpt lat="45.567920999672296" lon="10.847664444355054"><ele>471.75</ele><time>2026-04-26T10:18:28Z</time></trkpt><trkpt lat="45.56795208014112" lon="10.84780601443621"><ele>476.5</ele><time>2026-04-26T10:18:29Z</time></trkpt><trkpt lat="45.56799373407636" lon="10.847961337337336"><ele>481.25</ele><time>2026-04-26T10:18:30Z</time></trkpt><trkpt lat="45.56803329374718" lon="10.84812001142581"><ele>486.0</ele><time>2026-04-26T10:18:31Z</time></trkpt><trkpt lat="45.568068427309576" lon="10.848284422445273"><ele>486.0</ele><time>2026-04-26T10:18:32Z</time></trkpt><trkpt lat="45.56810949422685" lon="10.84845401281011"><ele>486.0</ele><time>2026-04-26T10:18:33Z</time></trkpt><trkpt lat="45.56814315038761" lon="10.84859965584788"><ele>486.0</ele><time>2026-04-26T10:18:34Z</time></trkpt><trkpt lat="45.56818321462542" lon="10.848701702391534"><ele>486.0</ele><time>2026-04-26T10:18:35Z</time></trkpt><trkpt lat="45.56822149423237" lon="10.848792483624178"><ele>486.0</ele><time>2026-04-26T10:18:36Z</time></trkpt><trkpt lat="45.56825354363882" lon="10.848881173602289"><ele>486.6</ele><time>2026-04-26T10:18:37Z</time></trkpt><trkpt lat="45.56820695195155" lon="10.849008149359593"><ele>487.20000000000005</ele><time>2026-04-26T10:18:39Z</time></trkpt><trkpt lat="45.56811489715263" lon="10.84897175806087"><ele>487.79999999999995</ele><time>2026-04-26T10:18:41Z</time></trkpt><trkpt lat="45.56805672226041" lon="10.848822591857129"><ele>488.4</ele><time>2026-04-26T10:18:43Z</time></trkpt><trkpt lat="45.56801202627293" lon="10.848740454235969"><ele>489.0</ele><time>2026-04-26T10:18:44Z</time></trkpt><trkpt lat="45.567961911368364" lon="10.8486514182562"><ele>489.0</ele><time>2026-04-26T10:18:45Z</time></trkpt><trkpt lat="45.56790209421239" lon="10.848549228720005"><ele>489.0</ele><time>2026-04-26T10:18:46Z</time></trkpt><trkpt lat="45.567838076590085" lon="10.848450891314135"><ele>489.0</ele><time>2026-04-26T10:18:47Z</time></trkpt><trkpt lat="45.5677451565403" lon="10.848378806876724"><ele>489.0</ele><time>2026-04-26T10:18:48Z</time></trkpt><trkpt lat="45.56768737784961" lon="10.848336141874107"><ele>489.0</ele><time>2026-04-26T10:18:49Z</time></trkpt><trkpt lat="45.56760277663133" lon="10.848328307800223"><ele>489.0</ele><time>2026-04-26T10:18:50Z</time></trkpt><trkpt lat="45.56751798061838" lon="10.84834987240462"><ele>488.6</ele><time>2026-04-26T10:18:51Z</time></trkpt><trkpt lat="45.567409941140596" lon="10.848349166591921"><ele>488.2</ele><time>2026-04-26T10:18:52Z</time></trkpt><trkpt lat="45.56731067205895" lon="10.848362854287082"><ele>487.80000000000007</ele><time>2026-04-26T10:18:53Z</time></trkpt><trkpt lat="45.567207529877564" lon="10.848369848086751"><ele>487.40000000000003</ele><time>2026-04-26T10:18:54Z</time></trkpt><trkpt lat="45.567096170015425" lon="10.848410580506924"><ele>487.0</ele><time>2026-04-26T10:18:55Z</time></trkpt><trkpt lat="45.56698694522294" lon="10.848442086374469"><ele>489.6</ele><time>2026-04-26T10:18:56Z</time></trkpt><trkpt lat="45.566885140195744" lon="10.84848169689256"><ele>492.20000000000005</ele><time>2026-04-26T10:18:57Z</time></trkpt><trkpt lat="45.566780065965936" lon="10.848511570868428"><ele>494.8</ele><time>2026-04-26T10:18:58Z</time></trkpt><trkpt lat="45.56667973556813" lon="10.848556114598159"><ele>497.4</ele><time>2026-04-26T10:18:59Z</time></trkpt><trkpt lat="45.566580680369704" lon="10.848601587680685"><ele>500.0</ele><time>2026-04-26T10:19:00Z</time></trkpt><trkpt lat="45.56647353527943" lon="10.848625428851932"><ele>500.0</ele><time>2026-04-26T10:19:01Z</time></trkpt><trkpt lat="45.56636724884726" lon="10.84865179968969"><ele>500.0</ele><time>2026-04-26T10:19:02Z</time></trkpt><trkpt lat="45.56626183606366" lon="10.848665849439191"><ele>500.0</ele><time>2026-04-26T10:19:03Z</time></trkpt><trkpt lat="45.56615581424191" lon="10.848659151304178"><ele>500.0</ele><time>2026-04-26T10:19:04Z</time></trkpt><trkpt lat="45.566041493081755" lon="10.848665113423921"><ele>500.0</ele><time>2026-04-26T10:19:05Z</time></trkpt><trkpt lat="45.56593129100271" lon="10.848645919563614"><ele>500.6</ele><time>2026-04-26T10:19:06Z</time></trkpt><trkpt lat="45.565823163883216" lon="10.848623279822183"><ele>501.2</ele><time>2026-04-26T10:19:07Z</time></trkpt><trkpt lat="45.56571442786273" lon="10.848611351445193"><ele>501.79999999999995</ele><time>2026-04-26T10:19:08Z</time></trkpt><trkpt lat="45.565616825177244" lon="10.848600319513368"><ele>502.4</ele><time>2026-04-26T10:19:09Z</time></trkpt><trkpt lat="45.565533717600744" lon="10.848602072641905"><ele>503.0</ele><time>2026-04-26T10:19:10Z</time></trkpt><trkpt lat="45.56543494143334" lon="10.848633940528137"><ele>503.0</ele><time>2026-04-26T10:19:11Z</time></trkpt><trkpt lat="45.565361965558104" lon="10.848723011314929"><ele>502.99999999999994</ele><time>2026-04-26T10:19:12Z</time></trkpt><trkpt lat="45.56530441205565" lon="10.848840345935564"><ele>502.99999999999994</ele><time>2026-04-26T10:19:13Z</time></trkpt><trkpt lat="45.56525233078803" lon="10.848984658759491"><ele>503.0</ele><time>2026-04-26T10:19:14Z</time></trkpt><trkpt lat="45.565209337231146" lon="10.849087944225742"><ele>503.0</ele><time>2026-04-26T10:19:15Z</time></trkpt><trkpt lat="45.56508265519492" lon="10.84912732596214"><ele>503.0</ele><time>2026-04-26T10:19:17Z</time></trkpt><trkpt lat="45.56499324950993" lon="10.849180753775956"><ele>503.0</ele><time>2026-04-26T10:19:18Z</time></trkpt><trkpt lat="45.564880884594565" lon="10.849222684244003"><ele>503.0</ele><time>2026-04-26T10:19:19Z</time></trkpt><trkpt lat="45.56475971593531" lon="10.849256773050858"><ele>503.0</ele><time>2026-04-26T10:19:20Z</time></trkpt><trkpt lat="45.56462627080324" lon="10.849253514631481"><ele>504.5</ele><time>2026-04-26T10:19:21Z</time></trkpt><trkpt lat="45.56449793597757" lon="10.849282699566814"><ele>506.0</ele><time>2026-04-26T10:19:22Z</time></trkpt><trkpt lat="45.56435817076294" lon="10.849279816224163"><ele>507.5</ele><time>2026-04-26T10:19:23Z</time></trkpt><trkpt lat="45.56422463207487" lon="10.849273015375456"><ele>509.0</ele><time>2026-04-26T10:19:24Z</time></trkpt><trkpt lat="45.564086661349826" lon="10.849259154154415"><ele>509.0</ele><time>2026-04-26T10:19:25Z</time></trkpt><trkpt lat="45.56396457544787" lon="10.849243194346482"><ele>509.0</ele><time>2026-04-26T10:19:26Z</time></trkpt><trkpt lat="45.563854544031656" lon="10.849235943518607"><ele>509.0</ele><time>2026-04-26T10:19:27Z</time></trkpt><trkpt lat="45.56376564958136" lon="10.849227557363315"><ele>509.0</ele><time>2026-04-26T10:19:28Z</time></trkpt><trkpt lat="45.56368644482208" lon="10.849242294842028"><ele>509.0</ele><time>2026-04-26T10:19:29Z</time></trkpt><trkpt lat="45.56359763912962" lon="10.849243528288513"><ele>508.8333333333333</ele><time>2026-04-26T10:19:31Z</time></trkpt><trkpt lat="45.56359810846427" lon="10.849103418944175"><ele>508.66666666666663</ele><time>2026-04-26T10:19:32Z</time></trkpt><trkpt lat="45.563542946530404" lon="10.84904220066941"><ele>508.5</ele><time>2026-04-26T10:19:33Z</time></trkpt><trkpt lat="45.56348019811127" lon="10.848968177808446"><ele>508.33333333333337</ele><time>2026-04-26T10:19:34Z</time></trkpt><trkpt lat="45.563395640803506" lon="10.848947660594435"><ele>508.1666666666667</ele><time>2026-04-26T10:19:35Z</time></trkpt><trkpt lat="45.563294678294916" lon="10.848969276399078"><ele>508.0</ele><time>2026-04-26T10:19:36Z</time></trkpt><trkpt lat="45.56319894398508" lon="10.849010401352775"><ele>508.0</ele><time>2026-04-26T10:19:37Z</time></trkpt><trkpt lat="45.563098402744515" lon="10.849064706296934"><ele>507.99999999999994</ele><time>2026-04-26T10:19:38Z</time></trkpt><trkpt lat="45.56299354425041" lon="10.849113882577262"><ele>507.99999999999994</ele><time>2026-04-26T10:19:39Z</time></trkpt><trkpt lat="45.56289886278975" lon="10.849158988213357"><ele>508.0</ele><time>2026-04-26T10:19:40Z</time></trkpt><trkpt lat="45.56281285916913" lon="10.849196111754992"><ele>508.0</ele><time>2026-04-26T10:19:41Z</time></trkpt><trkpt lat="45.56270406235404" lon="10.8492422900022"><ele>508.4</ele><time>2026-04-26T10:19:42Z</time></trkpt><trkpt lat="45.562588905911234" lon="10.849283972589072"><ele>508.79999999999995</ele><time>2026-04-26T10:19:43Z</time></trkpt><trkpt lat="45.562483698439976" lon="10.84930381763195"><ele>509.2</ele><time>2026-04-26T10:19:44Z</time></trkpt><trkpt lat="45.56237390540656" lon="10.849293898181223"><ele>509.6</ele><time>2026-04-26T10:19:45Z</time></trkpt><trkpt lat="45.56226858116151" lon="10.849276148421788"><ele>510.0</ele><time>2026-04-26T10:19:46Z</time></trkpt><trkpt lat="45.56217222601009" lon="10.849266174391508"><ele>508.0</ele><time>2026-04-26T10:19:47Z</time></trkpt><trkpt lat="45.56208370543657" lon="10.849289018192184"><ele>506.0</ele><time>2026-04-26T10:19:48Z</time></trkpt><trkpt lat="45.561975158092146" lon="10.849359920049368"><ele>504.0</ele><time>2026-04-26T10:19:49Z</time></trkpt><trkpt lat="45.56189355862319" lon="10.849470996992476"><ele>502.0</ele><time>2026-04-26T10:19:50Z</time></trkpt><trkpt lat="45.56183354832496" lon="10.849603120521994"><ele>500.0</ele><time>2026-04-26T10:19:51Z</time></trkpt><trkpt lat="45.56178335974558" lon="10.849751108310516"><ele>499.0</ele><time>2026-04-26T10:19:52Z</time></trkpt><trkpt lat="45.56174227407414" lon="10.849918260874784"><ele>498.0</ele><time>2026-04-26T10:19:53Z</time></trkpt><trkpt lat="45.561700962315285" lon="10.85010225941126"><ele>497.0</ele><time>2026-04-26T10:19:54Z</time></trkpt><trkpt lat="45.561648519706104" lon="10.850302231927005"><ele>496.0</ele><time>2026-04-26T10:19:55Z</time></trkpt><trkpt lat="45.56160080713972" lon="10.850505600204839"><ele>496.0</ele><time>2026-04-26T10:19:56Z</time></trkpt><trkpt lat="45.56156195128587" lon="10.850689924940724"><ele>496.0</ele><time>2026-04-26T10:19:57Z</time></trkpt><trkpt lat="45.56152094421859" lon="10.850860860631837"><ele>496.0</ele><time>2026-04-26T10:19:58Z</time></trkpt><trkpt lat="45.56147432698689" lon="10.851018010301525"><ele>496.0</ele><time>2026-04-26T10:19:59Z</time></trkpt><trkpt lat="45.561432440339516" lon="10.851160281008433"><ele>496.8</ele><time>2026-04-26T10:20:00Z</time></trkpt><trkpt lat="45.56138791116894" lon="10.851279167740127"><ele>497.6</ele><time>2026-04-26T10:20:01Z</time></trkpt><trkpt lat="45.56131829135171" lon="10.851363463023892"><ele>498.4</ele><time>2026-04-26T10:20:02Z</time></trkpt><trkpt lat="45.56121665335784" lon="10.851376288583086"><ele>499.2</ele><time>2026-04-26T10:20:03Z</time></trkpt><trkpt lat="45.56111246825538" lon="10.85142332052472"><ele>500.0</ele><time>2026-04-26T10:20:04Z</time></trkpt><trkpt lat="45.56098747898656" lon="10.85142986556809"><ele>497.4</ele><time>2026-04-26T10:20:05Z</time></trkpt><trkpt lat="45.56088305766183" lon="10.851388229607734"><ele>494.8</ele><time>2026-04-26T10:20:06Z</time></trkpt><trkpt lat="45.56080113585137" lon="10.851352527830743"><ele>492.20000000000005</ele><time>2026-04-26T10:20:07Z</time></trkpt><trkpt lat="45.56075136396608" lon="10.851268378597064"><ele>489.6</ele><time>2026-04-26T10:20:08Z</time></trkpt><trkpt lat="45.56071277222571" lon="10.851183004022635"><ele>487.0</ele><time>2026-04-26T10:20:09Z</time></trkpt><trkpt lat="45.56066619816533" lon="10.851042383505945"><ele>487.0</ele><time>2026-04-26T10:20:11Z</time></trkpt><trkpt lat="45.56064246826936" lon="10.850939877416112"><ele>487.00000000000006</ele><time>2026-04-26T10:20:13Z</time></trkpt><trkpt lat="45.56063371135476" lon="10.850828815484428"><ele>487.00000000000006</ele><time>2026-04-26T10:20:16Z</time></trkpt><trkpt lat="45.5606509075946" lon="10.850923189740787"><ele>487.0</ele><time>2026-04-26T10:20:22Z</time></trkpt><trkpt lat="45.56070530883345" lon="10.851188813117842"><ele>487.0</ele><time>2026-04-26T10:20:24Z</time></trkpt><trkpt lat="45.56072355167413" lon="10.851311722205951"><ele>487.0</ele><time>2026-04-26T10:20:25Z</time></trkpt><trkpt lat="45.560771773562806" lon="10.851432078667827"><ele>487.00000000000006</ele><time>2026-04-26T10:20:27Z</time></trkpt><trkpt lat="45.560708824448405" lon="10.851510087989247"><ele>487.00000000000006</ele><time>2026-04-26T10:20:29Z</time></trkpt><trkpt lat="45.560617582919306" lon="10.851594054568332"><ele>487.0</ele><time>2026-04-26T10:20:31Z</time></trkpt><trkpt lat="45.56050977486846" lon="10.85161184433477"><ele>487.0</ele><time>2026-04-26T10:20:33Z</time></trkpt><trkpt lat="45.5604307748744" lon="10.851589752185806"><ele>486.83333333333337</ele><time>2026-04-26T10:20:34Z</time></trkpt><trkpt lat="45.56036451821545" lon="10.851567684792355"><ele>486.6666666666667</ele><time>2026-04-26T10:20:35Z</time></trkpt><trkpt lat="45.56029161851553" lon="10.851547178434538"><ele>486.5</ele><time>2026-04-26T10:20:36Z</time></trkpt><trkpt lat="45.5601969810483" lon="10.851521597573486"><ele>486.33333333333337</ele><time>2026-04-26T10:20:37Z</time></trkpt><trkpt lat="45.56010912600897" lon="10.85149711793141"><ele>486.1666666666667</ele><time>2026-04-26T10:20:38Z</time></trkpt><trkpt lat="45.56004606746767" lon="10.851478721315084"><ele>486.0</ele><time>2026-04-26T10:20:39Z</time></trkpt><trkpt lat="45.559973812375794" lon="10.851464866915022"><ele>486.0</ele><time>2026-04-26T10:20:40Z</time></trkpt><trkpt lat="45.559902255590664" lon="10.851457400496294"><ele>486.0</ele><time>2026-04-26T10:20:41Z</time></trkpt><trkpt lat="45.55983715223801" lon="10.851462503771323"><ele>486.0</ele><time>2026-04-26T10:20:42Z</time></trkpt><trkpt lat="45.55977639701898" lon="10.851487073825018"><ele>486.0</ele><time>2026-04-26T10:20:43Z</time></trkpt><trkpt lat="45.55968371010411" lon="10.85153789973711"><ele>486.0</ele><time>2026-04-26T10:20:44Z</time></trkpt><trkpt lat="45.55959956352613" lon="10.85157092599547"><ele>486.0</ele><time>2026-04-26T10:20:45Z</time></trkpt><trkpt lat="45.55953287140738" lon="10.851589377064986"><ele>485.8</ele><time>2026-04-26T10:20:46Z</time></trkpt><trkpt lat="45.559454380203455" lon="10.851595139184312"><ele>485.6</ele><time>2026-04-26T10:20:47Z</time></trkpt><trkpt lat="45.559365643933894" lon="10.851570194392727"><ele>485.4</ele><time>2026-04-26T10:20:48Z</time></trkpt><trkpt lat="45.559269171282345" lon="10.851564060968059"><ele>485.2</ele><time>2026-04-26T10:20:49Z</time></trkpt><trkpt lat="45.5591713368937" lon="10.851576674914702"><ele>485.0</ele><time>2026-04-26T10:20:50Z</time></trkpt><trkpt lat="45.55907554964428" lon="10.851606333330162"><ele>485.0</ele><time>2026-04-26T10:20:51Z</time></trkpt><trkpt lat="45.55898235690205" lon="10.851635518017885"><ele>485.0</ele><time>2026-04-26T10:20:52Z</time></trkpt><trkpt lat="45.558902550106964" lon="10.851665457582644"><ele>485.0</ele><time>2026-04-26T10:20:53Z</time></trkpt><trkpt lat="45.5587785980063" lon="10.851676637460232"><ele>485.0</ele><time>2026-04-26T10:20:55Z</time></trkpt><trkpt lat="45.558695893425494" lon="10.851673720640209"><ele>485.0</ele><time>2026-04-26T10:20:57Z</time></trkpt><trkpt lat="45.55861166243799" lon="10.851669613286061"><ele>485.6</ele><time>2026-04-26T10:29:16Z</time></trkpt><trkpt lat="45.558575719778446" lon="10.851507225097052"><ele>486.2</ele><time>2026-04-26T10:29:23Z</time></trkpt><trkpt lat="45.558499703411655" lon="10.851419399698946"><ele>486.79999999999995</ele><time>2026-04-26T10:29:25Z</time></trkpt><trkpt lat="45.55842315738551" lon="10.85136410168239"><ele>487.4</ele><time>2026-04-26T10:29:26Z</time></trkpt><trkpt lat="45.558344461432945" lon="10.851316682075826"><ele>488.0</ele><time>2026-04-26T10:29:27Z</time></trkpt><trkpt lat="45.55825047155681" lon="10.85126137173149"><ele>488.0</ele><time>2026-04-26T10:29:28Z</time></trkpt><trkpt lat="45.55813375372898" lon="10.851173917600425"><ele>488.0</ele><time>2026-04-26T10:29:29Z</time></trkpt><trkpt lat="45.55804268989091" lon="10.851089512591424"><ele>488.0</ele><time>2026-04-26T10:29:30Z</time></trkpt><trkpt lat="45.55794245946376" lon="10.851008506132935"><ele>488.0</ele><time>2026-04-26T10:29:31Z</time></trkpt><trkpt lat="45.557846534430155" lon="10.850915149513886"><ele>488.99999999999994</ele><time>2026-04-26T10:29:32Z</time></trkpt><trkpt lat="45.557764048870425" lon="10.85083935415084"><ele>490.0</ele><time>2026-04-26T10:29:33Z</time></trkpt><trkpt lat="45.557703087737295" lon="10.850787174203113"><ele>491.0</ele><time>2026-04-26T10:29:34Z</time></trkpt><trkpt lat="45.55763824761758" lon="10.850747845995947"><ele>492.0</ele><time>2026-04-26T10:29:35Z</time></trkpt><trkpt lat="45.5575710121022" lon="10.850709530798008"><ele>492.99999999999994</ele><time>2026-04-26T10:29:36Z</time></trkpt><trkpt lat="45.55749130737884" lon="10.850671505276996"><ele>494.0</ele><time>2026-04-26T10:29:37Z</time></trkpt><trkpt lat="45.55738751568823" lon="10.850582957406065"><ele>493.99999999999994</ele><time>2026-04-26T10:29:39Z</time></trkpt><trkpt lat="45.55732207464921" lon="10.850536655537288"><ele>494.0</ele><time>2026-04-26T10:29:40Z</time></trkpt><trkpt lat="45.55725414118479" lon="10.850492540701923"><ele>494.0</ele><time>2026-04-26T10:29:41Z</time></trkpt><trkpt lat="45.55714974025538" lon="10.850368703907641"><ele>494.0</ele><time>2026-04-26T10:29:43Z</time></trkpt><trkpt lat="45.557099453409236" lon="10.85030829756052"><ele>493.99999999999994</ele><time>2026-04-26T10:29:44Z</time></trkpt><trkpt lat="45.557015500422466" lon="10.850238952676508"><ele>494.0</ele><time>2026-04-26T10:29:45Z</time></trkpt><trkpt lat="45.556936055327746" lon="10.850172810987374"><ele>493.6</ele><time>2026-04-26T10:29:46Z</time></trkpt><trkpt lat="45.55685843039006" lon="10.850121757766553"><ele>493.2</ele><time>2026-04-26T10:29:47Z</time></trkpt><trkpt lat="45.55675043152001" lon="10.85006565082595"><ele>492.80000000000007</ele><time>2026-04-26T10:29:49Z</time></trkpt><trkpt lat="45.5566330961387" lon="10.850004414606056"><ele>492.40000000000003</ele><time>2026-04-26T10:29:51Z</time></trkpt><trkpt lat="45.55657107270451" lon="10.849972881039246"><ele>492.0</ele><time>2026-04-26T10:29:52Z</time></trkpt><trkpt lat="45.55650768334709" lon="10.849941986099857"><ele>492.0</ele><time>2026-04-26T10:29:53Z</time></trkpt><trkpt lat="45.556395882208214" lon="10.84990676644269"><ele>492.0</ele><time>2026-04-26T10:29:55Z</time></trkpt><trkpt lat="45.55631928335162" lon="10.849900706595012"><ele>492.0</ele><time>2026-04-26T10:29:57Z</time></trkpt><trkpt lat="45.55625074819524" lon="10.849889855760697"><ele>492.0</ele><time>2026-04-26T10:29:58Z</time></trkpt><trkpt lat="45.55615485321416" lon="10.84990266026255"><ele>492.0</ele><time>2026-04-26T10:30:00Z</time></trkpt><trkpt lat="45.556091874067775" lon="10.849928636760003"><ele>492.0</ele><time>2026-04-26T10:30:01Z</time></trkpt><trkpt lat="45.55598233032564" lon="10.849966162963776"><ele>492.0</ele><time>2026-04-26T10:30:03Z</time></trkpt><trkpt lat="45.55588097113763" lon="10.850014346135948"><ele>492.00000000000006</ele><time>2026-04-26T10:30:05Z</time></trkpt><trkpt lat="45.555766136543504" lon="10.850085208121197"><ele>492.00000000000006</ele><time>2026-04-26T10:30:07Z</time></trkpt><trkpt lat="45.55568347311417" lon="10.850190244670824"><ele>492.0</ele><time>2026-04-26T10:30:09Z</time></trkpt><trkpt lat="45.5556405354588" lon="10.850257347739674"><ele>492.0</ele><time>2026-04-26T10:30:10Z</time></trkpt><trkpt lat="45.55560172039512" lon="10.85033121007687"><ele>493.6666666666667</ele><time>2026-04-26T10:30:11Z</time></trkpt><trkpt lat="45.55556124606499" lon="10.85040725453848"><ele>495.33333333333337</ele><time>2026-04-26T10:30:12Z</time></trkpt><trkpt lat="45.555504729795366" lon="10.850525493599278"><ele>497.0</ele><time>2026-04-26T10:30:14Z</time></trkpt><trkpt lat="45.555465420355056" lon="10.850608208843434"><ele>498.6666666666667</ele><time>2026-04-26T10:30:15Z</time></trkpt><trkpt lat="45.55540470412817" lon="10.850729184936458"><ele>500.33333333333337</ele><time>2026-04-26T10:30:17Z</time></trkpt><trkpt lat="45.55534776200416" lon="10.85078004396143"><ele>502.0</ele><time>2026-04-26T10:30:18Z</time></trkpt><trkpt lat="45.55528213026835" lon="10.850844504242875"><ele>502.00000000000006</ele><time>2026-04-26T10:30:19Z</time></trkpt><trkpt lat="45.55521094178294" lon="10.850921046266325"><ele>502.0</ele><time>2026-04-26T10:30:20Z</time></trkpt><trkpt lat="45.55515601092232" lon="10.85097174335789"><ele>502.0</ele><time>2026-04-26T10:30:21Z</time></trkpt><trkpt lat="45.55509305195686" lon="10.850968328404592"><ele>502.0</ele><time>2026-04-26T10:30:23Z</time></trkpt><trkpt lat="45.55505732154303" lon="10.850847992729749"><ele>502.00000000000006</ele><time>2026-04-26T10:30:25Z</time></trkpt><trkpt lat="45.555060454012576" lon="10.850739432848071"><ele>502.0</ele><time>2026-04-26T10:30:26Z</time></trkpt><trkpt lat="45.55503562537827" lon="10.850623647589611"><ele>502.00000000000006</ele><time>2026-04-26T10:30:27Z</time></trkpt><trkpt lat="45.55499535831234" lon="10.850538951669384"><ele>502.0</ele><time>2026-04-26T10:30:28Z</time></trkpt><trkpt lat="45.554984770523596" lon="10.850445765361751"><ele>502.0</ele><time>2026-04-26T10:30:29Z</time></trkpt><trkpt lat="45.554927345521044" lon="10.850334718912015"><ele>502.0</ele><time>2026-04-26T10:30:30Z</time></trkpt><trkpt lat="45.55490190542773" lon="10.850236213600441"><ele>502.00000000000006</ele><time>2026-04-26T10:30:31Z</time></trkpt><trkpt lat="45.55481967048839" lon="10.850137663710102"><ele>502.0</ele><time>2026-04-26T10:30:32Z</time></trkpt><trkpt lat="45.55475591858323" lon="10.85005586386963"><ele>500.40000000000003</ele><time>2026-04-26T10:30:33Z</time></trkpt><trkpt lat="45.554693955371036" lon="10.849946413024917"><ele>498.80000000000007</ele><time>2026-04-26T10:30:34Z</time></trkpt><trkpt lat="45.55463266499183" lon="10.849849944510197"><ele>497.2</ele><time>2026-04-26T10:30:35Z</time></trkpt><trkpt lat="45.55459477346598" lon="10.849758092416776"><ele>495.6</ele><time>2026-04-26T10:30:36Z</time></trkpt><trkpt lat="45.55456097882625" lon="10.849629180481076"><ele>494.0</ele><time>2026-04-26T10:30:38Z</time></trkpt><trkpt lat="45.55454654458628" lon="10.849462630498621"><ele>496.2</ele><time>2026-04-26T10:30:40Z</time></trkpt><trkpt lat="45.55453108389756" lon="10.849363433919239"><ele>498.4</ele><time>2026-04-26T10:30:41Z</time></trkpt><trkpt lat="45.55448068068418" lon="10.849266795456433"><ele>500.6</ele><time>2026-04-26T10:30:42Z</time></trkpt><trkpt lat="45.554405005288615" lon="10.849171959338396"><ele>502.8</ele><time>2026-04-26T10:30:43Z</time></trkpt><trkpt lat="45.55430872367035" lon="10.849096620702536"><ele>505.0</ele><time>2026-04-26T10:30:44Z</time></trkpt><trkpt lat="45.55420520748766" lon="10.849020209416437"><ele>505.0</ele><time>2026-04-26T10:30:45Z</time></trkpt><trkpt lat="45.5541051661048" lon="10.848935127582822"><ele>505.0</ele><time>2026-04-26T10:30:46Z</time></trkpt><trkpt lat="45.55402121853544" lon="10.84888859442005"><ele>505.0</ele><time>2026-04-26T10:30:47Z</time></trkpt><trkpt lat="45.553935753932784" lon="10.848816563217442"><ele>505.0</ele><time>2026-04-26T10:30:49Z</time></trkpt><trkpt lat="45.553958092455645" lon="10.848961475333521"><ele>505.0</ele><time>2026-04-26T10:30:54Z</time></trkpt><trkpt lat="45.554025715782494" lon="10.849038555621002"><ele>505.00000000000006</ele><time>2026-04-26T10:30:55Z</time></trkpt><trkpt lat="45.554073522104076" lon="10.849098753454056"><ele>505.0</ele><time>2026-04-26T10:30:56Z</time></trkpt><trkpt lat="45.55411452499694" lon="10.849188787597827"><ele>505.0</ele><time>2026-04-26T10:30:57Z</time></trkpt><trkpt lat="45.554151303472" lon="10.849294416309695"><ele>505.0</ele><time>2026-04-26T10:30:58Z</time></trkpt><trkpt lat="45.55418413904823" lon="10.84941105459296"><ele>505.00000000000006</ele><time>2026-04-26T10:30:59Z</time></trkpt><trkpt lat="45.55419044215479" lon="10.849511117472835"><ele>505.0</ele><time>2026-04-26T10:31:00Z</time></trkpt><trkpt lat="45.55408021760208" lon="10.849609999903096"><ele>506.4</ele><time>2026-04-26T10:31:02Z</time></trkpt><trkpt lat="45.55399797884012" lon="10.849601793607434"><ele>507.8</ele><time>2026-04-26T10:31:03Z</time></trkpt><trkpt lat="45.553920690501876" lon="10.849517542822273"><ele>509.20000000000005</ele><time>2026-04-26T10:31:04Z</time></trkpt><trkpt lat="45.55383377895146" lon="10.849469770508653"><ele>510.6</ele><time>2026-04-26T10:31:05Z</time></trkpt><trkpt lat="45.553733106074205" lon="10.849415792479684"><ele>512.0</ele><time>2026-04-26T10:31:06Z</time></trkpt><trkpt lat="45.55362643695584" lon="10.849391936346718"><ele>515.25</ele><time>2026-04-26T10:31:07Z</time></trkpt><trkpt lat="45.553521083781796" lon="10.84937177347123"><ele>518.5</ele><time>2026-04-26T10:31:08Z</time></trkpt><trkpt lat="45.553410129584066" lon="10.849371063928587"><ele>521.75</ele><time>2026-04-26T10:31:09Z</time></trkpt><trkpt lat="45.55329037612926" lon="10.849383014803205"><ele>525.0</ele><time>2026-04-26T10:31:10Z</time></trkpt><trkpt lat="45.55316690900823" lon="10.849400442921128"><ele>525.0</ele><time>2026-04-26T10:31:11Z</time></trkpt><trkpt lat="45.55304702794961" lon="10.849407168289881"><ele>525.0</ele><time>2026-04-26T10:31:12Z</time></trkpt><trkpt lat="45.552927577530966" lon="10.849397974811843"><ele>525.0</ele><time>2026-04-26T10:31:13Z</time></trkpt><trkpt lat="45.55280758552337" lon="10.849387407880767"><ele>525.0</ele><time>2026-04-26T10:31:14Z</time></trkpt><trkpt lat="45.55268670474903" lon="10.84936836308365"><ele>526.0</ele><time>2026-04-26T10:31:15Z</time></trkpt><trkpt lat="45.55256728618242" lon="10.849376713774054"><ele>527.0</ele><time>2026-04-26T10:31:16Z</time></trkpt><trkpt lat="45.55244588392617" lon="10.84941758574503"><ele>528.0</ele><time>2026-04-26T10:31:17Z</time></trkpt><trkpt lat="45.55233482976532" lon="10.849469788173623"><ele>529.0</ele><time>2026-04-26T10:31:18Z</time></trkpt><trkpt lat="45.55222818176797" lon="10.849524872969184"><ele>529.0</ele><time>2026-04-26T10:31:19Z</time></trkpt><trkpt lat="45.552114342567215" lon="10.849564203856033"><ele>529.0</ele><time>2026-04-26T10:31:20Z</time></trkpt><trkpt lat="45.55199278625299" lon="10.849589762944051"><ele>529.0</ele><time>2026-04-26T10:31:21Z</time></trkpt><trkpt lat="45.55186556657483" lon="10.849609282958987"><ele>529.0</ele><time>2026-04-26T10:31:22Z</time></trkpt><trkpt lat="45.551738281860516" lon="10.84962460830896"><ele>530.5</ele><time>2026-04-26T10:31:23Z</time></trkpt><trkpt lat="45.55161100093961" lon="10.84963320265638"><ele>532.0</ele><time>2026-04-26T10:31:24Z</time></trkpt><trkpt lat="45.55147742251603" lon="10.849643483679422"><ele>533.5</ele><time>2026-04-26T10:31:25Z</time></trkpt><trkpt lat="45.55133665584468" lon="10.849655654892961"><ele>535.0</ele><time>2026-04-26T10:31:26Z</time></trkpt><trkpt lat="45.55120132636729" lon="10.849666727576505"><ele>536.5</ele><time>2026-04-26T10:31:27Z</time></trkpt><trkpt lat="45.55106333153148" lon="10.84968052303954"><ele>538.0</ele><time>2026-04-26T10:31:28Z</time></trkpt><trkpt lat="45.550913380249895" lon="10.84969547074816"><ele>539.5</ele><time>2026-04-26T10:31:29Z</time></trkpt><trkpt lat="45.5507552378808" lon="10.849716216889686"><ele>541.0</ele><time>2026-04-26T10:31:30Z</time></trkpt><trkpt lat="45.550600245694305" lon="10.849738958237905"><ele>541.0</ele><time>2026-04-26T10:31:31Z</time></trkpt><trkpt lat="45.55046656864727" lon="10.849762560861414"><ele>541.0</ele><time>2026-04-26T10:31:32Z</time></trkpt><trkpt lat="45.55036164834733" lon="10.849785214776707"><ele>541.0</ele><time>2026-04-26T10:31:33Z</time></trkpt><trkpt lat="45.5502910615976" lon="10.849805730481703"><ele>541.0</ele><time>2026-04-26T10:31:34Z</time></trkpt><trkpt lat="45.550255270882545" lon="10.849913963344893"><ele>541.0</ele><time>2026-04-26T10:31:36Z</time></trkpt><trkpt lat="45.55034972227735" lon="10.849994782091247"><ele>541.0</ele><time>2026-04-26T10:31:38Z</time></trkpt><trkpt lat="45.550417811060164" lon="10.84997177110797"><ele>541.0</ele><time>2026-04-26T10:31:39Z</time></trkpt><trkpt lat="45.55050006606301" lon="10.849960314659686"><ele>541.0</ele><time>2026-04-26T10:31:40Z</time></trkpt><trkpt lat="45.55059573214965" lon="10.849981400403788"><ele>541.0</ele><time>2026-04-26T10:31:41Z</time></trkpt><trkpt lat="45.55070702335467" lon="10.85002721487913"><ele>541.0</ele><time>2026-04-26T10:31:42Z</time></trkpt><trkpt lat="45.55082222263408" lon="10.850086030618826"><ele>542.4</ele><time>2026-04-26T10:31:43Z</time></trkpt><trkpt lat="45.55093140036758" lon="10.850141476234008"><ele>543.8</ele><time>2026-04-26T10:31:44Z</time></trkpt><trkpt lat="45.55103293137749" lon="10.850186945055933"><ele>545.1999999999999</ele><time>2026-04-26T10:31:45Z</time></trkpt><trkpt lat="45.55111652618879" lon="10.85024019631096"><ele>546.6</ele><time>2026-04-26T10:31:46Z</time></trkpt><trkpt lat="45.55117918443789" lon="10.850297946370153"><ele>548.0</ele><time>2026-04-26T10:31:47Z</time></trkpt><trkpt lat="45.55123414287922" lon="10.850386098817006"><ele>548.0</ele><time>2026-04-26T10:31:49Z</time></trkpt><trkpt lat="45.551294523198344" lon="10.850471672266385"><ele>548.0</ele><time>2026-04-26T10:31:52Z</time></trkpt><trkpt lat="45.55125826537695" lon="10.850391757503123"><ele>548.0</ele><time>2026-04-26T10:31:59Z</time></trkpt><trkpt lat="45.55117083418951" lon="10.850289496692044"><ele>548.0</ele><time>2026-04-26T10:32:01Z</time></trkpt><trkpt lat="45.551084848429596" lon="10.850251620423585"><ele>548.0</ele><time>2026-04-26T10:32:03Z</time></trkpt><trkpt lat="45.550956028983556" lon="10.850401076165316"><ele>549.1666666666666</ele><time>2026-04-26T10:32:06Z</time></trkpt><trkpt lat="45.55091237840262" lon="10.850472033310222"><ele>550.3333333333333</ele><time>2026-04-26T10:32:07Z</time></trkpt><trkpt lat="45.55087731867102" lon="10.850550826563468"><ele>551.5</ele><time>2026-04-26T10:32:08Z</time></trkpt><trkpt lat="45.55084874821198" lon="10.850638871082724"><ele>552.6666666666666</ele><time>2026-04-26T10:32:09Z</time></trkpt><trkpt lat="45.55080990684035" lon="10.850744313885201"><ele>553.8333333333334</ele><time>2026-04-26T10:32:10Z</time></trkpt><trkpt lat="45.55077517269895" lon="10.850859723345907"><ele>555.0</ele><time>2026-04-26T10:32:11Z</time></trkpt><trkpt lat="45.55071573710639" lon="10.850983491867526"><ele>557.6666666666666</ele><time>2026-04-26T10:32:12Z</time></trkpt><trkpt lat="45.550662025613626" lon="10.85110132968258"><ele>560.3333333333334</ele><time>2026-04-26T10:32:13Z</time></trkpt><trkpt lat="45.55062579882471" lon="10.851198125050221"><ele>563.0</ele><time>2026-04-26T10:32:14Z</time></trkpt><trkpt lat="45.55060557500535" lon="10.851294839797443"><ele>565.6666666666667</ele><time>2026-04-26T10:32:15Z</time></trkpt><trkpt lat="45.550577725796614" lon="10.851385383422755"><ele>568.3333333333334</ele><time>2026-04-26T10:32:16Z</time></trkpt><trkpt lat="45.5505453840547" lon="10.851481330251026"><ele>571.0</ele><time>2026-04-26T10:32:17Z</time></trkpt><trkpt lat="45.55050023193154" lon="10.85161620571295"><ele>571.0</ele><time>2026-04-26T10:32:18Z</time></trkpt><trkpt lat="45.55044270753505" lon="10.851736025726298"><ele>571.0</ele><time>2026-04-26T10:32:19Z</time></trkpt><trkpt lat="45.55042181341621" lon="10.85184925573575"><ele>571.0</ele><time>2026-04-26T10:32:20Z</time></trkpt><trkpt lat="45.550382251805466" lon="10.851939295395722"><ele>571.0</ele><time>2026-04-26T10:32:21Z</time></trkpt><trkpt lat="45.550327396811134" lon="10.852046863911111"><ele>571.0</ele><time>2026-04-26T10:32:25Z</time></trkpt><trkpt lat="45.55024429082758" lon="10.852069500075494"><ele>571.0</ele><time>2026-04-26T10:32:26Z</time></trkpt><trkpt lat="45.55016039614027" lon="10.852127217211626"><ele>571.8</ele><time>2026-04-26T10:32:27Z</time></trkpt><trkpt lat="45.55008031667346" lon="10.852181182744363"><ele>572.6</ele><time>2026-04-26T10:32:28Z</time></trkpt><trkpt lat="45.549985132369606" lon="10.85224394747347"><ele>573.4</ele><time>2026-04-26T10:32:29Z</time></trkpt><trkpt lat="45.54988920985365" lon="10.852306641950461"><ele>574.2</ele><time>2026-04-26T10:32:30Z</time></trkpt><trkpt lat="45.54979928947112" lon="10.852389047535974"><ele>575.0</ele><time>2026-04-26T10:32:31Z</time></trkpt><trkpt lat="45.54969661941815" lon="10.852453176330313"><ele>575.0</ele><time>2026-04-26T10:32:32Z</time></trkpt><trkpt lat="45.54958362003132" lon="10.852505180296404"><ele>575.0</ele><time>2026-04-26T10:32:33Z</time></trkpt><trkpt lat="45.54948210621536" lon="10.852573433262128"><ele>575.0</ele><time>2026-04-26T10:32:34Z</time></trkpt><trkpt lat="45.549400451934275" lon="10.852653267624907"><ele>575.0</ele><time>2026-04-26T10:32:35Z</time></trkpt><trkpt lat="45.549316670213855" lon="10.852705319124933"><ele>575.0</ele><time>2026-04-26T10:32:36Z</time></trkpt><trkpt lat="45.54922587638233" lon="10.852768954755868"><ele>576.6</ele><time>2026-04-26T10:32:37Z</time></trkpt><trkpt lat="45.549144027985406" lon="10.8528232011447"><ele>578.2</ele><time>2026-04-26T10:32:38Z</time></trkpt><trkpt lat="45.54906674419024" lon="10.852876104239877"><ele>579.8</ele><time>2026-04-26T10:32:39Z</time></trkpt><trkpt lat="45.548977467236156" lon="10.852929115409832"><ele>581.4</ele><time>2026-04-26T10:32:40Z</time></trkpt><trkpt lat="45.54887643974962" lon="10.852981659656256"><ele>583.0</ele><time>2026-04-26T10:32:41Z</time></trkpt><trkpt lat="45.548787550591186" lon="10.853017690167986"><ele>583.4</ele><time>2026-04-26T10:32:42Z</time></trkpt><trkpt lat="45.5486898457969" lon="10.85306483100341"><ele>583.8</ele><time>2026-04-26T10:32:43Z</time></trkpt><trkpt lat="45.548592469622356" lon="10.853123401950157"><ele>584.2</ele><time>2026-04-26T10:32:44Z</time></trkpt><trkpt lat="45.54850112930362" lon="10.853192214469084"><ele>584.6</ele><time>2026-04-26T10:32:45Z</time></trkpt><trkpt lat="45.54842487953483" lon="10.853270454165447"><ele>585.0</ele><time>2026-04-26T10:32:46Z</time></trkpt><trkpt lat="45.548361461268804" lon="10.853343988183227"><ele>585.0</ele><time>2026-04-26T10:32:47Z</time></trkpt><trkpt lat="45.548292078767766" lon="10.853436764883819"><ele>585.0</ele><time>2026-04-26T10:32:48Z</time></trkpt><trkpt lat="45.54823033673019" lon="10.853528906519525"><ele>585.0</ele><time>2026-04-26T10:32:49Z</time></trkpt><trkpt lat="45.548175746896014" lon="10.853598495233273"><ele>585.0</ele><time>2026-04-26T10:32:50Z</time></trkpt><trkpt lat="45.548128394086405" lon="10.853702959302224"><ele>585.0</ele><time>2026-04-26T10:32:51Z</time></trkpt><trkpt lat="45.54810080276706" lon="10.853806671867316"><ele>585.0</ele><time>2026-04-26T10:32:52Z</time></trkpt><trkpt lat="45.54807857904732" lon="10.853902850883303"><ele>585.6666666666666</ele><time>2026-04-26T10:32:53Z</time></trkpt><trkpt lat="45.5480619225913" lon="10.853990313235276"><ele>586.3333333333334</ele><time>2026-04-26T10:32:54Z</time></trkpt><trkpt lat="45.54803956647137" lon="10.854084659323313"><ele>587.0</ele><time>2026-04-26T10:32:55Z</time></trkpt><trkpt lat="45.548011876064514" lon="10.854176190788648"><ele>587.6666666666667</ele><time>2026-04-26T10:32:56Z</time></trkpt><trkpt lat="45.54798386187659" lon="10.85429834313255"><ele>588.3333333333334</ele><time>2026-04-26T10:32:57Z</time></trkpt><trkpt lat="45.54796350090788" lon="10.85441436452295"><ele>589.0</ele><time>2026-04-26T10:32:58Z</time></trkpt><trkpt lat="45.54794764151013" lon="10.854547304908907"><ele>589.8</ele><time>2026-04-26T10:32:59Z</time></trkpt><trkpt lat="45.5479364606049" lon="10.854680768418548"><ele>590.5999999999999</ele><time>2026-04-26T10:33:00Z</time></trkpt><trkpt lat="45.54792699886016" lon="10.854828501989022"><ele>591.4</ele><time>2026-04-26T10:33:01Z</time></trkpt><trkpt lat="45.54791088931024" lon="10.85498773141837"><ele>592.1999999999999</ele><time>2026-04-26T10:33:02Z</time></trkpt><trkpt lat="45.54789971163975" lon="10.855134773713944"><ele>593.0</ele><time>2026-04-26T10:33:03Z</time></trkpt><trkpt lat="45.54789209970988" lon="10.855293561162693"><ele>594.8</ele><time>2026-04-26T10:33:04Z</time></trkpt><trkpt lat="45.54788663169428" lon="10.855454634639287"><ele>596.5999999999999</ele><time>2026-04-26T10:33:05Z</time></trkpt><trkpt lat="45.54787185941543" lon="10.855594676315526"><ele>598.4000000000001</ele><time>2026-04-26T10:33:06Z</time></trkpt><trkpt lat="45.5478670891757" lon="10.855724243147327"><ele>600.2</ele><time>2026-04-26T10:33:07Z</time></trkpt><trkpt lat="45.547857070303714" lon="10.855849732499864"><ele>602.0</ele><time>2026-04-26T10:33:08Z</time></trkpt><trkpt lat="45.5478406343109" lon="10.855947820289687"><ele>599.8000000000001</ele><time>2026-04-26T10:33:09Z</time></trkpt><trkpt lat="45.54780299383121" lon="10.85602095953307"><ele>597.6</ele><time>2026-04-26T10:33:10Z</time></trkpt><trkpt lat="45.547678345472455" lon="10.856026432804168"><ele>595.4000000000001</ele><time>2026-04-26T10:33:12Z</time></trkpt><trkpt lat="45.54759785573697" lon="10.856039244499247"><ele>593.2</ele><time>2026-04-26T10:33:13Z</time></trkpt><trkpt lat="45.54748836891458" lon="10.856076533472269"><ele>591.0</ele><time>2026-04-26T10:33:14Z</time></trkpt><trkpt lat="45.54737295783519" lon="10.85608627021135"><ele>591.0</ele><time>2026-04-26T10:33:15Z</time></trkpt><trkpt lat="45.54726170805231" lon="10.856122102788053"><ele>591.0</ele><time>2026-04-26T10:33:16Z</time></trkpt><trkpt lat="45.54714040585008" lon="10.856161979295308"><ele>591.0</ele><time>2026-04-26T10:33:17Z</time></trkpt><trkpt lat="45.54701423859347" lon="10.856213316566311"><ele>591.0</ele><time>2026-04-26T10:33:18Z</time></trkpt><trkpt lat="45.546904449491564" lon="10.856270243628279"><ele>588.0</ele><time>2026-04-26T10:33:19Z</time></trkpt><trkpt lat="45.54680919115891" lon="10.856329996408899"><ele>585.0</ele><time>2026-04-26T10:33:20Z</time></trkpt><trkpt lat="45.546727246336985" lon="10.85639704889285"><ele>582.0</ele><time>2026-04-26T10:33:21Z</time></trkpt><trkpt lat="45.54664823731444" lon="10.856454755370814"><ele>579.0</ele><time>2026-04-26T10:33:22Z</time></trkpt><trkpt lat="45.546556515913736" lon="10.856516236660196"><ele>576.0</ele><time>2026-04-26T10:33:23Z</time></trkpt><trkpt lat="45.54648057673099" lon="10.856571193037825"><ele>576.0</ele><time>2026-04-26T10:33:24Z</time></trkpt><trkpt lat="45.546403220793536" lon="10.856653605126448"><ele>576.0</ele><time>2026-04-26T10:33:25Z</time></trkpt><trkpt lat="45.54633873130459" lon="10.856748382677726"><ele>576.0</ele><time>2026-04-26T10:33:26Z</time></trkpt><trkpt lat="45.54627555220351" lon="10.856852668624375"><ele>576.0</ele><time>2026-04-26T10:33:27Z</time></trkpt><trkpt lat="45.546206257106824" lon="10.856957048900707"><ele>576.0</ele><time>2026-04-26T10:33:28Z</time></trkpt><trkpt lat="45.54614166939673" lon="10.85702564411991"><ele>574.8333333333334</ele><time>2026-04-26T10:33:29Z</time></trkpt><trkpt lat="45.54608522251259" lon="10.857151762202887"><ele>573.6666666666666</ele><time>2026-04-26T10:33:31Z</time></trkpt><trkpt lat="45.546151878586286" lon="10.857294968414205"><ele>572.5</ele><time>2026-04-26T10:33:33Z</time></trkpt><trkpt lat="45.54619707326485" lon="10.857363303206634"><ele>571.3333333333333</ele><time>2026-04-26T10:33:34Z</time></trkpt><trkpt lat="45.54624015061173" lon="10.857432279233862"><ele>570.1666666666666</ele><time>2026-04-26T10:33:35Z</time></trkpt><trkpt lat="45.5462988339531" lon="10.857522828712286"><ele>569.0</ele><time>2026-04-26T10:33:36Z</time></trkpt><trkpt lat="45.5463670130174" lon="10.857639943194494"><ele>564.5</ele><time>2026-04-26T10:33:37Z</time></trkpt><trkpt lat="45.5464315895314" lon="10.857758262626975"><ele>560.0</ele><time>2026-04-26T10:33:38Z</time></trkpt><trkpt lat="45.5465096463873" lon="10.857861279573893"><ele>555.5</ele><time>2026-04-26T10:33:39Z</time></trkpt><trkpt lat="45.546593440145735" lon="10.858001147954209"><ele>551.0</ele><time>2026-04-26T10:33:40Z</time></trkpt><trkpt lat="45.54667732117697" lon="10.858147087987755"><ele>551.0</ele><time>2026-04-26T10:33:41Z</time></trkpt><trkpt lat="45.54677111903285" lon="10.858300143876857"><ele>551.0</ele><time>2026-04-26T10:33:42Z</time></trkpt><trkpt lat="45.546863944853726" lon="10.858444751805212"><ele>551.0</ele><time>2026-04-26T10:33:43Z</time></trkpt><trkpt lat="45.54695119530503" lon="10.858582574030143"><ele>551.0</ele><time>2026-04-26T10:33:44Z</time></trkpt><trkpt lat="45.54703218156478" lon="10.8587219617481"><ele>553.5</ele><time>2026-04-26T10:33:45Z</time></trkpt><trkpt lat="45.54711151620178" lon="10.858853748007762"><ele>556.0</ele><time>2026-04-26T10:33:46Z</time></trkpt><trkpt lat="45.54718754093507" lon="10.858981210946878"><ele>558.5</ele><time>2026-04-26T10:33:47Z</time></trkpt><trkpt lat="45.54726098802689" lon="10.859121160020717"><ele>561.0</ele><time>2026-04-26T10:33:48Z</time></trkpt><trkpt lat="45.547326460200864" lon="10.859247385241078"><ele>557.2</ele><time>2026-04-26T10:33:49Z</time></trkpt><trkpt lat="45.54739653600608" lon="10.859374955954133"><ele>553.4000000000001</ele><time>2026-04-26T10:33:50Z</time></trkpt><trkpt lat="45.54745661889858" lon="10.85950463286575"><ele>549.6</ele><time>2026-04-26T10:33:51Z</time></trkpt><trkpt lat="45.547491859247735" lon="10.859622433219023"><ele>545.8000000000001</ele><time>2026-04-26T10:33:52Z</time></trkpt><trkpt lat="45.54751407745162" lon="10.859768307535479"><ele>542.0</ele><time>2026-04-26T10:33:53Z</time></trkpt><trkpt lat="45.54753395119863" lon="10.859893934346646"><ele>542.0</ele><time>2026-04-26T10:33:54Z</time></trkpt><trkpt lat="45.547561248848915" lon="10.860024673119765"><ele>542.0</ele><time>2026-04-26T10:33:55Z</time></trkpt><trkpt lat="45.547593437387405" lon="10.860157632468537"><ele>542.0</ele><time>2026-04-26T10:33:56Z</time></trkpt><trkpt lat="45.54764314868542" lon="10.860304725233009"><ele>542.0</ele><time>2026-04-26T10:33:57Z</time></trkpt><trkpt lat="45.54769336119935" lon="10.860451212310954"><ele>542.0</ele><time>2026-04-26T10:33:58Z</time></trkpt><trkpt lat="45.5477568453533" lon="10.860616304772233"><ele>538.25</ele><time>2026-04-26T10:33:59Z</time></trkpt><trkpt lat="45.54781647119054" lon="10.86076931714841"><ele>534.5</ele><time>2026-04-26T10:34:00Z</time></trkpt><trkpt lat="45.54787395070135" lon="10.860913843944068"><ele>530.75</ele><time>2026-04-26T10:34:01Z</time></trkpt><trkpt lat="45.547918873003184" lon="10.86105590420918"><ele>527.0</ele><time>2026-04-26T10:34:02Z</time></trkpt><trkpt lat="45.54793974785477" lon="10.86120782012289"><ele>527.0</ele><time>2026-04-26T10:34:03Z</time></trkpt><trkpt lat="45.54793754786655" lon="10.861355778161677"><ele>527.0</ele><time>2026-04-26T10:34:04Z</time></trkpt><trkpt lat="45.5479051287048" lon="10.861499399848327"><ele>527.0</ele><time>2026-04-26T10:34:05Z</time></trkpt><trkpt lat="45.54784143223123" lon="10.861611498669761"><ele>527.0</ele><time>2026-04-26T10:34:06Z</time></trkpt><trkpt lat="45.54777310905322" lon="10.861705700660451"><ele>527.0</ele><time>2026-04-26T10:34:07Z</time></trkpt><trkpt lat="45.547703599389635" lon="10.861785949874218"><ele>521.0</ele><time>2026-04-26T10:34:08Z</time></trkpt><trkpt lat="45.547626787914645" lon="10.861898685960693"><ele>515.0</ele><time>2026-04-26T10:34:09Z</time></trkpt><trkpt lat="45.54752579704662" lon="10.862007848464375"><ele>509.0</ele><time>2026-04-26T10:34:10Z</time></trkpt><trkpt lat="45.54742389464962" lon="10.862122508224504"><ele>503.0</ele><time>2026-04-26T10:34:11Z</time></trkpt><trkpt lat="45.54731511963165" lon="10.862227784466885"><ele>503.0</ele><time>2026-04-26T10:34:12Z</time></trkpt><trkpt lat="45.54719547775707" lon="10.862320346152513"><ele>503.0</ele><time>2026-04-26T10:34:13Z</time></trkpt><trkpt lat="45.54709067783324" lon="10.862388477196715"><ele>503.0</ele><time>2026-04-26T10:34:14Z</time></trkpt><trkpt lat="45.54699668547143" lon="10.862442691183494"><ele>503.0</ele><time>2026-04-26T10:34:15Z</time></trkpt><trkpt lat="45.546902556953455" lon="10.86248065950774"><ele>501.66666666666663</ele><time>2026-04-26T10:34:16Z</time></trkpt><trkpt lat="45.54681275268583" lon="10.862506168373313"><ele>500.3333333333333</ele><time>2026-04-26T10:34:17Z</time></trkpt><trkpt lat="45.546733744771785" lon="10.862534223969028"><ele>499.0</ele><time>2026-04-26T10:34:18Z</time></trkpt><trkpt lat="45.54666682833725" lon="10.862563137653598"><ele>497.66666666666663</ele><time>2026-04-26T10:34:19Z</time></trkpt><trkpt lat="45.546594610586205" lon="10.86257466031751"><ele>496.3333333333333</ele><time>2026-04-26T10:34:21Z</time></trkpt><trkpt lat="45.54658936249463" lon="10.86245618001666"><ele>495.0</ele><time>2026-04-26T10:34:23Z</time></trkpt><trkpt lat="45.546568850924054" lon="10.862341196282934"><ele>495.0</ele><time>2026-04-26T10:34:25Z</time></trkpt><trkpt lat="45.54656866889103" lon="10.86217628566057"><ele>495.0</ele><time>2026-04-26T10:34:27Z</time></trkpt><trkpt lat="45.54656819212091" lon="10.862051705807888"><ele>495.0</ele><time>2026-04-26T10:34:28Z</time></trkpt><trkpt lat="45.5465445769241" lon="10.861929850929112"><ele>495.0</ele><time>2026-04-26T10:34:29Z</time></trkpt><trkpt lat="45.54652200479247" lon="10.861789730894104"><ele>495.0</ele><time>2026-04-26T10:34:30Z</time></trkpt><trkpt lat="45.54649783754584" lon="10.861642848294442"><ele>497.2</ele><time>2026-04-26T10:34:31Z</time></trkpt><trkpt lat="45.54646912965092" lon="10.861494729748673"><ele>499.4</ele><time>2026-04-26T10:34:32Z</time></trkpt><trkpt lat="45.54643403284323" lon="10.861363155203962"><ele>501.6</ele><time>2026-04-26T10:34:33Z</time></trkpt><trkpt lat="45.546397848342515" lon="10.8612329988045"><ele>503.8</ele><time>2026-04-26T10:34:34Z</time></trkpt><trkpt lat="45.54636762067273" lon="10.861132647126233"><ele>506.0</ele><time>2026-04-26T10:34:35Z</time></trkpt><trkpt lat="45.54633907071732" lon="10.860976951037816"><ele>507.3333333333333</ele><time>2026-04-26T10:34:37Z</time></trkpt><trkpt lat="45.546300351358326" lon="10.860905658045285"><ele>508.66666666666663</ele><time>2026-04-26T10:34:38Z</time></trkpt><trkpt lat="45.54626418002532" lon="10.860796080352413"><ele>510.0</ele><time>2026-04-26T10:34:39Z</time></trkpt><trkpt lat="45.54621450811432" lon="10.860690256329875"><ele>511.33333333333337</ele><time>2026-04-26T10:34:40Z</time></trkpt><trkpt lat="45.54617881793506" lon="10.860561392575283"><ele>512.6666666666667</ele><time>2026-04-26T10:34:41Z</time></trkpt><trkpt lat="45.54616166474731" lon="10.860440659102649"><ele>514.0</ele><time>2026-04-26T10:34:42Z</time></trkpt><trkpt lat="45.54614181281638" lon="10.860299647958966"><ele>512.0</ele><time>2026-04-26T10:34:43Z</time></trkpt><trkpt lat="45.54611926609282" lon="10.860119752034446"><ele>510.0</ele><time>2026-04-26T10:34:44Z</time></trkpt><trkpt lat="45.546082629796224" lon="10.859952907770772"><ele>508.0</ele><time>2026-04-26T10:34:45Z</time></trkpt><trkpt lat="45.54602960525985" lon="10.859806846068265"><ele>506.0</ele><time>2026-04-26T10:34:46Z</time></trkpt><trkpt lat="45.5459747179099" lon="10.859687760340028"><ele>505.99999999999994</ele><time>2026-04-26T10:34:47Z</time></trkpt><trkpt lat="45.54597002913957" lon="10.859552613738785"><ele>506.0</ele><time>2026-04-26T10:34:48Z</time></trkpt><trkpt lat="45.545941975523306" lon="10.859447315948177"><ele>506.0</ele><time>2026-04-26T10:34:49Z</time></trkpt><trkpt lat="45.54590188092596" lon="10.859359557325092"><ele>506.0</ele><time>2026-04-26T10:34:50Z</time></trkpt><trkpt lat="45.54588655896278" lon="10.859248692850382"><ele>505.99999999999994</ele><time>2026-04-26T10:34:51Z</time></trkpt><trkpt lat="45.545852783062905" lon="10.85915266627501"><ele>506.0</ele><time>2026-04-26T10:34:52Z</time></trkpt><trkpt lat="45.54584234057746" lon="10.859043292949016"><ele>508.16666666666663</ele><time>2026-04-26T10:34:53Z</time></trkpt><trkpt lat="45.545819399468954" lon="10.858959033721204"><ele>510.3333333333333</ele><time>2026-04-26T10:34:54Z</time></trkpt><trkpt lat="45.54577490640141" lon="10.858883018926443"><ele>512.5</ele><time>2026-04-26T10:34:55Z</time></trkpt><trkpt lat="45.545714645852584" lon="10.858797182576792"><ele>514.6666666666666</ele><time>2026-04-26T10:34:56Z</time></trkpt><trkpt lat="45.54566204799756" lon="10.858702409027618"><ele>516.8333333333334</ele><time>2026-04-26T10:34:57Z</time></trkpt><trkpt lat="45.54560801165345" lon="10.858567935897682"><ele>519.0</ele><time>2026-04-26T10:34:59Z</time></trkpt><trkpt lat="45.54558579493232" lon="10.858398392940265"><ele>518.2</ele><time>2026-04-26T10:35:01Z</time></trkpt><trkpt lat="45.54554872407065" lon="10.858323982168486"><ele>517.4</ele><time>2026-04-26T10:35:02Z</time></trkpt><trkpt lat="45.5454272119052" lon="10.858166077438133"><ele>516.6</ele><time>2026-04-26T10:35:04Z</time></trkpt><trkpt lat="45.54534275908223" lon="10.858094095437176"><ele>515.8</ele><time>2026-04-26T10:35:05Z</time></trkpt><trkpt lat="45.545274732703895" lon="10.858026581857295"><ele>515.0</ele><time>2026-04-26T10:35:06Z</time></trkpt><trkpt lat="45.545176879894456" lon="10.85793724795165"><ele>515.0</ele><time>2026-04-26T10:35:07Z</time></trkpt><trkpt lat="45.545105142729305" lon="10.857844195692644"><ele>515.0</ele><time>2026-04-26T10:35:08Z</time></trkpt><trkpt lat="45.54503822140792" lon="10.857805654320254"><ele>515.0</ele><time>2026-04-26T10:35:09Z</time></trkpt><trkpt lat="45.54496030577645" lon="10.857727584129133"><ele>515.0</ele><time>2026-04-26T10:35:10Z</time></trkpt><trkpt lat="45.54489057808072" lon="10.8576463848267"><ele>515.0</ele><time>2026-04-26T10:35:11Z</time></trkpt><trkpt lat="45.5447960693494" lon="10.85755650743751"><ele>516.8333333333333</ele><time>2026-04-26T10:35:12Z</time></trkpt><trkpt lat="45.54471508267582" lon="10.85749079700125"><ele>518.6666666666666</ele><time>2026-04-26T10:35:13Z</time></trkpt><trkpt lat="45.54462136959634" lon="10.857407686666226"><ele>520.5</ele><time>2026-04-26T10:35:14Z</time></trkpt><trkpt lat="45.54455990704036" lon="10.857342432823177"><ele>522.3333333333334</ele><time>2026-04-26T10:35:15Z</time></trkpt><trkpt lat="45.54449177729757" lon="10.857291094700948"><ele>524.1666666666667</ele><time>2026-04-26T10:35:16Z</time></trkpt><trkpt lat="45.54441665909306" lon="10.85723030536172"><ele>526.0</ele><time>2026-04-26T10:35:17Z</time></trkpt><trkpt lat="45.544339349304835" lon="10.85714972963688"><ele>526.0</ele><time>2026-04-26T10:35:18Z</time></trkpt><trkpt lat="45.544277138114914" lon="10.857083744401281"><ele>526.0</ele><time>2026-04-26T10:35:19Z</time></trkpt><trkpt lat="45.5442003666273" lon="10.856984946038212"><ele>526.0</ele><time>2026-04-26T10:35:20Z</time></trkpt><trkpt lat="45.5441086832721" lon="10.856920072563279"><ele>526.0</ele><time>2026-04-26T10:35:21Z</time></trkpt><trkpt lat="45.543990342289945" lon="10.856881704421982"><ele>526.0</ele><time>2026-04-26T10:35:24Z</time></trkpt><trkpt lat="45.54391471368744" lon="10.856881664911159"><ele>526.0</ele><time>2026-04-26T10:35:25Z</time></trkpt><trkpt lat="45.54383431674295" lon="10.85684398223387"><ele>526.0</ele><time>2026-04-26T10:35:26Z</time></trkpt><trkpt lat="45.54375321756566" lon="10.856783987674548"><ele>526.0</ele><time>2026-04-26T10:35:27Z</time></trkpt><trkpt lat="45.5436790960997" lon="10.856749442770536"><ele>526.0</ele><time>2026-04-26T10:35:28Z</time></trkpt><trkpt lat="45.543596432584685" lon="10.856742224493305"><ele>526.0</ele><time>2026-04-26T10:35:29Z</time></trkpt><trkpt lat="45.54349797215749" lon="10.856697818486658"><ele>526.0</ele><time>2026-04-26T10:35:30Z</time></trkpt><trkpt lat="45.54337889224455" lon="10.85667271180424"><ele>525.0</ele><time>2026-04-26T10:35:31Z</time></trkpt><trkpt lat="45.54325422626552" lon="10.856670861493754"><ele>524.0</ele><time>2026-04-26T10:35:32Z</time></trkpt><trkpt lat="45.543132330836464" lon="10.856648834547402"><ele>523.0</ele><time>2026-04-26T10:35:33Z</time></trkpt><trkpt lat="45.54303100904138" lon="10.856624136059414"><ele>522.0</ele><time>2026-04-26T10:35:34Z</time></trkpt><trkpt lat="45.54292401528462" lon="10.856599810848461"><ele>521.2</ele><time>2026-04-26T10:35:35Z</time></trkpt><trkpt lat="45.542818905210396" lon="10.856584706362264"><ele>520.4000000000001</ele><time>2026-04-26T10:35:36Z</time></trkpt><trkpt lat="45.54272389432974" lon="10.856565051642253"><ele>519.5999999999999</ele><time>2026-04-26T10:35:37Z</time></trkpt><trkpt lat="45.54262980679328" lon="10.856539286631106"><ele>518.8</ele><time>2026-04-26T10:35:38Z</time></trkpt><trkpt lat="45.54253178752212" lon="10.856524602416698"><ele>518.0</ele><time>2026-04-26T10:35:39Z</time></trkpt><trkpt lat="45.5424439125996" lon="10.856507909013752"><ele>518.0</ele><time>2026-04-26T10:35:40Z</time></trkpt><trkpt lat="45.54235526349672" lon="10.856492315128238"><ele>518.0</ele><time>2026-04-26T10:35:41Z</time></trkpt><trkpt lat="45.54225947893128" lon="10.856473703611162"><ele>518.0</ele><time>2026-04-26T10:35:42Z</time></trkpt><trkpt lat="45.542157567586585" lon="10.856459542143305"><ele>518.0</ele><time>2026-04-26T10:35:43Z</time></trkpt><trkpt lat="45.54207517035864" lon="10.856425906797583"><ele>518.0</ele><time>2026-04-26T10:35:44Z</time></trkpt><trkpt lat="45.541985206103675" lon="10.856413524188392"><ele>516.5</ele><time>2026-04-26T10:35:45Z</time></trkpt><trkpt lat="45.54190250233848" lon="10.856402140899156"><ele>515.0</ele><time>2026-04-26T10:35:46Z</time></trkpt><trkpt lat="45.5418113416912" lon="10.856410543720076"><ele>513.5</ele><time>2026-04-26T10:35:47Z</time></trkpt><trkpt lat="45.54172636614" lon="10.85640483657052"><ele>512.0</ele><time>2026-04-26T10:35:48Z</time></trkpt><trkpt lat="45.54163813062511" lon="10.856392838912148"><ele>510.49999999999994</ele><time>2026-04-26T10:35:49Z</time></trkpt><trkpt lat="45.54153772947238" lon="10.856379681137238"><ele>509.0</ele><time>2026-04-26T10:35:50Z</time></trkpt><trkpt lat="45.54143931025067" lon="10.856371931474802"><ele>509.0</ele><time>2026-04-26T10:35:51Z</time></trkpt><trkpt lat="45.54132753926756" lon="10.85636155480591"><ele>509.0</ele><time>2026-04-26T10:35:52Z</time></trkpt><trkpt lat="45.541214381547775" lon="10.856349974905427"><ele>509.0</ele><time>2026-04-26T10:35:53Z</time></trkpt><trkpt lat="45.54111366565318" lon="10.856316110214772"><ele>509.0</ele><time>2026-04-26T10:35:54Z</time></trkpt><trkpt lat="45.541029255983524" lon="10.85631942424987"><ele>509.0</ele><time>2026-04-26T10:35:55Z</time></trkpt><trkpt lat="45.54096151072072" lon="10.85637030631462"><ele>506.6</ele><time>2026-04-26T10:35:56Z</time></trkpt><trkpt lat="45.54090061327082" lon="10.85650824033422"><ele>504.2</ele><time>2026-04-26T10:35:58Z</time></trkpt><trkpt lat="45.54086759048033" lon="10.856592831208044"><ele>501.80000000000007</ele><time>2026-04-26T10:35:59Z</time></trkpt><trkpt lat="45.54086285185368" lon="10.856713730968831"><ele>499.40000000000003</ele><time>2026-04-26T10:36:00Z</time></trkpt><trkpt lat="45.54084958624967" lon="10.856868032146277"><ele>497.0</ele><time>2026-04-26T10:36:01Z</time></trkpt><trkpt lat="45.54082554829537" lon="10.857018058285366"><ele>496.40000000000003</ele><time>2026-04-26T10:36:02Z</time></trkpt><trkpt lat="45.540815203521746" lon="10.857168060086432"><ele>495.80000000000007</ele><time>2026-04-26T10:36:03Z</time></trkpt><trkpt lat="45.54079967300929" lon="10.857284955034928"><ele>495.2</ele><time>2026-04-26T10:36:04Z</time></trkpt><trkpt lat="45.54078185819634" lon="10.857421129149554"><ele>494.6</ele><time>2026-04-26T10:36:05Z</time></trkpt><trkpt lat="45.54076443344026" lon="10.857523593466881"><ele>494.0</ele><time>2026-04-26T10:36:06Z</time></trkpt><trkpt lat="45.540745047911564" lon="10.857652815104109"><ele>492.2</ele><time>2026-04-26T10:36:07Z</time></trkpt><trkpt lat="45.54076373757663" lon="10.857823534712084"><ele>490.4</ele><time>2026-04-26T10:36:09Z</time></trkpt><trkpt lat="45.54080614351662" lon="10.857892562783778"><ele>488.6</ele><time>2026-04-26T10:36:10Z</time></trkpt><trkpt lat="45.540867688338366" lon="10.857955917150829"><ele>486.8</ele><time>2026-04-26T10:36:11Z</time></trkpt><trkpt lat="45.5409506698073" lon="10.858023189008428"><ele>485.0</ele><time>2026-04-26T10:36:12Z</time></trkpt><trkpt lat="45.54105071427848" lon="10.858073353837197"><ele>485.0</ele><time>2026-04-26T10:36:13Z</time></trkpt><trkpt lat="45.541161383981084" lon="10.858146425401246"><ele>485.0</ele><time>2026-04-26T10:36:14Z</time></trkpt><trkpt lat="45.54126676544093" lon="10.858194860856834"><ele>485.0</ele><time>2026-04-26T10:36:15Z</time></trkpt><trkpt lat="45.54136649716378" lon="10.85826814633228"><ele>485.0</ele><time>2026-04-26T10:36:16Z</time></trkpt><trkpt lat="45.54146091405494" lon="10.858324391630035"><ele>485.0</ele><time>2026-04-26T10:36:17Z</time></trkpt><trkpt lat="45.54155690748355" lon="10.858381576082577"><ele>484.49999999999994</ele><time>2026-04-26T10:36:18Z</time></trkpt><trkpt lat="45.5416355079951" lon="10.858403892565079"><ele>484.0</ele><time>2026-04-26T10:36:19Z</time></trkpt><trkpt lat="45.54169428106222" lon="10.858458692309668"><ele>483.5</ele><time>2026-04-26T10:36:20Z</time></trkpt><trkpt lat="45.541786514913696" lon="10.858533166589503"><ele>483.0</ele><time>2026-04-26T10:36:22Z</time></trkpt><trkpt lat="45.54186548849647" lon="10.8585562925278"><ele>482.49999999999994</ele><time>2026-04-26T10:36:23Z</time></trkpt><trkpt lat="45.541957650451494" lon="10.858594671815233"><ele>482.0</ele><time>2026-04-26T10:36:24Z</time></trkpt><trkpt lat="45.54206554417845" lon="10.858588148729654"><ele>482.0</ele><time>2026-04-26T10:36:25Z</time></trkpt><trkpt lat="45.54217897900976" lon="10.8586068255451"><ele>482.0</ele><time>2026-04-26T10:36:26Z</time></trkpt><trkpt lat="45.54230573263836" lon="10.858624530976641"><ele>482.0</ele><time>2026-04-26T10:36:27Z</time></trkpt><trkpt lat="45.54244243381522" lon="10.858630662482046"><ele>482.0</ele><time>2026-04-26T10:36:28Z</time></trkpt><trkpt lat="45.54257982828505" lon="10.85862964728625"><ele>482.0</ele><time>2026-04-26T10:36:29Z</time></trkpt><trkpt lat="45.542699013493504" lon="10.858620925124818"><ele>482.00000000000006</ele><time>2026-04-26T10:36:30Z</time></trkpt><trkpt lat="45.54280788852641" lon="10.858606561560364"><ele>482.00000000000006</ele><time>2026-04-26T10:36:31Z</time></trkpt><trkpt lat="45.542910870413586" lon="10.85861916754675"><ele>482.0</ele><time>2026-04-26T10:36:32Z</time></trkpt><trkpt lat="45.54301076249914" lon="10.858595735231395"><ele>482.0</ele><time>2026-04-26T10:36:33Z</time></trkpt><trkpt lat="45.543105581400425" lon="10.858564076686235"><ele>482.0</ele><time>2026-04-26T10:36:34Z</time></trkpt><trkpt lat="45.543215034571304" lon="10.858508108794723"><ele>482.0</ele><time>2026-04-26T10:36:35Z</time></trkpt><trkpt lat="45.543322521755634" lon="10.858445747714875"><ele>482.0</ele><time>2026-04-26T10:36:36Z</time></trkpt><trkpt lat="45.543427160692474" lon="10.858390740301855"><ele>482.0</ele><time>2026-04-26T10:36:37Z</time></trkpt><trkpt lat="45.54353427271635" lon="10.858358682170522"><ele>482.16666666666663</ele><time>2026-04-26T10:36:38Z</time></trkpt><trkpt lat="45.54362818203159" lon="10.858347207117538"><ele>482.3333333333333</ele><time>2026-04-26T10:36:39Z</time></trkpt><trkpt lat="45.54370416911681" lon="10.858343886562047"><ele>482.5</ele><time>2026-04-26T10:36:40Z</time></trkpt><trkpt lat="45.543775422129855" lon="10.858342031091418"><ele>482.66666666666663</ele><time>2026-04-26T10:36:41Z</time></trkpt><trkpt lat="45.54381923157635" lon="10.858425635315903"><ele>482.8333333333333</ele><time>2026-04-26T10:36:42Z</time></trkpt><trkpt lat="45.54389003643057" lon="10.858482941039046"><ele>483.0</ele><time>2026-04-26T10:36:43Z</time></trkpt><trkpt lat="45.54397034789517" lon="10.858540453244984"><ele>483.0</ele><time>2026-04-26T10:36:44Z</time></trkpt><trkpt lat="45.54408998013338" lon="10.85858890741585"><ele>483.0</ele><time>2026-04-26T10:36:45Z</time></trkpt><trkpt lat="45.54420899304187" lon="10.858626763728177"><ele>483.0</ele><time>2026-04-26T10:36:46Z</time></trkpt><trkpt lat="45.544306780785575" lon="10.858686991049579"><ele>483.0</ele><time>2026-04-26T10:36:47Z</time></trkpt><trkpt lat="45.544390805647204" lon="10.858761848998636"><ele>483.0</ele><time>2026-04-26T10:36:48Z</time></trkpt><trkpt lat="45.54446312378148" lon="10.858863868215721"><ele>482.99999999999994</ele><time>2026-04-26T10:36:49Z</time></trkpt><trkpt lat="45.54452472749759" lon="10.858975390676148"><ele>482.99999999999994</ele><time>2026-04-26T10:36:50Z</time></trkpt><trkpt lat="45.54459212551713" lon="10.859119918210565"><ele>483.0</ele><time>2026-04-26T10:36:51Z</time></trkpt><trkpt lat="45.54465198478889" lon="10.85925430251597"><ele>483.0</ele><time>2026-04-26T10:36:52Z</time></trkpt><trkpt lat="45.54471822512906" lon="10.859381871068518"><ele>483.0</ele><time>2026-04-26T10:36:53Z</time></trkpt><trkpt lat="45.5447713540816" lon="10.859503348398064"><ele>482.99999999999994</ele><time>2026-04-26T10:36:54Z</time></trkpt><trkpt lat="45.54482216531343" lon="10.859620194984798"><ele>482.99999999999994</ele><time>2026-04-26T10:36:55Z</time></trkpt><trkpt lat="45.5448575223345" lon="10.85975334876123"><ele>483.0</ele><time>2026-04-26T10:36:56Z</time></trkpt><trkpt lat="45.54490334973833" lon="10.859862444399143"><ele>483.0</ele><time>2026-04-26T10:36:57Z</time></trkpt><trkpt lat="45.54493138696271" lon="10.859985379387629"><ele>481.4</ele><time>2026-04-26T10:36:58Z</time></trkpt><trkpt lat="45.54496712891094" lon="10.860133398857622"><ele>479.79999999999995</ele><time>2026-04-26T10:36:59Z</time></trkpt><trkpt lat="45.545003549901956" lon="10.860274301417356"><ele>478.2</ele><time>2026-04-26T10:37:00Z</time></trkpt><trkpt lat="45.54502576280982" lon="10.86042788535606"><ele>476.6</ele><time>2026-04-26T10:37:01Z</time></trkpt><trkpt lat="45.54503746469382" lon="10.860550227761186"><ele>475.0</ele><time>2026-04-26T10:37:02Z</time></trkpt><trkpt lat="45.54503807910402" lon="10.860672881425064"><ele>475.0</ele><time>2026-04-26T10:37:03Z</time></trkpt><trkpt lat="45.54504414207177" lon="10.860796796335869"><ele>475.0</ele><time>2026-04-26T10:37:04Z</time></trkpt><trkpt lat="45.54504611593369" lon="10.86093243940809"><ele>475.0</ele><time>2026-04-26T10:37:05Z</time></trkpt><trkpt lat="45.54505010710746" lon="10.861085221977332"><ele>475.0</ele><time>2026-04-26T10:37:06Z</time></trkpt><trkpt lat="45.54504648297049" lon="10.861215510380875"><ele>475.0</ele><time>2026-04-26T10:37:07Z</time></trkpt><trkpt lat="45.54503220397934" lon="10.861395364932841"><ele>473.8</ele><time>2026-04-26T10:37:08Z</time></trkpt><trkpt lat="45.545021270497486" lon="10.861574576548918"><ele>472.6</ele><time>2026-04-26T10:37:09Z</time></trkpt><trkpt lat="45.545033807578875" lon="10.86172146709565"><ele>471.4</ele><time>2026-04-26T10:37:10Z</time></trkpt><trkpt lat="45.54504740010834" lon="10.86185291304938"><ele>470.2</ele><time>2026-04-26T10:37:11Z</time></trkpt><trkpt lat="45.54507245511567" lon="10.861975513712466"><ele>469.0</ele><time>2026-04-26T10:37:12Z</time></trkpt><trkpt lat="45.54512782056071" lon="10.862097530974419"><ele>470.6</ele><time>2026-04-26T10:37:13Z</time></trkpt><trkpt lat="45.545200336971234" lon="10.862221017350931"><ele>472.2</ele><time>2026-04-26T10:37:14Z</time></trkpt><trkpt lat="45.54528106861738" lon="10.862310753721662"><ele>473.80000000000007</ele><time>2026-04-26T10:37:15Z</time></trkpt><trkpt lat="45.54536936334464" lon="10.86235900650851"><ele>475.40000000000003</ele><time>2026-04-26T10:37:16Z</time></trkpt><trkpt lat="45.54547123996285" lon="10.862396570671168"><ele>477.0</ele><time>2026-04-26T10:37:17Z</time></trkpt><trkpt lat="45.54554802922037" lon="10.862401269817708"><ele>477.0</ele><time>2026-04-26T10:37:18Z</time></trkpt><trkpt lat="45.545611103420676" lon="10.86242055504394"><ele>477.0</ele><time>2026-04-26T10:37:19Z</time></trkpt><trkpt lat="45.54567118264803" lon="10.862522283393533"><ele>477.0</ele><time>2026-04-26T10:37:21Z</time></trkpt><trkpt lat="45.545656629649926" lon="10.862646309323784"><ele>477.0</ele><time>2026-04-26T10:37:23Z</time></trkpt><trkpt lat="45.54565924209563" lon="10.86274406746563"><ele>477.0</ele><time>2026-04-26T10:37:24Z</time></trkpt><trkpt lat="45.54574447186475" lon="10.862834819892175"><ele>477.0</ele><time>2026-04-26T10:37:25Z</time></trkpt><trkpt lat="45.54579748658506" lon="10.862954997114098"><ele>474.6</ele><time>2026-04-26T10:37:26Z</time></trkpt><trkpt lat="45.545856773851" lon="10.863079885550682"><ele>472.20000000000005</ele><time>2026-04-26T10:37:27Z</time></trkpt><trkpt lat="45.545934584922854" lon="10.863198506673076"><ele>469.8</ele><time>2026-04-26T10:37:28Z</time></trkpt><trkpt lat="45.54602292283408" lon="10.863296166652676"><ele>467.4</ele><time>2026-04-26T10:37:29Z</time></trkpt><trkpt lat="45.546123335103715" lon="10.863365436681132"><ele>465.0</ele><time>2026-04-26T10:37:30Z</time></trkpt><trkpt lat="45.54622845582697" lon="10.863447502136824"><ele>465.0</ele><time>2026-04-26T10:37:31Z</time></trkpt><trkpt lat="45.54634254908468" lon="10.863544145789941"><ele>465.0</ele><time>2026-04-26T10:37:32Z</time></trkpt><trkpt lat="45.546455575689826" lon="10.863650124334642"><ele>465.0</ele><time>2026-04-26T10:37:33Z</time></trkpt><trkpt lat="45.54654367171849" lon="10.863730509591653"><ele>465.0</ele><time>2026-04-26T10:37:34Z</time></trkpt><trkpt lat="45.54662703053522" lon="10.863815807851768"><ele>465.0</ele><time>2026-04-26T10:37:35Z</time></trkpt><trkpt lat="45.54671129386237" lon="10.863901568065664"><ele>465.0</ele><time>2026-04-26T10:37:36Z</time></trkpt><trkpt lat="45.54680705011923" lon="10.863998980873273"><ele>465.0</ele><time>2026-04-26T10:37:37Z</time></trkpt><trkpt lat="45.546905279827556" lon="10.864092201464224"><ele>465.0</ele><time>2026-04-26T10:37:38Z</time></trkpt><trkpt lat="45.54701628403769" lon="10.864178489541343"><ele>465.8</ele><time>2026-04-26T10:37:39Z</time></trkpt><trkpt lat="45.547130336472264" lon="10.864254214367566"><ele>466.6</ele><time>2026-04-26T10:37:40Z</time></trkpt><trkpt lat="45.5472331407437" lon="10.864323217222205"><ele>467.4</ele><time>2026-04-26T10:37:41Z</time></trkpt><trkpt lat="45.547325733150736" lon="10.864378715316237"><ele>468.2</ele><time>2026-04-26T10:37:42Z</time></trkpt><trkpt lat="45.547414093237975" lon="10.864438639647904"><ele>469.0</ele><time>2026-04-26T10:37:43Z</time></trkpt><trkpt lat="45.54749424451441" lon="10.864489332325723"><ele>469.00000000000006</ele><time>2026-04-26T10:37:44Z</time></trkpt><trkpt lat="45.54757686919573" lon="10.864549512413207"><ele>469.0</ele><time>2026-04-26T10:37:46Z</time></trkpt><trkpt lat="45.54754254721228" lon="10.864681276089335"><ele>469.0</ele><time>2026-04-26T10:37:49Z</time></trkpt><trkpt lat="45.54753042662978" lon="10.86477508121296"><ele>469.0</ele><time>2026-04-26T10:37:50Z</time></trkpt><trkpt lat="45.54749877911908" lon="10.864888918768594"><ele>469.00000000000006</ele><time>2026-04-26T10:37:51Z</time></trkpt><trkpt lat="45.54747483730167" lon="10.865001433465315"><ele>469.0</ele><time>2026-04-26T10:37:52Z</time></trkpt><trkpt lat="45.54746363221592" lon="10.865092313326047"><ele>467.50000000000006</ele><time>2026-04-26T10:37:53Z</time></trkpt><trkpt lat="45.547453279512446" lon="10.86526602243928"><ele>466.0</ele><time>2026-04-26T10:37:55Z</time></trkpt><trkpt lat="45.54745209058968" lon="10.865357968304206"><ele>464.5</ele><time>2026-04-26T10:37:56Z</time></trkpt><trkpt lat="45.547448453914235" lon="10.865453127899363"><ele>463.0</ele><time>2026-04-26T10:37:57Z</time></trkpt><trkpt lat="45.547439378293475" lon="10.86559621601172"><ele>461.50000000000006</ele><time>2026-04-26T10:37:58Z</time></trkpt><trkpt lat="45.547438195271106" lon="10.86571181928698"><ele>460.0</ele><time>2026-04-26T10:37:59Z</time></trkpt><trkpt lat="45.547448558235224" lon="10.86582556797067"><ele>460.00000000000006</ele><time>2026-04-26T10:38:00Z</time></trkpt><trkpt lat="45.547460959417435" lon="10.865923604936288"><ele>460.0</ele><time>2026-04-26T10:38:01Z</time></trkpt><trkpt lat="45.54747976030268" lon="10.866011043175678"><ele>460.0</ele><time>2026-04-26T10:38:02Z</time></trkpt><trkpt lat="45.5475275791972" lon="10.866135205421823"><ele>460.0</ele><time>2026-04-26T10:38:04Z</time></trkpt><trkpt lat="45.54756263807933" lon="10.866214715964494"><ele>460.00000000000006</ele><time>2026-04-26T10:38:07Z</time></trkpt><trkpt lat="45.54747860371673" lon="10.866305761226553"><ele>460.0</ele><time>2026-04-26T10:38:08Z</time></trkpt><trkpt lat="45.547407343781096" lon="10.866373027278646"><ele>458.33333333333337</ele><time>2026-04-26T10:38:09Z</time></trkpt><trkpt lat="45.54733440824063" lon="10.866451113643727"><ele>456.6666666666667</ele><time>2026-04-26T10:38:10Z</time></trkpt><trkpt lat="45.547284632920146" lon="10.866545590542245"><ele>455.0</ele><time>2026-04-26T10:38:11Z</time></trkpt><trkpt lat="45.547262206795835" lon="10.866655884859524"><ele>453.33333333333337</ele><time>2026-04-26T10:38:12Z</time></trkpt><trkpt lat="45.54727055699013" lon="10.866747814843722"><ele>451.6666666666667</ele><time>2026-04-26T10:38:13Z</time></trkpt><trkpt lat="45.54730477025381" lon="10.866847356569712"><ele>450.0</ele><time>2026-04-26T10:38:14Z</time></trkpt><trkpt lat="45.54735201621691" lon="10.86694077870773"><ele>447.8</ele><time>2026-04-26T10:38:15Z</time></trkpt><trkpt lat="45.54739522670191" lon="10.86702196919638"><ele>445.6</ele><time>2026-04-26T10:38:16Z</time></trkpt><trkpt lat="45.54744621967992" lon="10.867088909123463"><ele>443.4</ele><time>2026-04-26T10:38:18Z</time></trkpt><trkpt lat="45.54731483277648" lon="10.867199668386558"><ele>441.2</ele><time>2026-04-26T10:38:20Z</time></trkpt><trkpt lat="45.54723814363486" lon="10.86715327999421"><ele>439.0</ele><time>2026-04-26T10:38:21Z</time></trkpt><trkpt lat="45.54713810566682" lon="10.867129100333301"><ele>435.75</ele><time>2026-04-26T10:38:22Z</time></trkpt><trkpt lat="45.54702471012884" lon="10.867069127624791"><ele>432.5</ele><time>2026-04-26T10:38:23Z</time></trkpt><trkpt lat="45.546901251406275" lon="10.86701033672429"><ele>429.25</ele><time>2026-04-26T10:38:24Z</time></trkpt><trkpt lat="45.546773465438825" lon="10.866953982441117"><ele>426.0</ele><time>2026-04-26T10:38:25Z</time></trkpt><trkpt lat="45.54664772166469" lon="10.86690361590601"><ele>426.0</ele><time>2026-04-26T10:38:26Z</time></trkpt><trkpt lat="45.546517445973365" lon="10.866843527622656"><ele>426.0</ele><time>2026-04-26T10:38:27Z</time></trkpt><trkpt lat="45.54639946275504" lon="10.86677500455211"><ele>426.0</ele><time>2026-04-26T10:38:28Z</time></trkpt><trkpt lat="45.54628829223155" lon="10.866702065251367"><ele>426.0</ele><time>2026-04-26T10:38:29Z</time></trkpt><trkpt lat="45.54618253520222" lon="10.86662202890404"><ele>426.75</ele><time>2026-04-26T10:38:30Z</time></trkpt><trkpt lat="45.54607038253052" lon="10.86654736833419"><ele>427.5</ele><time>2026-04-26T10:38:31Z</time></trkpt><trkpt lat="45.54596225985212" lon="10.866467172134305"><ele>428.25</ele><time>2026-04-26T10:38:32Z</time></trkpt><trkpt lat="45.545843337688915" lon="10.866388994349053"><ele>429.0</ele><time>2026-04-26T10:38:33Z</time></trkpt><trkpt lat="45.545721504751036" lon="10.866307804996419"><ele>429.0</ele><time>2026-04-26T10:38:34Z</time></trkpt><trkpt lat="45.54560395648353" lon="10.866225400881394"><ele>429.0</ele><time>2026-04-26T10:38:35Z</time></trkpt><trkpt lat="45.545492029703446" lon="10.866141970142303"><ele>429.0</ele><time>2026-04-26T10:38:36Z</time></trkpt><trkpt lat="45.5454054885029" lon="10.86606930715639"><ele>429.0</ele><time>2026-04-26T10:38:37Z</time></trkpt><trkpt lat="45.54532428917371" lon="10.865997632121436"><ele>427.6</ele><time>2026-04-26T10:38:38Z</time></trkpt><trkpt lat="45.545261122041005" lon="10.865884388840737"><ele>426.2</ele><time>2026-04-26T10:38:39Z</time></trkpt><trkpt lat="45.54518534789566" lon="10.865779684413647"><ele>424.8</ele><time>2026-04-26T10:38:40Z</time></trkpt><trkpt lat="45.54512178902553" lon="10.865666945628858"><ele>423.40000000000003</ele><time>2026-04-26T10:38:41Z</time></trkpt><trkpt lat="45.54503454222846" lon="10.865548410427968"><ele>422.0</ele><time>2026-04-26T10:38:42Z</time></trkpt><trkpt lat="45.54495184801001" lon="10.86541061054824"><ele>422.0</ele><time>2026-04-26T10:38:43Z</time></trkpt><trkpt lat="45.54486581206319" lon="10.865262663725183"><ele>422.0</ele><time>2026-04-26T10:38:44Z</time></trkpt><trkpt lat="45.54477827578581" lon="10.865133551238111"><ele>422.0</ele><time>2026-04-26T10:38:45Z</time></trkpt><trkpt lat="45.54469898799747" lon="10.865005271206122"><ele>422.0</ele><time>2026-04-26T10:38:46Z</time></trkpt><trkpt lat="45.544613023738336" lon="10.864888486573212"><ele>419.25</ele><time>2026-04-26T10:38:47Z</time></trkpt><trkpt lat="45.54451465855246" lon="10.864794213299723"><ele>416.5</ele><time>2026-04-26T10:38:48Z</time></trkpt><trkpt lat="45.54441219441945" lon="10.86471806760049"><ele>413.75</ele><time>2026-04-26T10:38:49Z</time></trkpt><trkpt lat="45.544306517149266" lon="10.864662031689665"><ele>411.0</ele><time>2026-04-26T10:38:50Z</time></trkpt><trkpt lat="45.54419260731898" lon="10.86462871396392"><ele>411.0</ele><time>2026-04-26T10:38:51Z</time></trkpt><trkpt lat="45.54408585312475" lon="10.86462073922364"><ele>411.0</ele><time>2026-04-26T10:38:52Z</time></trkpt><trkpt lat="45.543982188017495" lon="10.864645767263085"><ele>411.0</ele><time>2026-04-26T10:38:53Z</time></trkpt><trkpt lat="45.543890325334964" lon="10.864689289193253"><ele>411.0</ele><time>2026-04-26T10:38:54Z</time></trkpt><trkpt lat="45.543821531450405" lon="10.864744920304556"><ele>411.0</ele><time>2026-04-26T10:38:55Z</time></trkpt><trkpt lat="45.543757333775865" lon="10.864812289189913"><ele>409.5</ele><time>2026-04-26T10:38:56Z</time></trkpt><trkpt lat="45.54370404207198" lon="10.864888243370885"><ele>408.0</ele><time>2026-04-26T10:38:57Z</time></trkpt><trkpt lat="45.543651377790596" lon="10.864982675802612"><ele>406.5</ele><time>2026-04-26T10:38:58Z</time></trkpt><trkpt lat="45.54359855452363" lon="10.865089245892696"><ele>405.0</ele><time>2026-04-26T10:38:59Z</time></trkpt><trkpt lat="45.54354900458272" lon="10.865185306905996"><ele>403.5</ele><time>2026-04-26T10:39:00Z</time></trkpt><trkpt lat="45.54350882928061" lon="10.865262562012816"><ele>402.0</ele><time>2026-04-26T10:39:01Z</time></trkpt><trkpt lat="45.5434413975692" lon="10.865370623646845"><ele>402.0</ele><time>2026-04-26T10:39:03Z</time></trkpt><trkpt lat="45.54350788745505" lon="10.865282454324596"><ele>402.0</ele><time>2026-04-26T10:39:09Z</time></trkpt><trkpt lat="45.543566325870124" lon="10.865203319739043"><ele>402.0</ele><time>2026-04-26T10:39:10Z</time></trkpt><trkpt lat="45.543620308181374" lon="10.86510709927913"><ele>402.0</ele><time>2026-04-26T10:39:11Z</time></trkpt><trkpt lat="45.543667782925496" lon="10.86502741714827"><ele>402.0</ele><time>2026-04-26T10:39:12Z</time></trkpt><trkpt lat="45.54370425944537" lon="10.864949724088499"><ele>402.0</ele><time>2026-04-26T10:39:13Z</time></trkpt><trkpt lat="45.543741050376106" lon="10.864801885833199"><ele>404.0</ele><time>2026-04-26T10:39:15Z</time></trkpt><trkpt lat="45.54379391643865" lon="10.864723786462797"><ele>406.0</ele><time>2026-04-26T10:39:17Z</time></trkpt><trkpt lat="45.54385169678071" lon="10.8646128915962"><ele>408.0</ele><time>2026-04-26T10:39:19Z</time></trkpt><trkpt lat="45.54395105087982" lon="10.864123406919449"><ele>408.0</ele><time>2026-04-26T10:39:23Z</time></trkpt><trkpt lat="45.54385142259853" lon="10.864016368121305"><ele>408.0</ele><time>2026-04-26T10:39:24Z</time></trkpt><trkpt lat="45.543787592806524" lon="10.863996596262062"><ele>408.0</ele><time>2026-04-26T10:39:25Z</time></trkpt><trkpt lat="45.543551982074554" lon="10.864660607080767"><ele>406.2</ele><time>2026-04-26T10:39:27Z</time></trkpt><trkpt lat="45.54346417876168" lon="10.864715292325798"><ele>404.4</ele><time>2026-04-26T10:39:29Z</time></trkpt><trkpt lat="45.54333890185803" lon="10.864748139720268"><ele>402.59999999999997</ele><time>2026-04-26T10:39:31Z</time></trkpt><trkpt lat="45.54326374030402" lon="10.864753615494912"><ele>400.79999999999995</ele><time>2026-04-26T10:39:32Z</time></trkpt><trkpt lat="45.54319122380937" lon="10.86475552151457"><ele>399.0</ele><time>2026-04-26T10:39:33Z</time></trkpt><trkpt lat="45.543080276596626" lon="10.86478578897436"><ele>399.0</ele><time>2026-04-26T10:39:35Z</time></trkpt><trkpt lat="45.542961928282224" lon="10.864881716460069"><ele>399.0</ele><time>2026-04-26T10:39:37Z</time></trkpt><trkpt lat="45.54290635457909" lon="10.864939005180439"><ele>399.0</ele><time>2026-04-26T10:39:38Z</time></trkpt><trkpt lat="45.5428499546989" lon="10.864988050841028"><ele>399.0</ele><time>2026-04-26T10:39:39Z</time></trkpt><trkpt lat="45.54279451767776" lon="10.865030833454448"><ele>399.0</ele><time>2026-04-26T10:39:40Z</time></trkpt><trkpt lat="45.542726500990895" lon="10.865056808397101"><ele>399.0</ele><time>2026-04-26T10:39:41Z</time></trkpt><trkpt lat="45.542651587906796" lon="10.865081398586534"><ele>396.3333333333333</ele><time>2026-04-26T10:39:42Z</time></trkpt><trkpt lat="45.54257903171582" lon="10.865106259744751"><ele>393.6666666666667</ele><time>2026-04-26T10:39:43Z</time></trkpt><trkpt lat="45.54250576624159" lon="10.86513120858556"><ele>391.0</ele><time>2026-04-26T10:39:44Z</time></trkpt><trkpt lat="45.54241847345697" lon="10.865161917560876"><ele>388.33333333333337</ele><time>2026-04-26T10:39:45Z</time></trkpt><trkpt lat="45.542345026622066" lon="10.865198421542306"><ele>385.6666666666667</ele><time>2026-04-26T10:39:46Z</time></trkpt><trkpt lat="45.54225432707868" lon="10.865235882502867"><ele>383.0</ele><time>2026-04-26T10:39:47Z</time></trkpt><trkpt lat="45.54217103211877" lon="10.865267926784465"><ele>383.0</ele><time>2026-04-26T10:39:48Z</time></trkpt><trkpt lat="45.54210230458093" lon="10.865286057840807"><ele>383.0</ele><time>2026-04-26T10:39:49Z</time></trkpt><trkpt lat="45.542024927291706" lon="10.865321821173598"><ele>383.0</ele><time>2026-04-26T10:39:50Z</time></trkpt><trkpt lat="45.54190743802299" lon="10.865415406281336"><ele>383.0</ele><time>2026-04-26T10:39:52Z</time></trkpt><trkpt lat="45.54185029644339" lon="10.865470141686128"><ele>383.0</ele><time>2026-04-26T10:39:53Z</time></trkpt><trkpt lat="45.54178530901015" lon="10.865525742502536"><ele>383.0</ele><time>2026-04-26T10:39:54Z</time></trkpt><trkpt lat="45.54171207405258" lon="10.865548066383585"><ele>380.83333333333337</ele><time>2026-04-26T10:39:55Z</time></trkpt><trkpt lat="45.54164464453193" lon="10.86557028834956"><ele>378.6666666666667</ele><time>2026-04-26T10:39:56Z</time></trkpt><trkpt lat="45.54158395959895" lon="10.865595520021941"><ele>376.5</ele><time>2026-04-26T10:39:57Z</time></trkpt><trkpt lat="45.54151704566047" lon="10.865625151566407"><ele>374.3333333333333</ele><time>2026-04-26T10:39:58Z</time></trkpt><trkpt lat="45.54145280168755" lon="10.865646835617813"><ele>372.16666666666663</ele><time>2026-04-26T10:39:59Z</time></trkpt><trkpt lat="45.54133046450436" lon="10.865671393629633"><ele>370.0</ele><time>2026-04-26T10:40:01Z</time></trkpt><trkpt lat="45.54126000620375" lon="10.865680073946123"><ele>367.8333333333333</ele><time>2026-04-26T10:40:03Z</time></trkpt><trkpt lat="45.541214877077934" lon="10.865780813484227"><ele>365.66666666666663</ele><time>2026-04-26T10:40:29Z</time></trkpt><trkpt lat="45.54114692996397" lon="10.865850792082254"><ele>363.5</ele><time>2026-04-26T10:40:31Z</time></trkpt><trkpt lat="45.54108765856118" lon="10.865937059625855"><ele>361.3333333333333</ele><time>2026-04-26T10:40:33Z</time></trkpt><trkpt lat="45.54101884176955" lon="10.866041649590237"><ele>359.1666666666667</ele><time>2026-04-26T10:40:35Z</time></trkpt><trkpt lat="45.54097508379075" lon="10.866130717807517"><ele>357.0</ele><time>2026-04-26T10:40:36Z</time></trkpt><trkpt lat="45.5409203186399" lon="10.866262188738311"><ele>355.6</ele><time>2026-04-26T10:40:38Z</time></trkpt><trkpt lat="45.54087402303389" lon="10.8663285572435"><ele>354.20000000000005</ele><time>2026-04-26T10:40:39Z</time></trkpt><trkpt lat="45.54083032579891" lon="10.866397853541743"><ele>352.8</ele><time>2026-04-26T10:40:40Z</time></trkpt><trkpt lat="45.54075644147082" lon="10.866518917461173"><ele>351.4</ele><time>2026-04-26T10:40:42Z</time></trkpt><trkpt lat="45.540698339762166" lon="10.866623263166161"><ele>350.0</ele><time>2026-04-26T10:40:44Z</time></trkpt><trkpt lat="45.540573527665146" lon="10.866723754547804"><ele>350.0</ele><time>2026-04-26T10:40:46Z</time></trkpt><trkpt lat="45.540486925015635" lon="10.866760848588633"><ele>350.0</ele><time>2026-04-26T10:40:47Z</time></trkpt><trkpt lat="45.540387212307614" lon="10.866802565820413"><ele>350.0</ele><time>2026-04-26T10:40:48Z</time></trkpt><trkpt lat="45.540275201444" lon="10.866846811390857"><ele>350.0</ele><time>2026-04-26T10:40:49Z</time></trkpt><trkpt lat="45.54017929646964" lon="10.866914625372765"><ele>350.0</ele><time>2026-04-26T10:40:50Z</time></trkpt><trkpt lat="45.54008607085614" lon="10.866971396459936"><ele>345.33333333333337</ele><time>2026-04-26T10:40:51Z</time></trkpt><trkpt lat="45.54000570006654" lon="10.867010232203382"><ele>340.6666666666667</ele><time>2026-04-26T10:40:52Z</time></trkpt><trkpt lat="45.53991941487335" lon="10.867058552405512"><ele>336.0</ele><time>2026-04-26T10:40:53Z</time></trkpt><trkpt lat="45.53984330210271" lon="10.867079390932293"><ele>331.3333333333333</ele><time>2026-04-26T10:40:54Z</time></trkpt><trkpt lat="45.53977102050195" lon="10.86708387493685"><ele>326.66666666666663</ele><time>2026-04-26T10:40:55Z</time></trkpt><trkpt lat="45.53970310967122" lon="10.867078745797967"><ele>322.0</ele><time>2026-04-26T10:40:56Z</time></trkpt><trkpt lat="45.53963039442969" lon="10.86708332159007"><ele>320.0</ele><time>2026-04-26T10:40:57Z</time></trkpt><trkpt lat="45.53952978282182" lon="10.867094287339162"><ele>318.0</ele><time>2026-04-26T10:40:58Z</time></trkpt><trkpt lat="45.53941113670278" lon="10.867117130194217"><ele>316.0</ele><time>2026-04-26T10:40:59Z</time></trkpt><trkpt lat="45.539303832488464" lon="10.86714577025156"><ele>314.0</ele><time>2026-04-26T10:41:00Z</time></trkpt><trkpt lat="45.5391992635009" lon="10.867165050485005"><ele>312.0</ele><time>2026-04-26T10:41:01Z</time></trkpt><trkpt lat="45.539085790351734" lon="10.86718456192714"><ele>312.0</ele><time>2026-04-26T10:41:02Z</time></trkpt><trkpt lat="45.53898419329215" lon="10.867204178405338"><ele>312.0</ele><time>2026-04-26T10:41:03Z</time></trkpt><trkpt lat="45.53887751401009" lon="10.867229375612522"><ele>312.0</ele><time>2026-04-26T10:41:04Z</time></trkpt><trkpt lat="45.538771763249436" lon="10.867250653962673"><ele>312.0</ele><time>2026-04-26T10:41:05Z</time></trkpt><trkpt lat="45.53865409431111" lon="10.867274704431678"><ele>312.0</ele><time>2026-04-26T10:41:06Z</time></trkpt><trkpt lat="45.538549607562246" lon="10.867286744897909"><ele>310.2</ele><time>2026-04-26T10:41:07Z</time></trkpt><trkpt lat="45.53843841276893" lon="10.867304293447589"><ele>308.4</ele><time>2026-04-26T10:41:08Z</time></trkpt><trkpt lat="45.53833412215842" lon="10.867323300125342"><ele>306.6</ele><time>2026-04-26T10:41:09Z</time></trkpt><trkpt lat="45.53821976148303" lon="10.86734525834737"><ele>304.8</ele><time>2026-04-26T10:41:10Z</time></trkpt><trkpt lat="45.53810528909108" lon="10.867363436520476"><ele>303.0</ele><time>2026-04-26T10:41:11Z</time></trkpt><trkpt lat="45.53798734108204" lon="10.86739189688388"><ele>300.5</ele><time>2026-04-26T10:41:12Z</time></trkpt><trkpt lat="45.53787733176977" lon="10.86740958946782"><ele>298.0</ele><time>2026-04-26T10:41:13Z</time></trkpt><trkpt lat="45.537761973658945" lon="10.867425311636627"><ele>295.5</ele><time>2026-04-26T10:41:14Z</time></trkpt><trkpt lat="45.53765045993143" lon="10.867442980277048"><ele>293.0</ele><time>2026-04-26T10:41:15Z</time></trkpt><trkpt lat="45.537534725465385" lon="10.86746657752649"><ele>293.0</ele><time>2026-04-26T10:41:16Z</time></trkpt><trkpt lat="45.537419684724036" lon="10.867478933826167"><ele>293.0</ele><time>2026-04-26T10:41:17Z</time></trkpt><trkpt lat="45.53730391951304" lon="10.86749425526326"><ele>293.0</ele><time>2026-04-26T10:41:18Z</time></trkpt><trkpt lat="45.53719526213488" lon="10.867515400975007"><ele>293.0</ele><time>2026-04-26T10:41:19Z</time></trkpt><trkpt lat="45.537066964656134" lon="10.867534678586317"><ele>290.75</ele><time>2026-04-26T10:41:20Z</time></trkpt><trkpt lat="45.53693002049797" lon="10.867561010063927"><ele>288.5</ele><time>2026-04-26T10:41:21Z</time></trkpt><trkpt lat="45.536806111979836" lon="10.867587355537369"><ele>286.25</ele><time>2026-04-26T10:41:22Z</time></trkpt><trkpt lat="45.53668960312343" lon="10.86760426745384"><ele>284.0</ele><time>2026-04-26T10:41:23Z</time></trkpt><trkpt lat="45.536587748316414" lon="10.867649498408678"><ele>282.0</ele><time>2026-04-26T10:41:24Z</time></trkpt><trkpt lat="45.53647782483786" lon="10.867679697240266"><ele>280.0</ele><time>2026-04-26T10:41:25Z</time></trkpt><trkpt lat="45.53637595502337" lon="10.867717800025815"><ele>278.0</ele><time>2026-04-26T10:41:26Z</time></trkpt><trkpt lat="45.53629003852556" lon="10.867768159141741"><ele>276.0</ele><time>2026-04-26T10:41:27Z</time></trkpt><trkpt lat="45.53620459047619" lon="10.867798932835617"><ele>274.0</ele><time>2026-04-26T10:41:28Z</time></trkpt><trkpt lat="45.53611393819726" lon="10.867818663908755"><ele>273.5</ele><time>2026-04-26T10:41:29Z</time></trkpt><trkpt lat="45.53602417477932" lon="10.867847350616408"><ele>273.0</ele><time>2026-04-26T10:41:30Z</time></trkpt><trkpt lat="45.535951893740965" lon="10.867880938260507"><ele>272.5</ele><time>2026-04-26T10:41:31Z</time></trkpt><trkpt lat="45.53588653316526" lon="10.867929441704991"><ele>272.0</ele><time>2026-04-26T10:41:32Z</time></trkpt><trkpt lat="45.53581524507643" lon="10.867974532164064"><ele>271.5</ele><time>2026-04-26T10:41:33Z</time></trkpt><trkpt lat="45.53573711270325" lon="10.86801563909089"><ele>271.0</ele><time>2026-04-26T10:41:34Z</time></trkpt><trkpt lat="45.53561220428" lon="10.868077821279222"><ele>271.0</ele><time>2026-04-26T10:41:36Z</time></trkpt><trkpt lat="45.53554293026507" lon="10.86811076693455"><ele>271.0</ele><time>2026-04-26T10:41:37Z</time></trkpt><trkpt lat="45.535467894717975" lon="10.868141716555787"><ele>271.0</ele><time>2026-04-26T10:41:38Z</time></trkpt><trkpt lat="45.53539084689472" lon="10.86818020193352"><ele>271.0</ele><time>2026-04-26T10:41:39Z</time></trkpt><trkpt lat="45.53531590439113" lon="10.868225569108304"><ele>271.0</ele><time>2026-04-26T10:41:40Z</time></trkpt><trkpt lat="45.53525065417625" lon="10.868261542167879"><ele>271.0</ele><time>2026-04-26T10:41:41Z</time></trkpt><trkpt lat="45.535178004693705" lon="10.868284417331779"><ele>269.2</ele><time>2026-04-26T10:41:42Z</time></trkpt><trkpt lat="45.53505913945432" lon="10.868339111314395"><ele>267.40000000000003</ele><time>2026-04-26T10:41:44Z</time></trkpt><trkpt lat="45.53498735846938" lon="10.868373092163935"><ele>265.6</ele><time>2026-04-26T10:41:45Z</time></trkpt><trkpt lat="45.5348939728426" lon="10.868417110861733"><ele>263.8</ele><time>2026-04-26T10:41:46Z</time></trkpt><trkpt lat="45.534780095568294" lon="10.868468349847435"><ele>262.0</ele><time>2026-04-26T10:41:47Z</time></trkpt><trkpt lat="45.534661807041836" lon="10.868545838906112"><ele>257.75</ele><time>2026-04-26T10:41:48Z</time></trkpt><trkpt lat="45.53451445702899" lon="10.868612668390412"><ele>253.5</ele><time>2026-04-26T10:41:49Z</time></trkpt><trkpt lat="45.5343748239187" lon="10.868671668831317"><ele>249.25</ele><time>2026-04-26T10:41:50Z</time></trkpt><trkpt lat="45.53425798295281" lon="10.868729383552129"><ele>245.0</ele><time>2026-04-26T10:41:51Z</time></trkpt><trkpt lat="45.53415808095994" lon="10.86874968114805"><ele>245.00000000000003</ele><time>2026-04-26T10:41:52Z</time></trkpt><trkpt lat="45.53408101488251" lon="10.8687719548561"><ele>245.0</ele><time>2026-04-26T10:41:53Z</time></trkpt><trkpt lat="45.53401011509424" lon="10.868786282535236"><ele>245.0</ele><time>2026-04-26T10:41:54Z</time></trkpt><trkpt lat="45.53393414845567" lon="10.868789986995848"><ele>245.0</ele><time>2026-04-26T10:41:55Z</time></trkpt><trkpt lat="45.53385321284504" lon="10.868775440904763"><ele>245.00000000000003</ele><time>2026-04-26T10:41:56Z</time></trkpt><trkpt lat="45.53379240426979" lon="10.868736511115642"><ele>245.0</ele><time>2026-04-26T10:41:57Z</time></trkpt><trkpt lat="45.53374788476796" lon="10.868605771978386"><ele>245.00000000000003</ele><time>2026-04-26T10:41:59Z</time></trkpt><trkpt lat="45.53372501964503" lon="10.868510040049099"><ele>245.0</ele><time>2026-04-26T10:42:00Z</time></trkpt><trkpt lat="45.53370664161696" lon="10.868419395560819"><ele>245.0</ele><time>2026-04-26T10:42:01Z</time></trkpt><trkpt lat="45.53368440956828" lon="10.868287436440829"><ele>245.0</ele><time>2026-04-26T10:42:02Z</time></trkpt><trkpt lat="45.53367158688474" lon="10.868154444300707"><ele>245.00000000000003</ele><time>2026-04-26T10:42:03Z</time></trkpt><trkpt lat="45.53366343694082" lon="10.867999258966835"><ele>245.0</ele><time>2026-04-26T10:42:04Z</time></trkpt><trkpt lat="45.53365854002378" lon="10.86783554854427"><ele>244.8</ele><time>2026-04-26T10:42:05Z</time></trkpt><trkpt lat="45.53365958798028" lon="10.867690074068012"><ele>244.6</ele><time>2026-04-26T10:42:06Z</time></trkpt><trkpt lat="45.53367051737225" lon="10.867561526319815"><ele>244.39999999999998</ele><time>2026-04-26T10:42:07Z</time></trkpt><trkpt lat="45.533689329387876" lon="10.86743856274515"><ele>244.2</ele><time>2026-04-26T10:42:08Z</time></trkpt><trkpt lat="45.533723383492486" lon="10.867322607457623"><ele>244.0</ele><time>2026-04-26T10:42:09Z</time></trkpt><trkpt lat="45.53377084354293" lon="10.867200751538526"><ele>244.16666666666666</ele><time>2026-04-26T10:42:10Z</time></trkpt><trkpt lat="45.53381986524603" lon="10.867093889989027"><ele>244.33333333333331</ele><time>2026-04-26T10:42:11Z</time></trkpt><trkpt lat="45.5338733603549" lon="10.867010885200537"><ele>244.5</ele><time>2026-04-26T10:42:12Z</time></trkpt><trkpt lat="45.53394220000434" lon="10.866953257722427"><ele>244.66666666666669</ele><time>2026-04-26T10:42:13Z</time></trkpt><trkpt lat="45.53402156176232" lon="10.866898133853612"><ele>244.83333333333334</ele><time>2026-04-26T10:42:14Z</time></trkpt><trkpt lat="45.5341100939288" lon="10.866834515804621"><ele>245.0</ele><time>2026-04-26T10:42:15Z</time></trkpt><trkpt lat="45.53419338113087" lon="10.86677373437114"><ele>245.00000000000003</ele><time>2026-04-26T10:42:16Z</time></trkpt><trkpt lat="45.53425943860511" lon="10.866711052727446"><ele>245.0</ele><time>2026-04-26T10:42:17Z</time></trkpt><trkpt lat="45.53429427209842" lon="10.866604107787273"><ele>245.0</ele><time>2026-04-26T10:42:18Z</time></trkpt><trkpt lat="45.534300943711855" lon="10.866499174211619"><ele>245.0</ele><time>2026-04-26T10:42:19Z</time></trkpt><trkpt lat="45.53421930456434" lon="10.866410087314057"><ele>245.00000000000003</ele><time>2026-04-26T10:42:20Z</time></trkpt><trkpt lat="45.53416460516007" lon="10.866316218826986"><ele>245.0</ele><time>2026-04-26T10:42:21Z</time></trkpt><trkpt lat="45.534104896051176" lon="10.866235094575067"><ele>245.0</ele><time>2026-04-26T10:42:22Z</time></trkpt><trkpt lat="45.53404112731018" lon="10.866150981394755"><ele>245.0</ele><time>2026-04-26T10:42:23Z</time></trkpt><trkpt lat="45.53397170737218" lon="10.866060992668823"><ele>245.0</ele><time>2026-04-26T10:42:24Z</time></trkpt><trkpt lat="45.53388890241289" lon="10.865961057608034"><ele>245.0</ele><time>2026-04-26T10:42:25Z</time></trkpt><trkpt lat="45.53379055614616" lon="10.865876552581236"><ele>245.0</ele><time>2026-04-26T10:42:26Z</time></trkpt><trkpt lat="45.53370012145203" lon="10.86577742955428"><ele>241.6</ele><time>2026-04-26T10:42:27Z</time></trkpt><trkpt lat="45.53360310210303" lon="10.865679306814643"><ele>238.2</ele><time>2026-04-26T10:42:28Z</time></trkpt><trkpt lat="45.533511334082945" lon="10.865597693011667"><ele>234.8</ele><time>2026-04-26T10:42:29Z</time></trkpt><trkpt lat="45.53342734831464" lon="10.865523348557684"><ele>231.4</ele><time>2026-04-26T10:42:30Z</time></trkpt><trkpt lat="45.53334923892784" lon="10.865447281706537"><ele>228.0</ele><time>2026-04-26T10:42:31Z</time></trkpt><trkpt lat="45.53327248296695" lon="10.865375662639057"><ele>228.0</ele><time>2026-04-26T10:42:32Z</time></trkpt><trkpt lat="45.53319935992386" lon="10.865306252404263"><ele>228.0</ele><time>2026-04-26T10:42:33Z</time></trkpt><trkpt lat="45.533127884497716" lon="10.865231696251893"><ele>228.0</ele><time>2026-04-26T10:42:34Z</time></trkpt><trkpt lat="45.53306478085843" lon="10.865171690566784"><ele>228.0</ele><time>2026-04-26T10:42:35Z</time></trkpt><trkpt lat="45.532987101630255" lon="10.865109090545701"><ele>228.0</ele><time>2026-04-26T10:42:36Z</time></trkpt><trkpt lat="45.53290083619915" lon="10.86507478578769"><ele>228.0</ele><time>2026-04-26T10:42:37Z</time></trkpt><trkpt lat="45.53280455042088" lon="10.865046684124847"><ele>226.25</ele><time>2026-04-26T10:42:38Z</time></trkpt><trkpt lat="45.53269971839416" lon="10.865024281966425"><ele>224.5</ele><time>2026-04-26T10:42:39Z</time></trkpt><trkpt lat="45.53259075352657" lon="10.864971087734723"><ele>222.75</ele><time>2026-04-26T10:42:40Z</time></trkpt><trkpt lat="45.53246882196202" lon="10.864950321529399"><ele>221.0</ele><time>2026-04-26T10:42:41Z</time></trkpt><trkpt lat="45.53235613440443" lon="10.86490580052"><ele>221.0</ele><time>2026-04-26T10:42:42Z</time></trkpt><trkpt lat="45.5322538767257" lon="10.864865614912679"><ele>221.00000000000003</ele><time>2026-04-26T10:42:43Z</time></trkpt><trkpt lat="45.53216187188068" lon="10.864838840114729"><ele>221.00000000000003</ele><time>2026-04-26T10:42:44Z</time></trkpt><trkpt lat="45.532084586272994" lon="10.864818330135032"><ele>221.0</ele><time>2026-04-26T10:42:45Z</time></trkpt><trkpt lat="45.53202575393227" lon="10.864777656766615"><ele>221.0</ele><time>2026-04-26T10:42:46Z</time></trkpt><trkpt lat="45.531925902747034" lon="10.864706695449902"><ele>220.20000000000002</ele><time>2026-04-26T10:42:48Z</time></trkpt><trkpt lat="45.53185183669073" lon="10.864664539279675"><ele>219.40000000000003</ele><time>2026-04-26T10:42:49Z</time></trkpt><trkpt lat="45.531767837606814" lon="10.86459430799626"><ele>218.6</ele><time>2026-04-26T10:42:50Z</time></trkpt><trkpt lat="45.531662788021684" lon="10.864518225085197"><ele>217.8</ele><time>2026-04-26T10:42:51Z</time></trkpt><trkpt lat="45.53155564373629" lon="10.864448912833273"><ele>217.0</ele><time>2026-04-26T10:42:52Z</time></trkpt><trkpt lat="45.53145270092511" lon="10.864377641838997"><ele>217.0</ele><time>2026-04-26T10:42:53Z</time></trkpt><trkpt lat="45.53135514996782" lon="10.864310801018462"><ele>217.0</ele><time>2026-04-26T10:42:54Z</time></trkpt><trkpt lat="45.53125725126704" lon="10.86424444944794"><ele>217.0</ele><time>2026-04-26T10:42:55Z</time></trkpt><trkpt lat="45.531156885827365" lon="10.864165128278211"><ele>217.0</ele><time>2026-04-26T10:42:56Z</time></trkpt><trkpt lat="45.53106289674731" lon="10.864071071699785"><ele>217.0</ele><time>2026-04-26T10:42:57Z</time></trkpt><trkpt lat="45.53097585152509" lon="10.863961312711082"><ele>214.75</ele><time>2026-04-26T10:42:58Z</time></trkpt><trkpt lat="45.5308884063506" lon="10.86385159742646"><ele>212.5</ele><time>2026-04-26T10:42:59Z</time></trkpt><trkpt lat="45.530814238994665" lon="10.863723063245505"><ele>210.25</ele><time>2026-04-26T10:43:00Z</time></trkpt><trkpt lat="45.53073686288152" lon="10.863610868104583"><ele>208.0</ele><time>2026-04-26T10:43:01Z</time></trkpt><trkpt lat="45.53066404961082" lon="10.86348857705327"><ele>206.33333333333331</ele><time>2026-04-26T10:43:02Z</time></trkpt><trkpt lat="45.53060715905371" lon="10.863368743241622"><ele>204.66666666666666</ele><time>2026-04-26T10:43:03Z</time></trkpt><trkpt lat="45.5305671097482" lon="10.86325978446464"><ele>203.0</ele><time>2026-04-26T10:43:04Z</time></trkpt><trkpt lat="45.53054687827356" lon="10.863166866472048"><ele>201.33333333333331</ele><time>2026-04-26T10:43:05Z</time></trkpt><trkpt lat="45.53059491421828" lon="10.863083356562473"><ele>199.66666666666666</ele><time>2026-04-26T10:43:06Z</time></trkpt><trkpt lat="45.530630895993" lon="10.862973444776754"><ele>198.0</ele><time>2026-04-26T10:43:07Z</time></trkpt><trkpt lat="45.53064194394888" lon="10.862871037280424"><ele>198.0</ele><time>2026-04-26T10:43:08Z</time></trkpt><trkpt lat="45.530662914830195" lon="10.86275416396927"><ele>198.0</ele><time>2026-04-26T10:43:09Z</time></trkpt><trkpt lat="45.53059454590449" lon="10.862597182429328"><ele>198.0</ele><time>2026-04-26T10:43:11Z</time></trkpt><trkpt lat="45.53054477609098" lon="10.862521881263671"><ele>198.0</ele><time>2026-04-26T10:43:12Z</time></trkpt><trkpt lat="45.53045529481845" lon="10.862510161270134"><ele>198.0</ele><time>2026-04-26T10:43:13Z</time></trkpt><trkpt lat="45.530361864165066" lon="10.86246879166572"><ele>196.0</ele><time>2026-04-26T10:43:14Z</time></trkpt><trkpt lat="45.530272980070826" lon="10.862427412995855"><ele>194.0</ele><time>2026-04-26T10:43:15Z</time></trkpt><trkpt lat="45.530179177655285" lon="10.862378623043824"><ele>192.0</ele><time>2026-04-26T10:43:16Z</time></trkpt><trkpt lat="45.53009288468666" lon="10.862326979297798"><ele>190.0</ele><time>2026-04-26T10:43:17Z</time></trkpt><trkpt lat="45.5300315799746" lon="10.862282507930471"><ele>188.0</ele><time>2026-04-26T10:43:18Z</time></trkpt><trkpt lat="45.5299761138462" lon="10.862163435244224"><ele>188.0</ele><time>2026-04-26T10:43:20Z</time></trkpt><trkpt lat="45.529932200355" lon="10.862008239937301"><ele>188.0</ele><time>2026-04-26T10:43:22Z</time></trkpt><trkpt lat="45.529887247729675" lon="10.861935103020947"><ele>188.0</ele><time>2026-04-26T10:43:23Z</time></trkpt><trkpt lat="45.529848577046494" lon="10.861825797545812"><ele>188.0</ele><time>2026-04-26T10:43:24Z</time></trkpt><trkpt lat="45.52981618153833" lon="10.861732943074452"><ele>188.0</ele><time>2026-04-26T10:43:25Z</time></trkpt><trkpt lat="45.5297658522374" lon="10.861638137046638"><ele>188.0</ele><time>2026-04-26T10:43:26Z</time></trkpt><trkpt lat="45.52972462793572" lon="10.861539988690115"><ele>188.66666666666666</ele><time>2026-04-26T10:43:27Z</time></trkpt><trkpt lat="45.529674163958184" lon="10.861423647915474"><ele>189.33333333333331</ele><time>2026-04-26T10:43:28Z</time></trkpt><trkpt lat="45.52963105923786" lon="10.86131468162732"><ele>190.0</ele><time>2026-04-26T10:43:29Z</time></trkpt><trkpt lat="45.52959331041455" lon="10.861237035390621"><ele>190.66666666666666</ele><time>2026-04-26T10:43:30Z</time></trkpt><trkpt lat="45.52956000231952" lon="10.861107102036703"><ele>191.33333333333334</ele><time>2026-04-26T10:43:32Z</time></trkpt><trkpt lat="45.52953978039194" lon="10.861007480429892"><ele>192.0</ele><time>2026-04-26T10:43:37Z</time></trkpt><trkpt lat="45.529395290539" lon="10.861158136681784"><ele>190.39999999999998</ele><time>2026-04-26T10:43:39Z</time></trkpt><trkpt lat="45.529339189956886" lon="10.861254045152323"><ele>188.79999999999998</ele><time>2026-04-26T10:43:40Z</time></trkpt><trkpt lat="45.52927357210048" lon="10.861346025151288"><ele>187.2</ele><time>2026-04-26T10:43:41Z</time></trkpt><trkpt lat="45.52920097393547" lon="10.861447277708892"><ele>185.6</ele><time>2026-04-26T10:43:42Z</time></trkpt><trkpt lat="45.52912785305096" lon="10.86156102466613"><ele>184.0</ele><time>2026-04-26T10:43:43Z</time></trkpt><trkpt lat="45.52905465895552" lon="10.86167644963105"><ele>183.75</ele><time>2026-04-26T10:43:44Z</time></trkpt><trkpt lat="45.52896817980566" lon="10.861799580264542"><ele>183.5</ele><time>2026-04-26T10:43:45Z</time></trkpt><trkpt lat="45.52887987666612" lon="10.86194305475425"><ele>183.25</ele><time>2026-04-26T10:43:46Z</time></trkpt><trkpt lat="45.52880853526267" lon="10.86207882020385"><ele>183.0</ele><time>2026-04-26T10:43:47Z</time></trkpt><trkpt lat="45.52873591932664" lon="10.862207620076637"><ele>182.60000000000002</ele><time>2026-04-26T10:43:48Z</time></trkpt><trkpt lat="45.52866892566855" lon="10.862318076623048"><ele>182.20000000000002</ele><time>2026-04-26T10:43:49Z</time></trkpt><trkpt lat="45.528603805160714" lon="10.862427297917874"><ele>181.8</ele><time>2026-04-26T10:43:50Z</time></trkpt><trkpt lat="45.528536114122716" lon="10.862520316729274"><ele>181.4</ele><time>2026-04-26T10:43:51Z</time></trkpt><trkpt lat="45.52846472988997" lon="10.862594171161874"><ele>181.0</ele><time>2026-04-26T10:43:52Z</time></trkpt><trkpt lat="45.52839337654765" lon="10.862681944241501"><ele>180.25</ele><time>2026-04-26T10:43:53Z</time></trkpt><trkpt lat="45.52830558514617" lon="10.862811152711986"><ele>179.5</ele><time>2026-04-26T10:43:54Z</time></trkpt><trkpt lat="45.528200945575435" lon="10.862886384293999"><ele>178.75</ele><time>2026-04-26T10:43:55Z</time></trkpt><trkpt lat="45.52809463424948" lon="10.862962990691793"><ele>178.0</ele><time>2026-04-26T10:43:56Z</time></trkpt><trkpt lat="45.52798056697767" lon="10.863050869703219"><ele>178.0</ele><time>2026-04-26T10:43:57Z</time></trkpt><trkpt lat="45.52786779934191" lon="10.863138570761333"><ele>178.0</ele><time>2026-04-26T10:43:58Z</time></trkpt><trkpt lat="45.52775984979372" lon="10.863215357536642"><ele>178.0</ele><time>2026-04-26T10:43:59Z</time></trkpt><trkpt lat="45.52766370367593" lon="10.863283420332122"><ele>178.0</ele><time>2026-04-26T10:44:00Z</time></trkpt><trkpt lat="45.527567472749375" lon="10.863337402488439"><ele>178.0</ele><time>2026-04-26T10:44:01Z</time></trkpt><trkpt lat="45.527474298751876" lon="10.863373966492217"><ele>178.0</ele><time>2026-04-26T10:44:02Z</time></trkpt><trkpt lat="45.52737883247521" lon="10.863399498320565"><ele>178.0</ele><time>2026-04-26T10:44:03Z</time></trkpt><trkpt lat="45.52725696517051" lon="10.863422229918719"><ele>178.0</ele><time>2026-04-26T10:44:04Z</time></trkpt><trkpt lat="45.52712335471654" lon="10.863452830416653"><ele>175.25</ele><time>2026-04-26T10:44:05Z</time></trkpt><trkpt lat="45.52699129915529" lon="10.86348836857652"><ele>172.5</ele><time>2026-04-26T10:44:06Z</time></trkpt><trkpt lat="45.52686392455557" lon="10.863516761519504"><ele>169.75</ele><time>2026-04-26T10:44:07Z</time></trkpt><trkpt lat="45.526732978312594" lon="10.863553744046849"><ele>167.0</ele><time>2026-04-26T10:44:08Z</time></trkpt><trkpt lat="45.5266148721339" lon="10.86358742916809"><ele>167.0</ele><time>2026-04-26T10:44:09Z</time></trkpt><trkpt lat="45.52650450820944" lon="10.863634707743495"><ele>167.0</ele><time>2026-04-26T10:44:10Z</time></trkpt><trkpt lat="45.52639949212575" lon="10.863712088007468"><ele>167.0</ele><time>2026-04-26T10:44:11Z</time></trkpt><trkpt lat="45.52628762551246" lon="10.86379823480826"><ele>167.0</ele><time>2026-04-26T10:44:12Z</time></trkpt><trkpt lat="45.526175162643135" lon="10.863883905492571"><ele>165.75</ele><time>2026-04-26T10:44:13Z</time></trkpt><trkpt lat="45.52606629303782" lon="10.863963041753157"><ele>164.5</ele><time>2026-04-26T10:44:14Z</time></trkpt><trkpt lat="45.52596044251118" lon="10.864044431749285"><ele>163.25</ele><time>2026-04-26T10:44:15Z</time></trkpt><trkpt lat="45.52585022022997" lon="10.864115867286438"><ele>162.0</ele><time>2026-04-26T10:44:16Z</time></trkpt><trkpt lat="45.52574472471836" lon="10.864197609056639"><ele>162.0</ele><time>2026-04-26T10:44:17Z</time></trkpt><trkpt lat="45.52564652670364" lon="10.864270509990407"><ele>162.0</ele><time>2026-04-26T10:44:18Z</time></trkpt><trkpt lat="45.525544935504044" lon="10.864346337277665"><ele>162.0</ele><time>2026-04-26T10:44:19Z</time></trkpt><trkpt lat="45.525440028647694" lon="10.864430181314518"><ele>162.0</ele><time>2026-04-26T10:44:20Z</time></trkpt><trkpt lat="45.52534492721665" lon="10.864500258492775"><ele>161.4</ele><time>2026-04-26T10:44:21Z</time></trkpt><trkpt lat="45.52525500539114" lon="10.86456797097002"><ele>160.79999999999998</ele><time>2026-04-26T10:44:22Z</time></trkpt><trkpt lat="45.52515643381455" lon="10.864640214617708"><ele>160.2</ele><time>2026-04-26T10:44:23Z</time></trkpt><trkpt lat="45.5250599898767" lon="10.864727035142442"><ele>159.6</ele><time>2026-04-26T10:44:24Z</time></trkpt><trkpt lat="45.52495834724172" lon="10.864816555422706"><ele>159.0</ele><time>2026-04-26T10:44:25Z</time></trkpt><trkpt lat="45.524863111065834" lon="10.864895156432349"><ele>159.0</ele><time>2026-04-26T10:44:26Z</time></trkpt><trkpt lat="45.52476861356079" lon="10.864979025405265"><ele>159.0</ele><time>2026-04-26T10:44:27Z</time></trkpt><trkpt lat="45.52467726147432" lon="10.865055252604565"><ele>159.0</ele><time>2026-04-26T10:44:28Z</time></trkpt><trkpt lat="45.52458923364776" lon="10.865130154726046"><ele>159.0</ele><time>2026-04-26T10:44:29Z</time></trkpt><trkpt lat="45.52449878035221" lon="10.865202635669798"><ele>159.0</ele><time>2026-04-26T10:44:30Z</time></trkpt><trkpt lat="45.52439619101528" lon="10.86527326134723"><ele>157.75</ele><time>2026-04-26T10:44:31Z</time></trkpt><trkpt lat="45.52428570718489" lon="10.865349780834089"><ele>156.5</ele><time>2026-04-26T10:44:32Z</time></trkpt><trkpt lat="45.52417340728219" lon="10.86543193984924"><ele>155.25</ele><time>2026-04-26T10:44:33Z</time></trkpt><trkpt lat="45.52405933261492" lon="10.865519212527964"><ele>154.0</ele><time>2026-04-26T10:44:34Z</time></trkpt><trkpt lat="45.52394470774573" lon="10.865597137368072"><ele>154.0</ele><time>2026-04-26T10:44:35Z</time></trkpt><trkpt lat="45.5238207278159" lon="10.865683737710308"><ele>154.0</ele><time>2026-04-26T10:44:36Z</time></trkpt><trkpt lat="45.5237070021628" lon="10.865768703735"><ele>154.0</ele><time>2026-04-26T10:44:37Z</time></trkpt><trkpt lat="45.52360059599661" lon="10.865851351333076"><ele>154.0</ele><time>2026-04-26T10:44:38Z</time></trkpt><trkpt lat="45.523494157175584" lon="10.86592512384107"><ele>153.4</ele><time>2026-04-26T10:44:39Z</time></trkpt><trkpt lat="45.52339685215735" lon="10.86599370922604"><ele>152.8</ele><time>2026-04-26T10:44:40Z</time></trkpt><trkpt lat="45.523311095177114" lon="10.866055373405759"><ele>152.2</ele><time>2026-04-26T10:44:41Z</time></trkpt><trkpt lat="45.52324585201156" lon="10.866100612056513"><ele>151.6</ele><time>2026-04-26T10:44:42Z</time></trkpt><trkpt lat="45.52313885542545" lon="10.866173977518086"><ele>151.0</ele><time>2026-04-26T10:44:44Z</time></trkpt><trkpt lat="45.523068976730976" lon="10.866239177067333"><ele>151.0</ele><time>2026-04-26T10:44:46Z</time></trkpt><trkpt lat="45.52296429712914" lon="10.866065355725812"><ele>151.0</ele><time>2026-04-26T10:44:48Z</time></trkpt><trkpt lat="45.522939052906956" lon="10.865969643105755"><ele>151.0</ele><time>2026-04-26T10:44:49Z</time></trkpt><trkpt lat="45.52291557960294" lon="10.865847595291543"><ele>151.0</ele><time>2026-04-26T10:44:50Z</time></trkpt><trkpt lat="45.52287814059937" lon="10.865705936220644"><ele>151.0</ele><time>2026-04-26T10:44:51Z</time></trkpt><trkpt lat="45.5228365856801" lon="10.865563089930498"><ele>150.5</ele><time>2026-04-26T10:44:52Z</time></trkpt><trkpt lat="45.522793180905914" lon="10.865430267274995"><ele>150.0</ele><time>2026-04-26T10:44:53Z</time></trkpt><trkpt lat="45.52274761648843" lon="10.865278510461826"><ele>149.5</ele><time>2026-04-26T10:44:54Z</time></trkpt><trkpt lat="45.52270083222396" lon="10.865119876907327"><ele>149.0</ele><time>2026-04-26T10:44:55Z</time></trkpt><trkpt lat="45.52264845814337" lon="10.864954767563123"><ele>148.6</ele><time>2026-04-26T10:44:56Z</time></trkpt><trkpt lat="45.5226121259666" lon="10.864825000398712"><ele>148.2</ele><time>2026-04-26T10:44:57Z</time></trkpt><trkpt lat="45.522572243897095" lon="10.864692565947887"><ele>147.79999999999998</ele><time>2026-04-26T10:44:58Z</time></trkpt><trkpt lat="45.52252512812881" lon="10.86453216421642"><ele>147.4</ele><time>2026-04-26T10:44:59Z</time></trkpt><trkpt lat="45.52247596090042" lon="10.864377207498318"><ele>147.0</ele><time>2026-04-26T10:45:00Z</time></trkpt><trkpt lat="45.522420319770404" lon="10.864213070560623"><ele>146.5</ele><time>2026-04-26T10:45:01Z</time></trkpt><trkpt lat="45.52237051817624" lon="10.86404849737883"><ele>146.0</ele><time>2026-04-26T10:45:02Z</time></trkpt><trkpt lat="45.52231956739529" lon="10.863875804675722"><ele>145.5</ele><time>2026-04-26T10:45:03Z</time></trkpt><trkpt lat="45.52226497976416" lon="10.863691080451654"><ele>145.0</ele><time>2026-04-26T10:45:04Z</time></trkpt><trkpt lat="45.52221806616165" lon="10.863526800658516"><ele>145.75</ele><time>2026-04-26T10:45:05Z</time></trkpt><trkpt lat="45.52217566749754" lon="10.863371879781905"><ele>146.5</ele><time>2026-04-26T10:45:06Z</time></trkpt><trkpt lat="45.522133429755755" lon="10.863216074237119"><ele>147.25</ele><time>2026-04-26T10:45:07Z</time></trkpt><trkpt lat="45.52209212692784" lon="10.863041709501715"><ele>148.0</ele><time>2026-04-26T10:45:08Z</time></trkpt><trkpt lat="45.52205309105226" lon="10.862873601812323"><ele>146.6</ele><time>2026-04-26T10:45:09Z</time></trkpt><trkpt lat="45.52202286018993" lon="10.862715268909032"><ele>145.20000000000002</ele><time>2026-04-26T10:45:10Z</time></trkpt><trkpt lat="45.52199840379314" lon="10.862568780256533"><ele>143.8</ele><time>2026-04-26T10:45:11Z</time></trkpt><trkpt lat="45.52197552353765" lon="10.862433518114978"><ele>142.4</ele><time>2026-04-26T10:45:12Z</time></trkpt><trkpt lat="45.52195693487045" lon="10.862303311544625"><ele>141.0</ele><time>2026-04-26T10:45:13Z</time></trkpt><trkpt lat="45.52193364712135" lon="10.862166948155293"><ele>141.0</ele><time>2026-04-26T10:45:14Z</time></trkpt><trkpt lat="45.52191796109973" lon="10.862041539638353"><ele>141.0</ele><time>2026-04-26T10:45:15Z</time></trkpt><trkpt lat="45.52190775191806" lon="10.861934934622624"><ele>141.0</ele><time>2026-04-26T10:45:16Z</time></trkpt><trkpt lat="45.52190508861253" lon="10.861779518563429"><ele>141.0</ele><time>2026-04-26T10:45:18Z</time></trkpt><trkpt lat="45.52189933378451" lon="10.861675293157623"><ele>141.0</ele><time>2026-04-26T10:45:20Z</time></trkpt><trkpt lat="45.52186718181569" lon="10.861595378973643"><ele>141.0</ele><time>2026-04-26T10:45:33Z</time></trkpt><trkpt lat="45.521725770740716" lon="10.861595177965395"><ele>141.2</ele><time>2026-04-26T10:45:34Z</time></trkpt><trkpt lat="45.52165567758954" lon="10.86158774930782"><ele>141.39999999999998</ele><time>2026-04-26T10:45:35Z</time></trkpt><trkpt lat="45.521571265508655" lon="10.861564151904863"><ele>141.6</ele><time>2026-04-26T10:45:36Z</time></trkpt><trkpt lat="45.521476962581" lon="10.86153531318666"><ele>141.79999999999998</ele><time>2026-04-26T10:45:37Z</time></trkpt><trkpt lat="45.52137222916637" lon="10.861500257649901"><ele>142.0</ele><time>2026-04-26T10:45:38Z</time></trkpt><trkpt lat="45.52124199807679" lon="10.86146825035106"><ele>141.0</ele><time>2026-04-26T10:45:39Z</time></trkpt><trkpt lat="45.52110027960714" lon="10.861453306578287"><ele>140.0</ele><time>2026-04-26T10:45:40Z</time></trkpt><trkpt lat="45.52096124207582" lon="10.861440955353695"><ele>139.0</ele><time>2026-04-26T10:45:41Z</time></trkpt><trkpt lat="45.52083821825916" lon="10.861425556613339"><ele>138.0</ele><time>2026-04-26T10:45:42Z</time></trkpt><trkpt lat="45.52071711100315" lon="10.861409636958983"><ele>138.0</ele><time>2026-04-26T10:45:43Z</time></trkpt><trkpt lat="45.52058180708495" lon="10.861385711967207"><ele>138.0</ele><time>2026-04-26T10:45:44Z</time></trkpt><trkpt lat="45.52043770160325" lon="10.86135372498298"><ele>138.0</ele><time>2026-04-26T10:45:45Z</time></trkpt><trkpt lat="45.520284937129304" lon="10.861320180773449"><ele>138.0</ele><time>2026-04-26T10:45:46Z</time></trkpt><trkpt lat="45.52013834440686" lon="10.86125940434938"><ele>138.0</ele><time>2026-04-26T10:45:47Z</time></trkpt><trkpt lat="45.52000400799924" lon="10.861241440104966"><ele>138.0</ele><time>2026-04-26T10:45:48Z</time></trkpt><trkpt lat="45.51986942279862" lon="10.861207991636688"><ele>138.0</ele><time>2026-04-26T10:45:49Z</time></trkpt><trkpt lat="45.51974167045436" lon="10.861169659558186"><ele>138.0</ele><time>2026-04-26T10:45:50Z</time></trkpt><trkpt lat="45.519612976526965" lon="10.861131712776118"><ele>137.75</ele><time>2026-04-26T10:45:51Z</time></trkpt><trkpt lat="45.519490475622256" lon="10.861082068781156"><ele>137.5</ele><time>2026-04-26T10:45:52Z</time></trkpt><trkpt lat="45.51936378169619" lon="10.861014623710933"><ele>137.25</ele><time>2026-04-26T10:45:53Z</time></trkpt><trkpt lat="45.51924266290511" lon="10.860934155141418"><ele>137.0</ele><time>2026-04-26T10:45:54Z</time></trkpt><trkpt lat="45.51912639371973" lon="10.860850980328907"><ele>137.0</ele><time>2026-04-26T10:45:55Z</time></trkpt><trkpt lat="45.519004451625875" lon="10.860775958329327"><ele>137.0</ele><time>2026-04-26T10:45:56Z</time></trkpt><trkpt lat="45.51888090867701" lon="10.860696771607678"><ele>137.0</ele><time>2026-04-26T10:45:57Z</time></trkpt><trkpt lat="45.51876992360758" lon="10.860640580559377"><ele>137.0</ele><time>2026-04-26T10:45:58Z</time></trkpt><trkpt lat="45.51867166340337" lon="10.86056841820355"><ele>137.0</ele><time>2026-04-26T10:45:59Z</time></trkpt><trkpt lat="45.518580292672766" lon="10.86049175840873"><ele>137.0</ele><time>2026-04-26T10:46:00Z</time></trkpt><trkpt lat="45.51848471187739" lon="10.860421322421338"><ele>137.0</ele><time>2026-04-26T10:46:01Z</time></trkpt><trkpt lat="45.518397539490664" lon="10.860324929932586"><ele>137.0</ele><time>2026-04-26T10:46:02Z</time></trkpt><trkpt lat="45.51828573650521" lon="10.860231198573864"><ele>137.0</ele><time>2026-04-26T10:46:03Z</time></trkpt><trkpt lat="45.51816468591713" lon="10.860146831989939"><ele>137.0</ele><time>2026-04-26T10:46:04Z</time></trkpt><trkpt lat="45.518056182079725" lon="10.860055811016135"><ele>137.0</ele><time>2026-04-26T10:46:05Z</time></trkpt><trkpt lat="45.51795847231387" lon="10.859979771077896"><ele>137.0</ele><time>2026-04-26T10:46:06Z</time></trkpt><trkpt lat="45.51784284499949" lon="10.859899567625629"><ele>136.5</ele><time>2026-04-26T10:46:07Z</time></trkpt><trkpt lat="45.517734263633585" lon="10.859811607417223"><ele>136.0</ele><time>2026-04-26T10:46:08Z</time></trkpt><trkpt lat="45.517629354132396" lon="10.859730197742476"><ele>135.5</ele><time>2026-04-26T10:46:09Z</time></trkpt><trkpt lat="45.517524939475614" lon="10.859651053744544"><ele>135.0</ele><time>2026-04-26T10:46:10Z</time></trkpt><trkpt lat="45.5174254491992" lon="10.859580202925443"><ele>135.0</ele><time>2026-04-26T10:46:11Z</time></trkpt><trkpt lat="45.51734494792424" lon="10.85951415018444"><ele>135.0</ele><time>2026-04-26T10:46:12Z</time></trkpt><trkpt lat="45.51725584691223" lon="10.859438101173325"><ele>135.0</ele><time>2026-04-26T10:46:13Z</time></trkpt><trkpt lat="45.51716254703915" lon="10.859377654937585"><ele>135.0</ele><time>2026-04-26T10:46:14Z</time></trkpt><trkpt lat="45.51706086889471" lon="10.859285954821198"><ele>135.0</ele><time>2026-04-26T10:46:15Z</time></trkpt><trkpt lat="45.51695893492364" lon="10.859188028408829"><ele>134.8</ele><time>2026-04-26T10:46:16Z</time></trkpt><trkpt lat="45.51687038485429" lon="10.859095203697997"><ele>134.6</ele><time>2026-04-26T10:46:17Z</time></trkpt><trkpt lat="45.516799424655765" lon="10.859011001671343"><ele>134.4</ele><time>2026-04-26T10:46:18Z</time></trkpt><trkpt lat="45.51671649019014" lon="10.85893859188265"><ele>134.2</ele><time>2026-04-26T10:46:19Z</time></trkpt><trkpt lat="45.51661771140692" lon="10.858880875042596"><ele>134.0</ele><time>2026-04-26T10:46:20Z</time></trkpt><trkpt lat="45.51651255428043" lon="10.8588106195372"><ele>134.0</ele><time>2026-04-26T10:46:21Z</time></trkpt><trkpt lat="45.516408455107296" lon="10.858730908996435"><ele>134.0</ele><time>2026-04-26T10:46:22Z</time></trkpt><trkpt lat="45.51631903095382" lon="10.858668017836298"><ele>134.0</ele><time>2026-04-26T10:46:23Z</time></trkpt><trkpt lat="45.516218021339974" lon="10.858609129300106"><ele>134.0</ele><time>2026-04-26T10:46:24Z</time></trkpt><trkpt lat="45.516102950492574" lon="10.858538888614733"><ele>134.2</ele><time>2026-04-26T10:46:25Z</time></trkpt><trkpt lat="45.51598592981098" lon="10.858470081504636"><ele>134.4</ele><time>2026-04-26T10:46:26Z</time></trkpt><trkpt lat="45.51587816627382" lon="10.858411748681519"><ele>134.6</ele><time>2026-04-26T10:46:27Z</time></trkpt><trkpt lat="45.51578487449017" lon="10.858366652317255"><ele>134.8</ele><time>2026-04-26T10:46:28Z</time></trkpt><trkpt lat="45.51569487163373" lon="10.858315764505418"><ele>135.0</ele><time>2026-04-26T10:46:29Z</time></trkpt><trkpt lat="45.515608024712996" lon="10.858272707734999"><ele>135.0</ele><time>2026-04-26T10:46:30Z</time></trkpt><trkpt lat="45.515524328390974" lon="10.858227910489477"><ele>135.0</ele><time>2026-04-26T10:46:31Z</time></trkpt><trkpt lat="45.51543690266898" lon="10.858149401766719"><ele>135.0</ele><time>2026-04-26T10:46:32Z</time></trkpt><trkpt lat="45.51534385168726" lon="10.858078252570243"><ele>135.0</ele><time>2026-04-26T10:46:33Z</time></trkpt><trkpt lat="45.51524963013737" lon="10.857990911303975"><ele>135.0</ele><time>2026-04-26T10:46:34Z</time></trkpt><trkpt lat="45.51515525863229" lon="10.857902515018925"><ele>135.0</ele><time>2026-04-26T10:46:35Z</time></trkpt><trkpt lat="45.51508274137234" lon="10.857830975386674"><ele>135.0</ele><time>2026-04-26T10:46:36Z</time></trkpt><trkpt lat="45.51502233073635" lon="10.857763628951933"><ele>135.0</ele><time>2026-04-26T10:46:37Z</time></trkpt><trkpt lat="45.51495634692371" lon="10.857664241358156"><ele>135.0</ele><time>2026-04-26T10:46:39Z</time></trkpt><trkpt lat="45.51490992927579" lon="10.857596292882933"><ele>135.0</ele><time>2026-04-26T10:46:40Z</time></trkpt><trkpt lat="45.51485310330124" lon="10.857502441229025"><ele>135.0</ele><time>2026-04-26T10:46:41Z</time></trkpt><trkpt lat="45.514801671859736" lon="10.857401505057787"><ele>134.8</ele><time>2026-04-26T10:46:42Z</time></trkpt><trkpt lat="45.514740768941806" lon="10.857314086088456"><ele>134.6</ele><time>2026-04-26T10:46:43Z</time></trkpt><trkpt lat="45.514674200146935" lon="10.857229990762365"><ele>134.4</ele><time>2026-04-26T10:46:44Z</time></trkpt><trkpt lat="45.514594179326444" lon="10.857148334003591"><ele>134.2</ele><time>2026-04-26T10:46:45Z</time></trkpt><trkpt lat="45.514500495279634" lon="10.857081038841896"><ele>134.0</ele><time>2026-04-26T10:46:46Z</time></trkpt><trkpt lat="45.51441557356821" lon="10.857010482928866"><ele>134.0</ele><time>2026-04-26T10:46:47Z</time></trkpt><trkpt lat="45.514336292403655" lon="10.85690622487261"><ele>134.0</ele><time>2026-04-26T10:46:48Z</time></trkpt><trkpt lat="45.51423283755488" lon="10.856812903862458"><ele>134.0</ele><time>2026-04-26T10:46:49Z</time></trkpt><trkpt lat="45.51413682826384" lon="10.85668434053691"><ele>134.0</ele><time>2026-04-26T10:46:50Z</time></trkpt><trkpt lat="45.51402085749657" lon="10.85658043327372"><ele>134.0</ele><time>2026-04-26T10:46:51Z</time></trkpt><trkpt lat="45.51392415164765" lon="10.856457224136312"><ele>134.0</ele><time>2026-04-26T10:46:52Z</time></trkpt><trkpt lat="45.51383666418813" lon="10.85634856910974"><ele>134.0</ele><time>2026-04-26T10:46:53Z</time></trkpt><trkpt lat="45.51375925581574" lon="10.856247272047607"><ele>134.0</ele><time>2026-04-26T10:46:54Z</time></trkpt><trkpt lat="45.51367582912507" lon="10.856143522036112"><ele>134.0</ele><time>2026-04-26T10:46:55Z</time></trkpt><trkpt lat="45.51360112364708" lon="10.856055621709526"><ele>134.0</ele><time>2026-04-26T10:46:56Z</time></trkpt><trkpt lat="45.5135093362605" lon="10.855966226430507"><ele>134.0</ele><time>2026-04-26T10:46:57Z</time></trkpt><trkpt lat="45.51341485046951" lon="10.855856506995124"><ele>134.0</ele><time>2026-04-26T10:46:58Z</time></trkpt><trkpt lat="45.51331772615844" lon="10.855730201066631"><ele>134.0</ele><time>2026-04-26T10:46:59Z</time></trkpt><trkpt lat="45.51321546582943" lon="10.855599275644437"><ele>134.0</ele><time>2026-04-26T10:47:00Z</time></trkpt><trkpt lat="45.51312052248122" lon="10.85547690303857"><ele>134.0</ele><time>2026-04-26T10:47:01Z</time></trkpt><trkpt lat="45.51304501611488" lon="10.855376273318345"><ele>134.0</ele><time>2026-04-26T10:47:02Z</time></trkpt><trkpt lat="45.51296574084049" lon="10.855269461503543"><ele>134.16666666666666</ele><time>2026-04-26T10:47:03Z</time></trkpt><trkpt lat="45.512901536673574" lon="10.855157747384565"><ele>134.33333333333331</ele><time>2026-04-26T10:47:04Z</time></trkpt><trkpt lat="45.512839002841815" lon="10.8550644531199"><ele>134.5</ele><time>2026-04-26T10:47:05Z</time></trkpt><trkpt lat="45.51277592400636" lon="10.854970345763746"><ele>134.66666666666666</ele><time>2026-04-26T10:47:06Z</time></trkpt><trkpt lat="45.51272555429542" lon="10.854896196414078"><ele>134.83333333333334</ele><time>2026-04-26T10:47:07Z</time></trkpt><trkpt lat="45.51266519119526" lon="10.854810995448291"><ele>135.0</ele><time>2026-04-26T10:47:08Z</time></trkpt><trkpt lat="45.51259582830697" lon="10.854718879471648"><ele>135.0</ele><time>2026-04-26T10:47:09Z</time></trkpt><trkpt lat="45.51254052761074" lon="10.854646284165849"><ele>135.0</ele><time>2026-04-26T10:47:10Z</time></trkpt><trkpt lat="45.512457823669216" lon="10.854526203846406"><ele>135.0</ele><time>2026-04-26T10:47:12Z</time></trkpt><trkpt lat="45.51241332740687" lon="10.854413186948412"><ele>135.0</ele><time>2026-04-26T10:47:14Z</time></trkpt><trkpt lat="45.51236237969451" lon="10.854280026067073"><ele>135.0</ele><time>2026-04-26T10:47:16Z</time></trkpt><trkpt lat="45.51234067909078" lon="10.854168055172899"><ele>134.8</ele><time>2026-04-26T10:47:17Z</time></trkpt><trkpt lat="45.512315962873835" lon="10.854031042453151"><ele>134.6</ele><time>2026-04-26T10:47:18Z</time></trkpt><trkpt lat="45.51229101358477" lon="10.853892541884592"><ele>134.4</ele><time>2026-04-26T10:47:19Z</time></trkpt><trkpt lat="45.51226095934244" lon="10.853737371965764"><ele>134.2</ele><time>2026-04-26T10:47:20Z</time></trkpt><trkpt lat="45.51223171481773" lon="10.85358888968586"><ele>134.0</ele><time>2026-04-26T10:47:21Z</time></trkpt><trkpt lat="45.51218334847188" lon="10.853429472412452"><ele>133.8</ele><time>2026-04-26T10:47:22Z</time></trkpt><trkpt lat="45.512150618934854" lon="10.853271274315864"><ele>133.60000000000002</ele><time>2026-04-26T10:47:23Z</time></trkpt><trkpt lat="45.512116879965" lon="10.853120826141321"><ele>133.4</ele><time>2026-04-26T10:47:24Z</time></trkpt><trkpt lat="45.51208975864969" lon="10.852980296290307"><ele>133.20000000000002</ele><time>2026-04-26T10:47:25Z</time></trkpt><trkpt lat="45.51204638758477" lon="10.852851107594828"><ele>133.0</ele><time>2026-04-26T10:47:26Z</time></trkpt><trkpt lat="45.511997679936215" lon="10.852746088285842"><ele>130.4</ele><time>2026-04-26T10:47:27Z</time></trkpt><trkpt lat="45.51193990276841" lon="10.852667269858005"><ele>127.80000000000001</ele><time>2026-04-26T10:47:28Z</time></trkpt><trkpt lat="45.51185546741861" lon="10.85263649449171"><ele>125.2</ele><time>2026-04-26T10:47:29Z</time></trkpt><trkpt lat="45.5117653360561" lon="10.85258248659292"><ele>122.6</ele><time>2026-04-26T10:47:30Z</time></trkpt><trkpt lat="45.511659295177424" lon="10.852530563431682"><ele>120.0</ele><time>2026-04-26T10:47:31Z</time></trkpt><trkpt lat="45.51154515707948" lon="10.852485475516739"><ele>120.0</ele><time>2026-04-26T10:47:32Z</time></trkpt><trkpt lat="45.511422725135596" lon="10.852438959938825"><ele>120.0</ele><time>2026-04-26T10:47:33Z</time></trkpt><trkpt lat="45.51130002890598" lon="10.85239378185734"><ele>120.0</ele><time>2026-04-26T10:47:34Z</time></trkpt><trkpt lat="45.51116992999037" lon="10.852345867702976"><ele>120.0</ele><time>2026-04-26T10:47:35Z</time></trkpt><trkpt lat="45.51104091293974" lon="10.852295416164662"><ele>119.25</ele><time>2026-04-26T10:47:36Z</time></trkpt><trkpt lat="45.510907313329106" lon="10.852239727266277"><ele>118.5</ele><time>2026-04-26T10:47:37Z</time></trkpt><trkpt lat="45.51076742954828" lon="10.852185733315372"><ele>117.75</ele><time>2026-04-26T10:47:38Z</time></trkpt><trkpt lat="45.51062556656389" lon="10.852140565874823"><ele>117.0</ele><time>2026-04-26T10:47:39Z</time></trkpt><trkpt lat="45.51047875324127" lon="10.85208901068912"><ele>116.75</ele><time>2026-04-26T10:47:40Z</time></trkpt><trkpt lat="45.5103539846045" lon="10.852034874920314"><ele>116.5</ele><time>2026-04-26T10:47:41Z</time></trkpt><trkpt lat="45.510239208652884" lon="10.851993375421504"><ele>116.25</ele><time>2026-04-26T10:47:42Z</time></trkpt><trkpt lat="45.51012533775792" lon="10.85195708094025"><ele>116.0</ele><time>2026-04-26T10:47:43Z</time></trkpt><trkpt lat="45.51001368322015" lon="10.851910792454799"><ele>116.0</ele><time>2026-04-26T10:47:44Z</time></trkpt><trkpt lat="45.50989777891984" lon="10.851862623248703"><ele>116.0</ele><time>2026-04-26T10:47:45Z</time></trkpt><trkpt lat="45.50977926958469" lon="10.851797757007054"><ele>116.0</ele><time>2026-04-26T10:47:46Z</time></trkpt><trkpt lat="45.509655258292455" lon="10.851772008727743"><ele>116.0</ele><time>2026-04-26T10:47:47Z</time></trkpt><trkpt lat="45.50954278408478" lon="10.851729125004514"><ele>115.75</ele><time>2026-04-26T10:47:48Z</time></trkpt><trkpt lat="45.509431120301166" lon="10.851675129890616"><ele>115.5</ele><time>2026-04-26T10:47:49Z</time></trkpt><trkpt lat="45.509310903760806" lon="10.851624655210363"><ele>115.25</ele><time>2026-04-26T10:47:50Z</time></trkpt><trkpt lat="45.5091868949818" lon="10.851579869518108"><ele>115.0</ele><time>2026-04-26T10:47:51Z</time></trkpt><trkpt lat="45.509056025483815" lon="10.851532111141653"><ele>115.0</ele><time>2026-04-26T10:47:52Z</time></trkpt><trkpt lat="45.50893837748741" lon="10.851485432486726"><ele>115.0</ele><time>2026-04-26T10:47:53Z</time></trkpt><trkpt lat="45.50881346449728" lon="10.851435380013047"><ele>115.0</ele><time>2026-04-26T10:47:54Z</time></trkpt><trkpt lat="45.50868738912083" lon="10.851389882426947"><ele>115.0</ele><time>2026-04-26T10:47:55Z</time></trkpt><trkpt lat="45.508553671058564" lon="10.851343448698952"><ele>115.75</ele><time>2026-04-26T10:47:56Z</time></trkpt><trkpt lat="45.508415478980076" lon="10.851299949051644"><ele>116.5</ele><time>2026-04-26T10:47:57Z</time></trkpt><trkpt lat="45.508294404752675" lon="10.851246630774025"><ele>117.25</ele><time>2026-04-26T10:47:58Z</time></trkpt><trkpt lat="45.5081807679293" lon="10.851208237505556"><ele>118.0</ele><time>2026-04-26T10:47:59Z</time></trkpt><trkpt lat="45.50807692182385" lon="10.851166080252439"><ele>118.0</ele><time>2026-04-26T10:48:00Z</time></trkpt><trkpt lat="45.50796061242507" lon="10.851127884620459"><ele>118.0</ele><time>2026-04-26T10:48:01Z</time></trkpt><trkpt lat="45.50784186876641" lon="10.851078317422594"><ele>118.0</ele><time>2026-04-26T10:48:02Z</time></trkpt><trkpt lat="45.507717315051224" lon="10.851029157663929"><ele>118.0</ele><time>2026-04-26T10:48:03Z</time></trkpt><trkpt lat="45.507593534947326" lon="10.85098684799962"><ele>118.0</ele><time>2026-04-26T10:48:04Z</time></trkpt><trkpt lat="45.50747822001544" lon="10.850942171596316"><ele>118.0</ele><time>2026-04-26T10:48:05Z</time></trkpt><trkpt lat="45.50736915474961" lon="10.850900026859094"><ele>118.0</ele><time>2026-04-26T10:48:06Z</time></trkpt><trkpt lat="45.50724204661299" lon="10.850850757696385"><ele>118.0</ele><time>2026-04-26T10:48:07Z</time></trkpt><trkpt lat="45.50711280417742" lon="10.850802175004457"><ele>117.25</ele><time>2026-04-26T10:48:08Z</time></trkpt><trkpt lat="45.50697599404968" lon="10.85075238009864"><ele>116.5</ele><time>2026-04-26T10:48:09Z</time></trkpt><trkpt lat="45.50683626781452" lon="10.850699054708077"><ele>115.75</ele><time>2026-04-26T10:48:10Z</time></trkpt><trkpt lat="45.50670490391833" lon="10.850651440848777"><ele>115.0</ele><time>2026-04-26T10:48:11Z</time></trkpt><trkpt lat="45.50658385095786" lon="10.850605447569185"><ele>115.0</ele><time>2026-04-26T10:48:12Z</time></trkpt><trkpt lat="45.50646148494325" lon="10.850551289714385"><ele>115.0</ele><time>2026-04-26T10:48:13Z</time></trkpt><trkpt lat="45.506340328162686" lon="10.850502107430836"><ele>115.0</ele><time>2026-04-26T10:48:14Z</time></trkpt><trkpt lat="45.50620686310473" lon="10.850453147685513"><ele>115.0</ele><time>2026-04-26T10:48:15Z</time></trkpt><trkpt lat="45.50606944341895" lon="10.85039957044975"><ele>114.5</ele><time>2026-04-26T10:48:16Z</time></trkpt><trkpt lat="45.50594528913597" lon="10.850352682400674"><ele>114.0</ele><time>2026-04-26T10:48:17Z</time></trkpt><trkpt lat="45.505836674054514" lon="10.850310335261256"><ele>113.5</ele><time>2026-04-26T10:48:18Z</time></trkpt><trkpt lat="45.50572798182562" lon="10.850267032476316"><ele>113.0</ele><time>2026-04-26T10:48:19Z</time></trkpt><trkpt lat="45.505624125987815" lon="10.850218191966135"><ele>113.0</ele><time>2026-04-26T10:48:20Z</time></trkpt><trkpt lat="45.50552076504033" lon="10.850189907366529"><ele>113.0</ele><time>2026-04-26T10:48:21Z</time></trkpt><trkpt lat="45.505405984962906" lon="10.85015122508245"><ele>113.0</ele><time>2026-04-26T10:48:22Z</time></trkpt><trkpt lat="45.50528688097371" lon="10.850100402365216"><ele>113.0</ele><time>2026-04-26T10:48:23Z</time></trkpt><trkpt lat="45.50516703347656" lon="10.850036063458111"><ele>114.0</ele><time>2026-04-26T10:48:24Z</time></trkpt><trkpt lat="45.505040740540515" lon="10.850009652443756"><ele>115.0</ele><time>2026-04-26T10:48:25Z</time></trkpt><trkpt lat="45.50493535367573" lon="10.849964022352882"><ele>116.0</ele><time>2026-04-26T10:48:26Z</time></trkpt><trkpt lat="45.504829622374835" lon="10.849922829333003"><ele>117.0</ele><time>2026-04-26T10:48:27Z</time></trkpt><trkpt lat="45.50471406588995" lon="10.849874749928574"><ele>117.0</ele><time>2026-04-26T10:48:28Z</time></trkpt><trkpt lat="45.504600633998606" lon="10.84982903615607"><ele>117.0</ele><time>2026-04-26T10:48:29Z</time></trkpt><trkpt lat="45.504475496964474" lon="10.849780191962958"><ele>117.0</ele><time>2026-04-26T10:48:30Z</time></trkpt><trkpt lat="45.5043599697103" lon="10.849737472976646"><ele>117.0</ele><time>2026-04-26T10:48:31Z</time></trkpt><trkpt lat="45.50424467650352" lon="10.849692560889867"><ele>117.0</ele><time>2026-04-26T10:48:32Z</time></trkpt><trkpt lat="45.50414919095342" lon="10.849653318865974"><ele>116.99999999999999</ele><time>2026-04-26T10:48:33Z</time></trkpt><trkpt lat="45.50406200394243" lon="10.849614217277525"><ele>116.99999999999999</ele><time>2026-04-26T10:48:34Z</time></trkpt><trkpt lat="45.50397393724256" lon="10.849578990512137"><ele>117.0</ele><time>2026-04-26T10:48:36Z</time></trkpt><trkpt lat="45.504005292449335" lon="10.849376259794113"><ele>117.0</ele><time>2026-04-26T10:48:57Z</time></trkpt><trkpt lat="45.50402421029073" lon="10.84927319188895"><ele>117.19999999999999</ele><time>2026-04-26T10:48:58Z</time></trkpt><trkpt lat="45.50405241848043" lon="10.849158249852715"><ele>117.39999999999999</ele><time>2026-04-26T10:48:59Z</time></trkpt><trkpt lat="45.50408666086069" lon="10.849030503734097"><ele>117.60000000000001</ele><time>2026-04-26T10:49:00Z</time></trkpt><trkpt lat="45.50412494892117" lon="10.848896020152031"><ele>117.80000000000001</ele><time>2026-04-26T10:49:01Z</time></trkpt><trkpt lat="45.50416509648967" lon="10.848757770237912"><ele>118.0</ele><time>2026-04-26T10:49:02Z</time></trkpt><trkpt lat="45.50421028522625" lon="10.848615408130964"><ele>118.0</ele><time>2026-04-26T10:49:03Z</time></trkpt><trkpt lat="45.50425154059092" lon="10.848477772705882"><ele>118.0</ele><time>2026-04-26T10:49:04Z</time></trkpt><trkpt lat="45.50430267991546" lon="10.848353812287996"><ele>118.0</ele><time>2026-04-26T10:49:05Z</time></trkpt><trkpt lat="45.5043525571613" lon="10.848179315145416"><ele>118.0</ele><time>2026-04-26T10:49:06Z</time></trkpt><trkpt lat="45.50441209938713" lon="10.848008580019277"><ele>118.0</ele><time>2026-04-26T10:49:07Z</time></trkpt><trkpt lat="45.50446078995099" lon="10.847862893549806"><ele>118.00000000000001</ele><time>2026-04-26T10:49:08Z</time></trkpt><trkpt lat="45.50450571516618" lon="10.847728943758161"><ele>118.00000000000001</ele><time>2026-04-26T10:49:09Z</time></trkpt><trkpt lat="45.504549493482436" lon="10.84759026592716"><ele>118.0</ele><time>2026-04-26T10:49:10Z</time></trkpt><trkpt lat="45.50459750999498" lon="10.84746369875728"><ele>118.0</ele><time>2026-04-26T10:49:11Z</time></trkpt><trkpt lat="45.504645982759044" lon="10.847324401777945"><ele>118.25</ele><time>2026-04-26T10:49:12Z</time></trkpt><trkpt lat="45.50469821116738" lon="10.847180119607378"><ele>118.5</ele><time>2026-04-26T10:49:13Z</time></trkpt><trkpt lat="45.5047628510713" lon="10.84702751247316"><ele>118.75</ele><time>2026-04-26T10:49:14Z</time></trkpt><trkpt lat="45.50483801219436" lon="10.846877817233887"><ele>119.0</ele><time>2026-04-26T10:49:15Z</time></trkpt><trkpt lat="45.50490356902535" lon="10.846735801548965"><ele>119.0</ele><time>2026-04-26T10:49:16Z</time></trkpt><trkpt lat="45.50497407591293" lon="10.846598737059951"><ele>119.0</ele><time>2026-04-26T10:49:17Z</time></trkpt><trkpt lat="45.50505145374605" lon="10.846456664530644"><ele>119.0</ele><time>2026-04-26T10:49:18Z</time></trkpt><trkpt lat="45.50512747998254" lon="10.846323940084917"><ele>119.0</ele><time>2026-04-26T10:49:19Z</time></trkpt><trkpt lat="45.505206455743355" lon="10.846183744244899"><ele>119.0</ele><time>2026-04-26T10:49:20Z</time></trkpt><trkpt lat="45.5052923555844" lon="10.846040598308656"><ele>119.0</ele><time>2026-04-26T10:49:21Z</time></trkpt><trkpt lat="45.50537218447695" lon="10.845907903948891"><ele>119.0</ele><time>2026-04-26T10:49:22Z</time></trkpt><trkpt lat="45.50545022967469" lon="10.84577601487354"><ele>119.0</ele><time>2026-04-26T10:49:23Z</time></trkpt><trkpt lat="45.505517778249235" lon="10.84564323374559"><ele>119.0</ele><time>2026-04-26T10:49:24Z</time></trkpt><trkpt lat="45.50558211150951" lon="10.845497564688726"><ele>119.0</ele><time>2026-04-26T10:49:25Z</time></trkpt><trkpt lat="45.50563924683632" lon="10.845345179102605"><ele>119.0</ele><time>2026-04-26T10:49:26Z</time></trkpt><trkpt lat="45.50570128135152" lon="10.845184228739573"><ele>119.0</ele><time>2026-04-26T10:49:27Z</time></trkpt><trkpt lat="45.50576167793362" lon="10.845026510068715"><ele>119.5</ele><time>2026-04-26T10:49:28Z</time></trkpt><trkpt lat="45.505817276174454" lon="10.844873432985462"><ele>120.0</ele><time>2026-04-26T10:49:29Z</time></trkpt><trkpt lat="45.50586746609839" lon="10.844716915435717"><ele>120.5</ele><time>2026-04-26T10:49:30Z</time></trkpt><trkpt lat="45.50590882843439" lon="10.844543943442185"><ele>121.0</ele><time>2026-04-26T10:49:31Z</time></trkpt><trkpt lat="45.505942889323514" lon="10.84435404817469"><ele>121.0</ele><time>2026-04-26T10:49:32Z</time></trkpt><trkpt lat="45.50597118963552" lon="10.84416172745283"><ele>121.0</ele><time>2026-04-26T10:49:33Z</time></trkpt><trkpt lat="45.5059957376589" lon="10.843985257302945"><ele>121.0</ele><time>2026-04-26T10:49:34Z</time></trkpt><trkpt lat="45.50602509990521" lon="10.843837918195389"><ele>121.0</ele><time>2026-04-26T10:49:35Z</time></trkpt><trkpt lat="45.50605125105937" lon="10.843697174143735"><ele>121.00000000000001</ele><time>2026-04-26T10:49:36Z</time></trkpt><trkpt lat="45.506079310275304" lon="10.84357272052637"><ele>121.0</ele><time>2026-04-26T10:49:37Z</time></trkpt><trkpt lat="45.50610995188915" lon="10.843465659435541"><ele>121.0</ele><time>2026-04-26T10:49:38Z</time></trkpt><trkpt lat="45.506155229553336" lon="10.843356007030092"><ele>121.0</ele><time>2026-04-26T10:49:40Z</time></trkpt><trkpt lat="45.50622876545015" lon="10.843288179453"><ele>121.00000000000001</ele><time>2026-04-26T10:49:42Z</time></trkpt><trkpt lat="45.50629146434829" lon="10.843266501225559"><ele>121.0</ele><time>2026-04-26T10:49:43Z</time></trkpt><trkpt lat="45.50635928009954" lon="10.843233137496934"><ele>120.19999999999999</ele><time>2026-04-26T10:49:44Z</time></trkpt><trkpt lat="45.50642037033686" lon="10.84317035138505"><ele>119.39999999999999</ele><time>2026-04-26T10:49:45Z</time></trkpt><trkpt lat="45.50646492509965" lon="10.843054946430442"><ele>118.6</ele><time>2026-04-26T10:49:46Z</time></trkpt><trkpt lat="45.506461762239645" lon="10.842937710184422"><ele>117.8</ele><time>2026-04-26T10:49:47Z</time></trkpt><trkpt lat="45.50642470355323" lon="10.842809343627225"><ele>117.0</ele><time>2026-04-26T10:49:48Z</time></trkpt><trkpt lat="45.506379518813084" lon="10.842675449879335"><ele>117.25</ele><time>2026-04-26T10:49:49Z</time></trkpt><trkpt lat="45.506347696916535" lon="10.842526708963701"><ele>117.5</ele><time>2026-04-26T10:49:50Z</time></trkpt><trkpt lat="45.50634422988532" lon="10.842358081782868"><ele>117.75</ele><time>2026-04-26T10:49:51Z</time></trkpt><trkpt lat="45.5063688550406" lon="10.842185840942998"><ele>118.0</ele><time>2026-04-26T10:49:52Z</time></trkpt><trkpt lat="45.50641055504856" lon="10.842027258073948"><ele>118.0</ele><time>2026-04-26T10:49:53Z</time></trkpt><trkpt lat="45.50644578744209" lon="10.841869957320979"><ele>118.0</ele><time>2026-04-26T10:49:54Z</time></trkpt><trkpt lat="45.506477226291146" lon="10.841695194488002"><ele>118.0</ele><time>2026-04-26T10:49:55Z</time></trkpt><trkpt lat="45.50651199466111" lon="10.84151447699388"><ele>118.0</ele><time>2026-04-26T10:49:56Z</time></trkpt><trkpt lat="45.50655025463195" lon="10.84133237056313"><ele>118.5</ele><time>2026-04-26T10:49:57Z</time></trkpt><trkpt lat="45.50658879060677" lon="10.841147735603496"><ele>119.0</ele><time>2026-04-26T10:49:58Z</time></trkpt><trkpt lat="45.50662823608548" lon="10.840961927532021"><ele>119.5</ele><time>2026-04-26T10:49:59Z</time></trkpt><trkpt lat="45.50666554917739" lon="10.84078512287816"><ele>120.0</ele><time>2026-04-26T10:50:00Z</time></trkpt><trkpt lat="45.50670383385717" lon="10.840597909671544"><ele>120.0</ele><time>2026-04-26T10:50:01Z</time></trkpt><trkpt lat="45.50673194434963" lon="10.84043008644031"><ele>120.0</ele><time>2026-04-26T10:50:02Z</time></trkpt><trkpt lat="45.506758481571815" lon="10.840266101125412"><ele>120.0</ele><time>2026-04-26T10:50:03Z</time></trkpt><trkpt lat="45.506783147258155" lon="10.840109674617684"><ele>120.0</ele><time>2026-04-26T10:50:04Z</time></trkpt><trkpt lat="45.50681069870135" lon="10.839935722752767"><ele>120.0</ele><time>2026-04-26T10:50:05Z</time></trkpt><trkpt lat="45.50683758797895" lon="10.839753033348956"><ele>120.0</ele><time>2026-04-26T10:50:06Z</time></trkpt><trkpt lat="45.506868452569115" lon="10.839571503329257"><ele>120.0</ele><time>2026-04-26T10:50:07Z</time></trkpt><trkpt lat="45.50689659192273" lon="10.839384958907573"><ele>120.0</ele><time>2026-04-26T10:50:08Z</time></trkpt><trkpt lat="45.506921226579884" lon="10.839203597065842"><ele>120.0</ele><time>2026-04-26T10:50:09Z</time></trkpt><trkpt lat="45.5069446314317" lon="10.839012665102896"><ele>120.0</ele><time>2026-04-26T10:50:10Z</time></trkpt><trkpt lat="45.50697177529945" lon="10.83882206829657"><ele>120.0</ele><time>2026-04-26T10:50:11Z</time></trkpt><trkpt lat="45.50700086587356" lon="10.838620227197604"><ele>120.0</ele><time>2026-04-26T10:50:12Z</time></trkpt><trkpt lat="45.50703199425259" lon="10.838415071854923"><ele>120.5</ele><time>2026-04-26T10:50:13Z</time></trkpt><trkpt lat="45.50706492870548" lon="10.838199591829767"><ele>121.0</ele><time>2026-04-26T10:50:14Z</time></trkpt><trkpt lat="45.50709323130054" lon="10.837996370096723"><ele>121.5</ele><time>2026-04-26T10:50:15Z</time></trkpt><trkpt lat="45.50711659774028" lon="10.837815533105317"><ele>122.0</ele><time>2026-04-26T10:50:16Z</time></trkpt><trkpt lat="45.50714160577276" lon="10.837640483167363"><ele>122.25</ele><time>2026-04-26T10:50:17Z</time></trkpt><trkpt lat="45.50716307394894" lon="10.837464871994934"><ele>122.5</ele><time>2026-04-26T10:50:18Z</time></trkpt><trkpt lat="45.50719077768365" lon="10.837267578739972"><ele>122.75</ele><time>2026-04-26T10:50:19Z</time></trkpt><trkpt lat="45.50722038767939" lon="10.837076890007118"><ele>123.0</ele><time>2026-04-26T10:50:20Z</time></trkpt><trkpt lat="45.5072498190631" lon="10.836870450007833"><ele>123.0</ele><time>2026-04-26T10:50:21Z</time></trkpt><trkpt lat="45.507279009836566" lon="10.836659304326476"><ele>123.0</ele><time>2026-04-26T10:50:22Z</time></trkpt><trkpt lat="45.5073056162049" lon="10.836459437781476"><ele>123.0</ele><time>2026-04-26T10:50:23Z</time></trkpt><trkpt lat="45.50733430058107" lon="10.836261801674349"><ele>123.0</ele><time>2026-04-26T10:50:24Z</time></trkpt><trkpt lat="45.50735903090975" lon="10.836079560236284"><ele>122.5</ele><time>2026-04-26T10:50:25Z</time></trkpt><trkpt lat="45.507388087160116" lon="10.835909082289994"><ele>122.0</ele><time>2026-04-26T10:50:26Z</time></trkpt><trkpt lat="45.50741790964811" lon="10.835738017264545"><ele>121.5</ele><time>2026-04-26T10:50:27Z</time></trkpt><trkpt lat="45.50744985138403" lon="10.835561333609833"><ele>121.0</ele><time>2026-04-26T10:50:28Z</time></trkpt><trkpt lat="45.507485599621454" lon="10.83537283680467"><ele>121.0</ele><time>2026-04-26T10:50:29Z</time></trkpt><trkpt lat="45.50752228210135" lon="10.835180788438022"><ele>121.0</ele><time>2026-04-26T10:50:30Z</time></trkpt><trkpt lat="45.50755902228054" lon="10.83499619162665"><ele>121.0</ele><time>2026-04-26T10:50:31Z</time></trkpt><trkpt lat="45.507598614535404" lon="10.834792825976393"><ele>121.0</ele><time>2026-04-26T10:50:32Z</time></trkpt><trkpt lat="45.50764484377054" lon="10.83457901024121"><ele>121.0</ele><time>2026-04-26T10:50:33Z</time></trkpt><trkpt lat="45.50769429160941" lon="10.83436716808316"><ele>121.0</ele><time>2026-04-26T10:50:34Z</time></trkpt><trkpt lat="45.50774088242721" lon="10.834147981109057"><ele>121.0</ele><time>2026-04-26T10:50:35Z</time></trkpt><trkpt lat="45.50778899080194" lon="10.833931398396508"><ele>121.0</ele><time>2026-04-26T10:50:36Z</time></trkpt><trkpt lat="45.5078325952379" lon="10.833733715935969"><ele>121.0</ele><time>2026-04-26T10:50:37Z</time></trkpt><trkpt lat="45.507872207030566" lon="10.833552535872196"><ele>121.0</ele><time>2026-04-26T10:50:38Z</time></trkpt><trkpt lat="45.50791107106611" lon="10.833378029590149"><ele>121.0</ele><time>2026-04-26T10:50:39Z</time></trkpt><trkpt lat="45.507950597251295" lon="10.833208955039753"><ele>120.75</ele><time>2026-04-26T10:50:40Z</time></trkpt><trkpt lat="45.50799099470209" lon="10.833035189723203"><ele>120.5</ele><time>2026-04-26T10:50:41Z</time></trkpt><trkpt lat="45.50803453168823" lon="10.832839012293876"><ele>120.25</ele><time>2026-04-26T10:50:42Z</time></trkpt><trkpt lat="45.5080809112303" lon="10.832654557429526"><ele>120.0</ele><time>2026-04-26T10:50:43Z</time></trkpt><trkpt lat="45.50812416066993" lon="10.832475985613858"><ele>120.0</ele><time>2026-04-26T10:50:44Z</time></trkpt><trkpt lat="45.50816627916705" lon="10.832285876127738"><ele>120.0</ele><time>2026-04-26T10:50:45Z</time></trkpt><trkpt lat="45.50821404879931" lon="10.832080289308951"><ele>120.0</ele><time>2026-04-26T10:50:46Z</time></trkpt><trkpt lat="45.50826576366003" lon="10.83188245921047"><ele>120.0</ele><time>2026-04-26T10:50:47Z</time></trkpt><trkpt lat="45.50832244620084" lon="10.831671733615769"><ele>118.66666666666666</ele><time>2026-04-26T10:50:48Z</time></trkpt><trkpt lat="45.50838631880512" lon="10.831462034817394"><ele>117.33333333333333</ele><time>2026-04-26T10:50:49Z</time></trkpt><trkpt lat="45.508451681855554" lon="10.831267108343857"><ele>116.0</ele><time>2026-04-26T10:50:50Z</time></trkpt><trkpt lat="45.50851921755926" lon="10.83109243734989"><ele>116.5</ele><time>2026-04-26T10:50:51Z</time></trkpt><trkpt lat="45.50859044601019" lon="10.830937830850669"><ele>117.0</ele><time>2026-04-26T10:50:52Z</time></trkpt><trkpt lat="45.5086555173083" lon="10.830791511186133"><ele>117.5</ele><time>2026-04-26T10:50:53Z</time></trkpt><trkpt lat="45.50873033971658" lon="10.830628218979964"><ele>118.0</ele><time>2026-04-26T10:50:54Z</time></trkpt><trkpt lat="45.50881081810495" lon="10.830460042114012"><ele>118.0</ele><time>2026-04-26T10:50:55Z</time></trkpt><trkpt lat="45.50890014792589" lon="10.830286573011321"><ele>118.0</ele><time>2026-04-26T10:50:56Z</time></trkpt><trkpt lat="45.50899653712946" lon="10.830115370859364"><ele>118.0</ele><time>2026-04-26T10:50:57Z</time></trkpt><trkpt lat="45.50908742561715" lon="10.829962730403235"><ele>118.0</ele><time>2026-04-26T10:50:58Z</time></trkpt><trkpt lat="45.50917470292129" lon="10.82982531112948"><ele>118.0</ele><time>2026-04-26T10:50:59Z</time></trkpt><trkpt lat="45.509262854962316" lon="10.8296938919241"><ele>118.0</ele><time>2026-04-26T10:51:00Z</time></trkpt><trkpt lat="45.50935539923236" lon="10.829560704953252"><ele>118.0</ele><time>2026-04-26T10:51:01Z</time></trkpt><trkpt lat="45.50945342897325" lon="10.82943731616636"><ele>118.0</ele><time>2026-04-26T10:51:02Z</time></trkpt><trkpt lat="45.50956069133463" lon="10.829308196808038"><ele>117.75</ele><time>2026-04-26T10:51:03Z</time></trkpt><trkpt lat="45.50967842433576" lon="10.82917083320219"><ele>117.5</ele><time>2026-04-26T10:51:04Z</time></trkpt><trkpt lat="45.50978996648616" lon="10.829047295546044"><ele>117.25</ele><time>2026-04-26T10:51:05Z</time></trkpt><trkpt lat="45.509909081238305" lon="10.828920365121977"><ele>117.0</ele><time>2026-04-26T10:51:06Z</time></trkpt><trkpt lat="45.510028094913075" lon="10.82879411972586"><ele>117.0</ele><time>2026-04-26T10:51:07Z</time></trkpt><trkpt lat="45.51014228785766" lon="10.828675350228293"><ele>117.0</ele><time>2026-04-26T10:51:08Z</time></trkpt><trkpt lat="45.510256340798456" lon="10.828555963353308"><ele>117.0</ele><time>2026-04-26T10:51:09Z</time></trkpt><trkpt lat="45.51037138856849" lon="10.828425355091595"><ele>117.0</ele><time>2026-04-26T10:51:10Z</time></trkpt><trkpt lat="45.510488026247124" lon="10.828302760825162"><ele>116.75</ele><time>2026-04-26T10:51:11Z</time></trkpt><trkpt lat="45.51061137745778" lon="10.828177136769755"><ele>116.5</ele><time>2026-04-26T10:51:12Z</time></trkpt><trkpt lat="45.51072680383057" lon="10.828060667232348"><ele>116.25</ele><time>2026-04-26T10:51:13Z</time></trkpt><trkpt lat="45.51084183563382" lon="10.827941123215131"><ele>116.0</ele><time>2026-04-26T10:51:14Z</time></trkpt><trkpt lat="45.51095127854384" lon="10.827824648714705"><ele>116.0</ele><time>2026-04-26T10:51:15Z</time></trkpt><trkpt lat="45.511062005430915" lon="10.827703956097652"><ele>116.0</ele><time>2026-04-26T10:51:16Z</time></trkpt><trkpt lat="45.511179141859145" lon="10.827574386986932"><ele>116.0</ele><time>2026-04-26T10:51:17Z</time></trkpt><trkpt lat="45.51129740295822" lon="10.827452599895622"><ele>116.0</ele><time>2026-04-26T10:51:18Z</time></trkpt><trkpt lat="45.511410803356156" lon="10.827336718869812"><ele>116.75</ele><time>2026-04-26T10:51:19Z</time></trkpt><trkpt lat="45.51151091968611" lon="10.827230709914463"><ele>117.5</ele><time>2026-04-26T10:51:20Z</time></trkpt><trkpt lat="45.51161615795743" lon="10.827121111756082"><ele>118.25</ele><time>2026-04-26T10:51:21Z</time></trkpt><trkpt lat="45.511728900914136" lon="10.827003722943939"><ele>119.0</ele><time>2026-04-26T10:51:22Z</time></trkpt><trkpt lat="45.51184227057853" lon="10.826883956980847"><ele>118.25</ele><time>2026-04-26T10:51:23Z</time></trkpt><trkpt lat="45.511960700433114" lon="10.826757273779451"><ele>117.5</ele><time>2026-04-26T10:51:24Z</time></trkpt><trkpt lat="45.51206797442904" lon="10.826643173861346"><ele>116.75</ele><time>2026-04-26T10:51:25Z</time></trkpt><trkpt lat="45.51217725870164" lon="10.826523574440504"><ele>116.0</ele><time>2026-04-26T10:51:26Z</time></trkpt><trkpt lat="45.512281896510245" lon="10.826409766896177"><ele>115.75</ele><time>2026-04-26T10:51:27Z</time></trkpt><trkpt lat="45.51238195451001" lon="10.826294521932981"><ele>115.5</ele><time>2026-04-26T10:51:28Z</time></trkpt><trkpt lat="45.51248462004899" lon="10.826175184433207"><ele>115.25</ele><time>2026-04-26T10:51:29Z</time></trkpt><trkpt lat="45.5125818612633" lon="10.82606400859907"><ele>115.0</ele><time>2026-04-26T10:51:30Z</time></trkpt><trkpt lat="45.51267872352898" lon="10.825964699557836"><ele>114.8</ele><time>2026-04-26T10:51:31Z</time></trkpt><trkpt lat="45.51277455440895" lon="10.825866112536573"><ele>114.6</ele><time>2026-04-26T10:51:32Z</time></trkpt><trkpt lat="45.51285603254272" lon="10.825799610221042"><ele>114.4</ele><time>2026-04-26T10:51:33Z</time></trkpt><trkpt lat="45.5129272666416" lon="10.825723783465156"><ele>114.2</ele><time>2026-04-26T10:51:34Z</time></trkpt><trkpt lat="45.51298344998704" lon="10.825663977842371"><ele>114.0</ele><time>2026-04-26T10:51:35Z</time></trkpt><trkpt lat="45.51292941785581" lon="10.82545402664153"><ele>114.0</ele><time>2026-04-26T10:51:38Z</time></trkpt><trkpt lat="45.51286734521946" lon="10.825394004698575"><ele>114.0</ele><time>2026-04-26T10:51:39Z</time></trkpt><trkpt lat="45.512794760919626" lon="10.825336613103008"><ele>114.0</ele><time>2026-04-26T10:51:40Z</time></trkpt><trkpt lat="45.5127324467092" lon="10.825298060402034"><ele>114.0</ele><time>2026-04-26T10:51:41Z</time></trkpt><trkpt lat="45.51265626232747" lon="10.825283584533029"><ele>114.0</ele><time>2026-04-26T10:51:42Z</time></trkpt><trkpt lat="45.512510482285855" lon="10.82527756255022"><ele>114.0</ele><time>2026-04-26T10:51:44Z</time></trkpt><trkpt lat="45.51240754740821" lon="10.825279825341328"><ele>114.0</ele><time>2026-04-26T10:51:45Z</time></trkpt><trkpt lat="45.512296974556925" lon="10.825274476635629"><ele>114.0</ele><time>2026-04-26T10:51:46Z</time></trkpt><trkpt lat="45.512232098470406" lon="10.825267822642926"><ele>114.0</ele><time>2026-04-26T10:51:47Z</time></trkpt><trkpt lat="45.51212865325552" lon="10.825230457234408"><ele>114.0</ele><time>2026-04-26T10:51:48Z</time></trkpt><trkpt lat="45.512050477235505" lon="10.825189984778543"><ele>114.0</ele><time>2026-04-26T10:51:49Z</time></trkpt><trkpt lat="45.51197084334375" lon="10.825162688378686"><ele>114.0</ele><time>2026-04-26T10:51:50Z</time></trkpt><trkpt lat="45.51189687084142" lon="10.825169097992523"><ele>114.16666666666667</ele><time>2026-04-26T10:51:51Z</time></trkpt><trkpt lat="45.51183165785798" lon="10.825163508421438"><ele>114.33333333333334</ele><time>2026-04-26T10:51:52Z</time></trkpt><trkpt lat="45.51176279098541" lon="10.82513672231533"><ele>114.5</ele><time>2026-04-26T10:51:53Z</time></trkpt><trkpt lat="45.511702581495136" lon="10.82502837384762"><ele>114.66666666666667</ele><time>2026-04-26T10:51:54Z</time></trkpt><trkpt lat="45.51164555756005" lon="10.824961598718694"><ele>114.83333333333334</ele><time>2026-04-26T10:51:55Z</time></trkpt><trkpt lat="45.51156550652236" lon="10.824893593432101"><ele>115.0</ele><time>2026-04-26T10:51:56Z</time></trkpt><trkpt lat="45.51147981967126" lon="10.824802432409287"><ele>115.0</ele><time>2026-04-26T10:51:57Z</time></trkpt><trkpt lat="45.51134842169409" lon="10.824730887956843"><ele>115.0</ele><time>2026-04-26T10:51:58Z</time></trkpt><trkpt lat="45.51123714716583" lon="10.82464249576215"><ele>115.0</ele><time>2026-04-26T10:51:59Z</time></trkpt><trkpt lat="45.51117982836759" lon="10.82455532656044"><ele>115.0</ele><time>2026-04-26T10:52:00Z</time></trkpt><trkpt lat="45.51115165455069" lon="10.824421323087286"><ele>114.6</ele><time>2026-04-26T10:52:02Z</time></trkpt><trkpt lat="45.511123121952984" lon="10.824317772444653"><ele>114.2</ele><time>2026-04-26T10:52:03Z</time></trkpt><trkpt lat="45.51108433897203" lon="10.824197540749601"><ele>113.80000000000001</ele><time>2026-04-26T10:52:04Z</time></trkpt><trkpt lat="45.51100553350142" lon="10.824107332903294"><ele>113.4</ele><time>2026-04-26T10:52:05Z</time></trkpt><trkpt lat="45.51092730698723" lon="10.824020800257498"><ele>113.0</ele><time>2026-04-26T10:52:06Z</time></trkpt><trkpt lat="45.51082915016433" lon="10.823934273909884"><ele>112.75</ele><time>2026-04-26T10:52:07Z</time></trkpt><trkpt lat="45.510727763304494" lon="10.823869793946256"><ele>112.5</ele><time>2026-04-26T10:52:08Z</time></trkpt><trkpt lat="45.510608120220226" lon="10.823813359185733"><ele>112.25</ele><time>2026-04-26T10:52:09Z</time></trkpt><trkpt lat="45.51050126293008" lon="10.82374190597075"><ele>112.0</ele><time>2026-04-26T10:52:10Z</time></trkpt><trkpt lat="45.51038300611687" lon="10.823686853131948"><ele>112.0</ele><time>2026-04-26T10:52:11Z</time></trkpt><trkpt lat="45.51025630046142" lon="10.823628412734962"><ele>112.0</ele><time>2026-04-26T10:52:12Z</time></trkpt><trkpt lat="45.510120778877805" lon="10.823565906147122"><ele>112.0</ele><time>2026-04-26T10:52:13Z</time></trkpt><trkpt lat="45.50999832095498" lon="10.823531802061472"><ele>112.0</ele><time>2026-04-26T10:52:14Z</time></trkpt><trkpt lat="45.509882157601695" lon="10.823450511470648"><ele>111.6</ele><time>2026-04-26T10:52:15Z</time></trkpt><trkpt lat="45.509777297543515" lon="10.823390152617822"><ele>111.19999999999999</ele><time>2026-04-26T10:52:16Z</time></trkpt><trkpt lat="45.50966466866391" lon="10.823327303238864"><ele>110.8</ele><time>2026-04-26T10:52:17Z</time></trkpt><trkpt lat="45.50957677364783" lon="10.823281009922557"><ele>110.4</ele><time>2026-04-26T10:52:18Z</time></trkpt><trkpt lat="45.50950013043477" lon="10.82324227549472"><ele>110.0</ele><time>2026-04-26T10:52:19Z</time></trkpt><trkpt lat="45.5094344700951" lon="10.823209091726454"><ele>110.0</ele><time>2026-04-26T10:52:20Z</time></trkpt><trkpt lat="45.509337758912665" lon="10.823174743929616"><ele>110.0</ele><time>2026-04-26T10:52:22Z</time></trkpt><trkpt lat="45.5092592876484" lon="10.82313123222303"><ele>110.0</ele><time>2026-04-26T10:52:24Z</time></trkpt><trkpt lat="45.509391367398656" lon="10.823188117809492"><ele>110.0</ele><time>2026-04-26T10:52:35Z</time></trkpt><trkpt lat="45.509470688221974" lon="10.82325810197204"><ele>110.0</ele><time>2026-04-26T10:52:36Z</time></trkpt><trkpt lat="45.509548133983024" lon="10.823297126076838"><ele>110.0</ele><time>2026-04-26T10:52:37Z</time></trkpt><trkpt lat="45.50971071602575" lon="10.823382270616595"><ele>110.0</ele><time>2026-04-26T10:52:39Z</time></trkpt><trkpt lat="45.50976850622393" lon="10.823330295837637"><ele>110.0</ele><time>2026-04-26T10:52:41Z</time></trkpt><trkpt lat="45.50978298442244" lon="10.823236614983252"><ele>110.0</ele><time>2026-04-26T10:52:42Z</time></trkpt><trkpt lat="45.5098061813523" lon="10.823122601089109"><ele>110.0</ele><time>2026-04-26T10:52:43Z</time></trkpt><trkpt lat="45.509832785135266" lon="10.822984726253988"><ele>110.0</ele><time>2026-04-26T10:52:44Z</time></trkpt><trkpt lat="45.509869961255454" lon="10.82281516448728"><ele>110.0</ele><time>2026-04-26T10:52:45Z</time></trkpt><trkpt lat="45.50991280715086" lon="10.82263375338801"><ele>110.0</ele><time>2026-04-26T10:52:46Z</time></trkpt><trkpt lat="45.509957986213436" lon="10.822438507453585"><ele>110.0</ele><time>2026-04-26T10:52:47Z</time></trkpt><trkpt lat="45.51000307220618" lon="10.822236804781271"><ele>110.0</ele><time>2026-04-26T10:52:48Z</time></trkpt><trkpt lat="45.51004820762539" lon="10.822055103137759"><ele>110.0</ele><time>2026-04-26T10:52:49Z</time></trkpt><trkpt lat="45.5101214161817" lon="10.821885142147567"><ele>110.0</ele><time>2026-04-26T10:52:50Z</time></trkpt><trkpt lat="45.51016727561152" lon="10.821717016128877"><ele>110.0</ele><time>2026-04-26T10:52:51Z</time></trkpt><trkpt lat="45.51021178170284" lon="10.821566333828263"><ele>110.0</ele><time>2026-04-26T10:52:52Z</time></trkpt><trkpt lat="45.51026027681508" lon="10.821405972847074"><ele>110.0</ele><time>2026-04-26T10:52:53Z</time></trkpt><trkpt lat="45.51030793134857" lon="10.821240590978283"><ele>110.0</ele><time>2026-04-26T10:52:54Z</time></trkpt><trkpt lat="45.510357498234924" lon="10.82105964558703"><ele>110.0</ele><time>2026-04-26T10:52:55Z</time></trkpt><trkpt lat="45.51039008657116" lon="10.820858173690329"><ele>110.0</ele><time>2026-04-26T10:52:56Z</time></trkpt><trkpt lat="45.51044032412909" lon="10.820668392981059"><ele>110.0</ele><time>2026-04-26T10:52:57Z</time></trkpt><trkpt lat="45.51048547575804" lon="10.820490575972935"><ele>110.0</ele><time>2026-04-26T10:52:58Z</time></trkpt><trkpt lat="45.51051701617671" lon="10.820327695075244"><ele>110.0</ele><time>2026-04-26T10:52:59Z</time></trkpt><trkpt lat="45.51054872798429" lon="10.820165716515199"><ele>110.0</ele><time>2026-04-26T10:53:00Z</time></trkpt><trkpt lat="45.510572521674305" lon="10.820028808443062"><ele>110.0</ele><time>2026-04-26T10:53:01Z</time></trkpt><trkpt lat="45.51059910165862" lon="10.819892249297412"><ele>110.0</ele><time>2026-04-26T10:53:02Z</time></trkpt><trkpt lat="45.510626911059184" lon="10.81974803311763"><ele>110.0</ele><time>2026-04-26T10:53:03Z</time></trkpt><trkpt lat="45.510654706332005" lon="10.819599023505988"><ele>110.0</ele><time>2026-04-26T10:53:04Z</time></trkpt><trkpt lat="45.510671245338905" lon="10.81948234580041"><ele>110.0</ele><time>2026-04-26T10:53:05Z</time></trkpt><trkpt lat="45.51066177402541" lon="10.819363227574447"><ele>110.0</ele><time>2026-04-26T10:53:07Z</time></trkpt><trkpt lat="45.51070698394968" lon="10.819223915131397"><ele>110.0</ele><time>2026-04-26T10:53:09Z</time></trkpt><trkpt lat="45.51073796436297" lon="10.819108008573247"><ele>110.0</ele><time>2026-04-26T10:53:10Z</time></trkpt><trkpt lat="45.5107744510642" lon="10.818966820932285"><ele>110.0</ele><time>2026-04-26T10:53:11Z</time></trkpt><trkpt lat="45.5108135815603" lon="10.818814813910526"><ele>110.6</ele><time>2026-04-26T10:53:12Z</time></trkpt><trkpt lat="45.51085532411772" lon="10.818656277254373"><ele>111.2</ele><time>2026-04-26T10:53:13Z</time></trkpt><trkpt lat="45.5108858415911" lon="10.818497813383543"><ele>111.80000000000001</ele><time>2026-04-26T10:53:14Z</time></trkpt><trkpt lat="45.5109237740708" lon="10.818356050678286"><ele>112.4</ele><time>2026-04-26T10:53:15Z</time></trkpt><trkpt lat="45.510964921091166" lon="10.818237786827392"><ele>113.0</ele><time>2026-04-26T10:53:16Z</time></trkpt><trkpt lat="45.5110084207779" lon="10.818116234055182"><ele>113.0</ele><time>2026-04-26T10:53:17Z</time></trkpt><trkpt lat="45.51108012350841" lon="10.817999472244503"><ele>113.00000000000001</ele><time>2026-04-26T10:53:18Z</time></trkpt><trkpt lat="45.51112737111445" lon="10.81787061201566"><ele>113.00000000000001</ele><time>2026-04-26T10:53:19Z</time></trkpt><trkpt lat="45.51117593794388" lon="10.817746549808431"><ele>113.0</ele><time>2026-04-26T10:53:20Z</time></trkpt><trkpt lat="45.51120841284105" lon="10.817640095817826"><ele>113.0</ele><time>2026-04-26T10:53:21Z</time></trkpt><trkpt lat="45.511253360685004" lon="10.817498474311877"><ele>113.0</ele><time>2026-04-26T10:53:22Z</time></trkpt><trkpt lat="45.51130052442508" lon="10.817350991749732"><ele>113.0</ele><time>2026-04-26T10:53:23Z</time></trkpt><trkpt lat="45.51135277134309" lon="10.817189745219657"><ele>113.0</ele><time>2026-04-26T10:53:24Z</time></trkpt><trkpt lat="45.51139559760748" lon="10.81701950321022"><ele>113.0</ele><time>2026-04-26T10:53:25Z</time></trkpt><trkpt lat="45.51142021079436" lon="10.816870665987727"><ele>113.0</ele><time>2026-04-26T10:53:26Z</time></trkpt><trkpt lat="45.51147058308395" lon="10.816732021434639"><ele>113.0</ele><time>2026-04-26T10:53:27Z</time></trkpt><trkpt lat="45.51150424599683" lon="10.816564193686437"><ele>113.0</ele><time>2026-04-26T10:53:28Z</time></trkpt><trkpt lat="45.51155137822679" lon="10.816401763900998"><ele>113.0</ele><time>2026-04-26T10:53:29Z</time></trkpt><trkpt lat="45.511614621864894" lon="10.816255345452026"><ele>113.0</ele><time>2026-04-26T10:53:30Z</time></trkpt><trkpt lat="45.511654785768464" lon="10.816100048151382"><ele>113.00000000000001</ele><time>2026-04-26T10:53:31Z</time></trkpt><trkpt lat="45.51168932265848" lon="10.81597805425611"><ele>113.00000000000001</ele><time>2026-04-26T10:53:32Z</time></trkpt><trkpt lat="45.51173122465537" lon="10.815857695448214"><ele>113.0</ele><time>2026-04-26T10:53:33Z</time></trkpt><trkpt lat="45.51176847118817" lon="10.815716976716157"><ele>113.0</ele><time>2026-04-26T10:53:34Z</time></trkpt><trkpt lat="45.511799348393815" lon="10.815579893247012"><ele>113.2</ele><time>2026-04-26T10:53:35Z</time></trkpt><trkpt lat="45.511825129748836" lon="10.815467156242088"><ele>113.4</ele><time>2026-04-26T10:53:36Z</time></trkpt><trkpt lat="45.51185592727268" lon="10.815324679443826"><ele>113.60000000000001</ele><time>2026-04-26T10:53:37Z</time></trkpt><trkpt lat="45.51189245519564" lon="10.815179660952975"><ele>113.80000000000001</ele><time>2026-04-26T10:53:38Z</time></trkpt><trkpt lat="45.511927539697794" lon="10.8150486647059"><ele>114.0</ele><time>2026-04-26T10:53:39Z</time></trkpt><trkpt lat="45.51194788313379" lon="10.814929722753357"><ele>114.0</ele><time>2026-04-26T10:53:40Z</time></trkpt><trkpt lat="45.51197657474469" lon="10.814837678533651"><ele>114.0</ele><time>2026-04-26T10:53:41Z</time></trkpt><trkpt lat="45.512009579119685" lon="10.814756960669417"><ele>114.0</ele><time>2026-04-26T10:53:42Z</time></trkpt><trkpt lat="45.512057106317286" lon="10.81467622676903"><ele>114.0</ele><time>2026-04-26T10:53:43Z</time></trkpt><trkpt lat="45.51211455480999" lon="10.814550564676832"><ele>114.0</ele><time>2026-04-26T10:53:44Z</time></trkpt><trkpt lat="45.51219694600335" lon="10.814457056214504"><ele>114.0</ele><time>2026-04-26T10:53:45Z</time></trkpt><trkpt lat="45.51224813249692" lon="10.814369331652093"><ele>114.0</ele><time>2026-04-26T10:53:46Z</time></trkpt><trkpt lat="45.51228962330409" lon="10.814293872288198"><ele>114.0</ele><time>2026-04-26T10:53:47Z</time></trkpt><trkpt lat="45.51231776430982" lon="10.814173624438075"><ele>114.0</ele><time>2026-04-26T10:53:49Z</time></trkpt><trkpt lat="45.51230406186147" lon="10.814083547949572"><ele>114.0</ele><time>2026-04-26T10:53:50Z</time></trkpt><trkpt lat="45.51228381714838" lon="10.81396108970027"><ele>114.0</ele><time>2026-04-26T10:53:51Z</time></trkpt><trkpt lat="45.51225364698308" lon="10.813818605869068"><ele>114.0</ele><time>2026-04-26T10:53:52Z</time></trkpt><trkpt lat="45.51221611099719" lon="10.8136735641523"><ele>114.0</ele><time>2026-04-26T10:53:53Z</time></trkpt><trkpt lat="45.51218320189513" lon="10.813544539375114"><ele>114.0</ele><time>2026-04-26T10:53:54Z</time></trkpt><trkpt lat="45.512155241858245" lon="10.813398123342814"><ele>114.0</ele><time>2026-04-26T10:53:55Z</time></trkpt><trkpt lat="45.51212680599544" lon="10.813232565233463"><ele>114.0</ele><time>2026-04-26T10:53:56Z</time></trkpt><trkpt lat="45.51209906475789" lon="10.813069999378206"><ele>114.0</ele><time>2026-04-26T10:53:57Z</time></trkpt><trkpt lat="45.51208023908831" lon="10.812923458865601"><ele>114.2</ele><time>2026-04-26T10:53:58Z</time></trkpt><trkpt lat="45.512070974744084" lon="10.812782848182216"><ele>114.4</ele><time>2026-04-26T10:53:59Z</time></trkpt><trkpt lat="45.512071584077475" lon="10.812649879041695"><ele>114.6</ele><time>2026-04-26T10:54:00Z</time></trkpt><trkpt lat="45.512098568926596" lon="10.81249864260828"><ele>114.8</ele><time>2026-04-26T10:54:01Z</time></trkpt><trkpt lat="45.51211952958572" lon="10.812339191551521"><ele>115.0</ele><time>2026-04-26T10:54:02Z</time></trkpt><trkpt lat="45.51214795623135" lon="10.812185300828522"><ele>115.0</ele><time>2026-04-26T10:54:03Z</time></trkpt><trkpt lat="45.5121791799897" lon="10.812030528599973"><ele>115.0</ele><time>2026-04-26T10:54:04Z</time></trkpt><trkpt lat="45.51220564942265" lon="10.811848744273693"><ele>115.0</ele><time>2026-04-26T10:54:05Z</time></trkpt><trkpt lat="45.51225129231984" lon="10.811667169030143"><ele>115.0</ele><time>2026-04-26T10:54:06Z</time></trkpt><trkpt lat="45.51230918157541" lon="10.811489930955602"><ele>115.0</ele><time>2026-04-26T10:54:07Z</time></trkpt><trkpt lat="45.51235599099511" lon="10.8112878731596"><ele>115.0</ele><time>2026-04-26T10:54:08Z</time></trkpt><trkpt lat="45.512411621564745" lon="10.811083715312376"><ele>115.0</ele><time>2026-04-26T10:54:09Z</time></trkpt><trkpt lat="45.512466704281685" lon="10.810884162056272"><ele>114.75</ele><time>2026-04-26T10:54:10Z</time></trkpt><trkpt lat="45.51252010280155" lon="10.81071434521833"><ele>114.5</ele><time>2026-04-26T10:54:11Z</time></trkpt><trkpt lat="45.51256585735744" lon="10.810555568893923"><ele>114.25</ele><time>2026-04-26T10:54:12Z</time></trkpt><trkpt lat="45.51261353288746" lon="10.810405746461198"><ele>114.0</ele><time>2026-04-26T10:54:13Z</time></trkpt><trkpt lat="45.51265504274054" lon="10.810268716239479"><ele>113.80000000000001</ele><time>2026-04-26T10:54:14Z</time></trkpt><trkpt lat="45.51269164406128" lon="10.81015167835117"><ele>113.60000000000001</ele><time>2026-04-26T10:54:15Z</time></trkpt><trkpt lat="45.51273805985611" lon="10.810014133697889"><ele>113.4</ele><time>2026-04-26T10:54:17Z</time></trkpt><trkpt lat="45.51284982267587" lon="10.81001226039256"><ele>113.2</ele><time>2026-04-26T10:54:20Z</time></trkpt><trkpt lat="45.51292782771744" lon="10.810062575385123"><ele>113.0</ele><time>2026-04-26T10:54:21Z</time></trkpt><trkpt lat="45.51301111949946" lon="10.810129818088361"><ele>113.0</ele><time>2026-04-26T10:54:22Z</time></trkpt><trkpt lat="45.51311006488723" lon="10.810198016740022"><ele>113.0</ele><time>2026-04-26T10:54:23Z</time></trkpt><trkpt lat="45.51322098047627" lon="10.810266597048054"><ele>113.0</ele><time>2026-04-26T10:54:24Z</time></trkpt><trkpt lat="45.51333997028307" lon="10.8103283635353"><ele>113.0</ele><time>2026-04-26T10:54:25Z</time></trkpt><trkpt lat="45.5134744479359" lon="10.810406989083335"><ele>113.0</ele><time>2026-04-26T10:54:26Z</time></trkpt><trkpt lat="45.51359926776211" lon="10.810493691479714"><ele>113.0</ele><time>2026-04-26T10:54:27Z</time></trkpt><trkpt lat="45.51372873320867" lon="10.810576682541347"><ele>113.0</ele><time>2026-04-26T10:54:28Z</time></trkpt><trkpt lat="45.513857815135985" lon="10.810656095353519"><ele>113.0</ele><time>2026-04-26T10:54:29Z</time></trkpt><trkpt lat="45.513996150581335" lon="10.810744696397872"><ele>113.0</ele><time>2026-04-26T10:54:30Z</time></trkpt><trkpt lat="45.514137610591014" lon="10.810830692556905"><ele>113.0</ele><time>2026-04-26T10:54:31Z</time></trkpt><trkpt lat="45.514274834117565" lon="10.810914669352105"><ele>113.0</ele><time>2026-04-26T10:54:32Z</time></trkpt><trkpt lat="45.514417436342086" lon="10.81100269588585"><ele>113.5</ele><time>2026-04-26T10:54:33Z</time></trkpt><trkpt lat="45.51454963197086" lon="10.811081359031009"><ele>114.0</ele><time>2026-04-26T10:54:34Z</time></trkpt><trkpt lat="45.514687077062526" lon="10.811155139197583"><ele>114.5</ele><time>2026-04-26T10:54:35Z</time></trkpt><trkpt lat="45.51482416018701" lon="10.81123233621662"><ele>115.0</ele><time>2026-04-26T10:54:36Z</time></trkpt><trkpt lat="45.514938198005254" lon="10.81130609974724"><ele>115.0</ele><time>2026-04-26T10:54:37Z</time></trkpt><trkpt lat="45.51505577733946" lon="10.811373529192357"><ele>115.0</ele><time>2026-04-26T10:54:38Z</time></trkpt><trkpt lat="45.5151790007464" lon="10.811449817267174"><ele>115.0</ele><time>2026-04-26T10:54:39Z</time></trkpt><trkpt lat="45.515301573842244" lon="10.811530053481233"><ele>115.0</ele><time>2026-04-26T10:54:40Z</time></trkpt><trkpt lat="45.51543547796916" lon="10.811600487294935"><ele>115.0</ele><time>2026-04-26T10:54:41Z</time></trkpt><trkpt lat="45.51558016299874" lon="10.811660450340788"><ele>115.0</ele><time>2026-04-26T10:54:42Z</time></trkpt><trkpt lat="45.515730841205425" lon="10.811712307801642"><ele>115.0</ele><time>2026-04-26T10:54:43Z</time></trkpt><trkpt lat="45.51588962821326" lon="10.811747388370216"><ele>115.0</ele><time>2026-04-26T10:54:44Z</time></trkpt><trkpt lat="45.51604638467722" lon="10.81177958817948"><ele>115.0</ele><time>2026-04-26T10:54:45Z</time></trkpt><trkpt lat="45.5162174750144" lon="10.811807926904141"><ele>115.0</ele><time>2026-04-26T10:54:46Z</time></trkpt><trkpt lat="45.51637334690762" lon="10.811848489678551"><ele>115.33333333333334</ele><time>2026-04-26T10:54:47Z</time></trkpt><trkpt lat="45.516530267160746" lon="10.811891789564784"><ele>115.66666666666666</ele><time>2026-04-26T10:54:48Z</time></trkpt><trkpt lat="45.51667584823802" lon="10.811932764073184"><ele>116.0</ele><time>2026-04-26T10:54:49Z</time></trkpt><trkpt lat="45.51682645686172" lon="10.81196156171792"><ele>116.0</ele><time>2026-04-26T10:54:50Z</time></trkpt><trkpt lat="45.516969284470875" lon="10.811989419313402"><ele>116.0</ele><time>2026-04-26T10:54:51Z</time></trkpt><trkpt lat="45.51710914438181" lon="10.812015756683152"><ele>116.0</ele><time>2026-04-26T10:54:52Z</time></trkpt><trkpt lat="45.51725782981438" lon="10.812057175337674"><ele>116.0</ele><time>2026-04-26T10:54:53Z</time></trkpt><trkpt lat="45.517408383436326" lon="10.812097969618362"><ele>116.0</ele><time>2026-04-26T10:54:54Z</time></trkpt><trkpt lat="45.517549274319165" lon="10.812128824103544"><ele>116.0</ele><time>2026-04-26T10:54:55Z</time></trkpt><trkpt lat="45.51768023891917" lon="10.812156567289483"><ele>116.0</ele><time>2026-04-26T10:54:56Z</time></trkpt><trkpt lat="45.51779835370356" lon="10.812180779542581"><ele>116.0</ele><time>2026-04-26T10:54:57Z</time></trkpt><trkpt lat="45.517905917980656" lon="10.812208505568336"><ele>116.0</ele><time>2026-04-26T10:54:58Z</time></trkpt><trkpt lat="45.518002489440285" lon="10.812230566771817"><ele>116.0</ele><time>2026-04-26T10:54:59Z</time></trkpt><trkpt lat="45.518082645396326" lon="10.8122609549125"><ele>116.0</ele><time>2026-04-26T10:55:00Z</time></trkpt><trkpt lat="45.518201463866504" lon="10.812324266597873"><ele>116.0</ele><time>2026-04-26T10:55:02Z</time></trkpt><trkpt lat="45.51826177375889" lon="10.812365485877812"><ele>116.0</ele><time>2026-04-26T10:55:03Z</time></trkpt><trkpt lat="45.51834365885018" lon="10.812394128081259"><ele>116.0</ele><time>2026-04-26T10:55:04Z</time></trkpt><trkpt lat="45.51843025046236" lon="10.812311372271447"><ele>116.0</ele><time>2026-04-26T10:55:05Z</time></trkpt><trkpt lat="45.51850391609891" lon="10.812205810228047"><ele>116.0</ele><time>2026-04-26T10:55:06Z</time></trkpt><trkpt lat="45.51857899177471" lon="10.81209932180335"><ele>116.0</ele><time>2026-04-26T10:55:07Z</time></trkpt><trkpt lat="45.518674772924925" lon="10.812033737202785"><ele>116.0</ele><time>2026-04-26T10:55:08Z</time></trkpt><trkpt lat="45.51879021629131" lon="10.812005252147658"><ele>115.5</ele><time>2026-04-26T10:55:09Z</time></trkpt><trkpt lat="45.518913238579295" lon="10.811986511618871"><ele>115.0</ele><time>2026-04-26T10:55:10Z</time></trkpt><trkpt lat="45.51904588398782" lon="10.81196858609534"><ele>114.5</ele><time>2026-04-26T10:55:11Z</time></trkpt><trkpt lat="45.51918618937331" lon="10.811955500419256"><ele>114.0</ele><time>2026-04-26T10:55:12Z</time></trkpt><trkpt lat="45.51932242430626" lon="10.811956663334149"><ele>114.0</ele><time>2026-04-26T10:55:13Z</time></trkpt><trkpt lat="45.51945519019815" lon="10.811956496687772"><ele>114.0</ele><time>2026-04-26T10:55:14Z</time></trkpt><trkpt lat="45.519582990792124" lon="10.811953746378917"><ele>114.0</ele><time>2026-04-26T10:55:15Z</time></trkpt><trkpt lat="45.51972125838999" lon="10.81194741976987"><ele>114.0</ele><time>2026-04-26T10:55:16Z</time></trkpt><trkpt lat="45.51983761508238" lon="10.811939791802004"><ele>114.0</ele><time>2026-04-26T10:55:17Z</time></trkpt><trkpt lat="45.51995212546362" lon="10.811939225818131"><ele>114.0</ele><time>2026-04-26T10:55:18Z</time></trkpt><trkpt lat="45.52005971934349" lon="10.81194437479923"><ele>114.0</ele><time>2026-04-26T10:55:19Z</time></trkpt><trkpt lat="45.52015456499057" lon="10.811949184939573"><ele>114.0</ele><time>2026-04-26T10:55:20Z</time></trkpt><trkpt lat="45.52024213268623" lon="10.811961595782101"><ele>114.0</ele><time>2026-04-26T10:55:21Z</time></trkpt><trkpt lat="45.52032873534842" lon="10.811984575880855"><ele>113.6</ele><time>2026-04-26T10:55:22Z</time></trkpt><trkpt lat="45.52040195964794" lon="10.811999569178647"><ele>113.2</ele><time>2026-04-26T10:55:23Z</time></trkpt><trkpt lat="45.52050009082748" lon="10.811993697948358"><ele>112.79999999999998</ele><time>2026-04-26T10:55:24Z</time></trkpt><trkpt lat="45.52059593718085" lon="10.8119577268833"><ele>112.39999999999999</ele><time>2026-04-26T10:55:25Z</time></trkpt><trkpt lat="45.52068045485896" lon="10.811890818601068"><ele>112.0</ele><time>2026-04-26T10:55:26Z</time></trkpt><trkpt lat="45.5207597782897" lon="10.811828516406429"><ele>112.0</ele><time>2026-04-26T10:55:27Z</time></trkpt><trkpt lat="45.520865159032525" lon="10.811806723399775"><ele>112.0</ele><time>2026-04-26T10:55:28Z</time></trkpt><trkpt lat="45.52099488076661" lon="10.811822934954852"><ele>112.0</ele><time>2026-04-26T10:55:29Z</time></trkpt><trkpt lat="45.5211389682422" lon="10.811843038620138"><ele>112.0</ele><time>2026-04-26T10:55:30Z</time></trkpt><trkpt lat="45.521266971191245" lon="10.811848575837011"><ele>112.5</ele><time>2026-04-26T10:55:31Z</time></trkpt><trkpt lat="45.5213764329257" lon="10.811872326959037"><ele>113.0</ele><time>2026-04-26T10:55:32Z</time></trkpt><trkpt lat="45.52148033718772" lon="10.811864774638995"><ele>113.5</ele><time>2026-04-26T10:55:33Z</time></trkpt><trkpt lat="45.52159305882256" lon="10.81189637977492"><ele>114.0</ele><time>2026-04-26T10:55:34Z</time></trkpt><trkpt lat="45.521714799244656" lon="10.81192969719091"><ele>114.0</ele><time>2026-04-26T10:55:35Z</time></trkpt><trkpt lat="45.521847200946965" lon="10.81195855710754"><ele>114.0</ele><time>2026-04-26T10:55:36Z</time></trkpt><trkpt lat="45.52197913471957" lon="10.81198482311045"><ele>114.0</ele><time>2026-04-26T10:55:37Z</time></trkpt><trkpt lat="45.52210814693408" lon="10.81200218933592"><ele>114.0</ele><time>2026-04-26T10:55:38Z</time></trkpt><trkpt lat="45.52223135845759" lon="10.812036523252795"><ele>113.75</ele><time>2026-04-26T10:55:39Z</time></trkpt><trkpt lat="45.5223552674078" lon="10.811979807079133"><ele>113.5</ele><time>2026-04-26T10:55:40Z</time></trkpt><trkpt lat="45.522480662509196" lon="10.811950828219725"><ele>113.25</ele><time>2026-04-26T10:55:41Z</time></trkpt><trkpt lat="45.522613656718434" lon="10.81191916754455"><ele>113.0</ele><time>2026-04-26T10:55:42Z</time></trkpt><trkpt lat="45.522752172224294" lon="10.811887115803472"><ele>113.0</ele><time>2026-04-26T10:55:43Z</time></trkpt><trkpt lat="45.52288194845753" lon="10.811851453842467"><ele>113.0</ele><time>2026-04-26T10:55:44Z</time></trkpt><trkpt lat="45.522998358673966" lon="10.811817905170958"><ele>113.0</ele><time>2026-04-26T10:55:45Z</time></trkpt><trkpt lat="45.523111279601615" lon="10.811788273183"><ele>113.0</ele><time>2026-04-26T10:55:46Z</time></trkpt><trkpt lat="45.52321812682911" lon="10.811762087084574"><ele>112.60000000000001</ele><time>2026-04-26T10:55:47Z</time></trkpt><trkpt lat="45.52331719228377" lon="10.811731833802682"><ele>112.20000000000002</ele><time>2026-04-26T10:55:48Z</time></trkpt><trkpt lat="45.52341763150481" lon="10.811702880907578"><ele>111.8</ele><time>2026-04-26T10:55:49Z</time></trkpt><trkpt lat="45.523509276507504" lon="10.811673533718569"><ele>111.4</ele><time>2026-04-26T10:55:50Z</time></trkpt><trkpt lat="45.52357512290075" lon="10.811646331984221"><ele>111.0</ele><time>2026-04-26T10:55:51Z</time></trkpt><trkpt lat="45.52365983140981" lon="10.811590132300523"><ele>111.0</ele><time>2026-04-26T10:55:53Z</time></trkpt><trkpt lat="45.52373695140549" lon="10.81150613817419"><ele>111.0</ele><time>2026-04-26T10:55:56Z</time></trkpt><trkpt lat="45.52367656159533" lon="10.811321158907234"><ele>111.0</ele><time>2026-04-26T10:55:58Z</time></trkpt><trkpt lat="45.52365178997735" lon="10.811235555678998"><ele>111.0</ele><time>2026-04-26T10:55:59Z</time></trkpt><trkpt lat="45.52360631841242" lon="10.811166902086942"><ele>111.0</ele><time>2026-04-26T10:56:00Z</time></trkpt><trkpt lat="45.52353972787882" lon="10.811007615709666"><ele>111.0</ele><time>2026-04-26T10:56:02Z</time></trkpt><trkpt lat="45.52352100933497" lon="10.810895930948751"><ele>111.0</ele><time>2026-04-26T10:56:03Z</time></trkpt><trkpt lat="45.52346811242365" lon="10.810794335031787"><ele>111.0</ele><time>2026-04-26T10:56:04Z</time></trkpt><trkpt lat="45.523432355153666" lon="10.810652458508484"><ele>111.0</ele><time>2026-04-26T10:56:05Z</time></trkpt><trkpt lat="45.52339019266367" lon="10.810496725995142"><ele>111.0</ele><time>2026-04-26T10:56:06Z</time></trkpt><trkpt lat="45.52334067090284" lon="10.810331707011521"><ele>111.0</ele><time>2026-04-26T10:56:07Z</time></trkpt><trkpt lat="45.52329075163357" lon="10.810161033726114"><ele>111.0</ele><time>2026-04-26T10:56:08Z</time></trkpt><trkpt lat="45.523235476518444" lon="10.810001935692261"><ele>111.0</ele><time>2026-04-26T10:56:09Z</time></trkpt><trkpt lat="45.52318278959809" lon="10.809844866064072"><ele>111.0</ele><time>2026-04-26T10:56:10Z</time></trkpt><trkpt lat="45.523128693160054" lon="10.809671687413974"><ele>111.0</ele><time>2026-04-26T10:56:11Z</time></trkpt><trkpt lat="45.52307367387297" lon="10.809492609801604"><ele>111.0</ele><time>2026-04-26T10:56:12Z</time></trkpt><trkpt lat="45.523024063716555" lon="10.809336942984132"><ele>111.0</ele><time>2026-04-26T10:56:13Z</time></trkpt><trkpt lat="45.52297626191017" lon="10.80918760023501"><ele>111.0</ele><time>2026-04-26T10:56:14Z</time></trkpt><trkpt lat="45.52293015465284" lon="10.809037609609177"><ele>110.75</ele><time>2026-04-26T10:56:15Z</time></trkpt><trkpt lat="45.52288195202197" lon="10.80887745576794"><ele>110.5</ele><time>2026-04-26T10:56:16Z</time></trkpt><trkpt lat="45.5228306061917" lon="10.808705685885366"><ele>110.25</ele><time>2026-04-26T10:56:17Z</time></trkpt><trkpt lat="45.522778839628856" lon="10.80852806799947"><ele>110.0</ele><time>2026-04-26T10:56:18Z</time></trkpt><trkpt lat="45.52272942611324" lon="10.808367948899882"><ele>110.0</ele><time>2026-04-26T10:56:19Z</time></trkpt><trkpt lat="45.52267579167946" lon="10.808206745979676"><ele>110.0</ele><time>2026-04-26T10:56:20Z</time></trkpt><trkpt lat="45.52262109044719" lon="10.808054188118465"><ele>110.0</ele><time>2026-04-26T10:56:21Z</time></trkpt><trkpt lat="45.522566935348735" lon="10.807899180949105"><ele>110.0</ele><time>2026-04-26T10:56:22Z</time></trkpt><trkpt lat="45.52251018469723" lon="10.807739793599485"><ele>109.75</ele><time>2026-04-26T10:56:23Z</time></trkpt><trkpt lat="45.52245320098697" lon="10.80758499708799"><ele>109.5</ele><time>2026-04-26T10:56:24Z</time></trkpt><trkpt lat="45.522388882757454" lon="10.807427319703741"><ele>109.25</ele><time>2026-04-26T10:56:25Z</time></trkpt><trkpt lat="45.52233239260986" lon="10.807279943286366"><ele>109.0</ele><time>2026-04-26T10:56:26Z</time></trkpt><trkpt lat="45.522279406388186" lon="10.807135513262237"><ele>109.0</ele><time>2026-04-26T10:56:27Z</time></trkpt><trkpt lat="45.52222443931264" lon="10.806989310444036"><ele>109.0</ele><time>2026-04-26T10:56:28Z</time></trkpt><trkpt lat="45.52217158714115" lon="10.806846694840875"><ele>109.0</ele><time>2026-04-26T10:56:29Z</time></trkpt><trkpt lat="45.522125695889756" lon="10.806690818822043"><ele>109.0</ele><time>2026-04-26T10:56:30Z</time></trkpt><trkpt lat="45.522087103574094" lon="10.806519565440016"><ele>107.5</ele><time>2026-04-26T10:56:31Z</time></trkpt><trkpt lat="45.522068785143944" lon="10.806353183664474"><ele>106.0</ele><time>2026-04-26T10:56:32Z</time></trkpt><trkpt lat="45.52207211069167" lon="10.806189138034728"><ele>104.5</ele><time>2026-04-26T10:56:33Z</time></trkpt><trkpt lat="45.52208845415276" lon="10.806020253259623"><ele>103.0</ele><time>2026-04-26T10:56:34Z</time></trkpt><trkpt lat="45.52212380667733" lon="10.805838923372512"><ele>101.0</ele><time>2026-04-26T10:56:35Z</time></trkpt><trkpt lat="45.52217014451485" lon="10.805655901115722"><ele>99.0</ele><time>2026-04-26T10:56:36Z</time></trkpt><trkpt lat="45.52221761075522" lon="10.80546257663285"><ele>97.0</ele><time>2026-04-26T10:56:37Z</time></trkpt><trkpt lat="45.52226217564432" lon="10.805262620840272"><ele>95.0</ele><time>2026-04-26T10:56:38Z</time></trkpt><trkpt lat="45.52230704815538" lon="10.805055115036124"><ele>95.0</ele><time>2026-04-26T10:56:39Z</time></trkpt><trkpt lat="45.52234975365776" lon="10.804853265851639"><ele>95.0</ele><time>2026-04-26T10:56:40Z</time></trkpt><trkpt lat="45.52239062445945" lon="10.804656160250076"><ele>95.0</ele><time>2026-04-26T10:56:41Z</time></trkpt><trkpt lat="45.522434615407356" lon="10.804480418684632"><ele>95.0</ele><time>2026-04-26T10:56:42Z</time></trkpt><trkpt lat="45.522478646677804" lon="10.804326838358842"><ele>95.0</ele><time>2026-04-26T10:56:43Z</time></trkpt><trkpt lat="45.52252294994838" lon="10.804175724984631"><ele>95.0</ele><time>2026-04-26T10:56:44Z</time></trkpt><trkpt lat="45.52256467949138" lon="10.804028136747112"><ele>95.0</ele><time>2026-04-26T10:56:45Z</time></trkpt><trkpt lat="45.52260344434066" lon="10.803888333211559"><ele>95.0</ele><time>2026-04-26T10:56:46Z</time></trkpt><trkpt lat="45.52264030628256" lon="10.803759050232623"><ele>95.0</ele><time>2026-04-26T10:56:47Z</time></trkpt><trkpt lat="45.5226722236849" lon="10.803642990869486"><ele>95.0</ele><time>2026-04-26T10:56:48Z</time></trkpt><trkpt lat="45.52270324071943" lon="10.80352880735999"><ele>95.0</ele><time>2026-04-26T10:56:49Z</time></trkpt><trkpt lat="45.522741480990604" lon="10.803421787805322"><ele>95.0</ele><time>2026-04-26T10:56:50Z</time></trkpt><trkpt lat="45.522778092312286" lon="10.803327077030751"><ele>95.0</ele><time>2026-04-26T10:56:51Z</time></trkpt><trkpt lat="45.52283391463077" lon="10.803189164090233"><ele>95.0</ele><time>2026-04-26T10:56:52Z</time></trkpt><trkpt lat="45.522897036085375" lon="10.803102385058638"><ele>95.0</ele><time>2026-04-26T10:56:53Z</time></trkpt><trkpt lat="45.522967695495204" lon="10.803011180716611"><ele>95.6</ele><time>2026-04-26T10:56:54Z</time></trkpt><trkpt lat="45.5230291287159" lon="10.802899105137923"><ele>96.2</ele><time>2026-04-26T10:56:55Z</time></trkpt><trkpt lat="45.52309667840922" lon="10.802795871515686"><ele>96.80000000000001</ele><time>2026-04-26T10:56:56Z</time></trkpt><trkpt lat="45.5231830380092" lon="10.802732422394003"><ele>97.4</ele><time>2026-04-26T10:56:57Z</time></trkpt><trkpt lat="45.523286011636515" lon="10.802708744099052"><ele>98.0</ele><time>2026-04-26T10:56:58Z</time></trkpt><trkpt lat="45.52339966052622" lon="10.802710534140955"><ele>98.0</ele><time>2026-04-26T10:56:59Z</time></trkpt><trkpt lat="45.5235218117408" lon="10.80271909837309"><ele>98.0</ele><time>2026-04-26T10:57:00Z</time></trkpt><trkpt lat="45.52365242687841" lon="10.802717550178775"><ele>98.0</ele><time>2026-04-26T10:57:01Z</time></trkpt><trkpt lat="45.52377532774745" lon="10.802677583716566"><ele>98.0</ele><time>2026-04-26T10:57:02Z</time></trkpt><trkpt lat="45.523881119001274" lon="10.802589683396937"><ele>98.0</ele><time>2026-04-26T10:57:03Z</time></trkpt><trkpt lat="45.52397361932158" lon="10.802468436124071"><ele>98.0</ele><time>2026-04-26T10:57:04Z</time></trkpt><trkpt lat="45.52405993680748" lon="10.80233611945795"><ele>98.0</ele><time>2026-04-26T10:57:05Z</time></trkpt><trkpt lat="45.524146516481366" lon="10.802196317726686"><ele>98.0</ele><time>2026-04-26T10:57:06Z</time></trkpt><trkpt lat="45.524232232210764" lon="10.80205846379195"><ele>98.0</ele><time>2026-04-26T10:57:07Z</time></trkpt><trkpt lat="45.52432003856419" lon="10.801951404658544"><ele>98.0</ele><time>2026-04-26T10:57:08Z</time></trkpt><trkpt lat="45.524415498325325" lon="10.801868786337375"><ele>98.0</ele><time>2026-04-26T10:57:09Z</time></trkpt><trkpt lat="45.52452621043047" lon="10.801798255893438"><ele>98.0</ele><time>2026-04-26T10:57:10Z</time></trkpt><trkpt lat="45.52464386292538" lon="10.80174558125584"><ele>98.25</ele><time>2026-04-26T10:57:11Z</time></trkpt><trkpt lat="45.524767299747" lon="10.801696007348216"><ele>98.5</ele><time>2026-04-26T10:57:12Z</time></trkpt><trkpt lat="45.52488923245416" lon="10.80163139802223"><ele>98.75</ele><time>2026-04-26T10:57:13Z</time></trkpt><trkpt lat="45.52501283344042" lon="10.801564969637669"><ele>99.0</ele><time>2026-04-26T10:57:14Z</time></trkpt><trkpt lat="45.525135163226956" lon="10.801487002406343"><ele>99.0</ele><time>2026-04-26T10:57:15Z</time></trkpt><trkpt lat="45.52524763283072" lon="10.801390569070362"><ele>99.0</ele><time>2026-04-26T10:57:16Z</time></trkpt><trkpt lat="45.52534567041671" lon="10.80130617328868"><ele>99.0</ele><time>2026-04-26T10:57:17Z</time></trkpt><trkpt lat="45.525458204468364" lon="10.80122248227117"><ele>99.0</ele><time>2026-04-26T10:57:18Z</time></trkpt><trkpt lat="45.52556513500625" lon="10.801133898951118"><ele>99.25</ele><time>2026-04-26T10:57:19Z</time></trkpt><trkpt lat="45.52566442506337" lon="10.801024740468787"><ele>99.5</ele><time>2026-04-26T10:57:20Z</time></trkpt><trkpt lat="45.52574587235495" lon="10.80090603095243"><ele>99.75</ele><time>2026-04-26T10:57:21Z</time></trkpt><trkpt lat="45.525830085682074" lon="10.800781871118954"><ele>100.0</ele><time>2026-04-26T10:57:22Z</time></trkpt><trkpt lat="45.52592305774916" lon="10.800658242170908"><ele>100.0</ele><time>2026-04-26T10:57:23Z</time></trkpt><trkpt lat="45.52601793222579" lon="10.800516528372285"><ele>100.0</ele><time>2026-04-26T10:57:24Z</time></trkpt><trkpt lat="45.52610567795699" lon="10.800385579274318"><ele>100.0</ele><time>2026-04-26T10:57:25Z</time></trkpt><trkpt lat="45.52618862937582" lon="10.800268902884524"><ele>100.0</ele><time>2026-04-26T10:57:26Z</time></trkpt><trkpt lat="45.52627960381684" lon="10.800181608189071"><ele>100.25</ele><time>2026-04-26T10:57:27Z</time></trkpt><trkpt lat="45.52637898014808" lon="10.800147746455337"><ele>100.5</ele><time>2026-04-26T10:57:28Z</time></trkpt><trkpt lat="45.52648290519818" lon="10.800140358483372"><ele>100.75</ele><time>2026-04-26T10:57:29Z</time></trkpt><trkpt lat="45.526603061338015" lon="10.80016125999554"><ele>101.0</ele><time>2026-04-26T10:57:30Z</time></trkpt><trkpt lat="45.52673303303848" lon="10.800176255292284"><ele>101.25</ele><time>2026-04-26T10:57:31Z</time></trkpt><trkpt lat="45.52687668103839" lon="10.800185474980855"><ele>101.5</ele><time>2026-04-26T10:57:32Z</time></trkpt><trkpt lat="45.52701693885441" lon="10.800200678454175"><ele>101.75</ele><time>2026-04-26T10:57:33Z</time></trkpt><trkpt lat="45.527137757127825" lon="10.800250646138345"><ele>102.0</ele><time>2026-04-26T10:57:34Z</time></trkpt><trkpt lat="45.52725209883345" lon="10.800344544782861"><ele>103.25</ele><time>2026-04-26T10:57:35Z</time></trkpt><trkpt lat="45.52737436200067" lon="10.80044222978861"><ele>104.5</ele><time>2026-04-26T10:57:36Z</time></trkpt><trkpt lat="45.527505180552595" lon="10.800512968459786"><ele>105.75</ele><time>2026-04-26T10:57:37Z</time></trkpt><trkpt lat="45.52764317403044" lon="10.800571126008911"><ele>107.0</ele><time>2026-04-26T10:57:38Z</time></trkpt><trkpt lat="45.527798133244616" lon="10.800626727078253"><ele>109.66666666666666</ele><time>2026-04-26T10:57:39Z</time></trkpt><trkpt lat="45.52794974353028" lon="10.800689901398528"><ele>112.33333333333334</ele><time>2026-04-26T10:57:40Z</time></trkpt><trkpt lat="45.528097455105026" lon="10.80074856717026"><ele>115.0</ele><time>2026-04-26T10:57:41Z</time></trkpt><trkpt lat="45.52824530422605" lon="10.800806187271872"><ele>115.0</ele><time>2026-04-26T10:57:42Z</time></trkpt><trkpt lat="45.528386945266526" lon="10.800866635303072"><ele>115.0</ele><time>2026-04-26T10:57:43Z</time></trkpt><trkpt lat="45.528519767781475" lon="10.800918084413523"><ele>115.0</ele><time>2026-04-26T10:57:44Z</time></trkpt><trkpt lat="45.528643474197274" lon="10.80097565926853"><ele>115.0</ele><time>2026-04-26T10:57:45Z</time></trkpt><trkpt lat="45.52876132900199" lon="10.801031692698459"><ele>114.25</ele><time>2026-04-26T10:57:46Z</time></trkpt><trkpt lat="45.52889339365021" lon="10.801091274086856"><ele>113.5</ele><time>2026-04-26T10:57:47Z</time></trkpt><trkpt lat="45.52903694125855" lon="10.80116324420212"><ele>112.75</ele><time>2026-04-26T10:57:48Z</time></trkpt><trkpt lat="45.52917124952243" lon="10.801227657489969"><ele>112.0</ele><time>2026-04-26T10:57:49Z</time></trkpt><trkpt lat="45.529317164722286" lon="10.801302241393744"><ele>112.0</ele><time>2026-04-26T10:57:50Z</time></trkpt><trkpt lat="45.52946086443092" lon="10.801374153303406"><ele>112.0</ele><time>2026-04-26T10:57:51Z</time></trkpt><trkpt lat="45.52960597365787" lon="10.801446745824336"><ele>112.0</ele><time>2026-04-26T10:57:52Z</time></trkpt><trkpt lat="45.52975403772321" lon="10.801519863048533"><ele>115.0</ele><time>2026-04-26T10:57:53Z</time></trkpt><trkpt lat="45.52990357919089" lon="10.801596229111965"><ele>118.0</ele><time>2026-04-26T10:57:54Z</time></trkpt><trkpt lat="45.53005109124437" lon="10.801675809494858"><ele>121.0</ele><time>2026-04-26T10:57:55Z</time></trkpt><trkpt lat="45.53021127086098" lon="10.801758847097885"><ele>121.0</ele><time>2026-04-26T10:57:56Z</time></trkpt><trkpt lat="45.530356123676825" lon="10.80182986126157"><ele>121.0</ele><time>2026-04-26T10:57:57Z</time></trkpt><trkpt lat="45.53049803497841" lon="10.801906217035695"><ele>121.0</ele><time>2026-04-26T10:57:58Z</time></trkpt><trkpt lat="45.530648121626534" lon="10.801982769005468"><ele>119.75</ele><time>2026-04-26T10:57:59Z</time></trkpt><trkpt lat="45.53079241949838" lon="10.802063899250925"><ele>118.5</ele><time>2026-04-26T10:58:00Z</time></trkpt><trkpt lat="45.530920261782846" lon="10.802130673403724"><ele>117.25</ele><time>2026-04-26T10:58:01Z</time></trkpt><trkpt lat="45.53102829456733" lon="10.802190508049598"><ele>116.0</ele><time>2026-04-26T10:58:02Z</time></trkpt><trkpt lat="45.531121469985145" lon="10.802242195488095"><ele>116.0</ele><time>2026-04-26T10:58:03Z</time></trkpt><trkpt lat="45.53121538919866" lon="10.802292081706787"><ele>116.0</ele><time>2026-04-26T10:58:04Z</time></trkpt><trkpt lat="45.53132113086091" lon="10.802318010841077"><ele>116.0</ele><time>2026-04-26T10:58:05Z</time></trkpt><trkpt lat="45.531438922128366" lon="10.802298902589497"><ele>116.0</ele><time>2026-04-26T10:58:06Z</time></trkpt><trkpt lat="45.53156378070336" lon="10.80224189005074"><ele>118.75</ele><time>2026-04-26T10:58:07Z</time></trkpt><trkpt lat="45.53168807135956" lon="10.802147991053618"><ele>121.5</ele><time>2026-04-26T10:58:08Z</time></trkpt><trkpt lat="45.5318208753014" lon="10.8020773198407"><ele>124.25</ele><time>2026-04-26T10:58:09Z</time></trkpt><trkpt lat="45.53195917834591" lon="10.802011840665772"><ele>127.0</ele><time>2026-04-26T10:58:10Z</time></trkpt><trkpt lat="45.532103588898345" lon="10.801954385206157"><ele>128.75</ele><time>2026-04-26T10:58:11Z</time></trkpt><trkpt lat="45.532248378074335" lon="10.801921595469224"><ele>130.5</ele><time>2026-04-26T10:58:12Z</time></trkpt><trkpt lat="45.53239438898611" lon="10.801896495007492"><ele>132.25</ele><time>2026-04-26T10:58:13Z</time></trkpt><trkpt lat="45.532536939804" lon="10.801880160775184"><ele>134.0</ele><time>2026-04-26T10:58:14Z</time></trkpt><trkpt lat="45.53267901248662" lon="10.801862446354322"><ele>134.0</ele><time>2026-04-26T10:58:15Z</time></trkpt><trkpt lat="45.53282091044822" lon="10.801845227800133"><ele>134.0</ele><time>2026-04-26T10:58:16Z</time></trkpt><trkpt lat="45.532960877382386" lon="10.80182588859124"><ele>134.0</ele><time>2026-04-26T10:58:17Z</time></trkpt><trkpt lat="45.533094130791184" lon="10.801806675790822"><ele>134.0</ele><time>2026-04-26T10:58:18Z</time></trkpt><trkpt lat="45.533229685219695" lon="10.80179508065211"><ele>135.75</ele><time>2026-04-26T10:58:19Z</time></trkpt><trkpt lat="45.533364083896124" lon="10.801787709599024"><ele>137.5</ele><time>2026-04-26T10:58:20Z</time></trkpt><trkpt lat="45.53349700290191" lon="10.801784545558577"><ele>139.25</ele><time>2026-04-26T10:58:21Z</time></trkpt><trkpt lat="45.53364062463288" lon="10.801795955388114"><ele>141.0</ele><time>2026-04-26T10:58:22Z</time></trkpt><trkpt lat="45.533788963636454" lon="10.801818902866037"><ele>140.33333333333334</ele><time>2026-04-26T10:58:23Z</time></trkpt><trkpt lat="45.53394032662946" lon="10.801843472648041"><ele>139.66666666666669</ele><time>2026-04-26T10:58:24Z</time></trkpt><trkpt lat="45.53409399374238" lon="10.8018704514392"><ele>139.0</ele><time>2026-04-26T10:58:25Z</time></trkpt><trkpt lat="45.53425104957871" lon="10.801892781025646"><ele>139.0</ele><time>2026-04-26T10:58:26Z</time></trkpt><trkpt lat="45.534412408073734" lon="10.801913806553811"><ele>139.0</ele><time>2026-04-26T10:58:27Z</time></trkpt><trkpt lat="45.53456557970075" lon="10.80193549155723"><ele>139.0</ele><time>2026-04-26T10:58:28Z</time></trkpt><trkpt lat="45.53471371718981" lon="10.801952828011375"><ele>139.75</ele><time>2026-04-26T10:58:29Z</time></trkpt><trkpt lat="45.534854145524335" lon="10.80197233094529"><ele>140.5</ele><time>2026-04-26T10:58:30Z</time></trkpt><trkpt lat="45.53498334573922" lon="10.801990973879333"><ele>141.25</ele><time>2026-04-26T10:58:31Z</time></trkpt><trkpt lat="45.5351123151227" lon="10.802008578586838"><ele>142.0</ele><time>2026-04-26T10:58:32Z</time></trkpt><trkpt lat="45.53524797752163" lon="10.802030431069266"><ele>143.33333333333334</ele><time>2026-04-26T10:58:33Z</time></trkpt><trkpt lat="45.53539227226094" lon="10.802051864076137"><ele>144.66666666666666</ele><time>2026-04-26T10:58:34Z</time></trkpt><trkpt lat="45.53554558595593" lon="10.802073975383632"><ele>146.0</ele><time>2026-04-26T10:58:35Z</time></trkpt><trkpt lat="45.535697411022824" lon="10.802096984319714"><ele>146.0</ele><time>2026-04-26T10:58:36Z</time></trkpt><trkpt lat="45.535857294576765" lon="10.802115241360164"><ele>146.0</ele><time>2026-04-26T10:58:37Z</time></trkpt><trkpt lat="45.53600688241636" lon="10.802132491321034"><ele>146.0</ele><time>2026-04-26T10:58:38Z</time></trkpt><trkpt lat="45.53616497383486" lon="10.802146347446012"><ele>146.33333333333331</ele><time>2026-04-26T10:58:39Z</time></trkpt><trkpt lat="45.536322893561824" lon="10.802147862945104"><ele>146.66666666666666</ele><time>2026-04-26T10:58:40Z</time></trkpt><trkpt lat="45.53648096220879" lon="10.802138796043247"><ele>147.0</ele><time>2026-04-26T10:58:41Z</time></trkpt><trkpt lat="45.53663303898224" lon="10.802118151875845"><ele>147.0</ele><time>2026-04-26T10:58:42Z</time></trkpt><trkpt lat="45.53679559631821" lon="10.802086034859848"><ele>147.0</ele><time>2026-04-26T10:58:43Z</time></trkpt><trkpt lat="45.53695318182104" lon="10.802060321747975"><ele>147.0</ele><time>2026-04-26T10:58:44Z</time></trkpt><trkpt lat="45.537113672027324" lon="10.802037167411811"><ele>147.5</ele><time>2026-04-26T10:58:45Z</time></trkpt><trkpt lat="45.53725761283539" lon="10.802012759371397"><ele>148.0</ele><time>2026-04-26T10:58:46Z</time></trkpt><trkpt lat="45.53738865992817" lon="10.801988174823018"><ele>148.5</ele><time>2026-04-26T10:58:47Z</time></trkpt><trkpt lat="45.537515059905935" lon="10.801962591757567"><ele>149.0</ele><time>2026-04-26T10:58:48Z</time></trkpt><trkpt lat="45.53765344702836" lon="10.801941506183281"><ele>149.0</ele><time>2026-04-26T10:58:49Z</time></trkpt><trkpt lat="45.53779835180775" lon="10.801917419906319"><ele>149.0</ele><time>2026-04-26T10:58:50Z</time></trkpt><trkpt lat="45.53793867280691" lon="10.801896950922403"><ele>149.0</ele><time>2026-04-26T10:58:51Z</time></trkpt><trkpt lat="45.5380930614619" lon="10.8018744062586"><ele>149.0</ele><time>2026-04-26T10:58:52Z</time></trkpt><trkpt lat="45.53823225737725" lon="10.801851316606546"><ele>149.75</ele><time>2026-04-26T10:58:53Z</time></trkpt><trkpt lat="45.53836099640935" lon="10.801829139870954"><ele>150.5</ele><time>2026-04-26T10:58:54Z</time></trkpt><trkpt lat="45.53849002226702" lon="10.801807361613655"><ele>151.25</ele><time>2026-04-26T10:58:55Z</time></trkpt><trkpt lat="45.53862680960587" lon="10.801790705483647"><ele>152.0</ele><time>2026-04-26T10:58:56Z</time></trkpt><trkpt lat="45.538770570700336" lon="10.801779767007746"><ele>152.5</ele><time>2026-04-26T10:58:57Z</time></trkpt><trkpt lat="45.53891724060322" lon="10.80177324737784"><ele>153.0</ele><time>2026-04-26T10:58:58Z</time></trkpt><trkpt lat="45.53906385030724" lon="10.801772127201316"><ele>153.5</ele><time>2026-04-26T10:58:59Z</time></trkpt><trkpt lat="45.539212391831136" lon="10.801776166232344"><ele>154.0</ele><time>2026-04-26T10:59:00Z</time></trkpt><trkpt lat="45.53935266122817" lon="10.801777820690777"><ele>154.0</ele><time>2026-04-26T10:59:01Z</time></trkpt><trkpt lat="45.53950251755707" lon="10.801792863332748"><ele>154.0</ele><time>2026-04-26T10:59:02Z</time></trkpt><trkpt lat="45.53964709787366" lon="10.801814323694742"><ele>154.0</ele><time>2026-04-26T10:59:03Z</time></trkpt><trkpt lat="45.539787383786205" lon="10.801839236491999"><ele>154.0</ele><time>2026-04-26T10:59:04Z</time></trkpt><trkpt lat="45.53990993608078" lon="10.801858870213835"><ele>154.0</ele><time>2026-04-26T10:59:05Z</time></trkpt><trkpt lat="45.54003467455275" lon="10.801876838648141"><ele>154.0</ele><time>2026-04-26T10:59:06Z</time></trkpt><trkpt lat="45.54016433927183" lon="10.801897716056015"><ele>154.0</ele><time>2026-04-26T10:59:07Z</time></trkpt><trkpt lat="45.54029880865986" lon="10.801922270322438"><ele>154.0</ele><time>2026-04-26T10:59:08Z</time></trkpt><trkpt lat="45.540432424517284" lon="10.801947295867704"><ele>154.0</ele><time>2026-04-26T10:59:09Z</time></trkpt><trkpt lat="45.540553891518655" lon="10.801969022710376"><ele>154.0</ele><time>2026-04-26T10:59:10Z</time></trkpt><trkpt lat="45.54066670291287" lon="10.801993955976124"><ele>154.0</ele><time>2026-04-26T10:59:11Z</time></trkpt><trkpt lat="45.54077432855747" lon="10.802016734426306"><ele>154.0</ele><time>2026-04-26T10:59:12Z</time></trkpt><trkpt lat="45.5408734162848" lon="10.80203213685797"><ele>154.0</ele><time>2026-04-26T10:59:13Z</time></trkpt><trkpt lat="45.54097776123768" lon="10.802052404594475"><ele>154.0</ele><time>2026-04-26T10:59:14Z</time></trkpt><trkpt lat="45.541075000787764" lon="10.802071002134369"><ele>154.0</ele><time>2026-04-26T10:59:15Z</time></trkpt><trkpt lat="45.54116868631156" lon="10.802087018421265"><ele>154.0</ele><time>2026-04-26T10:59:16Z</time></trkpt><trkpt lat="45.54127444461515" lon="10.802094046363768"><ele>154.0</ele><time>2026-04-26T10:59:17Z</time></trkpt><trkpt lat="45.54137669912184" lon="10.802096712124143"><ele>154.0</ele><time>2026-04-26T10:59:18Z</time></trkpt><trkpt lat="45.54149114779666" lon="10.802132491937616"><ele>154.25</ele><time>2026-04-26T10:59:19Z</time></trkpt><trkpt lat="45.541592535880284" lon="10.802142914555517"><ele>154.5</ele><time>2026-04-26T10:59:20Z</time></trkpt><trkpt lat="45.541675705122515" lon="10.802142914555999"><ele>154.75</ele><time>2026-04-26T10:59:21Z</time></trkpt><trkpt lat="45.54174257937625" lon="10.802136763366226"><ele>155.0</ele><time>2026-04-26T10:59:22Z</time></trkpt><trkpt lat="45.541807321077926" lon="10.80184312309194"><ele>155.75</ele><time>2026-04-26T10:59:24Z</time></trkpt><trkpt lat="45.54177583401511" lon="10.801705332645687"><ele>156.5</ele><time>2026-04-26T10:59:25Z</time></trkpt><trkpt lat="45.5417874804857" lon="10.801549039792343"><ele>157.25</ele><time>2026-04-26T10:59:26Z</time></trkpt><trkpt lat="45.541803935065005" lon="10.80137418421326"><ele>158.0</ele><time>2026-04-26T10:59:27Z</time></trkpt><trkpt lat="45.54182353545621" lon="10.801197776308856"><ele>158.0</ele><time>2026-04-26T10:59:28Z</time></trkpt><trkpt lat="45.5418361502834" lon="10.801023906554926"><ele>158.0</ele><time>2026-04-26T10:59:29Z</time></trkpt><trkpt lat="45.541851507289685" lon="10.800832844728275"><ele>158.0</ele><time>2026-04-26T10:59:30Z</time></trkpt><trkpt lat="45.54187096752281" lon="10.800640583709514"><ele>158.0</ele><time>2026-04-26T10:59:31Z</time></trkpt><trkpt lat="45.541883494512646" lon="10.800446372834667"><ele>159.5</ele><time>2026-04-26T10:59:32Z</time></trkpt><trkpt lat="45.54189679546441" lon="10.800254693405627"><ele>161.0</ele><time>2026-04-26T10:59:33Z</time></trkpt><trkpt lat="45.54191190255819" lon="10.800070846457983"><ele>162.5</ele><time>2026-04-26T10:59:34Z</time></trkpt><trkpt lat="45.54192448960546" lon="10.799897229913677"><ele>164.0</ele><time>2026-04-26T10:59:35Z</time></trkpt><trkpt lat="45.54194587253494" lon="10.799737818534311"><ele>164.2</ele><time>2026-04-26T10:59:36Z</time></trkpt><trkpt lat="45.541948852317326" lon="10.799606970350208"><ele>164.39999999999998</ele><time>2026-04-26T10:59:37Z</time></trkpt><trkpt lat="45.54196181579213" lon="10.799479868735107"><ele>164.6</ele><time>2026-04-26T10:59:38Z</time></trkpt><trkpt lat="45.54197894735419" lon="10.79932291402609"><ele>164.8</ele><time>2026-04-26T10:59:39Z</time></trkpt><trkpt lat="45.541999967173346" lon="10.799154266444972"><ele>165.0</ele><time>2026-04-26T10:59:40Z</time></trkpt><trkpt lat="45.54201647614302" lon="10.79898311593657"><ele>165.0</ele><time>2026-04-26T10:59:41Z</time></trkpt><trkpt lat="45.54203060008942" lon="10.798809929676734"><ele>165.0</ele><time>2026-04-26T10:59:42Z</time></trkpt><trkpt lat="45.54204045461262" lon="10.798651964745487"><ele>165.0</ele><time>2026-04-26T10:59:43Z</time></trkpt><trkpt lat="45.54205256188773" lon="10.798490771544685"><ele>165.0</ele><time>2026-04-26T10:59:44Z</time></trkpt><trkpt lat="45.54206826262794" lon="10.7983350496724"><ele>165.75</ele><time>2026-04-26T10:59:45Z</time></trkpt><trkpt lat="45.54208047032693" lon="10.798163354560328"><ele>166.5</ele><time>2026-04-26T10:59:46Z</time></trkpt><trkpt lat="45.54208914751465" lon="10.7979933442514"><ele>167.25</ele><time>2026-04-26T10:59:47Z</time></trkpt><trkpt lat="45.54209993875889" lon="10.797814633893326"><ele>168.0</ele><time>2026-04-26T10:59:48Z</time></trkpt><trkpt lat="45.54212066016374" lon="10.7976344805943"><ele>168.5</ele><time>2026-04-26T10:59:49Z</time></trkpt><trkpt lat="45.542139587041746" lon="10.797452016045172"><ele>169.0</ele><time>2026-04-26T10:59:50Z</time></trkpt><trkpt lat="45.54215319657082" lon="10.797279669607388"><ele>169.5</ele><time>2026-04-26T10:59:51Z</time></trkpt><trkpt lat="45.54216223882376" lon="10.797106747620544"><ele>170.0</ele><time>2026-04-26T10:59:52Z</time></trkpt><trkpt lat="45.542179797856996" lon="10.796921344923424"><ele>170.0</ele><time>2026-04-26T10:59:53Z</time></trkpt><trkpt lat="45.54219565130386" lon="10.796750584476726"><ele>170.0</ele><time>2026-04-26T10:59:54Z</time></trkpt><trkpt lat="45.542207992428494" lon="10.796582216825389"><ele>170.0</ele><time>2026-04-26T10:59:55Z</time></trkpt><trkpt lat="45.54222050519972" lon="10.796418680633582"><ele>170.0</ele><time>2026-04-26T10:59:56Z</time></trkpt><trkpt lat="45.5422284923469" lon="10.796315939138479"><ele>170.0</ele><time>2026-04-26T10:59:57Z</time></trkpt><trkpt lat="45.542370949561295" lon="10.796300166034023"><ele>170.0</ele><time>2026-04-26T11:00:00Z</time></trkpt><trkpt lat="45.54246083731981" lon="10.79630992429658"><ele>170.0</ele><time>2026-04-26T11:00:01Z</time></trkpt><trkpt lat="45.54255576739787" lon="10.796340402380045"><ele>170.0</ele><time>2026-04-26T11:00:02Z</time></trkpt><trkpt lat="45.54267408300903" lon="10.796364037538419"><ele>170.0</ele><time>2026-04-26T11:00:03Z</time></trkpt><trkpt lat="45.54279112360955" lon="10.796376286911553"><ele>170.0</ele><time>2026-04-26T11:00:04Z</time></trkpt><trkpt lat="45.54289651069253" lon="10.796388426131385"><ele>170.75</ele><time>2026-04-26T11:00:05Z</time></trkpt><trkpt lat="45.54301487290723" lon="10.796407656320515"><ele>171.5</ele><time>2026-04-26T11:00:06Z</time></trkpt><trkpt lat="45.54312874280508" lon="10.79642983941185"><ele>172.25</ele><time>2026-04-26T11:00:07Z</time></trkpt><trkpt lat="45.543248356076205" lon="10.796447341091778"><ele>173.0</ele><time>2026-04-26T11:00:08Z</time></trkpt><trkpt lat="45.54337926752448" lon="10.796467992336197"><ele>173.0</ele><time>2026-04-26T11:00:09Z</time></trkpt><trkpt lat="45.54350826880104" lon="10.796492511809916"><ele>173.0</ele><time>2026-04-26T11:00:10Z</time></trkpt><trkpt lat="45.54361850466371" lon="10.796509835591477"><ele>173.0</ele><time>2026-04-26T11:00:11Z</time></trkpt><trkpt lat="45.54372738621321" lon="10.796529313680578"><ele>173.0</ele><time>2026-04-26T11:00:12Z</time></trkpt><trkpt lat="45.543833627579275" lon="10.796546459157092"><ele>173.5</ele><time>2026-04-26T11:00:13Z</time></trkpt><trkpt lat="45.54394282275903" lon="10.796566800560345"><ele>174.0</ele><time>2026-04-26T11:00:14Z</time></trkpt><trkpt lat="45.54405881230407" lon="10.796589930576525"><ele>174.5</ele><time>2026-04-26T11:00:15Z</time></trkpt><trkpt lat="45.54418216983025" lon="10.796606374977538"><ele>175.0</ele><time>2026-04-26T11:00:16Z</time></trkpt><trkpt lat="45.54430675006198" lon="10.79662369110275"><ele>175.0</ele><time>2026-04-26T11:00:17Z</time></trkpt><trkpt lat="45.54443590646803" lon="10.79664191803447"><ele>175.0</ele><time>2026-04-26T11:00:18Z</time></trkpt><trkpt lat="45.544549949863324" lon="10.796662002657834"><ele>175.0</ele><time>2026-04-26T11:00:19Z</time></trkpt><trkpt lat="45.5446580221723" lon="10.796684267446244"><ele>175.0</ele><time>2026-04-26T11:00:20Z</time></trkpt><trkpt lat="45.54475741993662" lon="10.796706164026135"><ele>175.0</ele><time>2026-04-26T11:00:21Z</time></trkpt><trkpt lat="45.54487183954967" lon="10.796729612144"><ele>175.0</ele><time>2026-04-26T11:00:22Z</time></trkpt><trkpt lat="45.54499413772421" lon="10.796749295184293"><ele>175.0</ele><time>2026-04-26T11:00:23Z</time></trkpt><trkpt lat="45.54511073614806" lon="10.796767596961676"><ele>175.0</ele><time>2026-04-26T11:00:24Z</time></trkpt><trkpt lat="45.54522873107561" lon="10.796787830339763"><ele>175.0</ele><time>2026-04-26T11:00:25Z</time></trkpt><trkpt lat="45.54534050184964" lon="10.796810023367057"><ele>175.0</ele><time>2026-04-26T11:00:26Z</time></trkpt><trkpt lat="45.54543589258305" lon="10.79681925803214"><ele>175.0</ele><time>2026-04-26T11:00:27Z</time></trkpt><trkpt lat="45.5455163898358" lon="10.796828315760468"><ele>175.0</ele><time>2026-04-26T11:00:28Z</time></trkpt><trkpt lat="45.54558282035272" lon="10.796840323786315"><ele>175.0</ele><time>2026-04-26T11:00:29Z</time></trkpt><trkpt lat="45.545661941125715" lon="10.796844245866785"><ele>175.0</ele><time>2026-04-26T11:00:31Z</time></trkpt><trkpt lat="45.5457291397184" lon="10.79663414498162"><ele>175.4</ele><time>2026-04-26T11:00:35Z</time></trkpt><trkpt lat="45.54576083660332" lon="10.79651616881938"><ele>175.8</ele><time>2026-04-26T11:00:36Z</time></trkpt><trkpt lat="45.545778935111045" lon="10.796394348773573"><ele>176.2</ele><time>2026-04-26T11:00:37Z</time></trkpt><trkpt lat="45.54580127572325" lon="10.796242578309583"><ele>176.6</ele><time>2026-04-26T11:00:38Z</time></trkpt><trkpt lat="45.545821345620745" lon="10.796102840652063"><ele>177.0</ele><time>2026-04-26T11:00:39Z</time></trkpt><trkpt lat="45.54584205394621" lon="10.795945091964438"><ele>177.25</ele><time>2026-04-26T11:00:40Z</time></trkpt><trkpt lat="45.54585750613694" lon="10.795773207558563"><ele>177.5</ele><time>2026-04-26T11:00:41Z</time></trkpt><trkpt lat="45.54588403598734" lon="10.795589310473977"><ele>177.75</ele><time>2026-04-26T11:00:42Z</time></trkpt><trkpt lat="45.545908972413315" lon="10.79540961300098"><ele>178.0</ele><time>2026-04-26T11:00:43Z</time></trkpt><trkpt lat="45.545950725475805" lon="10.795272999302306"><ele>178.4</ele><time>2026-04-26T11:00:44Z</time></trkpt><trkpt lat="45.54597789358612" lon="10.795134109458479"><ele>178.8</ele><time>2026-04-26T11:00:45Z</time></trkpt><trkpt lat="45.54600144783951" lon="10.795002501344113"><ele>179.2</ele><time>2026-04-26T11:00:46Z</time></trkpt><trkpt lat="45.54602402650005" lon="10.794855828985728"><ele>179.6</ele><time>2026-04-26T11:00:47Z</time></trkpt><trkpt lat="45.54602976512348" lon="10.79469196441607"><ele>180.0</ele><time>2026-04-26T11:00:48Z</time></trkpt><trkpt lat="45.54605573650914" lon="10.79451573321244"><ele>180.0</ele><time>2026-04-26T11:00:49Z</time></trkpt><trkpt lat="45.546079720630495" lon="10.794355719030671"><ele>180.0</ele><time>2026-04-26T11:00:50Z</time></trkpt><trkpt lat="45.54610154841999" lon="10.794181481277029"><ele>180.0</ele><time>2026-04-26T11:00:51Z</time></trkpt><trkpt lat="45.54614296358307" lon="10.794009449857302"><ele>180.0</ele><time>2026-04-26T11:00:52Z</time></trkpt><trkpt lat="45.5461692097137" lon="10.79384264540093"><ele>180.4</ele><time>2026-04-26T11:00:53Z</time></trkpt><trkpt lat="45.54618430001619" lon="10.793652018584952"><ele>180.8</ele><time>2026-04-26T11:00:54Z</time></trkpt><trkpt lat="45.54621693657983" lon="10.793469468795655"><ele>181.2</ele><time>2026-04-26T11:00:55Z</time></trkpt><trkpt lat="45.546241117043024" lon="10.793331612114725"><ele>181.6</ele><time>2026-04-26T11:00:56Z</time></trkpt><trkpt lat="45.5462643064372" lon="10.793222334126993"><ele>182.0</ele><time>2026-04-26T11:00:57Z</time></trkpt><trkpt lat="45.54629584163772" lon="10.793090223394914"><ele>182.0</ele><time>2026-04-26T11:00:59Z</time></trkpt><trkpt lat="45.546396555899925" lon="10.79309990593815"><ele>182.0</ele><time>2026-04-26T11:01:01Z</time></trkpt><trkpt lat="45.54646789249236" lon="10.793124862670794"><ele>182.0</ele><time>2026-04-26T11:01:02Z</time></trkpt><trkpt lat="45.54654543365036" lon="10.793156870641353"><ele>182.0</ele><time>2026-04-26T11:01:03Z</time></trkpt><trkpt lat="45.54665307110811" lon="10.793202607645359"><ele>182.0</ele><time>2026-04-26T11:01:04Z</time></trkpt><trkpt lat="45.54678083191373" lon="10.793238741084659"><ele>182.0</ele><time>2026-04-26T11:01:05Z</time></trkpt><trkpt lat="45.546880159626006" lon="10.793304876124667"><ele>182.0</ele><time>2026-04-26T11:01:06Z</time></trkpt><trkpt lat="45.54697377049974" lon="10.793328242437342"><ele>182.0</ele><time>2026-04-26T11:01:07Z</time></trkpt><trkpt lat="45.547063395831245" lon="10.79337198671876"><ele>182.0</ele><time>2026-04-26T11:01:08Z</time></trkpt><trkpt lat="45.547165346483645" lon="10.793421196873895"><ele>182.0</ele><time>2026-04-26T11:01:09Z</time></trkpt><trkpt lat="45.54725762306592" lon="10.79346633752558"><ele>182.0</ele><time>2026-04-26T11:01:10Z</time></trkpt><trkpt lat="45.54732554121651" lon="10.793502327322978"><ele>182.0</ele><time>2026-04-26T11:01:11Z</time></trkpt><trkpt lat="45.54742236134888" lon="10.793508963212297"><ele>182.0</ele><time>2026-04-26T11:01:13Z</time></trkpt><trkpt lat="45.54747394157318" lon="10.793442494095311"><ele>182.0</ele><time>2026-04-26T11:01:14Z</time></trkpt><trkpt lat="45.54750035243076" lon="10.793301291495169"><ele>182.0</ele><time>2026-04-26T11:01:15Z</time></trkpt><trkpt lat="45.547529448987966" lon="10.793142667684364"><ele>182.0</ele><time>2026-04-26T11:01:16Z</time></trkpt><trkpt lat="45.54755830996043" lon="10.792917515524563"><ele>182.0</ele><time>2026-04-26T11:01:17Z</time></trkpt><trkpt lat="45.547578733307326" lon="10.79274372102299"><ele>182.0</ele><time>2026-04-26T11:01:18Z</time></trkpt><trkpt lat="45.54761793702208" lon="10.792615972630173"><ele>182.0</ele><time>2026-04-26T11:01:19Z</time></trkpt><trkpt lat="45.54764762647524" lon="10.792521795631936"><ele>181.8</ele><time>2026-04-26T11:01:20Z</time></trkpt><trkpt lat="45.54772453692609" lon="10.79242693385459"><ele>181.6</ele><time>2026-04-26T11:01:22Z</time></trkpt><trkpt lat="45.547860411693215" lon="10.792406120926117"><ele>181.4</ele><time>2026-04-26T11:01:24Z</time></trkpt><trkpt lat="45.54791860311547" lon="10.792487424854105"><ele>181.20000000000002</ele><time>2026-04-26T11:01:25Z</time></trkpt><trkpt lat="45.547981184851885" lon="10.792595317270816"><ele>181.0</ele><time>2026-04-26T11:01:26Z</time></trkpt><trkpt lat="45.54807291431821" lon="10.79265420400289"><ele>181.5</ele><time>2026-04-26T11:01:27Z</time></trkpt><trkpt lat="45.54819251121463" lon="10.792742564545685"><ele>182.0</ele><time>2026-04-26T11:01:28Z</time></trkpt><trkpt lat="45.548307255411345" lon="10.792809574470889"><ele>182.5</ele><time>2026-04-26T11:01:29Z</time></trkpt><trkpt lat="45.548398913195406" lon="10.79282803163854"><ele>183.0</ele><time>2026-04-26T11:01:30Z</time></trkpt><trkpt lat="45.54851294346913" lon="10.792849929135258"><ele>183.0</ele><time>2026-04-26T11:01:31Z</time></trkpt><trkpt lat="45.548614495287964" lon="10.792850397356425"><ele>183.0</ele><time>2026-04-26T11:01:32Z</time></trkpt><trkpt lat="45.54872365055906" lon="10.792837476191158"><ele>183.0</ele><time>2026-04-26T11:01:33Z</time></trkpt><trkpt lat="45.54885006560232" lon="10.792818928141735"><ele>183.0</ele><time>2026-04-26T11:01:34Z</time></trkpt><trkpt lat="45.548958300796095" lon="10.792799755141425"><ele>183.0</ele><time>2026-04-26T11:01:35Z</time></trkpt><trkpt lat="45.54905108092632" lon="10.792768969792986"><ele>183.5</ele><time>2026-04-26T11:01:36Z</time></trkpt><trkpt lat="45.549135965363206" lon="10.792743931563702"><ele>184.0</ele><time>2026-04-26T11:01:37Z</time></trkpt><trkpt lat="45.54922880243456" lon="10.792740936232029"><ele>184.5</ele><time>2026-04-26T11:01:38Z</time></trkpt><trkpt lat="45.54932319823255" lon="10.792721388325102"><ele>185.0</ele><time>2026-04-26T11:01:39Z</time></trkpt><trkpt lat="45.54940401771719" lon="10.79271639195737"><ele>185.5</ele><time>2026-04-26T11:01:40Z</time></trkpt><trkpt lat="45.54947789100299" lon="10.792727294646452"><ele>186.0</ele><time>2026-04-26T11:01:41Z</time></trkpt><trkpt lat="45.54955186046555" lon="10.792749632658143"><ele>186.0</ele><time>2026-04-26T11:01:42Z</time></trkpt><trkpt lat="45.54963141612744" lon="10.79278230279076"><ele>186.0</ele><time>2026-04-26T11:01:43Z</time></trkpt><trkpt lat="45.54974332675969" lon="10.792836544348733"><ele>186.0</ele><time>2026-04-26T11:01:45Z</time></trkpt><trkpt lat="45.54981286934269" lon="10.792919890973497"><ele>186.0</ele><time>2026-04-26T11:01:46Z</time></trkpt><trkpt lat="45.54989090220829" lon="10.792992235223613"><ele>186.0</ele><time>2026-04-26T11:01:47Z</time></trkpt><trkpt lat="45.54997123560597" lon="10.79304788374894"><ele>186.0</ele><time>2026-04-26T11:01:48Z</time></trkpt><trkpt lat="45.55004357328209" lon="10.793124966974638"><ele>186.0</ele><time>2026-04-26T11:01:49Z</time></trkpt><trkpt lat="45.550099206127726" lon="10.793220190809087"><ele>186.0</ele><time>2026-04-26T11:01:50Z</time></trkpt><trkpt lat="45.55018188118097" lon="10.793334445230476"><ele>186.0</ele><time>2026-04-26T11:01:51Z</time></trkpt><trkpt lat="45.55024164135108" lon="10.793432016009746"><ele>186.0</ele><time>2026-04-26T11:01:52Z</time></trkpt><trkpt lat="45.55031763680897" lon="10.793535060817435"><ele>186.20000000000002</ele><time>2026-04-26T11:01:53Z</time></trkpt><trkpt lat="45.55037773064856" lon="10.79364999313025"><ele>186.4</ele><time>2026-04-26T11:01:54Z</time></trkpt><trkpt lat="45.55043652244293" lon="10.793756032409835"><ele>186.6</ele><time>2026-04-26T11:01:55Z</time></trkpt><trkpt lat="45.55049249910202" lon="10.793865558744727"><ele>186.8</ele><time>2026-04-26T11:01:56Z</time></trkpt><trkpt lat="45.550553518659584" lon="10.793976352884568"><ele>187.0</ele><time>2026-04-26T11:01:57Z</time></trkpt><trkpt lat="45.55061942073166" lon="10.79408903665419"><ele>187.0</ele><time>2026-04-26T11:01:58Z</time></trkpt><trkpt lat="45.550669972040524" lon="10.794171193270413"><ele>187.0</ele><time>2026-04-26T11:01:59Z</time></trkpt><trkpt lat="45.550706228631604" lon="10.794291731190821"><ele>187.0</ele><time>2026-04-26T11:02:00Z</time></trkpt><trkpt lat="45.55073900369098" lon="10.794387577949491"><ele>187.0</ele><time>2026-04-26T11:02:01Z</time></trkpt><trkpt lat="45.550759383869654" lon="10.794559894700194"><ele>187.0</ele><time>2026-04-26T11:02:03Z</time></trkpt><trkpt lat="45.55075200010496" lon="10.794761566279446"><ele>186.75</ele><time>2026-04-26T11:02:05Z</time></trkpt><trkpt lat="45.55076256959727" lon="10.794930450608557"><ele>186.5</ele><time>2026-04-26T11:02:06Z</time></trkpt><trkpt lat="45.55075308463783" lon="10.795110338501658"><ele>186.25</ele><time>2026-04-26T11:02:07Z</time></trkpt><trkpt lat="45.55075242915712" lon="10.795298898777377"><ele>186.0</ele><time>2026-04-26T11:02:08Z</time></trkpt><trkpt lat="45.55074814430522" lon="10.795485158355314"><ele>186.0</ele><time>2026-04-26T11:02:09Z</time></trkpt><trkpt lat="45.55075270859909" lon="10.795652874886395"><ele>186.0</ele><time>2026-04-26T11:02:10Z</time></trkpt><trkpt lat="45.55075622411691" lon="10.79579764243824"><ele>186.0</ele><time>2026-04-26T11:02:11Z</time></trkpt><trkpt lat="45.550758882528605" lon="10.795927224094685"><ele>186.0</ele><time>2026-04-26T11:02:12Z</time></trkpt><trkpt lat="45.550750436230274" lon="10.796067580023712"><ele>186.0</ele><time>2026-04-26T11:02:13Z</time></trkpt><trkpt lat="45.55077465579364" lon="10.796214963757444"><ele>186.0</ele><time>2026-04-26T11:02:14Z</time></trkpt><trkpt lat="45.5507830630251" lon="10.796373694909915"><ele>186.0</ele><time>2026-04-26T11:02:15Z</time></trkpt><trkpt lat="45.550783472511476" lon="10.796494148055833"><ele>186.0</ele><time>2026-04-26T11:02:16Z</time></trkpt><trkpt lat="45.55079492816598" lon="10.796589242771617"><ele>186.0</ele><time>2026-04-26T11:02:17Z</time></trkpt><trkpt lat="45.55078620732741" lon="10.796732797321626"><ele>186.0</ele><time>2026-04-26T11:02:19Z</time></trkpt><trkpt lat="45.55081092299286" lon="10.79683350072532"><ele>186.0</ele><time>2026-04-26T11:02:22Z</time></trkpt><trkpt lat="45.55082874192297" lon="10.796996735750914"><ele>186.0</ele><time>2026-04-26T11:02:27Z</time></trkpt><trkpt lat="45.550826612736024" lon="10.797108498880156"><ele>186.0</ele><time>2026-04-26T11:02:28Z</time></trkpt><trkpt lat="45.550818896124916" lon="10.797247686998439"><ele>186.0</ele><time>2026-04-26T11:02:29Z</time></trkpt><trkpt lat="45.550811154478225" lon="10.797398409892455"><ele>186.0</ele><time>2026-04-26T11:02:30Z</time></trkpt><trkpt lat="45.550801762372416" lon="10.797553963387644"><ele>186.0</ele><time>2026-04-26T11:02:31Z</time></trkpt><trkpt lat="45.55080087675137" lon="10.797721992237152"><ele>186.0</ele><time>2026-04-26T11:02:32Z</time></trkpt><trkpt lat="45.55079663038265" lon="10.797889511356546"><ele>186.0</ele><time>2026-04-26T11:02:33Z</time></trkpt><trkpt lat="45.55078931587655" lon="10.79806617888892"><ele>186.0</ele><time>2026-04-26T11:02:34Z</time></trkpt><trkpt lat="45.55077783183325" lon="10.79826172331469"><ele>186.0</ele><time>2026-04-26T11:02:35Z</time></trkpt><trkpt lat="45.550764866433795" lon="10.79845475567252"><ele>185.75</ele><time>2026-04-26T11:02:36Z</time></trkpt><trkpt lat="45.55075540466438" lon="10.798655886243917"><ele>185.5</ele><time>2026-04-26T11:02:37Z</time></trkpt><trkpt lat="45.55074327303181" lon="10.798856595544473"><ele>185.25</ele><time>2026-04-26T11:02:38Z</time></trkpt><trkpt lat="45.55073947755251" lon="10.799047900267073"><ele>185.0</ele><time>2026-04-26T11:02:39Z</time></trkpt><trkpt lat="45.55073787627353" lon="10.799209941676658"><ele>184.83333333333331</ele><time>2026-04-26T11:02:40Z</time></trkpt><trkpt lat="45.55073777911587" lon="10.799337914986536"><ele>184.66666666666666</ele><time>2026-04-26T11:02:41Z</time></trkpt><trkpt lat="45.55073899264829" lon="10.799445258189522"><ele>184.5</ele><time>2026-04-26T11:02:42Z</time></trkpt><trkpt lat="45.550742112344516" lon="10.79956631901286"><ele>184.33333333333334</ele><time>2026-04-26T11:02:43Z</time></trkpt><trkpt lat="45.550746097191556" lon="10.799681226120333"><ele>184.16666666666669</ele><time>2026-04-26T11:02:44Z</time></trkpt><trkpt lat="45.550747485552876" lon="10.799778755509506"><ele>184.0</ele><time>2026-04-26T11:02:45Z</time></trkpt><trkpt lat="45.55074884121691" lon="10.79989108237968"><ele>184.0</ele><time>2026-04-26T11:02:47Z</time></trkpt><trkpt lat="45.550774571975396" lon="10.799988642323937"><ele>184.0</ele><time>2026-04-26T11:02:54Z</time></trkpt><trkpt lat="45.55078396430623" lon="10.799833681153554"><ele>184.0</ele><time>2026-04-26T11:02:57Z</time></trkpt><trkpt lat="45.55078037576628" lon="10.799734981449484"><ele>184.0</ele><time>2026-04-26T11:02:58Z</time></trkpt><trkpt lat="45.55082577564392" lon="10.79952476270904"><ele>184.0</ele><time>2026-04-26T11:02:59Z</time></trkpt><trkpt lat="45.55082067990983" lon="10.799399001152402"><ele>184.0</ele><time>2026-04-26T11:03:00Z</time></trkpt><trkpt lat="45.55081653240605" lon="10.799273832007671"><ele>184.0</ele><time>2026-04-26T11:03:01Z</time></trkpt><trkpt lat="45.550847545375795" lon="10.79916942790107"><ele>184.0</ele><time>2026-04-26T11:03:03Z</time></trkpt><trkpt lat="45.5509171259035" lon="10.799242663565956"><ele>184.0</ele><time>2026-04-26T11:03:05Z</time></trkpt><trkpt lat="45.55094642681348" lon="10.799391359385403"><ele>184.0</ele><time>2026-04-26T11:03:07Z</time></trkpt><trkpt lat="45.55101977739747" lon="10.799525855242024"><ele>184.0</ele><time>2026-04-26T11:03:09Z</time></trkpt><trkpt lat="45.55107942235219" lon="10.799600200660464"><ele>184.0</ele><time>2026-04-26T11:03:10Z</time></trkpt><trkpt lat="45.55114901184515" lon="10.799673929610087"><ele>184.0</ele><time>2026-04-26T11:03:11Z</time></trkpt><trkpt lat="45.55121431145747" lon="10.799747600074554"><ele>184.0</ele><time>2026-04-26T11:03:12Z</time></trkpt><trkpt lat="45.55129190352149" lon="10.799802978533068"><ele>184.0</ele><time>2026-04-26T11:03:13Z</time></trkpt><trkpt lat="45.55137763980636" lon="10.799856358838639"><ele>184.0</ele><time>2026-04-26T11:03:14Z</time></trkpt><trkpt lat="45.551487891298926" lon="10.799914809551755"><ele>184.0</ele><time>2026-04-26T11:03:15Z</time></trkpt><trkpt lat="45.55160565268468" lon="10.799976556829689"><ele>184.0</ele><time>2026-04-26T11:03:16Z</time></trkpt><trkpt lat="45.55172441082064" lon="10.80005338763653"><ele>184.0</ele><time>2026-04-26T11:03:17Z</time></trkpt><trkpt lat="45.551841422123516" lon="10.800132660904492"><ele>184.0</ele><time>2026-04-26T11:03:18Z</time></trkpt><trkpt lat="45.55195419362728" lon="10.80020749024406"><ele>184.6</ele><time>2026-04-26T11:03:19Z</time></trkpt><trkpt lat="45.552056204071185" lon="10.800271332113935"><ele>185.2</ele><time>2026-04-26T11:03:20Z</time></trkpt><trkpt lat="45.55216262090131" lon="10.800328819256265"><ele>185.79999999999998</ele><time>2026-04-26T11:03:21Z</time></trkpt><trkpt lat="45.55225490766605" lon="10.800396698056508"><ele>186.39999999999998</ele><time>2026-04-26T11:03:22Z</time></trkpt><trkpt lat="45.552349642780726" lon="10.800414580628765"><ele>187.0</ele><time>2026-04-26T11:03:23Z</time></trkpt><trkpt lat="45.55241595563838" lon="10.800419612580752"><ele>187.0</ele><time>2026-04-26T11:03:24Z</time></trkpt><trkpt lat="45.55255602227826" lon="10.800436470562381"><ele>187.0</ele><time>2026-04-26T11:03:26Z</time></trkpt><trkpt lat="45.55269835753055" lon="10.800461903994288"><ele>187.0</ele><time>2026-04-26T11:03:28Z</time></trkpt><trkpt lat="45.55280443563942" lon="10.800461753267612"><ele>187.0</ele><time>2026-04-26T11:03:29Z</time></trkpt><trkpt lat="45.55290652819667" lon="10.800484395532159"><ele>187.0</ele><time>2026-04-26T11:03:30Z</time></trkpt><trkpt lat="45.55302382400062" lon="10.80052277097481"><ele>187.0</ele><time>2026-04-26T11:03:31Z</time></trkpt><trkpt lat="45.55316601280826" lon="10.800555341420766"><ele>187.0</ele><time>2026-04-26T11:03:32Z</time></trkpt><trkpt lat="45.55330385934006" lon="10.800565581787756"><ele>187.0</ele><time>2026-04-26T11:03:33Z</time></trkpt><trkpt lat="45.55341598065939" lon="10.80059054808363"><ele>187.0</ele><time>2026-04-26T11:03:34Z</time></trkpt><trkpt lat="45.55351416110209" lon="10.800637680323904"><ele>187.0</ele><time>2026-04-26T11:03:35Z</time></trkpt><trkpt lat="45.55360925186218" lon="10.800660169791675"><ele>187.0</ele><time>2026-04-26T11:03:36Z</time></trkpt><trkpt lat="45.55369196571745" lon="10.800655771457471"><ele>187.0</ele><time>2026-04-26T11:03:37Z</time></trkpt><trkpt lat="45.55379221669724" lon="10.800679142762622"><ele>187.0</ele><time>2026-04-26T11:03:39Z</time></trkpt><trkpt lat="45.55386771970088" lon="10.80067965714716"><ele>187.2</ele><time>2026-04-26T11:03:47Z</time></trkpt><trkpt lat="45.55393537440432" lon="10.800666959961008"><ele>187.39999999999998</ele><time>2026-04-26T11:03:51Z</time></trkpt><trkpt lat="45.55401034403363" lon="10.800648156005641"><ele>187.60000000000002</ele><time>2026-04-26T11:03:53Z</time></trkpt><trkpt lat="45.5540933936024" lon="10.80062836351803"><ele>187.8</ele><time>2026-04-26T11:03:55Z</time></trkpt><trkpt lat="45.554169547084044" lon="10.800610214478038"><ele>188.0</ele><time>2026-04-26T11:04:00Z</time></trkpt><trkpt lat="45.55408931633873" lon="10.801044331996026"><ele>186.4</ele><time>2026-04-26T11:04:01Z</time></trkpt><trkpt lat="45.55427724168953" lon="10.801024575883755"><ele>184.8</ele><time>2026-04-26T11:04:04Z</time></trkpt><trkpt lat="45.554340496917014" lon="10.801038605220848"><ele>183.2</ele><time>2026-04-26T11:04:11Z</time></trkpt><trkpt lat="45.554404741093045" lon="10.801043102016306"><ele>181.6</ele><time>2026-04-26T11:04:13Z</time></trkpt><trkpt lat="45.55452809293162" lon="10.801042991293906"><ele>180.0</ele><time>2026-04-26T11:04:15Z</time></trkpt><trkpt lat="45.55460514768176" lon="10.801091597933764"><ele>180.0</ele><time>2026-04-26T11:04:18Z</time></trkpt><trkpt lat="45.5546279274171" lon="10.801237447621851"><ele>180.0</ele><time>2026-04-26T11:04:21Z</time></trkpt><trkpt lat="45.554650718441586" lon="10.801382285985307"><ele>180.0</ele><time>2026-04-26T11:04:23Z</time></trkpt><trkpt lat="45.5546520465979" lon="10.801479500157445"><ele>180.0</ele><time>2026-04-26T11:04:25Z</time></trkpt><trkpt lat="45.55457492769566" lon="10.801600688324905"><ele>180.0</ele><time>2026-04-26T11:04:27Z</time></trkpt><trkpt lat="45.554524258921774" lon="10.801714187788738"><ele>180.0</ele><time>2026-04-26T11:04:29Z</time></trkpt><trkpt lat="45.55447516578251" lon="10.801796151108082"><ele>180.0</ele><time>2026-04-26T11:04:30Z</time></trkpt><trkpt lat="45.55441901466338" lon="10.801852858239108"><ele>180.0</ele><time>2026-04-26T11:04:31Z</time></trkpt><trkpt lat="45.55437007442865" lon="10.801930559092678"><ele>180.0</ele><time>2026-04-26T11:04:32Z</time></trkpt><trkpt lat="45.554340501451804" lon="10.802044231781334"><ele>180.0</ele><time>2026-04-26T11:04:33Z</time></trkpt><trkpt lat="45.554303449262704" lon="10.802219242943417"><ele>180.0</ele><time>2026-04-26T11:04:34Z</time></trkpt><trkpt lat="45.55425307702581" lon="10.80238300703348"><ele>178.8</ele><time>2026-04-26T11:04:35Z</time></trkpt><trkpt lat="45.55419834474801" lon="10.802548052067964"><ele>177.6</ele><time>2026-04-26T11:04:36Z</time></trkpt><trkpt lat="45.55414923636389" lon="10.802691547448584"><ele>176.39999999999998</ele><time>2026-04-26T11:04:37Z</time></trkpt><trkpt lat="45.55410766212589" lon="10.80281080880136"><ele>175.2</ele><time>2026-04-26T11:04:38Z</time></trkpt><trkpt lat="45.55407059684522" lon="10.802913716649657"><ele>174.0</ele><time>2026-04-26T11:04:39Z</time></trkpt><trkpt lat="45.55403513286442" lon="10.80302974694757"><ele>174.14285714285714</ele><time>2026-04-26T11:04:40Z</time></trkpt><trkpt lat="45.554012930560106" lon="10.803139756208838"><ele>174.28571428571428</ele><time>2026-04-26T11:04:41Z</time></trkpt><trkpt lat="45.554010289836604" lon="10.803250305777688"><ele>174.42857142857144</ele><time>2026-04-26T11:04:42Z</time></trkpt><trkpt lat="45.55402168256199" lon="10.803340859916535"><ele>174.57142857142856</ele><time>2026-04-26T11:04:43Z</time></trkpt><trkpt lat="45.55408247762188" lon="10.803445376228902"><ele>174.71428571428572</ele><time>2026-04-26T11:04:45Z</time></trkpt><trkpt lat="45.554128736036496" lon="10.803509011205195"><ele>174.85714285714286</ele><time>2026-04-26T11:04:47Z</time></trkpt><trkpt lat="45.554155610335165" lon="10.803594562585754"><ele>175.0</ele><time>2026-04-26T11:05:04Z</time></trkpt><trkpt lat="45.55428955340608" lon="10.80362600054277"><ele>175.0</ele><time>2026-04-26T11:05:06Z</time></trkpt><trkpt lat="45.55436836914754" lon="10.803619926687562"><ele>175.0</ele><time>2026-04-26T11:05:07Z</time></trkpt><trkpt lat="45.55446791342279" lon="10.803633905056312"><ele>175.0</ele><time>2026-04-26T11:05:08Z</time></trkpt><trkpt lat="45.554579602561404" lon="10.803650349926587"><ele>175.0</ele><time>2026-04-26T11:05:09Z</time></trkpt><trkpt lat="45.55470445345029" lon="10.80366287880479"><ele>175.0</ele><time>2026-04-26T11:05:10Z</time></trkpt><trkpt lat="45.554820048166754" lon="10.803661015828814"><ele>175.75</ele><time>2026-04-26T11:05:11Z</time></trkpt><trkpt lat="45.554946483816046" lon="10.803647052114107"><ele>176.5</ele><time>2026-04-26T11:05:12Z</time></trkpt><trkpt lat="45.55507990036307" lon="10.803617198736164"><ele>177.25</ele><time>2026-04-26T11:05:13Z</time></trkpt><trkpt lat="45.555198293270216" lon="10.803562402383024"><ele>178.0</ele><time>2026-04-26T11:05:14Z</time></trkpt><trkpt lat="45.55532198927801" lon="10.8035054470609"><ele>178.0</ele><time>2026-04-26T11:05:15Z</time></trkpt><trkpt lat="45.55544631384255" lon="10.803430800889"><ele>178.0</ele><time>2026-04-26T11:05:16Z</time></trkpt><trkpt lat="45.55557027698119" lon="10.803339594933977"><ele>178.0</ele><time>2026-04-26T11:05:17Z</time></trkpt><trkpt lat="45.55569387084148" lon="10.80323279898869"><ele>178.0</ele><time>2026-04-26T11:05:18Z</time></trkpt><trkpt lat="45.555821885117226" lon="10.80311926016846"><ele>178.0</ele><time>2026-04-26T11:05:19Z</time></trkpt><trkpt lat="45.55595405778618" lon="10.803001224822843"><ele>178.0</ele><time>2026-04-26T11:05:20Z</time></trkpt><trkpt lat="45.556077184057955" lon="10.802897234983295"><ele>178.0</ele><time>2026-04-26T11:05:21Z</time></trkpt><trkpt lat="45.55619975819116" lon="10.802777756568213"><ele>178.0</ele><time>2026-04-26T11:05:22Z</time></trkpt><trkpt lat="45.55632149227286" lon="10.802658667233258"><ele>178.66666666666669</ele><time>2026-04-26T11:05:23Z</time></trkpt><trkpt lat="45.55645411241508" lon="10.802533350723659"><ele>179.33333333333334</ele><time>2026-04-26T11:05:24Z</time></trkpt><trkpt lat="45.55658677330263" lon="10.802412379188254"><ele>180.0</ele><time>2026-04-26T11:05:25Z</time></trkpt><trkpt lat="45.55670511174745" lon="10.802308095689718"><ele>180.0</ele><time>2026-04-26T11:05:26Z</time></trkpt><trkpt lat="45.55681838066752" lon="10.802208284608467"><ele>180.0</ele><time>2026-04-26T11:05:27Z</time></trkpt><trkpt lat="45.55692512865684" lon="10.802109921361263"><ele>180.0</ele><time>2026-04-26T11:05:28Z</time></trkpt><trkpt lat="45.557036203604085" lon="10.802010939964244"><ele>180.0</ele><time>2026-04-26T11:05:29Z</time></trkpt><trkpt lat="45.55715369346129" lon="10.80190223908201"><ele>180.75</ele><time>2026-04-26T11:05:30Z</time></trkpt><trkpt lat="45.557266016288715" lon="10.801788578037653"><ele>181.5</ele><time>2026-04-26T11:05:31Z</time></trkpt><trkpt lat="45.55737363179797" lon="10.801679963345691"><ele>182.25</ele><time>2026-04-26T11:05:32Z</time></trkpt><trkpt lat="45.557479014640755" lon="10.80157763303778"><ele>183.0</ele><time>2026-04-26T11:05:33Z</time></trkpt><trkpt lat="45.55758391815277" lon="10.801492914364369"><ele>183.0</ele><time>2026-04-26T11:05:34Z</time></trkpt><trkpt lat="45.55769150609289" lon="10.801418790167006"><ele>183.0</ele><time>2026-04-26T11:05:35Z</time></trkpt><trkpt lat="45.557809147255576" lon="10.801338297495457"><ele>183.0</ele><time>2026-04-26T11:05:36Z</time></trkpt><trkpt lat="45.55792854503012" lon="10.801249163868013"><ele>183.0</ele><time>2026-04-26T11:05:37Z</time></trkpt><trkpt lat="45.55804934758333" lon="10.801159258105669"><ele>183.5</ele><time>2026-04-26T11:05:38Z</time></trkpt><trkpt lat="45.558172481811305" lon="10.80106126725768"><ele>184.0</ele><time>2026-04-26T11:05:39Z</time></trkpt><trkpt lat="45.558294433959375" lon="10.800966511632794"><ele>184.5</ele><time>2026-04-26T11:05:40Z</time></trkpt><trkpt lat="45.55841140137449" lon="10.800866327783798"><ele>185.0</ele><time>2026-04-26T11:05:41Z</time></trkpt><trkpt lat="45.558519653261136" lon="10.800757768599206"><ele>185.0</ele><time>2026-04-26T11:05:42Z</time></trkpt><trkpt lat="45.558622066861396" lon="10.800631943727838"><ele>185.0</ele><time>2026-04-26T11:05:43Z</time></trkpt><trkpt lat="45.558727195662264" lon="10.800490635138274"><ele>185.0</ele><time>2026-04-26T11:05:44Z</time></trkpt><trkpt lat="45.55883830932191" lon="10.800350052355617"><ele>185.0</ele><time>2026-04-26T11:05:45Z</time></trkpt><trkpt lat="45.55893561786471" lon="10.80023962822324"><ele>185.0</ele><time>2026-04-26T11:05:46Z</time></trkpt><trkpt lat="45.55902448145396" lon="10.800105857999876"><ele>185.0</ele><time>2026-04-26T11:05:47Z</time></trkpt><trkpt lat="45.559107785112765" lon="10.800054995030754"><ele>185.0</ele><time>2026-04-26T11:05:48Z</time></trkpt><trkpt lat="45.55921253903666" lon="10.799989225193698"><ele>185.0</ele><time>2026-04-26T11:05:49Z</time></trkpt><trkpt lat="45.55933834614608" lon="10.799927150025928"><ele>185.0</ele><time>2026-04-26T11:05:50Z</time></trkpt><trkpt lat="45.559475663796015" lon="10.799878525871616"><ele>185.0</ele><time>2026-04-26T11:05:51Z</time></trkpt><trkpt lat="45.55961513700759" lon="10.799862611358453"><ele>185.0</ele><time>2026-04-26T11:05:52Z</time></trkpt><trkpt lat="45.5597654991688" lon="10.799872656260195"><ele>185.0</ele><time>2026-04-26T11:05:53Z</time></trkpt><trkpt lat="45.559925129017294" lon="10.799901277923686"><ele>185.0</ele><time>2026-04-26T11:05:54Z</time></trkpt><trkpt lat="45.560085076580485" lon="10.799927169547392"><ele>185.0</ele><time>2026-04-26T11:05:55Z</time></trkpt><trkpt lat="45.56023958923537" lon="10.799947382144126"><ele>185.0</ele><time>2026-04-26T11:05:56Z</time></trkpt><trkpt lat="45.56038537978306" lon="10.799963605041706"><ele>185.0</ele><time>2026-04-26T11:05:57Z</time></trkpt><trkpt lat="45.56053028309551" lon="10.799976843444478"><ele>185.0</ele><time>2026-04-26T11:05:58Z</time></trkpt><trkpt lat="45.56067862145476" lon="10.799998050904325"><ele>185.0</ele><time>2026-04-26T11:05:59Z</time></trkpt><trkpt lat="45.56082422673067" lon="10.80001784235546"><ele>185.0</ele><time>2026-04-26T11:06:00Z</time></trkpt><trkpt lat="45.560970963248316" lon="10.800030833264318"><ele>185.0</ele><time>2026-04-26T11:06:01Z</time></trkpt><trkpt lat="45.56112433504254" lon="10.800043892770693"><ele>185.0</ele><time>2026-04-26T11:06:02Z</time></trkpt><trkpt lat="45.56127417539384" lon="10.800055152527056"><ele>185.0</ele><time>2026-04-26T11:06:03Z</time></trkpt><trkpt lat="45.56142517110725" lon="10.80007901318758"><ele>185.25</ele><time>2026-04-26T11:06:04Z</time></trkpt><trkpt lat="45.56157173686009" lon="10.800097299609488"><ele>185.5</ele><time>2026-04-26T11:06:05Z</time></trkpt><trkpt lat="45.56171758226489" lon="10.80011549071709"><ele>185.75</ele><time>2026-04-26T11:06:06Z</time></trkpt><trkpt lat="45.56185220827522" lon="10.800132830195517"><ele>186.0</ele><time>2026-04-26T11:06:07Z</time></trkpt><trkpt lat="45.56197720083843" lon="10.800155674892897"><ele>186.5</ele><time>2026-04-26T11:06:08Z</time></trkpt><trkpt lat="45.56210122162718" lon="10.800178044287703"><ele>187.0</ele><time>2026-04-26T11:06:09Z</time></trkpt><trkpt lat="45.56222975574269" lon="10.800200305496578"><ele>187.5</ele><time>2026-04-26T11:06:10Z</time></trkpt><trkpt lat="45.562365864590326" lon="10.800227760455273"><ele>188.0</ele><time>2026-04-26T11:06:11Z</time></trkpt><trkpt lat="45.562511826233" lon="10.800260158951724"><ele>188.0</ele><time>2026-04-26T11:06:12Z</time></trkpt><trkpt lat="45.56266013259562" lon="10.80029637767082"><ele>188.0</ele><time>2026-04-26T11:06:13Z</time></trkpt><trkpt lat="45.56281271723649" lon="10.800343152198165"><ele>188.0</ele><time>2026-04-26T11:06:14Z</time></trkpt><trkpt lat="45.56295955650607" lon="10.800397462107824"><ele>189.0</ele><time>2026-04-26T11:06:15Z</time></trkpt><trkpt lat="45.56310669180775" lon="10.800458986724013"><ele>190.0</ele><time>2026-04-26T11:06:16Z</time></trkpt><trkpt lat="45.5632550411039" lon="10.80053488703438"><ele>191.0</ele><time>2026-04-26T11:06:17Z</time></trkpt><trkpt lat="45.56340329370547" lon="10.800621225660594"><ele>191.0</ele><time>2026-04-26T11:06:18Z</time></trkpt><trkpt lat="45.5635495678218" lon="10.800721880766034"><ele>191.0</ele><time>2026-04-26T11:06:19Z</time></trkpt><trkpt lat="45.56369078217445" lon="10.800843882507294"><ele>191.0</ele><time>2026-04-26T11:06:20Z</time></trkpt><trkpt lat="45.56382573195049" lon="10.800963296866154"><ele>190.33333333333331</ele><time>2026-04-26T11:06:21Z</time></trkpt><trkpt lat="45.56396005583609" lon="10.801081004602024"><ele>189.66666666666666</ele><time>2026-04-26T11:06:22Z</time></trkpt><trkpt lat="45.56409164151341" lon="10.801189838156654"><ele>189.0</ele><time>2026-04-26T11:06:23Z</time></trkpt><trkpt lat="45.564222763269534" lon="10.801302747392423"><ele>189.0</ele><time>2026-04-26T11:06:24Z</time></trkpt><trkpt lat="45.564354288045585" lon="10.801415396069775"><ele>189.0</ele><time>2026-04-26T11:06:25Z</time></trkpt><trkpt lat="45.56449656295041" lon="10.80152821506633"><ele>189.0</ele><time>2026-04-26T11:06:26Z</time></trkpt><trkpt lat="45.56464215073097" lon="10.801627892318068"><ele>189.33333333333334</ele><time>2026-04-26T11:06:27Z</time></trkpt><trkpt lat="45.56480254126463" lon="10.801720807729208"><ele>189.66666666666669</ele><time>2026-04-26T11:06:28Z</time></trkpt><trkpt lat="45.56495250924974" lon="10.801788200700106"><ele>190.0</ele><time>2026-04-26T11:06:29Z</time></trkpt><trkpt lat="45.56511576259486" lon="10.801841687910125"><ele>190.0</ele><time>2026-04-26T11:06:30Z</time></trkpt><trkpt lat="45.565266307861485" lon="10.801879435472866"><ele>190.0</ele><time>2026-04-26T11:06:31Z</time></trkpt><trkpt lat="45.56543971975663" lon="10.80190900030969"><ele>190.0</ele><time>2026-04-26T11:06:32Z</time></trkpt><trkpt lat="45.56559790637216" lon="10.801948676371316"><ele>190.25</ele><time>2026-04-26T11:06:33Z</time></trkpt><trkpt lat="45.56574632264164" lon="10.801979402427818"><ele>190.5</ele><time>2026-04-26T11:06:34Z</time></trkpt><trkpt lat="45.56588224615241" lon="10.802010185666425"><ele>190.75</ele><time>2026-04-26T11:06:35Z</time></trkpt><trkpt lat="45.56603624076464" lon="10.80204866392496"><ele>191.0</ele><time>2026-04-26T11:06:36Z</time></trkpt><trkpt lat="45.566193327623765" lon="10.802090921009318"><ele>190.66666666666666</ele><time>2026-04-26T11:06:37Z</time></trkpt><trkpt lat="45.56635496862816" lon="10.802135103300424"><ele>190.33333333333334</ele><time>2026-04-26T11:06:38Z</time></trkpt><trkpt lat="45.56654058785074" lon="10.802180098129373"><ele>190.0</ele><time>2026-04-26T11:06:39Z</time></trkpt><trkpt lat="45.56670384489102" lon="10.802220443876042"><ele>190.0</ele><time>2026-04-26T11:06:40Z</time></trkpt><trkpt lat="45.56685069211673" lon="10.802241198048456"><ele>190.0</ele><time>2026-04-26T11:06:41Z</time></trkpt><trkpt lat="45.56698838761694" lon="10.802254690157548"><ele>190.0</ele><time>2026-04-26T11:06:42Z</time></trkpt><trkpt lat="45.567130124819656" lon="10.802265544530934"><ele>190.0</ele><time>2026-04-26T11:06:43Z</time></trkpt><trkpt lat="45.567276266376226" lon="10.802274950161292"><ele>190.66666666666669</ele><time>2026-04-26T11:06:44Z</time></trkpt><trkpt lat="45.567422827374315" lon="10.802271641117578"><ele>191.33333333333334</ele><time>2026-04-26T11:06:45Z</time></trkpt><trkpt lat="45.56757579159254" lon="10.80226376975787"><ele>192.0</ele><time>2026-04-26T11:06:46Z</time></trkpt><trkpt lat="45.56773876351718" lon="10.802248096906176"><ele>191.66666666666666</ele><time>2026-04-26T11:06:47Z</time></trkpt><trkpt lat="45.567911199199614" lon="10.8022205735136"><ele>191.33333333333331</ele><time>2026-04-26T11:06:48Z</time></trkpt><trkpt lat="45.56806754062631" lon="10.802198247794994"><ele>191.0</ele><time>2026-04-26T11:06:49Z</time></trkpt><trkpt lat="45.56824028130878" lon="10.80216130240227"><ele>191.0</ele><time>2026-04-26T11:06:50Z</time></trkpt><trkpt lat="45.56839981024524" lon="10.802145642079237"><ele>191.0</ele><time>2026-04-26T11:06:51Z</time></trkpt><trkpt lat="45.56856791463162" lon="10.802126274899273"><ele>191.0</ele><time>2026-04-26T11:06:52Z</time></trkpt><trkpt lat="45.56871385870938" lon="10.802128360426229"><ele>191.75</ele><time>2026-04-26T11:06:53Z</time></trkpt><trkpt lat="45.56885430061467" lon="10.802128020379493"><ele>192.5</ele><time>2026-04-26T11:06:54Z</time></trkpt><trkpt lat="45.568986987150204" lon="10.802136758149118"><ele>193.25</ele><time>2026-04-26T11:06:55Z</time></trkpt><trkpt lat="45.569096003625035" lon="10.802153422916076"><ele>194.0</ele><time>2026-04-26T11:06:56Z</time></trkpt><trkpt lat="45.56917067291011" lon="10.802170859295396"><ele>194.0</ele><time>2026-04-26T11:06:57Z</time></trkpt><trkpt lat="45.569240921593654" lon="10.802176568427987"><ele>194.0</ele><time>2026-04-26T11:06:58Z</time></trkpt><trkpt lat="45.56930070240918" lon="10.802205399253634"><ele>194.0</ele><time>2026-04-26T11:06:59Z</time></trkpt><trkpt lat="45.56938758799009" lon="10.801959091042695"><ele>194.0</ele><time>2026-04-26T11:07:01Z</time></trkpt><trkpt lat="45.56941324966186" lon="10.801794652750052"><ele>194.0</ele><time>2026-04-26T11:07:02Z</time></trkpt><trkpt lat="45.56945883974977" lon="10.801659481537472"><ele>193.6</ele><time>2026-04-26T11:07:03Z</time></trkpt><trkpt lat="45.56949385526577" lon="10.801519861200807"><ele>193.2</ele><time>2026-04-26T11:07:04Z</time></trkpt><trkpt lat="45.56951306689302" lon="10.801367751955782"><ele>192.79999999999998</ele><time>2026-04-26T11:07:05Z</time></trkpt><trkpt lat="45.569554610131036" lon="10.80121658862753"><ele>192.39999999999998</ele><time>2026-04-26T11:07:06Z</time></trkpt><trkpt lat="45.56954758947409" lon="10.801082357735318"><ele>192.0</ele><time>2026-04-26T11:07:07Z</time></trkpt><trkpt lat="45.5695131316323" lon="10.800990043623727"><ele>192.0</ele><time>2026-04-26T11:07:08Z</time></trkpt><trkpt lat="45.569494673156264" lon="10.800871106584724"><ele>192.0</ele><time>2026-04-26T11:07:09Z</time></trkpt><trkpt lat="45.569472148015414" lon="10.800767423715708"><ele>192.0</ele><time>2026-04-26T11:07:10Z</time></trkpt><trkpt lat="45.56945686780307" lon="10.80065444539012"><ele>192.0</ele><time>2026-04-26T11:07:11Z</time></trkpt><trkpt lat="45.569512750411924" lon="10.80003314220491"><ele>192.5</ele><time>2026-04-26T11:07:12Z</time></trkpt><trkpt lat="45.56953769919201" lon="10.79991489974482"><ele>193.0</ele><time>2026-04-26T11:07:14Z</time></trkpt><trkpt lat="45.569612392521464" lon="10.79974166368035"><ele>193.5</ele><time>2026-04-26T11:07:15Z</time></trkpt><trkpt lat="45.56977904749069" lon="10.799587909063534"><ele>194.0</ele><time>2026-04-26T11:07:16Z</time></trkpt><trkpt lat="45.56985305036881" lon="10.799519154638435"><ele>194.0</ele><time>2026-04-26T11:07:18Z</time></trkpt><trkpt lat="45.56994072454289" lon="10.799438964402185"><ele>194.0</ele><time>2026-04-26T11:07:20Z</time></trkpt><trkpt lat="45.57000867384162" lon="10.799388455279136"><ele>194.0</ele><time>2026-04-26T11:07:22Z</time></trkpt><trkpt lat="45.57009063628294" lon="10.799328402191263"><ele>194.0</ele><time>2026-04-26T11:07:23Z</time></trkpt><trkpt lat="45.57017640076543" lon="10.79926514983227"><ele>194.0</ele><time>2026-04-26T11:07:24Z</time></trkpt><trkpt lat="45.57029661830099" lon="10.799236727910866"><ele>195.0</ele><time>2026-04-26T11:07:26Z</time></trkpt><trkpt lat="45.57037783430812" lon="10.799198966920184"><ele>196.0</ele><time>2026-04-26T11:07:27Z</time></trkpt><trkpt lat="45.57047101570561" lon="10.799118475076265"><ele>197.0</ele><time>2026-04-26T11:07:28Z</time></trkpt><trkpt lat="45.5708970747756" lon="10.799601424765111"><ele>197.0</ele><time>2026-04-26T11:07:29Z</time></trkpt><trkpt lat="45.57099137169813" lon="10.79955244857779"><ele>197.0</ele><time>2026-04-26T11:07:30Z</time></trkpt><trkpt lat="45.57109924025014" lon="10.79949312449362"><ele>197.0</ele><time>2026-04-26T11:07:31Z</time></trkpt><trkpt lat="45.571206204918596" lon="10.799413086652153"><ele>197.0</ele><time>2026-04-26T11:07:32Z</time></trkpt><trkpt lat="45.57130744297795" lon="10.799340214587158"><ele>197.8</ele><time>2026-04-26T11:07:33Z</time></trkpt><trkpt lat="45.57140529863767" lon="10.799263446225668"><ele>198.6</ele><time>2026-04-26T11:07:34Z</time></trkpt><trkpt lat="45.571493939755335" lon="10.79918931048624"><ele>199.4</ele><time>2026-04-26T11:07:35Z</time></trkpt><trkpt lat="45.57157459354348" lon="10.799125995502191"><ele>200.20000000000002</ele><time>2026-04-26T11:07:36Z</time></trkpt><trkpt lat="45.57166440401176" lon="10.799067799518188"><ele>201.0</ele><time>2026-04-26T11:07:37Z</time></trkpt><trkpt lat="45.57177273936767" lon="10.798987845376914"><ele>201.0</ele><time>2026-04-26T11:07:38Z</time></trkpt><trkpt lat="45.57186630529071" lon="10.798914552936886"><ele>201.0</ele><time>2026-04-26T11:07:39Z</time></trkpt><trkpt lat="45.57195604139745" lon="10.798854359050688"><ele>201.0</ele><time>2026-04-26T11:07:40Z</time></trkpt><trkpt lat="45.572045408097864" lon="10.798790486495005"><ele>201.0</ele><time>2026-04-26T11:07:41Z</time></trkpt><trkpt lat="45.57213872977643" lon="10.798700133559787"><ele>201.0</ele><time>2026-04-26T11:07:42Z</time></trkpt><trkpt lat="45.57221555176254" lon="10.79861681702688"><ele>201.0</ele><time>2026-04-26T11:07:43Z</time></trkpt><trkpt lat="45.57229087573176" lon="10.798556395677638"><ele>201.0</ele><time>2026-04-26T11:07:44Z</time></trkpt><trkpt lat="45.57238523437721" lon="10.798494839620274"><ele>201.0</ele><time>2026-04-26T11:07:45Z</time></trkpt><trkpt lat="45.57249067486231" lon="10.798432404008329"><ele>201.0</ele><time>2026-04-26T11:07:46Z</time></trkpt><trkpt lat="45.57260038124917" lon="10.798359618591142"><ele>201.0</ele><time>2026-04-26T11:07:47Z</time></trkpt><trkpt lat="45.572706411491694" lon="10.798284161348116"><ele>201.5</ele><time>2026-04-26T11:07:48Z</time></trkpt><trkpt lat="45.57281253785229" lon="10.798214138028765"><ele>202.0</ele><time>2026-04-26T11:07:49Z</time></trkpt><trkpt lat="45.57294688480228" lon="10.7981466710981"><ele>202.5</ele><time>2026-04-26T11:07:50Z</time></trkpt><trkpt lat="45.57307050604774" lon="10.798096379646404"><ele>203.0</ele><time>2026-04-26T11:07:51Z</time></trkpt><trkpt lat="45.57317594810557" lon="10.798059085932719"><ele>203.0</ele><time>2026-04-26T11:07:52Z</time></trkpt><trkpt lat="45.573276506754375" lon="10.798017450421062"><ele>203.0</ele><time>2026-04-26T11:07:53Z</time></trkpt><trkpt lat="45.573379578247106" lon="10.797970423189273"><ele>203.0</ele><time>2026-04-26T11:07:54Z</time></trkpt><trkpt lat="45.57349033892316" lon="10.797926168226127"><ele>203.0</ele><time>2026-04-26T11:07:55Z</time></trkpt><trkpt lat="45.573608253027814" lon="10.797875034224447"><ele>202.0</ele><time>2026-04-26T11:07:56Z</time></trkpt><trkpt lat="45.57372900339764" lon="10.797819690768238"><ele>201.0</ele><time>2026-04-26T11:07:57Z</time></trkpt><trkpt lat="45.573842929715674" lon="10.797773959552847"><ele>200.0</ele><time>2026-04-26T11:07:58Z</time></trkpt><trkpt lat="45.57393829993955" lon="10.797722615995072"><ele>199.0</ele><time>2026-04-26T11:07:59Z</time></trkpt><trkpt lat="45.57403001153228" lon="10.797669316218444"><ele>198.0</ele><time>2026-04-26T11:08:00Z</time></trkpt><trkpt lat="45.574119978792055" lon="10.797619837612869"><ele>198.33333333333334</ele><time>2026-04-26T11:08:01Z</time></trkpt><trkpt lat="45.57420951414937" lon="10.797554671751957"><ele>198.66666666666669</ele><time>2026-04-26T11:08:02Z</time></trkpt><trkpt lat="45.574281677457066" lon="10.797507780856893"><ele>199.0</ele><time>2026-04-26T11:08:03Z</time></trkpt><trkpt lat="45.57435071780922" lon="10.797442310040323"><ele>199.33333333333334</ele><time>2026-04-26T11:08:04Z</time></trkpt><trkpt lat="45.574405570228684" lon="10.797379025774793"><ele>199.66666666666669</ele><time>2026-04-26T11:08:05Z</time></trkpt><trkpt lat="45.57447048865878" lon="10.797285952853947"><ele>200.0</ele><time>2026-04-26T11:08:06Z</time></trkpt><trkpt lat="45.57455287822587" lon="10.797149442974026"><ele>200.0</ele><time>2026-04-26T11:08:07Z</time></trkpt><trkpt lat="45.57463348535702" lon="10.797027500748978"><ele>200.0</ele><time>2026-04-26T11:08:08Z</time></trkpt><trkpt lat="45.57470058998107" lon="10.796947905262924"><ele>200.0</ele><time>2026-04-26T11:08:09Z</time></trkpt><trkpt lat="45.574776345236664" lon="10.796886206719051"><ele>200.0</ele><time>2026-04-26T11:08:10Z</time></trkpt><trkpt lat="45.574865354291546" lon="10.796831642079914"><ele>200.0</ele><time>2026-04-26T11:08:11Z</time></trkpt><trkpt lat="45.57495438347161" lon="10.796770354291644"><ele>202.75</ele><time>2026-04-26T11:08:12Z</time></trkpt><trkpt lat="45.57503523846874" lon="10.796699949287737"><ele>205.5</ele><time>2026-04-26T11:08:13Z</time></trkpt><trkpt lat="45.57514329669967" lon="10.796614657154176"><ele>208.25</ele><time>2026-04-26T11:08:14Z</time></trkpt><trkpt lat="45.575258441569815" lon="10.79651428120291"><ele>211.0</ele><time>2026-04-26T11:08:15Z</time></trkpt><trkpt lat="45.575334541742514" lon="10.796427143653272"><ele>209.60000000000002</ele><time>2026-04-26T11:08:16Z</time></trkpt><trkpt lat="45.575411394765354" lon="10.796341370384976"><ele>208.2</ele><time>2026-04-26T11:08:17Z</time></trkpt><trkpt lat="45.575490111623935" lon="10.79623361294319"><ele>206.8</ele><time>2026-04-26T11:08:18Z</time></trkpt><trkpt lat="45.57556771660343" lon="10.79612437721654"><ele>205.39999999999998</ele><time>2026-04-26T11:08:19Z</time></trkpt><trkpt lat="45.57565029523591" lon="10.795991861295182"><ele>204.0</ele><time>2026-04-26T11:08:20Z</time></trkpt><trkpt lat="45.57572489958545" lon="10.79586860215961"><ele>204.0</ele><time>2026-04-26T11:08:21Z</time></trkpt><trkpt lat="45.57579030594874" lon="10.795757370273162"><ele>204.0</ele><time>2026-04-26T11:08:22Z</time></trkpt><trkpt lat="45.575852497806494" lon="10.79564244317184"><ele>204.0</ele><time>2026-04-26T11:08:23Z</time></trkpt><trkpt lat="45.57590821043739" lon="10.795534516548093"><ele>204.0</ele><time>2026-04-26T11:08:24Z</time></trkpt><trkpt lat="45.575979235161846" lon="10.795434851323968"><ele>204.0</ele><time>2026-04-26T11:08:25Z</time></trkpt><trkpt lat="45.57605321301754" lon="10.795347595921704"><ele>204.0</ele><time>2026-04-26T11:08:26Z</time></trkpt><trkpt lat="45.57613645475652" lon="10.795261143232674"><ele>204.0</ele><time>2026-04-26T11:08:27Z</time></trkpt><trkpt lat="45.57621605168093" lon="10.795178755931747"><ele>204.0</ele><time>2026-04-26T11:08:28Z</time></trkpt><trkpt lat="45.57628497335291" lon="10.795139348731892"><ele>204.0</ele><time>2026-04-26T11:08:29Z</time></trkpt><trkpt lat="45.57637087225995" lon="10.795116125458977"><ele>204.0</ele><time>2026-04-26T11:08:31Z</time></trkpt><trkpt lat="45.576435190734685" lon="10.795123554708876"><ele>204.0</ele><time>2026-04-26T11:08:33Z</time></trkpt><trkpt lat="45.5765208378542" lon="10.795029594555686"><ele>203.6</ele><time>2026-04-26T11:08:38Z</time></trkpt><trkpt lat="45.57652283417063" lon="10.794909322422578"><ele>203.2</ele><time>2026-04-26T11:08:39Z</time></trkpt><trkpt lat="45.5765118802205" lon="10.794793541634506"><ele>202.79999999999998</ele><time>2026-04-26T11:08:40Z</time></trkpt><trkpt lat="45.57651282228912" lon="10.794657782324853"><ele>202.39999999999998</ele><time>2026-04-26T11:08:41Z</time></trkpt><trkpt lat="45.57651659756807" lon="10.794517141186782"><ele>202.0</ele><time>2026-04-26T11:08:42Z</time></trkpt><trkpt lat="45.57651915533306" lon="10.79436359398268"><ele>202.25</ele><time>2026-04-26T11:08:43Z</time></trkpt><trkpt lat="45.57652329423485" lon="10.794183353460813"><ele>202.5</ele><time>2026-04-26T11:08:44Z</time></trkpt><trkpt lat="45.576530128680844" lon="10.7940130904555"><ele>202.75</ele><time>2026-04-26T11:08:45Z</time></trkpt><trkpt lat="45.57653549101721" lon="10.793831569945363"><ele>203.0</ele><time>2026-04-26T11:08:46Z</time></trkpt><trkpt lat="45.576538087567556" lon="10.793648553690671"><ele>202.75</ele><time>2026-04-26T11:08:47Z</time></trkpt><trkpt lat="45.57654521977247" lon="10.793459549253784"><ele>202.5</ele><time>2026-04-26T11:08:48Z</time></trkpt><trkpt lat="45.57655078521335" lon="10.793273261378072"><ele>202.25</ele><time>2026-04-26T11:08:49Z</time></trkpt><trkpt lat="45.576556599739625" lon="10.793097450080376"><ele>202.0</ele><time>2026-04-26T11:08:50Z</time></trkpt><trkpt lat="45.57656197708281" lon="10.792915213020418"><ele>202.0</ele><time>2026-04-26T11:08:51Z</time></trkpt><trkpt lat="45.57656881160536" lon="10.792745031784534"><ele>202.0</ele><time>2026-04-26T11:08:52Z</time></trkpt><trkpt lat="45.576576582894695" lon="10.792568688951679"><ele>202.0</ele><time>2026-04-26T11:08:53Z</time></trkpt><trkpt lat="45.57658212933963" lon="10.792393544456791"><ele>202.0</ele><time>2026-04-26T11:08:54Z</time></trkpt><trkpt lat="45.5765949947636" lon="10.79220825375987"><ele>202.0</ele><time>2026-04-26T11:08:55Z</time></trkpt><trkpt lat="45.576595946502046" lon="10.79203066335213"><ele>202.0</ele><time>2026-04-26T11:08:56Z</time></trkpt><trkpt lat="45.57660796339594" lon="10.791870646790153"><ele>202.0</ele><time>2026-04-26T11:08:57Z</time></trkpt><trkpt lat="45.57658872412465" lon="10.791691760421353"><ele>202.0</ele><time>2026-04-26T11:08:58Z</time></trkpt><trkpt lat="45.57655351158418" lon="10.791518298138394"><ele>202.0</ele><time>2026-04-26T11:08:59Z</time></trkpt><trkpt lat="45.57649637969807" lon="10.79134932254234"><ele>202.0</ele><time>2026-04-26T11:09:00Z</time></trkpt><trkpt lat="45.57642708226876" lon="10.791193864388795"><ele>202.0</ele><time>2026-04-26T11:09:01Z</time></trkpt><trkpt lat="45.57634455305807" lon="10.791045476601118"><ele>202.0</ele><time>2026-04-26T11:09:02Z</time></trkpt><trkpt lat="45.57624918345033" lon="10.79090649762955"><ele>202.75</ele><time>2026-04-26T11:09:03Z</time></trkpt><trkpt lat="45.57615128084779" lon="10.790769882079356"><ele>203.5</ele><time>2026-04-26T11:09:04Z</time></trkpt><trkpt lat="45.576056096435636" lon="10.790625524644618"><ele>204.25</ele><time>2026-04-26T11:09:05Z</time></trkpt><trkpt lat="45.575987417571774" lon="10.790447765340268"><ele>205.0</ele><time>2026-04-26T11:09:06Z</time></trkpt><trkpt lat="45.575896153345866" lon="10.79027660446899"><ele>206.0</ele><time>2026-04-26T11:09:07Z</time></trkpt><trkpt lat="45.5758272760048" lon="10.790095409109046"><ele>207.0</ele><time>2026-04-26T11:09:08Z</time></trkpt><trkpt lat="45.575760511116414" lon="10.78992861429633"><ele>208.0</ele><time>2026-04-26T11:09:09Z</time></trkpt><trkpt lat="45.57569372246183" lon="10.789764994029035"><ele>209.0</ele><time>2026-04-26T11:09:10Z</time></trkpt><trkpt lat="45.57562830452283" lon="10.789604091221833"><ele>209.0</ele><time>2026-04-26T11:09:11Z</time></trkpt><trkpt lat="45.57555802790178" lon="10.789434638696472"><ele>209.0</ele><time>2026-04-26T11:09:12Z</time></trkpt><trkpt lat="45.57549804370053" lon="10.789262459663"><ele>209.0</ele><time>2026-04-26T11:09:13Z</time></trkpt><trkpt lat="45.57545861429503" lon="10.789092531675973"><ele>209.0</ele><time>2026-04-26T11:09:14Z</time></trkpt><trkpt lat="45.575438181170604" lon="10.788904045836775"><ele>211.5</ele><time>2026-04-26T11:09:15Z</time></trkpt><trkpt lat="45.57544248399666" lon="10.788707366322145"><ele>214.0</ele><time>2026-04-26T11:09:16Z</time></trkpt><trkpt lat="45.57544464666148" lon="10.788503316832713"><ele>216.5</ele><time>2026-04-26T11:09:17Z</time></trkpt><trkpt lat="45.57544220726925" lon="10.788285275901044"><ele>219.0</ele><time>2026-04-26T11:09:18Z</time></trkpt><trkpt lat="45.575457135154394" lon="10.788064664162292"><ele>219.0</ele><time>2026-04-26T11:09:19Z</time></trkpt><trkpt lat="45.57546868039867" lon="10.787844069162029"><ele>219.0</ele><time>2026-04-26T11:09:20Z</time></trkpt><trkpt lat="45.57548397232798" lon="10.787625265332016"><ele>219.0</ele><time>2026-04-26T11:09:21Z</time></trkpt><trkpt lat="45.575506695598165" lon="10.787432710677878"><ele>219.0</ele><time>2026-04-26T11:09:22Z</time></trkpt><trkpt lat="45.575534341554125" lon="10.787249214259502"><ele>219.0</ele><time>2026-04-26T11:09:23Z</time></trkpt><trkpt lat="45.575562479400645" lon="10.787061656128381"><ele>219.0</ele><time>2026-04-26T11:09:24Z</time></trkpt><trkpt lat="45.575589599596924" lon="10.786870557239201"><ele>219.0</ele><time>2026-04-26T11:09:25Z</time></trkpt><trkpt lat="45.57561111302841" lon="10.78669618955062"><ele>219.0</ele><time>2026-04-26T11:09:26Z</time></trkpt><trkpt lat="45.57562948120167" lon="10.786534906217984"><ele>219.0</ele><time>2026-04-26T11:09:27Z</time></trkpt><trkpt lat="45.5756409724569" lon="10.78638727946441"><ele>219.0</ele><time>2026-04-26T11:09:28Z</time></trkpt><trkpt lat="45.57564698586287" lon="10.786226806645494"><ele>219.0</ele><time>2026-04-26T11:09:29Z</time></trkpt><trkpt lat="45.57565092427149" lon="10.786041653205292"><ele>219.0</ele><time>2026-04-26T11:09:30Z</time></trkpt><trkpt lat="45.57564709847034" lon="10.785856178115337"><ele>220.25</ele><time>2026-04-26T11:09:31Z</time></trkpt><trkpt lat="45.575632846187204" lon="10.78566136839041"><ele>221.5</ele><time>2026-04-26T11:09:32Z</time></trkpt><trkpt lat="45.57560919892268" lon="10.785469921449879"><ele>222.75</ele><time>2026-04-26T11:09:33Z</time></trkpt><trkpt lat="45.57558560142862" lon="10.78527278395727"><ele>224.0</ele><time>2026-04-26T11:09:34Z</time></trkpt><trkpt lat="45.57556967941181" lon="10.785083663348674"><ele>225.75</ele><time>2026-04-26T11:09:35Z</time></trkpt><trkpt lat="45.575545961302346" lon="10.784904061032044"><ele>227.5</ele><time>2026-04-26T11:09:36Z</time></trkpt><trkpt lat="45.575515508077295" lon="10.784711392434371"><ele>229.25</ele><time>2026-04-26T11:09:37Z</time></trkpt><trkpt lat="45.57548604542828" lon="10.784520968935132"><ele>231.0</ele><time>2026-04-26T11:09:38Z</time></trkpt><trkpt lat="45.575464319114516" lon="10.78433447350659"><ele>232.75</ele><time>2026-04-26T11:09:39Z</time></trkpt><trkpt lat="45.575432322838495" lon="10.784142136529898"><ele>234.5</ele><time>2026-04-26T11:09:40Z</time></trkpt><trkpt lat="45.57539675776837" lon="10.783942795415495"><ele>236.25</ele><time>2026-04-26T11:09:41Z</time></trkpt><trkpt lat="45.57536128512282" lon="10.783752400747156"><ele>238.0</ele><time>2026-04-26T11:09:42Z</time></trkpt><trkpt lat="45.57533086038912" lon="10.78356575898978"><ele>234.25</ele><time>2026-04-26T11:09:43Z</time></trkpt><trkpt lat="45.57530694472681" lon="10.783393450499078"><ele>230.5</ele><time>2026-04-26T11:09:44Z</time></trkpt><trkpt lat="45.57531483109052" lon="10.783210745436747"><ele>226.75</ele><time>2026-04-26T11:09:45Z</time></trkpt><trkpt lat="45.575308706240136" lon="10.783023911752208"><ele>223.0</ele><time>2026-04-26T11:09:46Z</time></trkpt><trkpt lat="45.575289053022935" lon="10.7828308680579"><ele>224.0</ele><time>2026-04-26T11:09:47Z</time></trkpt><trkpt lat="45.57528832855254" lon="10.782624664236005"><ele>225.0</ele><time>2026-04-26T11:09:48Z</time></trkpt><trkpt lat="45.57527818104762" lon="10.782427345969058"><ele>226.0</ele><time>2026-04-26T11:09:49Z</time></trkpt><trkpt lat="45.57527437229102" lon="10.78222635898336"><ele>227.0</ele><time>2026-04-26T11:09:50Z</time></trkpt><trkpt lat="45.575274064782796" lon="10.782038888430844"><ele>227.0</ele><time>2026-04-26T11:09:51Z</time></trkpt><trkpt lat="45.57528352948382" lon="10.781878092607812"><ele>227.0</ele><time>2026-04-26T11:09:52Z</time></trkpt><trkpt lat="45.57531303781398" lon="10.781731075132372"><ele>227.0</ele><time>2026-04-26T11:09:53Z</time></trkpt><trkpt lat="45.57536680182576" lon="10.781591610580868"><ele>227.0</ele><time>2026-04-26T11:09:54Z</time></trkpt><trkpt lat="45.57542896350413" lon="10.781444082691504"><ele>230.5</ele><time>2026-04-26T11:09:55Z</time></trkpt><trkpt lat="45.57549774191287" lon="10.781298804258576"><ele>234.0</ele><time>2026-04-26T11:09:56Z</time></trkpt><trkpt lat="45.575576541940464" lon="10.78115581202832"><ele>237.5</ele><time>2026-04-26T11:09:57Z</time></trkpt><trkpt lat="45.5756277560006" lon="10.78098804988266"><ele>241.0</ele><time>2026-04-26T11:09:58Z</time></trkpt><trkpt lat="45.575671929547575" lon="10.78080914038386"><ele>241.0</ele><time>2026-04-26T11:09:59Z</time></trkpt><trkpt lat="45.57569190437532" lon="10.780634225681775"><ele>241.0</ele><time>2026-04-26T11:10:00Z</time></trkpt><trkpt lat="45.57570340549637" lon="10.780458514024666"><ele>241.0</ele><time>2026-04-26T11:10:01Z</time></trkpt><trkpt lat="45.57570439097655" lon="10.780279339579309"><ele>241.0</ele><time>2026-04-26T11:10:02Z</time></trkpt><trkpt lat="45.57568848302462" lon="10.780096367999388"><ele>238.75</ele><time>2026-04-26T11:10:03Z</time></trkpt><trkpt lat="45.57566243022674" lon="10.77992628797882"><ele>236.5</ele><time>2026-04-26T11:10:04Z</time></trkpt><trkpt lat="45.57561200581483" lon="10.779742323959173"><ele>234.25</ele><time>2026-04-26T11:10:05Z</time></trkpt><trkpt lat="45.575550509629295" lon="10.779583915740586"><ele>232.0</ele><time>2026-04-26T11:10:06Z</time></trkpt><trkpt lat="45.575482215728464" lon="10.779433452972095"><ele>232.25</ele><time>2026-04-26T11:10:07Z</time></trkpt><trkpt lat="45.57540171970529" lon="10.779294226184737"><ele>232.5</ele><time>2026-04-26T11:10:08Z</time></trkpt><trkpt lat="45.57531114220684" lon="10.7791621608454"><ele>232.75</ele><time>2026-04-26T11:10:09Z</time></trkpt><trkpt lat="45.575212310092205" lon="10.779020226031337"><ele>233.0</ele><time>2026-04-26T11:10:10Z</time></trkpt><trkpt lat="45.575107691625675" lon="10.778863470561017"><ele>233.0</ele><time>2026-04-26T11:10:11Z</time></trkpt><trkpt lat="45.57500667192306" lon="10.778707451204546"><ele>233.0</ele><time>2026-04-26T11:10:12Z</time></trkpt><trkpt lat="45.5749170854635" lon="10.778554461144669"><ele>233.0</ele><time>2026-04-26T11:10:13Z</time></trkpt><trkpt lat="45.57483678245335" lon="10.778403850186322"><ele>233.0</ele><time>2026-04-26T11:10:14Z</time></trkpt><trkpt lat="45.57476142433313" lon="10.778247296461169"><ele>230.25</ele><time>2026-04-26T11:10:15Z</time></trkpt><trkpt lat="45.57468763444699" lon="10.778078090031508"><ele>227.5</ele><time>2026-04-26T11:10:16Z</time></trkpt><trkpt lat="45.57461619466621" lon="10.777906989396431"><ele>224.75</ele><time>2026-04-26T11:10:17Z</time></trkpt><trkpt lat="45.574533345736285" lon="10.777715501756157"><ele>222.0</ele><time>2026-04-26T11:10:18Z</time></trkpt><trkpt lat="45.574464473262786" lon="10.777531374805095"><ele>221.25</ele><time>2026-04-26T11:10:19Z</time></trkpt><trkpt lat="45.574391010729336" lon="10.777366017459286"><ele>220.5</ele><time>2026-04-26T11:10:20Z</time></trkpt><trkpt lat="45.57432307776689" lon="10.777200748707152"><ele>219.75</ele><time>2026-04-26T11:10:21Z</time></trkpt><trkpt lat="45.57426024738415" lon="10.777042155606063"><ele>219.0</ele><time>2026-04-26T11:10:22Z</time></trkpt><trkpt lat="45.57419400876013" lon="10.776877319781388"><ele>219.25</ele><time>2026-04-26T11:10:23Z</time></trkpt><trkpt lat="45.57413111497753" lon="10.77671414712821"><ele>219.5</ele><time>2026-04-26T11:10:24Z</time></trkpt><trkpt lat="45.57405941003535" lon="10.776535389657353"><ele>219.75</ele><time>2026-04-26T11:10:25Z</time></trkpt><trkpt lat="45.57398794047792" lon="10.776349520478732"><ele>220.0</ele><time>2026-04-26T11:10:26Z</time></trkpt><trkpt lat="45.57391598395222" lon="10.776150054449966"><ele>221.0</ele><time>2026-04-26T11:10:27Z</time></trkpt><trkpt lat="45.57384825275101" lon="10.775942600840867"><ele>222.0</ele><time>2026-04-26T11:10:28Z</time></trkpt><trkpt lat="45.57378284700413" lon="10.775741315411778"><ele>223.0</ele><time>2026-04-26T11:10:29Z</time></trkpt><trkpt lat="45.573720136226534" lon="10.775552153629187"><ele>222.0</ele><time>2026-04-26T11:10:30Z</time></trkpt><trkpt lat="45.573661371288054" lon="10.77536971634771"><ele>221.0</ele><time>2026-04-26T11:10:31Z</time></trkpt><trkpt lat="45.573615252878206" lon="10.775199400532099"><ele>220.0</ele><time>2026-04-26T11:10:32Z</time></trkpt><trkpt lat="45.57357052163606" lon="10.77504001330405"><ele>219.0</ele><time>2026-04-26T11:10:33Z</time></trkpt><trkpt lat="45.57353443826624" lon="10.774876812667438"><ele>218.39999999999998</ele><time>2026-04-26T11:10:34Z</time></trkpt><trkpt lat="45.57350531372311" lon="10.774707134009448"><ele>217.79999999999998</ele><time>2026-04-26T11:10:35Z</time></trkpt><trkpt lat="45.573486230241414" lon="10.774556635790564"><ele>217.20000000000002</ele><time>2026-04-26T11:10:36Z</time></trkpt><trkpt lat="45.573476152416816" lon="10.774414785246568"><ele>216.60000000000002</ele><time>2026-04-26T11:10:37Z</time></trkpt><trkpt lat="45.573470330745394" lon="10.774296620708567"><ele>216.0</ele><time>2026-04-26T11:10:38Z</time></trkpt><trkpt lat="45.57344567315651" lon="10.774180392755651"><ele>215.4</ele><time>2026-04-26T11:10:39Z</time></trkpt><trkpt lat="45.57341248975969" lon="10.774042137933364"><ele>214.8</ele><time>2026-04-26T11:10:40Z</time></trkpt><trkpt lat="45.573409402644835" lon="10.77388360477192"><ele>214.20000000000002</ele><time>2026-04-26T11:11:25Z</time></trkpt><trkpt lat="45.57343870515204" lon="10.773792504812706"><ele>213.60000000000002</ele><time>2026-04-26T11:11:27Z</time></trkpt><trkpt lat="45.57356015519441" lon="10.773771312936736"><ele>213.0</ele><time>2026-04-26T11:11:28Z</time></trkpt><trkpt lat="45.57365245839898" lon="10.773789039061455"><ele>214.60000000000002</ele><time>2026-04-26T11:11:29Z</time></trkpt><trkpt lat="45.573749577882374" lon="10.773786808362061"><ele>216.20000000000002</ele><time>2026-04-26T11:11:30Z</time></trkpt><trkpt lat="45.57385394798507" lon="10.773783396023266"><ele>217.8</ele><time>2026-04-26T11:11:31Z</time></trkpt><trkpt lat="45.57396312672908" lon="10.773778878507382"><ele>219.4</ele><time>2026-04-26T11:11:32Z</time></trkpt><trkpt lat="45.57406798154514" lon="10.77376775805668"><ele>221.0</ele><time>2026-04-26T11:11:33Z</time></trkpt><trkpt lat="45.57417411668049" lon="10.773765042492128"><ele>221.0</ele><time>2026-04-26T11:11:34Z</time></trkpt><trkpt lat="45.57429515768489" lon="10.773768112895134"><ele>221.0</ele><time>2026-04-26T11:11:35Z</time></trkpt><trkpt lat="45.57442052336602" lon="10.773769186951121"><ele>221.0</ele><time>2026-04-26T11:11:36Z</time></trkpt><trkpt lat="45.57455538356994" lon="10.773776908842489"><ele>221.0</ele><time>2026-04-26T11:11:37Z</time></trkpt><trkpt lat="45.57468345991092" lon="10.773784694989855"><ele>219.5</ele><time>2026-04-26T11:11:38Z</time></trkpt><trkpt lat="45.57481140029363" lon="10.77379687822526"><ele>218.0</ele><time>2026-04-26T11:11:39Z</time></trkpt><trkpt lat="45.5749417262636" lon="10.773812382894489"><ele>216.5</ele><time>2026-04-26T11:11:40Z</time></trkpt><trkpt lat="45.57507790630127" lon="10.773832187130116"><ele>215.0</ele><time>2026-04-26T11:11:41Z</time></trkpt><trkpt lat="45.57521508054075" lon="10.77386069903167"><ele>215.0</ele><time>2026-04-26T11:11:42Z</time></trkpt><trkpt lat="45.57535355958971" lon="10.773902313393767"><ele>215.0</ele><time>2026-04-26T11:11:43Z</time></trkpt><trkpt lat="45.575482024709395" lon="10.773938864848791"><ele>215.0</ele><time>2026-04-26T11:11:44Z</time></trkpt><trkpt lat="45.57561186887014" lon="10.773973360511457"><ele>215.0</ele><time>2026-04-26T11:11:45Z</time></trkpt><trkpt lat="45.57575214965895" lon="10.774007122708376"><ele>214.75</ele><time>2026-04-26T11:11:46Z</time></trkpt><trkpt lat="45.57589522832726" lon="10.774040703366467"><ele>214.5</ele><time>2026-04-26T11:11:47Z</time></trkpt><trkpt lat="45.5760269468869" lon="10.774073873611606"><ele>214.25</ele><time>2026-04-26T11:11:48Z</time></trkpt><trkpt lat="45.57615693224344" lon="10.774110793645535"><ele>214.0</ele><time>2026-04-26T11:11:49Z</time></trkpt><trkpt lat="45.57628049047548" lon="10.774145405942642"><ele>215.0</ele><time>2026-04-26T11:11:50Z</time></trkpt><trkpt lat="45.576411880018746" lon="10.774172890617738"><ele>216.0</ele><time>2026-04-26T11:11:51Z</time></trkpt><trkpt lat="45.57654760383109" lon="10.774204192072656"><ele>217.0</ele><time>2026-04-26T11:11:52Z</time></trkpt><trkpt lat="45.57668640943719" lon="10.77424104388223"><ele>218.0</ele><time>2026-04-26T11:11:53Z</time></trkpt><trkpt lat="45.57683503229668" lon="10.774281609799297"><ele>218.0</ele><time>2026-04-26T11:11:54Z</time></trkpt><trkpt lat="45.57698257875401" lon="10.774320411380675"><ele>218.0</ele><time>2026-04-26T11:11:55Z</time></trkpt><trkpt lat="45.5771334580973" lon="10.77435971578666"><ele>218.0</ele><time>2026-04-26T11:11:56Z</time></trkpt><trkpt lat="45.5772824570693" lon="10.774399526186167"><ele>219.66666666666669</ele><time>2026-04-26T11:11:57Z</time></trkpt><trkpt lat="45.577439656513754" lon="10.774443304858279"><ele>221.33333333333331</ele><time>2026-04-26T11:11:58Z</time></trkpt><trkpt lat="45.577580297960466" lon="10.774486443161164"><ele>223.0</ele><time>2026-04-26T11:11:59Z</time></trkpt><trkpt lat="45.57772823602436" lon="10.77452640349602"><ele>223.0</ele><time>2026-04-26T11:12:00Z</time></trkpt><trkpt lat="45.57787362316286" lon="10.774562353013948"><ele>223.0</ele><time>2026-04-26T11:12:01Z</time></trkpt><trkpt lat="45.578018911827954" lon="10.774597880459275"><ele>223.0</ele><time>2026-04-26T11:12:02Z</time></trkpt><trkpt lat="45.578161882909306" lon="10.774641372237818"><ele>223.0</ele><time>2026-04-26T11:12:03Z</time></trkpt><trkpt lat="45.578301288666644" lon="10.77468529576316"><ele>223.0</ele><time>2026-04-26T11:12:04Z</time></trkpt><trkpt lat="45.5784408649176" lon="10.774724076343297"><ele>223.0</ele><time>2026-04-26T11:12:05Z</time></trkpt><trkpt lat="45.578582356248646" lon="10.77476524513278"><ele>223.0</ele><time>2026-04-26T11:12:06Z</time></trkpt><trkpt lat="45.578724559243724" lon="10.774803807377255"><ele>223.0</ele><time>2026-04-26T11:12:07Z</time></trkpt><trkpt lat="45.57886460171096" lon="10.774844354298038"><ele>223.25</ele><time>2026-04-26T11:12:08Z</time></trkpt><trkpt lat="45.57901143073663" lon="10.774881371549618"><ele>223.5</ele><time>2026-04-26T11:12:09Z</time></trkpt><trkpt lat="45.579157869012036" lon="10.774916992518007"><ele>223.75</ele><time>2026-04-26T11:12:10Z</time></trkpt><trkpt lat="45.57930568076702" lon="10.774955530451503"><ele>224.0</ele><time>2026-04-26T11:12:11Z</time></trkpt><trkpt lat="45.579450504796846" lon="10.775002445222162"><ele>224.33333333333334</ele><time>2026-04-26T11:12:12Z</time></trkpt><trkpt lat="45.57960067390656" lon="10.775048415647213"><ele>224.66666666666669</ele><time>2026-04-26T11:12:13Z</time></trkpt><trkpt lat="45.579748862570895" lon="10.775089120874217"><ele>225.0</ele><time>2026-04-26T11:12:14Z</time></trkpt><trkpt lat="45.579899897373814" lon="10.775128774011456"><ele>225.0</ele><time>2026-04-26T11:12:15Z</time></trkpt><trkpt lat="45.580053919771586" lon="10.775172299375319"><ele>225.0</ele><time>2026-04-26T11:12:16Z</time></trkpt><trkpt lat="45.580197962656904" lon="10.775209458486371"><ele>225.0</ele><time>2026-04-26T11:12:17Z</time></trkpt><trkpt lat="45.58032734259509" lon="10.77524746108857"><ele>225.0</ele><time>2026-04-26T11:12:18Z</time></trkpt><trkpt lat="45.580464873939135" lon="10.775280343399615"><ele>226.0</ele><time>2026-04-26T11:12:19Z</time></trkpt><trkpt lat="45.58060111271887" lon="10.775320215947879"><ele>227.0</ele><time>2026-04-26T11:12:20Z</time></trkpt><trkpt lat="45.58074401533568" lon="10.77536021771767"><ele>228.0</ele><time>2026-04-26T11:12:21Z</time></trkpt><trkpt lat="45.580869932916535" lon="10.775399198464187"><ele>229.0</ele><time>2026-04-26T11:12:22Z</time></trkpt><trkpt lat="45.58099398180431" lon="10.775432511587514"><ele>229.0</ele><time>2026-04-26T11:12:23Z</time></trkpt><trkpt lat="45.58111754320922" lon="10.775469695814571"><ele>229.0</ele><time>2026-04-26T11:12:24Z</time></trkpt><trkpt lat="45.581247479393724" lon="10.775503367224427"><ele>229.0</ele><time>2026-04-26T11:12:25Z</time></trkpt><trkpt lat="45.58137647125886" lon="10.775539045713877"><ele>229.0</ele><time>2026-04-26T11:12:26Z</time></trkpt><trkpt lat="45.58150515841625" lon="10.77557390185111"><ele>229.5</ele><time>2026-04-26T11:12:27Z</time></trkpt><trkpt lat="45.58162595253422" lon="10.775600022209124"><ele>230.0</ele><time>2026-04-26T11:12:28Z</time></trkpt><trkpt lat="45.58174446235705" lon="10.775628325780119"><ele>230.5</ele><time>2026-04-26T11:12:29Z</time></trkpt><trkpt lat="45.581849401828315" lon="10.775658399330542"><ele>231.0</ele><time>2026-04-26T11:12:30Z</time></trkpt><trkpt lat="45.58194809625547" lon="10.775691421708839"><ele>230.8</ele><time>2026-04-26T11:12:31Z</time></trkpt><trkpt lat="45.58204364991024" lon="10.775761640130511"><ele>230.60000000000002</ele><time>2026-04-26T11:12:32Z</time></trkpt><trkpt lat="45.582130993228894" lon="10.775814606417368"><ele>230.4</ele><time>2026-04-26T11:12:33Z</time></trkpt><trkpt lat="45.582196284187795" lon="10.775864074194883"><ele>230.2</ele><time>2026-04-26T11:12:34Z</time></trkpt><trkpt lat="45.58228936310843" lon="10.775941589859473"><ele>230.0</ele><time>2026-04-26T11:12:36Z</time></trkpt><trkpt lat="45.582407420001125" lon="10.775713607544024"><ele>230.0</ele><time>2026-04-26T11:12:39Z</time></trkpt><trkpt lat="45.582411821237486" lon="10.775589219865825"><ele>230.0</ele><time>2026-04-26T11:12:40Z</time></trkpt><trkpt lat="45.582417960594334" lon="10.775440700389069"><ele>230.0</ele><time>2026-04-26T11:12:41Z</time></trkpt><trkpt lat="45.58241971489372" lon="10.77530098935135"><ele>230.0</ele><time>2026-04-26T11:12:42Z</time></trkpt><trkpt lat="45.58243148401714" lon="10.77515366228122"><ele>230.0</ele><time>2026-04-26T11:12:43Z</time></trkpt><trkpt lat="45.58245046287218" lon="10.77499284249882"><ele>229.5</ele><time>2026-04-26T11:12:44Z</time></trkpt><trkpt lat="45.58246757984143" lon="10.774842296830927"><ele>229.0</ele><time>2026-04-26T11:12:45Z</time></trkpt><trkpt lat="45.582479781959115" lon="10.774676855748794"><ele>228.5</ele><time>2026-04-26T11:12:46Z</time></trkpt><trkpt lat="45.58249847149865" lon="10.774492721319453"><ele>228.0</ele><time>2026-04-26T11:12:47Z</time></trkpt><trkpt lat="45.58252320796752" lon="10.774321334022718"><ele>227.75</ele><time>2026-04-26T11:12:48Z</time></trkpt><trkpt lat="45.582552940838" lon="10.774138909729059"><ele>227.5</ele><time>2026-04-26T11:12:49Z</time></trkpt><trkpt lat="45.582600132747864" lon="10.77397604744288"><ele>227.25</ele><time>2026-04-26T11:12:50Z</time></trkpt><trkpt lat="45.58265822552865" lon="10.773817373978487"><ele>227.0</ele><time>2026-04-26T11:12:51Z</time></trkpt><trkpt lat="45.582729231420586" lon="10.77367950375817"><ele>227.0</ele><time>2026-04-26T11:12:52Z</time></trkpt><trkpt lat="45.58281449893707" lon="10.773552303562768"><ele>227.0</ele><time>2026-04-26T11:12:53Z</time></trkpt><trkpt lat="45.58291210821785" lon="10.773425922913294"><ele>227.0</ele><time>2026-04-26T11:12:54Z</time></trkpt><trkpt lat="45.58301600033671" lon="10.773288866530747"><ele>227.0</ele><time>2026-04-26T11:12:55Z</time></trkpt><trkpt lat="45.5831159657736" lon="10.773161837277199"><ele>226.5</ele><time>2026-04-26T11:12:56Z</time></trkpt><trkpt lat="45.5832034353683" lon="10.773035662521753"><ele>226.0</ele><time>2026-04-26T11:12:57Z</time></trkpt><trkpt lat="45.58328370617759" lon="10.772908213283122"><ele>225.5</ele><time>2026-04-26T11:12:58Z</time></trkpt><trkpt lat="45.58336439438162" lon="10.77276537925405"><ele>225.0</ele><time>2026-04-26T11:12:59Z</time></trkpt><trkpt lat="45.58344162280073" lon="10.77260287349352"><ele>224.5</ele><time>2026-04-26T11:13:00Z</time></trkpt><trkpt lat="45.58349959961288" lon="10.772449458306452"><ele>224.0</ele><time>2026-04-26T11:13:01Z</time></trkpt><trkpt lat="45.58354730490304" lon="10.772295164836656"><ele>223.5</ele><time>2026-04-26T11:13:02Z</time></trkpt><trkpt lat="45.5835847381265" lon="10.77212395967815"><ele>223.0</ele><time>2026-04-26T11:13:03Z</time></trkpt><trkpt lat="45.583602230854595" lon="10.771938696158472"><ele>222.25</ele><time>2026-04-26T11:13:04Z</time></trkpt><trkpt lat="45.583617510296484" lon="10.771735448845199"><ele>221.5</ele><time>2026-04-26T11:13:05Z</time></trkpt><trkpt lat="45.58362865291929" lon="10.77153445436695"><ele>220.75</ele><time>2026-04-26T11:13:06Z</time></trkpt><trkpt lat="45.58364320735819" lon="10.771331733106013"><ele>220.0</ele><time>2026-04-26T11:13:07Z</time></trkpt><trkpt lat="45.58365106460414" lon="10.771130142119826"><ele>219.75</ele><time>2026-04-26T11:13:08Z</time></trkpt><trkpt lat="45.58365928955133" lon="10.770928463600177"><ele>219.5</ele><time>2026-04-26T11:13:09Z</time></trkpt><trkpt lat="45.58366993539082" lon="10.770732913369125"><ele>219.25</ele><time>2026-04-26T11:13:10Z</time></trkpt><trkpt lat="45.58368255430615" lon="10.770528062841594"><ele>219.0</ele><time>2026-04-26T11:13:11Z</time></trkpt><trkpt lat="45.58370071341335" lon="10.770312460744522"><ele>219.0</ele><time>2026-04-26T11:13:12Z</time></trkpt><trkpt lat="45.583726649830936" lon="10.770104699126511"><ele>219.0</ele><time>2026-04-26T11:13:13Z</time></trkpt><trkpt lat="45.583756968447766" lon="10.769892529203368"><ele>219.0</ele><time>2026-04-26T11:13:14Z</time></trkpt><trkpt lat="45.58379109091859" lon="10.769679584611309"><ele>219.0</ele><time>2026-04-26T11:13:15Z</time></trkpt><trkpt lat="45.58382755832156" lon="10.769449139667808"><ele>219.0</ele><time>2026-04-26T11:13:16Z</time></trkpt><trkpt lat="45.583853227092604" lon="10.76924014729388"><ele>219.0</ele><time>2026-04-26T11:13:17Z</time></trkpt><trkpt lat="45.58387147035342" lon="10.769056135539637"><ele>219.0</ele><time>2026-04-26T11:13:18Z</time></trkpt><trkpt lat="45.58388152952807" lon="10.768871272639505"><ele>218.25</ele><time>2026-04-26T11:13:19Z</time></trkpt><trkpt lat="45.58388751541932" lon="10.768683444622885"><ele>217.5</ele><time>2026-04-26T11:13:20Z</time></trkpt><trkpt lat="45.58389373552319" lon="10.768496644193364"><ele>216.75</ele><time>2026-04-26T11:13:21Z</time></trkpt><trkpt lat="45.58390616538335" lon="10.768311438882053"><ele>216.0</ele><time>2026-04-26T11:13:22Z</time></trkpt><trkpt lat="45.58392181383173" lon="10.76813812537982"><ele>215.5</ele><time>2026-04-26T11:13:23Z</time></trkpt><trkpt lat="45.58394837922438" lon="10.767967938782954"><ele>215.0</ele><time>2026-04-26T11:13:24Z</time></trkpt><trkpt lat="45.58400026773255" lon="10.767778033917844"><ele>214.5</ele><time>2026-04-26T11:13:25Z</time></trkpt><trkpt lat="45.58402782003032" lon="10.767598360885144"><ele>214.0</ele><time>2026-04-26T11:13:26Z</time></trkpt><trkpt lat="45.58407006900534" lon="10.767441775989719"><ele>214.0</ele><time>2026-04-26T11:13:27Z</time></trkpt><trkpt lat="45.5841329220807" lon="10.767319102669056"><ele>213.99999999999997</ele><time>2026-04-26T11:13:28Z</time></trkpt><trkpt lat="45.58419544125567" lon="10.767207112685778"><ele>213.99999999999997</ele><time>2026-04-26T11:13:29Z</time></trkpt><trkpt lat="45.584282772239746" lon="10.767128886246102"><ele>214.0</ele><time>2026-04-26T11:13:30Z</time></trkpt><trkpt lat="45.58436637268081" lon="10.767036555020914"><ele>214.0</ele><time>2026-04-26T11:13:31Z</time></trkpt><trkpt lat="45.58445936513566" lon="10.76690720631689"><ele>214.0</ele><time>2026-04-26T11:13:32Z</time></trkpt><trkpt lat="45.584544089220344" lon="10.766800288342058"><ele>214.0</ele><time>2026-04-26T11:13:33Z</time></trkpt><trkpt lat="45.58463309282572" lon="10.766668315805214"><ele>214.0</ele><time>2026-04-26T11:13:34Z</time></trkpt><trkpt lat="45.58471951807954" lon="10.7665202364055"><ele>214.0</ele><time>2026-04-26T11:13:35Z</time></trkpt><trkpt lat="45.584795680909416" lon="10.766387906948701"><ele>214.0</ele><time>2026-04-26T11:13:36Z</time></trkpt><trkpt lat="45.58487218943432" lon="10.766250916599214"><ele>214.0</ele><time>2026-04-26T11:13:37Z</time></trkpt><trkpt lat="45.58495826760607" lon="10.766101284763517"><ele>214.0</ele><time>2026-04-26T11:13:38Z</time></trkpt><trkpt lat="45.585040876086175" lon="10.765951934979986"><ele>214.0</ele><time>2026-04-26T11:13:39Z</time></trkpt><trkpt lat="45.585123751550526" lon="10.765800305754416"><ele>213.75</ele><time>2026-04-26T11:13:40Z</time></trkpt><trkpt lat="45.585208744469135" lon="10.765647906756467"><ele>213.5</ele><time>2026-04-26T11:13:41Z</time></trkpt><trkpt lat="45.585278920492016" lon="10.765513328507328"><ele>213.25</ele><time>2026-04-26T11:13:42Z</time></trkpt><trkpt lat="45.58535144910797" lon="10.765383725075925"><ele>213.0</ele><time>2026-04-26T11:13:43Z</time></trkpt><trkpt lat="45.5854215062084" lon="10.765253807105958"><ele>213.0</ele><time>2026-04-26T11:13:44Z</time></trkpt><trkpt lat="45.58549503071993" lon="10.765113096231063"><ele>213.0</ele><time>2026-04-26T11:13:45Z</time></trkpt><trkpt lat="45.58556840861063" lon="10.76496818937221"><ele>213.0</ele><time>2026-04-26T11:13:46Z</time></trkpt><trkpt lat="45.58563780009461" lon="10.764816383001774"><ele>213.0</ele><time>2026-04-26T11:13:47Z</time></trkpt><trkpt lat="45.58570192551142" lon="10.76467080898325"><ele>213.0</ele><time>2026-04-26T11:13:48Z</time></trkpt><trkpt lat="45.585764596817825" lon="10.764532970988949"><ele>213.0</ele><time>2026-04-26T11:13:49Z</time></trkpt><trkpt lat="45.58583667604726" lon="10.764389634105887"><ele>213.0</ele><time>2026-04-26T11:13:50Z</time></trkpt><trkpt lat="45.58591604471953" lon="10.764253949569113"><ele>213.0</ele><time>2026-04-26T11:13:51Z</time></trkpt><trkpt lat="45.586007256761924" lon="10.764138454298557"><ele>212.75</ele><time>2026-04-26T11:13:52Z</time></trkpt><trkpt lat="45.58608698475054" lon="10.764015289249489"><ele>212.5</ele><time>2026-04-26T11:13:53Z</time></trkpt><trkpt lat="45.58615881270382" lon="10.763885693892638"><ele>212.25</ele><time>2026-04-26T11:13:54Z</time></trkpt><trkpt lat="45.586246416777556" lon="10.763754134880871"><ele>212.0</ele><time>2026-04-26T11:13:55Z</time></trkpt><trkpt lat="45.58633994041491" lon="10.763638395423275"><ele>211.75</ele><time>2026-04-26T11:13:56Z</time></trkpt><trkpt lat="45.586447525275375" lon="10.763521517955077"><ele>211.5</ele><time>2026-04-26T11:13:57Z</time></trkpt><trkpt lat="45.58654027659194" lon="10.76342301741668"><ele>211.25</ele><time>2026-04-26T11:13:58Z</time></trkpt><trkpt lat="45.58663590575768" lon="10.763328949600659"><ele>211.0</ele><time>2026-04-26T11:13:59Z</time></trkpt><trkpt lat="45.58672547482915" lon="10.76324936129197"><ele>211.0</ele><time>2026-04-26T11:14:00Z</time></trkpt><trkpt lat="45.586816345707724" lon="10.763158568526167"><ele>211.0</ele><time>2026-04-26T11:14:01Z</time></trkpt><trkpt lat="45.5868925050854" lon="10.763076359417292"><ele>211.0</ele><time>2026-04-26T11:14:02Z</time></trkpt><trkpt lat="45.58695046541184" lon="10.762996818292613"><ele>211.0</ele><time>2026-04-26T11:14:03Z</time></trkpt><trkpt lat="45.587005498477495" lon="10.762914365685125"><ele>211.0</ele><time>2026-04-26T11:14:04Z</time></trkpt><trkpt lat="45.58706946759071" lon="10.762820712455996"><ele>211.20000000000002</ele><time>2026-04-26T11:14:05Z</time></trkpt><trkpt lat="45.5871189889109" lon="10.76273552662234"><ele>211.4</ele><time>2026-04-26T11:14:06Z</time></trkpt><trkpt lat="45.58718207319899" lon="10.76262141785871"><ele>211.6</ele><time>2026-04-26T11:14:07Z</time></trkpt><trkpt lat="45.58725375835523" lon="10.762494109137245"><ele>211.8</ele><time>2026-04-26T11:14:08Z</time></trkpt><trkpt lat="45.58732440861162" lon="10.762346887415726"><ele>212.0</ele><time>2026-04-26T11:14:09Z</time></trkpt><trkpt lat="45.587384433513755" lon="10.762190352696898"><ele>212.0</ele><time>2026-04-26T11:14:10Z</time></trkpt><trkpt lat="45.58743356022709" lon="10.762016534026463"><ele>212.0</ele><time>2026-04-26T11:14:11Z</time></trkpt><trkpt lat="45.587472385980035" lon="10.761836352593345"><ele>212.0</ele><time>2026-04-26T11:14:12Z</time></trkpt><trkpt lat="45.58750225542876" lon="10.761657030168243"><ele>212.0</ele><time>2026-04-26T11:14:13Z</time></trkpt><trkpt lat="45.58752076393476" lon="10.761474329388564"><ele>211.75</ele><time>2026-04-26T11:14:14Z</time></trkpt><trkpt lat="45.58752538005556" lon="10.76127430134451"><ele>211.5</ele><time>2026-04-26T11:14:15Z</time></trkpt><trkpt lat="45.58753495764829" lon="10.761062424449683"><ele>211.25</ele><time>2026-04-26T11:14:16Z</time></trkpt><trkpt lat="45.58754206343016" lon="10.7608734359783"><ele>211.0</ele><time>2026-04-26T11:14:17Z</time></trkpt><trkpt lat="45.587542909339305" lon="10.760680555533384"><ele>210.75</ele><time>2026-04-26T11:14:18Z</time></trkpt><trkpt lat="45.587543666433355" lon="10.760483774868089"><ele>210.5</ele><time>2026-04-26T11:14:19Z</time></trkpt><trkpt lat="45.5875451306893" lon="10.76029517229608"><ele>210.25</ele><time>2026-04-26T11:14:20Z</time></trkpt><trkpt lat="45.587545634236534" lon="10.760112397992968"><ele>210.0</ele><time>2026-04-26T11:14:21Z</time></trkpt><trkpt lat="45.58754437610838" lon="10.7599425990145"><ele>210.0</ele><time>2026-04-26T11:14:22Z</time></trkpt><trkpt lat="45.58754531586748" lon="10.759781848396438"><ele>210.0</ele><time>2026-04-26T11:14:23Z</time></trkpt><trkpt lat="45.58755009431967" lon="10.759613973702812"><ele>210.0</ele><time>2026-04-26T11:14:24Z</time></trkpt><trkpt lat="45.58755354347164" lon="10.759442929907713"><ele>210.0</ele><time>2026-04-26T11:14:25Z</time></trkpt><trkpt lat="45.58755646719814" lon="10.759272725219882"><ele>210.0</ele><time>2026-04-26T11:14:26Z</time></trkpt><trkpt lat="45.587561906900895" lon="10.75909962060933"><ele>210.0</ele><time>2026-04-26T11:14:27Z</time></trkpt><trkpt lat="45.58757116808772" lon="10.7589482247128"><ele>210.0</ele><time>2026-04-26T11:14:28Z</time></trkpt><trkpt lat="45.58758282564041" lon="10.75882645359"><ele>210.0</ele><time>2026-04-26T11:14:29Z</time></trkpt><trkpt lat="45.58761226619551" lon="10.758743256111822"><ele>210.0</ele><time>2026-04-26T11:14:30Z</time></trkpt><trkpt lat="45.587642363352" lon="10.758629921560399"><ele>210.25</ele><time>2026-04-26T11:14:32Z</time></trkpt><trkpt lat="45.58764686192835" lon="10.758497455778857"><ele>210.5</ele><time>2026-04-26T11:14:35Z</time></trkpt><trkpt lat="45.5874063730432" lon="10.758337909861973"><ele>210.75</ele><time>2026-04-26T11:14:36Z</time></trkpt><trkpt lat="45.587335286185855" lon="10.758294304664547"><ele>211.0</ele><time>2026-04-26T11:14:37Z</time></trkpt><trkpt lat="45.5872385136759" lon="10.758255916281655"><ele>211.0</ele><time>2026-04-26T11:14:38Z</time></trkpt><trkpt lat="45.587148990018775" lon="10.75823725296104"><ele>211.0</ele><time>2026-04-26T11:14:39Z</time></trkpt><trkpt lat="45.58701177541527" lon="10.7582038452685"><ele>211.0</ele><time>2026-04-26T11:14:40Z</time></trkpt><trkpt lat="45.586894776196054" lon="10.758171121550117"><ele>211.0</ele><time>2026-04-26T11:14:41Z</time></trkpt><trkpt lat="45.586786321258735" lon="10.758150306498358"><ele>210.75</ele><time>2026-04-26T11:14:42Z</time></trkpt><trkpt lat="45.58666672331248" lon="10.758130856618703"><ele>210.5</ele><time>2026-04-26T11:14:43Z</time></trkpt><trkpt lat="45.58654222662749" lon="10.75809493954495"><ele>210.25</ele><time>2026-04-26T11:14:44Z</time></trkpt><trkpt lat="45.586401068822504" lon="10.75805153819069"><ele>210.0</ele><time>2026-04-26T11:14:45Z</time></trkpt><trkpt lat="45.58625339843731" lon="10.75801769828015"><ele>210.0</ele><time>2026-04-26T11:14:46Z</time></trkpt><trkpt lat="45.586109863475244" lon="10.757980071699771"><ele>210.0</ele><time>2026-04-26T11:14:47Z</time></trkpt><trkpt lat="45.58598040056759" lon="10.757949116976768"><ele>210.0</ele><time>2026-04-26T11:14:48Z</time></trkpt><trkpt lat="45.585865822553004" lon="10.757915584678859"><ele>210.0</ele><time>2026-04-26T11:14:49Z</time></trkpt><trkpt lat="45.585760073045975" lon="10.757871789565641"><ele>210.0</ele><time>2026-04-26T11:14:50Z</time></trkpt><trkpt lat="45.58565559569421" lon="10.75778737365639"><ele>210.0</ele><time>2026-04-26T11:14:51Z</time></trkpt><trkpt lat="45.585549088424706" lon="10.757671085783233"><ele>210.0</ele><time>2026-04-26T11:14:52Z</time></trkpt><trkpt lat="45.58545081484718" lon="10.757578324039079"><ele>210.0</ele><time>2026-04-26T11:14:53Z</time></trkpt><trkpt lat="45.58536144282297" lon="10.757513503787367"><ele>209.83333333333334</ele><time>2026-04-26T11:14:54Z</time></trkpt><trkpt lat="45.585274605118535" lon="10.757461993810853"><ele>209.66666666666669</ele><time>2026-04-26T11:14:55Z</time></trkpt><trkpt lat="45.58519306699672" lon="10.75742746430314"><ele>209.5</ele><time>2026-04-26T11:14:56Z</time></trkpt><trkpt lat="45.58509125601665" lon="10.757396788716663"><ele>209.33333333333334</ele><time>2026-04-26T11:14:57Z</time></trkpt><trkpt lat="45.58501280491753" lon="10.757368153581977"><ele>209.16666666666669</ele><time>2026-04-26T11:14:58Z</time></trkpt><trkpt lat="45.58494783215555" lon="10.757313956995088"><ele>209.0</ele><time>2026-04-26T11:14:59Z</time></trkpt><trkpt lat="45.58486117208573" lon="10.757213522788977"><ele>209.0</ele><time>2026-04-26T11:15:00Z</time></trkpt><trkpt lat="45.584769993503855" lon="10.757105568210555"><ele>209.0</ele><time>2026-04-26T11:15:01Z</time></trkpt><trkpt lat="45.584675983222475" lon="10.756989212891462"><ele>209.0</ele><time>2026-04-26T11:15:02Z</time></trkpt><trkpt lat="45.58459525040436" lon="10.756870591576204"><ele>209.0</ele><time>2026-04-26T11:15:03Z</time></trkpt><trkpt lat="45.58453047510327" lon="10.756759436424439"><ele>209.2</ele><time>2026-04-26T11:15:04Z</time></trkpt><trkpt lat="45.58446005373304" lon="10.756629183588434"><ele>209.39999999999998</ele><time>2026-04-26T11:15:05Z</time></trkpt><trkpt lat="45.584386613417145" lon="10.756511576352995"><ele>209.6</ele><time>2026-04-26T11:15:06Z</time></trkpt><trkpt lat="45.58430881721837" lon="10.75639671634288"><ele>209.8</ele><time>2026-04-26T11:15:07Z</time></trkpt><trkpt lat="45.58424152615823" lon="10.756285839562647"><ele>210.0</ele><time>2026-04-26T11:15:08Z</time></trkpt><trkpt lat="45.584174598729675" lon="10.756175829535296"><ele>210.0</ele><time>2026-04-26T11:15:09Z</time></trkpt><trkpt lat="45.58409727008343" lon="10.756041211016573"><ele>210.0</ele><time>2026-04-26T11:15:10Z</time></trkpt><trkpt lat="45.584008275016615" lon="10.755891397646982"><ele>210.0</ele><time>2026-04-26T11:15:11Z</time></trkpt><trkpt lat="45.58393176395987" lon="10.755763590903653"><ele>210.0</ele><time>2026-04-26T11:15:12Z</time></trkpt><trkpt lat="45.583865954622844" lon="10.755642475025448"><ele>210.0</ele><time>2026-04-26T11:15:13Z</time></trkpt><trkpt lat="45.58381331841174" lon="10.755526807211778"><ele>210.0</ele><time>2026-04-26T11:15:14Z</time></trkpt><trkpt lat="45.58377012434793" lon="10.75541120610804"><ele>210.0</ele><time>2026-04-26T11:15:15Z</time></trkpt><trkpt lat="45.58373246509631" lon="10.755303328477325"><ele>210.0</ele><time>2026-04-26T11:15:16Z</time></trkpt><trkpt lat="45.58369295442136" lon="10.755180677876995"><ele>210.0</ele><time>2026-04-26T11:15:17Z</time></trkpt><trkpt lat="45.583646007560546" lon="10.755062179638216"><ele>210.0</ele><time>2026-04-26T11:15:18Z</time></trkpt><trkpt lat="45.58361701464626" lon="10.754981624949835"><ele>210.0</ele><time>2026-04-26T11:15:19Z</time></trkpt><trkpt lat="45.583587039464255" lon="10.754897934082612"><ele>210.0</ele><time>2026-04-26T11:15:20Z</time></trkpt><trkpt lat="45.583523573723745" lon="10.754761269862806"><ele>210.0</ele><time>2026-04-26T11:15:21Z</time></trkpt><trkpt lat="45.583450751998676" lon="10.754619925645562"><ele>210.0</ele><time>2026-04-26T11:15:22Z</time></trkpt><trkpt lat="45.58337474629722" lon="10.754483714531759"><ele>209.5</ele><time>2026-04-26T11:15:23Z</time></trkpt><trkpt lat="45.58329588092053" lon="10.754341464906169"><ele>209.0</ele><time>2026-04-26T11:15:24Z</time></trkpt><trkpt lat="45.5832099915811" lon="10.754187835908386"><ele>208.5</ele><time>2026-04-26T11:15:25Z</time></trkpt><trkpt lat="45.583119899723705" lon="10.754028358420381"><ele>208.0</ele><time>2026-04-26T11:15:26Z</time></trkpt><trkpt lat="45.58304219707785" lon="10.75388852702495"><ele>208.0</ele><time>2026-04-26T11:15:27Z</time></trkpt><trkpt lat="45.58297030006216" lon="10.753767780537395"><ele>208.0</ele><time>2026-04-26T11:15:28Z</time></trkpt><trkpt lat="45.58289900879416" lon="10.75363701639036"><ele>208.0</ele><time>2026-04-26T11:15:29Z</time></trkpt><trkpt lat="45.58283140875209" lon="10.753506850052478"><ele>208.0</ele><time>2026-04-26T11:15:30Z</time></trkpt><trkpt lat="45.58275722303153" lon="10.753370206546174"><ele>208.33333333333331</ele><time>2026-04-26T11:15:31Z</time></trkpt><trkpt lat="45.58269287412194" lon="10.753253432920234"><ele>208.66666666666666</ele><time>2026-04-26T11:15:32Z</time></trkpt><trkpt lat="45.58263807195042" lon="10.753150692022208"><ele>209.0</ele><time>2026-04-26T11:15:33Z</time></trkpt><trkpt lat="45.58259258667518" lon="10.75304930019489"><ele>209.33333333333331</ele><time>2026-04-26T11:15:34Z</time></trkpt><trkpt lat="45.582554674805024" lon="10.752941138913155"><ele>209.66666666666666</ele><time>2026-04-26T11:15:36Z</time></trkpt><trkpt lat="45.58251337621027" lon="10.752857726063203"><ele>210.0</ele><time>2026-04-26T11:15:40Z</time></trkpt><trkpt lat="45.582654569647495" lon="10.752692327255835"><ele>210.0</ele><time>2026-04-26T11:15:41Z</time></trkpt><trkpt lat="45.58273577002482" lon="10.752620535531701"><ele>210.0</ele><time>2026-04-26T11:15:42Z</time></trkpt><trkpt lat="45.58282725109803" lon="10.752543564646347"><ele>210.0</ele><time>2026-04-26T11:15:43Z</time></trkpt><trkpt lat="45.58292993044061" lon="10.752451638673906"><ele>210.0</ele><time>2026-04-26T11:15:44Z</time></trkpt><trkpt lat="45.58303351294922" lon="10.752358922400548"><ele>210.0</ele><time>2026-04-26T11:15:45Z</time></trkpt><trkpt lat="45.58313404137966" lon="10.75226058781439"><ele>211.0</ele><time>2026-04-26T11:15:46Z</time></trkpt><trkpt lat="45.583232932561586" lon="10.752163562113335"><ele>212.0</ele><time>2026-04-26T11:15:47Z</time></trkpt><trkpt lat="45.58333626402108" lon="10.752065825295238"><ele>213.0</ele><time>2026-04-26T11:15:48Z</time></trkpt><trkpt lat="45.58344043087378" lon="10.751956028466662"><ele>214.0</ele><time>2026-04-26T11:15:49Z</time></trkpt><trkpt lat="45.58354454622867" lon="10.751842988598812"><ele>214.25</ele><time>2026-04-26T11:15:50Z</time></trkpt><trkpt lat="45.58364636302149" lon="10.751737267636312"><ele>214.5</ele><time>2026-04-26T11:15:51Z</time></trkpt><trkpt lat="45.583756400062065" lon="10.751632774797335"><ele>214.75</ele><time>2026-04-26T11:15:52Z</time></trkpt><trkpt lat="45.583861877410044" lon="10.751533073390247"><ele>215.0</ele><time>2026-04-26T11:15:53Z</time></trkpt><trkpt lat="45.58397435643286" lon="10.751419972180969"><ele>216.0</ele><time>2026-04-26T11:15:54Z</time></trkpt><trkpt lat="45.58409021097604" lon="10.751298591216512"><ele>217.0</ele><time>2026-04-26T11:15:55Z</time></trkpt><trkpt lat="45.584199572517065" lon="10.751179661028438"><ele>218.0</ele><time>2026-04-26T11:15:56Z</time></trkpt><trkpt lat="45.58430431196801" lon="10.751046835805093"><ele>219.0</ele><time>2026-04-26T11:15:57Z</time></trkpt><trkpt lat="45.58441238189674" lon="10.750903739073514"><ele>219.25</ele><time>2026-04-26T11:15:58Z</time></trkpt><trkpt lat="45.584503728877365" lon="10.750777857769167"><ele>219.5</ele><time>2026-04-26T11:15:59Z</time></trkpt><trkpt lat="45.58459412728538" lon="10.750654235445827"><ele>219.75</ele><time>2026-04-26T11:16:00Z</time></trkpt><trkpt lat="45.58468959914801" lon="10.750531230757398"><ele>220.0</ele><time>2026-04-26T11:16:01Z</time></trkpt><trkpt lat="45.584785017660174" lon="10.750395237602373"><ele>220.0</ele><time>2026-04-26T11:16:02Z</time></trkpt><trkpt lat="45.58488242913948" lon="10.750258647595606"><ele>220.0</ele><time>2026-04-26T11:16:03Z</time></trkpt><trkpt lat="45.58498125940315" lon="10.750121284203745"><ele>220.0</ele><time>2026-04-26T11:16:04Z</time></trkpt><trkpt lat="45.58508222660065" lon="10.749979247283642"><ele>220.0</ele><time>2026-04-26T11:16:05Z</time></trkpt><trkpt lat="45.58518448263193" lon="10.749833584752466"><ele>220.0</ele><time>2026-04-26T11:16:06Z</time></trkpt><trkpt lat="45.58528747011605" lon="10.7496887059305"><ele>220.0</ele><time>2026-04-26T11:16:07Z</time></trkpt><trkpt lat="45.58539508625733" lon="10.74954560218103"><ele>220.0</ele><time>2026-04-26T11:16:08Z</time></trkpt><trkpt lat="45.58550467967994" lon="10.749407750311567"><ele>220.0</ele><time>2026-04-26T11:16:09Z</time></trkpt><trkpt lat="45.585610761698625" lon="10.749278011775523"><ele>220.25</ele><time>2026-04-26T11:16:10Z</time></trkpt><trkpt lat="45.585726163609756" lon="10.749150112185282"><ele>220.5</ele><time>2026-04-26T11:16:11Z</time></trkpt><trkpt lat="45.58583557820908" lon="10.74903445277798"><ele>220.75</ele><time>2026-04-26T11:16:12Z</time></trkpt><trkpt lat="45.58594468704387" lon="10.748922149083695"><ele>221.0</ele><time>2026-04-26T11:16:13Z</time></trkpt><trkpt lat="45.586047376926814" lon="10.748811463798408"><ele>221.0</ele><time>2026-04-26T11:16:14Z</time></trkpt><trkpt lat="45.58615592744636" lon="10.74870422198807"><ele>221.0</ele><time>2026-04-26T11:16:15Z</time></trkpt><trkpt lat="45.58626690804878" lon="10.748596374901805"><ele>221.0</ele><time>2026-04-26T11:16:16Z</time></trkpt><trkpt lat="45.58637473665341" lon="10.748493671277485"><ele>221.0</ele><time>2026-04-26T11:16:17Z</time></trkpt><trkpt lat="45.586485124517665" lon="10.748397123229081"><ele>221.33333333333334</ele><time>2026-04-26T11:16:18Z</time></trkpt><trkpt lat="45.586585317748366" lon="10.748315658532105"><ele>221.66666666666669</ele><time>2026-04-26T11:16:19Z</time></trkpt><trkpt lat="45.58667027679133" lon="10.748258396684815"><ele>222.0</ele><time>2026-04-26T11:16:20Z</time></trkpt><trkpt lat="45.58674550239247" lon="10.7482161695802"><ele>222.33333333333331</ele><time>2026-04-26T11:16:21Z</time></trkpt><trkpt lat="45.586821534345816" lon="10.748193067611707"><ele>222.66666666666666</ele><time>2026-04-26T11:16:22Z</time></trkpt><trkpt lat="45.58688883458819" lon="10.748177587396096"><ele>223.0</ele><time>2026-04-26T11:16:23Z</time></trkpt><trkpt lat="45.58694899354245" lon="10.748142850972695"><ele>222.99999999999997</ele><time>2026-04-26T11:16:24Z</time></trkpt><trkpt lat="45.58701254149305" lon="10.748044958695264"><ele>223.0</ele><time>2026-04-26T11:16:26Z</time></trkpt><trkpt lat="45.587002726764354" lon="10.747944194228204"><ele>223.0</ele><time>2026-04-26T11:16:27Z</time></trkpt><trkpt lat="45.586900710844056" lon="10.747878080760998"><ele>223.0</ele><time>2026-04-26T11:16:28Z</time></trkpt><trkpt lat="45.58681803787937" lon="10.74792934149526"><ele>222.99999999999997</ele><time>2026-04-26T11:16:29Z</time></trkpt><trkpt lat="45.58675516657102" lon="10.748004536725619"><ele>223.0</ele><time>2026-04-26T11:16:30Z</time></trkpt><trkpt lat="45.58671302329842" lon="10.748118507479893"><ele>223.0</ele><time>2026-04-26T11:16:31Z</time></trkpt><trkpt lat="45.58664504483567" lon="10.74821445606577"><ele>223.0</ele><time>2026-04-26T11:16:32Z</time></trkpt><trkpt lat="45.58659043834007" lon="10.74830309885077"><ele>223.0</ele><time>2026-04-26T11:16:33Z</time></trkpt><trkpt lat="45.586486954445576" lon="10.748326696881241"><ele>223.0</ele><time>2026-04-26T11:16:34Z</time></trkpt><trkpt lat="45.5864046210599" lon="10.74840770435878"><ele>223.0</ele><time>2026-04-26T11:16:35Z</time></trkpt><trkpt lat="45.58631303449315" lon="10.74849183391699"><ele>222.5</ele><time>2026-04-26T11:16:36Z</time></trkpt><trkpt lat="45.58621553969341" lon="10.748581435532722"><ele>222.0</ele><time>2026-04-26T11:16:37Z</time></trkpt><trkpt lat="45.58611625931935" lon="10.74867756958317"><ele>221.5</ele><time>2026-04-26T11:16:38Z</time></trkpt><trkpt lat="45.58601511471499" lon="10.748777191654321"><ele>221.0</ele><time>2026-04-26T11:16:39Z</time></trkpt><trkpt lat="45.58591962459973" lon="10.748863405773632"><ele>221.0</ele><time>2026-04-26T11:16:40Z</time></trkpt><trkpt lat="45.58583535048029" lon="10.748934802913293"><ele>221.00000000000003</ele><time>2026-04-26T11:16:41Z</time></trkpt><trkpt lat="45.585758985641306" lon="10.749009868369622"><ele>221.00000000000003</ele><time>2026-04-26T11:16:42Z</time></trkpt><trkpt lat="45.58569042521467" lon="10.749078637449424"><ele>221.0</ele><time>2026-04-26T11:16:43Z</time></trkpt><trkpt lat="45.58562142092507" lon="10.749119007696589"><ele>221.0</ele><time>2026-04-26T11:16:45Z</time></trkpt><trkpt lat="45.58557953976199" lon="10.748947738287933"><ele>221.0</ele><time>2026-04-26T11:16:48Z</time></trkpt><trkpt lat="45.58554015965482" lon="10.748840728017152"><ele>221.0</ele><time>2026-04-26T11:16:50Z</time></trkpt><trkpt lat="45.58548362500152" lon="10.748706986769605"><ele>221.0</ele><time>2026-04-26T11:16:52Z</time></trkpt><trkpt lat="45.58516274420283" lon="10.74889437674408"><ele>221.5</ele><time>2026-04-26T11:16:53Z</time></trkpt><trkpt lat="45.585060194649614" lon="10.748946371232613"><ele>222.0</ele><time>2026-04-26T11:16:54Z</time></trkpt><trkpt lat="45.584975699573604" lon="10.749026816758843"><ele>222.5</ele><time>2026-04-26T11:16:55Z</time></trkpt><trkpt lat="45.58487822024669" lon="10.749145063413142"><ele>223.0</ele><time>2026-04-26T11:16:56Z</time></trkpt><trkpt lat="45.58477170351154" lon="10.749293788467325"><ele>223.2</ele><time>2026-04-26T11:16:57Z</time></trkpt><trkpt lat="45.584673787254246" lon="10.749436328767993"><ele>223.4</ele><time>2026-04-26T11:16:58Z</time></trkpt><trkpt lat="45.584589079585385" lon="10.749541866012654"><ele>223.59999999999997</ele><time>2026-04-26T11:16:59Z</time></trkpt><trkpt lat="45.58451948771333" lon="10.749600453535505"><ele>223.79999999999998</ele><time>2026-04-26T11:17:00Z</time></trkpt><trkpt lat="45.58442699083968" lon="10.74962188090196"><ele>224.0</ele><time>2026-04-26T11:17:01Z</time></trkpt><trkpt lat="45.584320753066095" lon="10.749607945804414"><ele>224.0</ele><time>2026-04-26T11:17:02Z</time></trkpt><trkpt lat="45.58419896965648" lon="10.749587289463406"><ele>224.0</ele><time>2026-04-26T11:17:03Z</time></trkpt><trkpt lat="45.58406202908184" lon="10.749582811924643"><ele>224.0</ele><time>2026-04-26T11:17:04Z</time></trkpt><trkpt lat="45.583926131269635" lon="10.749593527138549"><ele>224.0</ele><time>2026-04-26T11:17:05Z</time></trkpt><trkpt lat="45.58378440151927" lon="10.749609954464768"><ele>224.75</ele><time>2026-04-26T11:17:06Z</time></trkpt><trkpt lat="45.58363554767434" lon="10.749621354314177"><ele>225.5</ele><time>2026-04-26T11:17:07Z</time></trkpt><trkpt lat="45.583485046670354" lon="10.749645505390335"><ele>226.25</ele><time>2026-04-26T11:17:08Z</time></trkpt><trkpt lat="45.58335942868262" lon="10.749679015704169"><ele>227.0</ele><time>2026-04-26T11:17:09Z</time></trkpt><trkpt lat="45.583243440720004" lon="10.749719641477656"><ele>227.0</ele><time>2026-04-26T11:17:10Z</time></trkpt><trkpt lat="45.5831267555648" lon="10.749744575925058"><ele>227.0</ele><time>2026-04-26T11:17:11Z</time></trkpt><trkpt lat="45.58301411592642" lon="10.749745791117048"><ele>227.0</ele><time>2026-04-26T11:17:12Z</time></trkpt><trkpt lat="45.58290035111476" lon="10.749731005749274"><ele>227.0</ele><time>2026-04-26T11:17:13Z</time></trkpt><trkpt lat="45.58277518582943" lon="10.749699618664087"><ele>226.5</ele><time>2026-04-26T11:17:14Z</time></trkpt><trkpt lat="45.58262974510325" lon="10.749665061625967"><ele>226.0</ele><time>2026-04-26T11:17:15Z</time></trkpt><trkpt lat="45.58248917003101" lon="10.749627611524028"><ele>225.5</ele><time>2026-04-26T11:17:16Z</time></trkpt><trkpt lat="45.58234128695757" lon="10.749587825123546"><ele>225.0</ele><time>2026-04-26T11:17:17Z</time></trkpt><trkpt lat="45.58222057094623" lon="10.749559789397152"><ele>225.0</ele><time>2026-04-26T11:17:18Z</time></trkpt><trkpt lat="45.58210957754328" lon="10.749530463081099"><ele>225.0</ele><time>2026-04-26T11:17:19Z</time></trkpt><trkpt lat="45.58198623095111" lon="10.749492373251432"><ele>225.0</ele><time>2026-04-26T11:17:20Z</time></trkpt><trkpt lat="45.58185483070514" lon="10.749456370570904"><ele>225.0</ele><time>2026-04-26T11:17:21Z</time></trkpt><trkpt lat="45.5817220040837" lon="10.749439270591504"><ele>224.25</ele><time>2026-04-26T11:17:22Z</time></trkpt><trkpt lat="45.58158587367765" lon="10.749434774849906"><ele>223.5</ele><time>2026-04-26T11:17:23Z</time></trkpt><trkpt lat="45.58145960999421" lon="10.749418531514596"><ele>222.75</ele><time>2026-04-26T11:17:24Z</time></trkpt><trkpt lat="45.58133397116531" lon="10.74939357460565"><ele>222.0</ele><time>2026-04-26T11:17:25Z</time></trkpt><trkpt lat="45.58119565337511" lon="10.749367000424474"><ele>222.25</ele><time>2026-04-26T11:17:26Z</time></trkpt><trkpt lat="45.58106776435914" lon="10.749340253598508"><ele>222.5</ele><time>2026-04-26T11:17:27Z</time></trkpt><trkpt lat="45.5809481070959" lon="10.749339422523022"><ele>222.75</ele><time>2026-04-26T11:17:28Z</time></trkpt><trkpt lat="45.58082690444675" lon="10.749389110971016"><ele>223.0</ele><time>2026-04-26T11:17:29Z</time></trkpt><trkpt lat="45.58069842119441" lon="10.74945849729443"><ele>223.0</ele><time>2026-04-26T11:17:30Z</time></trkpt><trkpt lat="45.580574669738645" lon="10.749542497160082"><ele>223.0</ele><time>2026-04-26T11:17:31Z</time></trkpt><trkpt lat="45.58047245687051" lon="10.74962160917933"><ele>223.0</ele><time>2026-04-26T11:17:32Z</time></trkpt><trkpt lat="45.58038288250158" lon="10.749662182914395"><ele>223.0</ele><time>2026-04-26T11:17:33Z</time></trkpt><trkpt lat="45.58031171016592" lon="10.749698844517324"><ele>223.0</ele><time>2026-04-26T11:17:34Z</time></trkpt><trkpt lat="45.580252166763785" lon="10.749734388022436"><ele>224.4</ele><time>2026-04-26T11:17:35Z</time></trkpt><trkpt lat="45.5802048379282" lon="10.749832059228915"><ele>225.8</ele><time>2026-04-26T11:17:37Z</time></trkpt><trkpt lat="45.58012399260005" lon="10.749948426671008"><ele>227.2</ele><time>2026-04-26T11:17:40Z</time></trkpt><trkpt lat="45.58004890958167" lon="10.74998237958459"><ele>228.6</ele><time>2026-04-26T11:17:41Z</time></trkpt><trkpt lat="45.57995619414439" lon="10.750023342801887"><ele>230.0</ele><time>2026-04-26T11:17:42Z</time></trkpt><trkpt lat="45.57977584775526" lon="10.74989847447831"><ele>230.0</ele><time>2026-04-26T11:17:43Z</time></trkpt><trkpt lat="45.57967271603563" lon="10.749970087680843"><ele>230.0</ele><time>2026-04-26T11:17:44Z</time></trkpt><trkpt lat="45.57957040498843" lon="10.75003718732073"><ele>230.0</ele><time>2026-04-26T11:17:45Z</time></trkpt><trkpt lat="45.579467240117594" lon="10.750097164355235"><ele>230.0</ele><time>2026-04-26T11:17:46Z</time></trkpt><trkpt lat="45.5793547488898" lon="10.750164670248482"><ele>229.75</ele><time>2026-04-26T11:17:47Z</time></trkpt><trkpt lat="45.57925948631949" lon="10.750225873651404"><ele>229.5</ele><time>2026-04-26T11:17:48Z</time></trkpt><trkpt lat="45.57914129832312" lon="10.750305900164676"><ele>229.25</ele><time>2026-04-26T11:17:49Z</time></trkpt><trkpt lat="45.57904287372811" lon="10.750372555795225"><ele>229.0</ele><time>2026-04-26T11:17:50Z</time></trkpt><trkpt lat="45.57895024855586" lon="10.750445948846286"><ele>228.99999999999997</ele><time>2026-04-26T11:17:51Z</time></trkpt><trkpt lat="45.57886847880324" lon="10.75050853466399"><ele>229.0</ele><time>2026-04-26T11:17:52Z</time></trkpt><trkpt lat="45.57879323529555" lon="10.750551771720813"><ele>229.0</ele><time>2026-04-26T11:17:53Z</time></trkpt><trkpt lat="45.578723346795734" lon="10.75059127231792"><ele>229.0</ele><time>2026-04-26T11:17:54Z</time></trkpt><trkpt lat="45.5786464196945" lon="10.750635047220081"><ele>228.99999999999997</ele><time>2026-04-26T11:17:55Z</time></trkpt><trkpt lat="45.57860093338323" lon="10.750756769428222"><ele>229.0</ele><time>2026-04-26T11:17:56Z</time></trkpt><trkpt lat="45.57850879791388" lon="10.750817802636432"><ele>227.0</ele><time>2026-04-26T11:17:58Z</time></trkpt><trkpt lat="45.57839517587218" lon="10.751317514841553"><ele>225.0</ele><time>2026-04-26T11:18:03Z</time></trkpt><trkpt lat="45.578508743977274" lon="10.751328270878687"><ele>225.0</ele><time>2026-04-26T11:18:04Z</time></trkpt><trkpt lat="45.57867670869235" lon="10.751335027264723"><ele>225.0</ele><time>2026-04-26T11:18:05Z</time></trkpt><trkpt lat="45.57870245841075" lon="10.75144297278629"><ele>225.0</ele><time>2026-04-26T11:18:06Z</time></trkpt><trkpt lat="45.5787317393675" lon="10.751567197366676"><ele>225.0</ele><time>2026-04-26T11:18:07Z</time></trkpt><trkpt lat="45.57874927613478" lon="10.751665177520266"><ele>225.0</ele><time>2026-04-26T11:18:08Z</time></trkpt><trkpt lat="45.57859617320852" lon="10.751787447774795"><ele>223.83333333333334</ele><time>2026-04-26T11:18:09Z</time></trkpt><trkpt lat="45.57858392817288" lon="10.751954106653455"><ele>222.66666666666669</ele><time>2026-04-26T11:18:11Z</time></trkpt><trkpt lat="45.578580900586154" lon="10.752106877168073"><ele>221.5</ele><time>2026-04-26T11:18:12Z</time></trkpt><trkpt lat="45.57857895044682" lon="10.752213114766228"><ele>220.33333333333334</ele><time>2026-04-26T11:18:13Z</time></trkpt><trkpt lat="45.57857747407068" lon="10.752321146913598"><ele>219.16666666666669</ele><time>2026-04-26T11:18:14Z</time></trkpt><trkpt lat="45.57857081661461" lon="10.752420665767076"><ele>218.0</ele><time>2026-04-26T11:18:15Z</time></trkpt><trkpt lat="45.578537305467364" lon="10.752560397363654"><ele>218.0</ele><time>2026-04-26T11:18:17Z</time></trkpt><trkpt lat="45.578453757506885" lon="10.752575394635652"><ele>218.0</ele><time>2026-04-26T11:18:21Z</time></trkpt><trkpt lat="45.57847154744679" lon="10.752749221815849"><ele>218.0</ele><time>2026-04-26T11:18:22Z</time></trkpt><trkpt lat="45.57845739289596" lon="10.75285696750188"><ele>218.0</ele><time>2026-04-26T11:18:23Z</time></trkpt><trkpt lat="45.578454282300825" lon="10.75298402470947"><ele>218.0</ele><time>2026-04-26T11:18:24Z</time></trkpt><trkpt lat="45.57844763615955" lon="10.753139361264266"><ele>217.0</ele><time>2026-04-26T11:18:25Z</time></trkpt><trkpt lat="45.57843948573502" lon="10.753282372097296"><ele>216.0</ele><time>2026-04-26T11:18:26Z</time></trkpt><trkpt lat="45.57842871355645" lon="10.753412248324432"><ele>215.0</ele><time>2026-04-26T11:18:27Z</time></trkpt><trkpt lat="45.57844701933041" lon="10.753545845415475"><ele>214.0</ele><time>2026-04-26T11:18:28Z</time></trkpt><trkpt lat="45.57847127189441" lon="10.75367943380156"><ele>213.0</ele><time>2026-04-26T11:18:29Z</time></trkpt><trkpt lat="45.57850562996543" lon="10.753792185056312"><ele>212.33333333333334</ele><time>2026-04-26T11:18:30Z</time></trkpt><trkpt lat="45.57854792882541" lon="10.753883683418355"><ele>211.66666666666669</ele><time>2026-04-26T11:18:31Z</time></trkpt><trkpt lat="45.578574734332285" lon="10.753981047346146"><ele>211.0</ele><time>2026-04-26T11:18:32Z</time></trkpt><trkpt lat="45.57859896360204" lon="10.754115849123835"><ele>210.33333333333334</ele><time>2026-04-26T11:18:34Z</time></trkpt><trkpt lat="45.57850034208606" lon="10.754098510482438"><ele>209.66666666666669</ele><time>2026-04-26T11:18:38Z</time></trkpt><trkpt lat="45.57843029968428" lon="10.754044284193906"><ele>209.0</ele><time>2026-04-26T11:18:39Z</time></trkpt><trkpt lat="45.57833567947697" lon="10.75398497209935"><ele>209.00000000000003</ele><time>2026-04-26T11:18:40Z</time></trkpt><trkpt lat="45.57825797532961" lon="10.753927905911352"><ele>209.0</ele><time>2026-04-26T11:18:41Z</time></trkpt><trkpt lat="45.5781723231173" lon="10.753871487064638"><ele>209.0</ele><time>2026-04-26T11:18:42Z</time></trkpt><trkpt lat="45.578098899043894" lon="10.753830223199166"><ele>209.0</ele><time>2026-04-26T11:18:43Z</time></trkpt><trkpt lat="45.57802305744424" lon="10.753775601351599"><ele>209.00000000000003</ele><time>2026-04-26T11:18:44Z</time></trkpt><trkpt lat="45.57796738191822" lon="10.753726398315639"><ele>209.0</ele><time>2026-04-26T11:18:45Z</time></trkpt><trkpt lat="45.57788688998181" lon="10.753669394196175"><ele>208.33333333333334</ele><time>2026-04-26T11:18:47Z</time></trkpt><trkpt lat="45.57783448737781" lon="10.753618278587036"><ele>207.66666666666669</ele><time>2026-04-26T11:19:05Z</time></trkpt><trkpt lat="45.57757944029661" lon="10.753875479134672"><ele>207.0</ele><time>2026-04-26T11:19:08Z</time></trkpt><trkpt lat="45.57749778642146" lon="10.7539327516988"><ele>207.0</ele><time>2026-04-26T11:19:10Z</time></trkpt><trkpt lat="45.5773919330865" lon="10.753987442175937"><ele>207.0</ele><time>2026-04-26T11:19:12Z</time></trkpt><trkpt lat="45.57730344327167" lon="10.754042264827635"><ele>207.0</ele><time>2026-04-26T11:19:14Z</time></trkpt><trkpt lat="45.577244795675874" lon="10.75407937226731"><ele>207.0</ele><time>2026-04-26T11:19:15Z</time></trkpt><trkpt lat="45.57717307821478" lon="10.754121942167307"><ele>207.0</ele><time>2026-04-26T11:19:16Z</time></trkpt><trkpt lat="45.577065382201575" lon="10.754193564429226"><ele>207.0</ele><time>2026-04-26T11:19:18Z</time></trkpt><trkpt lat="45.57700133611569" lon="10.75423878736689"><ele>207.0</ele><time>2026-04-26T11:19:21Z</time></trkpt><trkpt lat="45.57702202519062" lon="10.754341991647768"><ele>207.0</ele><time>2026-04-26T11:19:26Z</time></trkpt><trkpt lat="45.57708002698797" lon="10.75451577726915"><ele>207.0</ele><time>2026-04-26T11:19:28Z</time></trkpt><trkpt lat="45.57709604249352" lon="10.754634826800704"><ele>207.0</ele><time>2026-04-26T11:19:29Z</time></trkpt><trkpt lat="45.57711506178323" lon="10.754767602501893"><ele>207.0</ele><time>2026-04-26T11:19:30Z</time></trkpt><trkpt lat="45.57713584001745" lon="10.754896343888468"><ele>207.0</ele><time>2026-04-26T11:19:31Z</time></trkpt><trkpt lat="45.577151532240556" lon="10.754997070758813"><ele>207.0</ele><time>2026-04-26T11:19:32Z</time></trkpt><trkpt lat="45.57715908619148" lon="10.75509055274043"><ele>207.0</ele><time>2026-04-26T11:19:33Z</time></trkpt><trkpt lat="45.57713749279648" lon="10.755209720127924"><ele>207.0</ele><time>2026-04-26T11:19:35Z</time></trkpt><trkpt lat="45.57705559620598" lon="10.755288982121593"><ele>207.0</ele><time>2026-04-26T11:19:37Z</time></trkpt><trkpt lat="45.57695678850707" lon="10.755337160305027"><ele>205.0</ele><time>2026-04-26T11:19:39Z</time></trkpt><trkpt lat="45.576886097155594" lon="10.755356761028427"><ele>205.0</ele><time>2026-04-26T11:19:41Z</time></trkpt><trkpt lat="45.57681766595836" lon="10.755332334202281"><ele>205.0</ele><time>2026-04-26T11:19:44Z</time></trkpt></trkseg></trk></gpx>